<?xml version="1.0" encoding="UTF-8" standalone="no" ?>
<gpx xmlns="http://www.topografix.com/GPX/1/1" xmlns:xsi="http://www.w3.org/2001/XMLSchema-instance" xsi:schemaLocation="http://www.topografix.com/GPX/1/1 http://www.topografix.com/GPX/1/1/gpx.xsd" version="1.1" creator="VisuGPX - https://www.visugpx.com">
  <metadata>
    <name>Vosges - Pyrénées 11. De l'abri Schaentzel au refuge Brézouard</name>
    <desc><![CDATA[Trace AlpineQuest 19/03/2026 06:57:49]]></desc>
  </metadata>
  <trk>
    <name><![CDATA[visugpx_lE1kmCm4MZ_1]]></name>
    <extensions>
      <line xmlns="http://www.topografix.com/GPX/gpx_style/0/2">
        <color>0000FF</color>
        <opacity>1</opacity>
        <width>4</width>
      </line>
    </extensions>
    <trkseg>
      <trkpt lat="48.24462" lon="7.32769">
        <ele>569.8</ele>
        <time>2026-03-19T05:57:54Z</time>
      </trkpt>
      <trkpt lat="48.24456" lon="7.32774">
        <ele>568</ele>
        <time>2026-03-19T05:58:00Z</time>
      </trkpt>
      <trkpt lat="48.24459" lon="7.32771">
        <ele>569</ele>
        <time>2026-03-19T05:58:05Z</time>
      </trkpt>
      <trkpt lat="48.24458" lon="7.32763">
        <ele>569.8</ele>
        <time>2026-03-19T05:58:10Z</time>
      </trkpt>
      <trkpt lat="48.24458" lon="7.32756">
        <ele>570.7</ele>
        <time>2026-03-19T05:58:15Z</time>
      </trkpt>
      <trkpt lat="48.24455" lon="7.32746">
        <ele>571.3</ele>
        <time>2026-03-19T05:58:20Z</time>
      </trkpt>
      <trkpt lat="48.24451" lon="7.32739">
        <ele>571.4</ele>
        <time>2026-03-19T05:58:25Z</time>
      </trkpt>
      <trkpt lat="48.24451" lon="7.32734">
        <ele>571.9</ele>
        <time>2026-03-19T05:58:30Z</time>
      </trkpt>
      <trkpt lat="48.24448" lon="7.32733">
        <ele>571.5</ele>
        <time>2026-03-19T05:58:35Z</time>
      </trkpt>
      <trkpt lat="48.24447" lon="7.32725">
        <ele>572.3</ele>
        <time>2026-03-19T05:58:40Z</time>
      </trkpt>
      <trkpt lat="48.24444" lon="7.32715">
        <ele>573</ele>
        <time>2026-03-19T05:58:45Z</time>
      </trkpt>
      <trkpt lat="48.24439" lon="7.32709">
        <ele>573.1</ele>
        <time>2026-03-19T05:58:50Z</time>
      </trkpt>
      <trkpt lat="48.24434" lon="7.32703">
        <ele>573.3</ele>
        <time>2026-03-19T05:58:55Z</time>
      </trkpt>
      <trkpt lat="48.24429" lon="7.32696">
        <ele>573.7</ele>
        <time>2026-03-19T05:59:00Z</time>
      </trkpt>
      <trkpt lat="48.24422" lon="7.32691">
        <ele>573.7</ele>
        <time>2026-03-19T05:59:05Z</time>
      </trkpt>
      <trkpt lat="48.24417" lon="7.32685">
        <ele>574.2</ele>
        <time>2026-03-19T05:59:10Z</time>
      </trkpt>
      <trkpt lat="48.24417" lon="7.32685">
        <ele>574.2</ele>
        <time>2026-03-19T05:59:15Z</time>
      </trkpt>
      <trkpt lat="48.24417" lon="7.32685">
        <ele>574.2</ele>
        <time>2026-03-19T05:59:20Z</time>
      </trkpt>
      <trkpt lat="48.24417" lon="7.32685">
        <ele>574.2</ele>
        <time>2026-03-19T05:59:25Z</time>
      </trkpt>
      <trkpt lat="48.24417" lon="7.32685">
        <ele>574.2</ele>
        <time>2026-03-19T05:59:30Z</time>
      </trkpt>
      <trkpt lat="48.24417" lon="7.32685">
        <ele>574.2</ele>
        <time>2026-03-19T05:59:35Z</time>
      </trkpt>
      <trkpt lat="48.24411" lon="7.32682">
        <ele>574.1</ele>
        <time>2026-03-19T05:59:40Z</time>
      </trkpt>
      <trkpt lat="48.24406" lon="7.32672">
        <ele>575.3</ele>
        <time>2026-03-19T05:59:45Z</time>
      </trkpt>
      <trkpt lat="48.24402" lon="7.32657">
        <ele>577.5</ele>
        <time>2026-03-19T05:59:50Z</time>
      </trkpt>
      <trkpt lat="48.24399" lon="7.3265">
        <ele>578.6</ele>
        <time>2026-03-19T05:59:55Z</time>
      </trkpt>
      <trkpt lat="48.24399" lon="7.32641">
        <ele>580.3</ele>
        <time>2026-03-19T06:00:00Z</time>
      </trkpt>
      <trkpt lat="48.24407" lon="7.32636">
        <ele>581.8</ele>
        <time>2026-03-19T06:00:05Z</time>
      </trkpt>
      <trkpt lat="48.24401" lon="7.32641">
        <ele>580.4</ele>
        <time>2026-03-19T06:00:10Z</time>
      </trkpt>
      <trkpt lat="48.24394" lon="7.32649">
        <ele>578.4</ele>
        <time>2026-03-19T06:00:15Z</time>
      </trkpt>
      <trkpt lat="48.2439" lon="7.32645">
        <ele>578.8</ele>
        <time>2026-03-19T06:00:20Z</time>
      </trkpt>
      <trkpt lat="48.24386" lon="7.32638">
        <ele>579.8</ele>
        <time>2026-03-19T06:00:25Z</time>
      </trkpt>
      <trkpt lat="48.24384" lon="7.32636">
        <ele>580.1</ele>
        <time>2026-03-19T06:00:30Z</time>
      </trkpt>
      <trkpt lat="48.24384" lon="7.32637">
        <ele>579.9</ele>
        <time>2026-03-19T06:00:35Z</time>
      </trkpt>
      <trkpt lat="48.24388" lon="7.32644">
        <ele>578.9</ele>
        <time>2026-03-19T06:00:40Z</time>
      </trkpt>
      <trkpt lat="48.24392" lon="7.32652">
        <ele>577.7</ele>
        <time>2026-03-19T06:00:45Z</time>
      </trkpt>
      <trkpt lat="48.24401" lon="7.32651">
        <ele>578.6</ele>
        <time>2026-03-19T06:00:50Z</time>
      </trkpt>
      <trkpt lat="48.24406" lon="7.32644">
        <ele>580.3</ele>
        <time>2026-03-19T06:00:55Z</time>
      </trkpt>
      <trkpt lat="48.24403" lon="7.32634">
        <ele>581.9</ele>
        <time>2026-03-19T06:01:00Z</time>
      </trkpt>
      <trkpt lat="48.24405" lon="7.32622">
        <ele>584.2</ele>
        <time>2026-03-19T06:01:05Z</time>
      </trkpt>
      <trkpt lat="48.24402" lon="7.32617">
        <ele>584.9</ele>
        <time>2026-03-19T06:01:10Z</time>
      </trkpt>
      <trkpt lat="48.24398" lon="7.32612">
        <ele>585.6</ele>
        <time>2026-03-19T06:01:15Z</time>
      </trkpt>
      <trkpt lat="48.24397" lon="7.32604">
        <ele>587</ele>
        <time>2026-03-19T06:01:20Z</time>
      </trkpt>
      <trkpt lat="48.24392" lon="7.32597">
        <ele>588</ele>
        <time>2026-03-19T06:01:25Z</time>
      </trkpt>
      <trkpt lat="48.24386" lon="7.32594">
        <ele>588.1</ele>
        <time>2026-03-19T06:01:30Z</time>
      </trkpt>
      <trkpt lat="48.24382" lon="7.32593">
        <ele>588.1</ele>
        <time>2026-03-19T06:01:35Z</time>
      </trkpt>
      <trkpt lat="48.24378" lon="7.32593">
        <ele>587.8</ele>
        <time>2026-03-19T06:01:40Z</time>
      </trkpt>
      <trkpt lat="48.24378" lon="7.32585">
        <ele>589.4</ele>
        <time>2026-03-19T06:01:45Z</time>
      </trkpt>
      <trkpt lat="48.24378" lon="7.32577">
        <ele>591.1</ele>
        <time>2026-03-19T06:01:50Z</time>
      </trkpt>
      <trkpt lat="48.24381" lon="7.32571">
        <ele>592.5</ele>
        <time>2026-03-19T06:01:55Z</time>
      </trkpt>
      <trkpt lat="48.24384" lon="7.32561">
        <ele>594.9</ele>
        <time>2026-03-19T06:02:00Z</time>
      </trkpt>
      <trkpt lat="48.24379" lon="7.32554">
        <ele>596.2</ele>
        <time>2026-03-19T06:02:05Z</time>
      </trkpt>
      <trkpt lat="48.24373" lon="7.32553">
        <ele>596.2</ele>
        <time>2026-03-19T06:02:10Z</time>
      </trkpt>
      <trkpt lat="48.24367" lon="7.32552">
        <ele>596.2</ele>
        <time>2026-03-19T06:02:15Z</time>
      </trkpt>
      <trkpt lat="48.24358" lon="7.32558">
        <ele>594.4</ele>
        <time>2026-03-19T06:02:20Z</time>
      </trkpt>
      <trkpt lat="48.24351" lon="7.32563">
        <ele>592.9</ele>
        <time>2026-03-19T06:02:25Z</time>
      </trkpt>
      <trkpt lat="48.24345" lon="7.32565">
        <ele>592.2</ele>
        <time>2026-03-19T06:02:30Z</time>
      </trkpt>
      <trkpt lat="48.2434" lon="7.32568">
        <ele>591.2</ele>
        <time>2026-03-19T06:02:35Z</time>
      </trkpt>
      <trkpt lat="48.24336" lon="7.32569">
        <ele>590.7</ele>
        <time>2026-03-19T06:02:40Z</time>
      </trkpt>
      <trkpt lat="48.2433" lon="7.32571">
        <ele>589.7</ele>
        <time>2026-03-19T06:02:45Z</time>
      </trkpt>
      <trkpt lat="48.24324" lon="7.32574">
        <ele>588.2</ele>
        <time>2026-03-19T06:02:50Z</time>
      </trkpt>
      <trkpt lat="48.24317" lon="7.32577">
        <ele>586.5</ele>
        <time>2026-03-19T06:02:55Z</time>
      </trkpt>
      <trkpt lat="48.2431" lon="7.32575">
        <ele>586.1</ele>
        <time>2026-03-19T06:03:00Z</time>
      </trkpt>
      <trkpt lat="48.24303" lon="7.32573">
        <ele>585.7</ele>
        <time>2026-03-19T06:03:05Z</time>
      </trkpt>
      <trkpt lat="48.24298" lon="7.3257">
        <ele>585.7</ele>
        <time>2026-03-19T06:03:10Z</time>
      </trkpt>
      <trkpt lat="48.24291" lon="7.32567">
        <ele>585.4</ele>
        <time>2026-03-19T06:03:15Z</time>
      </trkpt>
      <trkpt lat="48.24284" lon="7.32563">
        <ele>585.3</ele>
        <time>2026-03-19T06:03:20Z</time>
      </trkpt>
      <trkpt lat="48.24277" lon="7.32561">
        <ele>584.8</ele>
        <time>2026-03-19T06:03:25Z</time>
      </trkpt>
      <trkpt lat="48.24271" lon="7.32558">
        <ele>584.5</ele>
        <time>2026-03-19T06:03:30Z</time>
      </trkpt>
      <trkpt lat="48.24263" lon="7.32554">
        <ele>584.2</ele>
        <time>2026-03-19T06:03:35Z</time>
      </trkpt>
      <trkpt lat="48.24257" lon="7.3255">
        <ele>584</ele>
        <time>2026-03-19T06:03:40Z</time>
      </trkpt>
      <trkpt lat="48.24251" lon="7.32547">
        <ele>583.7</ele>
        <time>2026-03-19T06:03:45Z</time>
      </trkpt>
      <trkpt lat="48.24246" lon="7.32542">
        <ele>584.2</ele>
        <time>2026-03-19T06:03:50Z</time>
      </trkpt>
      <trkpt lat="48.24239" lon="7.32537">
        <ele>584.7</ele>
        <time>2026-03-19T06:03:55Z</time>
      </trkpt>
      <trkpt lat="48.24233" lon="7.32531">
        <ele>585.3</ele>
        <time>2026-03-19T06:04:00Z</time>
      </trkpt>
      <trkpt lat="48.24226" lon="7.32527">
        <ele>585.5</ele>
        <time>2026-03-19T06:04:05Z</time>
      </trkpt>
      <trkpt lat="48.24219" lon="7.32521">
        <ele>585.8</ele>
        <time>2026-03-19T06:04:10Z</time>
      </trkpt>
      <trkpt lat="48.24213" lon="7.32517">
        <ele>585.8</ele>
        <time>2026-03-19T06:04:15Z</time>
      </trkpt>
      <trkpt lat="48.24208" lon="7.32515">
        <ele>585.7</ele>
        <time>2026-03-19T06:04:20Z</time>
      </trkpt>
      <trkpt lat="48.24203" lon="7.32511">
        <ele>585.7</ele>
        <time>2026-03-19T06:04:25Z</time>
      </trkpt>
      <trkpt lat="48.24198" lon="7.32505">
        <ele>585.9</ele>
        <time>2026-03-19T06:04:30Z</time>
      </trkpt>
      <trkpt lat="48.24193" lon="7.32503">
        <ele>585.6</ele>
        <time>2026-03-19T06:04:35Z</time>
      </trkpt>
      <trkpt lat="48.24189" lon="7.32498">
        <ele>586</ele>
        <time>2026-03-19T06:04:40Z</time>
      </trkpt>
      <trkpt lat="48.24184" lon="7.32494">
        <ele>586.5</ele>
        <time>2026-03-19T06:04:45Z</time>
      </trkpt>
      <trkpt lat="48.24177" lon="7.32491">
        <ele>586.5</ele>
        <time>2026-03-19T06:04:50Z</time>
      </trkpt>
      <trkpt lat="48.24169" lon="7.32485">
        <ele>587.1</ele>
        <time>2026-03-19T06:04:55Z</time>
      </trkpt>
      <trkpt lat="48.24162" lon="7.32481">
        <ele>587.4</ele>
        <time>2026-03-19T06:05:00Z</time>
      </trkpt>
      <trkpt lat="48.24158" lon="7.3248">
        <ele>587.3</ele>
        <time>2026-03-19T06:05:05Z</time>
      </trkpt>
      <trkpt lat="48.24154" lon="7.32478">
        <ele>587.4</ele>
        <time>2026-03-19T06:05:10Z</time>
      </trkpt>
      <trkpt lat="48.24147" lon="7.32474">
        <ele>587.8</ele>
        <time>2026-03-19T06:05:15Z</time>
      </trkpt>
      <trkpt lat="48.24142" lon="7.32468">
        <ele>588.7</ele>
        <time>2026-03-19T06:05:20Z</time>
      </trkpt>
      <trkpt lat="48.24137" lon="7.32464">
        <ele>589.2</ele>
        <time>2026-03-19T06:05:25Z</time>
      </trkpt>
      <trkpt lat="48.24134" lon="7.3246">
        <ele>589.8</ele>
        <time>2026-03-19T06:05:30Z</time>
      </trkpt>
      <trkpt lat="48.24127" lon="7.32457">
        <ele>589.8</ele>
        <time>2026-03-19T06:05:35Z</time>
      </trkpt>
      <trkpt lat="48.24122" lon="7.32453">
        <ele>590.1</ele>
        <time>2026-03-19T06:05:40Z</time>
      </trkpt>
      <trkpt lat="48.24118" lon="7.32449">
        <ele>590.6</ele>
        <time>2026-03-19T06:05:45Z</time>
      </trkpt>
      <trkpt lat="48.24112" lon="7.32445">
        <ele>590.8</ele>
        <time>2026-03-19T06:05:50Z</time>
      </trkpt>
      <trkpt lat="48.24106" lon="7.32441">
        <ele>590.9</ele>
        <time>2026-03-19T06:05:55Z</time>
      </trkpt>
      <trkpt lat="48.241" lon="7.32437">
        <ele>591.1</ele>
        <time>2026-03-19T06:06:00Z</time>
      </trkpt>
      <trkpt lat="48.24094" lon="7.32434">
        <ele>590.9</ele>
        <time>2026-03-19T06:06:05Z</time>
      </trkpt>
      <trkpt lat="48.24088" lon="7.32428">
        <ele>591.4</ele>
        <time>2026-03-19T06:06:10Z</time>
      </trkpt>
      <trkpt lat="48.24082" lon="7.32422">
        <ele>591.8</ele>
        <time>2026-03-19T06:06:15Z</time>
      </trkpt>
      <trkpt lat="48.24075" lon="7.32417">
        <ele>591.8</ele>
        <time>2026-03-19T06:06:20Z</time>
      </trkpt>
      <trkpt lat="48.24067" lon="7.32413">
        <ele>591.1</ele>
        <time>2026-03-19T06:06:25Z</time>
      </trkpt>
      <trkpt lat="48.2406" lon="7.32409">
        <ele>590.4</ele>
        <time>2026-03-19T06:06:30Z</time>
      </trkpt>
      <trkpt lat="48.24055" lon="7.32408">
        <ele>589.7</ele>
        <time>2026-03-19T06:06:35Z</time>
      </trkpt>
      <trkpt lat="48.24049" lon="7.32406">
        <ele>588.9</ele>
        <time>2026-03-19T06:06:40Z</time>
      </trkpt>
      <trkpt lat="48.24043" lon="7.32404">
        <ele>587.9</ele>
        <time>2026-03-19T06:06:45Z</time>
      </trkpt>
      <trkpt lat="48.24036" lon="7.32402">
        <ele>586.8</ele>
        <time>2026-03-19T06:06:50Z</time>
      </trkpt>
      <trkpt lat="48.24029" lon="7.32401">
        <ele>585.6</ele>
        <time>2026-03-19T06:06:55Z</time>
      </trkpt>
      <trkpt lat="48.24023" lon="7.32401">
        <ele>584.6</ele>
        <time>2026-03-19T06:07:00Z</time>
      </trkpt>
      <trkpt lat="48.24016" lon="7.324">
        <ele>583.4</ele>
        <time>2026-03-19T06:07:05Z</time>
      </trkpt>
      <trkpt lat="48.24009" lon="7.32399">
        <ele>582.1</ele>
        <time>2026-03-19T06:07:10Z</time>
      </trkpt>
      <trkpt lat="48.24003" lon="7.32399">
        <ele>581</ele>
        <time>2026-03-19T06:07:15Z</time>
      </trkpt>
      <trkpt lat="48.23997" lon="7.32397">
        <ele>579.9</ele>
        <time>2026-03-19T06:07:20Z</time>
      </trkpt>
      <trkpt lat="48.23991" lon="7.32399">
        <ele>579.1</ele>
        <time>2026-03-19T06:07:25Z</time>
      </trkpt>
      <trkpt lat="48.23984" lon="7.32401">
        <ele>578.2</ele>
        <time>2026-03-19T06:07:30Z</time>
      </trkpt>
      <trkpt lat="48.23977" lon="7.32402">
        <ele>577.2</ele>
        <time>2026-03-19T06:07:35Z</time>
      </trkpt>
      <trkpt lat="48.2397" lon="7.32402">
        <ele>576.2</ele>
        <time>2026-03-19T06:07:40Z</time>
      </trkpt>
      <trkpt lat="48.23965" lon="7.32402">
        <ele>575.4</ele>
        <time>2026-03-19T06:07:45Z</time>
      </trkpt>
      <trkpt lat="48.23961" lon="7.32406">
        <ele>575.4</ele>
        <time>2026-03-19T06:07:50Z</time>
      </trkpt>
      <trkpt lat="48.2396" lon="7.32405">
        <ele>575.1</ele>
        <time>2026-03-19T06:07:55Z</time>
      </trkpt>
      <trkpt lat="48.23958" lon="7.32399">
        <ele>573.9</ele>
        <time>2026-03-19T06:08:00Z</time>
      </trkpt>
      <trkpt lat="48.23957" lon="7.32393">
        <ele>572.9</ele>
        <time>2026-03-19T06:08:05Z</time>
      </trkpt>
      <trkpt lat="48.23957" lon="7.32385">
        <ele>571.7</ele>
        <time>2026-03-19T06:08:10Z</time>
      </trkpt>
      <trkpt lat="48.23956" lon="7.32377">
        <ele>570.3</ele>
        <time>2026-03-19T06:08:15Z</time>
      </trkpt>
      <trkpt lat="48.23956" lon="7.32367">
        <ele>568.9</ele>
        <time>2026-03-19T06:08:20Z</time>
      </trkpt>
      <trkpt lat="48.23956" lon="7.32358">
        <ele>567.5</ele>
        <time>2026-03-19T06:08:25Z</time>
      </trkpt>
      <trkpt lat="48.23957" lon="7.32352">
        <ele>566.9</ele>
        <time>2026-03-19T06:08:30Z</time>
      </trkpt>
      <trkpt lat="48.23956" lon="7.3234">
        <ele>564.9</ele>
        <time>2026-03-19T06:08:35Z</time>
      </trkpt>
      <trkpt lat="48.23957" lon="7.3233">
        <ele>563.9</ele>
        <time>2026-03-19T06:08:40Z</time>
      </trkpt>
      <trkpt lat="48.23957" lon="7.32318">
        <ele>563</ele>
        <time>2026-03-19T06:08:45Z</time>
      </trkpt>
      <trkpt lat="48.23959" lon="7.32307">
        <ele>562.8</ele>
        <time>2026-03-19T06:08:50Z</time>
      </trkpt>
      <trkpt lat="48.2396" lon="7.32297">
        <ele>562.4</ele>
        <time>2026-03-19T06:08:55Z</time>
      </trkpt>
      <trkpt lat="48.23962" lon="7.32289">
        <ele>562.5</ele>
        <time>2026-03-19T06:09:00Z</time>
      </trkpt>
      <trkpt lat="48.23964" lon="7.32281">
        <ele>562.6</ele>
        <time>2026-03-19T06:09:05Z</time>
      </trkpt>
      <trkpt lat="48.23964" lon="7.32271">
        <ele>561.9</ele>
        <time>2026-03-19T06:09:10Z</time>
      </trkpt>
      <trkpt lat="48.23961" lon="7.32262">
        <ele>560.3</ele>
        <time>2026-03-19T06:09:15Z</time>
      </trkpt>
      <trkpt lat="48.23961" lon="7.3225">
        <ele>559.5</ele>
        <time>2026-03-19T06:09:20Z</time>
      </trkpt>
      <trkpt lat="48.23963" lon="7.3224">
        <ele>559.6</ele>
        <time>2026-03-19T06:09:25Z</time>
      </trkpt>
      <trkpt lat="48.23963" lon="7.32231">
        <ele>559</ele>
        <time>2026-03-19T06:09:30Z</time>
      </trkpt>
      <trkpt lat="48.23964" lon="7.32221">
        <ele>558.7</ele>
        <time>2026-03-19T06:09:35Z</time>
      </trkpt>
      <trkpt lat="48.23964" lon="7.32211">
        <ele>558</ele>
        <time>2026-03-19T06:09:40Z</time>
      </trkpt>
      <trkpt lat="48.23966" lon="7.32199">
        <ele>557.9</ele>
        <time>2026-03-19T06:09:45Z</time>
      </trkpt>
      <trkpt lat="48.23969" lon="7.32187">
        <ele>558.2</ele>
        <time>2026-03-19T06:09:50Z</time>
      </trkpt>
      <trkpt lat="48.23969" lon="7.32177">
        <ele>557.5</ele>
        <time>2026-03-19T06:09:55Z</time>
      </trkpt>
      <trkpt lat="48.23969" lon="7.32168">
        <ele>556.9</ele>
        <time>2026-03-19T06:10:00Z</time>
      </trkpt>
      <trkpt lat="48.23966" lon="7.32161">
        <ele>555.4</ele>
        <time>2026-03-19T06:10:05Z</time>
      </trkpt>
      <trkpt lat="48.23965" lon="7.32151">
        <ele>554.5</ele>
        <time>2026-03-19T06:10:10Z</time>
      </trkpt>
      <trkpt lat="48.23962" lon="7.32139">
        <ele>552.8</ele>
        <time>2026-03-19T06:10:15Z</time>
      </trkpt>
      <trkpt lat="48.23961" lon="7.3213">
        <ele>552</ele>
        <time>2026-03-19T06:10:20Z</time>
      </trkpt>
      <trkpt lat="48.23962" lon="7.32121">
        <ele>551.8</ele>
        <time>2026-03-19T06:10:25Z</time>
      </trkpt>
      <trkpt lat="48.23967" lon="7.32121">
        <ele>553.6</ele>
        <time>2026-03-19T06:10:30Z</time>
      </trkpt>
      <trkpt lat="48.23972" lon="7.32122">
        <ele>555.4</ele>
        <time>2026-03-19T06:10:35Z</time>
      </trkpt>
      <trkpt lat="48.23972" lon="7.32121">
        <ele>555.4</ele>
        <time>2026-03-19T06:10:40Z</time>
      </trkpt>
      <trkpt lat="48.23972" lon="7.32121">
        <ele>555.4</ele>
        <time>2026-03-19T06:10:45Z</time>
      </trkpt>
      <trkpt lat="48.23972" lon="7.32121">
        <ele>555.4</ele>
        <time>2026-03-19T06:10:50Z</time>
      </trkpt>
      <trkpt lat="48.23972" lon="7.32121">
        <ele>555.4</ele>
        <time>2026-03-19T06:10:55Z</time>
      </trkpt>
      <trkpt lat="48.23972" lon="7.32121">
        <ele>555.4</ele>
        <time>2026-03-19T06:11:00Z</time>
      </trkpt>
      <trkpt lat="48.23972" lon="7.32121">
        <ele>555.4</ele>
        <time>2026-03-19T06:11:05Z</time>
      </trkpt>
      <trkpt lat="48.23966" lon="7.32108">
        <ele>552.5</ele>
        <time>2026-03-19T06:11:10Z</time>
      </trkpt>
      <trkpt lat="48.23966" lon="7.32106">
        <ele>552.4</ele>
        <time>2026-03-19T06:11:15Z</time>
      </trkpt>
      <trkpt lat="48.23966" lon="7.32106">
        <ele>552.4</ele>
        <time>2026-03-19T06:11:20Z</time>
      </trkpt>
      <trkpt lat="48.23963" lon="7.32092">
        <ele>550.6</ele>
        <time>2026-03-19T06:11:25Z</time>
      </trkpt>
      <trkpt lat="48.23962" lon="7.32084">
        <ele>549.8</ele>
        <time>2026-03-19T06:11:30Z</time>
      </trkpt>
      <trkpt lat="48.23963" lon="7.32078">
        <ele>550.2</ele>
        <time>2026-03-19T06:11:35Z</time>
      </trkpt>
      <trkpt lat="48.23963" lon="7.32069">
        <ele>550.3</ele>
        <time>2026-03-19T06:11:40Z</time>
      </trkpt>
      <trkpt lat="48.23961" lon="7.32061">
        <ele>549.8</ele>
        <time>2026-03-19T06:11:45Z</time>
      </trkpt>
      <trkpt lat="48.2396" lon="7.32052">
        <ele>549.6</ele>
        <time>2026-03-19T06:11:50Z</time>
      </trkpt>
      <trkpt lat="48.2396" lon="7.32045">
        <ele>549.7</ele>
        <time>2026-03-19T06:11:55Z</time>
      </trkpt>
      <trkpt lat="48.2396" lon="7.32039">
        <ele>549.8</ele>
        <time>2026-03-19T06:12:00Z</time>
      </trkpt>
      <trkpt lat="48.23962" lon="7.32032">
        <ele>550.5</ele>
        <time>2026-03-19T06:12:05Z</time>
      </trkpt>
      <trkpt lat="48.23962" lon="7.32024">
        <ele>550.6</ele>
        <time>2026-03-19T06:12:10Z</time>
      </trkpt>
      <trkpt lat="48.23962" lon="7.32017">
        <ele>550.7</ele>
        <time>2026-03-19T06:12:15Z</time>
      </trkpt>
      <trkpt lat="48.23964" lon="7.32009">
        <ele>551.3</ele>
        <time>2026-03-19T06:12:20Z</time>
      </trkpt>
      <trkpt lat="48.23965" lon="7.32002">
        <ele>551.6</ele>
        <time>2026-03-19T06:12:25Z</time>
      </trkpt>
      <trkpt lat="48.23966" lon="7.31996">
        <ele>552.2</ele>
        <time>2026-03-19T06:12:30Z</time>
      </trkpt>
      <trkpt lat="48.23966" lon="7.31991">
        <ele>552.6</ele>
        <time>2026-03-19T06:12:35Z</time>
      </trkpt>
      <trkpt lat="48.23967" lon="7.31983">
        <ele>553.5</ele>
        <time>2026-03-19T06:12:40Z</time>
      </trkpt>
      <trkpt lat="48.23969" lon="7.31976">
        <ele>554.5</ele>
        <time>2026-03-19T06:12:45Z</time>
      </trkpt>
      <trkpt lat="48.23972" lon="7.31969">
        <ele>555.6</ele>
        <time>2026-03-19T06:12:50Z</time>
      </trkpt>
      <trkpt lat="48.23974" lon="7.31963">
        <ele>556.5</ele>
        <time>2026-03-19T06:12:55Z</time>
      </trkpt>
      <trkpt lat="48.23973" lon="7.31954">
        <ele>557</ele>
        <time>2026-03-19T06:13:00Z</time>
      </trkpt>
      <trkpt lat="48.23975" lon="7.31944">
        <ele>558.1</ele>
        <time>2026-03-19T06:13:05Z</time>
      </trkpt>
      <trkpt lat="48.23976" lon="7.31935">
        <ele>558.9</ele>
        <time>2026-03-19T06:13:10Z</time>
      </trkpt>
      <trkpt lat="48.23972" lon="7.31926">
        <ele>558.9</ele>
        <time>2026-03-19T06:13:15Z</time>
      </trkpt>
      <trkpt lat="48.23967" lon="7.31917">
        <ele>558.8</ele>
        <time>2026-03-19T06:13:20Z</time>
      </trkpt>
      <trkpt lat="48.23963" lon="7.31912">
        <ele>558.7</ele>
        <time>2026-03-19T06:13:25Z</time>
      </trkpt>
      <trkpt lat="48.23961" lon="7.31909">
        <ele>558.6</ele>
        <time>2026-03-19T06:13:30Z</time>
      </trkpt>
      <trkpt lat="48.23961" lon="7.31907">
        <ele>558.8</ele>
        <time>2026-03-19T06:13:35Z</time>
      </trkpt>
      <trkpt lat="48.23961" lon="7.31907">
        <ele>558.8</ele>
        <time>2026-03-19T06:13:40Z</time>
      </trkpt>
      <trkpt lat="48.23961" lon="7.31907">
        <ele>558.8</ele>
        <time>2026-03-19T06:13:45Z</time>
      </trkpt>
      <trkpt lat="48.23961" lon="7.31907">
        <ele>558.8</ele>
        <time>2026-03-19T06:13:50Z</time>
      </trkpt>
      <trkpt lat="48.23961" lon="7.31907">
        <ele>558.8</ele>
        <time>2026-03-19T06:13:55Z</time>
      </trkpt>
      <trkpt lat="48.23961" lon="7.31907">
        <ele>558.8</ele>
        <time>2026-03-19T06:14:00Z</time>
      </trkpt>
      <trkpt lat="48.23961" lon="7.31907">
        <ele>558.8</ele>
        <time>2026-03-19T06:14:05Z</time>
      </trkpt>
      <trkpt lat="48.23961" lon="7.31907">
        <ele>558.8</ele>
        <time>2026-03-19T06:14:10Z</time>
      </trkpt>
      <trkpt lat="48.23961" lon="7.31907">
        <ele>558.8</ele>
        <time>2026-03-19T06:14:15Z</time>
      </trkpt>
      <trkpt lat="48.23961" lon="7.31907">
        <ele>558.8</ele>
        <time>2026-03-19T06:14:20Z</time>
      </trkpt>
      <trkpt lat="48.23961" lon="7.31907">
        <ele>558.8</ele>
        <time>2026-03-19T06:14:25Z</time>
      </trkpt>
      <trkpt lat="48.2396" lon="7.31915">
        <ele>557.9</ele>
        <time>2026-03-19T06:14:30Z</time>
      </trkpt>
      <trkpt lat="48.23956" lon="7.31916">
        <ele>557.2</ele>
        <time>2026-03-19T06:14:35Z</time>
      </trkpt>
      <trkpt lat="48.23951" lon="7.31908">
        <ele>557.2</ele>
        <time>2026-03-19T06:14:40Z</time>
      </trkpt>
      <trkpt lat="48.23948" lon="7.31902">
        <ele>557.4</ele>
        <time>2026-03-19T06:14:45Z</time>
      </trkpt>
      <trkpt lat="48.23952" lon="7.31888">
        <ele>559.4</ele>
        <time>2026-03-19T06:14:50Z</time>
      </trkpt>
      <trkpt lat="48.23953" lon="7.31894">
        <ele>558.9</ele>
        <time>2026-03-19T06:14:55Z</time>
      </trkpt>
      <trkpt lat="48.23949" lon="7.31896">
        <ele>558.1</ele>
        <time>2026-03-19T06:15:00Z</time>
      </trkpt>
      <trkpt lat="48.23938" lon="7.31886">
        <ele>557.6</ele>
        <time>2026-03-19T06:15:05Z</time>
      </trkpt>
      <trkpt lat="48.23933" lon="7.31874">
        <ele>558.3</ele>
        <time>2026-03-19T06:15:10Z</time>
      </trkpt>
      <trkpt lat="48.2393" lon="7.31864">
        <ele>559</ele>
        <time>2026-03-19T06:15:15Z</time>
      </trkpt>
      <trkpt lat="48.2393" lon="7.31857">
        <ele>559.8</ele>
        <time>2026-03-19T06:15:20Z</time>
      </trkpt>
      <trkpt lat="48.23925" lon="7.3185">
        <ele>560</ele>
        <time>2026-03-19T06:15:25Z</time>
      </trkpt>
      <trkpt lat="48.23921" lon="7.31843">
        <ele>560.3</ele>
        <time>2026-03-19T06:15:30Z</time>
      </trkpt>
      <trkpt lat="48.23918" lon="7.31835">
        <ele>560.9</ele>
        <time>2026-03-19T06:15:35Z</time>
      </trkpt>
      <trkpt lat="48.23913" lon="7.31828">
        <ele>560.5</ele>
        <time>2026-03-19T06:15:40Z</time>
      </trkpt>
      <trkpt lat="48.2391" lon="7.31823">
        <ele>560.1</ele>
        <time>2026-03-19T06:15:45Z</time>
      </trkpt>
      <trkpt lat="48.23904" lon="7.31817">
        <ele>559.3</ele>
        <time>2026-03-19T06:15:50Z</time>
      </trkpt>
      <trkpt lat="48.23899" lon="7.3181">
        <ele>558.6</ele>
        <time>2026-03-19T06:15:55Z</time>
      </trkpt>
      <trkpt lat="48.23893" lon="7.31804">
        <ele>557.8</ele>
        <time>2026-03-19T06:16:00Z</time>
      </trkpt>
      <trkpt lat="48.2389" lon="7.31796">
        <ele>557.4</ele>
        <time>2026-03-19T06:16:05Z</time>
      </trkpt>
      <trkpt lat="48.23885" lon="7.31785">
        <ele>556.6</ele>
        <time>2026-03-19T06:16:10Z</time>
      </trkpt>
      <trkpt lat="48.23881" lon="7.31778">
        <ele>556.1</ele>
        <time>2026-03-19T06:16:15Z</time>
      </trkpt>
      <trkpt lat="48.23878" lon="7.31772">
        <ele>555.6</ele>
        <time>2026-03-19T06:16:20Z</time>
      </trkpt>
      <trkpt lat="48.23876" lon="7.31762">
        <ele>555.3</ele>
        <time>2026-03-19T06:16:25Z</time>
      </trkpt>
      <trkpt lat="48.23875" lon="7.3175">
        <ele>555</ele>
        <time>2026-03-19T06:16:30Z</time>
      </trkpt>
      <trkpt lat="48.23875" lon="7.31741">
        <ele>554.4</ele>
        <time>2026-03-19T06:16:35Z</time>
      </trkpt>
      <trkpt lat="48.23875" lon="7.3173">
        <ele>553.7</ele>
        <time>2026-03-19T06:16:40Z</time>
      </trkpt>
      <trkpt lat="48.23874" lon="7.31719">
        <ele>552.9</ele>
        <time>2026-03-19T06:16:45Z</time>
      </trkpt>
      <trkpt lat="48.23872" lon="7.3171">
        <ele>552.1</ele>
        <time>2026-03-19T06:16:50Z</time>
      </trkpt>
      <trkpt lat="48.23872" lon="7.31702">
        <ele>551.6</ele>
        <time>2026-03-19T06:16:55Z</time>
      </trkpt>
      <trkpt lat="48.23871" lon="7.31692">
        <ele>550.9</ele>
        <time>2026-03-19T06:17:00Z</time>
      </trkpt>
      <trkpt lat="48.23869" lon="7.31682">
        <ele>550.1</ele>
        <time>2026-03-19T06:17:05Z</time>
      </trkpt>
      <trkpt lat="48.23868" lon="7.31671">
        <ele>549.3</ele>
        <time>2026-03-19T06:17:10Z</time>
      </trkpt>
      <trkpt lat="48.23866" lon="7.31661">
        <ele>549.4</ele>
        <time>2026-03-19T06:17:15Z</time>
      </trkpt>
      <trkpt lat="48.23862" lon="7.31651">
        <ele>550</ele>
        <time>2026-03-19T06:17:20Z</time>
      </trkpt>
      <trkpt lat="48.23858" lon="7.31644">
        <ele>550.4</ele>
        <time>2026-03-19T06:17:25Z</time>
      </trkpt>
      <trkpt lat="48.2386" lon="7.31635">
        <ele>551.3</ele>
        <time>2026-03-19T06:17:30Z</time>
      </trkpt>
      <trkpt lat="48.2386" lon="7.31626">
        <ele>552.1</ele>
        <time>2026-03-19T06:17:35Z</time>
      </trkpt>
      <trkpt lat="48.23859" lon="7.31617">
        <ele>552.8</ele>
        <time>2026-03-19T06:17:40Z</time>
      </trkpt>
      <trkpt lat="48.23855" lon="7.3161">
        <ele>553.4</ele>
        <time>2026-03-19T06:17:45Z</time>
      </trkpt>
      <trkpt lat="48.23851" lon="7.31603">
        <ele>554</ele>
        <time>2026-03-19T06:17:50Z</time>
      </trkpt>
      <trkpt lat="48.23847" lon="7.31598">
        <ele>554.4</ele>
        <time>2026-03-19T06:17:55Z</time>
      </trkpt>
      <trkpt lat="48.23842" lon="7.31592">
        <ele>555</ele>
        <time>2026-03-19T06:18:00Z</time>
      </trkpt>
      <trkpt lat="48.23838" lon="7.31582">
        <ele>556</ele>
        <time>2026-03-19T06:18:05Z</time>
      </trkpt>
      <trkpt lat="48.23834" lon="7.31573">
        <ele>556.7</ele>
        <time>2026-03-19T06:18:10Z</time>
      </trkpt>
      <trkpt lat="48.23834" lon="7.31563">
        <ele>557.5</ele>
        <time>2026-03-19T06:18:15Z</time>
      </trkpt>
      <trkpt lat="48.23833" lon="7.31553">
        <ele>558.1</ele>
        <time>2026-03-19T06:18:20Z</time>
      </trkpt>
      <trkpt lat="48.23833" lon="7.31545">
        <ele>558.7</ele>
        <time>2026-03-19T06:18:25Z</time>
      </trkpt>
      <trkpt lat="48.23832" lon="7.31535">
        <ele>559.3</ele>
        <time>2026-03-19T06:18:30Z</time>
      </trkpt>
      <trkpt lat="48.23831" lon="7.3153">
        <ele>559.4</ele>
        <time>2026-03-19T06:18:35Z</time>
      </trkpt>
      <trkpt lat="48.23829" lon="7.31524">
        <ele>559.5</ele>
        <time>2026-03-19T06:18:40Z</time>
      </trkpt>
      <trkpt lat="48.23825" lon="7.3152">
        <ele>559.1</ele>
        <time>2026-03-19T06:18:45Z</time>
      </trkpt>
      <trkpt lat="48.23818" lon="7.3152">
        <ele>557.8</ele>
        <time>2026-03-19T06:18:50Z</time>
      </trkpt>
      <trkpt lat="48.23813" lon="7.31523">
        <ele>556.7</ele>
        <time>2026-03-19T06:18:55Z</time>
      </trkpt>
      <trkpt lat="48.23808" lon="7.31525">
        <ele>555.7</ele>
        <time>2026-03-19T06:19:00Z</time>
      </trkpt>
      <trkpt lat="48.23805" lon="7.31529">
        <ele>554.9</ele>
        <time>2026-03-19T06:19:05Z</time>
      </trkpt>
      <trkpt lat="48.23799" lon="7.31534">
        <ele>553.6</ele>
        <time>2026-03-19T06:19:10Z</time>
      </trkpt>
      <trkpt lat="48.23794" lon="7.31535">
        <ele>552.7</ele>
        <time>2026-03-19T06:19:15Z</time>
      </trkpt>
      <trkpt lat="48.23788" lon="7.3153">
        <ele>551.9</ele>
        <time>2026-03-19T06:19:20Z</time>
      </trkpt>
      <trkpt lat="48.23782" lon="7.31529">
        <ele>550.9</ele>
        <time>2026-03-19T06:19:25Z</time>
      </trkpt>
      <trkpt lat="48.23776" lon="7.31527">
        <ele>549.9</ele>
        <time>2026-03-19T06:19:30Z</time>
      </trkpt>
      <trkpt lat="48.2377" lon="7.31523">
        <ele>549</ele>
        <time>2026-03-19T06:19:35Z</time>
      </trkpt>
      <trkpt lat="48.23764" lon="7.3152">
        <ele>548</ele>
        <time>2026-03-19T06:19:40Z</time>
      </trkpt>
      <trkpt lat="48.23759" lon="7.31516">
        <ele>547.3</ele>
        <time>2026-03-19T06:19:45Z</time>
      </trkpt>
      <trkpt lat="48.23753" lon="7.31512">
        <ele>546.3</ele>
        <time>2026-03-19T06:19:50Z</time>
      </trkpt>
      <trkpt lat="48.23747" lon="7.31508">
        <ele>545.1</ele>
        <time>2026-03-19T06:19:55Z</time>
      </trkpt>
      <trkpt lat="48.2374" lon="7.31504">
        <ele>543.5</ele>
        <time>2026-03-19T06:20:00Z</time>
      </trkpt>
      <trkpt lat="48.23734" lon="7.315">
        <ele>542.2</ele>
        <time>2026-03-19T06:20:05Z</time>
      </trkpt>
      <trkpt lat="48.23729" lon="7.31497">
        <ele>540.8</ele>
        <time>2026-03-19T06:20:10Z</time>
      </trkpt>
      <trkpt lat="48.23724" lon="7.3149">
        <ele>539.3</ele>
        <time>2026-03-19T06:20:15Z</time>
      </trkpt>
      <trkpt lat="48.23718" lon="7.31485">
        <ele>537.5</ele>
        <time>2026-03-19T06:20:20Z</time>
      </trkpt>
      <trkpt lat="48.23713" lon="7.31481">
        <ele>536</ele>
        <time>2026-03-19T06:20:25Z</time>
      </trkpt>
      <trkpt lat="48.23708" lon="7.31481">
        <ele>534.8</ele>
        <time>2026-03-19T06:20:30Z</time>
      </trkpt>
      <trkpt lat="48.23705" lon="7.31477">
        <ele>533.8</ele>
        <time>2026-03-19T06:20:35Z</time>
      </trkpt>
      <trkpt lat="48.23701" lon="7.3147">
        <ele>532.3</ele>
        <time>2026-03-19T06:20:40Z</time>
      </trkpt>
      <trkpt lat="48.23698" lon="7.31463">
        <ele>531.1</ele>
        <time>2026-03-19T06:20:45Z</time>
      </trkpt>
      <trkpt lat="48.23698" lon="7.31455">
        <ele>530.6</ele>
        <time>2026-03-19T06:20:50Z</time>
      </trkpt>
      <trkpt lat="48.23696" lon="7.31448">
        <ele>529.6</ele>
        <time>2026-03-19T06:20:55Z</time>
      </trkpt>
      <trkpt lat="48.23694" lon="7.31443">
        <ele>528.7</ele>
        <time>2026-03-19T06:21:00Z</time>
      </trkpt>
      <trkpt lat="48.23694" lon="7.31435">
        <ele>528.1</ele>
        <time>2026-03-19T06:21:05Z</time>
      </trkpt>
      <trkpt lat="48.23692" lon="7.31429">
        <ele>527.2</ele>
        <time>2026-03-19T06:21:10Z</time>
      </trkpt>
      <trkpt lat="48.2369" lon="7.31422">
        <ele>526.1</ele>
        <time>2026-03-19T06:21:15Z</time>
      </trkpt>
      <trkpt lat="48.23688" lon="7.31417">
        <ele>525.2</ele>
        <time>2026-03-19T06:21:20Z</time>
      </trkpt>
      <trkpt lat="48.23688" lon="7.31416">
        <ele>525.1</ele>
        <time>2026-03-19T06:21:25Z</time>
      </trkpt>
      <trkpt lat="48.23688" lon="7.31416">
        <ele>525.1</ele>
        <time>2026-03-19T06:21:30Z</time>
      </trkpt>
      <trkpt lat="48.23688" lon="7.31416">
        <ele>525.1</ele>
        <time>2026-03-19T06:21:35Z</time>
      </trkpt>
      <trkpt lat="48.23681" lon="7.31404">
        <ele>521.7</ele>
        <time>2026-03-19T06:21:40Z</time>
      </trkpt>
      <trkpt lat="48.2368" lon="7.31395">
        <ele>520.5</ele>
        <time>2026-03-19T06:21:45Z</time>
      </trkpt>
      <trkpt lat="48.23679" lon="7.31386">
        <ele>519.2</ele>
        <time>2026-03-19T06:21:50Z</time>
      </trkpt>
      <trkpt lat="48.2368" lon="7.31379">
        <ele>518.7</ele>
        <time>2026-03-19T06:21:55Z</time>
      </trkpt>
      <trkpt lat="48.23681" lon="7.31374">
        <ele>518.4</ele>
        <time>2026-03-19T06:22:00Z</time>
      </trkpt>
      <trkpt lat="48.23683" lon="7.31366">
        <ele>518.1</ele>
        <time>2026-03-19T06:22:05Z</time>
      </trkpt>
      <trkpt lat="48.23686" lon="7.31358">
        <ele>518.1</ele>
        <time>2026-03-19T06:22:10Z</time>
      </trkpt>
      <trkpt lat="48.23686" lon="7.31348">
        <ele>517</ele>
        <time>2026-03-19T06:22:15Z</time>
      </trkpt>
      <trkpt lat="48.23685" lon="7.31338">
        <ele>515.6</ele>
        <time>2026-03-19T06:22:20Z</time>
      </trkpt>
      <trkpt lat="48.23682" lon="7.31327">
        <ele>513.9</ele>
        <time>2026-03-19T06:22:25Z</time>
      </trkpt>
      <trkpt lat="48.2368" lon="7.3132">
        <ele>513</ele>
        <time>2026-03-19T06:22:30Z</time>
      </trkpt>
      <trkpt lat="48.23679" lon="7.31311">
        <ele>512.3</ele>
        <time>2026-03-19T06:22:35Z</time>
      </trkpt>
      <trkpt lat="48.23677" lon="7.31302">
        <ele>511.3</ele>
        <time>2026-03-19T06:22:40Z</time>
      </trkpt>
      <trkpt lat="48.23677" lon="7.31291">
        <ele>510.8</ele>
        <time>2026-03-19T06:22:45Z</time>
      </trkpt>
      <trkpt lat="48.2368" lon="7.3128">
        <ele>511</ele>
        <time>2026-03-19T06:22:50Z</time>
      </trkpt>
      <trkpt lat="48.23682" lon="7.3127">
        <ele>511.1</ele>
        <time>2026-03-19T06:22:55Z</time>
      </trkpt>
      <trkpt lat="48.23685" lon="7.31263">
        <ele>511.5</ele>
        <time>2026-03-19T06:23:00Z</time>
      </trkpt>
      <trkpt lat="48.23685" lon="7.31253">
        <ele>511</ele>
        <time>2026-03-19T06:23:05Z</time>
      </trkpt>
      <trkpt lat="48.23684" lon="7.31242">
        <ele>510.4</ele>
        <time>2026-03-19T06:23:10Z</time>
      </trkpt>
      <trkpt lat="48.2368" lon="7.31236">
        <ele>509.2</ele>
        <time>2026-03-19T06:23:15Z</time>
      </trkpt>
      <trkpt lat="48.23674" lon="7.31227">
        <ele>507.4</ele>
        <time>2026-03-19T06:23:20Z</time>
      </trkpt>
      <trkpt lat="48.2367" lon="7.31214">
        <ele>506</ele>
        <time>2026-03-19T06:23:25Z</time>
      </trkpt>
      <trkpt lat="48.23665" lon="7.31206">
        <ele>504.7</ele>
        <time>2026-03-19T06:23:30Z</time>
      </trkpt>
      <trkpt lat="48.23662" lon="7.312">
        <ele>504</ele>
        <time>2026-03-19T06:23:35Z</time>
      </trkpt>
      <trkpt lat="48.23658" lon="7.31193">
        <ele>503.2</ele>
        <time>2026-03-19T06:23:40Z</time>
      </trkpt>
      <trkpt lat="48.23654" lon="7.31187">
        <ele>502.4</ele>
        <time>2026-03-19T06:23:45Z</time>
      </trkpt>
      <trkpt lat="48.2365" lon="7.3118">
        <ele>501.6</ele>
        <time>2026-03-19T06:23:50Z</time>
      </trkpt>
      <trkpt lat="48.23649" lon="7.31172">
        <ele>501.2</ele>
        <time>2026-03-19T06:23:55Z</time>
      </trkpt>
      <trkpt lat="48.23646" lon="7.31164">
        <ele>500.4</ele>
        <time>2026-03-19T06:24:00Z</time>
      </trkpt>
      <trkpt lat="48.23646" lon="7.31156">
        <ele>500.1</ele>
        <time>2026-03-19T06:24:05Z</time>
      </trkpt>
      <trkpt lat="48.23645" lon="7.31146">
        <ele>499.5</ele>
        <time>2026-03-19T06:24:10Z</time>
      </trkpt>
      <trkpt lat="48.23644" lon="7.31138">
        <ele>499</ele>
        <time>2026-03-19T06:24:15Z</time>
      </trkpt>
      <trkpt lat="48.23641" lon="7.31131">
        <ele>498.2</ele>
        <time>2026-03-19T06:24:20Z</time>
      </trkpt>
      <trkpt lat="48.23638" lon="7.31124">
        <ele>497.5</ele>
        <time>2026-03-19T06:24:25Z</time>
      </trkpt>
      <trkpt lat="48.23633" lon="7.31116">
        <ele>496.4</ele>
        <time>2026-03-19T06:24:30Z</time>
      </trkpt>
      <trkpt lat="48.23632" lon="7.31111">
        <ele>496.1</ele>
        <time>2026-03-19T06:24:35Z</time>
      </trkpt>
      <trkpt lat="48.23629" lon="7.31104">
        <ele>495.3</ele>
        <time>2026-03-19T06:24:40Z</time>
      </trkpt>
      <trkpt lat="48.23627" lon="7.31097">
        <ele>494.8</ele>
        <time>2026-03-19T06:24:45Z</time>
      </trkpt>
      <trkpt lat="48.23623" lon="7.31087">
        <ele>493.8</ele>
        <time>2026-03-19T06:24:50Z</time>
      </trkpt>
      <trkpt lat="48.2362" lon="7.31078">
        <ele>492.9</ele>
        <time>2026-03-19T06:24:55Z</time>
      </trkpt>
      <trkpt lat="48.2362" lon="7.31071">
        <ele>492.5</ele>
        <time>2026-03-19T06:25:00Z</time>
      </trkpt>
      <trkpt lat="48.23618" lon="7.31065">
        <ele>491.8</ele>
        <time>2026-03-19T06:25:05Z</time>
      </trkpt>
      <trkpt lat="48.23616" lon="7.31055">
        <ele>490.8</ele>
        <time>2026-03-19T06:25:10Z</time>
      </trkpt>
      <trkpt lat="48.23614" lon="7.31049">
        <ele>490</ele>
        <time>2026-03-19T06:25:15Z</time>
      </trkpt>
      <trkpt lat="48.23611" lon="7.31042">
        <ele>489</ele>
        <time>2026-03-19T06:25:20Z</time>
      </trkpt>
      <trkpt lat="48.23609" lon="7.31034">
        <ele>488.1</ele>
        <time>2026-03-19T06:25:25Z</time>
      </trkpt>
      <trkpt lat="48.23607" lon="7.31028">
        <ele>487.2</ele>
        <time>2026-03-19T06:25:30Z</time>
      </trkpt>
      <trkpt lat="48.23605" lon="7.3102">
        <ele>486.2</ele>
        <time>2026-03-19T06:25:35Z</time>
      </trkpt>
      <trkpt lat="48.23601" lon="7.31013">
        <ele>484.9</ele>
        <time>2026-03-19T06:25:40Z</time>
      </trkpt>
      <trkpt lat="48.23597" lon="7.31009">
        <ele>483.7</ele>
        <time>2026-03-19T06:25:45Z</time>
      </trkpt>
      <trkpt lat="48.23594" lon="7.31007">
        <ele>482.9</ele>
        <time>2026-03-19T06:25:50Z</time>
      </trkpt>
      <trkpt lat="48.2359" lon="7.31">
        <ele>481.4</ele>
        <time>2026-03-19T06:25:55Z</time>
      </trkpt>
      <trkpt lat="48.23588" lon="7.30991">
        <ele>480.5</ele>
        <time>2026-03-19T06:26:00Z</time>
      </trkpt>
      <trkpt lat="48.23586" lon="7.30986">
        <ele>479.7</ele>
        <time>2026-03-19T06:26:05Z</time>
      </trkpt>
      <trkpt lat="48.23586" lon="7.30988">
        <ele>479.8</ele>
        <time>2026-03-19T06:26:10Z</time>
      </trkpt>
      <trkpt lat="48.23585" lon="7.30988">
        <ele>479.6</ele>
        <time>2026-03-19T06:26:15Z</time>
      </trkpt>
      <trkpt lat="48.23579" lon="7.30981">
        <ele>478.2</ele>
        <time>2026-03-19T06:26:20Z</time>
      </trkpt>
      <trkpt lat="48.23573" lon="7.30974">
        <ele>476.8</ele>
        <time>2026-03-19T06:26:25Z</time>
      </trkpt>
      <trkpt lat="48.23569" lon="7.3097">
        <ele>476</ele>
        <time>2026-03-19T06:26:30Z</time>
      </trkpt>
      <trkpt lat="48.23568" lon="7.30963">
        <ele>475.4</ele>
        <time>2026-03-19T06:26:35Z</time>
      </trkpt>
      <trkpt lat="48.23568" lon="7.30953">
        <ele>474.9</ele>
        <time>2026-03-19T06:26:40Z</time>
      </trkpt>
      <trkpt lat="48.2357" lon="7.30945">
        <ele>474.8</ele>
        <time>2026-03-19T06:26:45Z</time>
      </trkpt>
      <trkpt lat="48.2357" lon="7.30938">
        <ele>474.4</ele>
        <time>2026-03-19T06:26:50Z</time>
      </trkpt>
      <trkpt lat="48.23574" lon="7.3094">
        <ele>475.1</ele>
        <time>2026-03-19T06:26:55Z</time>
      </trkpt>
      <trkpt lat="48.23575" lon="7.30942">
        <ele>475.3</ele>
        <time>2026-03-19T06:27:00Z</time>
      </trkpt>
      <trkpt lat="48.23573" lon="7.30944">
        <ele>475.2</ele>
        <time>2026-03-19T06:27:05Z</time>
      </trkpt>
      <trkpt lat="48.23573" lon="7.30944">
        <ele>475.2</ele>
        <time>2026-03-19T06:27:10Z</time>
      </trkpt>
      <trkpt lat="48.23573" lon="7.30944">
        <ele>475.2</ele>
        <time>2026-03-19T06:27:15Z</time>
      </trkpt>
      <trkpt lat="48.23569" lon="7.30941">
        <ele>474.4</ele>
        <time>2026-03-19T06:27:20Z</time>
      </trkpt>
      <trkpt lat="48.23563" lon="7.3094">
        <ele>473.5</ele>
        <time>2026-03-19T06:27:25Z</time>
      </trkpt>
      <trkpt lat="48.23561" lon="7.30933">
        <ele>472.9</ele>
        <time>2026-03-19T06:27:30Z</time>
      </trkpt>
      <trkpt lat="48.23561" lon="7.30927">
        <ele>472.6</ele>
        <time>2026-03-19T06:27:35Z</time>
      </trkpt>
      <trkpt lat="48.23558" lon="7.30918">
        <ele>471.7</ele>
        <time>2026-03-19T06:27:40Z</time>
      </trkpt>
      <trkpt lat="48.23558" lon="7.3091">
        <ele>471.7</ele>
        <time>2026-03-19T06:27:45Z</time>
      </trkpt>
      <trkpt lat="48.23556" lon="7.30902">
        <ele>471.6</ele>
        <time>2026-03-19T06:27:50Z</time>
      </trkpt>
      <trkpt lat="48.23555" lon="7.30894">
        <ele>471.5</ele>
        <time>2026-03-19T06:27:55Z</time>
      </trkpt>
      <trkpt lat="48.23553" lon="7.30883">
        <ele>471.4</ele>
        <time>2026-03-19T06:28:00Z</time>
      </trkpt>
      <trkpt lat="48.2355" lon="7.30874">
        <ele>471.2</ele>
        <time>2026-03-19T06:28:05Z</time>
      </trkpt>
      <trkpt lat="48.23549" lon="7.3086">
        <ele>471.3</ele>
        <time>2026-03-19T06:28:10Z</time>
      </trkpt>
      <trkpt lat="48.23542" lon="7.30848">
        <ele>470.8</ele>
        <time>2026-03-19T06:28:15Z</time>
      </trkpt>
      <trkpt lat="48.23533" lon="7.30842">
        <ele>470</ele>
        <time>2026-03-19T06:28:20Z</time>
      </trkpt>
      <trkpt lat="48.23525" lon="7.30836">
        <ele>469.3</ele>
        <time>2026-03-19T06:28:25Z</time>
      </trkpt>
      <trkpt lat="48.2352" lon="7.30832">
        <ele>469</ele>
        <time>2026-03-19T06:28:30Z</time>
      </trkpt>
      <trkpt lat="48.23513" lon="7.30825">
        <ele>468.5</ele>
        <time>2026-03-19T06:28:35Z</time>
      </trkpt>
      <trkpt lat="48.23509" lon="7.30824">
        <ele>468.2</ele>
        <time>2026-03-19T06:28:40Z</time>
      </trkpt>
      <trkpt lat="48.23504" lon="7.30813">
        <ele>468.1</ele>
        <time>2026-03-19T06:28:45Z</time>
      </trkpt>
      <trkpt lat="48.23499" lon="7.30804">
        <ele>468</ele>
        <time>2026-03-19T06:28:50Z</time>
      </trkpt>
      <trkpt lat="48.23494" lon="7.30797">
        <ele>468.2</ele>
        <time>2026-03-19T06:28:55Z</time>
      </trkpt>
      <trkpt lat="48.2349" lon="7.30789">
        <ele>468.4</ele>
        <time>2026-03-19T06:29:00Z</time>
      </trkpt>
      <trkpt lat="48.23486" lon="7.3078">
        <ele>468.6</ele>
        <time>2026-03-19T06:29:05Z</time>
      </trkpt>
      <trkpt lat="48.23484" lon="7.30771">
        <ele>468.9</ele>
        <time>2026-03-19T06:29:10Z</time>
      </trkpt>
      <trkpt lat="48.23481" lon="7.30763">
        <ele>469.1</ele>
        <time>2026-03-19T06:29:15Z</time>
      </trkpt>
      <trkpt lat="48.23475" lon="7.30757">
        <ele>469.1</ele>
        <time>2026-03-19T06:29:20Z</time>
      </trkpt>
      <trkpt lat="48.23476" lon="7.30747">
        <ele>469.5</ele>
        <time>2026-03-19T06:29:25Z</time>
      </trkpt>
      <trkpt lat="48.23478" lon="7.30734">
        <ele>470</ele>
        <time>2026-03-19T06:29:30Z</time>
      </trkpt>
      <trkpt lat="48.23476" lon="7.30724">
        <ele>470.3</ele>
        <time>2026-03-19T06:29:35Z</time>
      </trkpt>
      <trkpt lat="48.23474" lon="7.30713">
        <ele>470.7</ele>
        <time>2026-03-19T06:29:40Z</time>
      </trkpt>
      <trkpt lat="48.2347" lon="7.30703">
        <ele>471</ele>
        <time>2026-03-19T06:29:45Z</time>
      </trkpt>
      <trkpt lat="48.23468" lon="7.30694">
        <ele>471.4</ele>
        <time>2026-03-19T06:29:50Z</time>
      </trkpt>
      <trkpt lat="48.23464" lon="7.30684">
        <ele>471.7</ele>
        <time>2026-03-19T06:29:55Z</time>
      </trkpt>
      <trkpt lat="48.2346" lon="7.30673">
        <ele>472.2</ele>
        <time>2026-03-19T06:30:00Z</time>
      </trkpt>
      <trkpt lat="48.23457" lon="7.30666">
        <ele>472.5</ele>
        <time>2026-03-19T06:30:05Z</time>
      </trkpt>
      <trkpt lat="48.23453" lon="7.30659">
        <ele>472.9</ele>
        <time>2026-03-19T06:30:10Z</time>
      </trkpt>
      <trkpt lat="48.23448" lon="7.3065">
        <ele>473.5</ele>
        <time>2026-03-19T06:30:15Z</time>
      </trkpt>
      <trkpt lat="48.23445" lon="7.3064">
        <ele>474</ele>
        <time>2026-03-19T06:30:20Z</time>
      </trkpt>
      <trkpt lat="48.23443" lon="7.30633">
        <ele>474.4</ele>
        <time>2026-03-19T06:30:25Z</time>
      </trkpt>
      <trkpt lat="48.23442" lon="7.30628">
        <ele>474.7</ele>
        <time>2026-03-19T06:30:30Z</time>
      </trkpt>
      <trkpt lat="48.23442" lon="7.30628">
        <ele>474.7</ele>
        <time>2026-03-19T06:30:35Z</time>
      </trkpt>
      <trkpt lat="48.23442" lon="7.30628">
        <ele>474.7</ele>
        <time>2026-03-19T06:30:40Z</time>
      </trkpt>
      <trkpt lat="48.23442" lon="7.30628">
        <ele>474.7</ele>
        <time>2026-03-19T06:30:45Z</time>
      </trkpt>
      <trkpt lat="48.23442" lon="7.30628">
        <ele>474.7</ele>
        <time>2026-03-19T06:30:50Z</time>
      </trkpt>
      <trkpt lat="48.23438" lon="7.30628">
        <ele>474.8</ele>
        <time>2026-03-19T06:30:55Z</time>
      </trkpt>
      <trkpt lat="48.23438" lon="7.30628">
        <ele>474.8</ele>
        <time>2026-03-19T06:31:00Z</time>
      </trkpt>
      <trkpt lat="48.23438" lon="7.30628">
        <ele>474.8</ele>
        <time>2026-03-19T06:31:05Z</time>
      </trkpt>
      <trkpt lat="48.23438" lon="7.30628">
        <ele>474.8</ele>
        <time>2026-03-19T06:31:10Z</time>
      </trkpt>
      <trkpt lat="48.23437" lon="7.30634">
        <ele>474.5</ele>
        <time>2026-03-19T06:31:15Z</time>
      </trkpt>
      <trkpt lat="48.2343" lon="7.30633">
        <ele>474.7</ele>
        <time>2026-03-19T06:31:20Z</time>
      </trkpt>
      <trkpt lat="48.23424" lon="7.30638">
        <ele>474.6</ele>
        <time>2026-03-19T06:31:25Z</time>
      </trkpt>
      <trkpt lat="48.23419" lon="7.30642">
        <ele>474.4</ele>
        <time>2026-03-19T06:31:30Z</time>
      </trkpt>
      <trkpt lat="48.23416" lon="7.30642">
        <ele>474.5</ele>
        <time>2026-03-19T06:31:35Z</time>
      </trkpt>
      <trkpt lat="48.23414" lon="7.30645">
        <ele>474.2</ele>
        <time>2026-03-19T06:31:40Z</time>
      </trkpt>
      <trkpt lat="48.23414" lon="7.30646">
        <ele>474.1</ele>
        <time>2026-03-19T06:31:45Z</time>
      </trkpt>
      <trkpt lat="48.23414" lon="7.30646">
        <ele>474.1</ele>
        <time>2026-03-19T06:31:50Z</time>
      </trkpt>
      <trkpt lat="48.23414" lon="7.30646">
        <ele>474.1</ele>
        <time>2026-03-19T06:31:55Z</time>
      </trkpt>
      <trkpt lat="48.23414" lon="7.30646">
        <ele>474.1</ele>
        <time>2026-03-19T06:32:00Z</time>
      </trkpt>
      <trkpt lat="48.23414" lon="7.30646">
        <ele>474.1</ele>
        <time>2026-03-19T06:32:05Z</time>
      </trkpt>
      <trkpt lat="48.23414" lon="7.30646">
        <ele>474.1</ele>
        <time>2026-03-19T06:32:10Z</time>
      </trkpt>
      <trkpt lat="48.23414" lon="7.30646">
        <ele>474.1</ele>
        <time>2026-03-19T06:32:15Z</time>
      </trkpt>
      <trkpt lat="48.23414" lon="7.30646">
        <ele>474.1</ele>
        <time>2026-03-19T06:32:20Z</time>
      </trkpt>
      <trkpt lat="48.23407" lon="7.30646">
        <ele>473.9</ele>
        <time>2026-03-19T06:32:25Z</time>
      </trkpt>
      <trkpt lat="48.23403" lon="7.3065">
        <ele>473.5</ele>
        <time>2026-03-19T06:32:30Z</time>
      </trkpt>
      <trkpt lat="48.23396" lon="7.3065">
        <ele>473.3</ele>
        <time>2026-03-19T06:32:35Z</time>
      </trkpt>
      <trkpt lat="48.23387" lon="7.3065">
        <ele>473</ele>
        <time>2026-03-19T06:32:40Z</time>
      </trkpt>
      <trkpt lat="48.2338" lon="7.30652">
        <ele>472.7</ele>
        <time>2026-03-19T06:32:45Z</time>
      </trkpt>
      <trkpt lat="48.23373" lon="7.30653">
        <ele>472.4</ele>
        <time>2026-03-19T06:32:50Z</time>
      </trkpt>
      <trkpt lat="48.23369" lon="7.30658">
        <ele>472.1</ele>
        <time>2026-03-19T06:32:55Z</time>
      </trkpt>
      <trkpt lat="48.23362" lon="7.3066">
        <ele>471.9</ele>
        <time>2026-03-19T06:33:00Z</time>
      </trkpt>
      <trkpt lat="48.23353" lon="7.3066">
        <ele>471.6</ele>
        <time>2026-03-19T06:33:05Z</time>
      </trkpt>
      <trkpt lat="48.23346" lon="7.30657">
        <ele>471.5</ele>
        <time>2026-03-19T06:33:10Z</time>
      </trkpt>
      <trkpt lat="48.2334" lon="7.30657">
        <ele>471.3</ele>
        <time>2026-03-19T06:33:15Z</time>
      </trkpt>
      <trkpt lat="48.23335" lon="7.30658">
        <ele>471.2</ele>
        <time>2026-03-19T06:33:20Z</time>
      </trkpt>
      <trkpt lat="48.2333" lon="7.30657">
        <ele>470.4</ele>
        <time>2026-03-19T06:33:25Z</time>
      </trkpt>
      <trkpt lat="48.23325" lon="7.30658">
        <ele>469.3</ele>
        <time>2026-03-19T06:33:30Z</time>
      </trkpt>
      <trkpt lat="48.23322" lon="7.30661">
        <ele>468.6</ele>
        <time>2026-03-19T06:33:35Z</time>
      </trkpt>
      <trkpt lat="48.23323" lon="7.30663">
        <ele>468.8</ele>
        <time>2026-03-19T06:33:40Z</time>
      </trkpt>
      <trkpt lat="48.23323" lon="7.30663">
        <ele>468.8</ele>
        <time>2026-03-19T06:33:45Z</time>
      </trkpt>
      <trkpt lat="48.23323" lon="7.30663">
        <ele>468.8</ele>
        <time>2026-03-19T06:33:50Z</time>
      </trkpt>
      <trkpt lat="48.23323" lon="7.30663">
        <ele>468.8</ele>
        <time>2026-03-19T06:33:55Z</time>
      </trkpt>
      <trkpt lat="48.23323" lon="7.30663">
        <ele>468.8</ele>
        <time>2026-03-19T06:34:00Z</time>
      </trkpt>
      <trkpt lat="48.23323" lon="7.30663">
        <ele>468.8</ele>
        <time>2026-03-19T06:34:05Z</time>
      </trkpt>
      <trkpt lat="48.23314" lon="7.30654">
        <ele>466.9</ele>
        <time>2026-03-19T06:34:10Z</time>
      </trkpt>
      <trkpt lat="48.23308" lon="7.30654">
        <ele>465.6</ele>
        <time>2026-03-19T06:34:15Z</time>
      </trkpt>
      <trkpt lat="48.23301" lon="7.3065">
        <ele>464.1</ele>
        <time>2026-03-19T06:34:20Z</time>
      </trkpt>
      <trkpt lat="48.23295" lon="7.30644">
        <ele>462.9</ele>
        <time>2026-03-19T06:34:25Z</time>
      </trkpt>
      <trkpt lat="48.2329" lon="7.30639">
        <ele>461.8</ele>
        <time>2026-03-19T06:34:30Z</time>
      </trkpt>
      <trkpt lat="48.23285" lon="7.30635">
        <ele>460.7</ele>
        <time>2026-03-19T06:34:35Z</time>
      </trkpt>
      <trkpt lat="48.2328" lon="7.30631">
        <ele>459.6</ele>
        <time>2026-03-19T06:34:40Z</time>
      </trkpt>
      <trkpt lat="48.23273" lon="7.30626">
        <ele>458.1</ele>
        <time>2026-03-19T06:34:45Z</time>
      </trkpt>
      <trkpt lat="48.23265" lon="7.30616">
        <ele>456.3</ele>
        <time>2026-03-19T06:34:50Z</time>
      </trkpt>
      <trkpt lat="48.23258" lon="7.30609">
        <ele>454.8</ele>
        <time>2026-03-19T06:34:55Z</time>
      </trkpt>
      <trkpt lat="48.23255" lon="7.30604">
        <ele>454.1</ele>
        <time>2026-03-19T06:35:00Z</time>
      </trkpt>
      <trkpt lat="48.23254" lon="7.30603">
        <ele>453.9</ele>
        <time>2026-03-19T06:35:05Z</time>
      </trkpt>
      <trkpt lat="48.23251" lon="7.30601">
        <ele>453.2</ele>
        <time>2026-03-19T06:35:10Z</time>
      </trkpt>
      <trkpt lat="48.23245" lon="7.30596">
        <ele>452.9</ele>
        <time>2026-03-19T06:35:15Z</time>
      </trkpt>
      <trkpt lat="48.23241" lon="7.30589">
        <ele>452.9</ele>
        <time>2026-03-19T06:35:20Z</time>
      </trkpt>
      <trkpt lat="48.23236" lon="7.30583">
        <ele>452.8</ele>
        <time>2026-03-19T06:35:25Z</time>
      </trkpt>
      <trkpt lat="48.23232" lon="7.30574">
        <ele>453.1</ele>
        <time>2026-03-19T06:35:30Z</time>
      </trkpt>
      <trkpt lat="48.23228" lon="7.30563">
        <ele>453.5</ele>
        <time>2026-03-19T06:35:35Z</time>
      </trkpt>
      <trkpt lat="48.23225" lon="7.30555">
        <ele>453.8</ele>
        <time>2026-03-19T06:35:40Z</time>
      </trkpt>
      <trkpt lat="48.23223" lon="7.30546">
        <ele>454.2</ele>
        <time>2026-03-19T06:35:45Z</time>
      </trkpt>
      <trkpt lat="48.2322" lon="7.30536">
        <ele>454.5</ele>
        <time>2026-03-19T06:35:50Z</time>
      </trkpt>
      <trkpt lat="48.23218" lon="7.30526">
        <ele>454.9</ele>
        <time>2026-03-19T06:35:55Z</time>
      </trkpt>
      <trkpt lat="48.23216" lon="7.30517">
        <ele>455.3</ele>
        <time>2026-03-19T06:36:00Z</time>
      </trkpt>
      <trkpt lat="48.23215" lon="7.30508">
        <ele>455.7</ele>
        <time>2026-03-19T06:36:05Z</time>
      </trkpt>
      <trkpt lat="48.23213" lon="7.30497">
        <ele>456.1</ele>
        <time>2026-03-19T06:36:10Z</time>
      </trkpt>
      <trkpt lat="48.23211" lon="7.30487">
        <ele>456.6</ele>
        <time>2026-03-19T06:36:15Z</time>
      </trkpt>
      <trkpt lat="48.23211" lon="7.3048">
        <ele>457</ele>
        <time>2026-03-19T06:36:20Z</time>
      </trkpt>
      <trkpt lat="48.23212" lon="7.30476">
        <ele>457.2</ele>
        <time>2026-03-19T06:36:25Z</time>
      </trkpt>
      <trkpt lat="48.23209" lon="7.30472">
        <ele>457.3</ele>
        <time>2026-03-19T06:36:30Z</time>
      </trkpt>
      <trkpt lat="48.23209" lon="7.30463">
        <ele>457.8</ele>
        <time>2026-03-19T06:36:35Z</time>
      </trkpt>
      <trkpt lat="48.23208" lon="7.30454">
        <ele>458.2</ele>
        <time>2026-03-19T06:36:40Z</time>
      </trkpt>
      <trkpt lat="48.23207" lon="7.30443">
        <ele>458.7</ele>
        <time>2026-03-19T06:36:45Z</time>
      </trkpt>
      <trkpt lat="48.23207" lon="7.30432">
        <ele>459.2</ele>
        <time>2026-03-19T06:36:50Z</time>
      </trkpt>
      <trkpt lat="48.23205" lon="7.30422">
        <ele>459.7</ele>
        <time>2026-03-19T06:36:55Z</time>
      </trkpt>
      <trkpt lat="48.23206" lon="7.30418">
        <ele>459.9</ele>
        <time>2026-03-19T06:37:00Z</time>
      </trkpt>
      <trkpt lat="48.23206" lon="7.30411">
        <ele>460.3</ele>
        <time>2026-03-19T06:37:05Z</time>
      </trkpt>
      <trkpt lat="48.23203" lon="7.304">
        <ele>461</ele>
        <time>2026-03-19T06:37:10Z</time>
      </trkpt>
      <trkpt lat="48.23203" lon="7.30391">
        <ele>461.6</ele>
        <time>2026-03-19T06:37:15Z</time>
      </trkpt>
      <trkpt lat="48.23205" lon="7.3038">
        <ele>462.4</ele>
        <time>2026-03-19T06:37:20Z</time>
      </trkpt>
      <trkpt lat="48.23202" lon="7.30368">
        <ele>463.2</ele>
        <time>2026-03-19T06:37:25Z</time>
      </trkpt>
      <trkpt lat="48.23199" lon="7.30355">
        <ele>464.1</ele>
        <time>2026-03-19T06:37:30Z</time>
      </trkpt>
      <trkpt lat="48.23196" lon="7.30346">
        <ele>464.7</ele>
        <time>2026-03-19T06:37:35Z</time>
      </trkpt>
      <trkpt lat="48.23195" lon="7.30334">
        <ele>465.6</ele>
        <time>2026-03-19T06:37:40Z</time>
      </trkpt>
      <trkpt lat="48.23194" lon="7.30325">
        <ele>466.3</ele>
        <time>2026-03-19T06:37:45Z</time>
      </trkpt>
      <trkpt lat="48.23194" lon="7.30314">
        <ele>467.1</ele>
        <time>2026-03-19T06:37:50Z</time>
      </trkpt>
      <trkpt lat="48.23189" lon="7.30304">
        <ele>467.9</ele>
        <time>2026-03-19T06:37:55Z</time>
      </trkpt>
      <trkpt lat="48.23188" lon="7.30296">
        <ele>468.5</ele>
        <time>2026-03-19T06:38:00Z</time>
      </trkpt>
      <trkpt lat="48.23186" lon="7.30286">
        <ele>469.3</ele>
        <time>2026-03-19T06:38:05Z</time>
      </trkpt>
      <trkpt lat="48.23183" lon="7.30276">
        <ele>470.2</ele>
        <time>2026-03-19T06:38:10Z</time>
      </trkpt>
      <trkpt lat="48.23181" lon="7.30269">
        <ele>470.8</ele>
        <time>2026-03-19T06:38:15Z</time>
      </trkpt>
      <trkpt lat="48.23179" lon="7.30264">
        <ele>471.3</ele>
        <time>2026-03-19T06:38:20Z</time>
      </trkpt>
      <trkpt lat="48.23177" lon="7.30256">
        <ele>472</ele>
        <time>2026-03-19T06:38:25Z</time>
      </trkpt>
      <trkpt lat="48.23174" lon="7.30248">
        <ele>472.8</ele>
        <time>2026-03-19T06:38:30Z</time>
      </trkpt>
      <trkpt lat="48.23167" lon="7.30235">
        <ele>473.9</ele>
        <time>2026-03-19T06:38:35Z</time>
      </trkpt>
      <trkpt lat="48.23163" lon="7.30226">
        <ele>475</ele>
        <time>2026-03-19T06:38:40Z</time>
      </trkpt>
      <trkpt lat="48.23157" lon="7.3022">
        <ele>476.3</ele>
        <time>2026-03-19T06:38:45Z</time>
      </trkpt>
      <trkpt lat="48.23151" lon="7.30219">
        <ele>477.3</ele>
        <time>2026-03-19T06:38:50Z</time>
      </trkpt>
      <trkpt lat="48.23144" lon="7.30217">
        <ele>478.5</ele>
        <time>2026-03-19T06:38:55Z</time>
      </trkpt>
      <trkpt lat="48.23136" lon="7.30214">
        <ele>479.9</ele>
        <time>2026-03-19T06:39:00Z</time>
      </trkpt>
      <trkpt lat="48.2313" lon="7.30215">
        <ele>480.8</ele>
        <time>2026-03-19T06:39:05Z</time>
      </trkpt>
      <trkpt lat="48.23123" lon="7.30214">
        <ele>482</ele>
        <time>2026-03-19T06:39:10Z</time>
      </trkpt>
      <trkpt lat="48.23118" lon="7.30213">
        <ele>482.8</ele>
        <time>2026-03-19T06:39:15Z</time>
      </trkpt>
      <trkpt lat="48.23113" lon="7.30213">
        <ele>483.6</ele>
        <time>2026-03-19T06:39:20Z</time>
      </trkpt>
      <trkpt lat="48.23107" lon="7.30211">
        <ele>484.6</ele>
        <time>2026-03-19T06:39:25Z</time>
      </trkpt>
      <trkpt lat="48.23103" lon="7.30214">
        <ele>485.1</ele>
        <time>2026-03-19T06:39:30Z</time>
      </trkpt>
      <trkpt lat="48.23098" lon="7.30217">
        <ele>485.7</ele>
        <time>2026-03-19T06:39:35Z</time>
      </trkpt>
      <trkpt lat="48.23094" lon="7.30221">
        <ele>486.1</ele>
        <time>2026-03-19T06:39:40Z</time>
      </trkpt>
      <trkpt lat="48.23088" lon="7.30217">
        <ele>487.3</ele>
        <time>2026-03-19T06:39:45Z</time>
      </trkpt>
      <trkpt lat="48.2308" lon="7.30214">
        <ele>489.2</ele>
        <time>2026-03-19T06:39:50Z</time>
      </trkpt>
      <trkpt lat="48.23073" lon="7.3021">
        <ele>491.6</ele>
        <time>2026-03-19T06:39:55Z</time>
      </trkpt>
      <trkpt lat="48.23065" lon="7.30207">
        <ele>494.3</ele>
        <time>2026-03-19T06:40:00Z</time>
      </trkpt>
      <trkpt lat="48.23061" lon="7.30207">
        <ele>495.6</ele>
        <time>2026-03-19T06:40:05Z</time>
      </trkpt>
      <trkpt lat="48.2306" lon="7.3021">
        <ele>495.6</ele>
        <time>2026-03-19T06:40:10Z</time>
      </trkpt>
      <trkpt lat="48.2306" lon="7.3021">
        <ele>495.6</ele>
        <time>2026-03-19T06:40:15Z</time>
      </trkpt>
      <trkpt lat="48.23061" lon="7.30218">
        <ele>494.6</ele>
        <time>2026-03-19T06:40:20Z</time>
      </trkpt>
      <trkpt lat="48.23059" lon="7.30225">
        <ele>494.6</ele>
        <time>2026-03-19T06:40:25Z</time>
      </trkpt>
      <trkpt lat="48.23056" lon="7.30234">
        <ele>494.7</ele>
        <time>2026-03-19T06:40:30Z</time>
      </trkpt>
      <trkpt lat="48.23051" lon="7.3024">
        <ele>495.5</ele>
        <time>2026-03-19T06:40:35Z</time>
      </trkpt>
      <trkpt lat="48.23047" lon="7.30246">
        <ele>496</ele>
        <time>2026-03-19T06:40:40Z</time>
      </trkpt>
      <trkpt lat="48.23042" lon="7.30252">
        <ele>496.7</ele>
        <time>2026-03-19T06:40:45Z</time>
      </trkpt>
      <trkpt lat="48.23038" lon="7.30258">
        <ele>496.9</ele>
        <time>2026-03-19T06:40:50Z</time>
      </trkpt>
      <trkpt lat="48.23034" lon="7.30261">
        <ele>497.5</ele>
        <time>2026-03-19T06:40:55Z</time>
      </trkpt>
      <trkpt lat="48.2303" lon="7.30262">
        <ele>498.4</ele>
        <time>2026-03-19T06:41:00Z</time>
      </trkpt>
      <trkpt lat="48.23026" lon="7.30265">
        <ele>498.9</ele>
        <time>2026-03-19T06:41:05Z</time>
      </trkpt>
      <trkpt lat="48.23023" lon="7.30271">
        <ele>498.8</ele>
        <time>2026-03-19T06:41:10Z</time>
      </trkpt>
      <trkpt lat="48.2302" lon="7.3028">
        <ele>498.1</ele>
        <time>2026-03-19T06:41:15Z</time>
      </trkpt>
      <trkpt lat="48.23014" lon="7.30283">
        <ele>499</ele>
        <time>2026-03-19T06:41:20Z</time>
      </trkpt>
      <trkpt lat="48.23007" lon="7.30289">
        <ele>499.5</ele>
        <time>2026-03-19T06:41:25Z</time>
      </trkpt>
      <trkpt lat="48.23005" lon="7.30299">
        <ele>498.2</ele>
        <time>2026-03-19T06:41:30Z</time>
      </trkpt>
      <trkpt lat="48.23004" lon="7.30305">
        <ele>497.3</ele>
        <time>2026-03-19T06:41:35Z</time>
      </trkpt>
      <trkpt lat="48.23003" lon="7.30311">
        <ele>496.5</ele>
        <time>2026-03-19T06:41:40Z</time>
      </trkpt>
      <trkpt lat="48.22999" lon="7.30318">
        <ele>495.8</ele>
        <time>2026-03-19T06:41:45Z</time>
      </trkpt>
      <trkpt lat="48.22996" lon="7.30323">
        <ele>495</ele>
        <time>2026-03-19T06:41:50Z</time>
      </trkpt>
      <trkpt lat="48.22995" lon="7.30326">
        <ele>494.5</ele>
        <time>2026-03-19T06:41:55Z</time>
      </trkpt>
      <trkpt lat="48.22995" lon="7.30327">
        <ele>494.4</ele>
        <time>2026-03-19T06:42:00Z</time>
      </trkpt>
      <trkpt lat="48.22995" lon="7.30327">
        <ele>494.4</ele>
        <time>2026-03-19T06:42:05Z</time>
      </trkpt>
      <trkpt lat="48.2299" lon="7.30331">
        <ele>493.9</ele>
        <time>2026-03-19T06:42:10Z</time>
      </trkpt>
      <trkpt lat="48.22984" lon="7.30338">
        <ele>492.9</ele>
        <time>2026-03-19T06:42:15Z</time>
      </trkpt>
      <trkpt lat="48.22978" lon="7.30347">
        <ele>491.6</ele>
        <time>2026-03-19T06:42:20Z</time>
      </trkpt>
      <trkpt lat="48.22976" lon="7.30356">
        <ele>490.1</ele>
        <time>2026-03-19T06:42:25Z</time>
      </trkpt>
      <trkpt lat="48.22973" lon="7.30363">
        <ele>489.1</ele>
        <time>2026-03-19T06:42:30Z</time>
      </trkpt>
      <trkpt lat="48.22968" lon="7.30371">
        <ele>488</ele>
        <time>2026-03-19T06:42:35Z</time>
      </trkpt>
      <trkpt lat="48.22963" lon="7.3038">
        <ele>486.8</ele>
        <time>2026-03-19T06:42:40Z</time>
      </trkpt>
      <trkpt lat="48.22955" lon="7.30389">
        <ele>485.9</ele>
        <time>2026-03-19T06:42:45Z</time>
      </trkpt>
      <trkpt lat="48.22952" lon="7.30396">
        <ele>485</ele>
        <time>2026-03-19T06:42:50Z</time>
      </trkpt>
      <trkpt lat="48.2295" lon="7.30403">
        <ele>484</ele>
        <time>2026-03-19T06:42:55Z</time>
      </trkpt>
      <trkpt lat="48.22946" lon="7.30411">
        <ele>483.1</ele>
        <time>2026-03-19T06:43:00Z</time>
      </trkpt>
      <trkpt lat="48.22943" lon="7.30417">
        <ele>482.4</ele>
        <time>2026-03-19T06:43:05Z</time>
      </trkpt>
      <trkpt lat="48.22945" lon="7.30421">
        <ele>482</ele>
        <time>2026-03-19T06:43:10Z</time>
      </trkpt>
      <trkpt lat="48.22946" lon="7.30422">
        <ele>481.8</ele>
        <time>2026-03-19T06:43:15Z</time>
      </trkpt>
      <trkpt lat="48.22946" lon="7.30422">
        <ele>481.8</ele>
        <time>2026-03-19T06:43:20Z</time>
      </trkpt>
      <trkpt lat="48.22946" lon="7.30422">
        <ele>481.8</ele>
        <time>2026-03-19T06:43:25Z</time>
      </trkpt>
      <trkpt lat="48.22946" lon="7.30422">
        <ele>481.8</ele>
        <time>2026-03-19T06:43:30Z</time>
      </trkpt>
      <trkpt lat="48.2294" lon="7.30432">
        <ele>481.6</ele>
        <time>2026-03-19T06:43:35Z</time>
      </trkpt>
      <trkpt lat="48.22933" lon="7.30442">
        <ele>481.5</ele>
        <time>2026-03-19T06:43:40Z</time>
      </trkpt>
      <trkpt lat="48.22932" lon="7.30442">
        <ele>481.6</ele>
        <time>2026-03-19T06:43:45Z</time>
      </trkpt>
      <trkpt lat="48.22932" lon="7.30443">
        <ele>481.5</ele>
        <time>2026-03-19T06:43:50Z</time>
      </trkpt>
      <trkpt lat="48.22932" lon="7.30443">
        <ele>481.5</ele>
        <time>2026-03-19T06:43:55Z</time>
      </trkpt>
      <trkpt lat="48.22932" lon="7.30445">
        <ele>481.3</ele>
        <time>2026-03-19T06:44:00Z</time>
      </trkpt>
      <trkpt lat="48.22927" lon="7.3045">
        <ele>481.4</ele>
        <time>2026-03-19T06:44:05Z</time>
      </trkpt>
      <trkpt lat="48.22922" lon="7.30458">
        <ele>481.1</ele>
        <time>2026-03-19T06:44:10Z</time>
      </trkpt>
      <trkpt lat="48.2291" lon="7.30461">
        <ele>480.2</ele>
        <time>2026-03-19T06:44:15Z</time>
      </trkpt>
      <trkpt lat="48.22905" lon="7.30468">
        <ele>478.9</ele>
        <time>2026-03-19T06:44:20Z</time>
      </trkpt>
      <trkpt lat="48.22902" lon="7.30478">
        <ele>477.6</ele>
        <time>2026-03-19T06:44:25Z</time>
      </trkpt>
      <trkpt lat="48.22899" lon="7.30484">
        <ele>476.7</ele>
        <time>2026-03-19T06:44:30Z</time>
      </trkpt>
      <trkpt lat="48.22896" lon="7.30494">
        <ele>475.5</ele>
        <time>2026-03-19T06:44:35Z</time>
      </trkpt>
      <trkpt lat="48.22891" lon="7.305">
        <ele>474.3</ele>
        <time>2026-03-19T06:44:40Z</time>
      </trkpt>
      <trkpt lat="48.22891" lon="7.30503">
        <ele>474.1</ele>
        <time>2026-03-19T06:44:45Z</time>
      </trkpt>
      <trkpt lat="48.22892" lon="7.30505">
        <ele>474.2</ele>
        <time>2026-03-19T06:44:50Z</time>
      </trkpt>
      <trkpt lat="48.22892" lon="7.30505">
        <ele>474.2</ele>
        <time>2026-03-19T06:44:55Z</time>
      </trkpt>
      <trkpt lat="48.22892" lon="7.30505">
        <ele>474.2</ele>
        <time>2026-03-19T06:45:00Z</time>
      </trkpt>
      <trkpt lat="48.22889" lon="7.30508">
        <ele>473.6</ele>
        <time>2026-03-19T06:45:05Z</time>
      </trkpt>
      <trkpt lat="48.22882" lon="7.30512">
        <ele>472.4</ele>
        <time>2026-03-19T06:45:10Z</time>
      </trkpt>
      <trkpt lat="48.22877" lon="7.30516">
        <ele>471.5</ele>
        <time>2026-03-19T06:45:15Z</time>
      </trkpt>
      <trkpt lat="48.22872" lon="7.30522">
        <ele>470.6</ele>
        <time>2026-03-19T06:45:20Z</time>
      </trkpt>
      <trkpt lat="48.22868" lon="7.30525">
        <ele>469.9</ele>
        <time>2026-03-19T06:45:25Z</time>
      </trkpt>
      <trkpt lat="48.22863" lon="7.30524">
        <ele>469.3</ele>
        <time>2026-03-19T06:45:30Z</time>
      </trkpt>
      <trkpt lat="48.22858" lon="7.30534">
        <ele>468.3</ele>
        <time>2026-03-19T06:45:35Z</time>
      </trkpt>
      <trkpt lat="48.22856" lon="7.30541">
        <ele>467.7</ele>
        <time>2026-03-19T06:45:40Z</time>
      </trkpt>
      <trkpt lat="48.22856" lon="7.3055">
        <ele>467.4</ele>
        <time>2026-03-19T06:45:45Z</time>
      </trkpt>
      <trkpt lat="48.22852" lon="7.30556">
        <ele>466.7</ele>
        <time>2026-03-19T06:45:50Z</time>
      </trkpt>
      <trkpt lat="48.22843" lon="7.30557">
        <ele>465.7</ele>
        <time>2026-03-19T06:45:55Z</time>
      </trkpt>
      <trkpt lat="48.22838" lon="7.30558">
        <ele>465.1</ele>
        <time>2026-03-19T06:46:00Z</time>
      </trkpt>
      <trkpt lat="48.22833" lon="7.30555">
        <ele>464.6</ele>
        <time>2026-03-19T06:46:05Z</time>
      </trkpt>
      <trkpt lat="48.22827" lon="7.30553">
        <ele>464</ele>
        <time>2026-03-19T06:46:10Z</time>
      </trkpt>
      <trkpt lat="48.2282" lon="7.30553">
        <ele>463.1</ele>
        <time>2026-03-19T06:46:15Z</time>
      </trkpt>
      <trkpt lat="48.22812" lon="7.30555">
        <ele>462.1</ele>
        <time>2026-03-19T06:46:20Z</time>
      </trkpt>
      <trkpt lat="48.22808" lon="7.30553">
        <ele>461.7</ele>
        <time>2026-03-19T06:46:25Z</time>
      </trkpt>
      <trkpt lat="48.22799" lon="7.30537">
        <ele>461.3</ele>
        <time>2026-03-19T06:46:30Z</time>
      </trkpt>
      <trkpt lat="48.22795" lon="7.30528">
        <ele>461.2</ele>
        <time>2026-03-19T06:46:35Z</time>
      </trkpt>
      <trkpt lat="48.22795" lon="7.30528">
        <ele>461.2</ele>
        <time>2026-03-19T06:46:40Z</time>
      </trkpt>
      <trkpt lat="48.22795" lon="7.30528">
        <ele>461.2</ele>
        <time>2026-03-19T06:46:45Z</time>
      </trkpt>
      <trkpt lat="48.22795" lon="7.30528">
        <ele>461.2</ele>
        <time>2026-03-19T06:46:50Z</time>
      </trkpt>
      <trkpt lat="48.22795" lon="7.30528">
        <ele>461.2</ele>
        <time>2026-03-19T06:46:55Z</time>
      </trkpt>
      <trkpt lat="48.22794" lon="7.30522">
        <ele>461.3</ele>
        <time>2026-03-19T06:47:00Z</time>
      </trkpt>
      <trkpt lat="48.22791" lon="7.30519">
        <ele>461.1</ele>
        <time>2026-03-19T06:47:05Z</time>
      </trkpt>
      <trkpt lat="48.22784" lon="7.30514">
        <ele>460.6</ele>
        <time>2026-03-19T06:47:10Z</time>
      </trkpt>
      <trkpt lat="48.22779" lon="7.30498">
        <ele>460.9</ele>
        <time>2026-03-19T06:47:15Z</time>
      </trkpt>
      <trkpt lat="48.22774" lon="7.30488">
        <ele>461.2</ele>
        <time>2026-03-19T06:47:20Z</time>
      </trkpt>
      <trkpt lat="48.22769" lon="7.30481">
        <ele>461.3</ele>
        <time>2026-03-19T06:47:25Z</time>
      </trkpt>
      <trkpt lat="48.22765" lon="7.30473">
        <ele>461.6</ele>
        <time>2026-03-19T06:47:30Z</time>
      </trkpt>
      <trkpt lat="48.2276" lon="7.30466">
        <ele>461.7</ele>
        <time>2026-03-19T06:47:35Z</time>
      </trkpt>
      <trkpt lat="48.22755" lon="7.30458">
        <ele>461.9</ele>
        <time>2026-03-19T06:47:40Z</time>
      </trkpt>
      <trkpt lat="48.2275" lon="7.30452">
        <ele>462</ele>
        <time>2026-03-19T06:47:45Z</time>
      </trkpt>
      <trkpt lat="48.22745" lon="7.30446">
        <ele>462.5</ele>
        <time>2026-03-19T06:47:50Z</time>
      </trkpt>
      <trkpt lat="48.22744" lon="7.30442">
        <ele>462.8</ele>
        <time>2026-03-19T06:47:55Z</time>
      </trkpt>
      <trkpt lat="48.22737" lon="7.30439">
        <ele>463</ele>
        <time>2026-03-19T06:48:00Z</time>
      </trkpt>
      <trkpt lat="48.22728" lon="7.30437">
        <ele>463.2</ele>
        <time>2026-03-19T06:48:05Z</time>
      </trkpt>
      <trkpt lat="48.2272" lon="7.30436">
        <ele>463.2</ele>
        <time>2026-03-19T06:48:10Z</time>
      </trkpt>
      <trkpt lat="48.22712" lon="7.30439">
        <ele>462.9</ele>
        <time>2026-03-19T06:48:15Z</time>
      </trkpt>
      <trkpt lat="48.22707" lon="7.30441">
        <ele>462.7</ele>
        <time>2026-03-19T06:48:20Z</time>
      </trkpt>
      <trkpt lat="48.227" lon="7.30442">
        <ele>462.5</ele>
        <time>2026-03-19T06:48:25Z</time>
      </trkpt>
      <trkpt lat="48.22694" lon="7.3044">
        <ele>462.7</ele>
        <time>2026-03-19T06:48:30Z</time>
      </trkpt>
      <trkpt lat="48.22685" lon="7.30437">
        <ele>462.9</ele>
        <time>2026-03-19T06:48:35Z</time>
      </trkpt>
      <trkpt lat="48.22678" lon="7.30437">
        <ele>462.9</ele>
        <time>2026-03-19T06:48:40Z</time>
      </trkpt>
      <trkpt lat="48.22672" lon="7.30436">
        <ele>462.9</ele>
        <time>2026-03-19T06:48:45Z</time>
      </trkpt>
      <trkpt lat="48.22666" lon="7.30437">
        <ele>462.8</ele>
        <time>2026-03-19T06:48:50Z</time>
      </trkpt>
      <trkpt lat="48.22658" lon="7.3044">
        <ele>462.6</ele>
        <time>2026-03-19T06:48:55Z</time>
      </trkpt>
      <trkpt lat="48.22652" lon="7.30444">
        <ele>462.3</ele>
        <time>2026-03-19T06:49:00Z</time>
      </trkpt>
      <trkpt lat="48.22645" lon="7.30449">
        <ele>461.8</ele>
        <time>2026-03-19T06:49:05Z</time>
      </trkpt>
      <trkpt lat="48.22638" lon="7.30453">
        <ele>461.5</ele>
        <time>2026-03-19T06:49:10Z</time>
      </trkpt>
      <trkpt lat="48.22632" lon="7.30456">
        <ele>461.2</ele>
        <time>2026-03-19T06:49:15Z</time>
      </trkpt>
      <trkpt lat="48.22625" lon="7.3046">
        <ele>460.8</ele>
        <time>2026-03-19T06:49:20Z</time>
      </trkpt>
      <trkpt lat="48.22618" lon="7.30462">
        <ele>460.6</ele>
        <time>2026-03-19T06:49:25Z</time>
      </trkpt>
      <trkpt lat="48.22618" lon="7.30462">
        <ele>460.6</ele>
        <time>2026-03-19T06:49:30Z</time>
      </trkpt>
      <trkpt lat="48.22618" lon="7.30462">
        <ele>460.6</ele>
        <time>2026-03-19T06:49:35Z</time>
      </trkpt>
      <trkpt lat="48.22618" lon="7.30462">
        <ele>460.6</ele>
        <time>2026-03-19T06:49:40Z</time>
      </trkpt>
      <trkpt lat="48.22614" lon="7.3046">
        <ele>460.9</ele>
        <time>2026-03-19T06:49:45Z</time>
      </trkpt>
      <trkpt lat="48.22606" lon="7.30462">
        <ele>460.8</ele>
        <time>2026-03-19T06:49:50Z</time>
      </trkpt>
      <trkpt lat="48.22598" lon="7.30459">
        <ele>461.2</ele>
        <time>2026-03-19T06:49:55Z</time>
      </trkpt>
      <trkpt lat="48.22591" lon="7.30456">
        <ele>461.7</ele>
        <time>2026-03-19T06:50:00Z</time>
      </trkpt>
      <trkpt lat="48.22584" lon="7.30454">
        <ele>462.1</ele>
        <time>2026-03-19T06:50:05Z</time>
      </trkpt>
      <trkpt lat="48.2258" lon="7.30455">
        <ele>462.9</ele>
        <time>2026-03-19T06:50:10Z</time>
      </trkpt>
      <trkpt lat="48.22573" lon="7.3045">
        <ele>465.5</ele>
        <time>2026-03-19T06:50:15Z</time>
      </trkpt>
      <trkpt lat="48.22568" lon="7.30442">
        <ele>468.1</ele>
        <time>2026-03-19T06:50:20Z</time>
      </trkpt>
      <trkpt lat="48.22564" lon="7.30434">
        <ele>470.5</ele>
        <time>2026-03-19T06:50:25Z</time>
      </trkpt>
      <trkpt lat="48.22559" lon="7.30425">
        <ele>473.5</ele>
        <time>2026-03-19T06:50:30Z</time>
      </trkpt>
      <trkpt lat="48.22555" lon="7.30417">
        <ele>476.1</ele>
        <time>2026-03-19T06:50:35Z</time>
      </trkpt>
      <trkpt lat="48.22551" lon="7.30409">
        <ele>478.9</ele>
        <time>2026-03-19T06:50:40Z</time>
      </trkpt>
      <trkpt lat="48.22548" lon="7.304">
        <ele>481.6</ele>
        <time>2026-03-19T06:50:45Z</time>
      </trkpt>
      <trkpt lat="48.22545" lon="7.3039">
        <ele>484.5</ele>
        <time>2026-03-19T06:50:50Z</time>
      </trkpt>
      <trkpt lat="48.22542" lon="7.3038">
        <ele>487.4</ele>
        <time>2026-03-19T06:50:55Z</time>
      </trkpt>
      <trkpt lat="48.22539" lon="7.30371">
        <ele>490.2</ele>
        <time>2026-03-19T06:51:00Z</time>
      </trkpt>
      <trkpt lat="48.22535" lon="7.30362">
        <ele>493.3</ele>
        <time>2026-03-19T06:51:05Z</time>
      </trkpt>
      <trkpt lat="48.22529" lon="7.30354">
        <ele>496.9</ele>
        <time>2026-03-19T06:51:10Z</time>
      </trkpt>
      <trkpt lat="48.22524" lon="7.3035">
        <ele>499.4</ele>
        <time>2026-03-19T06:51:15Z</time>
      </trkpt>
      <trkpt lat="48.22518" lon="7.30351">
        <ele>501.2</ele>
        <time>2026-03-19T06:51:20Z</time>
      </trkpt>
      <trkpt lat="48.22513" lon="7.30346">
        <ele>503.9</ele>
        <time>2026-03-19T06:51:25Z</time>
      </trkpt>
      <trkpt lat="48.22512" lon="7.30347">
        <ele>504.1</ele>
        <time>2026-03-19T06:51:30Z</time>
      </trkpt>
      <trkpt lat="48.22506" lon="7.30349">
        <ele>505.7</ele>
        <time>2026-03-19T06:51:35Z</time>
      </trkpt>
      <trkpt lat="48.225" lon="7.30355">
        <ele>506.6</ele>
        <time>2026-03-19T06:51:40Z</time>
      </trkpt>
      <trkpt lat="48.22493" lon="7.30364">
        <ele>505.8</ele>
        <time>2026-03-19T06:51:45Z</time>
      </trkpt>
      <trkpt lat="48.22487" lon="7.30376">
        <ele>504.1</ele>
        <time>2026-03-19T06:51:50Z</time>
      </trkpt>
      <trkpt lat="48.22487" lon="7.3039">
        <ele>501</ele>
        <time>2026-03-19T06:51:55Z</time>
      </trkpt>
      <trkpt lat="48.22486" lon="7.304">
        <ele>499</ele>
        <time>2026-03-19T06:52:00Z</time>
      </trkpt>
      <trkpt lat="48.22484" lon="7.30407">
        <ele>497.7</ele>
        <time>2026-03-19T06:52:05Z</time>
      </trkpt>
      <trkpt lat="48.22482" lon="7.30415">
        <ele>496.1</ele>
        <time>2026-03-19T06:52:10Z</time>
      </trkpt>
      <trkpt lat="48.2248" lon="7.30424">
        <ele>494.2</ele>
        <time>2026-03-19T06:52:15Z</time>
      </trkpt>
      <trkpt lat="48.22477" lon="7.30431">
        <ele>493</ele>
        <time>2026-03-19T06:52:20Z</time>
      </trkpt>
      <trkpt lat="48.22475" lon="7.30438">
        <ele>491.6</ele>
        <time>2026-03-19T06:52:25Z</time>
      </trkpt>
      <trkpt lat="48.2247" lon="7.30444">
        <ele>490.8</ele>
        <time>2026-03-19T06:52:30Z</time>
      </trkpt>
      <trkpt lat="48.22466" lon="7.30451">
        <ele>489.7</ele>
        <time>2026-03-19T06:52:35Z</time>
      </trkpt>
      <trkpt lat="48.22461" lon="7.30457">
        <ele>489</ele>
        <time>2026-03-19T06:52:40Z</time>
      </trkpt>
      <trkpt lat="48.22456" lon="7.30462">
        <ele>488.5</ele>
        <time>2026-03-19T06:52:45Z</time>
      </trkpt>
      <trkpt lat="48.22451" lon="7.30465">
        <ele>488.5</ele>
        <time>2026-03-19T06:52:50Z</time>
      </trkpt>
      <trkpt lat="48.22445" lon="7.30466">
        <ele>489</ele>
        <time>2026-03-19T06:52:55Z</time>
      </trkpt>
      <trkpt lat="48.2244" lon="7.30466">
        <ele>489.6</ele>
        <time>2026-03-19T06:53:00Z</time>
      </trkpt>
      <trkpt lat="48.22435" lon="7.30462">
        <ele>491.1</ele>
        <time>2026-03-19T06:53:05Z</time>
      </trkpt>
      <trkpt lat="48.22429" lon="7.3046">
        <ele>492.2</ele>
        <time>2026-03-19T06:53:10Z</time>
      </trkpt>
      <trkpt lat="48.22424" lon="7.30456">
        <ele>493.6</ele>
        <time>2026-03-19T06:53:15Z</time>
      </trkpt>
      <trkpt lat="48.22419" lon="7.30454">
        <ele>494.6</ele>
        <time>2026-03-19T06:53:20Z</time>
      </trkpt>
      <trkpt lat="48.22413" lon="7.30451">
        <ele>496.2</ele>
        <time>2026-03-19T06:53:25Z</time>
      </trkpt>
      <trkpt lat="48.22409" lon="7.30445">
        <ele>498.1</ele>
        <time>2026-03-19T06:53:30Z</time>
      </trkpt>
      <trkpt lat="48.22403" lon="7.30442">
        <ele>499.8</ele>
        <time>2026-03-19T06:53:35Z</time>
      </trkpt>
      <trkpt lat="48.22398" lon="7.30436">
        <ele>501.7</ele>
        <time>2026-03-19T06:53:40Z</time>
      </trkpt>
      <trkpt lat="48.22393" lon="7.30433">
        <ele>503.1</ele>
        <time>2026-03-19T06:53:45Z</time>
      </trkpt>
      <trkpt lat="48.22389" lon="7.3043">
        <ele>504.2</ele>
        <time>2026-03-19T06:53:50Z</time>
      </trkpt>
      <trkpt lat="48.22384" lon="7.30426">
        <ele>505.5</ele>
        <time>2026-03-19T06:53:55Z</time>
      </trkpt>
      <trkpt lat="48.22379" lon="7.30422">
        <ele>506.8</ele>
        <time>2026-03-19T06:54:00Z</time>
      </trkpt>
      <trkpt lat="48.22374" lon="7.30418">
        <ele>508</ele>
        <time>2026-03-19T06:54:05Z</time>
      </trkpt>
      <trkpt lat="48.22369" lon="7.30414">
        <ele>509.5</ele>
        <time>2026-03-19T06:54:10Z</time>
      </trkpt>
      <trkpt lat="48.22362" lon="7.30413">
        <ele>510.8</ele>
        <time>2026-03-19T06:54:15Z</time>
      </trkpt>
      <trkpt lat="48.22357" lon="7.30412">
        <ele>511.7</ele>
        <time>2026-03-19T06:54:20Z</time>
      </trkpt>
      <trkpt lat="48.2235" lon="7.30411">
        <ele>512.9</ele>
        <time>2026-03-19T06:54:25Z</time>
      </trkpt>
      <trkpt lat="48.22344" lon="7.30411">
        <ele>513.7</ele>
        <time>2026-03-19T06:54:30Z</time>
      </trkpt>
      <trkpt lat="48.22337" lon="7.30411">
        <ele>514.7</ele>
        <time>2026-03-19T06:54:35Z</time>
      </trkpt>
      <trkpt lat="48.22331" lon="7.30412">
        <ele>515.6</ele>
        <time>2026-03-19T06:54:40Z</time>
      </trkpt>
      <trkpt lat="48.22324" lon="7.30414">
        <ele>516.9</ele>
        <time>2026-03-19T06:54:45Z</time>
      </trkpt>
      <trkpt lat="48.22318" lon="7.30421">
        <ele>517.8</ele>
        <time>2026-03-19T06:54:50Z</time>
      </trkpt>
      <trkpt lat="48.22313" lon="7.30427">
        <ele>518.8</ele>
        <time>2026-03-19T06:54:55Z</time>
      </trkpt>
      <trkpt lat="48.22311" lon="7.3043">
        <ele>519.3</ele>
        <time>2026-03-19T06:55:00Z</time>
      </trkpt>
      <trkpt lat="48.2231" lon="7.3043">
        <ele>519.5</ele>
        <time>2026-03-19T06:55:05Z</time>
      </trkpt>
      <trkpt lat="48.22309" lon="7.30429">
        <ele>519.8</ele>
        <time>2026-03-19T06:55:10Z</time>
      </trkpt>
      <trkpt lat="48.22309" lon="7.30429">
        <ele>519.8</ele>
        <time>2026-03-19T06:55:15Z</time>
      </trkpt>
      <trkpt lat="48.22309" lon="7.30429">
        <ele>519.8</ele>
        <time>2026-03-19T06:55:20Z</time>
      </trkpt>
      <trkpt lat="48.22309" lon="7.30429">
        <ele>519.8</ele>
        <time>2026-03-19T06:55:25Z</time>
      </trkpt>
      <trkpt lat="48.22309" lon="7.30429">
        <ele>519.8</ele>
        <time>2026-03-19T06:55:30Z</time>
      </trkpt>
      <trkpt lat="48.22309" lon="7.30429">
        <ele>519.8</ele>
        <time>2026-03-19T06:55:35Z</time>
      </trkpt>
      <trkpt lat="48.22309" lon="7.30429">
        <ele>519.8</ele>
        <time>2026-03-19T06:55:40Z</time>
      </trkpt>
      <trkpt lat="48.22309" lon="7.30429">
        <ele>519.8</ele>
        <time>2026-03-19T06:55:45Z</time>
      </trkpt>
      <trkpt lat="48.22309" lon="7.30429">
        <ele>519.8</ele>
        <time>2026-03-19T06:55:50Z</time>
      </trkpt>
      <trkpt lat="48.22309" lon="7.30429">
        <ele>519.8</ele>
        <time>2026-03-19T06:55:55Z</time>
      </trkpt>
      <trkpt lat="48.22309" lon="7.30429">
        <ele>519.8</ele>
        <time>2026-03-19T06:56:00Z</time>
      </trkpt>
      <trkpt lat="48.22309" lon="7.30429">
        <ele>519.8</ele>
        <time>2026-03-19T06:56:05Z</time>
      </trkpt>
      <trkpt lat="48.22309" lon="7.30429">
        <ele>519.8</ele>
        <time>2026-03-19T06:56:10Z</time>
      </trkpt>
      <trkpt lat="48.22309" lon="7.30429">
        <ele>519.8</ele>
        <time>2026-03-19T06:56:15Z</time>
      </trkpt>
      <trkpt lat="48.22309" lon="7.30429">
        <ele>519.8</ele>
        <time>2026-03-19T06:56:20Z</time>
      </trkpt>
      <trkpt lat="48.22309" lon="7.30429">
        <ele>519.8</ele>
        <time>2026-03-19T06:56:25Z</time>
      </trkpt>
      <trkpt lat="48.22309" lon="7.30429">
        <ele>519.8</ele>
        <time>2026-03-19T06:56:30Z</time>
      </trkpt>
      <trkpt lat="48.22309" lon="7.30429">
        <ele>519.8</ele>
        <time>2026-03-19T06:56:35Z</time>
      </trkpt>
      <trkpt lat="48.22309" lon="7.30429">
        <ele>519.8</ele>
        <time>2026-03-19T06:56:40Z</time>
      </trkpt>
      <trkpt lat="48.22309" lon="7.30429">
        <ele>519.8</ele>
        <time>2026-03-19T06:56:45Z</time>
      </trkpt>
      <trkpt lat="48.22308" lon="7.30415">
        <ele>520.7</ele>
        <time>2026-03-19T06:56:50Z</time>
      </trkpt>
      <trkpt lat="48.22308" lon="7.30415">
        <ele>520.7</ele>
        <time>2026-03-19T06:56:55Z</time>
      </trkpt>
      <trkpt lat="48.22308" lon="7.30415">
        <ele>520.7</ele>
        <time>2026-03-19T06:57:00Z</time>
      </trkpt>
      <trkpt lat="48.22308" lon="7.30415">
        <ele>520.7</ele>
        <time>2026-03-19T06:57:05Z</time>
      </trkpt>
      <trkpt lat="48.22308" lon="7.30415">
        <ele>520.7</ele>
        <time>2026-03-19T06:57:10Z</time>
      </trkpt>
      <trkpt lat="48.22308" lon="7.30415">
        <ele>520.7</ele>
        <time>2026-03-19T06:57:15Z</time>
      </trkpt>
      <trkpt lat="48.22308" lon="7.30415">
        <ele>520.7</ele>
        <time>2026-03-19T06:57:20Z</time>
      </trkpt>
      <trkpt lat="48.22308" lon="7.30415">
        <ele>520.7</ele>
        <time>2026-03-19T06:57:25Z</time>
      </trkpt>
      <trkpt lat="48.22308" lon="7.30415">
        <ele>520.7</ele>
        <time>2026-03-19T06:57:30Z</time>
      </trkpt>
      <trkpt lat="48.22308" lon="7.30415">
        <ele>520.7</ele>
        <time>2026-03-19T06:57:35Z</time>
      </trkpt>
      <trkpt lat="48.22308" lon="7.30415">
        <ele>520.7</ele>
        <time>2026-03-19T06:57:40Z</time>
      </trkpt>
      <trkpt lat="48.22308" lon="7.30415">
        <ele>520.7</ele>
        <time>2026-03-19T06:57:45Z</time>
      </trkpt>
      <trkpt lat="48.22308" lon="7.30415">
        <ele>520.7</ele>
        <time>2026-03-19T06:57:50Z</time>
      </trkpt>
      <trkpt lat="48.22308" lon="7.30415">
        <ele>520.7</ele>
        <time>2026-03-19T06:57:55Z</time>
      </trkpt>
      <trkpt lat="48.22308" lon="7.30415">
        <ele>520.7</ele>
        <time>2026-03-19T06:58:00Z</time>
      </trkpt>
      <trkpt lat="48.22308" lon="7.30415">
        <ele>520.7</ele>
        <time>2026-03-19T06:58:05Z</time>
      </trkpt>
      <trkpt lat="48.22308" lon="7.30415">
        <ele>520.7</ele>
        <time>2026-03-19T06:58:10Z</time>
      </trkpt>
      <trkpt lat="48.22308" lon="7.30415">
        <ele>520.7</ele>
        <time>2026-03-19T06:58:15Z</time>
      </trkpt>
      <trkpt lat="48.22308" lon="7.30415">
        <ele>520.7</ele>
        <time>2026-03-19T06:58:20Z</time>
      </trkpt>
      <trkpt lat="48.22308" lon="7.30415">
        <ele>520.7</ele>
        <time>2026-03-19T06:58:25Z</time>
      </trkpt>
      <trkpt lat="48.22308" lon="7.30415">
        <ele>520.7</ele>
        <time>2026-03-19T06:58:30Z</time>
      </trkpt>
      <trkpt lat="48.22308" lon="7.30415">
        <ele>520.7</ele>
        <time>2026-03-19T06:58:35Z</time>
      </trkpt>
      <trkpt lat="48.22308" lon="7.30415">
        <ele>520.7</ele>
        <time>2026-03-19T06:58:40Z</time>
      </trkpt>
      <trkpt lat="48.22308" lon="7.30415">
        <ele>520.7</ele>
        <time>2026-03-19T06:58:45Z</time>
      </trkpt>
      <trkpt lat="48.22308" lon="7.30415">
        <ele>520.7</ele>
        <time>2026-03-19T06:58:50Z</time>
      </trkpt>
      <trkpt lat="48.22308" lon="7.30415">
        <ele>520.7</ele>
        <time>2026-03-19T06:58:55Z</time>
      </trkpt>
      <trkpt lat="48.22308" lon="7.30415">
        <ele>520.7</ele>
        <time>2026-03-19T06:59:00Z</time>
      </trkpt>
      <trkpt lat="48.22308" lon="7.30415">
        <ele>520.7</ele>
        <time>2026-03-19T06:59:05Z</time>
      </trkpt>
      <trkpt lat="48.22308" lon="7.30415">
        <ele>520.7</ele>
        <time>2026-03-19T06:59:10Z</time>
      </trkpt>
      <trkpt lat="48.22308" lon="7.30415">
        <ele>520.7</ele>
        <time>2026-03-19T06:59:15Z</time>
      </trkpt>
      <trkpt lat="48.22308" lon="7.30415">
        <ele>520.7</ele>
        <time>2026-03-19T06:59:20Z</time>
      </trkpt>
      <trkpt lat="48.22308" lon="7.30415">
        <ele>520.7</ele>
        <time>2026-03-19T06:59:25Z</time>
      </trkpt>
      <trkpt lat="48.22308" lon="7.30415">
        <ele>520.7</ele>
        <time>2026-03-19T06:59:30Z</time>
      </trkpt>
      <trkpt lat="48.22308" lon="7.30415">
        <ele>520.7</ele>
        <time>2026-03-19T06:59:35Z</time>
      </trkpt>
      <trkpt lat="48.22308" lon="7.30415">
        <ele>520.7</ele>
        <time>2026-03-19T06:59:40Z</time>
      </trkpt>
      <trkpt lat="48.22308" lon="7.30415">
        <ele>520.7</ele>
        <time>2026-03-19T06:59:45Z</time>
      </trkpt>
      <trkpt lat="48.22308" lon="7.30415">
        <ele>520.7</ele>
        <time>2026-03-19T06:59:50Z</time>
      </trkpt>
      <trkpt lat="48.22308" lon="7.30415">
        <ele>520.7</ele>
        <time>2026-03-19T06:59:55Z</time>
      </trkpt>
      <trkpt lat="48.22308" lon="7.30415">
        <ele>520.7</ele>
        <time>2026-03-19T07:00:00Z</time>
      </trkpt>
      <trkpt lat="48.22308" lon="7.30415">
        <ele>520.7</ele>
        <time>2026-03-19T07:00:05Z</time>
      </trkpt>
      <trkpt lat="48.22308" lon="7.30415">
        <ele>520.7</ele>
        <time>2026-03-19T07:00:10Z</time>
      </trkpt>
      <trkpt lat="48.22308" lon="7.30415">
        <ele>520.7</ele>
        <time>2026-03-19T07:00:15Z</time>
      </trkpt>
      <trkpt lat="48.22312" lon="7.30425">
        <ele>519.2</ele>
        <time>2026-03-19T07:00:20Z</time>
      </trkpt>
      <trkpt lat="48.22316" lon="7.30429">
        <ele>518</ele>
        <time>2026-03-19T07:00:25Z</time>
      </trkpt>
      <trkpt lat="48.22319" lon="7.30433">
        <ele>517.2</ele>
        <time>2026-03-19T07:00:30Z</time>
      </trkpt>
      <trkpt lat="48.2232" lon="7.30434">
        <ele>516.9</ele>
        <time>2026-03-19T07:00:35Z</time>
      </trkpt>
      <trkpt lat="48.2232" lon="7.30434">
        <ele>516.9</ele>
        <time>2026-03-19T07:00:40Z</time>
      </trkpt>
      <trkpt lat="48.2232" lon="7.30434">
        <ele>516.9</ele>
        <time>2026-03-19T07:00:45Z</time>
      </trkpt>
      <trkpt lat="48.2232" lon="7.30434">
        <ele>516.9</ele>
        <time>2026-03-19T07:00:50Z</time>
      </trkpt>
      <trkpt lat="48.22323" lon="7.30438">
        <ele>516.1</ele>
        <time>2026-03-19T07:00:55Z</time>
      </trkpt>
      <trkpt lat="48.22325" lon="7.30446">
        <ele>515.4</ele>
        <time>2026-03-19T07:01:00Z</time>
      </trkpt>
      <trkpt lat="48.22328" lon="7.30452">
        <ele>514.5</ele>
        <time>2026-03-19T07:01:05Z</time>
      </trkpt>
      <trkpt lat="48.22328" lon="7.30462">
        <ele>514.2</ele>
        <time>2026-03-19T07:01:10Z</time>
      </trkpt>
      <trkpt lat="48.22329" lon="7.30474">
        <ele>513.7</ele>
        <time>2026-03-19T07:01:15Z</time>
      </trkpt>
      <trkpt lat="48.22327" lon="7.30482">
        <ele>514</ele>
        <time>2026-03-19T07:01:20Z</time>
      </trkpt>
      <trkpt lat="48.22322" lon="7.3049">
        <ele>515</ele>
        <time>2026-03-19T07:01:25Z</time>
      </trkpt>
      <trkpt lat="48.22318" lon="7.30496">
        <ele>515.8</ele>
        <time>2026-03-19T07:01:30Z</time>
      </trkpt>
      <trkpt lat="48.22315" lon="7.305">
        <ele>516.4</ele>
        <time>2026-03-19T07:01:35Z</time>
      </trkpt>
      <trkpt lat="48.22314" lon="7.30512">
        <ele>516.2</ele>
        <time>2026-03-19T07:01:40Z</time>
      </trkpt>
      <trkpt lat="48.22311" lon="7.30517">
        <ele>516.7</ele>
        <time>2026-03-19T07:01:45Z</time>
      </trkpt>
      <trkpt lat="48.22307" lon="7.3052">
        <ele>517.6</ele>
        <time>2026-03-19T07:01:50Z</time>
      </trkpt>
      <trkpt lat="48.22302" lon="7.30525">
        <ele>518.6</ele>
        <time>2026-03-19T07:01:55Z</time>
      </trkpt>
      <trkpt lat="48.22299" lon="7.30529">
        <ele>519.2</ele>
        <time>2026-03-19T07:02:00Z</time>
      </trkpt>
      <trkpt lat="48.22295" lon="7.30534">
        <ele>520</ele>
        <time>2026-03-19T07:02:05Z</time>
      </trkpt>
      <trkpt lat="48.22292" lon="7.30538">
        <ele>520.6</ele>
        <time>2026-03-19T07:02:10Z</time>
      </trkpt>
      <trkpt lat="48.22289" lon="7.30542">
        <ele>521.1</ele>
        <time>2026-03-19T07:02:15Z</time>
      </trkpt>
      <trkpt lat="48.22285" lon="7.30548">
        <ele>521.9</ele>
        <time>2026-03-19T07:02:20Z</time>
      </trkpt>
      <trkpt lat="48.22283" lon="7.30557">
        <ele>522</ele>
        <time>2026-03-19T07:02:25Z</time>
      </trkpt>
      <trkpt lat="48.22283" lon="7.30567">
        <ele>521.7</ele>
        <time>2026-03-19T07:02:30Z</time>
      </trkpt>
      <trkpt lat="48.22283" lon="7.30573">
        <ele>521.5</ele>
        <time>2026-03-19T07:02:35Z</time>
      </trkpt>
      <trkpt lat="48.22282" lon="7.30582">
        <ele>521.4</ele>
        <time>2026-03-19T07:02:40Z</time>
      </trkpt>
      <trkpt lat="48.22286" lon="7.3059">
        <ele>520.1</ele>
        <time>2026-03-19T07:02:45Z</time>
      </trkpt>
      <trkpt lat="48.22289" lon="7.30599">
        <ele>519</ele>
        <time>2026-03-19T07:02:50Z</time>
      </trkpt>
      <trkpt lat="48.22291" lon="7.30605">
        <ele>518.4</ele>
        <time>2026-03-19T07:02:55Z</time>
      </trkpt>
      <trkpt lat="48.22292" lon="7.30612">
        <ele>517.9</ele>
        <time>2026-03-19T07:03:00Z</time>
      </trkpt>
      <trkpt lat="48.22294" lon="7.3062">
        <ele>517.2</ele>
        <time>2026-03-19T07:03:05Z</time>
      </trkpt>
      <trkpt lat="48.22294" lon="7.30626">
        <ele>517</ele>
        <time>2026-03-19T07:03:10Z</time>
      </trkpt>
      <trkpt lat="48.22293" lon="7.30633">
        <ele>516.9</ele>
        <time>2026-03-19T07:03:15Z</time>
      </trkpt>
      <trkpt lat="48.2229" lon="7.3064">
        <ele>517.3</ele>
        <time>2026-03-19T07:03:20Z</time>
      </trkpt>
      <trkpt lat="48.22286" lon="7.30649">
        <ele>517.7</ele>
        <time>2026-03-19T07:03:25Z</time>
      </trkpt>
      <trkpt lat="48.22283" lon="7.30655">
        <ele>518</ele>
        <time>2026-03-19T07:03:30Z</time>
      </trkpt>
      <trkpt lat="48.22281" lon="7.3066">
        <ele>518.1</ele>
        <time>2026-03-19T07:03:35Z</time>
      </trkpt>
      <trkpt lat="48.22278" lon="7.30667">
        <ele>518.2</ele>
        <time>2026-03-19T07:03:40Z</time>
      </trkpt>
      <trkpt lat="48.22276" lon="7.30673">
        <ele>517.7</ele>
        <time>2026-03-19T07:03:45Z</time>
      </trkpt>
      <trkpt lat="48.22272" lon="7.30678">
        <ele>517.6</ele>
        <time>2026-03-19T07:03:50Z</time>
      </trkpt>
      <trkpt lat="48.22269" lon="7.30683">
        <ele>517.2</ele>
        <time>2026-03-19T07:03:55Z</time>
      </trkpt>
      <trkpt lat="48.22265" lon="7.30687">
        <ele>517.2</ele>
        <time>2026-03-19T07:04:00Z</time>
      </trkpt>
      <trkpt lat="48.2226" lon="7.3069">
        <ele>517.4</ele>
        <time>2026-03-19T07:04:05Z</time>
      </trkpt>
      <trkpt lat="48.22256" lon="7.30695">
        <ele>517.1</ele>
        <time>2026-03-19T07:04:10Z</time>
      </trkpt>
      <trkpt lat="48.22253" lon="7.307">
        <ele>516.6</ele>
        <time>2026-03-19T07:04:15Z</time>
      </trkpt>
      <trkpt lat="48.22248" lon="7.30706">
        <ele>515.9</ele>
        <time>2026-03-19T07:04:20Z</time>
      </trkpt>
      <trkpt lat="48.22243" lon="7.3071">
        <ele>515.2</ele>
        <time>2026-03-19T07:04:25Z</time>
      </trkpt>
      <trkpt lat="48.22239" lon="7.30715">
        <ele>514.3</ele>
        <time>2026-03-19T07:04:30Z</time>
      </trkpt>
      <trkpt lat="48.22234" lon="7.3072">
        <ele>513.3</ele>
        <time>2026-03-19T07:04:35Z</time>
      </trkpt>
      <trkpt lat="48.22229" lon="7.30723">
        <ele>512.7</ele>
        <time>2026-03-19T07:04:40Z</time>
      </trkpt>
      <trkpt lat="48.22223" lon="7.30727">
        <ele>511.8</ele>
        <time>2026-03-19T07:04:45Z</time>
      </trkpt>
      <trkpt lat="48.22218" lon="7.30731">
        <ele>510.9</ele>
        <time>2026-03-19T07:04:50Z</time>
      </trkpt>
      <trkpt lat="48.22212" lon="7.30737">
        <ele>509.5</ele>
        <time>2026-03-19T07:04:55Z</time>
      </trkpt>
      <trkpt lat="48.22207" lon="7.30742">
        <ele>508.2</ele>
        <time>2026-03-19T07:05:00Z</time>
      </trkpt>
      <trkpt lat="48.22201" lon="7.30744">
        <ele>507.6</ele>
        <time>2026-03-19T07:05:05Z</time>
      </trkpt>
      <trkpt lat="48.22196" lon="7.30748">
        <ele>506.5</ele>
        <time>2026-03-19T07:05:10Z</time>
      </trkpt>
      <trkpt lat="48.22192" lon="7.3075">
        <ele>505.9</ele>
        <time>2026-03-19T07:05:15Z</time>
      </trkpt>
      <trkpt lat="48.22188" lon="7.30752">
        <ele>505.5</ele>
        <time>2026-03-19T07:05:20Z</time>
      </trkpt>
      <trkpt lat="48.22184" lon="7.30754">
        <ele>505.1</ele>
        <time>2026-03-19T07:05:25Z</time>
      </trkpt>
      <trkpt lat="48.22179" lon="7.30754">
        <ele>504.9</ele>
        <time>2026-03-19T07:05:30Z</time>
      </trkpt>
      <trkpt lat="48.22173" lon="7.30756">
        <ele>504.5</ele>
        <time>2026-03-19T07:05:35Z</time>
      </trkpt>
      <trkpt lat="48.22167" lon="7.30757">
        <ele>504.2</ele>
        <time>2026-03-19T07:05:40Z</time>
      </trkpt>
      <trkpt lat="48.22162" lon="7.30756">
        <ele>505.2</ele>
        <time>2026-03-19T07:05:45Z</time>
      </trkpt>
      <trkpt lat="48.22154" lon="7.30757">
        <ele>506.5</ele>
        <time>2026-03-19T07:05:50Z</time>
      </trkpt>
      <trkpt lat="48.22149" lon="7.30757">
        <ele>507.5</ele>
        <time>2026-03-19T07:05:55Z</time>
      </trkpt>
      <trkpt lat="48.22142" lon="7.30754">
        <ele>509.1</ele>
        <time>2026-03-19T07:06:00Z</time>
      </trkpt>
      <trkpt lat="48.22136" lon="7.30751">
        <ele>510.4</ele>
        <time>2026-03-19T07:06:05Z</time>
      </trkpt>
      <trkpt lat="48.22133" lon="7.30748">
        <ele>511.4</ele>
        <time>2026-03-19T07:06:10Z</time>
      </trkpt>
      <trkpt lat="48.22128" lon="7.3074">
        <ele>513.7</ele>
        <time>2026-03-19T07:06:15Z</time>
      </trkpt>
      <trkpt lat="48.22122" lon="7.30733">
        <ele>515.7</ele>
        <time>2026-03-19T07:06:20Z</time>
      </trkpt>
      <trkpt lat="48.22117" lon="7.30727">
        <ele>517.2</ele>
        <time>2026-03-19T07:06:25Z</time>
      </trkpt>
      <trkpt lat="48.22114" lon="7.3072">
        <ele>518.5</ele>
        <time>2026-03-19T07:06:30Z</time>
      </trkpt>
      <trkpt lat="48.22107" lon="7.30715">
        <ele>519.9</ele>
        <time>2026-03-19T07:06:35Z</time>
      </trkpt>
      <trkpt lat="48.22099" lon="7.30712">
        <ele>520.9</ele>
        <time>2026-03-19T07:06:40Z</time>
      </trkpt>
      <trkpt lat="48.22093" lon="7.30708">
        <ele>521.8</ele>
        <time>2026-03-19T07:06:45Z</time>
      </trkpt>
      <trkpt lat="48.22087" lon="7.30703">
        <ele>522.6</ele>
        <time>2026-03-19T07:06:50Z</time>
      </trkpt>
      <trkpt lat="48.22082" lon="7.30697">
        <ele>523.6</ele>
        <time>2026-03-19T07:06:55Z</time>
      </trkpt>
      <trkpt lat="48.22076" lon="7.30693">
        <ele>525.5</ele>
        <time>2026-03-19T07:07:00Z</time>
      </trkpt>
      <trkpt lat="48.2207" lon="7.30688">
        <ele>527.4</ele>
        <time>2026-03-19T07:07:05Z</time>
      </trkpt>
      <trkpt lat="48.22068" lon="7.3069">
        <ele>527.9</ele>
        <time>2026-03-19T07:07:10Z</time>
      </trkpt>
      <trkpt lat="48.22068" lon="7.30692">
        <ele>527.8</ele>
        <time>2026-03-19T07:07:15Z</time>
      </trkpt>
      <trkpt lat="48.22068" lon="7.30692">
        <ele>527.8</ele>
        <time>2026-03-19T07:07:20Z</time>
      </trkpt>
      <trkpt lat="48.22068" lon="7.30692">
        <ele>527.8</ele>
        <time>2026-03-19T07:07:25Z</time>
      </trkpt>
      <trkpt lat="48.22068" lon="7.30692">
        <ele>527.8</ele>
        <time>2026-03-19T07:07:30Z</time>
      </trkpt>
      <trkpt lat="48.22068" lon="7.30692">
        <ele>527.8</ele>
        <time>2026-03-19T07:07:35Z</time>
      </trkpt>
      <trkpt lat="48.22068" lon="7.30692">
        <ele>527.8</ele>
        <time>2026-03-19T07:07:40Z</time>
      </trkpt>
      <trkpt lat="48.22068" lon="7.30692">
        <ele>527.8</ele>
        <time>2026-03-19T07:07:45Z</time>
      </trkpt>
      <trkpt lat="48.22068" lon="7.30692">
        <ele>527.8</ele>
        <time>2026-03-19T07:07:50Z</time>
      </trkpt>
      <trkpt lat="48.22068" lon="7.30692">
        <ele>527.8</ele>
        <time>2026-03-19T07:07:55Z</time>
      </trkpt>
      <trkpt lat="48.22068" lon="7.30692">
        <ele>527.8</ele>
        <time>2026-03-19T07:08:00Z</time>
      </trkpt>
      <trkpt lat="48.22062" lon="7.30685">
        <ele>529.8</ele>
        <time>2026-03-19T07:08:05Z</time>
      </trkpt>
      <trkpt lat="48.22056" lon="7.3068">
        <ele>531.8</ele>
        <time>2026-03-19T07:08:10Z</time>
      </trkpt>
      <trkpt lat="48.22054" lon="7.30677">
        <ele>532.5</ele>
        <time>2026-03-19T07:08:15Z</time>
      </trkpt>
      <trkpt lat="48.2205" lon="7.30676">
        <ele>533.7</ele>
        <time>2026-03-19T07:08:20Z</time>
      </trkpt>
      <trkpt lat="48.22043" lon="7.30674">
        <ele>535.7</ele>
        <time>2026-03-19T07:08:25Z</time>
      </trkpt>
      <trkpt lat="48.22037" lon="7.30671">
        <ele>537.6</ele>
        <time>2026-03-19T07:08:30Z</time>
      </trkpt>
      <trkpt lat="48.22029" lon="7.30667">
        <ele>540</ele>
        <time>2026-03-19T07:08:35Z</time>
      </trkpt>
      <trkpt lat="48.22024" lon="7.30663">
        <ele>542</ele>
        <time>2026-03-19T07:08:40Z</time>
      </trkpt>
      <trkpt lat="48.22019" lon="7.3066">
        <ele>543.8</ele>
        <time>2026-03-19T07:08:45Z</time>
      </trkpt>
      <trkpt lat="48.22017" lon="7.30657">
        <ele>544.8</ele>
        <time>2026-03-19T07:08:50Z</time>
      </trkpt>
      <trkpt lat="48.22017" lon="7.30656">
        <ele>545</ele>
        <time>2026-03-19T07:08:55Z</time>
      </trkpt>
      <trkpt lat="48.2201" lon="7.3066">
        <ele>546.2</ele>
        <time>2026-03-19T07:09:00Z</time>
      </trkpt>
      <trkpt lat="48.22007" lon="7.3067">
        <ele>545.9</ele>
        <time>2026-03-19T07:09:05Z</time>
      </trkpt>
      <trkpt lat="48.22006" lon="7.3068">
        <ele>545.7</ele>
        <time>2026-03-19T07:09:10Z</time>
      </trkpt>
      <trkpt lat="48.2201" lon="7.30693">
        <ele>543.9</ele>
        <time>2026-03-19T07:09:15Z</time>
      </trkpt>
      <trkpt lat="48.22013" lon="7.30701">
        <ele>542.7</ele>
        <time>2026-03-19T07:09:20Z</time>
      </trkpt>
      <trkpt lat="48.22013" lon="7.30712">
        <ele>542.2</ele>
        <time>2026-03-19T07:09:25Z</time>
      </trkpt>
      <trkpt lat="48.22014" lon="7.30719">
        <ele>541.5</ele>
        <time>2026-03-19T07:09:30Z</time>
      </trkpt>
      <trkpt lat="48.22018" lon="7.30729">
        <ele>539.9</ele>
        <time>2026-03-19T07:09:35Z</time>
      </trkpt>
      <trkpt lat="48.22021" lon="7.30739">
        <ele>538.5</ele>
        <time>2026-03-19T07:09:40Z</time>
      </trkpt>
      <trkpt lat="48.22026" lon="7.30749">
        <ele>536.6</ele>
        <time>2026-03-19T07:09:45Z</time>
      </trkpt>
      <trkpt lat="48.22029" lon="7.30759">
        <ele>534.9</ele>
        <time>2026-03-19T07:09:50Z</time>
      </trkpt>
      <trkpt lat="48.22032" lon="7.30769">
        <ele>533.3</ele>
        <time>2026-03-19T07:09:55Z</time>
      </trkpt>
      <trkpt lat="48.22033" lon="7.30778">
        <ele>532.4</ele>
        <time>2026-03-19T07:10:00Z</time>
      </trkpt>
      <trkpt lat="48.22033" lon="7.30783">
        <ele>532</ele>
        <time>2026-03-19T07:10:05Z</time>
      </trkpt>
      <trkpt lat="48.22029" lon="7.30796">
        <ele>532</ele>
        <time>2026-03-19T07:10:10Z</time>
      </trkpt>
      <trkpt lat="48.22026" lon="7.30806">
        <ele>531.9</ele>
        <time>2026-03-19T07:10:15Z</time>
      </trkpt>
      <trkpt lat="48.22025" lon="7.30817">
        <ele>531.3</ele>
        <time>2026-03-19T07:10:20Z</time>
      </trkpt>
      <trkpt lat="48.22023" lon="7.30826">
        <ele>530.9</ele>
        <time>2026-03-19T07:10:25Z</time>
      </trkpt>
      <trkpt lat="48.2202" lon="7.30835">
        <ele>530.6</ele>
        <time>2026-03-19T07:10:30Z</time>
      </trkpt>
      <trkpt lat="48.22017" lon="7.30844">
        <ele>529.7</ele>
        <time>2026-03-19T07:10:35Z</time>
      </trkpt>
      <trkpt lat="48.22014" lon="7.30853">
        <ele>528.8</ele>
        <time>2026-03-19T07:10:40Z</time>
      </trkpt>
      <trkpt lat="48.2201" lon="7.30862">
        <ele>528</ele>
        <time>2026-03-19T07:10:45Z</time>
      </trkpt>
      <trkpt lat="48.22007" lon="7.30868">
        <ele>527.5</ele>
        <time>2026-03-19T07:10:50Z</time>
      </trkpt>
      <trkpt lat="48.22002" lon="7.30877">
        <ele>526.8</ele>
        <time>2026-03-19T07:10:55Z</time>
      </trkpt>
      <trkpt lat="48.21997" lon="7.30887">
        <ele>525.2</ele>
        <time>2026-03-19T07:11:00Z</time>
      </trkpt>
      <trkpt lat="48.21993" lon="7.30895">
        <ele>523.5</ele>
        <time>2026-03-19T07:11:05Z</time>
      </trkpt>
      <trkpt lat="48.21988" lon="7.30906">
        <ele>521.2</ele>
        <time>2026-03-19T07:11:10Z</time>
      </trkpt>
      <trkpt lat="48.21983" lon="7.30915">
        <ele>519.1</ele>
        <time>2026-03-19T07:11:15Z</time>
      </trkpt>
      <trkpt lat="48.21979" lon="7.30923">
        <ele>517.3</ele>
        <time>2026-03-19T07:11:20Z</time>
      </trkpt>
      <trkpt lat="48.21974" lon="7.3093">
        <ele>515.6</ele>
        <time>2026-03-19T07:11:25Z</time>
      </trkpt>
      <trkpt lat="48.21971" lon="7.30939">
        <ele>513.7</ele>
        <time>2026-03-19T07:11:30Z</time>
      </trkpt>
      <trkpt lat="48.21964" lon="7.30945">
        <ele>511.8</ele>
        <time>2026-03-19T07:11:35Z</time>
      </trkpt>
      <trkpt lat="48.21957" lon="7.30952">
        <ele>509.6</ele>
        <time>2026-03-19T07:11:40Z</time>
      </trkpt>
      <trkpt lat="48.21951" lon="7.30956">
        <ele>508.1</ele>
        <time>2026-03-19T07:11:45Z</time>
      </trkpt>
      <trkpt lat="48.21947" lon="7.30963">
        <ele>506.1</ele>
        <time>2026-03-19T07:11:50Z</time>
      </trkpt>
      <trkpt lat="48.21942" lon="7.30969">
        <ele>504.2</ele>
        <time>2026-03-19T07:11:55Z</time>
      </trkpt>
      <trkpt lat="48.21935" lon="7.30972">
        <ele>502.5</ele>
        <time>2026-03-19T07:12:00Z</time>
      </trkpt>
      <trkpt lat="48.21928" lon="7.30975">
        <ele>500.9</ele>
        <time>2026-03-19T07:12:05Z</time>
      </trkpt>
      <trkpt lat="48.21922" lon="7.30973">
        <ele>500.5</ele>
        <time>2026-03-19T07:12:10Z</time>
      </trkpt>
      <trkpt lat="48.21913" lon="7.30977">
        <ele>498.3</ele>
        <time>2026-03-19T07:12:15Z</time>
      </trkpt>
      <trkpt lat="48.21907" lon="7.30977">
        <ele>497.4</ele>
        <time>2026-03-19T07:12:20Z</time>
      </trkpt>
      <trkpt lat="48.21901" lon="7.30975">
        <ele>497.1</ele>
        <time>2026-03-19T07:12:25Z</time>
      </trkpt>
      <trkpt lat="48.21894" lon="7.30971">
        <ele>497.2</ele>
        <time>2026-03-19T07:12:30Z</time>
      </trkpt>
      <trkpt lat="48.21889" lon="7.30966">
        <ele>497.9</ele>
        <time>2026-03-19T07:12:35Z</time>
      </trkpt>
      <trkpt lat="48.21883" lon="7.30959">
        <ele>499.1</ele>
        <time>2026-03-19T07:12:40Z</time>
      </trkpt>
      <trkpt lat="48.21878" lon="7.30954">
        <ele>499.8</ele>
        <time>2026-03-19T07:12:45Z</time>
      </trkpt>
      <trkpt lat="48.21871" lon="7.30951">
        <ele>499.8</ele>
        <time>2026-03-19T07:12:50Z</time>
      </trkpt>
      <trkpt lat="48.21864" lon="7.30948">
        <ele>499.9</ele>
        <time>2026-03-19T07:12:55Z</time>
      </trkpt>
      <trkpt lat="48.21858" lon="7.30944">
        <ele>500.3</ele>
        <time>2026-03-19T07:13:00Z</time>
      </trkpt>
      <trkpt lat="48.21852" lon="7.3094">
        <ele>500.8</ele>
        <time>2026-03-19T07:13:05Z</time>
      </trkpt>
      <trkpt lat="48.21846" lon="7.30941">
        <ele>499.8</ele>
        <time>2026-03-19T07:13:10Z</time>
      </trkpt>
      <trkpt lat="48.21841" lon="7.30933">
        <ele>501.7</ele>
        <time>2026-03-19T07:13:15Z</time>
      </trkpt>
      <trkpt lat="48.21835" lon="7.30924">
        <ele>503.9</ele>
        <time>2026-03-19T07:13:20Z</time>
      </trkpt>
      <trkpt lat="48.21833" lon="7.30916">
        <ele>506.2</ele>
        <time>2026-03-19T07:13:25Z</time>
      </trkpt>
      <trkpt lat="48.21829" lon="7.30907">
        <ele>508.9</ele>
        <time>2026-03-19T07:13:30Z</time>
      </trkpt>
      <trkpt lat="48.21826" lon="7.30897">
        <ele>512</ele>
        <time>2026-03-19T07:13:35Z</time>
      </trkpt>
      <trkpt lat="48.21823" lon="7.30888">
        <ele>514.7</ele>
        <time>2026-03-19T07:13:40Z</time>
      </trkpt>
      <trkpt lat="48.21818" lon="7.3088">
        <ele>516.7</ele>
        <time>2026-03-19T07:13:45Z</time>
      </trkpt>
      <trkpt lat="48.21811" lon="7.30873">
        <ele>517.9</ele>
        <time>2026-03-19T07:13:50Z</time>
      </trkpt>
      <trkpt lat="48.21803" lon="7.3087">
        <ele>517.6</ele>
        <time>2026-03-19T07:13:55Z</time>
      </trkpt>
      <trkpt lat="48.21796" lon="7.30868">
        <ele>517</ele>
        <time>2026-03-19T07:14:00Z</time>
      </trkpt>
      <trkpt lat="48.21786" lon="7.30871">
        <ele>514.3</ele>
        <time>2026-03-19T07:14:05Z</time>
      </trkpt>
      <trkpt lat="48.21778" lon="7.30875">
        <ele>511.7</ele>
        <time>2026-03-19T07:14:10Z</time>
      </trkpt>
      <trkpt lat="48.2177" lon="7.3088">
        <ele>508.8</ele>
        <time>2026-03-19T07:14:15Z</time>
      </trkpt>
      <trkpt lat="48.21762" lon="7.30884">
        <ele>506.3</ele>
        <time>2026-03-19T07:14:20Z</time>
      </trkpt>
      <trkpt lat="48.21754" lon="7.30886">
        <ele>504.5</ele>
        <time>2026-03-19T07:14:25Z</time>
      </trkpt>
      <trkpt lat="48.21747" lon="7.30889">
        <ele>501.9</ele>
        <time>2026-03-19T07:14:30Z</time>
      </trkpt>
      <trkpt lat="48.21741" lon="7.3089">
        <ele>499.4</ele>
        <time>2026-03-19T07:14:35Z</time>
      </trkpt>
      <trkpt lat="48.21736" lon="7.30893">
        <ele>496.8</ele>
        <time>2026-03-19T07:14:40Z</time>
      </trkpt>
      <trkpt lat="48.21728" lon="7.30894">
        <ele>493.7</ele>
        <time>2026-03-19T07:14:45Z</time>
      </trkpt>
      <trkpt lat="48.2172" lon="7.30897">
        <ele>490</ele>
        <time>2026-03-19T07:14:50Z</time>
      </trkpt>
      <trkpt lat="48.21715" lon="7.30897">
        <ele>488.2</ele>
        <time>2026-03-19T07:14:55Z</time>
      </trkpt>
      <trkpt lat="48.21709" lon="7.30894">
        <ele>486.9</ele>
        <time>2026-03-19T07:15:00Z</time>
      </trkpt>
      <trkpt lat="48.21705" lon="7.30889">
        <ele>486.8</ele>
        <time>2026-03-19T07:15:05Z</time>
      </trkpt>
      <trkpt lat="48.21704" lon="7.30889">
        <ele>486.4</ele>
        <time>2026-03-19T07:15:10Z</time>
      </trkpt>
      <trkpt lat="48.21704" lon="7.30889">
        <ele>486.4</ele>
        <time>2026-03-19T07:15:15Z</time>
      </trkpt>
      <trkpt lat="48.21704" lon="7.30888">
        <ele>486.7</ele>
        <time>2026-03-19T07:15:20Z</time>
      </trkpt>
      <trkpt lat="48.21698" lon="7.30884">
        <ele>485.6</ele>
        <time>2026-03-19T07:15:25Z</time>
      </trkpt>
      <trkpt lat="48.21692" lon="7.30877">
        <ele>485.2</ele>
        <time>2026-03-19T07:15:30Z</time>
      </trkpt>
      <trkpt lat="48.21687" lon="7.30867">
        <ele>486</ele>
        <time>2026-03-19T07:15:35Z</time>
      </trkpt>
      <trkpt lat="48.21685" lon="7.30861">
        <ele>486.8</ele>
        <time>2026-03-19T07:15:40Z</time>
      </trkpt>
      <trkpt lat="48.21682" lon="7.30855">
        <ele>487.3</ele>
        <time>2026-03-19T07:15:45Z</time>
      </trkpt>
      <trkpt lat="48.21675" lon="7.3085">
        <ele>485.9</ele>
        <time>2026-03-19T07:15:50Z</time>
      </trkpt>
      <trkpt lat="48.2167" lon="7.30844">
        <ele>485.6</ele>
        <time>2026-03-19T07:15:55Z</time>
      </trkpt>
      <trkpt lat="48.21668" lon="7.30834">
        <ele>487.3</ele>
        <time>2026-03-19T07:16:00Z</time>
      </trkpt>
      <trkpt lat="48.21666" lon="7.30827">
        <ele>488.6</ele>
        <time>2026-03-19T07:16:05Z</time>
      </trkpt>
      <trkpt lat="48.21664" lon="7.30817">
        <ele>491.1</ele>
        <time>2026-03-19T07:16:10Z</time>
      </trkpt>
      <trkpt lat="48.21661" lon="7.30808">
        <ele>493.1</ele>
        <time>2026-03-19T07:16:15Z</time>
      </trkpt>
      <trkpt lat="48.21657" lon="7.30801">
        <ele>494.4</ele>
        <time>2026-03-19T07:16:20Z</time>
      </trkpt>
      <trkpt lat="48.21652" lon="7.30791">
        <ele>496.3</ele>
        <time>2026-03-19T07:16:25Z</time>
      </trkpt>
      <trkpt lat="48.21649" lon="7.30781">
        <ele>498.6</ele>
        <time>2026-03-19T07:16:30Z</time>
      </trkpt>
      <trkpt lat="48.21646" lon="7.30773">
        <ele>500.2</ele>
        <time>2026-03-19T07:16:35Z</time>
      </trkpt>
      <trkpt lat="48.21643" lon="7.30762">
        <ele>502.8</ele>
        <time>2026-03-19T07:16:40Z</time>
      </trkpt>
      <trkpt lat="48.2164" lon="7.30752">
        <ele>505</ele>
        <time>2026-03-19T07:16:45Z</time>
      </trkpt>
      <trkpt lat="48.2164" lon="7.30743">
        <ele>508.1</ele>
        <time>2026-03-19T07:16:50Z</time>
      </trkpt>
      <trkpt lat="48.21638" lon="7.30735">
        <ele>510.8</ele>
        <time>2026-03-19T07:16:55Z</time>
      </trkpt>
      <trkpt lat="48.21634" lon="7.30724">
        <ele>514.1</ele>
        <time>2026-03-19T07:17:00Z</time>
      </trkpt>
      <trkpt lat="48.21632" lon="7.30713">
        <ele>517.8</ele>
        <time>2026-03-19T07:17:05Z</time>
      </trkpt>
      <trkpt lat="48.21629" lon="7.30703">
        <ele>521</ele>
        <time>2026-03-19T07:17:10Z</time>
      </trkpt>
      <trkpt lat="48.21625" lon="7.30693">
        <ele>523.9</ele>
        <time>2026-03-19T07:17:15Z</time>
      </trkpt>
      <trkpt lat="48.21618" lon="7.30685">
        <ele>525.4</ele>
        <time>2026-03-19T07:17:20Z</time>
      </trkpt>
      <trkpt lat="48.21611" lon="7.30681">
        <ele>525.5</ele>
        <time>2026-03-19T07:17:25Z</time>
      </trkpt>
      <trkpt lat="48.21599" lon="7.30684">
        <ele>522</ele>
        <time>2026-03-19T07:17:30Z</time>
      </trkpt>
      <trkpt lat="48.2159" lon="7.30685">
        <ele>519.9</ele>
        <time>2026-03-19T07:17:35Z</time>
      </trkpt>
      <trkpt lat="48.21584" lon="7.3069">
        <ele>517</ele>
        <time>2026-03-19T07:17:40Z</time>
      </trkpt>
      <trkpt lat="48.2158" lon="7.30696">
        <ele>514.4</ele>
        <time>2026-03-19T07:17:45Z</time>
      </trkpt>
      <trkpt lat="48.21574" lon="7.30697">
        <ele>513.3</ele>
        <time>2026-03-19T07:17:50Z</time>
      </trkpt>
      <trkpt lat="48.21569" lon="7.30702">
        <ele>511.2</ele>
        <time>2026-03-19T07:17:55Z</time>
      </trkpt>
      <trkpt lat="48.21564" lon="7.30705">
        <ele>509.8</ele>
        <time>2026-03-19T07:18:00Z</time>
      </trkpt>
      <trkpt lat="48.21559" lon="7.30713">
        <ele>507.2</ele>
        <time>2026-03-19T07:18:05Z</time>
      </trkpt>
      <trkpt lat="48.21554" lon="7.30712">
        <ele>507.1</ele>
        <time>2026-03-19T07:18:10Z</time>
      </trkpt>
      <trkpt lat="48.21548" lon="7.30709">
        <ele>507.4</ele>
        <time>2026-03-19T07:18:15Z</time>
      </trkpt>
      <trkpt lat="48.21542" lon="7.30705">
        <ele>507.8</ele>
        <time>2026-03-19T07:18:20Z</time>
      </trkpt>
      <trkpt lat="48.21539" lon="7.30697">
        <ele>509.1</ele>
        <time>2026-03-19T07:18:25Z</time>
      </trkpt>
      <trkpt lat="48.21536" lon="7.3069">
        <ele>510.2</ele>
        <time>2026-03-19T07:18:30Z</time>
      </trkpt>
      <trkpt lat="48.2153" lon="7.30685">
        <ele>510.2</ele>
        <time>2026-03-19T07:18:35Z</time>
      </trkpt>
      <trkpt lat="48.21526" lon="7.30678">
        <ele>510.7</ele>
        <time>2026-03-19T07:18:40Z</time>
      </trkpt>
      <trkpt lat="48.21522" lon="7.30672">
        <ele>510.9</ele>
        <time>2026-03-19T07:18:45Z</time>
      </trkpt>
      <trkpt lat="48.21516" lon="7.30668">
        <ele>510.3</ele>
        <time>2026-03-19T07:18:50Z</time>
      </trkpt>
      <trkpt lat="48.21512" lon="7.30662">
        <ele>510.6</ele>
        <time>2026-03-19T07:18:55Z</time>
      </trkpt>
      <trkpt lat="48.21506" lon="7.30657">
        <ele>510.3</ele>
        <time>2026-03-19T07:19:00Z</time>
      </trkpt>
      <trkpt lat="48.21503" lon="7.30652">
        <ele>510.7</ele>
        <time>2026-03-19T07:19:05Z</time>
      </trkpt>
      <trkpt lat="48.21501" lon="7.30644">
        <ele>511.9</ele>
        <time>2026-03-19T07:19:10Z</time>
      </trkpt>
      <trkpt lat="48.21496" lon="7.30634">
        <ele>514.9</ele>
        <time>2026-03-19T07:19:15Z</time>
      </trkpt>
      <trkpt lat="48.21492" lon="7.30626">
        <ele>517.6</ele>
        <time>2026-03-19T07:19:20Z</time>
      </trkpt>
      <trkpt lat="48.21488" lon="7.3062">
        <ele>519.7</ele>
        <time>2026-03-19T07:19:25Z</time>
      </trkpt>
      <trkpt lat="48.21484" lon="7.30614">
        <ele>521.7</ele>
        <time>2026-03-19T07:19:30Z</time>
      </trkpt>
      <trkpt lat="48.21481" lon="7.30607">
        <ele>523.5</ele>
        <time>2026-03-19T07:19:35Z</time>
      </trkpt>
      <trkpt lat="48.21476" lon="7.306">
        <ele>525.6</ele>
        <time>2026-03-19T07:19:40Z</time>
      </trkpt>
      <trkpt lat="48.21469" lon="7.30594">
        <ele>527.7</ele>
        <time>2026-03-19T07:19:45Z</time>
      </trkpt>
      <trkpt lat="48.21464" lon="7.30587">
        <ele>529.3</ele>
        <time>2026-03-19T07:19:50Z</time>
      </trkpt>
      <trkpt lat="48.2146" lon="7.3058">
        <ele>530.7</ele>
        <time>2026-03-19T07:19:55Z</time>
      </trkpt>
      <trkpt lat="48.21455" lon="7.30574">
        <ele>532.1</ele>
        <time>2026-03-19T07:20:00Z</time>
      </trkpt>
      <trkpt lat="48.2145" lon="7.30568">
        <ele>533.5</ele>
        <time>2026-03-19T07:20:05Z</time>
      </trkpt>
      <trkpt lat="48.21446" lon="7.3056">
        <ele>534.9</ele>
        <time>2026-03-19T07:20:10Z</time>
      </trkpt>
      <trkpt lat="48.21441" lon="7.30555">
        <ele>536</ele>
        <time>2026-03-19T07:20:15Z</time>
      </trkpt>
      <trkpt lat="48.21437" lon="7.3055">
        <ele>536.9</ele>
        <time>2026-03-19T07:20:20Z</time>
      </trkpt>
      <trkpt lat="48.21433" lon="7.30543">
        <ele>537.9</ele>
        <time>2026-03-19T07:20:25Z</time>
      </trkpt>
      <trkpt lat="48.2143" lon="7.30538">
        <ele>538.6</ele>
        <time>2026-03-19T07:20:30Z</time>
      </trkpt>
      <trkpt lat="48.21426" lon="7.30529">
        <ele>539.6</ele>
        <time>2026-03-19T07:20:35Z</time>
      </trkpt>
      <trkpt lat="48.21423" lon="7.3052">
        <ele>540.4</ele>
        <time>2026-03-19T07:20:40Z</time>
      </trkpt>
      <trkpt lat="48.21422" lon="7.30511">
        <ele>541.1</ele>
        <time>2026-03-19T07:20:45Z</time>
      </trkpt>
      <trkpt lat="48.21423" lon="7.30503">
        <ele>541.6</ele>
        <time>2026-03-19T07:20:50Z</time>
      </trkpt>
      <trkpt lat="48.21425" lon="7.30493">
        <ele>543.4</ele>
        <time>2026-03-19T07:20:55Z</time>
      </trkpt>
      <trkpt lat="48.21425" lon="7.30484">
        <ele>545.5</ele>
        <time>2026-03-19T07:21:00Z</time>
      </trkpt>
      <trkpt lat="48.21425" lon="7.30475">
        <ele>547.6</ele>
        <time>2026-03-19T07:21:05Z</time>
      </trkpt>
      <trkpt lat="48.21424" lon="7.30466">
        <ele>549.7</ele>
        <time>2026-03-19T07:21:10Z</time>
      </trkpt>
      <trkpt lat="48.21424" lon="7.30458">
        <ele>551.5</ele>
        <time>2026-03-19T07:21:15Z</time>
      </trkpt>
      <trkpt lat="48.21421" lon="7.30455">
        <ele>552.5</ele>
        <time>2026-03-19T07:21:20Z</time>
      </trkpt>
      <trkpt lat="48.21421" lon="7.30455">
        <ele>552.5</ele>
        <time>2026-03-19T07:21:25Z</time>
      </trkpt>
      <trkpt lat="48.21421" lon="7.30455">
        <ele>552.5</ele>
        <time>2026-03-19T07:21:30Z</time>
      </trkpt>
      <trkpt lat="48.21421" lon="7.30455">
        <ele>552.5</ele>
        <time>2026-03-19T07:21:35Z</time>
      </trkpt>
      <trkpt lat="48.21421" lon="7.30455">
        <ele>552.5</ele>
        <time>2026-03-19T07:21:40Z</time>
      </trkpt>
      <trkpt lat="48.21423" lon="7.30442">
        <ele>555.3</ele>
        <time>2026-03-19T07:21:45Z</time>
      </trkpt>
      <trkpt lat="48.21423" lon="7.30434">
        <ele>557.2</ele>
        <time>2026-03-19T07:21:50Z</time>
      </trkpt>
      <trkpt lat="48.21424" lon="7.30424">
        <ele>559.4</ele>
        <time>2026-03-19T07:21:55Z</time>
      </trkpt>
      <trkpt lat="48.21424" lon="7.30418">
        <ele>560.8</ele>
        <time>2026-03-19T07:22:00Z</time>
      </trkpt>
      <trkpt lat="48.21424" lon="7.3041">
        <ele>562.3</ele>
        <time>2026-03-19T07:22:05Z</time>
      </trkpt>
      <trkpt lat="48.21423" lon="7.30402">
        <ele>563.9</ele>
        <time>2026-03-19T07:22:10Z</time>
      </trkpt>
      <trkpt lat="48.21421" lon="7.3039">
        <ele>566.5</ele>
        <time>2026-03-19T07:22:15Z</time>
      </trkpt>
      <trkpt lat="48.21423" lon="7.3038">
        <ele>568</ele>
        <time>2026-03-19T07:22:20Z</time>
      </trkpt>
      <trkpt lat="48.21422" lon="7.30369">
        <ele>570.2</ele>
        <time>2026-03-19T07:22:25Z</time>
      </trkpt>
      <trkpt lat="48.21422" lon="7.30361">
        <ele>571.7</ele>
        <time>2026-03-19T07:22:30Z</time>
      </trkpt>
      <trkpt lat="48.21423" lon="7.30351">
        <ele>573.3</ele>
        <time>2026-03-19T07:22:35Z</time>
      </trkpt>
      <trkpt lat="48.21423" lon="7.30341">
        <ele>575.1</ele>
        <time>2026-03-19T07:22:40Z</time>
      </trkpt>
      <trkpt lat="48.21422" lon="7.30331">
        <ele>577.2</ele>
        <time>2026-03-19T07:22:45Z</time>
      </trkpt>
      <trkpt lat="48.21421" lon="7.30321">
        <ele>579.4</ele>
        <time>2026-03-19T07:22:50Z</time>
      </trkpt>
      <trkpt lat="48.21421" lon="7.30311">
        <ele>581.3</ele>
        <time>2026-03-19T07:22:55Z</time>
      </trkpt>
      <trkpt lat="48.21418" lon="7.30299">
        <ele>584.3</ele>
        <time>2026-03-19T07:23:00Z</time>
      </trkpt>
      <trkpt lat="48.21418" lon="7.30289">
        <ele>586.2</ele>
        <time>2026-03-19T07:23:05Z</time>
      </trkpt>
      <trkpt lat="48.21418" lon="7.30279">
        <ele>588.1</ele>
        <time>2026-03-19T07:23:10Z</time>
      </trkpt>
      <trkpt lat="48.21419" lon="7.3027">
        <ele>589.6</ele>
        <time>2026-03-19T07:23:15Z</time>
      </trkpt>
      <trkpt lat="48.21417" lon="7.30262">
        <ele>591.6</ele>
        <time>2026-03-19T07:23:20Z</time>
      </trkpt>
      <trkpt lat="48.21414" lon="7.30251">
        <ele>595.3</ele>
        <time>2026-03-19T07:23:25Z</time>
      </trkpt>
      <trkpt lat="48.21414" lon="7.3024">
        <ele>596.9</ele>
        <time>2026-03-19T07:23:30Z</time>
      </trkpt>
      <trkpt lat="48.21417" lon="7.30232">
        <ele>596.3</ele>
        <time>2026-03-19T07:23:35Z</time>
      </trkpt>
      <trkpt lat="48.21416" lon="7.30223">
        <ele>597.9</ele>
        <time>2026-03-19T07:23:40Z</time>
      </trkpt>
      <trkpt lat="48.21414" lon="7.30212">
        <ele>600.6</ele>
        <time>2026-03-19T07:23:45Z</time>
      </trkpt>
      <trkpt lat="48.21412" lon="7.30206">
        <ele>602.5</ele>
        <time>2026-03-19T07:23:50Z</time>
      </trkpt>
      <trkpt lat="48.21408" lon="7.30208">
        <ele>604.5</ele>
        <time>2026-03-19T07:23:55Z</time>
      </trkpt>
      <trkpt lat="48.21401" lon="7.30207">
        <ele>608.7</ele>
        <time>2026-03-19T07:24:00Z</time>
      </trkpt>
      <trkpt lat="48.21396" lon="7.30212">
        <ele>610.9</ele>
        <time>2026-03-19T07:24:05Z</time>
      </trkpt>
      <trkpt lat="48.21396" lon="7.30216">
        <ele>610.4</ele>
        <time>2026-03-19T07:24:10Z</time>
      </trkpt>
      <trkpt lat="48.21396" lon="7.30222">
        <ele>609.6</ele>
        <time>2026-03-19T07:24:15Z</time>
      </trkpt>
      <trkpt lat="48.21396" lon="7.30226">
        <ele>609.1</ele>
        <time>2026-03-19T07:24:20Z</time>
      </trkpt>
      <trkpt lat="48.21391" lon="7.30236">
        <ele>610.6</ele>
        <time>2026-03-19T07:24:25Z</time>
      </trkpt>
      <trkpt lat="48.21384" lon="7.30251">
        <ele>612.6</ele>
        <time>2026-03-19T07:24:30Z</time>
      </trkpt>
      <trkpt lat="48.2138" lon="7.30256">
        <ele>613.9</ele>
        <time>2026-03-19T07:24:35Z</time>
      </trkpt>
      <trkpt lat="48.21376" lon="7.30261">
        <ele>615.2</ele>
        <time>2026-03-19T07:24:40Z</time>
      </trkpt>
      <trkpt lat="48.21372" lon="7.30266">
        <ele>616.6</ele>
        <time>2026-03-19T07:24:45Z</time>
      </trkpt>
      <trkpt lat="48.2137" lon="7.3027">
        <ele>616.9</ele>
        <time>2026-03-19T07:24:50Z</time>
      </trkpt>
      <trkpt lat="48.21369" lon="7.30276">
        <ele>616.3</ele>
        <time>2026-03-19T07:24:55Z</time>
      </trkpt>
      <trkpt lat="48.21366" lon="7.30278">
        <ele>617.6</ele>
        <time>2026-03-19T07:25:00Z</time>
      </trkpt>
      <trkpt lat="48.21363" lon="7.30282">
        <ele>618.5</ele>
        <time>2026-03-19T07:25:05Z</time>
      </trkpt>
      <trkpt lat="48.2136" lon="7.30287">
        <ele>619.2</ele>
        <time>2026-03-19T07:25:10Z</time>
      </trkpt>
      <trkpt lat="48.21358" lon="7.30294">
        <ele>619</ele>
        <time>2026-03-19T07:25:15Z</time>
      </trkpt>
      <trkpt lat="48.21358" lon="7.30294">
        <ele>619</ele>
        <time>2026-03-19T07:25:20Z</time>
      </trkpt>
      <trkpt lat="48.21358" lon="7.30294">
        <ele>619</ele>
        <time>2026-03-19T07:25:25Z</time>
      </trkpt>
      <trkpt lat="48.21358" lon="7.30294">
        <ele>619</ele>
        <time>2026-03-19T07:25:30Z</time>
      </trkpt>
      <trkpt lat="48.21358" lon="7.30294">
        <ele>619</ele>
        <time>2026-03-19T07:25:35Z</time>
      </trkpt>
      <trkpt lat="48.21358" lon="7.30294">
        <ele>619</ele>
        <time>2026-03-19T07:25:40Z</time>
      </trkpt>
      <trkpt lat="48.21358" lon="7.30294">
        <ele>619</ele>
        <time>2026-03-19T07:25:45Z</time>
      </trkpt>
      <trkpt lat="48.21358" lon="7.30294">
        <ele>619</ele>
        <time>2026-03-19T07:25:50Z</time>
      </trkpt>
      <trkpt lat="48.21358" lon="7.30294">
        <ele>619</ele>
        <time>2026-03-19T07:25:55Z</time>
      </trkpt>
      <trkpt lat="48.21358" lon="7.30294">
        <ele>619</ele>
        <time>2026-03-19T07:26:00Z</time>
      </trkpt>
      <trkpt lat="48.21358" lon="7.30294">
        <ele>619</ele>
        <time>2026-03-19T07:26:05Z</time>
      </trkpt>
      <trkpt lat="48.21358" lon="7.30294">
        <ele>619</ele>
        <time>2026-03-19T07:26:10Z</time>
      </trkpt>
      <trkpt lat="48.21358" lon="7.30294">
        <ele>619</ele>
        <time>2026-03-19T07:26:15Z</time>
      </trkpt>
      <trkpt lat="48.21359" lon="7.30303">
        <ele>616.6</ele>
        <time>2026-03-19T07:26:20Z</time>
      </trkpt>
      <trkpt lat="48.21356" lon="7.30309">
        <ele>617.1</ele>
        <time>2026-03-19T07:26:25Z</time>
      </trkpt>
      <trkpt lat="48.21354" lon="7.30315">
        <ele>617</ele>
        <time>2026-03-19T07:26:30Z</time>
      </trkpt>
      <trkpt lat="48.21352" lon="7.30318">
        <ele>617.6</ele>
        <time>2026-03-19T07:26:35Z</time>
      </trkpt>
      <trkpt lat="48.21349" lon="7.30326">
        <ele>617.6</ele>
        <time>2026-03-19T07:26:40Z</time>
      </trkpt>
      <trkpt lat="48.21344" lon="7.30333">
        <ele>619.1</ele>
        <time>2026-03-19T07:26:45Z</time>
      </trkpt>
      <trkpt lat="48.21339" lon="7.30342">
        <ele>619.7</ele>
        <time>2026-03-19T07:26:50Z</time>
      </trkpt>
      <trkpt lat="48.21335" lon="7.3035">
        <ele>619.9</ele>
        <time>2026-03-19T07:26:55Z</time>
      </trkpt>
      <trkpt lat="48.21333" lon="7.30352">
        <ele>620.4</ele>
        <time>2026-03-19T07:27:00Z</time>
      </trkpt>
      <trkpt lat="48.21333" lon="7.30361">
        <ele>618.1</ele>
        <time>2026-03-19T07:27:05Z</time>
      </trkpt>
      <trkpt lat="48.21329" lon="7.30372">
        <ele>616.2</ele>
        <time>2026-03-19T07:27:10Z</time>
      </trkpt>
      <trkpt lat="48.21325" lon="7.30383">
        <ele>614.2</ele>
        <time>2026-03-19T07:27:15Z</time>
      </trkpt>
      <trkpt lat="48.21323" lon="7.30392">
        <ele>612.4</ele>
        <time>2026-03-19T07:27:20Z</time>
      </trkpt>
      <trkpt lat="48.21319" lon="7.30399">
        <ele>611.5</ele>
        <time>2026-03-19T07:27:25Z</time>
      </trkpt>
      <trkpt lat="48.21315" lon="7.30407">
        <ele>610.4</ele>
        <time>2026-03-19T07:27:30Z</time>
      </trkpt>
      <trkpt lat="48.21312" lon="7.30416">
        <ele>608.8</ele>
        <time>2026-03-19T07:27:35Z</time>
      </trkpt>
      <trkpt lat="48.21311" lon="7.30424">
        <ele>607.4</ele>
        <time>2026-03-19T07:27:40Z</time>
      </trkpt>
      <trkpt lat="48.21311" lon="7.30424">
        <ele>607.4</ele>
        <time>2026-03-19T07:27:45Z</time>
      </trkpt>
      <trkpt lat="48.21311" lon="7.30424">
        <ele>607.4</ele>
        <time>2026-03-19T07:27:50Z</time>
      </trkpt>
      <trkpt lat="48.21311" lon="7.30424">
        <ele>607.4</ele>
        <time>2026-03-19T07:27:55Z</time>
      </trkpt>
      <trkpt lat="48.21311" lon="7.30424">
        <ele>607.4</ele>
        <time>2026-03-19T07:28:00Z</time>
      </trkpt>
      <trkpt lat="48.21311" lon="7.30424">
        <ele>607.4</ele>
        <time>2026-03-19T07:28:05Z</time>
      </trkpt>
      <trkpt lat="48.21311" lon="7.30434">
        <ele>605.5</ele>
        <time>2026-03-19T07:28:10Z</time>
      </trkpt>
      <trkpt lat="48.21305" lon="7.30443">
        <ele>605.1</ele>
        <time>2026-03-19T07:28:15Z</time>
      </trkpt>
      <trkpt lat="48.213" lon="7.30455">
        <ele>603.7</ele>
        <time>2026-03-19T07:28:20Z</time>
      </trkpt>
      <trkpt lat="48.21297" lon="7.30464">
        <ele>602.6</ele>
        <time>2026-03-19T07:28:25Z</time>
      </trkpt>
      <trkpt lat="48.21294" lon="7.3047">
        <ele>602</ele>
        <time>2026-03-19T07:28:30Z</time>
      </trkpt>
      <trkpt lat="48.21291" lon="7.30478">
        <ele>601</ele>
        <time>2026-03-19T07:28:35Z</time>
      </trkpt>
      <trkpt lat="48.21287" lon="7.30488">
        <ele>599.7</ele>
        <time>2026-03-19T07:28:40Z</time>
      </trkpt>
      <trkpt lat="48.21282" lon="7.30496">
        <ele>599</ele>
        <time>2026-03-19T07:28:45Z</time>
      </trkpt>
      <trkpt lat="48.21278" lon="7.30507">
        <ele>597.5</ele>
        <time>2026-03-19T07:28:50Z</time>
      </trkpt>
      <trkpt lat="48.21275" lon="7.30517">
        <ele>596</ele>
        <time>2026-03-19T07:28:55Z</time>
      </trkpt>
      <trkpt lat="48.21273" lon="7.3053">
        <ele>593.5</ele>
        <time>2026-03-19T07:29:00Z</time>
      </trkpt>
      <trkpt lat="48.21273" lon="7.3053">
        <ele>593.5</ele>
        <time>2026-03-19T07:29:05Z</time>
      </trkpt>
      <trkpt lat="48.21273" lon="7.30538">
        <ele>591.8</ele>
        <time>2026-03-19T07:29:10Z</time>
      </trkpt>
      <trkpt lat="48.21272" lon="7.30551">
        <ele>589.1</ele>
        <time>2026-03-19T07:29:15Z</time>
      </trkpt>
      <trkpt lat="48.21272" lon="7.30568">
        <ele>585.5</ele>
        <time>2026-03-19T07:29:20Z</time>
      </trkpt>
      <trkpt lat="48.2127" lon="7.30575">
        <ele>584.1</ele>
        <time>2026-03-19T07:29:25Z</time>
      </trkpt>
      <trkpt lat="48.21269" lon="7.3058">
        <ele>583</ele>
        <time>2026-03-19T07:29:30Z</time>
      </trkpt>
      <trkpt lat="48.21268" lon="7.30586">
        <ele>581.8</ele>
        <time>2026-03-19T07:29:35Z</time>
      </trkpt>
      <trkpt lat="48.21268" lon="7.30594">
        <ele>580</ele>
        <time>2026-03-19T07:29:40Z</time>
      </trkpt>
      <trkpt lat="48.21269" lon="7.30601">
        <ele>578.5</ele>
        <time>2026-03-19T07:29:45Z</time>
      </trkpt>
      <trkpt lat="48.21269" lon="7.30608">
        <ele>577</ele>
        <time>2026-03-19T07:29:50Z</time>
      </trkpt>
      <trkpt lat="48.21267" lon="7.30613">
        <ele>575.9</ele>
        <time>2026-03-19T07:29:55Z</time>
      </trkpt>
      <trkpt lat="48.21264" lon="7.3062">
        <ele>574.1</ele>
        <time>2026-03-19T07:30:00Z</time>
      </trkpt>
      <trkpt lat="48.21262" lon="7.30625">
        <ele>572.9</ele>
        <time>2026-03-19T07:30:05Z</time>
      </trkpt>
      <trkpt lat="48.21259" lon="7.30632">
        <ele>571</ele>
        <time>2026-03-19T07:30:10Z</time>
      </trkpt>
      <trkpt lat="48.21257" lon="7.30636">
        <ele>569.8</ele>
        <time>2026-03-19T07:30:15Z</time>
      </trkpt>
      <trkpt lat="48.21252" lon="7.30637">
        <ele>569</ele>
        <time>2026-03-19T07:30:20Z</time>
      </trkpt>
      <trkpt lat="48.21247" lon="7.30639">
        <ele>567.2</ele>
        <time>2026-03-19T07:30:25Z</time>
      </trkpt>
      <trkpt lat="48.21244" lon="7.30639">
        <ele>566.1</ele>
        <time>2026-03-19T07:30:30Z</time>
      </trkpt>
      <trkpt lat="48.21239" lon="7.30642">
        <ele>563.6</ele>
        <time>2026-03-19T07:30:35Z</time>
      </trkpt>
      <trkpt lat="48.21232" lon="7.30646">
        <ele>560</ele>
        <time>2026-03-19T07:30:40Z</time>
      </trkpt>
      <trkpt lat="48.21227" lon="7.30644">
        <ele>558.8</ele>
        <time>2026-03-19T07:30:45Z</time>
      </trkpt>
      <trkpt lat="48.21225" lon="7.30636">
        <ele>560.1</ele>
        <time>2026-03-19T07:30:50Z</time>
      </trkpt>
      <trkpt lat="48.21227" lon="7.30626">
        <ele>563.3</ele>
        <time>2026-03-19T07:30:55Z</time>
      </trkpt>
      <trkpt lat="48.21227" lon="7.30619">
        <ele>565.1</ele>
        <time>2026-03-19T07:31:00Z</time>
      </trkpt>
      <trkpt lat="48.21227" lon="7.30619">
        <ele>565.1</ele>
        <time>2026-03-19T07:31:05Z</time>
      </trkpt>
      <trkpt lat="48.21227" lon="7.30619">
        <ele>565.1</ele>
        <time>2026-03-19T07:31:10Z</time>
      </trkpt>
      <trkpt lat="48.21228" lon="7.30617">
        <ele>566</ele>
        <time>2026-03-19T07:31:15Z</time>
      </trkpt>
      <trkpt lat="48.21225" lon="7.3061">
        <ele>566.6</ele>
        <time>2026-03-19T07:31:20Z</time>
      </trkpt>
      <trkpt lat="48.21223" lon="7.30604">
        <ele>567.4</ele>
        <time>2026-03-19T07:31:25Z</time>
      </trkpt>
      <trkpt lat="48.21221" lon="7.30597">
        <ele>568.4</ele>
        <time>2026-03-19T07:31:30Z</time>
      </trkpt>
      <trkpt lat="48.21215" lon="7.30592">
        <ele>567.4</ele>
        <time>2026-03-19T07:31:35Z</time>
      </trkpt>
      <trkpt lat="48.21209" lon="7.30581">
        <ele>567.9</ele>
        <time>2026-03-19T07:31:40Z</time>
      </trkpt>
      <trkpt lat="48.21207" lon="7.30577">
        <ele>568.4</ele>
        <time>2026-03-19T07:31:45Z</time>
      </trkpt>
      <trkpt lat="48.21203" lon="7.30574">
        <ele>567.7</ele>
        <time>2026-03-19T07:31:50Z</time>
      </trkpt>
      <trkpt lat="48.21197" lon="7.30569">
        <ele>567</ele>
        <time>2026-03-19T07:31:55Z</time>
      </trkpt>
      <trkpt lat="48.21192" lon="7.30565">
        <ele>566.4</ele>
        <time>2026-03-19T07:32:00Z</time>
      </trkpt>
      <trkpt lat="48.21188" lon="7.30562">
        <ele>565.9</ele>
        <time>2026-03-19T07:32:05Z</time>
      </trkpt>
      <trkpt lat="48.21183" lon="7.30558">
        <ele>565.4</ele>
        <time>2026-03-19T07:32:10Z</time>
      </trkpt>
      <trkpt lat="48.21176" lon="7.30558">
        <ele>562.9</ele>
        <time>2026-03-19T07:32:15Z</time>
      </trkpt>
      <trkpt lat="48.21169" lon="7.30558">
        <ele>560.3</ele>
        <time>2026-03-19T07:32:20Z</time>
      </trkpt>
      <trkpt lat="48.21163" lon="7.30557">
        <ele>559</ele>
        <time>2026-03-19T07:32:25Z</time>
      </trkpt>
      <trkpt lat="48.21157" lon="7.30557">
        <ele>557.5</ele>
        <time>2026-03-19T07:32:30Z</time>
      </trkpt>
      <trkpt lat="48.21151" lon="7.30554">
        <ele>557</ele>
        <time>2026-03-19T07:32:35Z</time>
      </trkpt>
      <trkpt lat="48.21145" lon="7.30552">
        <ele>556.1</ele>
        <time>2026-03-19T07:32:40Z</time>
      </trkpt>
      <trkpt lat="48.21141" lon="7.30547">
        <ele>556.6</ele>
        <time>2026-03-19T07:32:45Z</time>
      </trkpt>
      <trkpt lat="48.21139" lon="7.3054">
        <ele>558.2</ele>
        <time>2026-03-19T07:32:50Z</time>
      </trkpt>
      <trkpt lat="48.21135" lon="7.30533">
        <ele>559.2</ele>
        <time>2026-03-19T07:32:55Z</time>
      </trkpt>
      <trkpt lat="48.21131" lon="7.30525">
        <ele>560.3</ele>
        <time>2026-03-19T07:33:00Z</time>
      </trkpt>
      <trkpt lat="48.21126" lon="7.30517">
        <ele>561.1</ele>
        <time>2026-03-19T07:33:05Z</time>
      </trkpt>
      <trkpt lat="48.21122" lon="7.3051">
        <ele>561.8</ele>
        <time>2026-03-19T07:33:10Z</time>
      </trkpt>
      <trkpt lat="48.21118" lon="7.305">
        <ele>563.2</ele>
        <time>2026-03-19T07:33:15Z</time>
      </trkpt>
      <trkpt lat="48.21115" lon="7.30491">
        <ele>564.6</ele>
        <time>2026-03-19T07:33:20Z</time>
      </trkpt>
      <trkpt lat="48.2111" lon="7.30485">
        <ele>564.5</ele>
        <time>2026-03-19T07:33:25Z</time>
      </trkpt>
      <trkpt lat="48.21106" lon="7.30476">
        <ele>565.5</ele>
        <time>2026-03-19T07:33:30Z</time>
      </trkpt>
      <trkpt lat="48.21104" lon="7.30468">
        <ele>566.9</ele>
        <time>2026-03-19T07:33:35Z</time>
      </trkpt>
      <trkpt lat="48.21099" lon="7.30461">
        <ele>567</ele>
        <time>2026-03-19T07:33:40Z</time>
      </trkpt>
      <trkpt lat="48.21097" lon="7.30459">
        <ele>566.8</ele>
        <time>2026-03-19T07:33:45Z</time>
      </trkpt>
      <trkpt lat="48.21095" lon="7.30459">
        <ele>566.2</ele>
        <time>2026-03-19T07:33:50Z</time>
      </trkpt>
      <trkpt lat="48.21091" lon="7.30452">
        <ele>566.6</ele>
        <time>2026-03-19T07:33:55Z</time>
      </trkpt>
      <trkpt lat="48.21086" lon="7.30443">
        <ele>567.2</ele>
        <time>2026-03-19T07:34:00Z</time>
      </trkpt>
      <trkpt lat="48.21084" lon="7.30434">
        <ele>568.9</ele>
        <time>2026-03-19T07:34:05Z</time>
      </trkpt>
      <trkpt lat="48.21083" lon="7.30427">
        <ele>570.4</ele>
        <time>2026-03-19T07:34:10Z</time>
      </trkpt>
      <trkpt lat="48.21082" lon="7.30421">
        <ele>572</ele>
        <time>2026-03-19T07:34:15Z</time>
      </trkpt>
      <trkpt lat="48.2108" lon="7.30415">
        <ele>573.8</ele>
        <time>2026-03-19T07:34:20Z</time>
      </trkpt>
      <trkpt lat="48.21078" lon="7.30407">
        <ele>576.4</ele>
        <time>2026-03-19T07:34:25Z</time>
      </trkpt>
      <trkpt lat="48.21075" lon="7.30402">
        <ele>578.1</ele>
        <time>2026-03-19T07:34:30Z</time>
      </trkpt>
      <trkpt lat="48.21071" lon="7.30395">
        <ele>580.4</ele>
        <time>2026-03-19T07:34:35Z</time>
      </trkpt>
      <trkpt lat="48.21067" lon="7.30388">
        <ele>582.7</ele>
        <time>2026-03-19T07:34:40Z</time>
      </trkpt>
      <trkpt lat="48.21064" lon="7.30383">
        <ele>584.3</ele>
        <time>2026-03-19T07:34:45Z</time>
      </trkpt>
      <trkpt lat="48.21063" lon="7.30383">
        <ele>584.3</ele>
        <time>2026-03-19T07:34:50Z</time>
      </trkpt>
      <trkpt lat="48.21061" lon="7.3038">
        <ele>585.3</ele>
        <time>2026-03-19T07:34:55Z</time>
      </trkpt>
      <trkpt lat="48.21059" lon="7.30375">
        <ele>586.7</ele>
        <time>2026-03-19T07:35:00Z</time>
      </trkpt>
      <trkpt lat="48.21058" lon="7.30373">
        <ele>587.3</ele>
        <time>2026-03-19T07:35:05Z</time>
      </trkpt>
      <trkpt lat="48.21058" lon="7.30373">
        <ele>587.3</ele>
        <time>2026-03-19T07:35:10Z</time>
      </trkpt>
      <trkpt lat="48.21055" lon="7.3037">
        <ele>588.2</ele>
        <time>2026-03-19T07:35:15Z</time>
      </trkpt>
      <trkpt lat="48.21051" lon="7.30362">
        <ele>590.5</ele>
        <time>2026-03-19T07:35:20Z</time>
      </trkpt>
      <trkpt lat="48.21049" lon="7.30354">
        <ele>592.6</ele>
        <time>2026-03-19T07:35:25Z</time>
      </trkpt>
      <trkpt lat="48.21047" lon="7.30348">
        <ele>594.2</ele>
        <time>2026-03-19T07:35:30Z</time>
      </trkpt>
      <trkpt lat="48.21046" lon="7.30341">
        <ele>596.1</ele>
        <time>2026-03-19T07:35:35Z</time>
      </trkpt>
      <trkpt lat="48.21041" lon="7.30335">
        <ele>597.6</ele>
        <time>2026-03-19T07:35:40Z</time>
      </trkpt>
      <trkpt lat="48.21037" lon="7.3033">
        <ele>598.6</ele>
        <time>2026-03-19T07:35:45Z</time>
      </trkpt>
      <trkpt lat="48.21033" lon="7.30319">
        <ele>600.9</ele>
        <time>2026-03-19T07:35:50Z</time>
      </trkpt>
      <trkpt lat="48.2103" lon="7.30307">
        <ele>603.5</ele>
        <time>2026-03-19T07:35:55Z</time>
      </trkpt>
      <trkpt lat="48.21029" lon="7.30297">
        <ele>605.7</ele>
        <time>2026-03-19T07:36:00Z</time>
      </trkpt>
      <trkpt lat="48.21028" lon="7.3029">
        <ele>607.2</ele>
        <time>2026-03-19T07:36:05Z</time>
      </trkpt>
      <trkpt lat="48.21027" lon="7.30282">
        <ele>609</ele>
        <time>2026-03-19T07:36:10Z</time>
      </trkpt>
      <trkpt lat="48.21024" lon="7.30272">
        <ele>611.1</ele>
        <time>2026-03-19T07:36:15Z</time>
      </trkpt>
      <trkpt lat="48.21021" lon="7.30264">
        <ele>612.9</ele>
        <time>2026-03-19T07:36:20Z</time>
      </trkpt>
      <trkpt lat="48.21017" lon="7.30256">
        <ele>614.7</ele>
        <time>2026-03-19T07:36:25Z</time>
      </trkpt>
      <trkpt lat="48.21015" lon="7.30251">
        <ele>615.8</ele>
        <time>2026-03-19T07:36:30Z</time>
      </trkpt>
      <trkpt lat="48.21012" lon="7.30246">
        <ele>616.6</ele>
        <time>2026-03-19T07:36:35Z</time>
      </trkpt>
      <trkpt lat="48.21008" lon="7.30242">
        <ele>617.2</ele>
        <time>2026-03-19T07:36:40Z</time>
      </trkpt>
      <trkpt lat="48.21003" lon="7.30237">
        <ele>617.9</ele>
        <time>2026-03-19T07:36:45Z</time>
      </trkpt>
      <trkpt lat="48.20997" lon="7.30232">
        <ele>618.4</ele>
        <time>2026-03-19T07:36:50Z</time>
      </trkpt>
      <trkpt lat="48.20994" lon="7.30225">
        <ele>619.2</ele>
        <time>2026-03-19T07:36:55Z</time>
      </trkpt>
      <trkpt lat="48.20989" lon="7.30223">
        <ele>619.2</ele>
        <time>2026-03-19T07:37:00Z</time>
      </trkpt>
      <trkpt lat="48.20985" lon="7.30221">
        <ele>619.3</ele>
        <time>2026-03-19T07:37:05Z</time>
      </trkpt>
      <trkpt lat="48.2098" lon="7.30221">
        <ele>619</ele>
        <time>2026-03-19T07:37:10Z</time>
      </trkpt>
      <trkpt lat="48.20974" lon="7.30224">
        <ele>618.2</ele>
        <time>2026-03-19T07:37:15Z</time>
      </trkpt>
      <trkpt lat="48.20966" lon="7.30232">
        <ele>616.7</ele>
        <time>2026-03-19T07:37:20Z</time>
      </trkpt>
      <trkpt lat="48.20959" lon="7.30235">
        <ele>615.9</ele>
        <time>2026-03-19T07:37:25Z</time>
      </trkpt>
      <trkpt lat="48.20956" lon="7.30238">
        <ele>615.4</ele>
        <time>2026-03-19T07:37:30Z</time>
      </trkpt>
      <trkpt lat="48.20951" lon="7.30242">
        <ele>614.6</ele>
        <time>2026-03-19T07:37:35Z</time>
      </trkpt>
      <trkpt lat="48.20944" lon="7.30246">
        <ele>613.8</ele>
        <time>2026-03-19T07:37:40Z</time>
      </trkpt>
      <trkpt lat="48.20937" lon="7.30248">
        <ele>613.2</ele>
        <time>2026-03-19T07:37:45Z</time>
      </trkpt>
      <trkpt lat="48.20931" lon="7.30251">
        <ele>612.6</ele>
        <time>2026-03-19T07:37:50Z</time>
      </trkpt>
      <trkpt lat="48.20928" lon="7.30251">
        <ele>612.5</ele>
        <time>2026-03-19T07:37:55Z</time>
      </trkpt>
      <trkpt lat="48.20925" lon="7.30252">
        <ele>612.3</ele>
        <time>2026-03-19T07:38:00Z</time>
      </trkpt>
      <trkpt lat="48.20915" lon="7.30255">
        <ele>611.4</ele>
        <time>2026-03-19T07:38:05Z</time>
      </trkpt>
      <trkpt lat="48.20904" lon="7.30257">
        <ele>609.3</ele>
        <time>2026-03-19T07:38:10Z</time>
      </trkpt>
      <trkpt lat="48.20897" lon="7.30258">
        <ele>608</ele>
        <time>2026-03-19T07:38:15Z</time>
      </trkpt>
      <trkpt lat="48.20891" lon="7.30261">
        <ele>606.9</ele>
        <time>2026-03-19T07:38:20Z</time>
      </trkpt>
      <trkpt lat="48.20886" lon="7.30263">
        <ele>605.9</ele>
        <time>2026-03-19T07:38:25Z</time>
      </trkpt>
      <trkpt lat="48.20882" lon="7.30264">
        <ele>605.2</ele>
        <time>2026-03-19T07:38:30Z</time>
      </trkpt>
      <trkpt lat="48.20875" lon="7.30267">
        <ele>604</ele>
        <time>2026-03-19T07:38:35Z</time>
      </trkpt>
      <trkpt lat="48.20869" lon="7.3027">
        <ele>603</ele>
        <time>2026-03-19T07:38:40Z</time>
      </trkpt>
      <trkpt lat="48.20861" lon="7.30277">
        <ele>601.7</ele>
        <time>2026-03-19T07:38:45Z</time>
      </trkpt>
      <trkpt lat="48.20854" lon="7.30281">
        <ele>600.7</ele>
        <time>2026-03-19T07:38:50Z</time>
      </trkpt>
      <trkpt lat="48.20848" lon="7.30286">
        <ele>599.9</ele>
        <time>2026-03-19T07:38:55Z</time>
      </trkpt>
      <trkpt lat="48.20843" lon="7.30293">
        <ele>599.4</ele>
        <time>2026-03-19T07:39:00Z</time>
      </trkpt>
      <trkpt lat="48.20836" lon="7.30301">
        <ele>598.8</ele>
        <time>2026-03-19T07:39:05Z</time>
      </trkpt>
      <trkpt lat="48.2083" lon="7.30309">
        <ele>597.7</ele>
        <time>2026-03-19T07:39:10Z</time>
      </trkpt>
      <trkpt lat="48.20825" lon="7.30319">
        <ele>596.5</ele>
        <time>2026-03-19T07:39:15Z</time>
      </trkpt>
      <trkpt lat="48.20821" lon="7.30329">
        <ele>595.9</ele>
        <time>2026-03-19T07:39:20Z</time>
      </trkpt>
      <trkpt lat="48.20818" lon="7.30337">
        <ele>595.7</ele>
        <time>2026-03-19T07:39:25Z</time>
      </trkpt>
      <trkpt lat="48.20815" lon="7.30345">
        <ele>595.8</ele>
        <time>2026-03-19T07:39:30Z</time>
      </trkpt>
      <trkpt lat="48.20814" lon="7.30357">
        <ele>597.1</ele>
        <time>2026-03-19T07:39:35Z</time>
      </trkpt>
      <trkpt lat="48.20811" lon="7.30365">
        <ele>597.5</ele>
        <time>2026-03-19T07:39:40Z</time>
      </trkpt>
      <trkpt lat="48.20806" lon="7.30372">
        <ele>597.5</ele>
        <time>2026-03-19T07:39:45Z</time>
      </trkpt>
      <trkpt lat="48.20803" lon="7.30376">
        <ele>597.5</ele>
        <time>2026-03-19T07:39:50Z</time>
      </trkpt>
      <trkpt lat="48.208" lon="7.30373">
        <ele>596.5</ele>
        <time>2026-03-19T07:39:55Z</time>
      </trkpt>
      <trkpt lat="48.20796" lon="7.30374">
        <ele>595.9</ele>
        <time>2026-03-19T07:40:00Z</time>
      </trkpt>
      <trkpt lat="48.2079" lon="7.30375">
        <ele>594.9</ele>
        <time>2026-03-19T07:40:05Z</time>
      </trkpt>
      <trkpt lat="48.20784" lon="7.30372">
        <ele>593.2</ele>
        <time>2026-03-19T07:40:10Z</time>
      </trkpt>
      <trkpt lat="48.20777" lon="7.30367">
        <ele>590.6</ele>
        <time>2026-03-19T07:40:15Z</time>
      </trkpt>
      <trkpt lat="48.20772" lon="7.30372">
        <ele>590.8</ele>
        <time>2026-03-19T07:40:20Z</time>
      </trkpt>
      <trkpt lat="48.2077" lon="7.30383">
        <ele>593.3</ele>
        <time>2026-03-19T07:40:25Z</time>
      </trkpt>
      <trkpt lat="48.20765" lon="7.30395">
        <ele>595.9</ele>
        <time>2026-03-19T07:40:30Z</time>
      </trkpt>
      <trkpt lat="48.20761" lon="7.30406">
        <ele>598.6</ele>
        <time>2026-03-19T07:40:35Z</time>
      </trkpt>
      <trkpt lat="48.20756" lon="7.30411">
        <ele>599.6</ele>
        <time>2026-03-19T07:40:40Z</time>
      </trkpt>
      <trkpt lat="48.20753" lon="7.30417">
        <ele>601.3</ele>
        <time>2026-03-19T07:40:45Z</time>
      </trkpt>
      <trkpt lat="48.20752" lon="7.3042">
        <ele>602.1</ele>
        <time>2026-03-19T07:40:50Z</time>
      </trkpt>
      <trkpt lat="48.20749" lon="7.30427">
        <ele>604</ele>
        <time>2026-03-19T07:40:55Z</time>
      </trkpt>
      <trkpt lat="48.20746" lon="7.30438">
        <ele>607.2</ele>
        <time>2026-03-19T07:41:00Z</time>
      </trkpt>
      <trkpt lat="48.20743" lon="7.30442">
        <ele>608.3</ele>
        <time>2026-03-19T07:41:05Z</time>
      </trkpt>
      <trkpt lat="48.20738" lon="7.30444">
        <ele>608.7</ele>
        <time>2026-03-19T07:41:10Z</time>
      </trkpt>
      <trkpt lat="48.20735" lon="7.30447">
        <ele>609.5</ele>
        <time>2026-03-19T07:41:15Z</time>
      </trkpt>
      <trkpt lat="48.20732" lon="7.3045">
        <ele>610.3</ele>
        <time>2026-03-19T07:41:20Z</time>
      </trkpt>
      <trkpt lat="48.2073" lon="7.3045">
        <ele>610.2</ele>
        <time>2026-03-19T07:41:25Z</time>
      </trkpt>
      <trkpt lat="48.20726" lon="7.30452">
        <ele>610.6</ele>
        <time>2026-03-19T07:41:30Z</time>
      </trkpt>
      <trkpt lat="48.20724" lon="7.30452">
        <ele>610.6</ele>
        <time>2026-03-19T07:41:35Z</time>
      </trkpt>
      <trkpt lat="48.20721" lon="7.30453">
        <ele>610.8</ele>
        <time>2026-03-19T07:41:40Z</time>
      </trkpt>
      <trkpt lat="48.20718" lon="7.30455">
        <ele>611.3</ele>
        <time>2026-03-19T07:41:45Z</time>
      </trkpt>
      <trkpt lat="48.20715" lon="7.30458">
        <ele>612.1</ele>
        <time>2026-03-19T07:41:50Z</time>
      </trkpt>
      <trkpt lat="48.20714" lon="7.30459">
        <ele>612.4</ele>
        <time>2026-03-19T07:41:55Z</time>
      </trkpt>
      <trkpt lat="48.20714" lon="7.30459">
        <ele>612.4</ele>
        <time>2026-03-19T07:42:00Z</time>
      </trkpt>
      <trkpt lat="48.20704" lon="7.30459">
        <ele>612.1</ele>
        <time>2026-03-19T07:42:05Z</time>
      </trkpt>
      <trkpt lat="48.20701" lon="7.30459">
        <ele>612</ele>
        <time>2026-03-19T07:42:10Z</time>
      </trkpt>
      <trkpt lat="48.20697" lon="7.30461">
        <ele>612.5</ele>
        <time>2026-03-19T07:42:15Z</time>
      </trkpt>
      <trkpt lat="48.20693" lon="7.30463">
        <ele>613</ele>
        <time>2026-03-19T07:42:20Z</time>
      </trkpt>
      <trkpt lat="48.20689" lon="7.30464">
        <ele>613.2</ele>
        <time>2026-03-19T07:42:25Z</time>
      </trkpt>
      <trkpt lat="48.20685" lon="7.30465">
        <ele>613.4</ele>
        <time>2026-03-19T07:42:30Z</time>
      </trkpt>
      <trkpt lat="48.20681" lon="7.30465">
        <ele>613.3</ele>
        <time>2026-03-19T07:42:35Z</time>
      </trkpt>
      <trkpt lat="48.20677" lon="7.30465">
        <ele>613.2</ele>
        <time>2026-03-19T07:42:40Z</time>
      </trkpt>
      <trkpt lat="48.20673" lon="7.30467">
        <ele>613.7</ele>
        <time>2026-03-19T07:42:45Z</time>
      </trkpt>
      <trkpt lat="48.20668" lon="7.30468">
        <ele>613.9</ele>
        <time>2026-03-19T07:42:50Z</time>
      </trkpt>
      <trkpt lat="48.20665" lon="7.30467">
        <ele>613.1</ele>
        <time>2026-03-19T07:42:55Z</time>
      </trkpt>
      <trkpt lat="48.20661" lon="7.30468">
        <ele>612.4</ele>
        <time>2026-03-19T07:43:00Z</time>
      </trkpt>
      <trkpt lat="48.20657" lon="7.30468">
        <ele>611.4</ele>
        <time>2026-03-19T07:43:05Z</time>
      </trkpt>
      <trkpt lat="48.20652" lon="7.30469">
        <ele>610.5</ele>
        <time>2026-03-19T07:43:10Z</time>
      </trkpt>
      <trkpt lat="48.20647" lon="7.30471">
        <ele>609.9</ele>
        <time>2026-03-19T07:43:15Z</time>
      </trkpt>
      <trkpt lat="48.20643" lon="7.30474">
        <ele>609.9</ele>
        <time>2026-03-19T07:43:20Z</time>
      </trkpt>
      <trkpt lat="48.20639" lon="7.30476">
        <ele>609.5</ele>
        <time>2026-03-19T07:43:25Z</time>
      </trkpt>
      <trkpt lat="48.20635" lon="7.30476">
        <ele>608.5</ele>
        <time>2026-03-19T07:43:30Z</time>
      </trkpt>
      <trkpt lat="48.20631" lon="7.30481">
        <ele>609</ele>
        <time>2026-03-19T07:43:35Z</time>
      </trkpt>
      <trkpt lat="48.20626" lon="7.30482">
        <ele>608</ele>
        <time>2026-03-19T07:43:40Z</time>
      </trkpt>
      <trkpt lat="48.20622" lon="7.30484">
        <ele>607.6</ele>
        <time>2026-03-19T07:43:45Z</time>
      </trkpt>
      <trkpt lat="48.20617" lon="7.30485">
        <ele>606.6</ele>
        <time>2026-03-19T07:43:50Z</time>
      </trkpt>
      <trkpt lat="48.20614" lon="7.30486">
        <ele>606.1</ele>
        <time>2026-03-19T07:43:55Z</time>
      </trkpt>
      <trkpt lat="48.2061" lon="7.30487">
        <ele>605.4</ele>
        <time>2026-03-19T07:44:00Z</time>
      </trkpt>
      <trkpt lat="48.20604" lon="7.30489">
        <ele>604.4</ele>
        <time>2026-03-19T07:44:05Z</time>
      </trkpt>
      <trkpt lat="48.20599" lon="7.30492">
        <ele>603.9</ele>
        <time>2026-03-19T07:44:10Z</time>
      </trkpt>
      <trkpt lat="48.20594" lon="7.30496">
        <ele>603.8</ele>
        <time>2026-03-19T07:44:15Z</time>
      </trkpt>
      <trkpt lat="48.20588" lon="7.30501">
        <ele>603.3</ele>
        <time>2026-03-19T07:44:20Z</time>
      </trkpt>
      <trkpt lat="48.20585" lon="7.30505">
        <ele>602.5</ele>
        <time>2026-03-19T07:44:25Z</time>
      </trkpt>
      <trkpt lat="48.20582" lon="7.30511">
        <ele>601.4</ele>
        <time>2026-03-19T07:44:30Z</time>
      </trkpt>
      <trkpt lat="48.20578" lon="7.30515">
        <ele>599.4</ele>
        <time>2026-03-19T07:44:35Z</time>
      </trkpt>
      <trkpt lat="48.20576" lon="7.30519">
        <ele>598.4</ele>
        <time>2026-03-19T07:44:40Z</time>
      </trkpt>
      <trkpt lat="48.20573" lon="7.30525">
        <ele>596.9</ele>
        <time>2026-03-19T07:44:45Z</time>
      </trkpt>
      <trkpt lat="48.20571" lon="7.3053">
        <ele>595.8</ele>
        <time>2026-03-19T07:44:50Z</time>
      </trkpt>
      <trkpt lat="48.20571" lon="7.30535">
        <ele>595.8</ele>
        <time>2026-03-19T07:44:55Z</time>
      </trkpt>
      <trkpt lat="48.20571" lon="7.30535">
        <ele>595.8</ele>
        <time>2026-03-19T07:45:00Z</time>
      </trkpt>
      <trkpt lat="48.20571" lon="7.30535">
        <ele>595.8</ele>
        <time>2026-03-19T07:45:05Z</time>
      </trkpt>
      <trkpt lat="48.20571" lon="7.30535">
        <ele>595.8</ele>
        <time>2026-03-19T07:45:10Z</time>
      </trkpt>
      <trkpt lat="48.20571" lon="7.30535">
        <ele>595.8</ele>
        <time>2026-03-19T07:45:15Z</time>
      </trkpt>
      <trkpt lat="48.20571" lon="7.30535">
        <ele>595.8</ele>
        <time>2026-03-19T07:45:20Z</time>
      </trkpt>
      <trkpt lat="48.20571" lon="7.30535">
        <ele>595.8</ele>
        <time>2026-03-19T07:45:25Z</time>
      </trkpt>
      <trkpt lat="48.20571" lon="7.30535">
        <ele>595.8</ele>
        <time>2026-03-19T07:45:30Z</time>
      </trkpt>
      <trkpt lat="48.20571" lon="7.30535">
        <ele>595.8</ele>
        <time>2026-03-19T07:45:35Z</time>
      </trkpt>
      <trkpt lat="48.20571" lon="7.30535">
        <ele>595.8</ele>
        <time>2026-03-19T07:45:40Z</time>
      </trkpt>
      <trkpt lat="48.20565" lon="7.30545">
        <ele>592.6</ele>
        <time>2026-03-19T07:45:45Z</time>
      </trkpt>
      <trkpt lat="48.20563" lon="7.30551">
        <ele>591.5</ele>
        <time>2026-03-19T07:45:50Z</time>
      </trkpt>
      <trkpt lat="48.20561" lon="7.30557">
        <ele>590.3</ele>
        <time>2026-03-19T07:45:55Z</time>
      </trkpt>
      <trkpt lat="48.2056" lon="7.30564">
        <ele>589.7</ele>
        <time>2026-03-19T07:46:00Z</time>
      </trkpt>
      <trkpt lat="48.2056" lon="7.30568">
        <ele>589.7</ele>
        <time>2026-03-19T07:46:05Z</time>
      </trkpt>
      <trkpt lat="48.2056" lon="7.30571">
        <ele>589.7</ele>
        <time>2026-03-19T07:46:10Z</time>
      </trkpt>
      <trkpt lat="48.2056" lon="7.30571">
        <ele>589.7</ele>
        <time>2026-03-19T07:46:15Z</time>
      </trkpt>
      <trkpt lat="48.2056" lon="7.30571">
        <ele>589.7</ele>
        <time>2026-03-19T07:46:20Z</time>
      </trkpt>
      <trkpt lat="48.2056" lon="7.30571">
        <ele>589.7</ele>
        <time>2026-03-19T07:46:25Z</time>
      </trkpt>
      <trkpt lat="48.20566" lon="7.30571">
        <ele>593.1</ele>
        <time>2026-03-19T07:46:30Z</time>
      </trkpt>
      <trkpt lat="48.20568" lon="7.3057">
        <ele>594.2</ele>
        <time>2026-03-19T07:46:35Z</time>
      </trkpt>
      <trkpt lat="48.20569" lon="7.30571">
        <ele>594.7</ele>
        <time>2026-03-19T07:46:40Z</time>
      </trkpt>
      <trkpt lat="48.20569" lon="7.30571">
        <ele>594.7</ele>
        <time>2026-03-19T07:46:45Z</time>
      </trkpt>
      <trkpt lat="48.20569" lon="7.30571">
        <ele>594.7</ele>
        <time>2026-03-19T07:46:50Z</time>
      </trkpt>
      <trkpt lat="48.20569" lon="7.30571">
        <ele>594.7</ele>
        <time>2026-03-19T07:46:55Z</time>
      </trkpt>
      <trkpt lat="48.20569" lon="7.30571">
        <ele>594.7</ele>
        <time>2026-03-19T07:47:00Z</time>
      </trkpt>
      <trkpt lat="48.20569" lon="7.30571">
        <ele>594.7</ele>
        <time>2026-03-19T07:47:05Z</time>
      </trkpt>
      <trkpt lat="48.20569" lon="7.30571">
        <ele>594.7</ele>
        <time>2026-03-19T07:47:10Z</time>
      </trkpt>
      <trkpt lat="48.2056" lon="7.30565">
        <ele>589.7</ele>
        <time>2026-03-19T07:47:15Z</time>
      </trkpt>
      <trkpt lat="48.2056" lon="7.30565">
        <ele>589.7</ele>
        <time>2026-03-19T07:47:20Z</time>
      </trkpt>
      <trkpt lat="48.20556" lon="7.30566">
        <ele>587.5</ele>
        <time>2026-03-19T07:47:25Z</time>
      </trkpt>
      <trkpt lat="48.20553" lon="7.30567">
        <ele>585.8</ele>
        <time>2026-03-19T07:47:30Z</time>
      </trkpt>
      <trkpt lat="48.20552" lon="7.30568">
        <ele>585.2</ele>
        <time>2026-03-19T07:47:35Z</time>
      </trkpt>
      <trkpt lat="48.20552" lon="7.30568">
        <ele>585.2</ele>
        <time>2026-03-19T07:47:40Z</time>
      </trkpt>
      <trkpt lat="48.20547" lon="7.30566">
        <ele>582.4</ele>
        <time>2026-03-19T07:47:45Z</time>
      </trkpt>
      <trkpt lat="48.20544" lon="7.30565">
        <ele>580.7</ele>
        <time>2026-03-19T07:47:50Z</time>
      </trkpt>
      <trkpt lat="48.20539" lon="7.30566">
        <ele>577.9</ele>
        <time>2026-03-19T07:47:55Z</time>
      </trkpt>
      <trkpt lat="48.20538" lon="7.30569">
        <ele>577.3</ele>
        <time>2026-03-19T07:48:00Z</time>
      </trkpt>
      <trkpt lat="48.20537" lon="7.30572">
        <ele>576.6</ele>
        <time>2026-03-19T07:48:05Z</time>
      </trkpt>
      <trkpt lat="48.20536" lon="7.30574">
        <ele>576</ele>
        <time>2026-03-19T07:48:10Z</time>
      </trkpt>
      <trkpt lat="48.20536" lon="7.30574">
        <ele>576</ele>
        <time>2026-03-19T07:48:15Z</time>
      </trkpt>
      <trkpt lat="48.20536" lon="7.30586">
        <ele>575.6</ele>
        <time>2026-03-19T07:48:20Z</time>
      </trkpt>
      <trkpt lat="48.20539" lon="7.30594">
        <ele>576.9</ele>
        <time>2026-03-19T07:48:25Z</time>
      </trkpt>
      <trkpt lat="48.2054" lon="7.306">
        <ele>577.2</ele>
        <time>2026-03-19T07:48:30Z</time>
      </trkpt>
      <trkpt lat="48.20539" lon="7.30605">
        <ele>576.4</ele>
        <time>2026-03-19T07:48:35Z</time>
      </trkpt>
      <trkpt lat="48.20537" lon="7.30609">
        <ele>575.1</ele>
        <time>2026-03-19T07:48:40Z</time>
      </trkpt>
      <trkpt lat="48.20535" lon="7.30609">
        <ele>574</ele>
        <time>2026-03-19T07:48:45Z</time>
      </trkpt>
      <trkpt lat="48.20535" lon="7.30609">
        <ele>574</ele>
        <time>2026-03-19T07:48:50Z</time>
      </trkpt>
      <trkpt lat="48.20535" lon="7.30609">
        <ele>574</ele>
        <time>2026-03-19T07:48:55Z</time>
      </trkpt>
      <trkpt lat="48.20535" lon="7.30609">
        <ele>574</ele>
        <time>2026-03-19T07:49:00Z</time>
      </trkpt>
      <trkpt lat="48.20535" lon="7.30609">
        <ele>574</ele>
        <time>2026-03-19T07:49:05Z</time>
      </trkpt>
      <trkpt lat="48.20535" lon="7.30609">
        <ele>574</ele>
        <time>2026-03-19T07:49:10Z</time>
      </trkpt>
      <trkpt lat="48.20535" lon="7.30609">
        <ele>574</ele>
        <time>2026-03-19T07:49:15Z</time>
      </trkpt>
      <trkpt lat="48.20535" lon="7.30609">
        <ele>574</ele>
        <time>2026-03-19T07:49:20Z</time>
      </trkpt>
      <trkpt lat="48.20535" lon="7.30609">
        <ele>574</ele>
        <time>2026-03-19T07:49:25Z</time>
      </trkpt>
      <trkpt lat="48.20535" lon="7.30609">
        <ele>574</ele>
        <time>2026-03-19T07:49:30Z</time>
      </trkpt>
      <trkpt lat="48.20535" lon="7.30609">
        <ele>574</ele>
        <time>2026-03-19T07:49:35Z</time>
      </trkpt>
      <trkpt lat="48.20535" lon="7.30609">
        <ele>574</ele>
        <time>2026-03-19T07:49:40Z</time>
      </trkpt>
      <trkpt lat="48.20535" lon="7.30609">
        <ele>574</ele>
        <time>2026-03-19T07:49:45Z</time>
      </trkpt>
      <trkpt lat="48.20532" lon="7.30627">
        <ele>571.6</ele>
        <time>2026-03-19T07:49:50Z</time>
      </trkpt>
      <trkpt lat="48.20528" lon="7.30628">
        <ele>569.5</ele>
        <time>2026-03-19T07:49:55Z</time>
      </trkpt>
      <trkpt lat="48.20521" lon="7.30627">
        <ele>565.9</ele>
        <time>2026-03-19T07:50:00Z</time>
      </trkpt>
      <trkpt lat="48.20521" lon="7.3062">
        <ele>566.1</ele>
        <time>2026-03-19T07:50:05Z</time>
      </trkpt>
      <trkpt lat="48.20522" lon="7.30612">
        <ele>566.9</ele>
        <time>2026-03-19T07:50:10Z</time>
      </trkpt>
      <trkpt lat="48.20524" lon="7.30607">
        <ele>568.1</ele>
        <time>2026-03-19T07:50:15Z</time>
      </trkpt>
      <trkpt lat="48.20522" lon="7.30601">
        <ele>567.2</ele>
        <time>2026-03-19T07:50:20Z</time>
      </trkpt>
      <trkpt lat="48.20519" lon="7.30596">
        <ele>565.6</ele>
        <time>2026-03-19T07:50:25Z</time>
      </trkpt>
      <trkpt lat="48.20516" lon="7.30592">
        <ele>564</ele>
        <time>2026-03-19T07:50:30Z</time>
      </trkpt>
      <trkpt lat="48.20512" lon="7.30588">
        <ele>561.8</ele>
        <time>2026-03-19T07:50:35Z</time>
      </trkpt>
      <trkpt lat="48.2051" lon="7.30586">
        <ele>560.7</ele>
        <time>2026-03-19T07:50:40Z</time>
      </trkpt>
      <trkpt lat="48.20506" lon="7.30584">
        <ele>558.5</ele>
        <time>2026-03-19T07:50:45Z</time>
      </trkpt>
      <trkpt lat="48.20502" lon="7.30581">
        <ele>556.3</ele>
        <time>2026-03-19T07:50:50Z</time>
      </trkpt>
      <trkpt lat="48.20497" lon="7.30578">
        <ele>553.9</ele>
        <time>2026-03-19T07:50:55Z</time>
      </trkpt>
      <trkpt lat="48.20495" lon="7.30571">
        <ele>553.4</ele>
        <time>2026-03-19T07:51:00Z</time>
      </trkpt>
      <trkpt lat="48.20494" lon="7.30571">
        <ele>552.9</ele>
        <time>2026-03-19T07:51:05Z</time>
      </trkpt>
      <trkpt lat="48.20494" lon="7.30571">
        <ele>552.9</ele>
        <time>2026-03-19T07:51:10Z</time>
      </trkpt>
      <trkpt lat="48.20494" lon="7.30571">
        <ele>552.9</ele>
        <time>2026-03-19T07:51:15Z</time>
      </trkpt>
      <trkpt lat="48.20494" lon="7.30571">
        <ele>552.9</ele>
        <time>2026-03-19T07:51:20Z</time>
      </trkpt>
      <trkpt lat="48.20494" lon="7.30571">
        <ele>552.9</ele>
        <time>2026-03-19T07:51:25Z</time>
      </trkpt>
      <trkpt lat="48.20494" lon="7.30571">
        <ele>552.9</ele>
        <time>2026-03-19T07:51:30Z</time>
      </trkpt>
      <trkpt lat="48.20494" lon="7.30571">
        <ele>552.9</ele>
        <time>2026-03-19T07:51:35Z</time>
      </trkpt>
      <trkpt lat="48.20494" lon="7.30571">
        <ele>552.9</ele>
        <time>2026-03-19T07:51:40Z</time>
      </trkpt>
      <trkpt lat="48.20494" lon="7.30571">
        <ele>552.9</ele>
        <time>2026-03-19T07:51:45Z</time>
      </trkpt>
      <trkpt lat="48.20494" lon="7.30571">
        <ele>552.9</ele>
        <time>2026-03-19T07:51:50Z</time>
      </trkpt>
      <trkpt lat="48.20494" lon="7.30571">
        <ele>552.9</ele>
        <time>2026-03-19T07:51:55Z</time>
      </trkpt>
      <trkpt lat="48.20493" lon="7.30567">
        <ele>552.7</ele>
        <time>2026-03-19T07:52:00Z</time>
      </trkpt>
      <trkpt lat="48.2049" lon="7.30565">
        <ele>551.4</ele>
        <time>2026-03-19T07:52:05Z</time>
      </trkpt>
      <trkpt lat="48.20488" lon="7.30564">
        <ele>550.6</ele>
        <time>2026-03-19T07:52:10Z</time>
      </trkpt>
      <trkpt lat="48.20486" lon="7.30565">
        <ele>549.6</ele>
        <time>2026-03-19T07:52:15Z</time>
      </trkpt>
      <trkpt lat="48.20485" lon="7.30568">
        <ele>548.9</ele>
        <time>2026-03-19T07:52:20Z</time>
      </trkpt>
      <trkpt lat="48.20485" lon="7.30568">
        <ele>548.9</ele>
        <time>2026-03-19T07:52:25Z</time>
      </trkpt>
      <trkpt lat="48.20485" lon="7.30568">
        <ele>548.9</ele>
        <time>2026-03-19T07:52:30Z</time>
      </trkpt>
      <trkpt lat="48.20485" lon="7.30568">
        <ele>548.9</ele>
        <time>2026-03-19T07:52:35Z</time>
      </trkpt>
      <trkpt lat="48.20485" lon="7.30568">
        <ele>548.9</ele>
        <time>2026-03-19T07:52:40Z</time>
      </trkpt>
      <trkpt lat="48.20488" lon="7.3058">
        <ele>549.5</ele>
        <time>2026-03-19T07:52:45Z</time>
      </trkpt>
      <trkpt lat="48.20492" lon="7.30586">
        <ele>551.1</ele>
        <time>2026-03-19T07:52:50Z</time>
      </trkpt>
      <trkpt lat="48.20494" lon="7.3059">
        <ele>552.1</ele>
        <time>2026-03-19T07:52:55Z</time>
      </trkpt>
      <trkpt lat="48.20497" lon="7.30595">
        <ele>553.5</ele>
        <time>2026-03-19T07:53:00Z</time>
      </trkpt>
      <trkpt lat="48.20499" lon="7.30598">
        <ele>554.5</ele>
        <time>2026-03-19T07:53:05Z</time>
      </trkpt>
      <trkpt lat="48.205" lon="7.30603">
        <ele>555</ele>
        <time>2026-03-19T07:53:10Z</time>
      </trkpt>
      <trkpt lat="48.20501" lon="7.3061">
        <ele>555.5</ele>
        <time>2026-03-19T07:53:15Z</time>
      </trkpt>
      <trkpt lat="48.20501" lon="7.30614">
        <ele>555.5</ele>
        <time>2026-03-19T07:53:20Z</time>
      </trkpt>
      <trkpt lat="48.20499" lon="7.30614">
        <ele>554.5</ele>
        <time>2026-03-19T07:53:25Z</time>
      </trkpt>
      <trkpt lat="48.20496" lon="7.30608">
        <ele>553</ele>
        <time>2026-03-19T07:53:30Z</time>
      </trkpt>
      <trkpt lat="48.20493" lon="7.30603">
        <ele>551.5</ele>
        <time>2026-03-19T07:53:35Z</time>
      </trkpt>
      <trkpt lat="48.20488" lon="7.30601">
        <ele>549</ele>
        <time>2026-03-19T07:53:40Z</time>
      </trkpt>
      <trkpt lat="48.20486" lon="7.30599">
        <ele>548</ele>
        <time>2026-03-19T07:53:45Z</time>
      </trkpt>
      <trkpt lat="48.20484" lon="7.30595">
        <ele>547.1</ele>
        <time>2026-03-19T07:53:50Z</time>
      </trkpt>
      <trkpt lat="48.20481" lon="7.30592">
        <ele>545.7</ele>
        <time>2026-03-19T07:53:55Z</time>
      </trkpt>
      <trkpt lat="48.20481" lon="7.30592">
        <ele>545.7</ele>
        <time>2026-03-19T07:54:00Z</time>
      </trkpt>
      <trkpt lat="48.20477" lon="7.30586">
        <ele>543.9</ele>
        <time>2026-03-19T07:54:05Z</time>
      </trkpt>
      <trkpt lat="48.20476" lon="7.30586">
        <ele>543.4</ele>
        <time>2026-03-19T07:54:10Z</time>
      </trkpt>
      <trkpt lat="48.20476" lon="7.30586">
        <ele>543.4</ele>
        <time>2026-03-19T07:54:15Z</time>
      </trkpt>
      <trkpt lat="48.20476" lon="7.30586">
        <ele>543.4</ele>
        <time>2026-03-19T07:54:20Z</time>
      </trkpt>
      <trkpt lat="48.20476" lon="7.30586">
        <ele>543.4</ele>
        <time>2026-03-19T07:54:25Z</time>
      </trkpt>
      <trkpt lat="48.20467" lon="7.30577">
        <ele>539.7</ele>
        <time>2026-03-19T07:54:30Z</time>
      </trkpt>
      <trkpt lat="48.20465" lon="7.30573">
        <ele>539.1</ele>
        <time>2026-03-19T07:54:35Z</time>
      </trkpt>
      <trkpt lat="48.20463" lon="7.30568">
        <ele>538.6</ele>
        <time>2026-03-19T07:54:40Z</time>
      </trkpt>
      <trkpt lat="48.2046" lon="7.30562">
        <ele>537.7</ele>
        <time>2026-03-19T07:54:45Z</time>
      </trkpt>
      <trkpt lat="48.20458" lon="7.30556">
        <ele>537.3</ele>
        <time>2026-03-19T07:54:50Z</time>
      </trkpt>
      <trkpt lat="48.20457" lon="7.3055">
        <ele>537.4</ele>
        <time>2026-03-19T07:54:55Z</time>
      </trkpt>
      <trkpt lat="48.20453" lon="7.30545">
        <ele>536</ele>
        <time>2026-03-19T07:55:00Z</time>
      </trkpt>
      <trkpt lat="48.20454" lon="7.30539">
        <ele>537</ele>
        <time>2026-03-19T07:55:05Z</time>
      </trkpt>
      <trkpt lat="48.20453" lon="7.30535">
        <ele>537</ele>
        <time>2026-03-19T07:55:10Z</time>
      </trkpt>
      <trkpt lat="48.20453" lon="7.30534">
        <ele>537.1</ele>
        <time>2026-03-19T07:55:15Z</time>
      </trkpt>
      <trkpt lat="48.20449" lon="7.3053">
        <ele>535.7</ele>
        <time>2026-03-19T07:55:20Z</time>
      </trkpt>
      <trkpt lat="48.20448" lon="7.3053">
        <ele>535.2</ele>
        <time>2026-03-19T07:55:25Z</time>
      </trkpt>
      <trkpt lat="48.20443" lon="7.30538">
        <ele>532.2</ele>
        <time>2026-03-19T07:55:30Z</time>
      </trkpt>
      <trkpt lat="48.20442" lon="7.30544">
        <ele>531.2</ele>
        <time>2026-03-19T07:55:35Z</time>
      </trkpt>
      <trkpt lat="48.20441" lon="7.30551">
        <ele>530</ele>
        <time>2026-03-19T07:55:40Z</time>
      </trkpt>
      <trkpt lat="48.2044" lon="7.30556">
        <ele>529</ele>
        <time>2026-03-19T07:55:45Z</time>
      </trkpt>
      <trkpt lat="48.20441" lon="7.30561">
        <ele>529</ele>
        <time>2026-03-19T07:55:50Z</time>
      </trkpt>
      <trkpt lat="48.20442" lon="7.3057">
        <ele>528.5</ele>
        <time>2026-03-19T07:55:55Z</time>
      </trkpt>
      <trkpt lat="48.20445" lon="7.30576">
        <ele>529.3</ele>
        <time>2026-03-19T07:56:00Z</time>
      </trkpt>
      <trkpt lat="48.20447" lon="7.30583">
        <ele>529.6</ele>
        <time>2026-03-19T07:56:05Z</time>
      </trkpt>
      <trkpt lat="48.2045" lon="7.30591">
        <ele>530.6</ele>
        <time>2026-03-19T07:56:10Z</time>
      </trkpt>
      <trkpt lat="48.2045" lon="7.30594">
        <ele>530.4</ele>
        <time>2026-03-19T07:56:15Z</time>
      </trkpt>
      <trkpt lat="48.20451" lon="7.30599">
        <ele>530.6</ele>
        <time>2026-03-19T07:56:20Z</time>
      </trkpt>
      <trkpt lat="48.20451" lon="7.30605">
        <ele>530.3</ele>
        <time>2026-03-19T07:56:25Z</time>
      </trkpt>
      <trkpt lat="48.20451" lon="7.30605">
        <ele>530.3</ele>
        <time>2026-03-19T07:56:30Z</time>
      </trkpt>
      <trkpt lat="48.20451" lon="7.30612">
        <ele>529.9</ele>
        <time>2026-03-19T07:56:35Z</time>
      </trkpt>
      <trkpt lat="48.20454" lon="7.30615">
        <ele>531.2</ele>
        <time>2026-03-19T07:56:40Z</time>
      </trkpt>
      <trkpt lat="48.20455" lon="7.30617">
        <ele>531.7</ele>
        <time>2026-03-19T07:56:45Z</time>
      </trkpt>
      <trkpt lat="48.20456" lon="7.30623">
        <ele>531.9</ele>
        <time>2026-03-19T07:56:50Z</time>
      </trkpt>
      <trkpt lat="48.20456" lon="7.30625">
        <ele>531.8</ele>
        <time>2026-03-19T07:56:55Z</time>
      </trkpt>
      <trkpt lat="48.20452" lon="7.30629">
        <ele>529.4</ele>
        <time>2026-03-19T07:57:00Z</time>
      </trkpt>
      <trkpt lat="48.20451" lon="7.3063">
        <ele>528.8</ele>
        <time>2026-03-19T07:57:05Z</time>
      </trkpt>
      <trkpt lat="48.20451" lon="7.30618">
        <ele>529.5</ele>
        <time>2026-03-19T07:57:10Z</time>
      </trkpt>
      <trkpt lat="48.2045" lon="7.30614">
        <ele>529.2</ele>
        <time>2026-03-19T07:57:15Z</time>
      </trkpt>
      <trkpt lat="48.20447" lon="7.3061">
        <ele>527.9</ele>
        <time>2026-03-19T07:57:20Z</time>
      </trkpt>
      <trkpt lat="48.20445" lon="7.3061">
        <ele>526.9</ele>
        <time>2026-03-19T07:57:25Z</time>
      </trkpt>
      <trkpt lat="48.2044" lon="7.30604">
        <ele>524.8</ele>
        <time>2026-03-19T07:57:30Z</time>
      </trkpt>
      <trkpt lat="48.20438" lon="7.30601">
        <ele>524</ele>
        <time>2026-03-19T07:57:35Z</time>
      </trkpt>
      <trkpt lat="48.20436" lon="7.30597">
        <ele>523.3</ele>
        <time>2026-03-19T07:57:40Z</time>
      </trkpt>
      <trkpt lat="48.20434" lon="7.30595">
        <ele>522.4</ele>
        <time>2026-03-19T07:57:45Z</time>
      </trkpt>
      <trkpt lat="48.20434" lon="7.30594">
        <ele>522.5</ele>
        <time>2026-03-19T07:57:50Z</time>
      </trkpt>
      <trkpt lat="48.20434" lon="7.30594">
        <ele>522.5</ele>
        <time>2026-03-19T07:57:55Z</time>
      </trkpt>
      <trkpt lat="48.20428" lon="7.30599">
        <ele>519.1</ele>
        <time>2026-03-19T07:58:00Z</time>
      </trkpt>
      <trkpt lat="48.20429" lon="7.30609">
        <ele>518.8</ele>
        <time>2026-03-19T07:58:05Z</time>
      </trkpt>
      <trkpt lat="48.20429" lon="7.30612">
        <ele>518.6</ele>
        <time>2026-03-19T07:58:10Z</time>
      </trkpt>
      <trkpt lat="48.20428" lon="7.30613">
        <ele>518</ele>
        <time>2026-03-19T07:58:15Z</time>
      </trkpt>
      <trkpt lat="48.20425" lon="7.30607">
        <ele>517</ele>
        <time>2026-03-19T07:58:20Z</time>
      </trkpt>
      <trkpt lat="48.20424" lon="7.306">
        <ele>517.1</ele>
        <time>2026-03-19T07:58:25Z</time>
      </trkpt>
      <trkpt lat="48.20421" lon="7.30596">
        <ele>515.9</ele>
        <time>2026-03-19T07:58:30Z</time>
      </trkpt>
      <trkpt lat="48.20421" lon="7.30594">
        <ele>516.1</ele>
        <time>2026-03-19T07:58:35Z</time>
      </trkpt>
      <trkpt lat="48.20421" lon="7.30594">
        <ele>516.1</ele>
        <time>2026-03-19T07:58:40Z</time>
      </trkpt>
      <trkpt lat="48.20421" lon="7.30594">
        <ele>516.1</ele>
        <time>2026-03-19T07:58:45Z</time>
      </trkpt>
      <trkpt lat="48.20421" lon="7.30594">
        <ele>516.1</ele>
        <time>2026-03-19T07:58:50Z</time>
      </trkpt>
      <trkpt lat="48.20421" lon="7.30594">
        <ele>516.1</ele>
        <time>2026-03-19T07:58:55Z</time>
      </trkpt>
      <trkpt lat="48.2041" lon="7.3059">
        <ele>511.1</ele>
        <time>2026-03-19T07:59:00Z</time>
      </trkpt>
      <trkpt lat="48.20407" lon="7.30587">
        <ele>510</ele>
        <time>2026-03-19T07:59:05Z</time>
      </trkpt>
      <trkpt lat="48.20404" lon="7.30581">
        <ele>509.2</ele>
        <time>2026-03-19T07:59:10Z</time>
      </trkpt>
      <trkpt lat="48.20403" lon="7.30574">
        <ele>509.7</ele>
        <time>2026-03-19T07:59:15Z</time>
      </trkpt>
      <trkpt lat="48.20403" lon="7.30568">
        <ele>510.5</ele>
        <time>2026-03-19T07:59:20Z</time>
      </trkpt>
      <trkpt lat="48.20401" lon="7.30563">
        <ele>510.3</ele>
        <time>2026-03-19T07:59:25Z</time>
      </trkpt>
      <trkpt lat="48.204" lon="7.3056">
        <ele>510.2</ele>
        <time>2026-03-19T07:59:30Z</time>
      </trkpt>
      <trkpt lat="48.20396" lon="7.30557">
        <ele>508.9</ele>
        <time>2026-03-19T07:59:35Z</time>
      </trkpt>
      <trkpt lat="48.20395" lon="7.30555">
        <ele>508.7</ele>
        <time>2026-03-19T07:59:40Z</time>
      </trkpt>
      <trkpt lat="48.20395" lon="7.30555">
        <ele>508.7</ele>
        <time>2026-03-19T07:59:45Z</time>
      </trkpt>
      <trkpt lat="48.20395" lon="7.30555">
        <ele>508.7</ele>
        <time>2026-03-19T07:59:50Z</time>
      </trkpt>
      <trkpt lat="48.20395" lon="7.30555">
        <ele>508.7</ele>
        <time>2026-03-19T07:59:55Z</time>
      </trkpt>
      <trkpt lat="48.20395" lon="7.30555">
        <ele>508.7</ele>
        <time>2026-03-19T08:00:00Z</time>
      </trkpt>
      <trkpt lat="48.20395" lon="7.30555">
        <ele>508.7</ele>
        <time>2026-03-19T08:00:05Z</time>
      </trkpt>
      <trkpt lat="48.20385" lon="7.3056">
        <ele>503.5</ele>
        <time>2026-03-19T08:00:10Z</time>
      </trkpt>
      <trkpt lat="48.20382" lon="7.30557">
        <ele>502.6</ele>
        <time>2026-03-19T08:00:15Z</time>
      </trkpt>
      <trkpt lat="48.20377" lon="7.30555">
        <ele>500.7</ele>
        <time>2026-03-19T08:00:20Z</time>
      </trkpt>
      <trkpt lat="48.20372" lon="7.30552">
        <ele>498.9</ele>
        <time>2026-03-19T08:00:25Z</time>
      </trkpt>
      <trkpt lat="48.20368" lon="7.30548">
        <ele>497.9</ele>
        <time>2026-03-19T08:00:30Z</time>
      </trkpt>
      <trkpt lat="48.20364" lon="7.30544">
        <ele>496.8</ele>
        <time>2026-03-19T08:00:35Z</time>
      </trkpt>
      <trkpt lat="48.20359" lon="7.30542">
        <ele>495</ele>
        <time>2026-03-19T08:00:40Z</time>
      </trkpt>
      <trkpt lat="48.20357" lon="7.30538">
        <ele>494.9</ele>
        <time>2026-03-19T08:00:45Z</time>
      </trkpt>
      <trkpt lat="48.20354" lon="7.30534">
        <ele>494.4</ele>
        <time>2026-03-19T08:00:50Z</time>
      </trkpt>
      <trkpt lat="48.2035" lon="7.30533">
        <ele>492.9</ele>
        <time>2026-03-19T08:00:55Z</time>
      </trkpt>
      <trkpt lat="48.20349" lon="7.3053">
        <ele>493.1</ele>
        <time>2026-03-19T08:01:00Z</time>
      </trkpt>
      <trkpt lat="48.20349" lon="7.3053">
        <ele>493.1</ele>
        <time>2026-03-19T08:01:05Z</time>
      </trkpt>
      <trkpt lat="48.20349" lon="7.3053">
        <ele>493.1</ele>
        <time>2026-03-19T08:01:10Z</time>
      </trkpt>
      <trkpt lat="48.20349" lon="7.3053">
        <ele>493.1</ele>
        <time>2026-03-19T08:01:15Z</time>
      </trkpt>
      <trkpt lat="48.20349" lon="7.30544">
        <ele>490.3</ele>
        <time>2026-03-19T08:01:20Z</time>
      </trkpt>
      <trkpt lat="48.20349" lon="7.3055">
        <ele>489.1</ele>
        <time>2026-03-19T08:01:25Z</time>
      </trkpt>
      <trkpt lat="48.2035" lon="7.30551">
        <ele>489.4</ele>
        <time>2026-03-19T08:01:30Z</time>
      </trkpt>
      <trkpt lat="48.2035" lon="7.3055">
        <ele>489.6</ele>
        <time>2026-03-19T08:01:35Z</time>
      </trkpt>
      <trkpt lat="48.2035" lon="7.3055">
        <ele>489.6</ele>
        <time>2026-03-19T08:01:40Z</time>
      </trkpt>
      <trkpt lat="48.2035" lon="7.3055">
        <ele>489.6</ele>
        <time>2026-03-19T08:01:45Z</time>
      </trkpt>
      <trkpt lat="48.2035" lon="7.3055">
        <ele>489.6</ele>
        <time>2026-03-19T08:01:50Z</time>
      </trkpt>
      <trkpt lat="48.20347" lon="7.30543">
        <ele>489.6</ele>
        <time>2026-03-19T08:01:55Z</time>
      </trkpt>
      <trkpt lat="48.20342" lon="7.30536">
        <ele>488.9</ele>
        <time>2026-03-19T08:02:00Z</time>
      </trkpt>
      <trkpt lat="48.20338" lon="7.3053">
        <ele>488.5</ele>
        <time>2026-03-19T08:02:05Z</time>
      </trkpt>
      <trkpt lat="48.20333" lon="7.30525">
        <ele>487.4</ele>
        <time>2026-03-19T08:02:10Z</time>
      </trkpt>
      <trkpt lat="48.2033" lon="7.3052">
        <ele>487</ele>
        <time>2026-03-19T08:02:15Z</time>
      </trkpt>
      <trkpt lat="48.20327" lon="7.30515">
        <ele>486.5</ele>
        <time>2026-03-19T08:02:20Z</time>
      </trkpt>
      <trkpt lat="48.20326" lon="7.30517">
        <ele>485.6</ele>
        <time>2026-03-19T08:02:25Z</time>
      </trkpt>
      <trkpt lat="48.20328" lon="7.30524">
        <ele>485.1</ele>
        <time>2026-03-19T08:02:30Z</time>
      </trkpt>
      <trkpt lat="48.2033" lon="7.30534">
        <ele>484</ele>
        <time>2026-03-19T08:02:35Z</time>
      </trkpt>
      <trkpt lat="48.20331" lon="7.3054">
        <ele>483.2</ele>
        <time>2026-03-19T08:02:40Z</time>
      </trkpt>
      <trkpt lat="48.2033" lon="7.30543">
        <ele>482.1</ele>
        <time>2026-03-19T08:02:45Z</time>
      </trkpt>
      <trkpt lat="48.20328" lon="7.30546">
        <ele>480.5</ele>
        <time>2026-03-19T08:02:50Z</time>
      </trkpt>
      <trkpt lat="48.20327" lon="7.30549">
        <ele>479.3</ele>
        <time>2026-03-19T08:02:55Z</time>
      </trkpt>
      <trkpt lat="48.20324" lon="7.30546">
        <ele>478.5</ele>
        <time>2026-03-19T08:03:00Z</time>
      </trkpt>
      <trkpt lat="48.20322" lon="7.30543">
        <ele>478.1</ele>
        <time>2026-03-19T08:03:05Z</time>
      </trkpt>
      <trkpt lat="48.20322" lon="7.30543">
        <ele>478.1</ele>
        <time>2026-03-19T08:03:10Z</time>
      </trkpt>
      <trkpt lat="48.20323" lon="7.30549">
        <ele>477.4</ele>
        <time>2026-03-19T08:03:15Z</time>
      </trkpt>
      <trkpt lat="48.20329" lon="7.30557">
        <ele>478.6</ele>
        <time>2026-03-19T08:03:20Z</time>
      </trkpt>
      <trkpt lat="48.20333" lon="7.3056">
        <ele>479.9</ele>
        <time>2026-03-19T08:03:25Z</time>
      </trkpt>
      <trkpt lat="48.20336" lon="7.30563">
        <ele>480.6</ele>
        <time>2026-03-19T08:03:30Z</time>
      </trkpt>
      <trkpt lat="48.20339" lon="7.3057">
        <ele>480.5</ele>
        <time>2026-03-19T08:03:35Z</time>
      </trkpt>
      <trkpt lat="48.20341" lon="7.30577">
        <ele>480</ele>
        <time>2026-03-19T08:03:40Z</time>
      </trkpt>
      <trkpt lat="48.20343" lon="7.30583">
        <ele>479.7</ele>
        <time>2026-03-19T08:03:45Z</time>
      </trkpt>
      <trkpt lat="48.20344" lon="7.30589">
        <ele>478.9</ele>
        <time>2026-03-19T08:03:50Z</time>
      </trkpt>
      <trkpt lat="48.20346" lon="7.30596">
        <ele>478.4</ele>
        <time>2026-03-19T08:03:55Z</time>
      </trkpt>
      <trkpt lat="48.20347" lon="7.30602">
        <ele>477.7</ele>
        <time>2026-03-19T08:04:00Z</time>
      </trkpt>
      <trkpt lat="48.20346" lon="7.30608">
        <ele>476</ele>
        <time>2026-03-19T08:04:05Z</time>
      </trkpt>
      <trkpt lat="48.20346" lon="7.30609">
        <ele>475.7</ele>
        <time>2026-03-19T08:04:10Z</time>
      </trkpt>
      <trkpt lat="48.20351" lon="7.30613">
        <ele>477.5</ele>
        <time>2026-03-19T08:04:15Z</time>
      </trkpt>
      <trkpt lat="48.20351" lon="7.30615">
        <ele>477.1</ele>
        <time>2026-03-19T08:04:20Z</time>
      </trkpt>
      <trkpt lat="48.20353" lon="7.30622">
        <ele>476.8</ele>
        <time>2026-03-19T08:04:25Z</time>
      </trkpt>
      <trkpt lat="48.20355" lon="7.30627">
        <ele>476.9</ele>
        <time>2026-03-19T08:04:30Z</time>
      </trkpt>
      <trkpt lat="48.20353" lon="7.30633">
        <ele>474.7</ele>
        <time>2026-03-19T08:04:35Z</time>
      </trkpt>
      <trkpt lat="48.2035" lon="7.30635">
        <ele>472.6</ele>
        <time>2026-03-19T08:04:40Z</time>
      </trkpt>
      <trkpt lat="48.20347" lon="7.30636">
        <ele>470.7</ele>
        <time>2026-03-19T08:04:45Z</time>
      </trkpt>
      <trkpt lat="48.20344" lon="7.30635">
        <ele>469.2</ele>
        <time>2026-03-19T08:04:50Z</time>
      </trkpt>
      <trkpt lat="48.20343" lon="7.30635">
        <ele>468.7</ele>
        <time>2026-03-19T08:04:55Z</time>
      </trkpt>
      <trkpt lat="48.20347" lon="7.30621">
        <ele>473.8</ele>
        <time>2026-03-19T08:05:00Z</time>
      </trkpt>
      <trkpt lat="48.20346" lon="7.30612">
        <ele>475.1</ele>
        <time>2026-03-19T08:05:05Z</time>
      </trkpt>
      <trkpt lat="48.20345" lon="7.30605">
        <ele>476.1</ele>
        <time>2026-03-19T08:05:10Z</time>
      </trkpt>
      <trkpt lat="48.20345" lon="7.30605">
        <ele>476.1</ele>
        <time>2026-03-19T08:05:15Z</time>
      </trkpt>
      <trkpt lat="48.20345" lon="7.30605">
        <ele>476.1</ele>
        <time>2026-03-19T08:05:20Z</time>
      </trkpt>
      <trkpt lat="48.20345" lon="7.30605">
        <ele>476.1</ele>
        <time>2026-03-19T08:05:25Z</time>
      </trkpt>
      <trkpt lat="48.20345" lon="7.30605">
        <ele>476.1</ele>
        <time>2026-03-19T08:05:30Z</time>
      </trkpt>
      <trkpt lat="48.20345" lon="7.30605">
        <ele>476.1</ele>
        <time>2026-03-19T08:05:35Z</time>
      </trkpt>
      <trkpt lat="48.20339" lon="7.30608">
        <ele>472.3</ele>
        <time>2026-03-19T08:05:40Z</time>
      </trkpt>
      <trkpt lat="48.20336" lon="7.30606">
        <ele>471.2</ele>
        <time>2026-03-19T08:05:45Z</time>
      </trkpt>
      <trkpt lat="48.20332" lon="7.30602">
        <ele>470.1</ele>
        <time>2026-03-19T08:05:50Z</time>
      </trkpt>
      <trkpt lat="48.20327" lon="7.306">
        <ele>468.2</ele>
        <time>2026-03-19T08:05:55Z</time>
      </trkpt>
      <trkpt lat="48.20324" lon="7.30597">
        <ele>467.4</ele>
        <time>2026-03-19T08:06:00Z</time>
      </trkpt>
      <trkpt lat="48.20322" lon="7.30595">
        <ele>467</ele>
        <time>2026-03-19T08:06:05Z</time>
      </trkpt>
      <trkpt lat="48.2032" lon="7.30594">
        <ele>466.2</ele>
        <time>2026-03-19T08:06:10Z</time>
      </trkpt>
      <trkpt lat="48.20316" lon="7.30591">
        <ele>465.1</ele>
        <time>2026-03-19T08:06:15Z</time>
      </trkpt>
      <trkpt lat="48.20313" lon="7.3059">
        <ele>463.9</ele>
        <time>2026-03-19T08:06:20Z</time>
      </trkpt>
      <trkpt lat="48.20312" lon="7.3059">
        <ele>463.4</ele>
        <time>2026-03-19T08:06:25Z</time>
      </trkpt>
      <trkpt lat="48.20312" lon="7.30593">
        <ele>462.7</ele>
        <time>2026-03-19T08:06:30Z</time>
      </trkpt>
      <trkpt lat="48.20312" lon="7.30593">
        <ele>462.7</ele>
        <time>2026-03-19T08:06:35Z</time>
      </trkpt>
      <trkpt lat="48.2031" lon="7.30595">
        <ele>461.3</ele>
        <time>2026-03-19T08:06:40Z</time>
      </trkpt>
      <trkpt lat="48.20305" lon="7.30592">
        <ele>459.6</ele>
        <time>2026-03-19T08:06:45Z</time>
      </trkpt>
      <trkpt lat="48.20302" lon="7.3059">
        <ele>458.7</ele>
        <time>2026-03-19T08:06:50Z</time>
      </trkpt>
      <trkpt lat="48.20299" lon="7.30586">
        <ele>458.3</ele>
        <time>2026-03-19T08:06:55Z</time>
      </trkpt>
      <trkpt lat="48.20295" lon="7.30583">
        <ele>457.1</ele>
        <time>2026-03-19T08:07:00Z</time>
      </trkpt>
      <trkpt lat="48.20289" lon="7.30583">
        <ele>454.3</ele>
        <time>2026-03-19T08:07:05Z</time>
      </trkpt>
      <trkpt lat="48.20287" lon="7.30584">
        <ele>453.1</ele>
        <time>2026-03-19T08:07:10Z</time>
      </trkpt>
      <trkpt lat="48.20287" lon="7.30586">
        <ele>452.6</ele>
        <time>2026-03-19T08:07:15Z</time>
      </trkpt>
      <trkpt lat="48.20287" lon="7.30586">
        <ele>452.6</ele>
        <time>2026-03-19T08:07:20Z</time>
      </trkpt>
      <trkpt lat="48.20287" lon="7.30586">
        <ele>452.6</ele>
        <time>2026-03-19T08:07:25Z</time>
      </trkpt>
      <trkpt lat="48.20284" lon="7.30589">
        <ele>450.5</ele>
        <time>2026-03-19T08:07:30Z</time>
      </trkpt>
      <trkpt lat="48.2028" lon="7.30585">
        <ele>449.6</ele>
        <time>2026-03-19T08:07:35Z</time>
      </trkpt>
      <trkpt lat="48.20274" lon="7.30583">
        <ele>447.3</ele>
        <time>2026-03-19T08:07:40Z</time>
      </trkpt>
      <trkpt lat="48.20273" lon="7.30586">
        <ele>446.1</ele>
        <time>2026-03-19T08:07:45Z</time>
      </trkpt>
      <trkpt lat="48.20273" lon="7.30586">
        <ele>446.1</ele>
        <time>2026-03-19T08:07:50Z</time>
      </trkpt>
      <trkpt lat="48.20273" lon="7.30586">
        <ele>446.1</ele>
        <time>2026-03-19T08:07:55Z</time>
      </trkpt>
      <trkpt lat="48.20273" lon="7.30586">
        <ele>446.1</ele>
        <time>2026-03-19T08:08:00Z</time>
      </trkpt>
      <trkpt lat="48.20273" lon="7.30586">
        <ele>446.1</ele>
        <time>2026-03-19T08:08:05Z</time>
      </trkpt>
      <trkpt lat="48.20273" lon="7.30586">
        <ele>446.1</ele>
        <time>2026-03-19T08:08:10Z</time>
      </trkpt>
      <trkpt lat="48.20273" lon="7.30586">
        <ele>446.1</ele>
        <time>2026-03-19T08:08:15Z</time>
      </trkpt>
      <trkpt lat="48.20273" lon="7.30586">
        <ele>446.1</ele>
        <time>2026-03-19T08:08:20Z</time>
      </trkpt>
      <trkpt lat="48.20273" lon="7.30586">
        <ele>446.1</ele>
        <time>2026-03-19T08:08:25Z</time>
      </trkpt>
      <trkpt lat="48.2027" lon="7.30593">
        <ele>442.8</ele>
        <time>2026-03-19T08:08:30Z</time>
      </trkpt>
      <trkpt lat="48.2027" lon="7.30596">
        <ele>442</ele>
        <time>2026-03-19T08:08:35Z</time>
      </trkpt>
      <trkpt lat="48.20271" lon="7.30601">
        <ele>441.2</ele>
        <time>2026-03-19T08:08:40Z</time>
      </trkpt>
      <trkpt lat="48.20273" lon="7.30601">
        <ele>442.1</ele>
        <time>2026-03-19T08:08:45Z</time>
      </trkpt>
      <trkpt lat="48.20279" lon="7.306">
        <ele>445.3</ele>
        <time>2026-03-19T08:08:50Z</time>
      </trkpt>
      <trkpt lat="48.20286" lon="7.306">
        <ele>448.6</ele>
        <time>2026-03-19T08:08:55Z</time>
      </trkpt>
      <trkpt lat="48.2029" lon="7.30604">
        <ele>449.5</ele>
        <time>2026-03-19T08:09:00Z</time>
      </trkpt>
      <trkpt lat="48.20293" lon="7.30609">
        <ele>449.7</ele>
        <time>2026-03-19T08:09:05Z</time>
      </trkpt>
      <trkpt lat="48.20297" lon="7.30613">
        <ele>450.6</ele>
        <time>2026-03-19T08:09:10Z</time>
      </trkpt>
      <trkpt lat="48.20304" lon="7.30623">
        <ele>451.6</ele>
        <time>2026-03-19T08:09:15Z</time>
      </trkpt>
      <trkpt lat="48.20306" lon="7.30632">
        <ele>450.3</ele>
        <time>2026-03-19T08:09:20Z</time>
      </trkpt>
      <trkpt lat="48.20299" lon="7.30636">
        <ele>445.9</ele>
        <time>2026-03-19T08:09:25Z</time>
      </trkpt>
      <trkpt lat="48.20296" lon="7.30631">
        <ele>445.6</ele>
        <time>2026-03-19T08:09:30Z</time>
      </trkpt>
      <trkpt lat="48.20291" lon="7.30627">
        <ele>444.2</ele>
        <time>2026-03-19T08:09:35Z</time>
      </trkpt>
      <trkpt lat="48.20287" lon="7.30623">
        <ele>443.2</ele>
        <time>2026-03-19T08:09:40Z</time>
      </trkpt>
      <trkpt lat="48.20283" lon="7.30621">
        <ele>441.8</ele>
        <time>2026-03-19T08:09:45Z</time>
      </trkpt>
      <trkpt lat="48.20277" lon="7.3062">
        <ele>439.1</ele>
        <time>2026-03-19T08:09:50Z</time>
      </trkpt>
      <trkpt lat="48.20272" lon="7.30617">
        <ele>437.4</ele>
        <time>2026-03-19T08:09:55Z</time>
      </trkpt>
      <trkpt lat="48.20265" lon="7.30622">
        <ele>432.7</ele>
        <time>2026-03-19T08:10:00Z</time>
      </trkpt>
      <trkpt lat="48.20261" lon="7.30621">
        <ele>431</ele>
        <time>2026-03-19T08:10:05Z</time>
      </trkpt>
      <trkpt lat="48.20256" lon="7.30618">
        <ele>429.4</ele>
        <time>2026-03-19T08:10:10Z</time>
      </trkpt>
      <trkpt lat="48.20252" lon="7.30616">
        <ele>428</ele>
        <time>2026-03-19T08:10:15Z</time>
      </trkpt>
      <trkpt lat="48.20248" lon="7.30615">
        <ele>426.3</ele>
        <time>2026-03-19T08:10:20Z</time>
      </trkpt>
      <trkpt lat="48.20246" lon="7.30614">
        <ele>425.6</ele>
        <time>2026-03-19T08:10:25Z</time>
      </trkpt>
      <trkpt lat="48.20244" lon="7.30613">
        <ele>425</ele>
        <time>2026-03-19T08:10:30Z</time>
      </trkpt>
      <trkpt lat="48.20243" lon="7.30611">
        <ele>425</ele>
        <time>2026-03-19T08:10:35Z</time>
      </trkpt>
      <trkpt lat="48.20243" lon="7.30611">
        <ele>425</ele>
        <time>2026-03-19T08:10:40Z</time>
      </trkpt>
      <trkpt lat="48.20243" lon="7.30611">
        <ele>425</ele>
        <time>2026-03-19T08:10:45Z</time>
      </trkpt>
      <trkpt lat="48.20243" lon="7.30611">
        <ele>425</ele>
        <time>2026-03-19T08:10:50Z</time>
      </trkpt>
      <trkpt lat="48.20243" lon="7.30611">
        <ele>425</ele>
        <time>2026-03-19T08:10:55Z</time>
      </trkpt>
      <trkpt lat="48.20249" lon="7.30625">
        <ele>424</ele>
        <time>2026-03-19T08:11:00Z</time>
      </trkpt>
      <trkpt lat="48.20251" lon="7.3063">
        <ele>423.6</ele>
        <time>2026-03-19T08:11:05Z</time>
      </trkpt>
      <trkpt lat="48.20254" lon="7.30636">
        <ele>423.5</ele>
        <time>2026-03-19T08:11:10Z</time>
      </trkpt>
      <trkpt lat="48.20256" lon="7.3064">
        <ele>423.4</ele>
        <time>2026-03-19T08:11:15Z</time>
      </trkpt>
      <trkpt lat="48.20259" lon="7.30647">
        <ele>423</ele>
        <time>2026-03-19T08:11:20Z</time>
      </trkpt>
      <trkpt lat="48.20258" lon="7.30652">
        <ele>421.1</ele>
        <time>2026-03-19T08:11:25Z</time>
      </trkpt>
      <trkpt lat="48.20259" lon="7.30652">
        <ele>421.6</ele>
        <time>2026-03-19T08:11:30Z</time>
      </trkpt>
      <trkpt lat="48.20259" lon="7.30652">
        <ele>421.6</ele>
        <time>2026-03-19T08:11:35Z</time>
      </trkpt>
      <trkpt lat="48.20265" lon="7.3066">
        <ele>422.5</ele>
        <time>2026-03-19T08:11:40Z</time>
      </trkpt>
      <trkpt lat="48.20265" lon="7.3066">
        <ele>422.5</ele>
        <time>2026-03-19T08:11:45Z</time>
      </trkpt>
      <trkpt lat="48.20265" lon="7.3066">
        <ele>422.5</ele>
        <time>2026-03-19T08:11:50Z</time>
      </trkpt>
      <trkpt lat="48.20258" lon="7.30662">
        <ele>418.4</ele>
        <time>2026-03-19T08:11:55Z</time>
      </trkpt>
      <trkpt lat="48.20256" lon="7.30669">
        <ele>415.9</ele>
        <time>2026-03-19T08:12:00Z</time>
      </trkpt>
      <trkpt lat="48.20253" lon="7.30675">
        <ele>413.8</ele>
        <time>2026-03-19T08:12:05Z</time>
      </trkpt>
      <trkpt lat="48.2025" lon="7.3068">
        <ele>411.7</ele>
        <time>2026-03-19T08:12:10Z</time>
      </trkpt>
      <trkpt lat="48.20247" lon="7.30686">
        <ele>409.9</ele>
        <time>2026-03-19T08:12:15Z</time>
      </trkpt>
      <trkpt lat="48.20245" lon="7.30692">
        <ele>408.4</ele>
        <time>2026-03-19T08:12:20Z</time>
      </trkpt>
      <trkpt lat="48.20246" lon="7.30699">
        <ele>408.2</ele>
        <time>2026-03-19T08:12:25Z</time>
      </trkpt>
      <trkpt lat="48.20245" lon="7.30704">
        <ele>407.2</ele>
        <time>2026-03-19T08:12:30Z</time>
      </trkpt>
      <trkpt lat="48.20242" lon="7.30704">
        <ele>405.9</ele>
        <time>2026-03-19T08:12:35Z</time>
      </trkpt>
      <trkpt lat="48.20241" lon="7.30708">
        <ele>405</ele>
        <time>2026-03-19T08:12:40Z</time>
      </trkpt>
      <trkpt lat="48.2024" lon="7.30714">
        <ele>404</ele>
        <time>2026-03-19T08:12:45Z</time>
      </trkpt>
      <trkpt lat="48.20238" lon="7.3072">
        <ele>402.4</ele>
        <time>2026-03-19T08:12:50Z</time>
      </trkpt>
      <trkpt lat="48.20237" lon="7.30724">
        <ele>401.5</ele>
        <time>2026-03-19T08:12:55Z</time>
      </trkpt>
      <trkpt lat="48.20233" lon="7.30728">
        <ele>399.2</ele>
        <time>2026-03-19T08:13:00Z</time>
      </trkpt>
      <trkpt lat="48.20231" lon="7.3073">
        <ele>398</ele>
        <time>2026-03-19T08:13:05Z</time>
      </trkpt>
      <trkpt lat="48.20226" lon="7.30733">
        <ele>395.3</ele>
        <time>2026-03-19T08:13:10Z</time>
      </trkpt>
      <trkpt lat="48.20222" lon="7.30734">
        <ele>393.3</ele>
        <time>2026-03-19T08:13:15Z</time>
      </trkpt>
      <trkpt lat="48.20219" lon="7.30738">
        <ele>391.3</ele>
        <time>2026-03-19T08:13:20Z</time>
      </trkpt>
      <trkpt lat="48.20216" lon="7.30743">
        <ele>389.2</ele>
        <time>2026-03-19T08:13:25Z</time>
      </trkpt>
      <trkpt lat="48.20216" lon="7.30747">
        <ele>388.7</ele>
        <time>2026-03-19T08:13:30Z</time>
      </trkpt>
      <trkpt lat="48.20215" lon="7.3075">
        <ele>387.8</ele>
        <time>2026-03-19T08:13:35Z</time>
      </trkpt>
      <trkpt lat="48.20212" lon="7.30753">
        <ele>386.2</ele>
        <time>2026-03-19T08:13:40Z</time>
      </trkpt>
      <trkpt lat="48.20212" lon="7.30754">
        <ele>386.2</ele>
        <time>2026-03-19T08:13:45Z</time>
      </trkpt>
      <trkpt lat="48.20212" lon="7.30754">
        <ele>386.2</ele>
        <time>2026-03-19T08:13:50Z</time>
      </trkpt>
      <trkpt lat="48.20212" lon="7.30754">
        <ele>386.2</ele>
        <time>2026-03-19T08:13:55Z</time>
      </trkpt>
      <trkpt lat="48.20212" lon="7.30754">
        <ele>386.2</ele>
        <time>2026-03-19T08:14:00Z</time>
      </trkpt>
      <trkpt lat="48.20212" lon="7.30754">
        <ele>386.2</ele>
        <time>2026-03-19T08:14:05Z</time>
      </trkpt>
      <trkpt lat="48.20212" lon="7.30754">
        <ele>386.2</ele>
        <time>2026-03-19T08:14:10Z</time>
      </trkpt>
      <trkpt lat="48.20208" lon="7.30766">
        <ele>384</ele>
        <time>2026-03-19T08:14:15Z</time>
      </trkpt>
      <trkpt lat="48.20207" lon="7.30773">
        <ele>383.3</ele>
        <time>2026-03-19T08:14:20Z</time>
      </trkpt>
      <trkpt lat="48.20206" lon="7.30777">
        <ele>382.7</ele>
        <time>2026-03-19T08:14:25Z</time>
      </trkpt>
      <trkpt lat="48.20206" lon="7.30778">
        <ele>382.7</ele>
        <time>2026-03-19T08:14:30Z</time>
      </trkpt>
      <trkpt lat="48.20206" lon="7.30778">
        <ele>382.7</ele>
        <time>2026-03-19T08:14:35Z</time>
      </trkpt>
      <trkpt lat="48.20206" lon="7.30778">
        <ele>382.7</ele>
        <time>2026-03-19T08:14:40Z</time>
      </trkpt>
      <trkpt lat="48.20206" lon="7.30778">
        <ele>382.7</ele>
        <time>2026-03-19T08:14:45Z</time>
      </trkpt>
      <trkpt lat="48.20206" lon="7.30778">
        <ele>382.7</ele>
        <time>2026-03-19T08:14:50Z</time>
      </trkpt>
      <trkpt lat="48.20211" lon="7.3078">
        <ele>385.1</ele>
        <time>2026-03-19T08:14:55Z</time>
      </trkpt>
      <trkpt lat="48.20212" lon="7.30787">
        <ele>385.4</ele>
        <time>2026-03-19T08:15:00Z</time>
      </trkpt>
      <trkpt lat="48.20212" lon="7.30793">
        <ele>385.3</ele>
        <time>2026-03-19T08:15:05Z</time>
      </trkpt>
      <trkpt lat="48.20211" lon="7.308">
        <ele>384.6</ele>
        <time>2026-03-19T08:15:10Z</time>
      </trkpt>
      <trkpt lat="48.20211" lon="7.30805">
        <ele>384.5</ele>
        <time>2026-03-19T08:15:15Z</time>
      </trkpt>
      <trkpt lat="48.20209" lon="7.30808">
        <ele>383.4</ele>
        <time>2026-03-19T08:15:20Z</time>
      </trkpt>
      <trkpt lat="48.20207" lon="7.3081">
        <ele>382.4</ele>
        <time>2026-03-19T08:15:25Z</time>
      </trkpt>
      <trkpt lat="48.20207" lon="7.30813">
        <ele>382.3</ele>
        <time>2026-03-19T08:15:30Z</time>
      </trkpt>
      <trkpt lat="48.20207" lon="7.30813">
        <ele>382.3</ele>
        <time>2026-03-19T08:15:35Z</time>
      </trkpt>
      <trkpt lat="48.20207" lon="7.30813">
        <ele>382.3</ele>
        <time>2026-03-19T08:15:40Z</time>
      </trkpt>
      <trkpt lat="48.20207" lon="7.30813">
        <ele>382.3</ele>
        <time>2026-03-19T08:15:45Z</time>
      </trkpt>
      <trkpt lat="48.20208" lon="7.30827">
        <ele>382.5</ele>
        <time>2026-03-19T08:15:50Z</time>
      </trkpt>
      <trkpt lat="48.20208" lon="7.30832">
        <ele>382.4</ele>
        <time>2026-03-19T08:15:55Z</time>
      </trkpt>
      <trkpt lat="48.20208" lon="7.30832">
        <ele>382.4</ele>
        <time>2026-03-19T08:16:00Z</time>
      </trkpt>
      <trkpt lat="48.20208" lon="7.30832">
        <ele>382.4</ele>
        <time>2026-03-19T08:16:05Z</time>
      </trkpt>
      <trkpt lat="48.20206" lon="7.30846">
        <ele>382</ele>
        <time>2026-03-19T08:16:10Z</time>
      </trkpt>
      <trkpt lat="48.20206" lon="7.30855">
        <ele>382.4</ele>
        <time>2026-03-19T08:16:15Z</time>
      </trkpt>
      <trkpt lat="48.20208" lon="7.30863">
        <ele>383.6</ele>
        <time>2026-03-19T08:16:20Z</time>
      </trkpt>
      <trkpt lat="48.2021" lon="7.3087">
        <ele>384.7</ele>
        <time>2026-03-19T08:16:25Z</time>
      </trkpt>
      <trkpt lat="48.20213" lon="7.3088">
        <ele>386.2</ele>
        <time>2026-03-19T08:16:30Z</time>
      </trkpt>
      <trkpt lat="48.20217" lon="7.3089">
        <ele>387.9</ele>
        <time>2026-03-19T08:16:35Z</time>
      </trkpt>
      <trkpt lat="48.20218" lon="7.30899">
        <ele>388.5</ele>
        <time>2026-03-19T08:16:40Z</time>
      </trkpt>
      <trkpt lat="48.20219" lon="7.3091">
        <ele>389</ele>
        <time>2026-03-19T08:16:45Z</time>
      </trkpt>
      <trkpt lat="48.2022" lon="7.3092">
        <ele>389.7</ele>
        <time>2026-03-19T08:16:50Z</time>
      </trkpt>
      <trkpt lat="48.2022" lon="7.30932">
        <ele>390.9</ele>
        <time>2026-03-19T08:16:55Z</time>
      </trkpt>
      <trkpt lat="48.20219" lon="7.30943">
        <ele>391.8</ele>
        <time>2026-03-19T08:17:00Z</time>
      </trkpt>
      <trkpt lat="48.20215" lon="7.3095">
        <ele>391.6</ele>
        <time>2026-03-19T08:17:05Z</time>
      </trkpt>
      <trkpt lat="48.20214" lon="7.30959">
        <ele>392.4</ele>
        <time>2026-03-19T08:17:10Z</time>
      </trkpt>
      <trkpt lat="48.20212" lon="7.30969">
        <ele>393.1</ele>
        <time>2026-03-19T08:17:15Z</time>
      </trkpt>
      <trkpt lat="48.20209" lon="7.30974">
        <ele>393</ele>
        <time>2026-03-19T08:17:20Z</time>
      </trkpt>
      <trkpt lat="48.20205" lon="7.3098">
        <ele>392.9</ele>
        <time>2026-03-19T08:17:25Z</time>
      </trkpt>
      <trkpt lat="48.202" lon="7.30985">
        <ele>392.6</ele>
        <time>2026-03-19T08:17:30Z</time>
      </trkpt>
      <trkpt lat="48.20194" lon="7.30987">
        <ele>391.8</ele>
        <time>2026-03-19T08:17:35Z</time>
      </trkpt>
      <trkpt lat="48.20188" lon="7.30991">
        <ele>391.2</ele>
        <time>2026-03-19T08:17:40Z</time>
      </trkpt>
      <trkpt lat="48.20181" lon="7.30995">
        <ele>390.6</ele>
        <time>2026-03-19T08:17:45Z</time>
      </trkpt>
      <trkpt lat="48.20176" lon="7.30997">
        <ele>390.1</ele>
        <time>2026-03-19T08:17:50Z</time>
      </trkpt>
      <trkpt lat="48.20169" lon="7.30999">
        <ele>389.2</ele>
        <time>2026-03-19T08:17:55Z</time>
      </trkpt>
      <trkpt lat="48.20162" lon="7.30999">
        <ele>387.4</ele>
        <time>2026-03-19T08:18:00Z</time>
      </trkpt>
      <trkpt lat="48.20155" lon="7.30998">
        <ele>385.1</ele>
        <time>2026-03-19T08:18:05Z</time>
      </trkpt>
      <trkpt lat="48.20152" lon="7.30998">
        <ele>384.2</ele>
        <time>2026-03-19T08:18:10Z</time>
      </trkpt>
      <trkpt lat="48.20151" lon="7.30997">
        <ele>383.8</ele>
        <time>2026-03-19T08:18:15Z</time>
      </trkpt>
      <trkpt lat="48.20144" lon="7.30998">
        <ele>381.8</ele>
        <time>2026-03-19T08:18:20Z</time>
      </trkpt>
      <trkpt lat="48.20137" lon="7.31">
        <ele>380.1</ele>
        <time>2026-03-19T08:18:25Z</time>
      </trkpt>
      <trkpt lat="48.20132" lon="7.31001">
        <ele>378.7</ele>
        <time>2026-03-19T08:18:30Z</time>
      </trkpt>
      <trkpt lat="48.20125" lon="7.31002">
        <ele>376.8</ele>
        <time>2026-03-19T08:18:35Z</time>
      </trkpt>
      <trkpt lat="48.20119" lon="7.31003">
        <ele>375.1</ele>
        <time>2026-03-19T08:18:40Z</time>
      </trkpt>
      <trkpt lat="48.20113" lon="7.31004">
        <ele>373.4</ele>
        <time>2026-03-19T08:18:45Z</time>
      </trkpt>
      <trkpt lat="48.20108" lon="7.31001">
        <ele>371.5</ele>
        <time>2026-03-19T08:18:50Z</time>
      </trkpt>
      <trkpt lat="48.20108" lon="7.31001">
        <ele>371.5</ele>
        <time>2026-03-19T08:18:55Z</time>
      </trkpt>
      <trkpt lat="48.20108" lon="7.31001">
        <ele>371.5</ele>
        <time>2026-03-19T08:19:00Z</time>
      </trkpt>
      <trkpt lat="48.20108" lon="7.31001">
        <ele>371.5</ele>
        <time>2026-03-19T08:19:05Z</time>
      </trkpt>
      <trkpt lat="48.20108" lon="7.31001">
        <ele>371.5</ele>
        <time>2026-03-19T08:19:10Z</time>
      </trkpt>
      <trkpt lat="48.20107" lon="7.31007">
        <ele>372</ele>
        <time>2026-03-19T08:19:15Z</time>
      </trkpt>
      <trkpt lat="48.20101" lon="7.31007">
        <ele>370.2</ele>
        <time>2026-03-19T08:19:20Z</time>
      </trkpt>
      <trkpt lat="48.20095" lon="7.31005">
        <ele>368.2</ele>
        <time>2026-03-19T08:19:25Z</time>
      </trkpt>
      <trkpt lat="48.2009" lon="7.31006">
        <ele>366.8</ele>
        <time>2026-03-19T08:19:30Z</time>
      </trkpt>
      <trkpt lat="48.20084" lon="7.31007">
        <ele>365.1</ele>
        <time>2026-03-19T08:19:35Z</time>
      </trkpt>
      <trkpt lat="48.20079" lon="7.31005">
        <ele>362.6</ele>
        <time>2026-03-19T08:19:40Z</time>
      </trkpt>
      <trkpt lat="48.20079" lon="7.31004">
        <ele>362.5</ele>
        <time>2026-03-19T08:19:45Z</time>
      </trkpt>
      <trkpt lat="48.20078" lon="7.31005">
        <ele>362.1</ele>
        <time>2026-03-19T08:19:50Z</time>
      </trkpt>
      <trkpt lat="48.20074" lon="7.31">
        <ele>359.5</ele>
        <time>2026-03-19T08:19:55Z</time>
      </trkpt>
      <trkpt lat="48.20068" lon="7.30997">
        <ele>356.2</ele>
        <time>2026-03-19T08:20:00Z</time>
      </trkpt>
      <trkpt lat="48.20063" lon="7.30996">
        <ele>353.6</ele>
        <time>2026-03-19T08:20:05Z</time>
      </trkpt>
      <trkpt lat="48.20058" lon="7.30994">
        <ele>351</ele>
        <time>2026-03-19T08:20:10Z</time>
      </trkpt>
      <trkpt lat="48.20054" lon="7.30992">
        <ele>348.8</ele>
        <time>2026-03-19T08:20:15Z</time>
      </trkpt>
      <trkpt lat="48.20053" lon="7.30991">
        <ele>348.2</ele>
        <time>2026-03-19T08:20:20Z</time>
      </trkpt>
      <trkpt lat="48.20047" lon="7.30992">
        <ele>345.5</ele>
        <time>2026-03-19T08:20:25Z</time>
      </trkpt>
      <trkpt lat="48.20041" lon="7.30994">
        <ele>342.9</ele>
        <time>2026-03-19T08:20:30Z</time>
      </trkpt>
      <trkpt lat="48.20034" lon="7.30997">
        <ele>340</ele>
        <time>2026-03-19T08:20:35Z</time>
      </trkpt>
      <trkpt lat="48.20028" lon="7.31003">
        <ele>337.9</ele>
        <time>2026-03-19T08:20:40Z</time>
      </trkpt>
      <trkpt lat="48.20023" lon="7.31007">
        <ele>336.1</ele>
        <time>2026-03-19T08:20:45Z</time>
      </trkpt>
      <trkpt lat="48.2002" lon="7.31012">
        <ele>335.5</ele>
        <time>2026-03-19T08:20:50Z</time>
      </trkpt>
      <trkpt lat="48.20019" lon="7.31017">
        <ele>335.8</ele>
        <time>2026-03-19T08:20:55Z</time>
      </trkpt>
      <trkpt lat="48.20017" lon="7.31019">
        <ele>335.2</ele>
        <time>2026-03-19T08:21:00Z</time>
      </trkpt>
      <trkpt lat="48.20016" lon="7.31021">
        <ele>335.1</ele>
        <time>2026-03-19T08:21:05Z</time>
      </trkpt>
      <trkpt lat="48.20015" lon="7.31022">
        <ele>334.8</ele>
        <time>2026-03-19T08:21:10Z</time>
      </trkpt>
      <trkpt lat="48.20015" lon="7.31022">
        <ele>334.8</ele>
        <time>2026-03-19T08:21:15Z</time>
      </trkpt>
      <trkpt lat="48.20015" lon="7.31022">
        <ele>334.8</ele>
        <time>2026-03-19T08:21:20Z</time>
      </trkpt>
      <trkpt lat="48.20015" lon="7.31022">
        <ele>334.8</ele>
        <time>2026-03-19T08:21:25Z</time>
      </trkpt>
      <trkpt lat="48.20015" lon="7.31022">
        <ele>334.8</ele>
        <time>2026-03-19T08:21:30Z</time>
      </trkpt>
      <trkpt lat="48.20015" lon="7.31022">
        <ele>334.8</ele>
        <time>2026-03-19T08:21:35Z</time>
      </trkpt>
      <trkpt lat="48.20007" lon="7.31028">
        <ele>332</ele>
        <time>2026-03-19T08:21:40Z</time>
      </trkpt>
      <trkpt lat="48.20006" lon="7.31029">
        <ele>331.7</ele>
        <time>2026-03-19T08:21:45Z</time>
      </trkpt>
      <trkpt lat="48.20003" lon="7.31033">
        <ele>330.9</ele>
        <time>2026-03-19T08:21:50Z</time>
      </trkpt>
      <trkpt lat="48.19999" lon="7.31038">
        <ele>330</ele>
        <time>2026-03-19T08:21:55Z</time>
      </trkpt>
      <trkpt lat="48.19997" lon="7.31044">
        <ele>330.1</ele>
        <time>2026-03-19T08:22:00Z</time>
      </trkpt>
      <trkpt lat="48.19994" lon="7.31054">
        <ele>330.5</ele>
        <time>2026-03-19T08:22:05Z</time>
      </trkpt>
      <trkpt lat="48.19992" lon="7.31061">
        <ele>330.8</ele>
        <time>2026-03-19T08:22:10Z</time>
      </trkpt>
      <trkpt lat="48.19989" lon="7.31069">
        <ele>330.8</ele>
        <time>2026-03-19T08:22:15Z</time>
      </trkpt>
      <trkpt lat="48.19986" lon="7.31076">
        <ele>330.7</ele>
        <time>2026-03-19T08:22:20Z</time>
      </trkpt>
      <trkpt lat="48.19984" lon="7.31082">
        <ele>330.9</ele>
        <time>2026-03-19T08:22:25Z</time>
      </trkpt>
      <trkpt lat="48.1998" lon="7.31087">
        <ele>330</ele>
        <time>2026-03-19T08:22:30Z</time>
      </trkpt>
      <trkpt lat="48.19977" lon="7.31092">
        <ele>329.6</ele>
        <time>2026-03-19T08:22:35Z</time>
      </trkpt>
      <trkpt lat="48.19974" lon="7.31099">
        <ele>329.5</ele>
        <time>2026-03-19T08:22:40Z</time>
      </trkpt>
      <trkpt lat="48.1997" lon="7.31104">
        <ele>328.7</ele>
        <time>2026-03-19T08:22:45Z</time>
      </trkpt>
      <trkpt lat="48.19966" lon="7.31108">
        <ele>327.7</ele>
        <time>2026-03-19T08:22:50Z</time>
      </trkpt>
      <trkpt lat="48.19963" lon="7.31113">
        <ele>327.3</ele>
        <time>2026-03-19T08:22:55Z</time>
      </trkpt>
      <trkpt lat="48.19959" lon="7.31118">
        <ele>326.5</ele>
        <time>2026-03-19T08:23:00Z</time>
      </trkpt>
      <trkpt lat="48.19957" lon="7.31123">
        <ele>326.6</ele>
        <time>2026-03-19T08:23:05Z</time>
      </trkpt>
      <trkpt lat="48.19955" lon="7.31127">
        <ele>326.5</ele>
        <time>2026-03-19T08:23:10Z</time>
      </trkpt>
      <trkpt lat="48.19953" lon="7.3113">
        <ele>326.2</ele>
        <time>2026-03-19T08:23:15Z</time>
      </trkpt>
      <trkpt lat="48.19949" lon="7.31133">
        <ele>325</ele>
        <time>2026-03-19T08:23:20Z</time>
      </trkpt>
      <trkpt lat="48.19946" lon="7.31137">
        <ele>324.5</ele>
        <time>2026-03-19T08:23:25Z</time>
      </trkpt>
      <trkpt lat="48.19944" lon="7.31141">
        <ele>324.4</ele>
        <time>2026-03-19T08:23:30Z</time>
      </trkpt>
      <trkpt lat="48.19942" lon="7.31146">
        <ele>324.5</ele>
        <time>2026-03-19T08:23:35Z</time>
      </trkpt>
      <trkpt lat="48.19939" lon="7.3115">
        <ele>324</ele>
        <time>2026-03-19T08:23:40Z</time>
      </trkpt>
      <trkpt lat="48.19935" lon="7.31151">
        <ele>322.6</ele>
        <time>2026-03-19T08:23:45Z</time>
      </trkpt>
      <trkpt lat="48.19932" lon="7.31151">
        <ele>321.3</ele>
        <time>2026-03-19T08:23:50Z</time>
      </trkpt>
      <trkpt lat="48.19931" lon="7.31152">
        <ele>321.1</ele>
        <time>2026-03-19T08:23:55Z</time>
      </trkpt>
      <trkpt lat="48.19931" lon="7.31152">
        <ele>321.1</ele>
        <time>2026-03-19T08:24:00Z</time>
      </trkpt>
      <trkpt lat="48.19931" lon="7.31152">
        <ele>321.1</ele>
        <time>2026-03-19T08:24:05Z</time>
      </trkpt>
      <trkpt lat="48.19931" lon="7.31152">
        <ele>321.1</ele>
        <time>2026-03-19T08:24:10Z</time>
      </trkpt>
      <trkpt lat="48.19924" lon="7.31157">
        <ele>319.2</ele>
        <time>2026-03-19T08:24:15Z</time>
      </trkpt>
      <trkpt lat="48.19921" lon="7.31159">
        <ele>318.3</ele>
        <time>2026-03-19T08:24:20Z</time>
      </trkpt>
      <trkpt lat="48.19918" lon="7.31161">
        <ele>317.5</ele>
        <time>2026-03-19T08:24:25Z</time>
      </trkpt>
      <trkpt lat="48.19914" lon="7.31164">
        <ele>316.3</ele>
        <time>2026-03-19T08:24:30Z</time>
      </trkpt>
      <trkpt lat="48.19911" lon="7.31166">
        <ele>315.4</ele>
        <time>2026-03-19T08:24:35Z</time>
      </trkpt>
      <trkpt lat="48.19909" lon="7.31167">
        <ele>314.7</ele>
        <time>2026-03-19T08:24:40Z</time>
      </trkpt>
      <trkpt lat="48.19906" lon="7.31171">
        <ele>314.1</ele>
        <time>2026-03-19T08:24:45Z</time>
      </trkpt>
      <trkpt lat="48.19902" lon="7.31175">
        <ele>312.9</ele>
        <time>2026-03-19T08:24:50Z</time>
      </trkpt>
      <trkpt lat="48.19899" lon="7.31179">
        <ele>312.2</ele>
        <time>2026-03-19T08:24:55Z</time>
      </trkpt>
      <trkpt lat="48.19896" lon="7.31184">
        <ele>311.5</ele>
        <time>2026-03-19T08:25:00Z</time>
      </trkpt>
      <trkpt lat="48.19891" lon="7.31185">
        <ele>309.4</ele>
        <time>2026-03-19T08:25:05Z</time>
      </trkpt>
      <trkpt lat="48.19887" lon="7.31187">
        <ele>307.8</ele>
        <time>2026-03-19T08:25:10Z</time>
      </trkpt>
      <trkpt lat="48.19883" lon="7.31188">
        <ele>306.1</ele>
        <time>2026-03-19T08:25:15Z</time>
      </trkpt>
      <trkpt lat="48.1988" lon="7.31188">
        <ele>304.7</ele>
        <time>2026-03-19T08:25:20Z</time>
      </trkpt>
      <trkpt lat="48.19876" lon="7.31188">
        <ele>302.9</ele>
        <time>2026-03-19T08:25:25Z</time>
      </trkpt>
      <trkpt lat="48.19872" lon="7.3119">
        <ele>301.3</ele>
        <time>2026-03-19T08:25:30Z</time>
      </trkpt>
      <trkpt lat="48.19867" lon="7.31192">
        <ele>299.2</ele>
        <time>2026-03-19T08:25:35Z</time>
      </trkpt>
      <trkpt lat="48.1986" lon="7.31195">
        <ele>296.2</ele>
        <time>2026-03-19T08:25:40Z</time>
      </trkpt>
      <trkpt lat="48.19853" lon="7.31197">
        <ele>293.1</ele>
        <time>2026-03-19T08:25:45Z</time>
      </trkpt>
      <trkpt lat="48.19848" lon="7.31202">
        <ele>291.1</ele>
        <time>2026-03-19T08:25:50Z</time>
      </trkpt>
      <trkpt lat="48.19841" lon="7.31204">
        <ele>287.9</ele>
        <time>2026-03-19T08:25:55Z</time>
      </trkpt>
      <trkpt lat="48.19836" lon="7.31206">
        <ele>285.6</ele>
        <time>2026-03-19T08:26:00Z</time>
      </trkpt>
      <trkpt lat="48.19831" lon="7.31208">
        <ele>283.9</ele>
        <time>2026-03-19T08:26:05Z</time>
      </trkpt>
      <trkpt lat="48.19826" lon="7.31211">
        <ele>282.9</ele>
        <time>2026-03-19T08:26:10Z</time>
      </trkpt>
      <trkpt lat="48.19822" lon="7.31216">
        <ele>282.2</ele>
        <time>2026-03-19T08:26:15Z</time>
      </trkpt>
      <trkpt lat="48.19818" lon="7.31218">
        <ele>281.3</ele>
        <time>2026-03-19T08:26:20Z</time>
      </trkpt>
      <trkpt lat="48.19814" lon="7.31222">
        <ele>280.5</ele>
        <time>2026-03-19T08:26:25Z</time>
      </trkpt>
      <trkpt lat="48.1981" lon="7.31227">
        <ele>279.6</ele>
        <time>2026-03-19T08:26:30Z</time>
      </trkpt>
      <trkpt lat="48.19808" lon="7.31235">
        <ele>279.4</ele>
        <time>2026-03-19T08:26:35Z</time>
      </trkpt>
      <trkpt lat="48.19806" lon="7.31242">
        <ele>279.2</ele>
        <time>2026-03-19T08:26:40Z</time>
      </trkpt>
      <trkpt lat="48.19805" lon="7.31249">
        <ele>279.1</ele>
        <time>2026-03-19T08:26:45Z</time>
      </trkpt>
      <trkpt lat="48.19803" lon="7.31255">
        <ele>278.5</ele>
        <time>2026-03-19T08:26:50Z</time>
      </trkpt>
      <trkpt lat="48.19802" lon="7.31261">
        <ele>278.1</ele>
        <time>2026-03-19T08:26:55Z</time>
      </trkpt>
      <trkpt lat="48.19805" lon="7.31266">
        <ele>278.9</ele>
        <time>2026-03-19T08:27:00Z</time>
      </trkpt>
      <trkpt lat="48.19804" lon="7.31272">
        <ele>278.5</ele>
        <time>2026-03-19T08:27:05Z</time>
      </trkpt>
      <trkpt lat="48.19805" lon="7.3128">
        <ele>278.6</ele>
        <time>2026-03-19T08:27:10Z</time>
      </trkpt>
      <trkpt lat="48.19807" lon="7.31286">
        <ele>279</ele>
        <time>2026-03-19T08:27:15Z</time>
      </trkpt>
      <trkpt lat="48.19808" lon="7.31292">
        <ele>279.2</ele>
        <time>2026-03-19T08:27:20Z</time>
      </trkpt>
      <trkpt lat="48.19807" lon="7.31298">
        <ele>278.8</ele>
        <time>2026-03-19T08:27:25Z</time>
      </trkpt>
      <trkpt lat="48.19806" lon="7.31301">
        <ele>278.4</ele>
        <time>2026-03-19T08:27:30Z</time>
      </trkpt>
      <trkpt lat="48.19804" lon="7.31303">
        <ele>277.9</ele>
        <time>2026-03-19T08:27:35Z</time>
      </trkpt>
      <trkpt lat="48.19804" lon="7.31303">
        <ele>277.9</ele>
        <time>2026-03-19T08:27:40Z</time>
      </trkpt>
      <trkpt lat="48.19806" lon="7.31306">
        <ele>278.3</ele>
        <time>2026-03-19T08:27:45Z</time>
      </trkpt>
      <trkpt lat="48.19807" lon="7.31318">
        <ele>278.4</ele>
        <time>2026-03-19T08:27:50Z</time>
      </trkpt>
      <trkpt lat="48.19808" lon="7.31327">
        <ele>278.4</ele>
        <time>2026-03-19T08:27:55Z</time>
      </trkpt>
      <trkpt lat="48.19808" lon="7.31336">
        <ele>278.3</ele>
        <time>2026-03-19T08:28:00Z</time>
      </trkpt>
      <trkpt lat="48.19809" lon="7.31348">
        <ele>278.3</ele>
        <time>2026-03-19T08:28:05Z</time>
      </trkpt>
      <trkpt lat="48.19808" lon="7.31349">
        <ele>278</ele>
        <time>2026-03-19T08:28:10Z</time>
      </trkpt>
      <trkpt lat="48.19807" lon="7.31348">
        <ele>277.7</ele>
        <time>2026-03-19T08:28:15Z</time>
      </trkpt>
      <trkpt lat="48.19807" lon="7.31348">
        <ele>277.7</ele>
        <time>2026-03-19T08:28:20Z</time>
      </trkpt>
      <trkpt lat="48.19807" lon="7.31352">
        <ele>277.7</ele>
        <time>2026-03-19T08:28:25Z</time>
      </trkpt>
      <trkpt lat="48.19811" lon="7.31362">
        <ele>278.4</ele>
        <time>2026-03-19T08:28:30Z</time>
      </trkpt>
      <trkpt lat="48.19814" lon="7.31368">
        <ele>279</ele>
        <time>2026-03-19T08:28:35Z</time>
      </trkpt>
      <trkpt lat="48.19815" lon="7.31374">
        <ele>279.1</ele>
        <time>2026-03-19T08:28:40Z</time>
      </trkpt>
      <trkpt lat="48.19816" lon="7.31382">
        <ele>279.2</ele>
        <time>2026-03-19T08:28:45Z</time>
      </trkpt>
      <trkpt lat="48.19817" lon="7.31388">
        <ele>279.2</ele>
        <time>2026-03-19T08:28:50Z</time>
      </trkpt>
      <trkpt lat="48.19818" lon="7.31395">
        <ele>279.3</ele>
        <time>2026-03-19T08:28:55Z</time>
      </trkpt>
      <trkpt lat="48.19819" lon="7.31403">
        <ele>279.3</ele>
        <time>2026-03-19T08:29:00Z</time>
      </trkpt>
      <trkpt lat="48.19821" lon="7.31411">
        <ele>279.5</ele>
        <time>2026-03-19T08:29:05Z</time>
      </trkpt>
      <trkpt lat="48.19822" lon="7.31419">
        <ele>279.5</ele>
        <time>2026-03-19T08:29:10Z</time>
      </trkpt>
      <trkpt lat="48.19821" lon="7.31428">
        <ele>279</ele>
        <time>2026-03-19T08:29:15Z</time>
      </trkpt>
      <trkpt lat="48.1982" lon="7.31433">
        <ele>278.6</ele>
        <time>2026-03-19T08:29:20Z</time>
      </trkpt>
      <trkpt lat="48.19819" lon="7.31438">
        <ele>278.2</ele>
        <time>2026-03-19T08:29:25Z</time>
      </trkpt>
      <trkpt lat="48.19818" lon="7.31444">
        <ele>277.8</ele>
        <time>2026-03-19T08:29:30Z</time>
      </trkpt>
      <trkpt lat="48.19815" lon="7.3145">
        <ele>277</ele>
        <time>2026-03-19T08:29:35Z</time>
      </trkpt>
      <trkpt lat="48.19812" lon="7.3145">
        <ele>276.4</ele>
        <time>2026-03-19T08:29:40Z</time>
      </trkpt>
      <trkpt lat="48.19808" lon="7.31445">
        <ele>275.7</ele>
        <time>2026-03-19T08:29:45Z</time>
      </trkpt>
      <trkpt lat="48.19802" lon="7.3144">
        <ele>274.6</ele>
        <time>2026-03-19T08:29:50Z</time>
      </trkpt>
      <trkpt lat="48.19797" lon="7.31435">
        <ele>273.7</ele>
        <time>2026-03-19T08:29:55Z</time>
      </trkpt>
      <trkpt lat="48.19791" lon="7.31431">
        <ele>272.5</ele>
        <time>2026-03-19T08:30:00Z</time>
      </trkpt>
      <trkpt lat="48.19785" lon="7.31428">
        <ele>271.3</ele>
        <time>2026-03-19T08:30:05Z</time>
      </trkpt>
      <trkpt lat="48.1978" lon="7.31428">
        <ele>270.2</ele>
        <time>2026-03-19T08:30:10Z</time>
      </trkpt>
      <trkpt lat="48.19771" lon="7.31424">
        <ele>268.4</ele>
        <time>2026-03-19T08:30:15Z</time>
      </trkpt>
      <trkpt lat="48.19764" lon="7.31419">
        <ele>267</ele>
        <time>2026-03-19T08:30:20Z</time>
      </trkpt>
      <trkpt lat="48.19762" lon="7.31412">
        <ele>266.6</ele>
        <time>2026-03-19T08:30:25Z</time>
      </trkpt>
      <trkpt lat="48.19758" lon="7.31406">
        <ele>265.6</ele>
        <time>2026-03-19T08:30:30Z</time>
      </trkpt>
      <trkpt lat="48.19754" lon="7.31399">
        <ele>264.7</ele>
        <time>2026-03-19T08:30:35Z</time>
      </trkpt>
      <trkpt lat="48.1975" lon="7.31391">
        <ele>263.7</ele>
        <time>2026-03-19T08:30:40Z</time>
      </trkpt>
      <trkpt lat="48.19746" lon="7.31385">
        <ele>263.6</ele>
        <time>2026-03-19T08:30:45Z</time>
      </trkpt>
      <trkpt lat="48.19742" lon="7.31378">
        <ele>263.5</ele>
        <time>2026-03-19T08:30:50Z</time>
      </trkpt>
      <trkpt lat="48.19738" lon="7.3137">
        <ele>263.5</ele>
        <time>2026-03-19T08:30:55Z</time>
      </trkpt>
      <trkpt lat="48.19734" lon="7.31365">
        <ele>263.4</ele>
        <time>2026-03-19T08:31:00Z</time>
      </trkpt>
      <trkpt lat="48.1973" lon="7.31357">
        <ele>263.4</ele>
        <time>2026-03-19T08:31:05Z</time>
      </trkpt>
      <trkpt lat="48.19725" lon="7.31346">
        <ele>263.4</ele>
        <time>2026-03-19T08:31:10Z</time>
      </trkpt>
      <trkpt lat="48.19722" lon="7.31342">
        <ele>263.4</ele>
        <time>2026-03-19T08:31:15Z</time>
      </trkpt>
      <trkpt lat="48.19719" lon="7.31336">
        <ele>263.4</ele>
        <time>2026-03-19T08:31:20Z</time>
      </trkpt>
      <trkpt lat="48.19716" lon="7.31331">
        <ele>263.4</ele>
        <time>2026-03-19T08:31:25Z</time>
      </trkpt>
      <trkpt lat="48.19712" lon="7.31326">
        <ele>263.5</ele>
        <time>2026-03-19T08:31:30Z</time>
      </trkpt>
      <trkpt lat="48.19709" lon="7.31318">
        <ele>263.7</ele>
        <time>2026-03-19T08:31:35Z</time>
      </trkpt>
      <trkpt lat="48.19706" lon="7.31307">
        <ele>263.8</ele>
        <time>2026-03-19T08:31:40Z</time>
      </trkpt>
      <trkpt lat="48.19703" lon="7.31299">
        <ele>264</ele>
        <time>2026-03-19T08:31:45Z</time>
      </trkpt>
      <trkpt lat="48.197" lon="7.31291">
        <ele>264.1</ele>
        <time>2026-03-19T08:31:50Z</time>
      </trkpt>
      <trkpt lat="48.19698" lon="7.31283">
        <ele>264.2</ele>
        <time>2026-03-19T08:31:55Z</time>
      </trkpt>
      <trkpt lat="48.19692" lon="7.31281">
        <ele>264.3</ele>
        <time>2026-03-19T08:32:00Z</time>
      </trkpt>
      <trkpt lat="48.19688" lon="7.31279">
        <ele>264.4</ele>
        <time>2026-03-19T08:32:05Z</time>
      </trkpt>
      <trkpt lat="48.19685" lon="7.31281">
        <ele>264.4</ele>
        <time>2026-03-19T08:32:10Z</time>
      </trkpt>
      <trkpt lat="48.19685" lon="7.31281">
        <ele>264.4</ele>
        <time>2026-03-19T08:32:15Z</time>
      </trkpt>
      <trkpt lat="48.19685" lon="7.31281">
        <ele>264.4</ele>
        <time>2026-03-19T08:32:20Z</time>
      </trkpt>
      <trkpt lat="48.19685" lon="7.31281">
        <ele>264.4</ele>
        <time>2026-03-19T08:32:25Z</time>
      </trkpt>
      <trkpt lat="48.19685" lon="7.31281">
        <ele>264.4</ele>
        <time>2026-03-19T08:32:30Z</time>
      </trkpt>
      <trkpt lat="48.19685" lon="7.31281">
        <ele>264.4</ele>
        <time>2026-03-19T08:32:35Z</time>
      </trkpt>
      <trkpt lat="48.19685" lon="7.31281">
        <ele>264.4</ele>
        <time>2026-03-19T08:32:40Z</time>
      </trkpt>
      <trkpt lat="48.19681" lon="7.31285">
        <ele>264.4</ele>
        <time>2026-03-19T08:32:45Z</time>
      </trkpt>
      <trkpt lat="48.19679" lon="7.31289">
        <ele>264.4</ele>
        <time>2026-03-19T08:32:50Z</time>
      </trkpt>
      <trkpt lat="48.19678" lon="7.31297">
        <ele>264.3</ele>
        <time>2026-03-19T08:32:55Z</time>
      </trkpt>
      <trkpt lat="48.19674" lon="7.31306">
        <ele>264.2</ele>
        <time>2026-03-19T08:33:00Z</time>
      </trkpt>
      <trkpt lat="48.19671" lon="7.31311">
        <ele>264.2</ele>
        <time>2026-03-19T08:33:05Z</time>
      </trkpt>
      <trkpt lat="48.19668" lon="7.31313">
        <ele>264.2</ele>
        <time>2026-03-19T08:33:10Z</time>
      </trkpt>
      <trkpt lat="48.19664" lon="7.31317">
        <ele>264.3</ele>
        <time>2026-03-19T08:33:15Z</time>
      </trkpt>
      <trkpt lat="48.19657" lon="7.31319">
        <ele>264.6</ele>
        <time>2026-03-19T08:33:20Z</time>
      </trkpt>
      <trkpt lat="48.19651" lon="7.31321">
        <ele>264.8</ele>
        <time>2026-03-19T08:33:25Z</time>
      </trkpt>
      <trkpt lat="48.19647" lon="7.31329">
        <ele>264.8</ele>
        <time>2026-03-19T08:33:30Z</time>
      </trkpt>
      <trkpt lat="48.19637" lon="7.31349">
        <ele>264.7</ele>
        <time>2026-03-19T08:33:35Z</time>
      </trkpt>
      <trkpt lat="48.19631" lon="7.31358">
        <ele>264.7</ele>
        <time>2026-03-19T08:33:40Z</time>
      </trkpt>
      <trkpt lat="48.19629" lon="7.31367">
        <ele>264.6</ele>
        <time>2026-03-19T08:33:45Z</time>
      </trkpt>
      <trkpt lat="48.19631" lon="7.31369">
        <ele>264.5</ele>
        <time>2026-03-19T08:33:50Z</time>
      </trkpt>
      <trkpt lat="48.19634" lon="7.31374">
        <ele>264.3</ele>
        <time>2026-03-19T08:33:55Z</time>
      </trkpt>
      <trkpt lat="48.19638" lon="7.31373">
        <ele>264.2</ele>
        <time>2026-03-19T08:34:00Z</time>
      </trkpt>
      <trkpt lat="48.19638" lon="7.31373">
        <ele>264.2</ele>
        <time>2026-03-19T08:34:05Z</time>
      </trkpt>
      <trkpt lat="48.19638" lon="7.31373">
        <ele>264.2</ele>
        <time>2026-03-19T08:34:10Z</time>
      </trkpt>
      <trkpt lat="48.19638" lon="7.31373">
        <ele>264.2</ele>
        <time>2026-03-19T08:34:15Z</time>
      </trkpt>
      <trkpt lat="48.19638" lon="7.31373">
        <ele>264.2</ele>
        <time>2026-03-19T08:34:20Z</time>
      </trkpt>
      <trkpt lat="48.19638" lon="7.31373">
        <ele>264.2</ele>
        <time>2026-03-19T08:34:25Z</time>
      </trkpt>
      <trkpt lat="48.19637" lon="7.31384">
        <ele>264</ele>
        <time>2026-03-19T08:34:30Z</time>
      </trkpt>
      <trkpt lat="48.19629" lon="7.3139">
        <ele>264.1</ele>
        <time>2026-03-19T08:34:35Z</time>
      </trkpt>
      <trkpt lat="48.19625" lon="7.31393">
        <ele>264.1</ele>
        <time>2026-03-19T08:34:40Z</time>
      </trkpt>
      <trkpt lat="48.19618" lon="7.31398">
        <ele>264.1</ele>
        <time>2026-03-19T08:34:45Z</time>
      </trkpt>
      <trkpt lat="48.19616" lon="7.31403">
        <ele>264</ele>
        <time>2026-03-19T08:34:50Z</time>
      </trkpt>
      <trkpt lat="48.19616" lon="7.31405">
        <ele>263.9</ele>
        <time>2026-03-19T08:34:55Z</time>
      </trkpt>
      <trkpt lat="48.19618" lon="7.31407">
        <ele>263.8</ele>
        <time>2026-03-19T08:35:00Z</time>
      </trkpt>
      <trkpt lat="48.19619" lon="7.31409">
        <ele>263.8</ele>
        <time>2026-03-19T08:35:05Z</time>
      </trkpt>
      <trkpt lat="48.19614" lon="7.31417">
        <ele>263.6</ele>
        <time>2026-03-19T08:35:10Z</time>
      </trkpt>
      <trkpt lat="48.19608" lon="7.31427">
        <ele>263.5</ele>
        <time>2026-03-19T08:35:15Z</time>
      </trkpt>
      <trkpt lat="48.19604" lon="7.31435">
        <ele>263.4</ele>
        <time>2026-03-19T08:35:20Z</time>
      </trkpt>
      <trkpt lat="48.19603" lon="7.31441">
        <ele>263.2</ele>
        <time>2026-03-19T08:35:25Z</time>
      </trkpt>
      <trkpt lat="48.19602" lon="7.31447">
        <ele>263.1</ele>
        <time>2026-03-19T08:35:30Z</time>
      </trkpt>
      <trkpt lat="48.19601" lon="7.31457">
        <ele>262.9</ele>
        <time>2026-03-19T08:35:35Z</time>
      </trkpt>
      <trkpt lat="48.196" lon="7.31465">
        <ele>262.8</ele>
        <time>2026-03-19T08:35:40Z</time>
      </trkpt>
      <trkpt lat="48.196" lon="7.31474">
        <ele>262.6</ele>
        <time>2026-03-19T08:35:45Z</time>
      </trkpt>
      <trkpt lat="48.19602" lon="7.31484">
        <ele>262.3</ele>
        <time>2026-03-19T08:35:50Z</time>
      </trkpt>
      <trkpt lat="48.196" lon="7.31486">
        <ele>262.3</ele>
        <time>2026-03-19T08:35:55Z</time>
      </trkpt>
      <trkpt lat="48.196" lon="7.31489">
        <ele>262.2</ele>
        <time>2026-03-19T08:36:00Z</time>
      </trkpt>
      <trkpt lat="48.19601" lon="7.31491">
        <ele>262.2</ele>
        <time>2026-03-19T08:36:05Z</time>
      </trkpt>
      <trkpt lat="48.19598" lon="7.31508">
        <ele>262</ele>
        <time>2026-03-19T08:36:10Z</time>
      </trkpt>
      <trkpt lat="48.19598" lon="7.31518">
        <ele>261.9</ele>
        <time>2026-03-19T08:36:15Z</time>
      </trkpt>
      <trkpt lat="48.19598" lon="7.31522">
        <ele>261.9</ele>
        <time>2026-03-19T08:36:20Z</time>
      </trkpt>
      <trkpt lat="48.19598" lon="7.31524">
        <ele>261.9</ele>
        <time>2026-03-19T08:36:25Z</time>
      </trkpt>
      <trkpt lat="48.19598" lon="7.31524">
        <ele>261.9</ele>
        <time>2026-03-19T08:36:30Z</time>
      </trkpt>
      <trkpt lat="48.19598" lon="7.31524">
        <ele>261.9</ele>
        <time>2026-03-19T08:36:35Z</time>
      </trkpt>
      <trkpt lat="48.19598" lon="7.31524">
        <ele>261.9</ele>
        <time>2026-03-19T08:36:40Z</time>
      </trkpt>
      <trkpt lat="48.19598" lon="7.31524">
        <ele>261.9</ele>
        <time>2026-03-19T08:36:45Z</time>
      </trkpt>
      <trkpt lat="48.19598" lon="7.31524">
        <ele>261.9</ele>
        <time>2026-03-19T08:36:50Z</time>
      </trkpt>
      <trkpt lat="48.19598" lon="7.31524">
        <ele>261.9</ele>
        <time>2026-03-19T08:36:55Z</time>
      </trkpt>
      <trkpt lat="48.19598" lon="7.31524">
        <ele>261.9</ele>
        <time>2026-03-19T08:37:00Z</time>
      </trkpt>
      <trkpt lat="48.19598" lon="7.31508">
        <ele>262</ele>
        <time>2026-03-19T08:37:05Z</time>
      </trkpt>
      <trkpt lat="48.19598" lon="7.31501">
        <ele>262</ele>
        <time>2026-03-19T08:37:10Z</time>
      </trkpt>
      <trkpt lat="48.19598" lon="7.31501">
        <ele>262</ele>
        <time>2026-03-19T08:37:15Z</time>
      </trkpt>
      <trkpt lat="48.19598" lon="7.31501">
        <ele>262</ele>
        <time>2026-03-19T08:37:20Z</time>
      </trkpt>
      <trkpt lat="48.19598" lon="7.31501">
        <ele>262</ele>
        <time>2026-03-19T08:37:25Z</time>
      </trkpt>
      <trkpt lat="48.19598" lon="7.31501">
        <ele>262</ele>
        <time>2026-03-19T08:37:30Z</time>
      </trkpt>
      <trkpt lat="48.19598" lon="7.3151">
        <ele>262</ele>
        <time>2026-03-19T08:37:35Z</time>
      </trkpt>
      <trkpt lat="48.19599" lon="7.31519">
        <ele>261.9</ele>
        <time>2026-03-19T08:37:40Z</time>
      </trkpt>
      <trkpt lat="48.19598" lon="7.31523">
        <ele>261.9</ele>
        <time>2026-03-19T08:37:45Z</time>
      </trkpt>
      <trkpt lat="48.19596" lon="7.31534">
        <ele>261.9</ele>
        <time>2026-03-19T08:37:50Z</time>
      </trkpt>
      <trkpt lat="48.19593" lon="7.31546">
        <ele>261.9</ele>
        <time>2026-03-19T08:37:55Z</time>
      </trkpt>
      <trkpt lat="48.19589" lon="7.31553">
        <ele>261.9</ele>
        <time>2026-03-19T08:38:00Z</time>
      </trkpt>
      <trkpt lat="48.19589" lon="7.31561">
        <ele>261.9</ele>
        <time>2026-03-19T08:38:05Z</time>
      </trkpt>
      <trkpt lat="48.19591" lon="7.3157">
        <ele>261.8</ele>
        <time>2026-03-19T08:38:10Z</time>
      </trkpt>
      <trkpt lat="48.19593" lon="7.31583">
        <ele>261.8</ele>
        <time>2026-03-19T08:38:15Z</time>
      </trkpt>
      <trkpt lat="48.19592" lon="7.31589">
        <ele>261.6</ele>
        <time>2026-03-19T08:38:20Z</time>
      </trkpt>
      <trkpt lat="48.19593" lon="7.31602">
        <ele>261.1</ele>
        <time>2026-03-19T08:38:25Z</time>
      </trkpt>
      <trkpt lat="48.19587" lon="7.3162">
        <ele>260.6</ele>
        <time>2026-03-19T08:38:30Z</time>
      </trkpt>
      <trkpt lat="48.19586" lon="7.31632">
        <ele>260.2</ele>
        <time>2026-03-19T08:38:35Z</time>
      </trkpt>
      <trkpt lat="48.19588" lon="7.31644">
        <ele>259.8</ele>
        <time>2026-03-19T08:38:40Z</time>
      </trkpt>
      <trkpt lat="48.19591" lon="7.31652">
        <ele>259.5</ele>
        <time>2026-03-19T08:38:45Z</time>
      </trkpt>
      <trkpt lat="48.19593" lon="7.31654">
        <ele>259.4</ele>
        <time>2026-03-19T08:38:50Z</time>
      </trkpt>
      <trkpt lat="48.19593" lon="7.31654">
        <ele>259.4</ele>
        <time>2026-03-19T08:38:55Z</time>
      </trkpt>
      <trkpt lat="48.19593" lon="7.31654">
        <ele>259.4</ele>
        <time>2026-03-19T08:39:00Z</time>
      </trkpt>
      <trkpt lat="48.19593" lon="7.31664">
        <ele>259.1</ele>
        <time>2026-03-19T08:39:05Z</time>
      </trkpt>
      <trkpt lat="48.1959" lon="7.31676">
        <ele>258.9</ele>
        <time>2026-03-19T08:39:10Z</time>
      </trkpt>
      <trkpt lat="48.19585" lon="7.31682">
        <ele>258.8</ele>
        <time>2026-03-19T08:39:15Z</time>
      </trkpt>
      <trkpt lat="48.19585" lon="7.31692">
        <ele>258.7</ele>
        <time>2026-03-19T08:39:20Z</time>
      </trkpt>
      <trkpt lat="48.19585" lon="7.31702">
        <ele>258.6</ele>
        <time>2026-03-19T08:39:25Z</time>
      </trkpt>
      <trkpt lat="48.19585" lon="7.31709">
        <ele>258.5</ele>
        <time>2026-03-19T08:39:30Z</time>
      </trkpt>
      <trkpt lat="48.19585" lon="7.31712">
        <ele>258.5</ele>
        <time>2026-03-19T08:39:35Z</time>
      </trkpt>
      <trkpt lat="48.19587" lon="7.31713">
        <ele>258.4</ele>
        <time>2026-03-19T08:39:40Z</time>
      </trkpt>
      <trkpt lat="48.19587" lon="7.31713">
        <ele>258.4</ele>
        <time>2026-03-19T08:39:40Z</time>
      </trkpt>
      <trkpt lat="48.19578" lon="7.31716">
        <ele>258.5</ele>
        <time>2026-03-19T08:53:07Z</time>
      </trkpt>
      <trkpt lat="48.19582" lon="7.31716">
        <ele>258.4</ele>
        <time>2026-03-19T08:53:13Z</time>
      </trkpt>
      <trkpt lat="48.19582" lon="7.31715">
        <ele>258.4</ele>
        <time>2026-03-19T08:53:18Z</time>
      </trkpt>
      <trkpt lat="48.19582" lon="7.31715">
        <ele>258.4</ele>
        <time>2026-03-19T08:53:23Z</time>
      </trkpt>
      <trkpt lat="48.19582" lon="7.31715">
        <ele>258.4</ele>
        <time>2026-03-19T08:53:28Z</time>
      </trkpt>
      <trkpt lat="48.19582" lon="7.31715">
        <ele>258.4</ele>
        <time>2026-03-19T08:53:33Z</time>
      </trkpt>
      <trkpt lat="48.19582" lon="7.31715">
        <ele>258.4</ele>
        <time>2026-03-19T08:53:38Z</time>
      </trkpt>
      <trkpt lat="48.19582" lon="7.31715">
        <ele>258.4</ele>
        <time>2026-03-19T08:53:43Z</time>
      </trkpt>
      <trkpt lat="48.19582" lon="7.31715">
        <ele>258.4</ele>
        <time>2026-03-19T08:53:48Z</time>
      </trkpt>
      <trkpt lat="48.19583" lon="7.31711">
        <ele>258.5</ele>
        <time>2026-03-19T08:53:53Z</time>
      </trkpt>
      <trkpt lat="48.19581" lon="7.31698">
        <ele>258.7</ele>
        <time>2026-03-19T08:53:58Z</time>
      </trkpt>
      <trkpt lat="48.19584" lon="7.3169">
        <ele>258.7</ele>
        <time>2026-03-19T08:54:03Z</time>
      </trkpt>
      <trkpt lat="48.1959" lon="7.31681">
        <ele>258.8</ele>
        <time>2026-03-19T08:54:08Z</time>
      </trkpt>
      <trkpt lat="48.19593" lon="7.3167">
        <ele>259</ele>
        <time>2026-03-19T08:54:13Z</time>
      </trkpt>
      <trkpt lat="48.19594" lon="7.3166">
        <ele>259.2</ele>
        <time>2026-03-19T08:54:18Z</time>
      </trkpt>
      <trkpt lat="48.19594" lon="7.31649">
        <ele>259.6</ele>
        <time>2026-03-19T08:54:23Z</time>
      </trkpt>
      <trkpt lat="48.19595" lon="7.31647">
        <ele>259.6</ele>
        <time>2026-03-19T08:54:28Z</time>
      </trkpt>
      <trkpt lat="48.19595" lon="7.31647">
        <ele>259.6</ele>
        <time>2026-03-19T08:54:33Z</time>
      </trkpt>
      <trkpt lat="48.19595" lon="7.31647">
        <ele>259.6</ele>
        <time>2026-03-19T08:54:38Z</time>
      </trkpt>
      <trkpt lat="48.19595" lon="7.31647">
        <ele>259.6</ele>
        <time>2026-03-19T08:54:43Z</time>
      </trkpt>
      <trkpt lat="48.19595" lon="7.31647">
        <ele>259.6</ele>
        <time>2026-03-19T08:54:48Z</time>
      </trkpt>
      <trkpt lat="48.19595" lon="7.31647">
        <ele>259.6</ele>
        <time>2026-03-19T08:54:53Z</time>
      </trkpt>
      <trkpt lat="48.19595" lon="7.31647">
        <ele>259.6</ele>
        <time>2026-03-19T08:54:58Z</time>
      </trkpt>
      <trkpt lat="48.19595" lon="7.31647">
        <ele>259.6</ele>
        <time>2026-03-19T08:55:03Z</time>
      </trkpt>
      <trkpt lat="48.19595" lon="7.31647">
        <ele>259.6</ele>
        <time>2026-03-19T08:55:08Z</time>
      </trkpt>
      <trkpt lat="48.19595" lon="7.31647">
        <ele>259.6</ele>
        <time>2026-03-19T08:55:13Z</time>
      </trkpt>
      <trkpt lat="48.19595" lon="7.31647">
        <ele>259.6</ele>
        <time>2026-03-19T08:55:18Z</time>
      </trkpt>
      <trkpt lat="48.19595" lon="7.31647">
        <ele>259.6</ele>
        <time>2026-03-19T08:55:23Z</time>
      </trkpt>
      <trkpt lat="48.19595" lon="7.31647">
        <ele>259.6</ele>
        <time>2026-03-19T08:55:28Z</time>
      </trkpt>
      <trkpt lat="48.19595" lon="7.31647">
        <ele>259.6</ele>
        <time>2026-03-19T08:55:33Z</time>
      </trkpt>
      <trkpt lat="48.19595" lon="7.31647">
        <ele>259.6</ele>
        <time>2026-03-19T08:55:38Z</time>
      </trkpt>
      <trkpt lat="48.19595" lon="7.31647">
        <ele>259.6</ele>
        <time>2026-03-19T08:55:43Z</time>
      </trkpt>
      <trkpt lat="48.19595" lon="7.31647">
        <ele>259.6</ele>
        <time>2026-03-19T08:55:48Z</time>
      </trkpt>
      <trkpt lat="48.19594" lon="7.31644">
        <ele>259.7</ele>
        <time>2026-03-19T08:55:53Z</time>
      </trkpt>
      <trkpt lat="48.19594" lon="7.31644">
        <ele>259.7</ele>
        <time>2026-03-19T08:55:58Z</time>
      </trkpt>
      <trkpt lat="48.19594" lon="7.31644">
        <ele>259.7</ele>
        <time>2026-03-19T08:56:03Z</time>
      </trkpt>
      <trkpt lat="48.19594" lon="7.31644">
        <ele>259.7</ele>
        <time>2026-03-19T08:56:08Z</time>
      </trkpt>
      <trkpt lat="48.19594" lon="7.31644">
        <ele>259.7</ele>
        <time>2026-03-19T08:56:13Z</time>
      </trkpt>
      <trkpt lat="48.19594" lon="7.31644">
        <ele>259.7</ele>
        <time>2026-03-19T08:56:18Z</time>
      </trkpt>
      <trkpt lat="48.19594" lon="7.31644">
        <ele>259.7</ele>
        <time>2026-03-19T08:56:23Z</time>
      </trkpt>
      <trkpt lat="48.19594" lon="7.31644">
        <ele>259.7</ele>
        <time>2026-03-19T08:56:28Z</time>
      </trkpt>
      <trkpt lat="48.19594" lon="7.31644">
        <ele>259.7</ele>
        <time>2026-03-19T08:56:33Z</time>
      </trkpt>
      <trkpt lat="48.19594" lon="7.31639">
        <ele>259.9</ele>
        <time>2026-03-19T08:56:38Z</time>
      </trkpt>
      <trkpt lat="48.19593" lon="7.31635">
        <ele>260.1</ele>
        <time>2026-03-19T08:56:43Z</time>
      </trkpt>
      <trkpt lat="48.19592" lon="7.31633">
        <ele>260.1</ele>
        <time>2026-03-19T08:56:48Z</time>
      </trkpt>
      <trkpt lat="48.1959" lon="7.31632">
        <ele>260.2</ele>
        <time>2026-03-19T08:56:53Z</time>
      </trkpt>
      <trkpt lat="48.19589" lon="7.31631">
        <ele>260.2</ele>
        <time>2026-03-19T08:56:58Z</time>
      </trkpt>
      <trkpt lat="48.19588" lon="7.31625">
        <ele>260.4</ele>
        <time>2026-03-19T08:57:03Z</time>
      </trkpt>
      <trkpt lat="48.19588" lon="7.3162">
        <ele>260.6</ele>
        <time>2026-03-19T08:57:08Z</time>
      </trkpt>
      <trkpt lat="48.19587" lon="7.31615">
        <ele>260.8</ele>
        <time>2026-03-19T08:57:13Z</time>
      </trkpt>
      <trkpt lat="48.19586" lon="7.31611">
        <ele>261</ele>
        <time>2026-03-19T08:57:18Z</time>
      </trkpt>
      <trkpt lat="48.19586" lon="7.31608">
        <ele>261.1</ele>
        <time>2026-03-19T08:57:23Z</time>
      </trkpt>
      <trkpt lat="48.19586" lon="7.31608">
        <ele>261.1</ele>
        <time>2026-03-19T08:57:28Z</time>
      </trkpt>
      <trkpt lat="48.19586" lon="7.31608">
        <ele>261.1</ele>
        <time>2026-03-19T08:57:33Z</time>
      </trkpt>
      <trkpt lat="48.19586" lon="7.31608">
        <ele>261.1</ele>
        <time>2026-03-19T08:57:38Z</time>
      </trkpt>
      <trkpt lat="48.19586" lon="7.31608">
        <ele>261.1</ele>
        <time>2026-03-19T08:57:43Z</time>
      </trkpt>
      <trkpt lat="48.19586" lon="7.31608">
        <ele>261.1</ele>
        <time>2026-03-19T08:57:48Z</time>
      </trkpt>
      <trkpt lat="48.19586" lon="7.31608">
        <ele>261.1</ele>
        <time>2026-03-19T08:57:52Z</time>
      </trkpt>
      <trkpt lat="48.19586" lon="7.31608">
        <ele>261.1</ele>
        <time>2026-03-19T08:57:58Z</time>
      </trkpt>
      <trkpt lat="48.19586" lon="7.31608">
        <ele>261.1</ele>
        <time>2026-03-19T08:58:03Z</time>
      </trkpt>
      <trkpt lat="48.19586" lon="7.31608">
        <ele>261.1</ele>
        <time>2026-03-19T08:58:08Z</time>
      </trkpt>
      <trkpt lat="48.19586" lon="7.31608">
        <ele>261.1</ele>
        <time>2026-03-19T08:58:13Z</time>
      </trkpt>
      <trkpt lat="48.19586" lon="7.31608">
        <ele>261.1</ele>
        <time>2026-03-19T08:58:18Z</time>
      </trkpt>
      <trkpt lat="48.19586" lon="7.31608">
        <ele>261.1</ele>
        <time>2026-03-19T08:58:23Z</time>
      </trkpt>
      <trkpt lat="48.19586" lon="7.31608">
        <ele>261.1</ele>
        <time>2026-03-19T08:58:28Z</time>
      </trkpt>
      <trkpt lat="48.19586" lon="7.31608">
        <ele>261.1</ele>
        <time>2026-03-19T08:58:33Z</time>
      </trkpt>
      <trkpt lat="48.19586" lon="7.31608">
        <ele>261.1</ele>
        <time>2026-03-19T08:58:38Z</time>
      </trkpt>
      <trkpt lat="48.19586" lon="7.31608">
        <ele>261.1</ele>
        <time>2026-03-19T08:58:43Z</time>
      </trkpt>
      <trkpt lat="48.19586" lon="7.31608">
        <ele>261.1</ele>
        <time>2026-03-19T08:58:48Z</time>
      </trkpt>
      <trkpt lat="48.19586" lon="7.31608">
        <ele>261.1</ele>
        <time>2026-03-19T08:58:53Z</time>
      </trkpt>
      <trkpt lat="48.19586" lon="7.31608">
        <ele>261.1</ele>
        <time>2026-03-19T08:58:58Z</time>
      </trkpt>
      <trkpt lat="48.19586" lon="7.31608">
        <ele>261.1</ele>
        <time>2026-03-19T08:59:03Z</time>
      </trkpt>
      <trkpt lat="48.19586" lon="7.31608">
        <ele>261.1</ele>
        <time>2026-03-19T08:59:08Z</time>
      </trkpt>
      <trkpt lat="48.19586" lon="7.31608">
        <ele>261.1</ele>
        <time>2026-03-19T08:59:13Z</time>
      </trkpt>
      <trkpt lat="48.19586" lon="7.31608">
        <ele>261.1</ele>
        <time>2026-03-19T08:59:18Z</time>
      </trkpt>
      <trkpt lat="48.19586" lon="7.31608">
        <ele>261.1</ele>
        <time>2026-03-19T08:59:23Z</time>
      </trkpt>
      <trkpt lat="48.19586" lon="7.31608">
        <ele>261.1</ele>
        <time>2026-03-19T08:59:28Z</time>
      </trkpt>
      <trkpt lat="48.19586" lon="7.31608">
        <ele>261.1</ele>
        <time>2026-03-19T08:59:33Z</time>
      </trkpt>
      <trkpt lat="48.19586" lon="7.31608">
        <ele>261.1</ele>
        <time>2026-03-19T08:59:38Z</time>
      </trkpt>
      <trkpt lat="48.19586" lon="7.31608">
        <ele>261.1</ele>
        <time>2026-03-19T08:59:43Z</time>
      </trkpt>
      <trkpt lat="48.19586" lon="7.31608">
        <ele>261.1</ele>
        <time>2026-03-19T08:59:48Z</time>
      </trkpt>
      <trkpt lat="48.19586" lon="7.31608">
        <ele>261.1</ele>
        <time>2026-03-19T08:59:53Z</time>
      </trkpt>
      <trkpt lat="48.19586" lon="7.31608">
        <ele>261.1</ele>
        <time>2026-03-19T08:59:58Z</time>
      </trkpt>
      <trkpt lat="48.19586" lon="7.31608">
        <ele>261.1</ele>
        <time>2026-03-19T09:00:03Z</time>
      </trkpt>
      <trkpt lat="48.19586" lon="7.31608">
        <ele>261.1</ele>
        <time>2026-03-19T09:00:08Z</time>
      </trkpt>
      <trkpt lat="48.19586" lon="7.31608">
        <ele>261.1</ele>
        <time>2026-03-19T09:00:13Z</time>
      </trkpt>
      <trkpt lat="48.19586" lon="7.31608">
        <ele>261.1</ele>
        <time>2026-03-19T09:00:18Z</time>
      </trkpt>
      <trkpt lat="48.19586" lon="7.31608">
        <ele>261.1</ele>
        <time>2026-03-19T09:00:23Z</time>
      </trkpt>
      <trkpt lat="48.19586" lon="7.31608">
        <ele>261.1</ele>
        <time>2026-03-19T09:00:28Z</time>
      </trkpt>
      <trkpt lat="48.1959" lon="7.31608">
        <ele>261</ele>
        <time>2026-03-19T09:00:33Z</time>
      </trkpt>
      <trkpt lat="48.1959" lon="7.31608">
        <ele>261</ele>
        <time>2026-03-19T09:00:38Z</time>
      </trkpt>
      <trkpt lat="48.1959" lon="7.31608">
        <ele>261</ele>
        <time>2026-03-19T09:00:43Z</time>
      </trkpt>
      <trkpt lat="48.1959" lon="7.31608">
        <ele>261</ele>
        <time>2026-03-19T09:00:48Z</time>
      </trkpt>
      <trkpt lat="48.1959" lon="7.31608">
        <ele>261</ele>
        <time>2026-03-19T09:00:53Z</time>
      </trkpt>
      <trkpt lat="48.1959" lon="7.31608">
        <ele>261</ele>
        <time>2026-03-19T09:00:58Z</time>
      </trkpt>
      <trkpt lat="48.1959" lon="7.31608">
        <ele>261</ele>
        <time>2026-03-19T09:01:03Z</time>
      </trkpt>
      <trkpt lat="48.1959" lon="7.31608">
        <ele>261</ele>
        <time>2026-03-19T09:01:08Z</time>
      </trkpt>
      <trkpt lat="48.1959" lon="7.31608">
        <ele>261</ele>
        <time>2026-03-19T09:01:13Z</time>
      </trkpt>
      <trkpt lat="48.1959" lon="7.31608">
        <ele>261</ele>
        <time>2026-03-19T09:01:18Z</time>
      </trkpt>
      <trkpt lat="48.1959" lon="7.31608">
        <ele>261</ele>
        <time>2026-03-19T09:01:23Z</time>
      </trkpt>
      <trkpt lat="48.1959" lon="7.31608">
        <ele>261</ele>
        <time>2026-03-19T09:01:28Z</time>
      </trkpt>
      <trkpt lat="48.1959" lon="7.31608">
        <ele>261</ele>
        <time>2026-03-19T09:01:33Z</time>
      </trkpt>
      <trkpt lat="48.1959" lon="7.31608">
        <ele>261</ele>
        <time>2026-03-19T09:01:38Z</time>
      </trkpt>
      <trkpt lat="48.1959" lon="7.31608">
        <ele>261</ele>
        <time>2026-03-19T09:01:43Z</time>
      </trkpt>
      <trkpt lat="48.1959" lon="7.31608">
        <ele>261</ele>
        <time>2026-03-19T09:01:48Z</time>
      </trkpt>
      <trkpt lat="48.1959" lon="7.31608">
        <ele>261</ele>
        <time>2026-03-19T09:01:53Z</time>
      </trkpt>
      <trkpt lat="48.1959" lon="7.31608">
        <ele>261</ele>
        <time>2026-03-19T09:01:58Z</time>
      </trkpt>
      <trkpt lat="48.1959" lon="7.31608">
        <ele>261</ele>
        <time>2026-03-19T09:02:03Z</time>
      </trkpt>
      <trkpt lat="48.1959" lon="7.31608">
        <ele>261</ele>
        <time>2026-03-19T09:02:08Z</time>
      </trkpt>
      <trkpt lat="48.1959" lon="7.31608">
        <ele>261</ele>
        <time>2026-03-19T09:02:13Z</time>
      </trkpt>
      <trkpt lat="48.1959" lon="7.31608">
        <ele>261</ele>
        <time>2026-03-19T09:02:18Z</time>
      </trkpt>
      <trkpt lat="48.1959" lon="7.31608">
        <ele>261</ele>
        <time>2026-03-19T09:02:23Z</time>
      </trkpt>
      <trkpt lat="48.1959" lon="7.31608">
        <ele>261</ele>
        <time>2026-03-19T09:02:28Z</time>
      </trkpt>
      <trkpt lat="48.1959" lon="7.31608">
        <ele>261</ele>
        <time>2026-03-19T09:02:33Z</time>
      </trkpt>
      <trkpt lat="48.1959" lon="7.31608">
        <ele>261</ele>
        <time>2026-03-19T09:02:38Z</time>
      </trkpt>
      <trkpt lat="48.1959" lon="7.31608">
        <ele>261</ele>
        <time>2026-03-19T09:02:43Z</time>
      </trkpt>
      <trkpt lat="48.1959" lon="7.31608">
        <ele>261</ele>
        <time>2026-03-19T09:02:48Z</time>
      </trkpt>
      <trkpt lat="48.1959" lon="7.31608">
        <ele>261</ele>
        <time>2026-03-19T09:02:53Z</time>
      </trkpt>
      <trkpt lat="48.1959" lon="7.31608">
        <ele>261</ele>
        <time>2026-03-19T09:02:58Z</time>
      </trkpt>
      <trkpt lat="48.1959" lon="7.31608">
        <ele>261</ele>
        <time>2026-03-19T09:03:03Z</time>
      </trkpt>
      <trkpt lat="48.1959" lon="7.31608">
        <ele>261</ele>
        <time>2026-03-19T09:03:08Z</time>
      </trkpt>
      <trkpt lat="48.19592" lon="7.31605">
        <ele>261.1</ele>
        <time>2026-03-19T09:03:13Z</time>
      </trkpt>
      <trkpt lat="48.1959" lon="7.31601">
        <ele>261.2</ele>
        <time>2026-03-19T09:03:18Z</time>
      </trkpt>
      <trkpt lat="48.19592" lon="7.31596">
        <ele>261.4</ele>
        <time>2026-03-19T09:03:23Z</time>
      </trkpt>
      <trkpt lat="48.19591" lon="7.3159">
        <ele>261.6</ele>
        <time>2026-03-19T09:03:28Z</time>
      </trkpt>
      <trkpt lat="48.1959" lon="7.31587">
        <ele>261.7</ele>
        <time>2026-03-19T09:03:33Z</time>
      </trkpt>
      <trkpt lat="48.19592" lon="7.31583">
        <ele>261.8</ele>
        <time>2026-03-19T09:03:38Z</time>
      </trkpt>
      <trkpt lat="48.19594" lon="7.31575">
        <ele>261.8</ele>
        <time>2026-03-19T09:03:43Z</time>
      </trkpt>
      <trkpt lat="48.19593" lon="7.31565">
        <ele>261.8</ele>
        <time>2026-03-19T09:03:48Z</time>
      </trkpt>
      <trkpt lat="48.19595" lon="7.31559">
        <ele>261.8</ele>
        <time>2026-03-19T09:03:53Z</time>
      </trkpt>
      <trkpt lat="48.19596" lon="7.3155">
        <ele>261.8</ele>
        <time>2026-03-19T09:03:58Z</time>
      </trkpt>
      <trkpt lat="48.196" lon="7.31543">
        <ele>261.8</ele>
        <time>2026-03-19T09:04:03Z</time>
      </trkpt>
      <trkpt lat="48.196" lon="7.31534">
        <ele>261.8</ele>
        <time>2026-03-19T09:04:08Z</time>
      </trkpt>
      <trkpt lat="48.19601" lon="7.31525">
        <ele>261.9</ele>
        <time>2026-03-19T09:04:13Z</time>
      </trkpt>
      <trkpt lat="48.19605" lon="7.31518">
        <ele>261.9</ele>
        <time>2026-03-19T09:04:18Z</time>
      </trkpt>
      <trkpt lat="48.19606" lon="7.3151">
        <ele>261.9</ele>
        <time>2026-03-19T09:04:23Z</time>
      </trkpt>
      <trkpt lat="48.19605" lon="7.31499">
        <ele>262</ele>
        <time>2026-03-19T09:04:28Z</time>
      </trkpt>
      <trkpt lat="48.19606" lon="7.31489">
        <ele>262.2</ele>
        <time>2026-03-19T09:04:33Z</time>
      </trkpt>
      <trkpt lat="48.19606" lon="7.31479">
        <ele>262.4</ele>
        <time>2026-03-19T09:04:38Z</time>
      </trkpt>
      <trkpt lat="48.19605" lon="7.31472">
        <ele>262.6</ele>
        <time>2026-03-19T09:04:43Z</time>
      </trkpt>
      <trkpt lat="48.19606" lon="7.31465">
        <ele>262.7</ele>
        <time>2026-03-19T09:04:48Z</time>
      </trkpt>
      <trkpt lat="48.19608" lon="7.31456">
        <ele>262.9</ele>
        <time>2026-03-19T09:04:53Z</time>
      </trkpt>
      <trkpt lat="48.1961" lon="7.31446">
        <ele>263.1</ele>
        <time>2026-03-19T09:04:58Z</time>
      </trkpt>
      <trkpt lat="48.19611" lon="7.31438">
        <ele>263.2</ele>
        <time>2026-03-19T09:05:03Z</time>
      </trkpt>
      <trkpt lat="48.1961" lon="7.31427">
        <ele>263.5</ele>
        <time>2026-03-19T09:05:08Z</time>
      </trkpt>
      <trkpt lat="48.19612" lon="7.31422">
        <ele>263.6</ele>
        <time>2026-03-19T09:05:13Z</time>
      </trkpt>
      <trkpt lat="48.19613" lon="7.31415">
        <ele>263.7</ele>
        <time>2026-03-19T09:05:18Z</time>
      </trkpt>
      <trkpt lat="48.19618" lon="7.3141">
        <ele>263.8</ele>
        <time>2026-03-19T09:05:23Z</time>
      </trkpt>
      <trkpt lat="48.19626" lon="7.31405">
        <ele>263.8</ele>
        <time>2026-03-19T09:05:28Z</time>
      </trkpt>
      <trkpt lat="48.19633" lon="7.31398">
        <ele>263.8</ele>
        <time>2026-03-19T09:05:33Z</time>
      </trkpt>
      <trkpt lat="48.19637" lon="7.31394">
        <ele>263.8</ele>
        <time>2026-03-19T09:05:38Z</time>
      </trkpt>
      <trkpt lat="48.1964" lon="7.31381">
        <ele>264</ele>
        <time>2026-03-19T09:05:43Z</time>
      </trkpt>
      <trkpt lat="48.19641" lon="7.31374">
        <ele>264.1</ele>
        <time>2026-03-19T09:05:48Z</time>
      </trkpt>
      <trkpt lat="48.19642" lon="7.31367">
        <ele>264.2</ele>
        <time>2026-03-19T09:05:53Z</time>
      </trkpt>
      <trkpt lat="48.19642" lon="7.31357">
        <ele>264.4</ele>
        <time>2026-03-19T09:05:58Z</time>
      </trkpt>
      <trkpt lat="48.19646" lon="7.31351">
        <ele>264.4</ele>
        <time>2026-03-19T09:06:03Z</time>
      </trkpt>
      <trkpt lat="48.19649" lon="7.31349">
        <ele>264.4</ele>
        <time>2026-03-19T09:06:08Z</time>
      </trkpt>
      <trkpt lat="48.19651" lon="7.31345">
        <ele>264.4</ele>
        <time>2026-03-19T09:06:13Z</time>
      </trkpt>
      <trkpt lat="48.19655" lon="7.3134">
        <ele>264.3</ele>
        <time>2026-03-19T09:06:18Z</time>
      </trkpt>
      <trkpt lat="48.19654" lon="7.31334">
        <ele>264.4</ele>
        <time>2026-03-19T09:06:23Z</time>
      </trkpt>
      <trkpt lat="48.19654" lon="7.31328">
        <ele>264.5</ele>
        <time>2026-03-19T09:06:28Z</time>
      </trkpt>
      <trkpt lat="48.19654" lon="7.31328">
        <ele>264.5</ele>
        <time>2026-03-19T09:06:33Z</time>
      </trkpt>
      <trkpt lat="48.19654" lon="7.31328">
        <ele>264.5</ele>
        <time>2026-03-19T09:06:38Z</time>
      </trkpt>
      <trkpt lat="48.19654" lon="7.31328">
        <ele>264.5</ele>
        <time>2026-03-19T09:06:43Z</time>
      </trkpt>
      <trkpt lat="48.19654" lon="7.31328">
        <ele>264.5</ele>
        <time>2026-03-19T09:06:48Z</time>
      </trkpt>
      <trkpt lat="48.19654" lon="7.31328">
        <ele>264.5</ele>
        <time>2026-03-19T09:06:53Z</time>
      </trkpt>
      <trkpt lat="48.19662" lon="7.31314">
        <ele>264.4</ele>
        <time>2026-03-19T09:06:58Z</time>
      </trkpt>
      <trkpt lat="48.19664" lon="7.3131">
        <ele>264.4</ele>
        <time>2026-03-19T09:07:03Z</time>
      </trkpt>
      <trkpt lat="48.19665" lon="7.31301">
        <ele>264.5</ele>
        <time>2026-03-19T09:07:08Z</time>
      </trkpt>
      <trkpt lat="48.19666" lon="7.31291">
        <ele>264.5</ele>
        <time>2026-03-19T09:07:13Z</time>
      </trkpt>
      <trkpt lat="48.19666" lon="7.31282">
        <ele>264.7</ele>
        <time>2026-03-19T09:07:18Z</time>
      </trkpt>
      <trkpt lat="48.19666" lon="7.31273">
        <ele>264.8</ele>
        <time>2026-03-19T09:07:23Z</time>
      </trkpt>
      <trkpt lat="48.19666" lon="7.31269">
        <ele>264.8</ele>
        <time>2026-03-19T09:07:28Z</time>
      </trkpt>
      <trkpt lat="48.19669" lon="7.31264">
        <ele>264.8</ele>
        <time>2026-03-19T09:07:33Z</time>
      </trkpt>
      <trkpt lat="48.19675" lon="7.31266">
        <ele>264.7</ele>
        <time>2026-03-19T09:07:38Z</time>
      </trkpt>
      <trkpt lat="48.19681" lon="7.31268">
        <ele>264.6</ele>
        <time>2026-03-19T09:07:43Z</time>
      </trkpt>
      <trkpt lat="48.19685" lon="7.31272">
        <ele>264.5</ele>
        <time>2026-03-19T09:07:48Z</time>
      </trkpt>
      <trkpt lat="48.19688" lon="7.31262">
        <ele>264.6</ele>
        <time>2026-03-19T09:07:53Z</time>
      </trkpt>
      <trkpt lat="48.19693" lon="7.31256">
        <ele>264.6</ele>
        <time>2026-03-19T09:07:58Z</time>
      </trkpt>
      <trkpt lat="48.197" lon="7.31247">
        <ele>264.7</ele>
        <time>2026-03-19T09:08:03Z</time>
      </trkpt>
      <trkpt lat="48.19702" lon="7.31236">
        <ele>265</ele>
        <time>2026-03-19T09:08:08Z</time>
      </trkpt>
      <trkpt lat="48.19705" lon="7.31229">
        <ele>265.2</ele>
        <time>2026-03-19T09:08:13Z</time>
      </trkpt>
      <trkpt lat="48.19703" lon="7.31222">
        <ele>265.5</ele>
        <time>2026-03-19T09:08:18Z</time>
      </trkpt>
      <trkpt lat="48.19707" lon="7.31214">
        <ele>265.6</ele>
        <time>2026-03-19T09:08:23Z</time>
      </trkpt>
      <trkpt lat="48.19708" lon="7.31206">
        <ele>265.8</ele>
        <time>2026-03-19T09:08:28Z</time>
      </trkpt>
      <trkpt lat="48.19709" lon="7.31196">
        <ele>266.1</ele>
        <time>2026-03-19T09:08:33Z</time>
      </trkpt>
      <trkpt lat="48.19711" lon="7.31188">
        <ele>266.3</ele>
        <time>2026-03-19T09:08:38Z</time>
      </trkpt>
      <trkpt lat="48.19711" lon="7.31179">
        <ele>266.5</ele>
        <time>2026-03-19T09:08:43Z</time>
      </trkpt>
      <trkpt lat="48.19712" lon="7.31169">
        <ele>266.8</ele>
        <time>2026-03-19T09:08:48Z</time>
      </trkpt>
      <trkpt lat="48.19713" lon="7.31159">
        <ele>267</ele>
        <time>2026-03-19T09:08:53Z</time>
      </trkpt>
      <trkpt lat="48.19713" lon="7.31147">
        <ele>267.4</ele>
        <time>2026-03-19T09:08:58Z</time>
      </trkpt>
      <trkpt lat="48.19714" lon="7.31137">
        <ele>267.7</ele>
        <time>2026-03-19T09:09:03Z</time>
      </trkpt>
      <trkpt lat="48.19714" lon="7.31128">
        <ele>268</ele>
        <time>2026-03-19T09:09:08Z</time>
      </trkpt>
      <trkpt lat="48.19714" lon="7.31121">
        <ele>268.2</ele>
        <time>2026-03-19T09:09:13Z</time>
      </trkpt>
      <trkpt lat="48.19718" lon="7.3111">
        <ele>268.3</ele>
        <time>2026-03-19T09:09:18Z</time>
      </trkpt>
      <trkpt lat="48.19729" lon="7.31106">
        <ele>267.5</ele>
        <time>2026-03-19T09:09:23Z</time>
      </trkpt>
      <trkpt lat="48.19726" lon="7.311">
        <ele>267.9</ele>
        <time>2026-03-19T09:09:28Z</time>
      </trkpt>
      <trkpt lat="48.19724" lon="7.31098">
        <ele>268.1</ele>
        <time>2026-03-19T09:09:33Z</time>
      </trkpt>
      <trkpt lat="48.19724" lon="7.31098">
        <ele>268.1</ele>
        <time>2026-03-19T09:09:38Z</time>
      </trkpt>
      <trkpt lat="48.19724" lon="7.31098">
        <ele>268.1</ele>
        <time>2026-03-19T09:09:43Z</time>
      </trkpt>
      <trkpt lat="48.19724" lon="7.31098">
        <ele>268.1</ele>
        <time>2026-03-19T09:09:48Z</time>
      </trkpt>
      <trkpt lat="48.19724" lon="7.31098">
        <ele>268.1</ele>
        <time>2026-03-19T09:09:53Z</time>
      </trkpt>
      <trkpt lat="48.19724" lon="7.31098">
        <ele>268.1</ele>
        <time>2026-03-19T09:09:58Z</time>
      </trkpt>
      <trkpt lat="48.19724" lon="7.31098">
        <ele>268.1</ele>
        <time>2026-03-19T09:10:03Z</time>
      </trkpt>
      <trkpt lat="48.19724" lon="7.31098">
        <ele>268.1</ele>
        <time>2026-03-19T09:10:08Z</time>
      </trkpt>
      <trkpt lat="48.19724" lon="7.31098">
        <ele>268.1</ele>
        <time>2026-03-19T09:10:13Z</time>
      </trkpt>
      <trkpt lat="48.19724" lon="7.31098">
        <ele>268.1</ele>
        <time>2026-03-19T09:10:18Z</time>
      </trkpt>
      <trkpt lat="48.19724" lon="7.31098">
        <ele>268.1</ele>
        <time>2026-03-19T09:10:23Z</time>
      </trkpt>
      <trkpt lat="48.19724" lon="7.31098">
        <ele>268.1</ele>
        <time>2026-03-19T09:10:28Z</time>
      </trkpt>
      <trkpt lat="48.19735" lon="7.31089">
        <ele>267.3</ele>
        <time>2026-03-19T09:10:33Z</time>
      </trkpt>
      <trkpt lat="48.19735" lon="7.31081">
        <ele>267.5</ele>
        <time>2026-03-19T09:10:38Z</time>
      </trkpt>
      <trkpt lat="48.19735" lon="7.31079">
        <ele>267.6</ele>
        <time>2026-03-19T09:10:43Z</time>
      </trkpt>
      <trkpt lat="48.19735" lon="7.31079">
        <ele>267.6</ele>
        <time>2026-03-19T09:10:48Z</time>
      </trkpt>
      <trkpt lat="48.19735" lon="7.31079">
        <ele>267.6</ele>
        <time>2026-03-19T09:10:53Z</time>
      </trkpt>
      <trkpt lat="48.19735" lon="7.31079">
        <ele>267.6</ele>
        <time>2026-03-19T09:10:58Z</time>
      </trkpt>
      <trkpt lat="48.19734" lon="7.31064">
        <ele>268.5</ele>
        <time>2026-03-19T09:11:03Z</time>
      </trkpt>
      <trkpt lat="48.19737" lon="7.31057">
        <ele>268.4</ele>
        <time>2026-03-19T09:11:08Z</time>
      </trkpt>
      <trkpt lat="48.19737" lon="7.31047">
        <ele>268.9</ele>
        <time>2026-03-19T09:11:13Z</time>
      </trkpt>
      <trkpt lat="48.19735" lon="7.31035">
        <ele>269.7</ele>
        <time>2026-03-19T09:11:18Z</time>
      </trkpt>
      <trkpt lat="48.19734" lon="7.31026">
        <ele>270.3</ele>
        <time>2026-03-19T09:11:23Z</time>
      </trkpt>
      <trkpt lat="48.19738" lon="7.31019">
        <ele>270</ele>
        <time>2026-03-19T09:11:28Z</time>
      </trkpt>
      <trkpt lat="48.19741" lon="7.31016">
        <ele>269.7</ele>
        <time>2026-03-19T09:11:33Z</time>
      </trkpt>
      <trkpt lat="48.19747" lon="7.31012">
        <ele>269</ele>
        <time>2026-03-19T09:11:38Z</time>
      </trkpt>
      <trkpt lat="48.19754" lon="7.31006">
        <ele>268.7</ele>
        <time>2026-03-19T09:11:43Z</time>
      </trkpt>
      <trkpt lat="48.19757" lon="7.31003">
        <ele>268.7</ele>
        <time>2026-03-19T09:11:48Z</time>
      </trkpt>
      <trkpt lat="48.19758" lon="7.31001">
        <ele>268.7</ele>
        <time>2026-03-19T09:11:53Z</time>
      </trkpt>
      <trkpt lat="48.19753" lon="7.31007">
        <ele>268.7</ele>
        <time>2026-03-19T09:11:58Z</time>
      </trkpt>
      <trkpt lat="48.1975" lon="7.31014">
        <ele>268.5</ele>
        <time>2026-03-19T09:12:03Z</time>
      </trkpt>
      <trkpt lat="48.19746" lon="7.31014">
        <ele>269.1</ele>
        <time>2026-03-19T09:12:08Z</time>
      </trkpt>
      <trkpt lat="48.19739" lon="7.3102">
        <ele>269.8</ele>
        <time>2026-03-19T09:12:13Z</time>
      </trkpt>
      <trkpt lat="48.19734" lon="7.31027">
        <ele>270.2</ele>
        <time>2026-03-19T09:12:18Z</time>
      </trkpt>
      <trkpt lat="48.19731" lon="7.31031">
        <ele>270.4</ele>
        <time>2026-03-19T09:12:23Z</time>
      </trkpt>
      <trkpt lat="48.1973" lon="7.3104">
        <ele>270.1</ele>
        <time>2026-03-19T09:12:28Z</time>
      </trkpt>
      <trkpt lat="48.19732" lon="7.31048">
        <ele>269.5</ele>
        <time>2026-03-19T09:12:33Z</time>
      </trkpt>
      <trkpt lat="48.19732" lon="7.31048">
        <ele>269.5</ele>
        <time>2026-03-19T09:12:38Z</time>
      </trkpt>
      <trkpt lat="48.19732" lon="7.31048">
        <ele>269.5</ele>
        <time>2026-03-19T09:12:43Z</time>
      </trkpt>
      <trkpt lat="48.19732" lon="7.31048">
        <ele>269.5</ele>
        <time>2026-03-19T09:12:48Z</time>
      </trkpt>
      <trkpt lat="48.19732" lon="7.31048">
        <ele>269.5</ele>
        <time>2026-03-19T09:12:53Z</time>
      </trkpt>
      <trkpt lat="48.19729" lon="7.31045">
        <ele>270</ele>
        <time>2026-03-19T09:12:58Z</time>
      </trkpt>
      <trkpt lat="48.19721" lon="7.31046">
        <ele>270.9</ele>
        <time>2026-03-19T09:13:03Z</time>
      </trkpt>
      <trkpt lat="48.19716" lon="7.3105">
        <ele>271.3</ele>
        <time>2026-03-19T09:13:08Z</time>
      </trkpt>
      <trkpt lat="48.19709" lon="7.31053">
        <ele>271.9</ele>
        <time>2026-03-19T09:13:13Z</time>
      </trkpt>
      <trkpt lat="48.19703" lon="7.31053">
        <ele>272.6</ele>
        <time>2026-03-19T09:13:18Z</time>
      </trkpt>
      <trkpt lat="48.19697" lon="7.31054">
        <ele>273.3</ele>
        <time>2026-03-19T09:13:23Z</time>
      </trkpt>
      <trkpt lat="48.19692" lon="7.31054">
        <ele>273.8</ele>
        <time>2026-03-19T09:13:28Z</time>
      </trkpt>
      <trkpt lat="48.19687" lon="7.31057">
        <ele>274.2</ele>
        <time>2026-03-19T09:13:33Z</time>
      </trkpt>
      <trkpt lat="48.19681" lon="7.31058">
        <ele>274.8</ele>
        <time>2026-03-19T09:13:38Z</time>
      </trkpt>
      <trkpt lat="48.19676" lon="7.31057">
        <ele>275.5</ele>
        <time>2026-03-19T09:13:43Z</time>
      </trkpt>
      <trkpt lat="48.1967" lon="7.31057">
        <ele>276.1</ele>
        <time>2026-03-19T09:13:48Z</time>
      </trkpt>
      <trkpt lat="48.19662" lon="7.31054">
        <ele>277.4</ele>
        <time>2026-03-19T09:13:53Z</time>
      </trkpt>
      <trkpt lat="48.1966" lon="7.31055">
        <ele>277.6</ele>
        <time>2026-03-19T09:13:58Z</time>
      </trkpt>
      <trkpt lat="48.19655" lon="7.31055">
        <ele>278.2</ele>
        <time>2026-03-19T09:14:03Z</time>
      </trkpt>
      <trkpt lat="48.1965" lon="7.31053">
        <ele>279.1</ele>
        <time>2026-03-19T09:14:08Z</time>
      </trkpt>
      <trkpt lat="48.19646" lon="7.31052">
        <ele>279.7</ele>
        <time>2026-03-19T09:14:13Z</time>
      </trkpt>
      <trkpt lat="48.19639" lon="7.31049">
        <ele>281</ele>
        <time>2026-03-19T09:14:18Z</time>
      </trkpt>
      <trkpt lat="48.19632" lon="7.31052">
        <ele>281.6</ele>
        <time>2026-03-19T09:14:23Z</time>
      </trkpt>
      <trkpt lat="48.19626" lon="7.31057">
        <ele>281.7</ele>
        <time>2026-03-19T09:14:28Z</time>
      </trkpt>
      <trkpt lat="48.19624" lon="7.3106">
        <ele>281.5</ele>
        <time>2026-03-19T09:14:33Z</time>
      </trkpt>
      <trkpt lat="48.19623" lon="7.31061">
        <ele>281.5</ele>
        <time>2026-03-19T09:14:38Z</time>
      </trkpt>
      <trkpt lat="48.19623" lon="7.31061">
        <ele>281.5</ele>
        <time>2026-03-19T09:14:43Z</time>
      </trkpt>
      <trkpt lat="48.19623" lon="7.31061">
        <ele>281.5</ele>
        <time>2026-03-19T09:14:48Z</time>
      </trkpt>
      <trkpt lat="48.19623" lon="7.3106">
        <ele>281.6</ele>
        <time>2026-03-19T09:14:53Z</time>
      </trkpt>
      <trkpt lat="48.19619" lon="7.31062">
        <ele>281.8</ele>
        <time>2026-03-19T09:14:58Z</time>
      </trkpt>
      <trkpt lat="48.19613" lon="7.31064">
        <ele>282.2</ele>
        <time>2026-03-19T09:15:03Z</time>
      </trkpt>
      <trkpt lat="48.19608" lon="7.31066">
        <ele>282.5</ele>
        <time>2026-03-19T09:15:08Z</time>
      </trkpt>
      <trkpt lat="48.19602" lon="7.3107">
        <ele>282.5</ele>
        <time>2026-03-19T09:15:13Z</time>
      </trkpt>
      <trkpt lat="48.19592" lon="7.31074">
        <ele>282.9</ele>
        <time>2026-03-19T09:15:18Z</time>
      </trkpt>
      <trkpt lat="48.19585" lon="7.31078">
        <ele>282.9</ele>
        <time>2026-03-19T09:15:23Z</time>
      </trkpt>
      <trkpt lat="48.19582" lon="7.3108">
        <ele>282.7</ele>
        <time>2026-03-19T09:15:28Z</time>
      </trkpt>
      <trkpt lat="48.19579" lon="7.31084">
        <ele>282.1</ele>
        <time>2026-03-19T09:15:33Z</time>
      </trkpt>
      <trkpt lat="48.19575" lon="7.31088">
        <ele>281.9</ele>
        <time>2026-03-19T09:15:38Z</time>
      </trkpt>
      <trkpt lat="48.19569" lon="7.31088">
        <ele>282.2</ele>
        <time>2026-03-19T09:15:43Z</time>
      </trkpt>
      <trkpt lat="48.19564" lon="7.31094">
        <ele>281.8</ele>
        <time>2026-03-19T09:15:48Z</time>
      </trkpt>
      <trkpt lat="48.1956" lon="7.31097">
        <ele>281.7</ele>
        <time>2026-03-19T09:15:53Z</time>
      </trkpt>
      <trkpt lat="48.19555" lon="7.31101">
        <ele>281.5</ele>
        <time>2026-03-19T09:15:58Z</time>
      </trkpt>
      <trkpt lat="48.19552" lon="7.311">
        <ele>281.8</ele>
        <time>2026-03-19T09:16:03Z</time>
      </trkpt>
      <trkpt lat="48.19549" lon="7.31096">
        <ele>282.3</ele>
        <time>2026-03-19T09:16:08Z</time>
      </trkpt>
      <trkpt lat="48.19547" lon="7.31089">
        <ele>283.2</ele>
        <time>2026-03-19T09:16:13Z</time>
      </trkpt>
      <trkpt lat="48.19548" lon="7.31082">
        <ele>284</ele>
        <time>2026-03-19T09:16:18Z</time>
      </trkpt>
      <trkpt lat="48.19551" lon="7.31077">
        <ele>284.9</ele>
        <time>2026-03-19T09:16:23Z</time>
      </trkpt>
      <trkpt lat="48.19553" lon="7.31071">
        <ele>286</ele>
        <time>2026-03-19T09:16:28Z</time>
      </trkpt>
      <trkpt lat="48.19552" lon="7.31066">
        <ele>287.1</ele>
        <time>2026-03-19T09:16:33Z</time>
      </trkpt>
      <trkpt lat="48.19551" lon="7.3106">
        <ele>288.4</ele>
        <time>2026-03-19T09:16:38Z</time>
      </trkpt>
      <trkpt lat="48.1955" lon="7.31052">
        <ele>290.1</ele>
        <time>2026-03-19T09:16:43Z</time>
      </trkpt>
      <trkpt lat="48.19551" lon="7.31045">
        <ele>291.4</ele>
        <time>2026-03-19T09:16:48Z</time>
      </trkpt>
      <trkpt lat="48.19552" lon="7.31039">
        <ele>292.6</ele>
        <time>2026-03-19T09:16:53Z</time>
      </trkpt>
      <trkpt lat="48.19553" lon="7.31031">
        <ele>294.2</ele>
        <time>2026-03-19T09:16:58Z</time>
      </trkpt>
      <trkpt lat="48.19557" lon="7.31026">
        <ele>294.9</ele>
        <time>2026-03-19T09:17:03Z</time>
      </trkpt>
      <trkpt lat="48.19559" lon="7.31025">
        <ele>295</ele>
        <time>2026-03-19T09:17:08Z</time>
      </trkpt>
      <trkpt lat="48.19561" lon="7.31022">
        <ele>295.4</ele>
        <time>2026-03-19T09:17:13Z</time>
      </trkpt>
      <trkpt lat="48.19561" lon="7.31022">
        <ele>295.4</ele>
        <time>2026-03-19T09:17:18Z</time>
      </trkpt>
      <trkpt lat="48.19563" lon="7.31018">
        <ele>296.1</ele>
        <time>2026-03-19T09:17:23Z</time>
      </trkpt>
      <trkpt lat="48.19566" lon="7.31007">
        <ele>298.1</ele>
        <time>2026-03-19T09:17:28Z</time>
      </trkpt>
      <trkpt lat="48.19572" lon="7.31001">
        <ele>298.8</ele>
        <time>2026-03-19T09:17:33Z</time>
      </trkpt>
      <trkpt lat="48.19575" lon="7.30997">
        <ele>299.2</ele>
        <time>2026-03-19T09:17:38Z</time>
      </trkpt>
      <trkpt lat="48.19577" lon="7.30992">
        <ele>299.8</ele>
        <time>2026-03-19T09:17:43Z</time>
      </trkpt>
      <trkpt lat="48.19579" lon="7.30986">
        <ele>300.6</ele>
        <time>2026-03-19T09:17:48Z</time>
      </trkpt>
      <trkpt lat="48.19582" lon="7.30978">
        <ele>301.6</ele>
        <time>2026-03-19T09:17:53Z</time>
      </trkpt>
      <trkpt lat="48.19585" lon="7.30974">
        <ele>301.7</ele>
        <time>2026-03-19T09:17:58Z</time>
      </trkpt>
      <trkpt lat="48.19589" lon="7.3097">
        <ele>301.6</ele>
        <time>2026-03-19T09:18:03Z</time>
      </trkpt>
      <trkpt lat="48.19594" lon="7.30966">
        <ele>301.3</ele>
        <time>2026-03-19T09:18:08Z</time>
      </trkpt>
      <trkpt lat="48.19596" lon="7.30968">
        <ele>300.6</ele>
        <time>2026-03-19T09:18:13Z</time>
      </trkpt>
      <trkpt lat="48.19598" lon="7.30972">
        <ele>299.6</ele>
        <time>2026-03-19T09:18:18Z</time>
      </trkpt>
      <trkpt lat="48.19601" lon="7.30975">
        <ele>298.5</ele>
        <time>2026-03-19T09:18:23Z</time>
      </trkpt>
      <trkpt lat="48.19603" lon="7.30979">
        <ele>297.5</ele>
        <time>2026-03-19T09:18:28Z</time>
      </trkpt>
      <trkpt lat="48.19603" lon="7.3098">
        <ele>297.3</ele>
        <time>2026-03-19T09:18:33Z</time>
      </trkpt>
      <trkpt lat="48.19603" lon="7.3098">
        <ele>297.3</ele>
        <time>2026-03-19T09:18:38Z</time>
      </trkpt>
      <trkpt lat="48.19603" lon="7.3098">
        <ele>297.3</ele>
        <time>2026-03-19T09:18:43Z</time>
      </trkpt>
      <trkpt lat="48.19603" lon="7.3098">
        <ele>297.3</ele>
        <time>2026-03-19T09:18:48Z</time>
      </trkpt>
      <trkpt lat="48.19603" lon="7.3098">
        <ele>297.3</ele>
        <time>2026-03-19T09:18:53Z</time>
      </trkpt>
      <trkpt lat="48.19603" lon="7.3098">
        <ele>297.3</ele>
        <time>2026-03-19T09:18:58Z</time>
      </trkpt>
      <trkpt lat="48.19594" lon="7.30972">
        <ele>300.3</ele>
        <time>2026-03-19T09:19:03Z</time>
      </trkpt>
      <trkpt lat="48.19586" lon="7.30965">
        <ele>302.9</ele>
        <time>2026-03-19T09:19:08Z</time>
      </trkpt>
      <trkpt lat="48.19585" lon="7.30961">
        <ele>303.8</ele>
        <time>2026-03-19T09:19:13Z</time>
      </trkpt>
      <trkpt lat="48.1959" lon="7.30957">
        <ele>303.4</ele>
        <time>2026-03-19T09:19:18Z</time>
      </trkpt>
      <trkpt lat="48.19593" lon="7.30953">
        <ele>303.5</ele>
        <time>2026-03-19T09:19:23Z</time>
      </trkpt>
      <trkpt lat="48.19597" lon="7.30949">
        <ele>303.3</ele>
        <time>2026-03-19T09:19:28Z</time>
      </trkpt>
      <trkpt lat="48.19601" lon="7.30947">
        <ele>302.9</ele>
        <time>2026-03-19T09:19:33Z</time>
      </trkpt>
      <trkpt lat="48.19606" lon="7.30945">
        <ele>302.2</ele>
        <time>2026-03-19T09:19:38Z</time>
      </trkpt>
      <trkpt lat="48.1961" lon="7.3094">
        <ele>302.2</ele>
        <time>2026-03-19T09:19:43Z</time>
      </trkpt>
      <trkpt lat="48.19615" lon="7.30935">
        <ele>302.1</ele>
        <time>2026-03-19T09:19:48Z</time>
      </trkpt>
      <trkpt lat="48.19617" lon="7.30927">
        <ele>302.9</ele>
        <time>2026-03-19T09:19:53Z</time>
      </trkpt>
      <trkpt lat="48.1962" lon="7.30918">
        <ele>303.8</ele>
        <time>2026-03-19T09:19:58Z</time>
      </trkpt>
      <trkpt lat="48.19623" lon="7.30912">
        <ele>304.5</ele>
        <time>2026-03-19T09:20:03Z</time>
      </trkpt>
      <trkpt lat="48.19626" lon="7.30906">
        <ele>305.4</ele>
        <time>2026-03-19T09:20:08Z</time>
      </trkpt>
      <trkpt lat="48.1963" lon="7.309">
        <ele>306.2</ele>
        <time>2026-03-19T09:20:13Z</time>
      </trkpt>
      <trkpt lat="48.19633" lon="7.30895">
        <ele>307.1</ele>
        <time>2026-03-19T09:20:18Z</time>
      </trkpt>
      <trkpt lat="48.19636" lon="7.30892">
        <ele>307.4</ele>
        <time>2026-03-19T09:20:23Z</time>
      </trkpt>
      <trkpt lat="48.1964" lon="7.30889">
        <ele>307.7</ele>
        <time>2026-03-19T09:20:28Z</time>
      </trkpt>
      <trkpt lat="48.19645" lon="7.30887">
        <ele>307.6</ele>
        <time>2026-03-19T09:20:33Z</time>
      </trkpt>
      <trkpt lat="48.19648" lon="7.30883">
        <ele>308.4</ele>
        <time>2026-03-19T09:20:38Z</time>
      </trkpt>
      <trkpt lat="48.19652" lon="7.30879">
        <ele>309.2</ele>
        <time>2026-03-19T09:20:43Z</time>
      </trkpt>
      <trkpt lat="48.19655" lon="7.30874">
        <ele>310.4</ele>
        <time>2026-03-19T09:20:48Z</time>
      </trkpt>
      <trkpt lat="48.19659" lon="7.30869">
        <ele>311.6</ele>
        <time>2026-03-19T09:20:53Z</time>
      </trkpt>
      <trkpt lat="48.19664" lon="7.30865">
        <ele>312.6</ele>
        <time>2026-03-19T09:20:58Z</time>
      </trkpt>
      <trkpt lat="48.19667" lon="7.3086">
        <ele>313.9</ele>
        <time>2026-03-19T09:21:03Z</time>
      </trkpt>
      <trkpt lat="48.19668" lon="7.30854">
        <ele>315.7</ele>
        <time>2026-03-19T09:21:08Z</time>
      </trkpt>
      <trkpt lat="48.1967" lon="7.30849">
        <ele>316.7</ele>
        <time>2026-03-19T09:21:13Z</time>
      </trkpt>
      <trkpt lat="48.19672" lon="7.30844">
        <ele>317.8</ele>
        <time>2026-03-19T09:21:18Z</time>
      </trkpt>
      <trkpt lat="48.19675" lon="7.30838">
        <ele>318.8</ele>
        <time>2026-03-19T09:21:23Z</time>
      </trkpt>
      <trkpt lat="48.19677" lon="7.30837">
        <ele>318.5</ele>
        <time>2026-03-19T09:21:28Z</time>
      </trkpt>
      <trkpt lat="48.19678" lon="7.30837">
        <ele>318.1</ele>
        <time>2026-03-19T09:21:33Z</time>
      </trkpt>
      <trkpt lat="48.19679" lon="7.30831">
        <ele>319.5</ele>
        <time>2026-03-19T09:21:38Z</time>
      </trkpt>
      <trkpt lat="48.19681" lon="7.30826">
        <ele>319.8</ele>
        <time>2026-03-19T09:21:43Z</time>
      </trkpt>
      <trkpt lat="48.19682" lon="7.3082">
        <ele>320.7</ele>
        <time>2026-03-19T09:21:48Z</time>
      </trkpt>
      <trkpt lat="48.19684" lon="7.30814">
        <ele>321.3</ele>
        <time>2026-03-19T09:21:53Z</time>
      </trkpt>
      <trkpt lat="48.19685" lon="7.30807">
        <ele>322.4</ele>
        <time>2026-03-19T09:21:58Z</time>
      </trkpt>
      <trkpt lat="48.19684" lon="7.30798">
        <ele>324.5</ele>
        <time>2026-03-19T09:22:03Z</time>
      </trkpt>
      <trkpt lat="48.19686" lon="7.30788">
        <ele>325.9</ele>
        <time>2026-03-19T09:22:08Z</time>
      </trkpt>
      <trkpt lat="48.19685" lon="7.30779">
        <ele>328.1</ele>
        <time>2026-03-19T09:22:13Z</time>
      </trkpt>
      <trkpt lat="48.19684" lon="7.30773">
        <ele>329.6</ele>
        <time>2026-03-19T09:22:18Z</time>
      </trkpt>
      <trkpt lat="48.19684" lon="7.30769">
        <ele>330.4</ele>
        <time>2026-03-19T09:22:23Z</time>
      </trkpt>
      <trkpt lat="48.19685" lon="7.30761">
        <ele>331.7</ele>
        <time>2026-03-19T09:22:28Z</time>
      </trkpt>
      <trkpt lat="48.19684" lon="7.30754">
        <ele>333.4</ele>
        <time>2026-03-19T09:22:33Z</time>
      </trkpt>
      <trkpt lat="48.1968" lon="7.30746">
        <ele>335.9</ele>
        <time>2026-03-19T09:22:38Z</time>
      </trkpt>
      <trkpt lat="48.19678" lon="7.30742">
        <ele>337</ele>
        <time>2026-03-19T09:22:43Z</time>
      </trkpt>
      <trkpt lat="48.19676" lon="7.30734">
        <ele>338.6</ele>
        <time>2026-03-19T09:22:48Z</time>
      </trkpt>
      <trkpt lat="48.19674" lon="7.30727">
        <ele>340.2</ele>
        <time>2026-03-19T09:22:53Z</time>
      </trkpt>
      <trkpt lat="48.19673" lon="7.30721">
        <ele>341.3</ele>
        <time>2026-03-19T09:22:58Z</time>
      </trkpt>
      <trkpt lat="48.19672" lon="7.30715">
        <ele>342.4</ele>
        <time>2026-03-19T09:23:03Z</time>
      </trkpt>
      <trkpt lat="48.1967" lon="7.3071">
        <ele>343.7</ele>
        <time>2026-03-19T09:23:08Z</time>
      </trkpt>
      <trkpt lat="48.19669" lon="7.30704">
        <ele>344.9</ele>
        <time>2026-03-19T09:23:13Z</time>
      </trkpt>
      <trkpt lat="48.19668" lon="7.30698">
        <ele>346.1</ele>
        <time>2026-03-19T09:23:18Z</time>
      </trkpt>
      <trkpt lat="48.19666" lon="7.3069">
        <ele>347.6</ele>
        <time>2026-03-19T09:23:23Z</time>
      </trkpt>
      <trkpt lat="48.19664" lon="7.30681">
        <ele>349</ele>
        <time>2026-03-19T09:23:28Z</time>
      </trkpt>
      <trkpt lat="48.19662" lon="7.30676">
        <ele>349.7</ele>
        <time>2026-03-19T09:23:33Z</time>
      </trkpt>
      <trkpt lat="48.19662" lon="7.3067">
        <ele>350.6</ele>
        <time>2026-03-19T09:23:38Z</time>
      </trkpt>
      <trkpt lat="48.19662" lon="7.30666">
        <ele>351.2</ele>
        <time>2026-03-19T09:23:43Z</time>
      </trkpt>
      <trkpt lat="48.19662" lon="7.30659">
        <ele>352.2</ele>
        <time>2026-03-19T09:23:48Z</time>
      </trkpt>
      <trkpt lat="48.19661" lon="7.30652">
        <ele>353.2</ele>
        <time>2026-03-19T09:23:53Z</time>
      </trkpt>
      <trkpt lat="48.19661" lon="7.30644">
        <ele>354.3</ele>
        <time>2026-03-19T09:23:58Z</time>
      </trkpt>
      <trkpt lat="48.19662" lon="7.30637">
        <ele>355.2</ele>
        <time>2026-03-19T09:24:03Z</time>
      </trkpt>
      <trkpt lat="48.19665" lon="7.30627">
        <ele>356.3</ele>
        <time>2026-03-19T09:24:08Z</time>
      </trkpt>
      <trkpt lat="48.19668" lon="7.30618">
        <ele>356.9</ele>
        <time>2026-03-19T09:24:13Z</time>
      </trkpt>
      <trkpt lat="48.1967" lon="7.30615">
        <ele>356.6</ele>
        <time>2026-03-19T09:24:18Z</time>
      </trkpt>
      <trkpt lat="48.19671" lon="7.30608">
        <ele>357.1</ele>
        <time>2026-03-19T09:24:23Z</time>
      </trkpt>
      <trkpt lat="48.19672" lon="7.30603">
        <ele>357.4</ele>
        <time>2026-03-19T09:24:28Z</time>
      </trkpt>
      <trkpt lat="48.19672" lon="7.30601">
        <ele>357.6</ele>
        <time>2026-03-19T09:24:33Z</time>
      </trkpt>
      <trkpt lat="48.19672" lon="7.30599">
        <ele>357.9</ele>
        <time>2026-03-19T09:24:38Z</time>
      </trkpt>
      <trkpt lat="48.19672" lon="7.30599">
        <ele>357.9</ele>
        <time>2026-03-19T09:24:43Z</time>
      </trkpt>
      <trkpt lat="48.19672" lon="7.30599">
        <ele>357.9</ele>
        <time>2026-03-19T09:24:48Z</time>
      </trkpt>
      <trkpt lat="48.19672" lon="7.30599">
        <ele>357.9</ele>
        <time>2026-03-19T09:24:53Z</time>
      </trkpt>
      <trkpt lat="48.19672" lon="7.30599">
        <ele>357.9</ele>
        <time>2026-03-19T09:24:58Z</time>
      </trkpt>
      <trkpt lat="48.19672" lon="7.30599">
        <ele>357.9</ele>
        <time>2026-03-19T09:25:03Z</time>
      </trkpt>
      <trkpt lat="48.19672" lon="7.30599">
        <ele>357.9</ele>
        <time>2026-03-19T09:25:08Z</time>
      </trkpt>
      <trkpt lat="48.19672" lon="7.30599">
        <ele>357.9</ele>
        <time>2026-03-19T09:25:13Z</time>
      </trkpt>
      <trkpt lat="48.19672" lon="7.30599">
        <ele>357.9</ele>
        <time>2026-03-19T09:25:18Z</time>
      </trkpt>
      <trkpt lat="48.19672" lon="7.30599">
        <ele>357.9</ele>
        <time>2026-03-19T09:25:23Z</time>
      </trkpt>
      <trkpt lat="48.19672" lon="7.30599">
        <ele>357.9</ele>
        <time>2026-03-19T09:25:28Z</time>
      </trkpt>
      <trkpt lat="48.19672" lon="7.30599">
        <ele>357.9</ele>
        <time>2026-03-19T09:25:33Z</time>
      </trkpt>
      <trkpt lat="48.19672" lon="7.30599">
        <ele>357.9</ele>
        <time>2026-03-19T09:25:38Z</time>
      </trkpt>
      <trkpt lat="48.19672" lon="7.30599">
        <ele>357.9</ele>
        <time>2026-03-19T09:25:43Z</time>
      </trkpt>
      <trkpt lat="48.19672" lon="7.30599">
        <ele>357.9</ele>
        <time>2026-03-19T09:25:48Z</time>
      </trkpt>
      <trkpt lat="48.19672" lon="7.30599">
        <ele>357.9</ele>
        <time>2026-03-19T09:25:53Z</time>
      </trkpt>
      <trkpt lat="48.19672" lon="7.30599">
        <ele>357.9</ele>
        <time>2026-03-19T09:25:58Z</time>
      </trkpt>
      <trkpt lat="48.19672" lon="7.30599">
        <ele>357.9</ele>
        <time>2026-03-19T09:26:03Z</time>
      </trkpt>
      <trkpt lat="48.19672" lon="7.30599">
        <ele>357.9</ele>
        <time>2026-03-19T09:26:08Z</time>
      </trkpt>
      <trkpt lat="48.19672" lon="7.30599">
        <ele>357.9</ele>
        <time>2026-03-19T09:26:13Z</time>
      </trkpt>
      <trkpt lat="48.19672" lon="7.30599">
        <ele>357.9</ele>
        <time>2026-03-19T09:26:18Z</time>
      </trkpt>
      <trkpt lat="48.1967" lon="7.30594">
        <ele>359.3</ele>
        <time>2026-03-19T09:26:23Z</time>
      </trkpt>
      <trkpt lat="48.1967" lon="7.30594">
        <ele>359.3</ele>
        <time>2026-03-19T09:26:28Z</time>
      </trkpt>
      <trkpt lat="48.1967" lon="7.30594">
        <ele>359.3</ele>
        <time>2026-03-19T09:26:33Z</time>
      </trkpt>
      <trkpt lat="48.1967" lon="7.30594">
        <ele>359.3</ele>
        <time>2026-03-19T09:26:38Z</time>
      </trkpt>
      <trkpt lat="48.1967" lon="7.30594">
        <ele>359.3</ele>
        <time>2026-03-19T09:26:43Z</time>
      </trkpt>
      <trkpt lat="48.1967" lon="7.30594">
        <ele>359.3</ele>
        <time>2026-03-19T09:26:48Z</time>
      </trkpt>
      <trkpt lat="48.1967" lon="7.30594">
        <ele>359.3</ele>
        <time>2026-03-19T09:26:53Z</time>
      </trkpt>
      <trkpt lat="48.1967" lon="7.30594">
        <ele>359.3</ele>
        <time>2026-03-19T09:26:58Z</time>
      </trkpt>
      <trkpt lat="48.1967" lon="7.30594">
        <ele>359.3</ele>
        <time>2026-03-19T09:27:03Z</time>
      </trkpt>
      <trkpt lat="48.1967" lon="7.30594">
        <ele>359.3</ele>
        <time>2026-03-19T09:27:08Z</time>
      </trkpt>
      <trkpt lat="48.1967" lon="7.30594">
        <ele>359.3</ele>
        <time>2026-03-19T09:27:13Z</time>
      </trkpt>
      <trkpt lat="48.1967" lon="7.30594">
        <ele>359.3</ele>
        <time>2026-03-19T09:27:18Z</time>
      </trkpt>
      <trkpt lat="48.1967" lon="7.30594">
        <ele>359.3</ele>
        <time>2026-03-19T09:27:23Z</time>
      </trkpt>
      <trkpt lat="48.1967" lon="7.30594">
        <ele>359.3</ele>
        <time>2026-03-19T09:27:28Z</time>
      </trkpt>
      <trkpt lat="48.19669" lon="7.30594">
        <ele>359.7</ele>
        <time>2026-03-19T09:27:33Z</time>
      </trkpt>
      <trkpt lat="48.19668" lon="7.30586">
        <ele>361.1</ele>
        <time>2026-03-19T09:27:38Z</time>
      </trkpt>
      <trkpt lat="48.19669" lon="7.30577">
        <ele>362.3</ele>
        <time>2026-03-19T09:27:43Z</time>
      </trkpt>
      <trkpt lat="48.19668" lon="7.30571">
        <ele>363.8</ele>
        <time>2026-03-19T09:27:48Z</time>
      </trkpt>
      <trkpt lat="48.19668" lon="7.30571">
        <ele>363.8</ele>
        <time>2026-03-19T09:27:53Z</time>
      </trkpt>
      <trkpt lat="48.19667" lon="7.30563">
        <ele>365.8</ele>
        <time>2026-03-19T09:27:58Z</time>
      </trkpt>
      <trkpt lat="48.19667" lon="7.30559">
        <ele>366.5</ele>
        <time>2026-03-19T09:28:03Z</time>
      </trkpt>
      <trkpt lat="48.19666" lon="7.30555">
        <ele>367.5</ele>
        <time>2026-03-19T09:28:08Z</time>
      </trkpt>
      <trkpt lat="48.19663" lon="7.30549">
        <ele>369</ele>
        <time>2026-03-19T09:28:13Z</time>
      </trkpt>
      <trkpt lat="48.19662" lon="7.30545">
        <ele>369.9</ele>
        <time>2026-03-19T09:28:18Z</time>
      </trkpt>
      <trkpt lat="48.19662" lon="7.30545">
        <ele>369.9</ele>
        <time>2026-03-19T09:28:23Z</time>
      </trkpt>
      <trkpt lat="48.19663" lon="7.30532">
        <ele>372.3</ele>
        <time>2026-03-19T09:28:28Z</time>
      </trkpt>
      <trkpt lat="48.19661" lon="7.30527">
        <ele>373.5</ele>
        <time>2026-03-19T09:28:33Z</time>
      </trkpt>
      <trkpt lat="48.1966" lon="7.30521">
        <ele>374.7</ele>
        <time>2026-03-19T09:28:38Z</time>
      </trkpt>
      <trkpt lat="48.19661" lon="7.30516">
        <ele>375.6</ele>
        <time>2026-03-19T09:28:43Z</time>
      </trkpt>
      <trkpt lat="48.1966" lon="7.3051">
        <ele>376.9</ele>
        <time>2026-03-19T09:28:48Z</time>
      </trkpt>
      <trkpt lat="48.1966" lon="7.30505">
        <ele>377.8</ele>
        <time>2026-03-19T09:28:53Z</time>
      </trkpt>
      <trkpt lat="48.19658" lon="7.30499">
        <ele>379.2</ele>
        <time>2026-03-19T09:28:58Z</time>
      </trkpt>
      <trkpt lat="48.19655" lon="7.30494">
        <ele>380.3</ele>
        <time>2026-03-19T09:29:03Z</time>
      </trkpt>
      <trkpt lat="48.19653" lon="7.30487">
        <ele>381.7</ele>
        <time>2026-03-19T09:29:08Z</time>
      </trkpt>
      <trkpt lat="48.19652" lon="7.30483">
        <ele>382.5</ele>
        <time>2026-03-19T09:29:13Z</time>
      </trkpt>
      <trkpt lat="48.19647" lon="7.30472">
        <ele>384.9</ele>
        <time>2026-03-19T09:29:18Z</time>
      </trkpt>
      <trkpt lat="48.19645" lon="7.30463">
        <ele>386.7</ele>
        <time>2026-03-19T09:29:23Z</time>
      </trkpt>
      <trkpt lat="48.19643" lon="7.30456">
        <ele>388.2</ele>
        <time>2026-03-19T09:29:28Z</time>
      </trkpt>
      <trkpt lat="48.19644" lon="7.30451">
        <ele>388.9</ele>
        <time>2026-03-19T09:29:33Z</time>
      </trkpt>
      <trkpt lat="48.19641" lon="7.30445">
        <ele>390.4</ele>
        <time>2026-03-19T09:29:38Z</time>
      </trkpt>
      <trkpt lat="48.1964" lon="7.30436">
        <ele>392.1</ele>
        <time>2026-03-19T09:29:43Z</time>
      </trkpt>
      <trkpt lat="48.1964" lon="7.30427">
        <ele>393.7</ele>
        <time>2026-03-19T09:29:48Z</time>
      </trkpt>
      <trkpt lat="48.19639" lon="7.3042">
        <ele>395.1</ele>
        <time>2026-03-19T09:29:53Z</time>
      </trkpt>
      <trkpt lat="48.19641" lon="7.3041">
        <ele>396.5</ele>
        <time>2026-03-19T09:29:58Z</time>
      </trkpt>
      <trkpt lat="48.19641" lon="7.30404">
        <ele>397.6</ele>
        <time>2026-03-19T09:30:03Z</time>
      </trkpt>
      <trkpt lat="48.19643" lon="7.30397">
        <ele>398.4</ele>
        <time>2026-03-19T09:30:08Z</time>
      </trkpt>
      <trkpt lat="48.19641" lon="7.30391">
        <ele>400</ele>
        <time>2026-03-19T09:30:13Z</time>
      </trkpt>
      <trkpt lat="48.19642" lon="7.30385">
        <ele>400.8</ele>
        <time>2026-03-19T09:30:18Z</time>
      </trkpt>
      <trkpt lat="48.19643" lon="7.30378">
        <ele>401.9</ele>
        <time>2026-03-19T09:30:23Z</time>
      </trkpt>
      <trkpt lat="48.19646" lon="7.30371">
        <ele>402.6</ele>
        <time>2026-03-19T09:30:28Z</time>
      </trkpt>
      <trkpt lat="48.19647" lon="7.30363">
        <ele>403.8</ele>
        <time>2026-03-19T09:30:33Z</time>
      </trkpt>
      <trkpt lat="48.19649" lon="7.30355">
        <ele>404.9</ele>
        <time>2026-03-19T09:30:38Z</time>
      </trkpt>
      <trkpt lat="48.19652" lon="7.30349">
        <ele>405.3</ele>
        <time>2026-03-19T09:30:43Z</time>
      </trkpt>
      <trkpt lat="48.19653" lon="7.30346">
        <ele>405.6</ele>
        <time>2026-03-19T09:30:48Z</time>
      </trkpt>
      <trkpt lat="48.19657" lon="7.30339">
        <ele>406.1</ele>
        <time>2026-03-19T09:30:53Z</time>
      </trkpt>
      <trkpt lat="48.19658" lon="7.30337">
        <ele>406.2</ele>
        <time>2026-03-19T09:30:58Z</time>
      </trkpt>
      <trkpt lat="48.19658" lon="7.30337">
        <ele>406.2</ele>
        <time>2026-03-19T09:31:03Z</time>
      </trkpt>
      <trkpt lat="48.19661" lon="7.30326">
        <ele>408.1</ele>
        <time>2026-03-19T09:31:08Z</time>
      </trkpt>
      <trkpt lat="48.19663" lon="7.3032">
        <ele>409.2</ele>
        <time>2026-03-19T09:31:13Z</time>
      </trkpt>
      <trkpt lat="48.19663" lon="7.30316">
        <ele>410.2</ele>
        <time>2026-03-19T09:31:18Z</time>
      </trkpt>
      <trkpt lat="48.19659" lon="7.30321">
        <ele>409.8</ele>
        <time>2026-03-19T09:31:23Z</time>
      </trkpt>
      <trkpt lat="48.19653" lon="7.30332">
        <ele>408.3</ele>
        <time>2026-03-19T09:31:28Z</time>
      </trkpt>
      <trkpt lat="48.19649" lon="7.30341">
        <ele>407.4</ele>
        <time>2026-03-19T09:31:33Z</time>
      </trkpt>
      <trkpt lat="48.19647" lon="7.30345">
        <ele>407.1</ele>
        <time>2026-03-19T09:31:38Z</time>
      </trkpt>
      <trkpt lat="48.19643" lon="7.30349">
        <ele>407.2</ele>
        <time>2026-03-19T09:31:43Z</time>
      </trkpt>
      <trkpt lat="48.19642" lon="7.30352">
        <ele>406.9</ele>
        <time>2026-03-19T09:31:48Z</time>
      </trkpt>
      <trkpt lat="48.19639" lon="7.30359">
        <ele>406.3</ele>
        <time>2026-03-19T09:31:53Z</time>
      </trkpt>
      <trkpt lat="48.19635" lon="7.30363">
        <ele>406.4</ele>
        <time>2026-03-19T09:31:58Z</time>
      </trkpt>
      <trkpt lat="48.19634" lon="7.30367">
        <ele>405.8</ele>
        <time>2026-03-19T09:32:03Z</time>
      </trkpt>
      <trkpt lat="48.19631" lon="7.30374">
        <ele>405.2</ele>
        <time>2026-03-19T09:32:08Z</time>
      </trkpt>
      <trkpt lat="48.1963" lon="7.30377">
        <ele>404.8</ele>
        <time>2026-03-19T09:32:13Z</time>
      </trkpt>
      <trkpt lat="48.19629" lon="7.30383">
        <ele>403.9</ele>
        <time>2026-03-19T09:32:18Z</time>
      </trkpt>
      <trkpt lat="48.19629" lon="7.30388">
        <ele>403</ele>
        <time>2026-03-19T09:32:23Z</time>
      </trkpt>
      <trkpt lat="48.19628" lon="7.30394">
        <ele>402.1</ele>
        <time>2026-03-19T09:32:28Z</time>
      </trkpt>
      <trkpt lat="48.19626" lon="7.30402">
        <ele>401</ele>
        <time>2026-03-19T09:32:33Z</time>
      </trkpt>
      <trkpt lat="48.19624" lon="7.30407">
        <ele>400.5</ele>
        <time>2026-03-19T09:32:38Z</time>
      </trkpt>
      <trkpt lat="48.19622" lon="7.3041">
        <ele>400.4</ele>
        <time>2026-03-19T09:32:43Z</time>
      </trkpt>
      <trkpt lat="48.19622" lon="7.30417">
        <ele>399</ele>
        <time>2026-03-19T09:32:48Z</time>
      </trkpt>
      <trkpt lat="48.19622" lon="7.30423">
        <ele>397.9</ele>
        <time>2026-03-19T09:32:53Z</time>
      </trkpt>
      <trkpt lat="48.19622" lon="7.30429">
        <ele>396.8</ele>
        <time>2026-03-19T09:32:58Z</time>
      </trkpt>
      <trkpt lat="48.19622" lon="7.30435">
        <ele>395.6</ele>
        <time>2026-03-19T09:33:03Z</time>
      </trkpt>
      <trkpt lat="48.19621" lon="7.30441">
        <ele>394.7</ele>
        <time>2026-03-19T09:33:08Z</time>
      </trkpt>
      <trkpt lat="48.19619" lon="7.30447">
        <ele>393.9</ele>
        <time>2026-03-19T09:33:13Z</time>
      </trkpt>
      <trkpt lat="48.19616" lon="7.30453">
        <ele>393.2</ele>
        <time>2026-03-19T09:33:18Z</time>
      </trkpt>
      <trkpt lat="48.19615" lon="7.3046">
        <ele>392</ele>
        <time>2026-03-19T09:33:23Z</time>
      </trkpt>
      <trkpt lat="48.19612" lon="7.30467">
        <ele>391.1</ele>
        <time>2026-03-19T09:33:28Z</time>
      </trkpt>
      <trkpt lat="48.19612" lon="7.30461">
        <ele>392.3</ele>
        <time>2026-03-19T09:33:33Z</time>
      </trkpt>
      <trkpt lat="48.19612" lon="7.30451">
        <ele>394.3</ele>
        <time>2026-03-19T09:33:38Z</time>
      </trkpt>
      <trkpt lat="48.19616" lon="7.30442">
        <ele>395.4</ele>
        <time>2026-03-19T09:33:43Z</time>
      </trkpt>
      <trkpt lat="48.19616" lon="7.30436">
        <ele>396.6</ele>
        <time>2026-03-19T09:33:48Z</time>
      </trkpt>
      <trkpt lat="48.19616" lon="7.30428">
        <ele>398.1</ele>
        <time>2026-03-19T09:33:53Z</time>
      </trkpt>
      <trkpt lat="48.19615" lon="7.30421">
        <ele>399.7</ele>
        <time>2026-03-19T09:33:58Z</time>
      </trkpt>
      <trkpt lat="48.19614" lon="7.30415">
        <ele>401.1</ele>
        <time>2026-03-19T09:34:03Z</time>
      </trkpt>
      <trkpt lat="48.19612" lon="7.3041">
        <ele>402.4</ele>
        <time>2026-03-19T09:34:08Z</time>
      </trkpt>
      <trkpt lat="48.19612" lon="7.30408">
        <ele>402.8</ele>
        <time>2026-03-19T09:34:13Z</time>
      </trkpt>
      <trkpt lat="48.19612" lon="7.30408">
        <ele>402.8</ele>
        <time>2026-03-19T09:34:18Z</time>
      </trkpt>
      <trkpt lat="48.1961" lon="7.30391">
        <ele>406.4</ele>
        <time>2026-03-19T09:34:23Z</time>
      </trkpt>
      <trkpt lat="48.19611" lon="7.30383">
        <ele>407.7</ele>
        <time>2026-03-19T09:34:28Z</time>
      </trkpt>
      <trkpt lat="48.19613" lon="7.30378">
        <ele>408.2</ele>
        <time>2026-03-19T09:34:33Z</time>
      </trkpt>
      <trkpt lat="48.19614" lon="7.30375">
        <ele>408.6</ele>
        <time>2026-03-19T09:34:38Z</time>
      </trkpt>
      <trkpt lat="48.19613" lon="7.30367">
        <ele>410.3</ele>
        <time>2026-03-19T09:34:43Z</time>
      </trkpt>
      <trkpt lat="48.19614" lon="7.30362">
        <ele>411</ele>
        <time>2026-03-19T09:34:48Z</time>
      </trkpt>
      <trkpt lat="48.19614" lon="7.30357">
        <ele>411.9</ele>
        <time>2026-03-19T09:34:53Z</time>
      </trkpt>
      <trkpt lat="48.19614" lon="7.3035">
        <ele>413.2</ele>
        <time>2026-03-19T09:34:58Z</time>
      </trkpt>
      <trkpt lat="48.19616" lon="7.30344">
        <ele>413.9</ele>
        <time>2026-03-19T09:35:03Z</time>
      </trkpt>
      <trkpt lat="48.19617" lon="7.30336">
        <ele>415.2</ele>
        <time>2026-03-19T09:35:08Z</time>
      </trkpt>
      <trkpt lat="48.1962" lon="7.3033">
        <ele>416</ele>
        <time>2026-03-19T09:35:13Z</time>
      </trkpt>
      <trkpt lat="48.19623" lon="7.30325">
        <ele>416.7</ele>
        <time>2026-03-19T09:35:18Z</time>
      </trkpt>
      <trkpt lat="48.19626" lon="7.30319">
        <ele>417.6</ele>
        <time>2026-03-19T09:35:23Z</time>
      </trkpt>
      <trkpt lat="48.19627" lon="7.30315">
        <ele>418.5</ele>
        <time>2026-03-19T09:35:28Z</time>
      </trkpt>
      <trkpt lat="48.19628" lon="7.3031">
        <ele>419.6</ele>
        <time>2026-03-19T09:35:33Z</time>
      </trkpt>
      <trkpt lat="48.19629" lon="7.30304">
        <ele>421</ele>
        <time>2026-03-19T09:35:38Z</time>
      </trkpt>
      <trkpt lat="48.19631" lon="7.30299">
        <ele>421.9</ele>
        <time>2026-03-19T09:35:43Z</time>
      </trkpt>
      <trkpt lat="48.19633" lon="7.30294">
        <ele>422.8</ele>
        <time>2026-03-19T09:35:48Z</time>
      </trkpt>
      <trkpt lat="48.19636" lon="7.30288">
        <ele>423.6</ele>
        <time>2026-03-19T09:35:53Z</time>
      </trkpt>
      <trkpt lat="48.19636" lon="7.30281">
        <ele>425.5</ele>
        <time>2026-03-19T09:35:58Z</time>
      </trkpt>
      <trkpt lat="48.19638" lon="7.30274">
        <ele>426.9</ele>
        <time>2026-03-19T09:36:03Z</time>
      </trkpt>
      <trkpt lat="48.19639" lon="7.30269">
        <ele>428</ele>
        <time>2026-03-19T09:36:08Z</time>
      </trkpt>
      <trkpt lat="48.19641" lon="7.30263">
        <ele>429</ele>
        <time>2026-03-19T09:36:13Z</time>
      </trkpt>
      <trkpt lat="48.19645" lon="7.30258">
        <ele>429.4</ele>
        <time>2026-03-19T09:36:18Z</time>
      </trkpt>
      <trkpt lat="48.19649" lon="7.30253">
        <ele>429.7</ele>
        <time>2026-03-19T09:36:23Z</time>
      </trkpt>
      <trkpt lat="48.19651" lon="7.30247">
        <ele>430.4</ele>
        <time>2026-03-19T09:36:28Z</time>
      </trkpt>
      <trkpt lat="48.19654" lon="7.30242">
        <ele>430.3</ele>
        <time>2026-03-19T09:36:33Z</time>
      </trkpt>
      <trkpt lat="48.19655" lon="7.30239">
        <ele>430.4</ele>
        <time>2026-03-19T09:36:38Z</time>
      </trkpt>
      <trkpt lat="48.19658" lon="7.30236">
        <ele>430</ele>
        <time>2026-03-19T09:36:43Z</time>
      </trkpt>
      <trkpt lat="48.1966" lon="7.30231">
        <ele>430.1</ele>
        <time>2026-03-19T09:36:48Z</time>
      </trkpt>
      <trkpt lat="48.19663" lon="7.30228">
        <ele>429.7</ele>
        <time>2026-03-19T09:36:53Z</time>
      </trkpt>
      <trkpt lat="48.19664" lon="7.30223">
        <ele>430</ele>
        <time>2026-03-19T09:36:58Z</time>
      </trkpt>
      <trkpt lat="48.19666" lon="7.30217">
        <ele>430.2</ele>
        <time>2026-03-19T09:37:03Z</time>
      </trkpt>
      <trkpt lat="48.19669" lon="7.30212">
        <ele>429.3</ele>
        <time>2026-03-19T09:37:08Z</time>
      </trkpt>
      <trkpt lat="48.19669" lon="7.30204">
        <ele>430.3</ele>
        <time>2026-03-19T09:37:13Z</time>
      </trkpt>
      <trkpt lat="48.19668" lon="7.30196">
        <ele>431.8</ele>
        <time>2026-03-19T09:37:18Z</time>
      </trkpt>
      <trkpt lat="48.19668" lon="7.30189">
        <ele>432.6</ele>
        <time>2026-03-19T09:37:23Z</time>
      </trkpt>
      <trkpt lat="48.19668" lon="7.30181">
        <ele>433.6</ele>
        <time>2026-03-19T09:37:28Z</time>
      </trkpt>
      <trkpt lat="48.19667" lon="7.30173">
        <ele>435.1</ele>
        <time>2026-03-19T09:37:33Z</time>
      </trkpt>
      <trkpt lat="48.19666" lon="7.30166">
        <ele>436.3</ele>
        <time>2026-03-19T09:37:38Z</time>
      </trkpt>
      <trkpt lat="48.19665" lon="7.30159">
        <ele>437.3</ele>
        <time>2026-03-19T09:37:43Z</time>
      </trkpt>
      <trkpt lat="48.19663" lon="7.30151">
        <ele>438.7</ele>
        <time>2026-03-19T09:37:48Z</time>
      </trkpt>
      <trkpt lat="48.19661" lon="7.30145">
        <ele>440</ele>
        <time>2026-03-19T09:37:53Z</time>
      </trkpt>
      <trkpt lat="48.1966" lon="7.30139">
        <ele>440.9</ele>
        <time>2026-03-19T09:37:58Z</time>
      </trkpt>
      <trkpt lat="48.19659" lon="7.30133">
        <ele>441.8</ele>
        <time>2026-03-19T09:38:03Z</time>
      </trkpt>
      <trkpt lat="48.19658" lon="7.30129">
        <ele>442.6</ele>
        <time>2026-03-19T09:38:08Z</time>
      </trkpt>
      <trkpt lat="48.19658" lon="7.30124">
        <ele>443.1</ele>
        <time>2026-03-19T09:38:13Z</time>
      </trkpt>
      <trkpt lat="48.19657" lon="7.30118">
        <ele>444</ele>
        <time>2026-03-19T09:38:18Z</time>
      </trkpt>
      <trkpt lat="48.19655" lon="7.30112">
        <ele>445.4</ele>
        <time>2026-03-19T09:38:23Z</time>
      </trkpt>
      <trkpt lat="48.19653" lon="7.30105">
        <ele>446.9</ele>
        <time>2026-03-19T09:38:28Z</time>
      </trkpt>
      <trkpt lat="48.19654" lon="7.30098">
        <ele>447.2</ele>
        <time>2026-03-19T09:38:33Z</time>
      </trkpt>
      <trkpt lat="48.19656" lon="7.30089">
        <ele>447.2</ele>
        <time>2026-03-19T09:38:38Z</time>
      </trkpt>
      <trkpt lat="48.19656" lon="7.30082">
        <ele>447.9</ele>
        <time>2026-03-19T09:38:43Z</time>
      </trkpt>
      <trkpt lat="48.19656" lon="7.30073">
        <ele>448.8</ele>
        <time>2026-03-19T09:38:48Z</time>
      </trkpt>
      <trkpt lat="48.19658" lon="7.30069">
        <ele>448.3</ele>
        <time>2026-03-19T09:38:53Z</time>
      </trkpt>
      <trkpt lat="48.19661" lon="7.30064">
        <ele>447.4</ele>
        <time>2026-03-19T09:38:58Z</time>
      </trkpt>
      <trkpt lat="48.19663" lon="7.30061">
        <ele>446.8</ele>
        <time>2026-03-19T09:39:03Z</time>
      </trkpt>
      <trkpt lat="48.19673" lon="7.30057">
        <ele>442.9</ele>
        <time>2026-03-19T09:39:08Z</time>
      </trkpt>
      <trkpt lat="48.1968" lon="7.30057">
        <ele>440</ele>
        <time>2026-03-19T09:39:13Z</time>
      </trkpt>
      <trkpt lat="48.19685" lon="7.30056">
        <ele>438.1</ele>
        <time>2026-03-19T09:39:18Z</time>
      </trkpt>
      <trkpt lat="48.19688" lon="7.30057">
        <ele>436.7</ele>
        <time>2026-03-19T09:39:23Z</time>
      </trkpt>
      <trkpt lat="48.19692" lon="7.30058">
        <ele>434.9</ele>
        <time>2026-03-19T09:39:28Z</time>
      </trkpt>
      <trkpt lat="48.19697" lon="7.30055">
        <ele>433.2</ele>
        <time>2026-03-19T09:39:33Z</time>
      </trkpt>
      <trkpt lat="48.19701" lon="7.30053">
        <ele>431.9</ele>
        <time>2026-03-19T09:39:38Z</time>
      </trkpt>
      <trkpt lat="48.19703" lon="7.30053">
        <ele>431</ele>
        <time>2026-03-19T09:39:43Z</time>
      </trkpt>
      <trkpt lat="48.19705" lon="7.30049">
        <ele>430.8</ele>
        <time>2026-03-19T09:39:48Z</time>
      </trkpt>
      <trkpt lat="48.19708" lon="7.30047">
        <ele>429.9</ele>
        <time>2026-03-19T09:39:53Z</time>
      </trkpt>
      <trkpt lat="48.19709" lon="7.30045">
        <ele>429.8</ele>
        <time>2026-03-19T09:39:58Z</time>
      </trkpt>
      <trkpt lat="48.19712" lon="7.30043">
        <ele>428.9</ele>
        <time>2026-03-19T09:40:03Z</time>
      </trkpt>
      <trkpt lat="48.19715" lon="7.3004">
        <ele>428.1</ele>
        <time>2026-03-19T09:40:08Z</time>
      </trkpt>
      <trkpt lat="48.19719" lon="7.30033">
        <ele>427.6</ele>
        <time>2026-03-19T09:40:13Z</time>
      </trkpt>
      <trkpt lat="48.19721" lon="7.30028">
        <ele>427.7</ele>
        <time>2026-03-19T09:40:18Z</time>
      </trkpt>
      <trkpt lat="48.19724" lon="7.30022">
        <ele>427.5</ele>
        <time>2026-03-19T09:40:23Z</time>
      </trkpt>
      <trkpt lat="48.19726" lon="7.30016">
        <ele>427.7</ele>
        <time>2026-03-19T09:40:28Z</time>
      </trkpt>
      <trkpt lat="48.19729" lon="7.30011">
        <ele>427.5</ele>
        <time>2026-03-19T09:40:33Z</time>
      </trkpt>
      <trkpt lat="48.19733" lon="7.30005">
        <ele>427.1</ele>
        <time>2026-03-19T09:40:38Z</time>
      </trkpt>
      <trkpt lat="48.19735" lon="7.29998">
        <ele>428</ele>
        <time>2026-03-19T09:40:43Z</time>
      </trkpt>
      <trkpt lat="48.19737" lon="7.29993">
        <ele>429.3</ele>
        <time>2026-03-19T09:40:48Z</time>
      </trkpt>
      <trkpt lat="48.19737" lon="7.29987">
        <ele>431.6</ele>
        <time>2026-03-19T09:40:53Z</time>
      </trkpt>
      <trkpt lat="48.19737" lon="7.29982">
        <ele>433.6</ele>
        <time>2026-03-19T09:40:58Z</time>
      </trkpt>
      <trkpt lat="48.19737" lon="7.29979">
        <ele>434.7</ele>
        <time>2026-03-19T09:41:03Z</time>
      </trkpt>
      <trkpt lat="48.19737" lon="7.29979">
        <ele>434.7</ele>
        <time>2026-03-19T09:41:08Z</time>
      </trkpt>
      <trkpt lat="48.19737" lon="7.29979">
        <ele>434.7</ele>
        <time>2026-03-19T09:41:13Z</time>
      </trkpt>
      <trkpt lat="48.19737" lon="7.29979">
        <ele>434.7</ele>
        <time>2026-03-19T09:41:18Z</time>
      </trkpt>
      <trkpt lat="48.19737" lon="7.29979">
        <ele>434.7</ele>
        <time>2026-03-19T09:41:23Z</time>
      </trkpt>
      <trkpt lat="48.19737" lon="7.29979">
        <ele>434.7</ele>
        <time>2026-03-19T09:41:28Z</time>
      </trkpt>
      <trkpt lat="48.19737" lon="7.29979">
        <ele>434.7</ele>
        <time>2026-03-19T09:41:33Z</time>
      </trkpt>
      <trkpt lat="48.19737" lon="7.29979">
        <ele>434.7</ele>
        <time>2026-03-19T09:41:38Z</time>
      </trkpt>
      <trkpt lat="48.19737" lon="7.29979">
        <ele>434.7</ele>
        <time>2026-03-19T09:41:43Z</time>
      </trkpt>
      <trkpt lat="48.19737" lon="7.29979">
        <ele>434.7</ele>
        <time>2026-03-19T09:41:48Z</time>
      </trkpt>
      <trkpt lat="48.19744" lon="7.29971">
        <ele>435.7</ele>
        <time>2026-03-19T09:41:53Z</time>
      </trkpt>
      <trkpt lat="48.19747" lon="7.29966">
        <ele>436.8</ele>
        <time>2026-03-19T09:41:58Z</time>
      </trkpt>
      <trkpt lat="48.19748" lon="7.29956">
        <ele>440.5</ele>
        <time>2026-03-19T09:42:03Z</time>
      </trkpt>
      <trkpt lat="48.19751" lon="7.29952">
        <ele>441.3</ele>
        <time>2026-03-19T09:42:08Z</time>
      </trkpt>
      <trkpt lat="48.19755" lon="7.29948">
        <ele>441.7</ele>
        <time>2026-03-19T09:42:13Z</time>
      </trkpt>
      <trkpt lat="48.19754" lon="7.29941">
        <ele>444.9</ele>
        <time>2026-03-19T09:42:18Z</time>
      </trkpt>
      <trkpt lat="48.19757" lon="7.29935">
        <ele>446.4</ele>
        <time>2026-03-19T09:42:23Z</time>
      </trkpt>
      <trkpt lat="48.19761" lon="7.29929">
        <ele>447.5</ele>
        <time>2026-03-19T09:42:28Z</time>
      </trkpt>
      <trkpt lat="48.19762" lon="7.29925">
        <ele>448.8</ele>
        <time>2026-03-19T09:42:33Z</time>
      </trkpt>
      <trkpt lat="48.19765" lon="7.29922">
        <ele>449</ele>
        <time>2026-03-19T09:42:38Z</time>
      </trkpt>
      <trkpt lat="48.1977" lon="7.29918">
        <ele>449</ele>
        <time>2026-03-19T09:42:43Z</time>
      </trkpt>
      <trkpt lat="48.19775" lon="7.29919">
        <ele>447</ele>
        <time>2026-03-19T09:42:48Z</time>
      </trkpt>
      <trkpt lat="48.1978" lon="7.2992">
        <ele>445</ele>
        <time>2026-03-19T09:42:53Z</time>
      </trkpt>
      <trkpt lat="48.19785" lon="7.29919">
        <ele>443.8</ele>
        <time>2026-03-19T09:42:58Z</time>
      </trkpt>
      <trkpt lat="48.19788" lon="7.29918">
        <ele>443.2</ele>
        <time>2026-03-19T09:43:03Z</time>
      </trkpt>
      <trkpt lat="48.19793" lon="7.29918">
        <ele>441.6</ele>
        <time>2026-03-19T09:43:08Z</time>
      </trkpt>
      <trkpt lat="48.19797" lon="7.29916">
        <ele>441.1</ele>
        <time>2026-03-19T09:43:13Z</time>
      </trkpt>
      <trkpt lat="48.19801" lon="7.29916">
        <ele>439.8</ele>
        <time>2026-03-19T09:43:18Z</time>
      </trkpt>
      <trkpt lat="48.19804" lon="7.29917">
        <ele>438.4</ele>
        <time>2026-03-19T09:43:23Z</time>
      </trkpt>
      <trkpt lat="48.19806" lon="7.29917">
        <ele>437.7</ele>
        <time>2026-03-19T09:43:28Z</time>
      </trkpt>
      <trkpt lat="48.1981" lon="7.29917">
        <ele>436.4</ele>
        <time>2026-03-19T09:43:33Z</time>
      </trkpt>
      <trkpt lat="48.19815" lon="7.29915">
        <ele>435.6</ele>
        <time>2026-03-19T09:43:38Z</time>
      </trkpt>
      <trkpt lat="48.19821" lon="7.29912">
        <ele>434.9</ele>
        <time>2026-03-19T09:43:43Z</time>
      </trkpt>
      <trkpt lat="48.19824" lon="7.29912">
        <ele>433.9</ele>
        <time>2026-03-19T09:43:48Z</time>
      </trkpt>
      <trkpt lat="48.19824" lon="7.29912">
        <ele>433.9</ele>
        <time>2026-03-19T09:43:53Z</time>
      </trkpt>
      <trkpt lat="48.19824" lon="7.29912">
        <ele>433.9</ele>
        <time>2026-03-19T09:43:58Z</time>
      </trkpt>
      <trkpt lat="48.19824" lon="7.29912">
        <ele>433.9</ele>
        <time>2026-03-19T09:44:03Z</time>
      </trkpt>
      <trkpt lat="48.19824" lon="7.29912">
        <ele>433.9</ele>
        <time>2026-03-19T09:44:08Z</time>
      </trkpt>
      <trkpt lat="48.19824" lon="7.29912">
        <ele>433.9</ele>
        <time>2026-03-19T09:44:13Z</time>
      </trkpt>
      <trkpt lat="48.19824" lon="7.29912">
        <ele>433.9</ele>
        <time>2026-03-19T09:44:18Z</time>
      </trkpt>
      <trkpt lat="48.19827" lon="7.29914">
        <ele>432.1</ele>
        <time>2026-03-19T09:44:23Z</time>
      </trkpt>
      <trkpt lat="48.19829" lon="7.29914">
        <ele>431.5</ele>
        <time>2026-03-19T09:44:28Z</time>
      </trkpt>
      <trkpt lat="48.19834" lon="7.29913">
        <ele>430.3</ele>
        <time>2026-03-19T09:44:33Z</time>
      </trkpt>
      <trkpt lat="48.1984" lon="7.29906">
        <ele>431.6</ele>
        <time>2026-03-19T09:44:38Z</time>
      </trkpt>
      <trkpt lat="48.19844" lon="7.29899">
        <ele>433.3</ele>
        <time>2026-03-19T09:44:43Z</time>
      </trkpt>
      <trkpt lat="48.19847" lon="7.29892">
        <ele>435.1</ele>
        <time>2026-03-19T09:44:48Z</time>
      </trkpt>
      <trkpt lat="48.1985" lon="7.29889">
        <ele>435.4</ele>
        <time>2026-03-19T09:44:53Z</time>
      </trkpt>
      <trkpt lat="48.19852" lon="7.2989">
        <ele>434.5</ele>
        <time>2026-03-19T09:44:58Z</time>
      </trkpt>
      <trkpt lat="48.19852" lon="7.29886">
        <ele>436</ele>
        <time>2026-03-19T09:45:03Z</time>
      </trkpt>
      <trkpt lat="48.19853" lon="7.29881">
        <ele>437.5</ele>
        <time>2026-03-19T09:45:08Z</time>
      </trkpt>
      <trkpt lat="48.19857" lon="7.29875">
        <ele>438.5</ele>
        <time>2026-03-19T09:45:13Z</time>
      </trkpt>
      <trkpt lat="48.1986" lon="7.2987">
        <ele>439.4</ele>
        <time>2026-03-19T09:45:18Z</time>
      </trkpt>
      <trkpt lat="48.1986" lon="7.29863">
        <ele>441.9</ele>
        <time>2026-03-19T09:45:23Z</time>
      </trkpt>
      <trkpt lat="48.19863" lon="7.29856">
        <ele>443.4</ele>
        <time>2026-03-19T09:45:28Z</time>
      </trkpt>
      <trkpt lat="48.19864" lon="7.29851">
        <ele>444.8</ele>
        <time>2026-03-19T09:45:33Z</time>
      </trkpt>
      <trkpt lat="48.19864" lon="7.29844">
        <ele>447.3</ele>
        <time>2026-03-19T09:45:38Z</time>
      </trkpt>
      <trkpt lat="48.19865" lon="7.29837">
        <ele>449.3</ele>
        <time>2026-03-19T09:45:43Z</time>
      </trkpt>
      <trkpt lat="48.19866" lon="7.29831">
        <ele>450.8</ele>
        <time>2026-03-19T09:45:48Z</time>
      </trkpt>
      <trkpt lat="48.19867" lon="7.29824">
        <ele>451.9</ele>
        <time>2026-03-19T09:45:53Z</time>
      </trkpt>
      <trkpt lat="48.19867" lon="7.29817">
        <ele>453.5</ele>
        <time>2026-03-19T09:45:58Z</time>
      </trkpt>
      <trkpt lat="48.19866" lon="7.29809">
        <ele>455.7</ele>
        <time>2026-03-19T09:46:03Z</time>
      </trkpt>
      <trkpt lat="48.19865" lon="7.29801">
        <ele>457.9</ele>
        <time>2026-03-19T09:46:08Z</time>
      </trkpt>
      <trkpt lat="48.19864" lon="7.29794">
        <ele>459.9</ele>
        <time>2026-03-19T09:46:13Z</time>
      </trkpt>
      <trkpt lat="48.19861" lon="7.29786">
        <ele>463.2</ele>
        <time>2026-03-19T09:46:18Z</time>
      </trkpt>
      <trkpt lat="48.1986" lon="7.29779">
        <ele>465.4</ele>
        <time>2026-03-19T09:46:23Z</time>
      </trkpt>
      <trkpt lat="48.19858" lon="7.29773">
        <ele>467.9</ele>
        <time>2026-03-19T09:46:28Z</time>
      </trkpt>
      <trkpt lat="48.19855" lon="7.29766">
        <ele>471.2</ele>
        <time>2026-03-19T09:46:33Z</time>
      </trkpt>
      <trkpt lat="48.19855" lon="7.29759">
        <ele>473</ele>
        <time>2026-03-19T09:46:38Z</time>
      </trkpt>
      <trkpt lat="48.19854" lon="7.29753">
        <ele>475.1</ele>
        <time>2026-03-19T09:46:43Z</time>
      </trkpt>
      <trkpt lat="48.19853" lon="7.29747">
        <ele>476.5</ele>
        <time>2026-03-19T09:46:48Z</time>
      </trkpt>
      <trkpt lat="48.19852" lon="7.29739">
        <ele>477.3</ele>
        <time>2026-03-19T09:46:53Z</time>
      </trkpt>
      <trkpt lat="48.19849" lon="7.29735">
        <ele>479.2</ele>
        <time>2026-03-19T09:46:58Z</time>
      </trkpt>
      <trkpt lat="48.19847" lon="7.2973">
        <ele>480.5</ele>
        <time>2026-03-19T09:47:03Z</time>
      </trkpt>
      <trkpt lat="48.19846" lon="7.29725">
        <ele>481.3</ele>
        <time>2026-03-19T09:47:08Z</time>
      </trkpt>
      <trkpt lat="48.19844" lon="7.29721">
        <ele>482.7</ele>
        <time>2026-03-19T09:47:13Z</time>
      </trkpt>
      <trkpt lat="48.19839" lon="7.29714">
        <ele>486.1</ele>
        <time>2026-03-19T09:47:18Z</time>
      </trkpt>
      <trkpt lat="48.19835" lon="7.29705">
        <ele>489.1</ele>
        <time>2026-03-19T09:47:23Z</time>
      </trkpt>
      <trkpt lat="48.19833" lon="7.29701">
        <ele>490.5</ele>
        <time>2026-03-19T09:47:28Z</time>
      </trkpt>
      <trkpt lat="48.1983" lon="7.29695">
        <ele>492.5</ele>
        <time>2026-03-19T09:47:33Z</time>
      </trkpt>
      <trkpt lat="48.19828" lon="7.29689">
        <ele>493.9</ele>
        <time>2026-03-19T09:47:38Z</time>
      </trkpt>
      <trkpt lat="48.19824" lon="7.29686">
        <ele>496.4</ele>
        <time>2026-03-19T09:47:43Z</time>
      </trkpt>
      <trkpt lat="48.1982" lon="7.29679">
        <ele>499.1</ele>
        <time>2026-03-19T09:47:48Z</time>
      </trkpt>
      <trkpt lat="48.19818" lon="7.29673">
        <ele>500.6</ele>
        <time>2026-03-19T09:47:53Z</time>
      </trkpt>
      <trkpt lat="48.19815" lon="7.29667">
        <ele>502.8</ele>
        <time>2026-03-19T09:47:58Z</time>
      </trkpt>
      <trkpt lat="48.19815" lon="7.29662">
        <ele>502.7</ele>
        <time>2026-03-19T09:48:03Z</time>
      </trkpt>
      <trkpt lat="48.19815" lon="7.29656">
        <ele>502.7</ele>
        <time>2026-03-19T09:48:08Z</time>
      </trkpt>
      <trkpt lat="48.19814" lon="7.29654">
        <ele>503.2</ele>
        <time>2026-03-19T09:48:13Z</time>
      </trkpt>
      <trkpt lat="48.19814" lon="7.29654">
        <ele>503.2</ele>
        <time>2026-03-19T09:48:18Z</time>
      </trkpt>
      <trkpt lat="48.19811" lon="7.29639">
        <ele>504.8</ele>
        <time>2026-03-19T09:48:23Z</time>
      </trkpt>
      <trkpt lat="48.1981" lon="7.29632">
        <ele>505.3</ele>
        <time>2026-03-19T09:48:28Z</time>
      </trkpt>
      <trkpt lat="48.19806" lon="7.29626">
        <ele>507.6</ele>
        <time>2026-03-19T09:48:33Z</time>
      </trkpt>
      <trkpt lat="48.19804" lon="7.29621">
        <ele>508.7</ele>
        <time>2026-03-19T09:48:38Z</time>
      </trkpt>
      <trkpt lat="48.19803" lon="7.29614">
        <ele>509.2</ele>
        <time>2026-03-19T09:48:43Z</time>
      </trkpt>
      <trkpt lat="48.19801" lon="7.29608">
        <ele>510.3</ele>
        <time>2026-03-19T09:48:48Z</time>
      </trkpt>
      <trkpt lat="48.19801" lon="7.29602">
        <ele>510.2</ele>
        <time>2026-03-19T09:48:53Z</time>
      </trkpt>
      <trkpt lat="48.19803" lon="7.29594">
        <ele>509</ele>
        <time>2026-03-19T09:48:58Z</time>
      </trkpt>
      <trkpt lat="48.19806" lon="7.29587">
        <ele>507.1</ele>
        <time>2026-03-19T09:49:03Z</time>
      </trkpt>
      <trkpt lat="48.19808" lon="7.29582">
        <ele>505.9</ele>
        <time>2026-03-19T09:49:08Z</time>
      </trkpt>
      <trkpt lat="48.19811" lon="7.2958">
        <ele>504.1</ele>
        <time>2026-03-19T09:49:13Z</time>
      </trkpt>
      <trkpt lat="48.19815" lon="7.29575">
        <ele>501.7</ele>
        <time>2026-03-19T09:49:18Z</time>
      </trkpt>
      <trkpt lat="48.19817" lon="7.2957">
        <ele>500.5</ele>
        <time>2026-03-19T09:49:23Z</time>
      </trkpt>
      <trkpt lat="48.1982" lon="7.29566">
        <ele>498.7</ele>
        <time>2026-03-19T09:49:28Z</time>
      </trkpt>
      <trkpt lat="48.19822" lon="7.29564">
        <ele>497.5</ele>
        <time>2026-03-19T09:49:33Z</time>
      </trkpt>
      <trkpt lat="48.19823" lon="7.29564">
        <ele>497</ele>
        <time>2026-03-19T09:49:38Z</time>
      </trkpt>
      <trkpt lat="48.19826" lon="7.29557">
        <ele>495.2</ele>
        <time>2026-03-19T09:49:43Z</time>
      </trkpt>
      <trkpt lat="48.19828" lon="7.29553">
        <ele>494</ele>
        <time>2026-03-19T09:49:48Z</time>
      </trkpt>
      <trkpt lat="48.19829" lon="7.2955">
        <ele>493.5</ele>
        <time>2026-03-19T09:49:53Z</time>
      </trkpt>
      <trkpt lat="48.1983" lon="7.29543">
        <ele>492.9</ele>
        <time>2026-03-19T09:49:58Z</time>
      </trkpt>
      <trkpt lat="48.19829" lon="7.29538">
        <ele>493.4</ele>
        <time>2026-03-19T09:50:03Z</time>
      </trkpt>
      <trkpt lat="48.19829" lon="7.2953">
        <ele>493.4</ele>
        <time>2026-03-19T09:50:08Z</time>
      </trkpt>
      <trkpt lat="48.19829" lon="7.29522">
        <ele>493.4</ele>
        <time>2026-03-19T09:50:13Z</time>
      </trkpt>
      <trkpt lat="48.19829" lon="7.29517">
        <ele>493.4</ele>
        <time>2026-03-19T09:50:18Z</time>
      </trkpt>
      <trkpt lat="48.19826" lon="7.29508">
        <ele>495</ele>
        <time>2026-03-19T09:50:23Z</time>
      </trkpt>
      <trkpt lat="48.19826" lon="7.29502">
        <ele>495</ele>
        <time>2026-03-19T09:50:28Z</time>
      </trkpt>
      <trkpt lat="48.19826" lon="7.29495">
        <ele>494.7</ele>
        <time>2026-03-19T09:50:33Z</time>
      </trkpt>
      <trkpt lat="48.19824" lon="7.2949">
        <ele>495.6</ele>
        <time>2026-03-19T09:50:38Z</time>
      </trkpt>
      <trkpt lat="48.19822" lon="7.29483">
        <ele>496.3</ele>
        <time>2026-03-19T09:50:43Z</time>
      </trkpt>
      <trkpt lat="48.1982" lon="7.29477">
        <ele>497.1</ele>
        <time>2026-03-19T09:50:48Z</time>
      </trkpt>
      <trkpt lat="48.19818" lon="7.29471">
        <ele>498</ele>
        <time>2026-03-19T09:50:53Z</time>
      </trkpt>
      <trkpt lat="48.19815" lon="7.29472">
        <ele>499.6</ele>
        <time>2026-03-19T09:50:58Z</time>
      </trkpt>
      <trkpt lat="48.19812" lon="7.29467">
        <ele>501</ele>
        <time>2026-03-19T09:51:03Z</time>
      </trkpt>
      <trkpt lat="48.1981" lon="7.29459">
        <ele>501.8</ele>
        <time>2026-03-19T09:51:08Z</time>
      </trkpt>
      <trkpt lat="48.19809" lon="7.29448">
        <ele>501.8</ele>
        <time>2026-03-19T09:51:13Z</time>
      </trkpt>
      <trkpt lat="48.19808" lon="7.29439">
        <ele>502</ele>
        <time>2026-03-19T09:51:18Z</time>
      </trkpt>
      <trkpt lat="48.19807" lon="7.2943">
        <ele>502.1</ele>
        <time>2026-03-19T09:51:23Z</time>
      </trkpt>
      <trkpt lat="48.19803" lon="7.29421">
        <ele>503.9</ele>
        <time>2026-03-19T09:51:28Z</time>
      </trkpt>
      <trkpt lat="48.19802" lon="7.29417">
        <ele>504.3</ele>
        <time>2026-03-19T09:51:33Z</time>
      </trkpt>
      <trkpt lat="48.19803" lon="7.29411">
        <ele>504.7</ele>
        <time>2026-03-19T09:51:38Z</time>
      </trkpt>
      <trkpt lat="48.19801" lon="7.29406">
        <ele>506.6</ele>
        <time>2026-03-19T09:51:43Z</time>
      </trkpt>
      <trkpt lat="48.19803" lon="7.29398">
        <ele>506.8</ele>
        <time>2026-03-19T09:51:48Z</time>
      </trkpt>
      <trkpt lat="48.19803" lon="7.29392">
        <ele>507.8</ele>
        <time>2026-03-19T09:51:53Z</time>
      </trkpt>
      <trkpt lat="48.19804" lon="7.2939">
        <ele>507.6</ele>
        <time>2026-03-19T09:51:58Z</time>
      </trkpt>
      <trkpt lat="48.19803" lon="7.2939">
        <ele>508.2</ele>
        <time>2026-03-19T09:52:03Z</time>
      </trkpt>
      <trkpt lat="48.19803" lon="7.2939">
        <ele>508.2</ele>
        <time>2026-03-19T09:52:08Z</time>
      </trkpt>
      <trkpt lat="48.19801" lon="7.29377">
        <ele>511.4</ele>
        <time>2026-03-19T09:52:13Z</time>
      </trkpt>
      <trkpt lat="48.198" lon="7.29373">
        <ele>512.5</ele>
        <time>2026-03-19T09:52:18Z</time>
      </trkpt>
      <trkpt lat="48.198" lon="7.2937">
        <ele>513</ele>
        <time>2026-03-19T09:52:23Z</time>
      </trkpt>
      <trkpt lat="48.198" lon="7.2937">
        <ele>513</ele>
        <time>2026-03-19T09:52:28Z</time>
      </trkpt>
      <trkpt lat="48.198" lon="7.2937">
        <ele>513</ele>
        <time>2026-03-19T09:52:33Z</time>
      </trkpt>
      <trkpt lat="48.198" lon="7.2937">
        <ele>513</ele>
        <time>2026-03-19T09:52:38Z</time>
      </trkpt>
      <trkpt lat="48.198" lon="7.2937">
        <ele>513</ele>
        <time>2026-03-19T09:52:43Z</time>
      </trkpt>
      <trkpt lat="48.198" lon="7.2937">
        <ele>513</ele>
        <time>2026-03-19T09:52:48Z</time>
      </trkpt>
      <trkpt lat="48.198" lon="7.2937">
        <ele>513</ele>
        <time>2026-03-19T09:52:53Z</time>
      </trkpt>
      <trkpt lat="48.198" lon="7.2937">
        <ele>513</ele>
        <time>2026-03-19T09:52:58Z</time>
      </trkpt>
      <trkpt lat="48.198" lon="7.2937">
        <ele>513</ele>
        <time>2026-03-19T09:53:03Z</time>
      </trkpt>
      <trkpt lat="48.198" lon="7.2937">
        <ele>513</ele>
        <time>2026-03-19T09:53:08Z</time>
      </trkpt>
      <trkpt lat="48.198" lon="7.29362">
        <ele>514.3</ele>
        <time>2026-03-19T09:53:13Z</time>
      </trkpt>
      <trkpt lat="48.19802" lon="7.29355">
        <ele>514.5</ele>
        <time>2026-03-19T09:53:18Z</time>
      </trkpt>
      <trkpt lat="48.19806" lon="7.29346">
        <ele>514</ele>
        <time>2026-03-19T09:53:23Z</time>
      </trkpt>
      <trkpt lat="48.19807" lon="7.29342">
        <ele>514.2</ele>
        <time>2026-03-19T09:53:28Z</time>
      </trkpt>
      <trkpt lat="48.19807" lon="7.29336">
        <ele>515.2</ele>
        <time>2026-03-19T09:53:33Z</time>
      </trkpt>
      <trkpt lat="48.19809" lon="7.29333">
        <ele>514.7</ele>
        <time>2026-03-19T09:53:38Z</time>
      </trkpt>
      <trkpt lat="48.19813" lon="7.2933">
        <ele>513.3</ele>
        <time>2026-03-19T09:53:43Z</time>
      </trkpt>
      <trkpt lat="48.19815" lon="7.29327">
        <ele>512.9</ele>
        <time>2026-03-19T09:53:48Z</time>
      </trkpt>
      <trkpt lat="48.19818" lon="7.29325">
        <ele>511.8</ele>
        <time>2026-03-19T09:53:53Z</time>
      </trkpt>
      <trkpt lat="48.19821" lon="7.29322">
        <ele>510.9</ele>
        <time>2026-03-19T09:53:58Z</time>
      </trkpt>
      <trkpt lat="48.19824" lon="7.2932">
        <ele>509.8</ele>
        <time>2026-03-19T09:54:03Z</time>
      </trkpt>
      <trkpt lat="48.19827" lon="7.29316">
        <ele>509.1</ele>
        <time>2026-03-19T09:54:08Z</time>
      </trkpt>
      <trkpt lat="48.19832" lon="7.29313">
        <ele>507.3</ele>
        <time>2026-03-19T09:54:13Z</time>
      </trkpt>
      <trkpt lat="48.19838" lon="7.29311">
        <ele>504.9</ele>
        <time>2026-03-19T09:54:18Z</time>
      </trkpt>
      <trkpt lat="48.19841" lon="7.29305">
        <ele>504.6</ele>
        <time>2026-03-19T09:54:23Z</time>
      </trkpt>
      <trkpt lat="48.19841" lon="7.29298">
        <ele>505.9</ele>
        <time>2026-03-19T09:54:28Z</time>
      </trkpt>
      <trkpt lat="48.19841" lon="7.29291">
        <ele>507.1</ele>
        <time>2026-03-19T09:54:33Z</time>
      </trkpt>
      <trkpt lat="48.1984" lon="7.29285">
        <ele>508.7</ele>
        <time>2026-03-19T09:54:38Z</time>
      </trkpt>
      <trkpt lat="48.1984" lon="7.29279">
        <ele>509.7</ele>
        <time>2026-03-19T09:54:43Z</time>
      </trkpt>
      <trkpt lat="48.1984" lon="7.29272">
        <ele>511</ele>
        <time>2026-03-19T09:54:48Z</time>
      </trkpt>
      <trkpt lat="48.19838" lon="7.29263">
        <ele>513.5</ele>
        <time>2026-03-19T09:54:53Z</time>
      </trkpt>
      <trkpt lat="48.19839" lon="7.29256">
        <ele>514.3</ele>
        <time>2026-03-19T09:54:58Z</time>
      </trkpt>
      <trkpt lat="48.19839" lon="7.29251">
        <ele>515.2</ele>
        <time>2026-03-19T09:55:03Z</time>
      </trkpt>
      <trkpt lat="48.19839" lon="7.29243">
        <ele>516.2</ele>
        <time>2026-03-19T09:55:08Z</time>
      </trkpt>
      <trkpt lat="48.1984" lon="7.29237">
        <ele>516.3</ele>
        <time>2026-03-19T09:55:13Z</time>
      </trkpt>
      <trkpt lat="48.1984" lon="7.2923">
        <ele>517.1</ele>
        <time>2026-03-19T09:55:18Z</time>
      </trkpt>
      <trkpt lat="48.19839" lon="7.29222">
        <ele>518.4</ele>
        <time>2026-03-19T09:55:23Z</time>
      </trkpt>
      <trkpt lat="48.19839" lon="7.29217">
        <ele>518.9</ele>
        <time>2026-03-19T09:55:28Z</time>
      </trkpt>
      <trkpt lat="48.19838" lon="7.29207">
        <ele>520.5</ele>
        <time>2026-03-19T09:55:33Z</time>
      </trkpt>
      <trkpt lat="48.19837" lon="7.29199">
        <ele>521.8</ele>
        <time>2026-03-19T09:55:38Z</time>
      </trkpt>
      <trkpt lat="48.19838" lon="7.29195">
        <ele>521.7</ele>
        <time>2026-03-19T09:55:43Z</time>
      </trkpt>
      <trkpt lat="48.19837" lon="7.29186">
        <ele>523.2</ele>
        <time>2026-03-19T09:55:48Z</time>
      </trkpt>
      <trkpt lat="48.19836" lon="7.29179">
        <ele>524.4</ele>
        <time>2026-03-19T09:55:53Z</time>
      </trkpt>
      <trkpt lat="48.19836" lon="7.29174">
        <ele>524.9</ele>
        <time>2026-03-19T09:55:58Z</time>
      </trkpt>
      <trkpt lat="48.19838" lon="7.29169">
        <ele>524.5</ele>
        <time>2026-03-19T09:56:03Z</time>
      </trkpt>
      <trkpt lat="48.1984" lon="7.29164">
        <ele>523.8</ele>
        <time>2026-03-19T09:56:08Z</time>
      </trkpt>
      <trkpt lat="48.19841" lon="7.2916">
        <ele>523.3</ele>
        <time>2026-03-19T09:56:13Z</time>
      </trkpt>
      <trkpt lat="48.19839" lon="7.29154">
        <ele>524.2</ele>
        <time>2026-03-19T09:56:18Z</time>
      </trkpt>
      <trkpt lat="48.19839" lon="7.29148">
        <ele>524.2</ele>
        <time>2026-03-19T09:56:23Z</time>
      </trkpt>
      <trkpt lat="48.19839" lon="7.29142">
        <ele>524.2</ele>
        <time>2026-03-19T09:56:28Z</time>
      </trkpt>
      <trkpt lat="48.1984" lon="7.29135">
        <ele>523.7</ele>
        <time>2026-03-19T09:56:33Z</time>
      </trkpt>
      <trkpt lat="48.1984" lon="7.29129">
        <ele>523.7</ele>
        <time>2026-03-19T09:56:38Z</time>
      </trkpt>
      <trkpt lat="48.19838" lon="7.29122">
        <ele>524.7</ele>
        <time>2026-03-19T09:56:43Z</time>
      </trkpt>
      <trkpt lat="48.19835" lon="7.29113">
        <ele>526.2</ele>
        <time>2026-03-19T09:56:48Z</time>
      </trkpt>
      <trkpt lat="48.19833" lon="7.29107">
        <ele>527.2</ele>
        <time>2026-03-19T09:56:53Z</time>
      </trkpt>
      <trkpt lat="48.19833" lon="7.29102">
        <ele>527.2</ele>
        <time>2026-03-19T09:56:58Z</time>
      </trkpt>
      <trkpt lat="48.19835" lon="7.29097">
        <ele>526.1</ele>
        <time>2026-03-19T09:57:03Z</time>
      </trkpt>
      <trkpt lat="48.19835" lon="7.29089">
        <ele>526.1</ele>
        <time>2026-03-19T09:57:08Z</time>
      </trkpt>
      <trkpt lat="48.19834" lon="7.29083">
        <ele>526.6</ele>
        <time>2026-03-19T09:57:13Z</time>
      </trkpt>
      <trkpt lat="48.19832" lon="7.29076">
        <ele>526.7</ele>
        <time>2026-03-19T09:57:18Z</time>
      </trkpt>
      <trkpt lat="48.19829" lon="7.29068">
        <ele>527.2</ele>
        <time>2026-03-19T09:57:23Z</time>
      </trkpt>
      <trkpt lat="48.19827" lon="7.29062">
        <ele>527.5</ele>
        <time>2026-03-19T09:57:28Z</time>
      </trkpt>
      <trkpt lat="48.19825" lon="7.29056">
        <ele>527.8</ele>
        <time>2026-03-19T09:57:33Z</time>
      </trkpt>
      <trkpt lat="48.19823" lon="7.29051">
        <ele>528.1</ele>
        <time>2026-03-19T09:57:38Z</time>
      </trkpt>
      <trkpt lat="48.19821" lon="7.29046">
        <ele>528.6</ele>
        <time>2026-03-19T09:57:43Z</time>
      </trkpt>
      <trkpt lat="48.1982" lon="7.29041">
        <ele>528.5</ele>
        <time>2026-03-19T09:57:48Z</time>
      </trkpt>
      <trkpt lat="48.19818" lon="7.29035">
        <ele>528.8</ele>
        <time>2026-03-19T09:57:53Z</time>
      </trkpt>
      <trkpt lat="48.19816" lon="7.29028">
        <ele>529</ele>
        <time>2026-03-19T09:57:58Z</time>
      </trkpt>
      <trkpt lat="48.19815" lon="7.29022">
        <ele>528.9</ele>
        <time>2026-03-19T09:58:03Z</time>
      </trkpt>
      <trkpt lat="48.19813" lon="7.29017">
        <ele>529.3</ele>
        <time>2026-03-19T09:58:08Z</time>
      </trkpt>
      <trkpt lat="48.19811" lon="7.29011">
        <ele>529.7</ele>
        <time>2026-03-19T09:58:13Z</time>
      </trkpt>
      <trkpt lat="48.19808" lon="7.29006">
        <ele>530.7</ele>
        <time>2026-03-19T09:58:18Z</time>
      </trkpt>
      <trkpt lat="48.19804" lon="7.29">
        <ele>532.1</ele>
        <time>2026-03-19T09:58:23Z</time>
      </trkpt>
      <trkpt lat="48.198" lon="7.28994">
        <ele>533.8</ele>
        <time>2026-03-19T09:58:28Z</time>
      </trkpt>
      <trkpt lat="48.198" lon="7.2899">
        <ele>533.6</ele>
        <time>2026-03-19T09:58:33Z</time>
      </trkpt>
      <trkpt lat="48.19798" lon="7.28985">
        <ele>534.3</ele>
        <time>2026-03-19T09:58:38Z</time>
      </trkpt>
      <trkpt lat="48.19795" lon="7.28979">
        <ele>535.5</ele>
        <time>2026-03-19T09:58:43Z</time>
      </trkpt>
      <trkpt lat="48.19792" lon="7.28973">
        <ele>536.7</ele>
        <time>2026-03-19T09:58:48Z</time>
      </trkpt>
      <trkpt lat="48.19789" lon="7.28968">
        <ele>538</ele>
        <time>2026-03-19T09:58:53Z</time>
      </trkpt>
      <trkpt lat="48.19785" lon="7.28964">
        <ele>539.8</ele>
        <time>2026-03-19T09:58:58Z</time>
      </trkpt>
      <trkpt lat="48.19783" lon="7.2896">
        <ele>540.6</ele>
        <time>2026-03-19T09:59:03Z</time>
      </trkpt>
      <trkpt lat="48.1978" lon="7.28955">
        <ele>541.8</ele>
        <time>2026-03-19T09:59:08Z</time>
      </trkpt>
      <trkpt lat="48.19777" lon="7.28949">
        <ele>543</ele>
        <time>2026-03-19T09:59:13Z</time>
      </trkpt>
      <trkpt lat="48.19773" lon="7.28943">
        <ele>544.7</ele>
        <time>2026-03-19T09:59:18Z</time>
      </trkpt>
      <trkpt lat="48.1977" lon="7.28934">
        <ele>545.7</ele>
        <time>2026-03-19T09:59:23Z</time>
      </trkpt>
      <trkpt lat="48.19768" lon="7.28927">
        <ele>546.3</ele>
        <time>2026-03-19T09:59:28Z</time>
      </trkpt>
      <trkpt lat="48.19765" lon="7.28921">
        <ele>547.5</ele>
        <time>2026-03-19T09:59:33Z</time>
      </trkpt>
      <trkpt lat="48.19763" lon="7.28916">
        <ele>548.3</ele>
        <time>2026-03-19T09:59:38Z</time>
      </trkpt>
      <trkpt lat="48.19762" lon="7.28911">
        <ele>548.9</ele>
        <time>2026-03-19T09:59:43Z</time>
      </trkpt>
      <trkpt lat="48.19761" lon="7.28908">
        <ele>549.4</ele>
        <time>2026-03-19T09:59:48Z</time>
      </trkpt>
      <trkpt lat="48.19759" lon="7.289">
        <ele>550.5</ele>
        <time>2026-03-19T09:59:53Z</time>
      </trkpt>
      <trkpt lat="48.19756" lon="7.28894">
        <ele>552.2</ele>
        <time>2026-03-19T09:59:58Z</time>
      </trkpt>
      <trkpt lat="48.19754" lon="7.28888">
        <ele>553.3</ele>
        <time>2026-03-19T10:00:03Z</time>
      </trkpt>
      <trkpt lat="48.19752" lon="7.28881">
        <ele>554.4</ele>
        <time>2026-03-19T10:00:08Z</time>
      </trkpt>
      <trkpt lat="48.19751" lon="7.28873">
        <ele>555</ele>
        <time>2026-03-19T10:00:13Z</time>
      </trkpt>
      <trkpt lat="48.19748" lon="7.28865">
        <ele>556.7</ele>
        <time>2026-03-19T10:00:18Z</time>
      </trkpt>
      <trkpt lat="48.19745" lon="7.2886">
        <ele>558.5</ele>
        <time>2026-03-19T10:00:23Z</time>
      </trkpt>
      <trkpt lat="48.19746" lon="7.28854">
        <ele>558</ele>
        <time>2026-03-19T10:00:28Z</time>
      </trkpt>
      <trkpt lat="48.19745" lon="7.28845">
        <ele>558.7</ele>
        <time>2026-03-19T10:00:33Z</time>
      </trkpt>
      <trkpt lat="48.19745" lon="7.28839">
        <ele>558.8</ele>
        <time>2026-03-19T10:00:38Z</time>
      </trkpt>
      <trkpt lat="48.19745" lon="7.28832">
        <ele>558.9</ele>
        <time>2026-03-19T10:00:43Z</time>
      </trkpt>
      <trkpt lat="48.19746" lon="7.28827">
        <ele>558.4</ele>
        <time>2026-03-19T10:00:48Z</time>
      </trkpt>
      <trkpt lat="48.1975" lon="7.28823">
        <ele>556.1</ele>
        <time>2026-03-19T10:00:53Z</time>
      </trkpt>
      <trkpt lat="48.19751" lon="7.28819">
        <ele>555.7</ele>
        <time>2026-03-19T10:00:58Z</time>
      </trkpt>
      <trkpt lat="48.19752" lon="7.28812">
        <ele>555.3</ele>
        <time>2026-03-19T10:01:03Z</time>
      </trkpt>
      <trkpt lat="48.19753" lon="7.28805">
        <ele>554.9</ele>
        <time>2026-03-19T10:01:08Z</time>
      </trkpt>
      <trkpt lat="48.19752" lon="7.28799">
        <ele>555.5</ele>
        <time>2026-03-19T10:01:13Z</time>
      </trkpt>
      <trkpt lat="48.19754" lon="7.28795">
        <ele>554.6</ele>
        <time>2026-03-19T10:01:18Z</time>
      </trkpt>
      <trkpt lat="48.19753" lon="7.28789">
        <ele>555.1</ele>
        <time>2026-03-19T10:01:23Z</time>
      </trkpt>
      <trkpt lat="48.19753" lon="7.28785">
        <ele>555.2</ele>
        <time>2026-03-19T10:01:28Z</time>
      </trkpt>
      <trkpt lat="48.19754" lon="7.28782">
        <ele>554.8</ele>
        <time>2026-03-19T10:01:33Z</time>
      </trkpt>
      <trkpt lat="48.19756" lon="7.28777">
        <ele>554</ele>
        <time>2026-03-19T10:01:38Z</time>
      </trkpt>
      <trkpt lat="48.19758" lon="7.28769">
        <ele>553.3</ele>
        <time>2026-03-19T10:01:43Z</time>
      </trkpt>
      <trkpt lat="48.19761" lon="7.28762">
        <ele>552.2</ele>
        <time>2026-03-19T10:01:48Z</time>
      </trkpt>
      <trkpt lat="48.19763" lon="7.28757">
        <ele>551.5</ele>
        <time>2026-03-19T10:01:53Z</time>
      </trkpt>
      <trkpt lat="48.19765" lon="7.28751">
        <ele>550.8</ele>
        <time>2026-03-19T10:01:58Z</time>
      </trkpt>
      <trkpt lat="48.19765" lon="7.28748">
        <ele>550.9</ele>
        <time>2026-03-19T10:02:03Z</time>
      </trkpt>
      <trkpt lat="48.19765" lon="7.28743">
        <ele>551</ele>
        <time>2026-03-19T10:02:08Z</time>
      </trkpt>
      <trkpt lat="48.19768" lon="7.28735">
        <ele>549.9</ele>
        <time>2026-03-19T10:02:13Z</time>
      </trkpt>
      <trkpt lat="48.1977" lon="7.2873">
        <ele>549.2</ele>
        <time>2026-03-19T10:02:18Z</time>
      </trkpt>
      <trkpt lat="48.19772" lon="7.28724">
        <ele>548.5</ele>
        <time>2026-03-19T10:02:23Z</time>
      </trkpt>
      <trkpt lat="48.19774" lon="7.28718">
        <ele>547.9</ele>
        <time>2026-03-19T10:02:28Z</time>
      </trkpt>
      <trkpt lat="48.19776" lon="7.2871">
        <ele>547.3</ele>
        <time>2026-03-19T10:02:33Z</time>
      </trkpt>
      <trkpt lat="48.19779" lon="7.28705">
        <ele>546.3</ele>
        <time>2026-03-19T10:02:38Z</time>
      </trkpt>
      <trkpt lat="48.1978" lon="7.28698">
        <ele>546.1</ele>
        <time>2026-03-19T10:02:43Z</time>
      </trkpt>
      <trkpt lat="48.19779" lon="7.28692">
        <ele>546.6</ele>
        <time>2026-03-19T10:02:48Z</time>
      </trkpt>
      <trkpt lat="48.19779" lon="7.28684">
        <ele>546.8</ele>
        <time>2026-03-19T10:02:53Z</time>
      </trkpt>
      <trkpt lat="48.19778" lon="7.28678">
        <ele>547.3</ele>
        <time>2026-03-19T10:02:58Z</time>
      </trkpt>
      <trkpt lat="48.19778" lon="7.28672">
        <ele>547.5</ele>
        <time>2026-03-19T10:03:03Z</time>
      </trkpt>
      <trkpt lat="48.19779" lon="7.28666">
        <ele>547.2</ele>
        <time>2026-03-19T10:03:08Z</time>
      </trkpt>
      <trkpt lat="48.19777" lon="7.28659">
        <ele>547.6</ele>
        <time>2026-03-19T10:03:13Z</time>
      </trkpt>
      <trkpt lat="48.19777" lon="7.28653">
        <ele>547.3</ele>
        <time>2026-03-19T10:03:18Z</time>
      </trkpt>
      <trkpt lat="48.19776" lon="7.28647">
        <ele>547.4</ele>
        <time>2026-03-19T10:03:23Z</time>
      </trkpt>
      <trkpt lat="48.19774" lon="7.28639">
        <ele>547.7</ele>
        <time>2026-03-19T10:03:28Z</time>
      </trkpt>
      <trkpt lat="48.19773" lon="7.28634">
        <ele>547.8</ele>
        <time>2026-03-19T10:03:33Z</time>
      </trkpt>
      <trkpt lat="48.19773" lon="7.28628">
        <ele>547.5</ele>
        <time>2026-03-19T10:03:38Z</time>
      </trkpt>
      <trkpt lat="48.19771" lon="7.28621">
        <ele>547.9</ele>
        <time>2026-03-19T10:03:43Z</time>
      </trkpt>
      <trkpt lat="48.19769" lon="7.28616">
        <ele>548.3</ele>
        <time>2026-03-19T10:03:48Z</time>
      </trkpt>
      <trkpt lat="48.19767" lon="7.28609">
        <ele>548.7</ele>
        <time>2026-03-19T10:03:53Z</time>
      </trkpt>
      <trkpt lat="48.19764" lon="7.28601">
        <ele>549.3</ele>
        <time>2026-03-19T10:03:58Z</time>
      </trkpt>
      <trkpt lat="48.19763" lon="7.28596">
        <ele>549.4</ele>
        <time>2026-03-19T10:04:03Z</time>
      </trkpt>
      <trkpt lat="48.1976" lon="7.2859">
        <ele>550.1</ele>
        <time>2026-03-19T10:04:08Z</time>
      </trkpt>
      <trkpt lat="48.19757" lon="7.28584">
        <ele>550.8</ele>
        <time>2026-03-19T10:04:13Z</time>
      </trkpt>
      <trkpt lat="48.19755" lon="7.2858">
        <ele>550.9</ele>
        <time>2026-03-19T10:04:18Z</time>
      </trkpt>
      <trkpt lat="48.19753" lon="7.28573">
        <ele>550.4</ele>
        <time>2026-03-19T10:04:23Z</time>
      </trkpt>
      <trkpt lat="48.1975" lon="7.28568">
        <ele>550.6</ele>
        <time>2026-03-19T10:04:28Z</time>
      </trkpt>
      <trkpt lat="48.19747" lon="7.28562">
        <ele>550.8</ele>
        <time>2026-03-19T10:04:33Z</time>
      </trkpt>
      <trkpt lat="48.19745" lon="7.28556">
        <ele>550.5</ele>
        <time>2026-03-19T10:04:38Z</time>
      </trkpt>
      <trkpt lat="48.19742" lon="7.28551">
        <ele>550.8</ele>
        <time>2026-03-19T10:04:43Z</time>
      </trkpt>
      <trkpt lat="48.19738" lon="7.28546">
        <ele>551.4</ele>
        <time>2026-03-19T10:04:48Z</time>
      </trkpt>
      <trkpt lat="48.19734" lon="7.28543">
        <ele>552.3</ele>
        <time>2026-03-19T10:04:53Z</time>
      </trkpt>
      <trkpt lat="48.1973" lon="7.28538">
        <ele>552.8</ele>
        <time>2026-03-19T10:04:58Z</time>
      </trkpt>
      <trkpt lat="48.19726" lon="7.28537">
        <ele>554.1</ele>
        <time>2026-03-19T10:05:03Z</time>
      </trkpt>
      <trkpt lat="48.19726" lon="7.28537">
        <ele>554.1</ele>
        <time>2026-03-19T10:05:08Z</time>
      </trkpt>
      <trkpt lat="48.19726" lon="7.28537">
        <ele>554.1</ele>
        <time>2026-03-19T10:05:13Z</time>
      </trkpt>
      <trkpt lat="48.19726" lon="7.28537">
        <ele>554.1</ele>
        <time>2026-03-19T10:05:18Z</time>
      </trkpt>
      <trkpt lat="48.19726" lon="7.28537">
        <ele>554.1</ele>
        <time>2026-03-19T10:05:23Z</time>
      </trkpt>
      <trkpt lat="48.19726" lon="7.28537">
        <ele>554.1</ele>
        <time>2026-03-19T10:05:28Z</time>
      </trkpt>
      <trkpt lat="48.19726" lon="7.28537">
        <ele>554.1</ele>
        <time>2026-03-19T10:05:33Z</time>
      </trkpt>
      <trkpt lat="48.19726" lon="7.28537">
        <ele>554.1</ele>
        <time>2026-03-19T10:05:38Z</time>
      </trkpt>
      <trkpt lat="48.19726" lon="7.28537">
        <ele>554.1</ele>
        <time>2026-03-19T10:05:43Z</time>
      </trkpt>
      <trkpt lat="48.19726" lon="7.28537">
        <ele>554.1</ele>
        <time>2026-03-19T10:05:48Z</time>
      </trkpt>
      <trkpt lat="48.19726" lon="7.28537">
        <ele>554.1</ele>
        <time>2026-03-19T10:05:53Z</time>
      </trkpt>
      <trkpt lat="48.1972" lon="7.28527">
        <ele>554.4</ele>
        <time>2026-03-19T10:05:58Z</time>
      </trkpt>
      <trkpt lat="48.1972" lon="7.28527">
        <ele>554.4</ele>
        <time>2026-03-19T10:06:03Z</time>
      </trkpt>
      <trkpt lat="48.1972" lon="7.28527">
        <ele>554.4</ele>
        <time>2026-03-19T10:06:08Z</time>
      </trkpt>
      <trkpt lat="48.1972" lon="7.28527">
        <ele>554.4</ele>
        <time>2026-03-19T10:06:13Z</time>
      </trkpt>
      <trkpt lat="48.1972" lon="7.28527">
        <ele>554.4</ele>
        <time>2026-03-19T10:06:18Z</time>
      </trkpt>
      <trkpt lat="48.1972" lon="7.28527">
        <ele>554.4</ele>
        <time>2026-03-19T10:06:23Z</time>
      </trkpt>
      <trkpt lat="48.1972" lon="7.28527">
        <ele>554.4</ele>
        <time>2026-03-19T10:06:28Z</time>
      </trkpt>
      <trkpt lat="48.1972" lon="7.28527">
        <ele>554.4</ele>
        <time>2026-03-19T10:06:33Z</time>
      </trkpt>
      <trkpt lat="48.1972" lon="7.28527">
        <ele>554.4</ele>
        <time>2026-03-19T10:06:38Z</time>
      </trkpt>
      <trkpt lat="48.1972" lon="7.28527">
        <ele>554.4</ele>
        <time>2026-03-19T10:06:43Z</time>
      </trkpt>
      <trkpt lat="48.1972" lon="7.28527">
        <ele>554.4</ele>
        <time>2026-03-19T10:06:48Z</time>
      </trkpt>
      <trkpt lat="48.19715" lon="7.28521">
        <ele>555</ele>
        <time>2026-03-19T10:06:53Z</time>
      </trkpt>
      <trkpt lat="48.19713" lon="7.28516">
        <ele>554.8</ele>
        <time>2026-03-19T10:06:58Z</time>
      </trkpt>
      <trkpt lat="48.19711" lon="7.28512">
        <ele>554.8</ele>
        <time>2026-03-19T10:07:03Z</time>
      </trkpt>
      <trkpt lat="48.19704" lon="7.28507">
        <ele>556.2</ele>
        <time>2026-03-19T10:07:08Z</time>
      </trkpt>
      <trkpt lat="48.19699" lon="7.28503">
        <ele>557.1</ele>
        <time>2026-03-19T10:07:13Z</time>
      </trkpt>
      <trkpt lat="48.19695" lon="7.28499">
        <ele>557.7</ele>
        <time>2026-03-19T10:07:18Z</time>
      </trkpt>
      <trkpt lat="48.19692" lon="7.28494">
        <ele>558.1</ele>
        <time>2026-03-19T10:07:23Z</time>
      </trkpt>
      <trkpt lat="48.19687" lon="7.28492">
        <ele>559.5</ele>
        <time>2026-03-19T10:07:28Z</time>
      </trkpt>
      <trkpt lat="48.19682" lon="7.28489">
        <ele>560.8</ele>
        <time>2026-03-19T10:07:33Z</time>
      </trkpt>
      <trkpt lat="48.19678" lon="7.28484">
        <ele>561.5</ele>
        <time>2026-03-19T10:07:38Z</time>
      </trkpt>
      <trkpt lat="48.19673" lon="7.2848">
        <ele>562.8</ele>
        <time>2026-03-19T10:07:43Z</time>
      </trkpt>
      <trkpt lat="48.19668" lon="7.28477">
        <ele>564.1</ele>
        <time>2026-03-19T10:07:48Z</time>
      </trkpt>
      <trkpt lat="48.19664" lon="7.28475">
        <ele>565.6</ele>
        <time>2026-03-19T10:07:53Z</time>
      </trkpt>
      <trkpt lat="48.1966" lon="7.28472">
        <ele>567.2</ele>
        <time>2026-03-19T10:07:58Z</time>
      </trkpt>
      <trkpt lat="48.19657" lon="7.2847">
        <ele>568.5</ele>
        <time>2026-03-19T10:08:03Z</time>
      </trkpt>
      <trkpt lat="48.19654" lon="7.28466">
        <ele>569.6</ele>
        <time>2026-03-19T10:08:08Z</time>
      </trkpt>
      <trkpt lat="48.19648" lon="7.2846">
        <ele>572</ele>
        <time>2026-03-19T10:08:13Z</time>
      </trkpt>
      <trkpt lat="48.19642" lon="7.28454">
        <ele>574.4</ele>
        <time>2026-03-19T10:08:18Z</time>
      </trkpt>
      <trkpt lat="48.19638" lon="7.28453">
        <ele>576.3</ele>
        <time>2026-03-19T10:08:23Z</time>
      </trkpt>
      <trkpt lat="48.19633" lon="7.2845">
        <ele>578.6</ele>
        <time>2026-03-19T10:08:28Z</time>
      </trkpt>
      <trkpt lat="48.19628" lon="7.28447">
        <ele>580.8</ele>
        <time>2026-03-19T10:08:33Z</time>
      </trkpt>
      <trkpt lat="48.19623" lon="7.28444">
        <ele>583.1</ele>
        <time>2026-03-19T10:08:38Z</time>
      </trkpt>
      <trkpt lat="48.19618" lon="7.28441">
        <ele>585.5</ele>
        <time>2026-03-19T10:08:43Z</time>
      </trkpt>
      <trkpt lat="48.19614" lon="7.28438">
        <ele>587.3</ele>
        <time>2026-03-19T10:08:48Z</time>
      </trkpt>
      <trkpt lat="48.1961" lon="7.28436">
        <ele>589.2</ele>
        <time>2026-03-19T10:08:53Z</time>
      </trkpt>
      <trkpt lat="48.19606" lon="7.28434">
        <ele>591.1</ele>
        <time>2026-03-19T10:08:58Z</time>
      </trkpt>
      <trkpt lat="48.19602" lon="7.28429">
        <ele>592.9</ele>
        <time>2026-03-19T10:09:03Z</time>
      </trkpt>
      <trkpt lat="48.19598" lon="7.28426">
        <ele>594.8</ele>
        <time>2026-03-19T10:09:08Z</time>
      </trkpt>
      <trkpt lat="48.19595" lon="7.28421">
        <ele>596.1</ele>
        <time>2026-03-19T10:09:13Z</time>
      </trkpt>
      <trkpt lat="48.19592" lon="7.28419">
        <ele>597.6</ele>
        <time>2026-03-19T10:09:18Z</time>
      </trkpt>
      <trkpt lat="48.1959" lon="7.28417">
        <ele>598.5</ele>
        <time>2026-03-19T10:09:23Z</time>
      </trkpt>
      <trkpt lat="48.19587" lon="7.2841">
        <ele>600.1</ele>
        <time>2026-03-19T10:09:28Z</time>
      </trkpt>
      <trkpt lat="48.19584" lon="7.28399">
        <ele>601.9</ele>
        <time>2026-03-19T10:09:33Z</time>
      </trkpt>
      <trkpt lat="48.19582" lon="7.28391">
        <ele>602.9</ele>
        <time>2026-03-19T10:09:38Z</time>
      </trkpt>
      <trkpt lat="48.19581" lon="7.28384">
        <ele>603.4</ele>
        <time>2026-03-19T10:09:43Z</time>
      </trkpt>
      <trkpt lat="48.19581" lon="7.28378">
        <ele>603.5</ele>
        <time>2026-03-19T10:09:48Z</time>
      </trkpt>
      <trkpt lat="48.19581" lon="7.28369">
        <ele>603.6</ele>
        <time>2026-03-19T10:09:53Z</time>
      </trkpt>
      <trkpt lat="48.1958" lon="7.28361">
        <ele>604.2</ele>
        <time>2026-03-19T10:09:58Z</time>
      </trkpt>
      <trkpt lat="48.19581" lon="7.28355">
        <ele>603.8</ele>
        <time>2026-03-19T10:10:03Z</time>
      </trkpt>
      <trkpt lat="48.19581" lon="7.28349">
        <ele>603.9</ele>
        <time>2026-03-19T10:10:08Z</time>
      </trkpt>
      <trkpt lat="48.19582" lon="7.28343">
        <ele>603.5</ele>
        <time>2026-03-19T10:10:13Z</time>
      </trkpt>
      <trkpt lat="48.19583" lon="7.28338">
        <ele>603.1</ele>
        <time>2026-03-19T10:10:18Z</time>
      </trkpt>
      <trkpt lat="48.19587" lon="7.28333">
        <ele>601</ele>
        <time>2026-03-19T10:10:23Z</time>
      </trkpt>
      <trkpt lat="48.19588" lon="7.28329">
        <ele>600.3</ele>
        <time>2026-03-19T10:10:28Z</time>
      </trkpt>
      <trkpt lat="48.1959" lon="7.28323">
        <ele>598.9</ele>
        <time>2026-03-19T10:10:33Z</time>
      </trkpt>
      <trkpt lat="48.19593" lon="7.28319">
        <ele>597.1</ele>
        <time>2026-03-19T10:10:38Z</time>
      </trkpt>
      <trkpt lat="48.19596" lon="7.28314">
        <ele>595.3</ele>
        <time>2026-03-19T10:10:43Z</time>
      </trkpt>
      <trkpt lat="48.19598" lon="7.28309">
        <ele>594.1</ele>
        <time>2026-03-19T10:10:48Z</time>
      </trkpt>
      <trkpt lat="48.19599" lon="7.28306">
        <ele>593.4</ele>
        <time>2026-03-19T10:10:53Z</time>
      </trkpt>
      <trkpt lat="48.19599" lon="7.283">
        <ele>593.1</ele>
        <time>2026-03-19T10:10:58Z</time>
      </trkpt>
      <trkpt lat="48.19599" lon="7.28294">
        <ele>592.8</ele>
        <time>2026-03-19T10:11:03Z</time>
      </trkpt>
      <trkpt lat="48.19597" lon="7.28287">
        <ele>593.5</ele>
        <time>2026-03-19T10:11:08Z</time>
      </trkpt>
      <trkpt lat="48.19593" lon="7.28279">
        <ele>595</ele>
        <time>2026-03-19T10:11:13Z</time>
      </trkpt>
      <trkpt lat="48.19592" lon="7.28273">
        <ele>595.2</ele>
        <time>2026-03-19T10:11:18Z</time>
      </trkpt>
      <trkpt lat="48.19589" lon="7.28266">
        <ele>596.2</ele>
        <time>2026-03-19T10:11:23Z</time>
      </trkpt>
      <trkpt lat="48.19588" lon="7.28259">
        <ele>596.3</ele>
        <time>2026-03-19T10:11:28Z</time>
      </trkpt>
      <trkpt lat="48.19587" lon="7.28254">
        <ele>596.5</ele>
        <time>2026-03-19T10:11:33Z</time>
      </trkpt>
      <trkpt lat="48.19584" lon="7.28248">
        <ele>597.3</ele>
        <time>2026-03-19T10:11:38Z</time>
      </trkpt>
      <trkpt lat="48.19579" lon="7.28243">
        <ele>598.4</ele>
        <time>2026-03-19T10:11:43Z</time>
      </trkpt>
      <trkpt lat="48.19575" lon="7.28238">
        <ele>599</ele>
        <time>2026-03-19T10:11:48Z</time>
      </trkpt>
      <trkpt lat="48.19571" lon="7.28235">
        <ele>600.1</ele>
        <time>2026-03-19T10:11:53Z</time>
      </trkpt>
      <trkpt lat="48.19567" lon="7.28231">
        <ele>600.9</ele>
        <time>2026-03-19T10:11:58Z</time>
      </trkpt>
      <trkpt lat="48.19564" lon="7.28225">
        <ele>601</ele>
        <time>2026-03-19T10:12:03Z</time>
      </trkpt>
      <trkpt lat="48.19561" lon="7.2822">
        <ele>601.2</ele>
        <time>2026-03-19T10:12:08Z</time>
      </trkpt>
      <trkpt lat="48.19556" lon="7.28217">
        <ele>602.6</ele>
        <time>2026-03-19T10:12:13Z</time>
      </trkpt>
      <trkpt lat="48.1955" lon="7.28211">
        <ele>603.9</ele>
        <time>2026-03-19T10:12:18Z</time>
      </trkpt>
      <trkpt lat="48.19545" lon="7.28207">
        <ele>605.1</ele>
        <time>2026-03-19T10:12:23Z</time>
      </trkpt>
      <trkpt lat="48.19541" lon="7.282">
        <ele>605.3</ele>
        <time>2026-03-19T10:12:28Z</time>
      </trkpt>
      <trkpt lat="48.19538" lon="7.28195">
        <ele>605.5</ele>
        <time>2026-03-19T10:12:33Z</time>
      </trkpt>
      <trkpt lat="48.19534" lon="7.28193">
        <ele>606.7</ele>
        <time>2026-03-19T10:12:38Z</time>
      </trkpt>
      <trkpt lat="48.19531" lon="7.28189">
        <ele>607.1</ele>
        <time>2026-03-19T10:12:43Z</time>
      </trkpt>
      <trkpt lat="48.19527" lon="7.28185">
        <ele>607.9</ele>
        <time>2026-03-19T10:12:48Z</time>
      </trkpt>
      <trkpt lat="48.19524" lon="7.28182">
        <ele>608.5</ele>
        <time>2026-03-19T10:12:53Z</time>
      </trkpt>
      <trkpt lat="48.19523" lon="7.2818">
        <ele>608.5</ele>
        <time>2026-03-19T10:12:58Z</time>
      </trkpt>
      <trkpt lat="48.1952" lon="7.28175">
        <ele>608.6</ele>
        <time>2026-03-19T10:13:03Z</time>
      </trkpt>
      <trkpt lat="48.19517" lon="7.28172">
        <ele>609.2</ele>
        <time>2026-03-19T10:13:08Z</time>
      </trkpt>
      <trkpt lat="48.19511" lon="7.28168">
        <ele>610.8</ele>
        <time>2026-03-19T10:13:13Z</time>
      </trkpt>
      <trkpt lat="48.19507" lon="7.28164">
        <ele>611.5</ele>
        <time>2026-03-19T10:13:18Z</time>
      </trkpt>
      <trkpt lat="48.19503" lon="7.28159">
        <ele>611.8</ele>
        <time>2026-03-19T10:13:23Z</time>
      </trkpt>
      <trkpt lat="48.19499" lon="7.28155">
        <ele>612.4</ele>
        <time>2026-03-19T10:13:28Z</time>
      </trkpt>
      <trkpt lat="48.19496" lon="7.28152">
        <ele>612.5</ele>
        <time>2026-03-19T10:13:33Z</time>
      </trkpt>
      <trkpt lat="48.19491" lon="7.28147">
        <ele>612.8</ele>
        <time>2026-03-19T10:13:38Z</time>
      </trkpt>
      <trkpt lat="48.19488" lon="7.28145">
        <ele>613.2</ele>
        <time>2026-03-19T10:13:43Z</time>
      </trkpt>
      <trkpt lat="48.19486" lon="7.28143">
        <ele>613.3</ele>
        <time>2026-03-19T10:13:48Z</time>
      </trkpt>
      <trkpt lat="48.19481" lon="7.28139">
        <ele>613.8</ele>
        <time>2026-03-19T10:13:53Z</time>
      </trkpt>
      <trkpt lat="48.19475" lon="7.28137">
        <ele>615.1</ele>
        <time>2026-03-19T10:13:58Z</time>
      </trkpt>
      <trkpt lat="48.1947" lon="7.28134">
        <ele>615.9</ele>
        <time>2026-03-19T10:14:03Z</time>
      </trkpt>
      <trkpt lat="48.19465" lon="7.28133">
        <ele>617.2</ele>
        <time>2026-03-19T10:14:08Z</time>
      </trkpt>
      <trkpt lat="48.19462" lon="7.28128">
        <ele>616.9</ele>
        <time>2026-03-19T10:14:13Z</time>
      </trkpt>
      <trkpt lat="48.19459" lon="7.28126">
        <ele>617.3</ele>
        <time>2026-03-19T10:14:18Z</time>
      </trkpt>
      <trkpt lat="48.19456" lon="7.28124">
        <ele>617.7</ele>
        <time>2026-03-19T10:14:23Z</time>
      </trkpt>
      <trkpt lat="48.19454" lon="7.28123">
        <ele>618.1</ele>
        <time>2026-03-19T10:14:28Z</time>
      </trkpt>
      <trkpt lat="48.1945" lon="7.28121">
        <ele>618.8</ele>
        <time>2026-03-19T10:14:33Z</time>
      </trkpt>
      <trkpt lat="48.19445" lon="7.28115">
        <ele>618.9</ele>
        <time>2026-03-19T10:14:38Z</time>
      </trkpt>
      <trkpt lat="48.19441" lon="7.28111">
        <ele>619.1</ele>
        <time>2026-03-19T10:14:43Z</time>
      </trkpt>
      <trkpt lat="48.19438" lon="7.28107">
        <ele>619.1</ele>
        <time>2026-03-19T10:14:48Z</time>
      </trkpt>
      <trkpt lat="48.19433" lon="7.28103">
        <ele>619.7</ele>
        <time>2026-03-19T10:14:53Z</time>
      </trkpt>
      <trkpt lat="48.19429" lon="7.281">
        <ele>620.2</ele>
        <time>2026-03-19T10:14:58Z</time>
      </trkpt>
      <trkpt lat="48.19426" lon="7.28097">
        <ele>620.4</ele>
        <time>2026-03-19T10:15:03Z</time>
      </trkpt>
      <trkpt lat="48.19424" lon="7.28092">
        <ele>619.8</ele>
        <time>2026-03-19T10:15:08Z</time>
      </trkpt>
      <trkpt lat="48.19421" lon="7.28088">
        <ele>619.8</ele>
        <time>2026-03-19T10:15:13Z</time>
      </trkpt>
      <trkpt lat="48.19418" lon="7.28086">
        <ele>620.2</ele>
        <time>2026-03-19T10:15:18Z</time>
      </trkpt>
      <trkpt lat="48.19414" lon="7.28083">
        <ele>620.3</ele>
        <time>2026-03-19T10:15:23Z</time>
      </trkpt>
      <trkpt lat="48.19411" lon="7.2808">
        <ele>619.9</ele>
        <time>2026-03-19T10:15:28Z</time>
      </trkpt>
      <trkpt lat="48.19406" lon="7.28076">
        <ele>619.5</ele>
        <time>2026-03-19T10:15:33Z</time>
      </trkpt>
      <trkpt lat="48.19402" lon="7.28071">
        <ele>618.6</ele>
        <time>2026-03-19T10:15:38Z</time>
      </trkpt>
      <trkpt lat="48.19398" lon="7.28069">
        <ele>618.7</ele>
        <time>2026-03-19T10:15:43Z</time>
      </trkpt>
      <trkpt lat="48.19394" lon="7.28065">
        <ele>618.1</ele>
        <time>2026-03-19T10:15:48Z</time>
      </trkpt>
      <trkpt lat="48.19391" lon="7.28061">
        <ele>617.3</ele>
        <time>2026-03-19T10:15:53Z</time>
      </trkpt>
      <trkpt lat="48.19387" lon="7.28058">
        <ele>617.1</ele>
        <time>2026-03-19T10:15:58Z</time>
      </trkpt>
      <trkpt lat="48.19384" lon="7.28055">
        <ele>616.6</ele>
        <time>2026-03-19T10:16:03Z</time>
      </trkpt>
      <trkpt lat="48.19379" lon="7.2805">
        <ele>615.9</ele>
        <time>2026-03-19T10:16:08Z</time>
      </trkpt>
      <trkpt lat="48.19375" lon="7.28044">
        <ele>614.7</ele>
        <time>2026-03-19T10:16:13Z</time>
      </trkpt>
      <trkpt lat="48.19371" lon="7.2804">
        <ele>614.2</ele>
        <time>2026-03-19T10:16:18Z</time>
      </trkpt>
      <trkpt lat="48.19366" lon="7.28036">
        <ele>613.7</ele>
        <time>2026-03-19T10:16:23Z</time>
      </trkpt>
      <trkpt lat="48.19362" lon="7.28032">
        <ele>613.2</ele>
        <time>2026-03-19T10:16:28Z</time>
      </trkpt>
      <trkpt lat="48.19357" lon="7.28029">
        <ele>613.1</ele>
        <time>2026-03-19T10:16:33Z</time>
      </trkpt>
      <trkpt lat="48.19352" lon="7.28029">
        <ele>613.9</ele>
        <time>2026-03-19T10:16:38Z</time>
      </trkpt>
      <trkpt lat="48.19348" lon="7.28026">
        <ele>613.6</ele>
        <time>2026-03-19T10:16:43Z</time>
      </trkpt>
      <trkpt lat="48.19344" lon="7.28023">
        <ele>613.4</ele>
        <time>2026-03-19T10:16:48Z</time>
      </trkpt>
      <trkpt lat="48.1934" lon="7.28019">
        <ele>612.8</ele>
        <time>2026-03-19T10:16:53Z</time>
      </trkpt>
      <trkpt lat="48.19336" lon="7.28016">
        <ele>612.5</ele>
        <time>2026-03-19T10:16:58Z</time>
      </trkpt>
      <trkpt lat="48.19333" lon="7.28014">
        <ele>612.5</ele>
        <time>2026-03-19T10:17:03Z</time>
      </trkpt>
      <trkpt lat="48.19328" lon="7.28016">
        <ele>614.7</ele>
        <time>2026-03-19T10:17:08Z</time>
      </trkpt>
      <trkpt lat="48.19324" lon="7.28015">
        <ele>615.7</ele>
        <time>2026-03-19T10:17:13Z</time>
      </trkpt>
      <trkpt lat="48.1932" lon="7.28014">
        <ele>616.7</ele>
        <time>2026-03-19T10:17:18Z</time>
      </trkpt>
      <trkpt lat="48.19315" lon="7.28013">
        <ele>618</ele>
        <time>2026-03-19T10:17:23Z</time>
      </trkpt>
      <trkpt lat="48.19309" lon="7.2801">
        <ele>619.1</ele>
        <time>2026-03-19T10:17:28Z</time>
      </trkpt>
      <trkpt lat="48.19304" lon="7.28009">
        <ele>620.5</ele>
        <time>2026-03-19T10:17:33Z</time>
      </trkpt>
      <trkpt lat="48.19301" lon="7.28008">
        <ele>621.3</ele>
        <time>2026-03-19T10:17:38Z</time>
      </trkpt>
      <trkpt lat="48.19297" lon="7.28007">
        <ele>622.4</ele>
        <time>2026-03-19T10:17:43Z</time>
      </trkpt>
      <trkpt lat="48.19293" lon="7.28006">
        <ele>623.5</ele>
        <time>2026-03-19T10:17:48Z</time>
      </trkpt>
      <trkpt lat="48.19288" lon="7.28003">
        <ele>624.5</ele>
        <time>2026-03-19T10:17:53Z</time>
      </trkpt>
      <trkpt lat="48.19284" lon="7.28">
        <ele>625.2</ele>
        <time>2026-03-19T10:17:58Z</time>
      </trkpt>
      <trkpt lat="48.1928" lon="7.27998">
        <ele>626.1</ele>
        <time>2026-03-19T10:18:03Z</time>
      </trkpt>
      <trkpt lat="48.19276" lon="7.27998">
        <ele>627.5</ele>
        <time>2026-03-19T10:18:08Z</time>
      </trkpt>
      <trkpt lat="48.19271" lon="7.27995">
        <ele>628.7</ele>
        <time>2026-03-19T10:18:13Z</time>
      </trkpt>
      <trkpt lat="48.19268" lon="7.27992">
        <ele>629.1</ele>
        <time>2026-03-19T10:18:18Z</time>
      </trkpt>
      <trkpt lat="48.19265" lon="7.27991">
        <ele>629.9</ele>
        <time>2026-03-19T10:18:23Z</time>
      </trkpt>
      <trkpt lat="48.1926" lon="7.27988">
        <ele>631.1</ele>
        <time>2026-03-19T10:18:28Z</time>
      </trkpt>
      <trkpt lat="48.19256" lon="7.27983">
        <ele>631.4</ele>
        <time>2026-03-19T10:18:33Z</time>
      </trkpt>
      <trkpt lat="48.19253" lon="7.27981">
        <ele>632.1</ele>
        <time>2026-03-19T10:18:38Z</time>
      </trkpt>
      <trkpt lat="48.1925" lon="7.27979">
        <ele>632.7</ele>
        <time>2026-03-19T10:18:43Z</time>
      </trkpt>
      <trkpt lat="48.19247" lon="7.27979">
        <ele>633.6</ele>
        <time>2026-03-19T10:18:48Z</time>
      </trkpt>
      <trkpt lat="48.19242" lon="7.27978">
        <ele>634.9</ele>
        <time>2026-03-19T10:18:53Z</time>
      </trkpt>
      <trkpt lat="48.19237" lon="7.27976">
        <ele>636</ele>
        <time>2026-03-19T10:18:58Z</time>
      </trkpt>
      <trkpt lat="48.19232" lon="7.27975">
        <ele>637.3</ele>
        <time>2026-03-19T10:19:03Z</time>
      </trkpt>
      <trkpt lat="48.19227" lon="7.27972">
        <ele>638.3</ele>
        <time>2026-03-19T10:19:08Z</time>
      </trkpt>
      <trkpt lat="48.19222" lon="7.27966">
        <ele>638.8</ele>
        <time>2026-03-19T10:19:13Z</time>
      </trkpt>
      <trkpt lat="48.19219" lon="7.27959">
        <ele>638.7</ele>
        <time>2026-03-19T10:19:18Z</time>
      </trkpt>
      <trkpt lat="48.19219" lon="7.27959">
        <ele>638.7</ele>
        <time>2026-03-19T10:19:23Z</time>
      </trkpt>
      <trkpt lat="48.19219" lon="7.27959">
        <ele>638.7</ele>
        <time>2026-03-19T10:19:28Z</time>
      </trkpt>
      <trkpt lat="48.19219" lon="7.27959">
        <ele>638.7</ele>
        <time>2026-03-19T10:19:33Z</time>
      </trkpt>
      <trkpt lat="48.19219" lon="7.27959">
        <ele>638.7</ele>
        <time>2026-03-19T10:19:38Z</time>
      </trkpt>
      <trkpt lat="48.19219" lon="7.27959">
        <ele>638.7</ele>
        <time>2026-03-19T10:19:43Z</time>
      </trkpt>
      <trkpt lat="48.19219" lon="7.27959">
        <ele>638.7</ele>
        <time>2026-03-19T10:19:48Z</time>
      </trkpt>
      <trkpt lat="48.19219" lon="7.27959">
        <ele>638.7</ele>
        <time>2026-03-19T10:19:53Z</time>
      </trkpt>
      <trkpt lat="48.19219" lon="7.27959">
        <ele>638.7</ele>
        <time>2026-03-19T10:19:58Z</time>
      </trkpt>
      <trkpt lat="48.19217" lon="7.27959">
        <ele>639.3</ele>
        <time>2026-03-19T10:20:03Z</time>
      </trkpt>
      <trkpt lat="48.19217" lon="7.27959">
        <ele>639.3</ele>
        <time>2026-03-19T10:20:08Z</time>
      </trkpt>
      <trkpt lat="48.19217" lon="7.27959">
        <ele>639.3</ele>
        <time>2026-03-19T10:20:13Z</time>
      </trkpt>
      <trkpt lat="48.19217" lon="7.27959">
        <ele>639.3</ele>
        <time>2026-03-19T10:20:18Z</time>
      </trkpt>
      <trkpt lat="48.19217" lon="7.27959">
        <ele>639.3</ele>
        <time>2026-03-19T10:20:23Z</time>
      </trkpt>
      <trkpt lat="48.19217" lon="7.27959">
        <ele>639.3</ele>
        <time>2026-03-19T10:20:28Z</time>
      </trkpt>
      <trkpt lat="48.19217" lon="7.27959">
        <ele>639.3</ele>
        <time>2026-03-19T10:20:33Z</time>
      </trkpt>
      <trkpt lat="48.19217" lon="7.27959">
        <ele>639.3</ele>
        <time>2026-03-19T10:20:38Z</time>
      </trkpt>
      <trkpt lat="48.19217" lon="7.27959">
        <ele>639.3</ele>
        <time>2026-03-19T10:20:43Z</time>
      </trkpt>
      <trkpt lat="48.19217" lon="7.27959">
        <ele>639.3</ele>
        <time>2026-03-19T10:20:48Z</time>
      </trkpt>
      <trkpt lat="48.19217" lon="7.27959">
        <ele>639.3</ele>
        <time>2026-03-19T10:20:53Z</time>
      </trkpt>
      <trkpt lat="48.19217" lon="7.27959">
        <ele>639.3</ele>
        <time>2026-03-19T10:20:58Z</time>
      </trkpt>
      <trkpt lat="48.19217" lon="7.27959">
        <ele>639.3</ele>
        <time>2026-03-19T10:21:03Z</time>
      </trkpt>
      <trkpt lat="48.19217" lon="7.27959">
        <ele>639.3</ele>
        <time>2026-03-19T10:21:08Z</time>
      </trkpt>
      <trkpt lat="48.19217" lon="7.27959">
        <ele>639.3</ele>
        <time>2026-03-19T10:21:13Z</time>
      </trkpt>
      <trkpt lat="48.19217" lon="7.27959">
        <ele>639.3</ele>
        <time>2026-03-19T10:21:18Z</time>
      </trkpt>
      <trkpt lat="48.19217" lon="7.27959">
        <ele>639.3</ele>
        <time>2026-03-19T10:21:23Z</time>
      </trkpt>
      <trkpt lat="48.19217" lon="7.27959">
        <ele>639.3</ele>
        <time>2026-03-19T10:21:28Z</time>
      </trkpt>
      <trkpt lat="48.19217" lon="7.27959">
        <ele>639.3</ele>
        <time>2026-03-19T10:21:33Z</time>
      </trkpt>
      <trkpt lat="48.19217" lon="7.27959">
        <ele>639.3</ele>
        <time>2026-03-19T10:21:38Z</time>
      </trkpt>
      <trkpt lat="48.19217" lon="7.27959">
        <ele>639.3</ele>
        <time>2026-03-19T10:21:43Z</time>
      </trkpt>
      <trkpt lat="48.19217" lon="7.27959">
        <ele>639.3</ele>
        <time>2026-03-19T10:21:48Z</time>
      </trkpt>
      <trkpt lat="48.19217" lon="7.27959">
        <ele>639.3</ele>
        <time>2026-03-19T10:21:53Z</time>
      </trkpt>
      <trkpt lat="48.19217" lon="7.27959">
        <ele>639.3</ele>
        <time>2026-03-19T10:21:58Z</time>
      </trkpt>
      <trkpt lat="48.19217" lon="7.27959">
        <ele>639.3</ele>
        <time>2026-03-19T10:22:03Z</time>
      </trkpt>
      <trkpt lat="48.19217" lon="7.27957">
        <ele>639</ele>
        <time>2026-03-19T10:22:08Z</time>
      </trkpt>
      <trkpt lat="48.19212" lon="7.27952">
        <ele>639.9</ele>
        <time>2026-03-19T10:22:13Z</time>
      </trkpt>
      <trkpt lat="48.19208" lon="7.27942">
        <ele>639.8</ele>
        <time>2026-03-19T10:22:18Z</time>
      </trkpt>
      <trkpt lat="48.19203" lon="7.27935">
        <ele>640.5</ele>
        <time>2026-03-19T10:22:23Z</time>
      </trkpt>
      <trkpt lat="48.19199" lon="7.2793">
        <ele>641.3</ele>
        <time>2026-03-19T10:22:28Z</time>
      </trkpt>
      <trkpt lat="48.19196" lon="7.27927">
        <ele>642</ele>
        <time>2026-03-19T10:22:33Z</time>
      </trkpt>
      <trkpt lat="48.19192" lon="7.27924">
        <ele>643.2</ele>
        <time>2026-03-19T10:22:38Z</time>
      </trkpt>
      <trkpt lat="48.19186" lon="7.27917">
        <ele>644.6</ele>
        <time>2026-03-19T10:22:43Z</time>
      </trkpt>
      <trkpt lat="48.19181" lon="7.27915">
        <ele>646.3</ele>
        <time>2026-03-19T10:22:48Z</time>
      </trkpt>
      <trkpt lat="48.19177" lon="7.27911">
        <ele>647.5</ele>
        <time>2026-03-19T10:22:53Z</time>
      </trkpt>
      <trkpt lat="48.19174" lon="7.27903">
        <ele>648</ele>
        <time>2026-03-19T10:22:58Z</time>
      </trkpt>
      <trkpt lat="48.1917" lon="7.27895">
        <ele>648.9</ele>
        <time>2026-03-19T10:23:03Z</time>
      </trkpt>
      <trkpt lat="48.19168" lon="7.2789">
        <ele>649.2</ele>
        <time>2026-03-19T10:23:08Z</time>
      </trkpt>
      <trkpt lat="48.19165" lon="7.27884">
        <ele>649.7</ele>
        <time>2026-03-19T10:23:13Z</time>
      </trkpt>
      <trkpt lat="48.19163" lon="7.27882">
        <ele>650</ele>
        <time>2026-03-19T10:23:18Z</time>
      </trkpt>
      <trkpt lat="48.19163" lon="7.27881">
        <ele>649.9</ele>
        <time>2026-03-19T10:23:23Z</time>
      </trkpt>
      <trkpt lat="48.19163" lon="7.27881">
        <ele>649.9</ele>
        <time>2026-03-19T10:23:28Z</time>
      </trkpt>
      <trkpt lat="48.19163" lon="7.27881">
        <ele>649.9</ele>
        <time>2026-03-19T10:23:33Z</time>
      </trkpt>
      <trkpt lat="48.19163" lon="7.27881">
        <ele>649.9</ele>
        <time>2026-03-19T10:23:38Z</time>
      </trkpt>
      <trkpt lat="48.19163" lon="7.27881">
        <ele>649.9</ele>
        <time>2026-03-19T10:23:43Z</time>
      </trkpt>
      <trkpt lat="48.19163" lon="7.27881">
        <ele>649.9</ele>
        <time>2026-03-19T10:23:48Z</time>
      </trkpt>
      <trkpt lat="48.19158" lon="7.27863">
        <ele>649.7</ele>
        <time>2026-03-19T10:23:53Z</time>
      </trkpt>
      <trkpt lat="48.19155" lon="7.27856">
        <ele>649.9</ele>
        <time>2026-03-19T10:23:58Z</time>
      </trkpt>
      <trkpt lat="48.19152" lon="7.27851">
        <ele>650.3</ele>
        <time>2026-03-19T10:24:03Z</time>
      </trkpt>
      <trkpt lat="48.19149" lon="7.27847">
        <ele>650.8</ele>
        <time>2026-03-19T10:24:08Z</time>
      </trkpt>
      <trkpt lat="48.19147" lon="7.27841">
        <ele>650.8</ele>
        <time>2026-03-19T10:24:13Z</time>
      </trkpt>
      <trkpt lat="48.19143" lon="7.27836">
        <ele>651.5</ele>
        <time>2026-03-19T10:24:18Z</time>
      </trkpt>
      <trkpt lat="48.19139" lon="7.27829">
        <ele>651.6</ele>
        <time>2026-03-19T10:24:23Z</time>
      </trkpt>
      <trkpt lat="48.19136" lon="7.27825">
        <ele>651.8</ele>
        <time>2026-03-19T10:24:28Z</time>
      </trkpt>
      <trkpt lat="48.19136" lon="7.27818">
        <ele>650.7</ele>
        <time>2026-03-19T10:24:33Z</time>
      </trkpt>
      <trkpt lat="48.19135" lon="7.27812">
        <ele>650</ele>
        <time>2026-03-19T10:24:38Z</time>
      </trkpt>
      <trkpt lat="48.19134" lon="7.27806">
        <ele>649.3</ele>
        <time>2026-03-19T10:24:43Z</time>
      </trkpt>
      <trkpt lat="48.19132" lon="7.27798">
        <ele>648.6</ele>
        <time>2026-03-19T10:24:48Z</time>
      </trkpt>
      <trkpt lat="48.1913" lon="7.27792">
        <ele>648.2</ele>
        <time>2026-03-19T10:24:53Z</time>
      </trkpt>
      <trkpt lat="48.19126" lon="7.27784">
        <ele>648</ele>
        <time>2026-03-19T10:24:58Z</time>
      </trkpt>
      <trkpt lat="48.19121" lon="7.27778">
        <ele>648.5</ele>
        <time>2026-03-19T10:25:03Z</time>
      </trkpt>
      <trkpt lat="48.19116" lon="7.27775">
        <ele>649.4</ele>
        <time>2026-03-19T10:25:08Z</time>
      </trkpt>
      <trkpt lat="48.19112" lon="7.2777">
        <ele>649.8</ele>
        <time>2026-03-19T10:25:13Z</time>
      </trkpt>
      <trkpt lat="48.19109" lon="7.27764">
        <ele>649.7</ele>
        <time>2026-03-19T10:25:18Z</time>
      </trkpt>
      <trkpt lat="48.19105" lon="7.27758">
        <ele>650</ele>
        <time>2026-03-19T10:25:23Z</time>
      </trkpt>
      <trkpt lat="48.19101" lon="7.27754">
        <ele>650.5</ele>
        <time>2026-03-19T10:25:28Z</time>
      </trkpt>
      <trkpt lat="48.19097" lon="7.27749">
        <ele>650.8</ele>
        <time>2026-03-19T10:25:33Z</time>
      </trkpt>
      <trkpt lat="48.19093" lon="7.27744">
        <ele>650.9</ele>
        <time>2026-03-19T10:25:38Z</time>
      </trkpt>
      <trkpt lat="48.19089" lon="7.27741">
        <ele>651.4</ele>
        <time>2026-03-19T10:25:43Z</time>
      </trkpt>
      <trkpt lat="48.19085" lon="7.27741">
        <ele>652.6</ele>
        <time>2026-03-19T10:25:48Z</time>
      </trkpt>
      <trkpt lat="48.19081" lon="7.27739">
        <ele>653.2</ele>
        <time>2026-03-19T10:25:53Z</time>
      </trkpt>
      <trkpt lat="48.19077" lon="7.27735">
        <ele>653.3</ele>
        <time>2026-03-19T10:25:58Z</time>
      </trkpt>
      <trkpt lat="48.19072" lon="7.27733">
        <ele>654.1</ele>
        <time>2026-03-19T10:26:03Z</time>
      </trkpt>
      <trkpt lat="48.19067" lon="7.27731">
        <ele>654.9</ele>
        <time>2026-03-19T10:26:08Z</time>
      </trkpt>
      <trkpt lat="48.19064" lon="7.27728">
        <ele>655.1</ele>
        <time>2026-03-19T10:26:13Z</time>
      </trkpt>
      <trkpt lat="48.1906" lon="7.27726">
        <ele>655.7</ele>
        <time>2026-03-19T10:26:18Z</time>
      </trkpt>
      <trkpt lat="48.19057" lon="7.27723">
        <ele>655.9</ele>
        <time>2026-03-19T10:26:23Z</time>
      </trkpt>
      <trkpt lat="48.19051" lon="7.27721">
        <ele>657.1</ele>
        <time>2026-03-19T10:26:28Z</time>
      </trkpt>
      <trkpt lat="48.19045" lon="7.27719">
        <ele>658.2</ele>
        <time>2026-03-19T10:26:33Z</time>
      </trkpt>
      <trkpt lat="48.19039" lon="7.27716">
        <ele>659.3</ele>
        <time>2026-03-19T10:26:38Z</time>
      </trkpt>
      <trkpt lat="48.19035" lon="7.27712">
        <ele>659.7</ele>
        <time>2026-03-19T10:26:43Z</time>
      </trkpt>
      <trkpt lat="48.19029" lon="7.27709">
        <ele>660.8</ele>
        <time>2026-03-19T10:26:48Z</time>
      </trkpt>
      <trkpt lat="48.19024" lon="7.27708">
        <ele>662</ele>
        <time>2026-03-19T10:26:53Z</time>
      </trkpt>
      <trkpt lat="48.1902" lon="7.27705">
        <ele>662.6</ele>
        <time>2026-03-19T10:26:58Z</time>
      </trkpt>
      <trkpt lat="48.19017" lon="7.27701">
        <ele>662.8</ele>
        <time>2026-03-19T10:27:03Z</time>
      </trkpt>
      <trkpt lat="48.19014" lon="7.27699">
        <ele>663.4</ele>
        <time>2026-03-19T10:27:08Z</time>
      </trkpt>
      <trkpt lat="48.19012" lon="7.27697">
        <ele>663.6</ele>
        <time>2026-03-19T10:27:13Z</time>
      </trkpt>
      <trkpt lat="48.19013" lon="7.27693">
        <ele>662.8</ele>
        <time>2026-03-19T10:27:18Z</time>
      </trkpt>
      <trkpt lat="48.19013" lon="7.27693">
        <ele>662.8</ele>
        <time>2026-03-19T10:27:23Z</time>
      </trkpt>
      <trkpt lat="48.19013" lon="7.27693">
        <ele>662.8</ele>
        <time>2026-03-19T10:27:28Z</time>
      </trkpt>
      <trkpt lat="48.19013" lon="7.27693">
        <ele>662.8</ele>
        <time>2026-03-19T10:27:33Z</time>
      </trkpt>
      <trkpt lat="48.19013" lon="7.27693">
        <ele>662.8</ele>
        <time>2026-03-19T10:27:38Z</time>
      </trkpt>
      <trkpt lat="48.19013" lon="7.27693">
        <ele>662.8</ele>
        <time>2026-03-19T10:27:43Z</time>
      </trkpt>
      <trkpt lat="48.19013" lon="7.27693">
        <ele>662.8</ele>
        <time>2026-03-19T10:27:48Z</time>
      </trkpt>
      <trkpt lat="48.19013" lon="7.27693">
        <ele>662.8</ele>
        <time>2026-03-19T10:27:53Z</time>
      </trkpt>
      <trkpt lat="48.19013" lon="7.27693">
        <ele>662.8</ele>
        <time>2026-03-19T10:27:58Z</time>
      </trkpt>
      <trkpt lat="48.19013" lon="7.27693">
        <ele>662.8</ele>
        <time>2026-03-19T10:28:03Z</time>
      </trkpt>
      <trkpt lat="48.19013" lon="7.27693">
        <ele>662.8</ele>
        <time>2026-03-19T10:28:08Z</time>
      </trkpt>
      <trkpt lat="48.19013" lon="7.27693">
        <ele>662.8</ele>
        <time>2026-03-19T10:28:13Z</time>
      </trkpt>
      <trkpt lat="48.19013" lon="7.27693">
        <ele>662.8</ele>
        <time>2026-03-19T10:28:18Z</time>
      </trkpt>
      <trkpt lat="48.19013" lon="7.27693">
        <ele>662.8</ele>
        <time>2026-03-19T10:28:23Z</time>
      </trkpt>
      <trkpt lat="48.19013" lon="7.27693">
        <ele>662.8</ele>
        <time>2026-03-19T10:28:28Z</time>
      </trkpt>
      <trkpt lat="48.19013" lon="7.27693">
        <ele>662.8</ele>
        <time>2026-03-19T10:28:33Z</time>
      </trkpt>
      <trkpt lat="48.19013" lon="7.27693">
        <ele>662.8</ele>
        <time>2026-03-19T10:28:38Z</time>
      </trkpt>
      <trkpt lat="48.19013" lon="7.27693">
        <ele>662.8</ele>
        <time>2026-03-19T10:28:43Z</time>
      </trkpt>
      <trkpt lat="48.19005" lon="7.27683">
        <ele>663.7</ele>
        <time>2026-03-19T10:28:48Z</time>
      </trkpt>
      <trkpt lat="48.19003" lon="7.27678">
        <ele>663.6</ele>
        <time>2026-03-19T10:28:53Z</time>
      </trkpt>
      <trkpt lat="48.18999" lon="7.27675">
        <ele>664.4</ele>
        <time>2026-03-19T10:28:58Z</time>
      </trkpt>
      <trkpt lat="48.18993" lon="7.2767">
        <ele>665.3</ele>
        <time>2026-03-19T10:29:03Z</time>
      </trkpt>
      <trkpt lat="48.18987" lon="7.27668">
        <ele>666.7</ele>
        <time>2026-03-19T10:29:08Z</time>
      </trkpt>
      <trkpt lat="48.18981" lon="7.27662">
        <ele>667.9</ele>
        <time>2026-03-19T10:29:13Z</time>
      </trkpt>
      <trkpt lat="48.18976" lon="7.27657">
        <ele>669</ele>
        <time>2026-03-19T10:29:18Z</time>
      </trkpt>
      <trkpt lat="48.18974" lon="7.27657">
        <ele>669.6</ele>
        <time>2026-03-19T10:29:23Z</time>
      </trkpt>
      <trkpt lat="48.18974" lon="7.27657">
        <ele>669.6</ele>
        <time>2026-03-19T10:29:28Z</time>
      </trkpt>
      <trkpt lat="48.18974" lon="7.27657">
        <ele>669.6</ele>
        <time>2026-03-19T10:29:33Z</time>
      </trkpt>
      <trkpt lat="48.18974" lon="7.27657">
        <ele>669.6</ele>
        <time>2026-03-19T10:29:38Z</time>
      </trkpt>
      <trkpt lat="48.18974" lon="7.27657">
        <ele>669.6</ele>
        <time>2026-03-19T10:29:43Z</time>
      </trkpt>
      <trkpt lat="48.18974" lon="7.27657">
        <ele>669.6</ele>
        <time>2026-03-19T10:29:48Z</time>
      </trkpt>
      <trkpt lat="48.18974" lon="7.27657">
        <ele>669.6</ele>
        <time>2026-03-19T10:29:53Z</time>
      </trkpt>
      <trkpt lat="48.18974" lon="7.27657">
        <ele>669.6</ele>
        <time>2026-03-19T10:29:58Z</time>
      </trkpt>
      <trkpt lat="48.1897" lon="7.27657">
        <ele>670.7</ele>
        <time>2026-03-19T10:30:03Z</time>
      </trkpt>
      <trkpt lat="48.18967" lon="7.27652">
        <ele>671.3</ele>
        <time>2026-03-19T10:30:08Z</time>
      </trkpt>
      <trkpt lat="48.18961" lon="7.27643">
        <ele>672.6</ele>
        <time>2026-03-19T10:30:13Z</time>
      </trkpt>
      <trkpt lat="48.18958" lon="7.27638">
        <ele>673.2</ele>
        <time>2026-03-19T10:30:18Z</time>
      </trkpt>
      <trkpt lat="48.18954" lon="7.27635">
        <ele>674.3</ele>
        <time>2026-03-19T10:30:23Z</time>
      </trkpt>
      <trkpt lat="48.1895" lon="7.27628">
        <ele>675.2</ele>
        <time>2026-03-19T10:30:28Z</time>
      </trkpt>
      <trkpt lat="48.18946" lon="7.27623">
        <ele>676.3</ele>
        <time>2026-03-19T10:30:33Z</time>
      </trkpt>
      <trkpt lat="48.18943" lon="7.27617">
        <ele>677</ele>
        <time>2026-03-19T10:30:38Z</time>
      </trkpt>
      <trkpt lat="48.18939" lon="7.27611">
        <ele>678.1</ele>
        <time>2026-03-19T10:30:43Z</time>
      </trkpt>
      <trkpt lat="48.18935" lon="7.27603">
        <ele>679.2</ele>
        <time>2026-03-19T10:30:48Z</time>
      </trkpt>
      <trkpt lat="48.18932" lon="7.27597">
        <ele>680</ele>
        <time>2026-03-19T10:30:53Z</time>
      </trkpt>
      <trkpt lat="48.1893" lon="7.27588">
        <ele>680.5</ele>
        <time>2026-03-19T10:30:58Z</time>
      </trkpt>
      <trkpt lat="48.18928" lon="7.27582">
        <ele>681</ele>
        <time>2026-03-19T10:31:03Z</time>
      </trkpt>
      <trkpt lat="48.18926" lon="7.27576">
        <ele>681.7</ele>
        <time>2026-03-19T10:31:08Z</time>
      </trkpt>
      <trkpt lat="48.18924" lon="7.27568">
        <ele>682.3</ele>
        <time>2026-03-19T10:31:13Z</time>
      </trkpt>
      <trkpt lat="48.18922" lon="7.27559">
        <ele>682.9</ele>
        <time>2026-03-19T10:31:18Z</time>
      </trkpt>
      <trkpt lat="48.1892" lon="7.27553">
        <ele>683.5</ele>
        <time>2026-03-19T10:31:23Z</time>
      </trkpt>
      <trkpt lat="48.18918" lon="7.2755">
        <ele>684.1</ele>
        <time>2026-03-19T10:31:28Z</time>
      </trkpt>
      <trkpt lat="48.18918" lon="7.2755">
        <ele>684.1</ele>
        <time>2026-03-19T10:31:33Z</time>
      </trkpt>
      <trkpt lat="48.18918" lon="7.2755">
        <ele>684.1</ele>
        <time>2026-03-19T10:31:38Z</time>
      </trkpt>
      <trkpt lat="48.18918" lon="7.2755">
        <ele>684.1</ele>
        <time>2026-03-19T10:31:43Z</time>
      </trkpt>
      <trkpt lat="48.18918" lon="7.2755">
        <ele>684.1</ele>
        <time>2026-03-19T10:31:48Z</time>
      </trkpt>
      <trkpt lat="48.18918" lon="7.2755">
        <ele>684.1</ele>
        <time>2026-03-19T10:31:53Z</time>
      </trkpt>
      <trkpt lat="48.18918" lon="7.2755">
        <ele>684.1</ele>
        <time>2026-03-19T10:31:58Z</time>
      </trkpt>
      <trkpt lat="48.18918" lon="7.2755">
        <ele>684.1</ele>
        <time>2026-03-19T10:32:03Z</time>
      </trkpt>
      <trkpt lat="48.18918" lon="7.2755">
        <ele>684.1</ele>
        <time>2026-03-19T10:32:08Z</time>
      </trkpt>
      <trkpt lat="48.18917" lon="7.27549">
        <ele>684.5</ele>
        <time>2026-03-19T10:32:13Z</time>
      </trkpt>
      <trkpt lat="48.1892" lon="7.2754">
        <ele>683.4</ele>
        <time>2026-03-19T10:32:18Z</time>
      </trkpt>
      <trkpt lat="48.1892" lon="7.27532">
        <ele>683.3</ele>
        <time>2026-03-19T10:32:23Z</time>
      </trkpt>
      <trkpt lat="48.18919" lon="7.27525">
        <ele>683.5</ele>
        <time>2026-03-19T10:32:28Z</time>
      </trkpt>
      <trkpt lat="48.18914" lon="7.27521">
        <ele>684.3</ele>
        <time>2026-03-19T10:32:33Z</time>
      </trkpt>
      <trkpt lat="48.18915" lon="7.27514">
        <ele>684.2</ele>
        <time>2026-03-19T10:32:38Z</time>
      </trkpt>
      <trkpt lat="48.18914" lon="7.27505">
        <ele>684.1</ele>
        <time>2026-03-19T10:32:43Z</time>
      </trkpt>
      <trkpt lat="48.18914" lon="7.27496">
        <ele>683.7</ele>
        <time>2026-03-19T10:32:48Z</time>
      </trkpt>
      <trkpt lat="48.18913" lon="7.27487">
        <ele>683.1</ele>
        <time>2026-03-19T10:32:53Z</time>
      </trkpt>
      <trkpt lat="48.18912" lon="7.27478">
        <ele>682.5</ele>
        <time>2026-03-19T10:32:58Z</time>
      </trkpt>
      <trkpt lat="48.18909" lon="7.27471">
        <ele>682.1</ele>
        <time>2026-03-19T10:33:03Z</time>
      </trkpt>
      <trkpt lat="48.18906" lon="7.27464">
        <ele>681.6</ele>
        <time>2026-03-19T10:33:08Z</time>
      </trkpt>
      <trkpt lat="48.18902" lon="7.27459">
        <ele>681.4</ele>
        <time>2026-03-19T10:33:13Z</time>
      </trkpt>
      <trkpt lat="48.18899" lon="7.27453">
        <ele>681.1</ele>
        <time>2026-03-19T10:33:18Z</time>
      </trkpt>
      <trkpt lat="48.18896" lon="7.27445">
        <ele>680.6</ele>
        <time>2026-03-19T10:33:23Z</time>
      </trkpt>
      <trkpt lat="48.18893" lon="7.27441">
        <ele>680.4</ele>
        <time>2026-03-19T10:33:28Z</time>
      </trkpt>
      <trkpt lat="48.18889" lon="7.27436">
        <ele>680.2</ele>
        <time>2026-03-19T10:33:33Z</time>
      </trkpt>
      <trkpt lat="48.18885" lon="7.2743">
        <ele>680</ele>
        <time>2026-03-19T10:33:38Z</time>
      </trkpt>
      <trkpt lat="48.18881" lon="7.27425">
        <ele>679.8</ele>
        <time>2026-03-19T10:33:43Z</time>
      </trkpt>
      <trkpt lat="48.18877" lon="7.2742">
        <ele>679.6</ele>
        <time>2026-03-19T10:33:48Z</time>
      </trkpt>
      <trkpt lat="48.18873" lon="7.27416">
        <ele>679.5</ele>
        <time>2026-03-19T10:33:53Z</time>
      </trkpt>
      <trkpt lat="48.18868" lon="7.27413">
        <ele>679.5</ele>
        <time>2026-03-19T10:33:58Z</time>
      </trkpt>
      <trkpt lat="48.18863" lon="7.2741">
        <ele>679.5</ele>
        <time>2026-03-19T10:34:03Z</time>
      </trkpt>
      <trkpt lat="48.18859" lon="7.27408">
        <ele>679.5</ele>
        <time>2026-03-19T10:34:08Z</time>
      </trkpt>
      <trkpt lat="48.18854" lon="7.27403">
        <ele>679.4</ele>
        <time>2026-03-19T10:34:13Z</time>
      </trkpt>
      <trkpt lat="48.18848" lon="7.27399">
        <ele>679.3</ele>
        <time>2026-03-19T10:34:18Z</time>
      </trkpt>
      <trkpt lat="48.18842" lon="7.27394">
        <ele>679.1</ele>
        <time>2026-03-19T10:34:23Z</time>
      </trkpt>
      <trkpt lat="48.18837" lon="7.27389">
        <ele>678.9</ele>
        <time>2026-03-19T10:34:28Z</time>
      </trkpt>
      <trkpt lat="48.18833" lon="7.27386">
        <ele>678.7</ele>
        <time>2026-03-19T10:34:33Z</time>
      </trkpt>
      <trkpt lat="48.18829" lon="7.27384">
        <ele>677.4</ele>
        <time>2026-03-19T10:34:38Z</time>
      </trkpt>
      <trkpt lat="48.18823" lon="7.27382">
        <ele>675.5</ele>
        <time>2026-03-19T10:34:43Z</time>
      </trkpt>
      <trkpt lat="48.18819" lon="7.27377">
        <ele>673.9</ele>
        <time>2026-03-19T10:34:48Z</time>
      </trkpt>
      <trkpt lat="48.18817" lon="7.27372">
        <ele>673</ele>
        <time>2026-03-19T10:34:53Z</time>
      </trkpt>
      <trkpt lat="48.18813" lon="7.2737">
        <ele>671.6</ele>
        <time>2026-03-19T10:34:58Z</time>
      </trkpt>
      <trkpt lat="48.18809" lon="7.27368">
        <ele>670.3</ele>
        <time>2026-03-19T10:35:03Z</time>
      </trkpt>
      <trkpt lat="48.18805" lon="7.27365">
        <ele>668.9</ele>
        <time>2026-03-19T10:35:08Z</time>
      </trkpt>
      <trkpt lat="48.188" lon="7.27364">
        <ele>667.4</ele>
        <time>2026-03-19T10:35:13Z</time>
      </trkpt>
      <trkpt lat="48.18793" lon="7.27362">
        <ele>665.1</ele>
        <time>2026-03-19T10:35:18Z</time>
      </trkpt>
      <trkpt lat="48.18787" lon="7.27363">
        <ele>663.4</ele>
        <time>2026-03-19T10:35:23Z</time>
      </trkpt>
      <trkpt lat="48.18783" lon="7.27359">
        <ele>661.9</ele>
        <time>2026-03-19T10:35:28Z</time>
      </trkpt>
      <trkpt lat="48.18782" lon="7.27351">
        <ele>661</ele>
        <time>2026-03-19T10:35:33Z</time>
      </trkpt>
      <trkpt lat="48.18781" lon="7.27341">
        <ele>659.9</ele>
        <time>2026-03-19T10:35:38Z</time>
      </trkpt>
      <trkpt lat="48.1878" lon="7.27332">
        <ele>659.1</ele>
        <time>2026-03-19T10:35:43Z</time>
      </trkpt>
      <trkpt lat="48.18778" lon="7.2732">
        <ele>659.1</ele>
        <time>2026-03-19T10:35:48Z</time>
      </trkpt>
      <trkpt lat="48.18779" lon="7.27309">
        <ele>659.9</ele>
        <time>2026-03-19T10:35:53Z</time>
      </trkpt>
      <trkpt lat="48.18779" lon="7.273">
        <ele>660.4</ele>
        <time>2026-03-19T10:35:58Z</time>
      </trkpt>
      <trkpt lat="48.18778" lon="7.27291">
        <ele>660.6</ele>
        <time>2026-03-19T10:36:03Z</time>
      </trkpt>
      <trkpt lat="48.18777" lon="7.2728">
        <ele>660.9</ele>
        <time>2026-03-19T10:36:08Z</time>
      </trkpt>
      <trkpt lat="48.18777" lon="7.2727">
        <ele>661.4</ele>
        <time>2026-03-19T10:36:13Z</time>
      </trkpt>
      <trkpt lat="48.18778" lon="7.27261">
        <ele>662.1</ele>
        <time>2026-03-19T10:36:18Z</time>
      </trkpt>
      <trkpt lat="48.18778" lon="7.27251">
        <ele>662.7</ele>
        <time>2026-03-19T10:36:23Z</time>
      </trkpt>
      <trkpt lat="48.18778" lon="7.27242">
        <ele>662.9</ele>
        <time>2026-03-19T10:36:28Z</time>
      </trkpt>
      <trkpt lat="48.18779" lon="7.27234">
        <ele>663.4</ele>
        <time>2026-03-19T10:36:33Z</time>
      </trkpt>
      <trkpt lat="48.1878" lon="7.27226">
        <ele>663.8</ele>
        <time>2026-03-19T10:36:38Z</time>
      </trkpt>
      <trkpt lat="48.18782" lon="7.27217">
        <ele>664.5</ele>
        <time>2026-03-19T10:36:43Z</time>
      </trkpt>
      <trkpt lat="48.18784" lon="7.27207">
        <ele>665.2</ele>
        <time>2026-03-19T10:36:48Z</time>
      </trkpt>
      <trkpt lat="48.18785" lon="7.27199">
        <ele>665.6</ele>
        <time>2026-03-19T10:36:53Z</time>
      </trkpt>
      <trkpt lat="48.18785" lon="7.2719">
        <ele>665.8</ele>
        <time>2026-03-19T10:36:58Z</time>
      </trkpt>
      <trkpt lat="48.18787" lon="7.2718">
        <ele>666.4</ele>
        <time>2026-03-19T10:37:03Z</time>
      </trkpt>
      <trkpt lat="48.18789" lon="7.27171">
        <ele>666.9</ele>
        <time>2026-03-19T10:37:08Z</time>
      </trkpt>
      <trkpt lat="48.1879" lon="7.27162">
        <ele>667.1</ele>
        <time>2026-03-19T10:37:13Z</time>
      </trkpt>
      <trkpt lat="48.18792" lon="7.27153">
        <ele>667.2</ele>
        <time>2026-03-19T10:37:18Z</time>
      </trkpt>
      <trkpt lat="48.18795" lon="7.27145">
        <ele>667.5</ele>
        <time>2026-03-19T10:37:23Z</time>
      </trkpt>
      <trkpt lat="48.18795" lon="7.27134">
        <ele>667.1</ele>
        <time>2026-03-19T10:37:28Z</time>
      </trkpt>
      <trkpt lat="48.18795" lon="7.27126">
        <ele>666.9</ele>
        <time>2026-03-19T10:37:33Z</time>
      </trkpt>
      <trkpt lat="48.18797" lon="7.27116">
        <ele>667</ele>
        <time>2026-03-19T10:37:38Z</time>
      </trkpt>
      <trkpt lat="48.18798" lon="7.27106">
        <ele>666.9</ele>
        <time>2026-03-19T10:37:43Z</time>
      </trkpt>
      <trkpt lat="48.18801" lon="7.27096">
        <ele>667.2</ele>
        <time>2026-03-19T10:37:48Z</time>
      </trkpt>
      <trkpt lat="48.18802" lon="7.27086">
        <ele>667.1</ele>
        <time>2026-03-19T10:37:53Z</time>
      </trkpt>
      <trkpt lat="48.18806" lon="7.27078">
        <ele>667.6</ele>
        <time>2026-03-19T10:37:58Z</time>
      </trkpt>
      <trkpt lat="48.1881" lon="7.27069">
        <ele>668.2</ele>
        <time>2026-03-19T10:38:03Z</time>
      </trkpt>
      <trkpt lat="48.18814" lon="7.27061">
        <ele>668.9</ele>
        <time>2026-03-19T10:38:08Z</time>
      </trkpt>
      <trkpt lat="48.18815" lon="7.27052">
        <ele>669</ele>
        <time>2026-03-19T10:38:13Z</time>
      </trkpt>
      <trkpt lat="48.18818" lon="7.27043">
        <ele>669.5</ele>
        <time>2026-03-19T10:38:18Z</time>
      </trkpt>
      <trkpt lat="48.18815" lon="7.27035">
        <ele>668.7</ele>
        <time>2026-03-19T10:38:23Z</time>
      </trkpt>
      <trkpt lat="48.18814" lon="7.2703">
        <ele>668.4</ele>
        <time>2026-03-19T10:38:28Z</time>
      </trkpt>
      <trkpt lat="48.18811" lon="7.27024">
        <ele>667.6</ele>
        <time>2026-03-19T10:38:33Z</time>
      </trkpt>
      <trkpt lat="48.18807" lon="7.27019">
        <ele>666.5</ele>
        <time>2026-03-19T10:38:38Z</time>
      </trkpt>
      <trkpt lat="48.18802" lon="7.27011">
        <ele>665</ele>
        <time>2026-03-19T10:38:43Z</time>
      </trkpt>
      <trkpt lat="48.18804" lon="7.27003">
        <ele>665.3</ele>
        <time>2026-03-19T10:38:48Z</time>
      </trkpt>
      <trkpt lat="48.18811" lon="7.26999">
        <ele>667.1</ele>
        <time>2026-03-19T10:38:53Z</time>
      </trkpt>
      <trkpt lat="48.18817" lon="7.26998">
        <ele>668.8</ele>
        <time>2026-03-19T10:38:58Z</time>
      </trkpt>
      <trkpt lat="48.18819" lon="7.26997">
        <ele>669.3</ele>
        <time>2026-03-19T10:39:03Z</time>
      </trkpt>
      <trkpt lat="48.18819" lon="7.26992">
        <ele>669.5</ele>
        <time>2026-03-19T10:39:08Z</time>
      </trkpt>
      <trkpt lat="48.18818" lon="7.26985">
        <ele>669.5</ele>
        <time>2026-03-19T10:39:13Z</time>
      </trkpt>
      <trkpt lat="48.18819" lon="7.26977">
        <ele>670.1</ele>
        <time>2026-03-19T10:39:18Z</time>
      </trkpt>
      <trkpt lat="48.18821" lon="7.2697">
        <ele>671</ele>
        <time>2026-03-19T10:39:23Z</time>
      </trkpt>
      <trkpt lat="48.18824" lon="7.26963">
        <ele>672.1</ele>
        <time>2026-03-19T10:39:28Z</time>
      </trkpt>
      <trkpt lat="48.18824" lon="7.26963">
        <ele>672.1</ele>
        <time>2026-03-19T10:39:33Z</time>
      </trkpt>
      <trkpt lat="48.18824" lon="7.26963">
        <ele>672.1</ele>
        <time>2026-03-19T10:39:38Z</time>
      </trkpt>
      <trkpt lat="48.18824" lon="7.26963">
        <ele>672.1</ele>
        <time>2026-03-19T10:39:43Z</time>
      </trkpt>
      <trkpt lat="48.18829" lon="7.26952">
        <ele>674</ele>
        <time>2026-03-19T10:39:48Z</time>
      </trkpt>
      <trkpt lat="48.18832" lon="7.26946">
        <ele>675.2</ele>
        <time>2026-03-19T10:39:53Z</time>
      </trkpt>
      <trkpt lat="48.18834" lon="7.26939">
        <ele>676</ele>
        <time>2026-03-19T10:39:58Z</time>
      </trkpt>
      <trkpt lat="48.18837" lon="7.26932">
        <ele>676.6</ele>
        <time>2026-03-19T10:40:03Z</time>
      </trkpt>
      <trkpt lat="48.18838" lon="7.26924">
        <ele>677.1</ele>
        <time>2026-03-19T10:40:08Z</time>
      </trkpt>
      <trkpt lat="48.1884" lon="7.26916">
        <ele>677.8</ele>
        <time>2026-03-19T10:40:13Z</time>
      </trkpt>
      <trkpt lat="48.18841" lon="7.26906">
        <ele>678.7</ele>
        <time>2026-03-19T10:40:18Z</time>
      </trkpt>
      <trkpt lat="48.18843" lon="7.26897">
        <ele>679.8</ele>
        <time>2026-03-19T10:40:23Z</time>
      </trkpt>
      <trkpt lat="48.18844" lon="7.26887">
        <ele>680.7</ele>
        <time>2026-03-19T10:40:28Z</time>
      </trkpt>
      <trkpt lat="48.18845" lon="7.2688">
        <ele>681.5</ele>
        <time>2026-03-19T10:40:33Z</time>
      </trkpt>
      <trkpt lat="48.18845" lon="7.26872">
        <ele>682.2</ele>
        <time>2026-03-19T10:40:38Z</time>
      </trkpt>
      <trkpt lat="48.18847" lon="7.26863">
        <ele>683.2</ele>
        <time>2026-03-19T10:40:43Z</time>
      </trkpt>
      <trkpt lat="48.18848" lon="7.26856">
        <ele>683.9</ele>
        <time>2026-03-19T10:40:48Z</time>
      </trkpt>
      <trkpt lat="48.18849" lon="7.26849">
        <ele>684.7</ele>
        <time>2026-03-19T10:40:53Z</time>
      </trkpt>
      <trkpt lat="48.18851" lon="7.26841">
        <ele>685.6</ele>
        <time>2026-03-19T10:40:58Z</time>
      </trkpt>
      <trkpt lat="48.18852" lon="7.26835">
        <ele>686.3</ele>
        <time>2026-03-19T10:41:03Z</time>
      </trkpt>
      <trkpt lat="48.18852" lon="7.26827">
        <ele>686.6</ele>
        <time>2026-03-19T10:41:08Z</time>
      </trkpt>
      <trkpt lat="48.18851" lon="7.26819">
        <ele>686.6</ele>
        <time>2026-03-19T10:41:13Z</time>
      </trkpt>
      <trkpt lat="48.18851" lon="7.26812">
        <ele>686.7</ele>
        <time>2026-03-19T10:41:18Z</time>
      </trkpt>
      <trkpt lat="48.18851" lon="7.26806">
        <ele>686.7</ele>
        <time>2026-03-19T10:41:23Z</time>
      </trkpt>
      <trkpt lat="48.18852" lon="7.26801">
        <ele>687</ele>
        <time>2026-03-19T10:41:28Z</time>
      </trkpt>
      <trkpt lat="48.18853" lon="7.26794">
        <ele>687.3</ele>
        <time>2026-03-19T10:41:33Z</time>
      </trkpt>
      <trkpt lat="48.18855" lon="7.26783">
        <ele>687.8</ele>
        <time>2026-03-19T10:41:38Z</time>
      </trkpt>
      <trkpt lat="48.18859" lon="7.26775">
        <ele>688.7</ele>
        <time>2026-03-19T10:41:43Z</time>
      </trkpt>
      <trkpt lat="48.1886" lon="7.26765">
        <ele>689.1</ele>
        <time>2026-03-19T10:41:48Z</time>
      </trkpt>
      <trkpt lat="48.18863" lon="7.26759">
        <ele>689.8</ele>
        <time>2026-03-19T10:41:53Z</time>
      </trkpt>
      <trkpt lat="48.18867" lon="7.26752">
        <ele>690.8</ele>
        <time>2026-03-19T10:41:58Z</time>
      </trkpt>
      <trkpt lat="48.18872" lon="7.26745">
        <ele>692.1</ele>
        <time>2026-03-19T10:42:03Z</time>
      </trkpt>
      <trkpt lat="48.18876" lon="7.26738">
        <ele>693.1</ele>
        <time>2026-03-19T10:42:08Z</time>
      </trkpt>
      <trkpt lat="48.1888" lon="7.26732">
        <ele>694.2</ele>
        <time>2026-03-19T10:42:13Z</time>
      </trkpt>
      <trkpt lat="48.18884" lon="7.26726">
        <ele>695.3</ele>
        <time>2026-03-19T10:42:18Z</time>
      </trkpt>
      <trkpt lat="48.18887" lon="7.26722">
        <ele>696.1</ele>
        <time>2026-03-19T10:42:23Z</time>
      </trkpt>
      <trkpt lat="48.18892" lon="7.2672">
        <ele>697.3</ele>
        <time>2026-03-19T10:42:28Z</time>
      </trkpt>
      <trkpt lat="48.18897" lon="7.26717">
        <ele>698.6</ele>
        <time>2026-03-19T10:42:33Z</time>
      </trkpt>
      <trkpt lat="48.18902" lon="7.26715">
        <ele>699.8</ele>
        <time>2026-03-19T10:42:38Z</time>
      </trkpt>
      <trkpt lat="48.18906" lon="7.26713">
        <ele>700.8</ele>
        <time>2026-03-19T10:42:43Z</time>
      </trkpt>
      <trkpt lat="48.18909" lon="7.26711">
        <ele>701.6</ele>
        <time>2026-03-19T10:42:48Z</time>
      </trkpt>
      <trkpt lat="48.18913" lon="7.26707">
        <ele>702.7</ele>
        <time>2026-03-19T10:42:53Z</time>
      </trkpt>
      <trkpt lat="48.18916" lon="7.26706">
        <ele>703.5</ele>
        <time>2026-03-19T10:42:58Z</time>
      </trkpt>
      <trkpt lat="48.18919" lon="7.26703">
        <ele>704</ele>
        <time>2026-03-19T10:43:03Z</time>
      </trkpt>
      <trkpt lat="48.18923" lon="7.26703">
        <ele>704.4</ele>
        <time>2026-03-19T10:43:08Z</time>
      </trkpt>
      <trkpt lat="48.18925" lon="7.26703">
        <ele>704.6</ele>
        <time>2026-03-19T10:43:13Z</time>
      </trkpt>
      <trkpt lat="48.18928" lon="7.26701">
        <ele>705</ele>
        <time>2026-03-19T10:43:18Z</time>
      </trkpt>
      <trkpt lat="48.18931" lon="7.26699">
        <ele>705.5</ele>
        <time>2026-03-19T10:43:23Z</time>
      </trkpt>
      <trkpt lat="48.18935" lon="7.26694">
        <ele>706.4</ele>
        <time>2026-03-19T10:43:28Z</time>
      </trkpt>
      <trkpt lat="48.18938" lon="7.26694">
        <ele>706.7</ele>
        <time>2026-03-19T10:43:33Z</time>
      </trkpt>
      <trkpt lat="48.18942" lon="7.26692">
        <ele>707.3</ele>
        <time>2026-03-19T10:43:38Z</time>
      </trkpt>
      <trkpt lat="48.18944" lon="7.26692">
        <ele>707.6</ele>
        <time>2026-03-19T10:43:43Z</time>
      </trkpt>
      <trkpt lat="48.18947" lon="7.2669">
        <ele>708.2</ele>
        <time>2026-03-19T10:43:48Z</time>
      </trkpt>
      <trkpt lat="48.18952" lon="7.26689">
        <ele>708.9</ele>
        <time>2026-03-19T10:43:53Z</time>
      </trkpt>
      <trkpt lat="48.18956" lon="7.26687">
        <ele>709.7</ele>
        <time>2026-03-19T10:43:58Z</time>
      </trkpt>
      <trkpt lat="48.18959" lon="7.26685">
        <ele>710.3</ele>
        <time>2026-03-19T10:44:03Z</time>
      </trkpt>
      <trkpt lat="48.18962" lon="7.26682">
        <ele>711.2</ele>
        <time>2026-03-19T10:44:08Z</time>
      </trkpt>
      <trkpt lat="48.18964" lon="7.2668">
        <ele>711.8</ele>
        <time>2026-03-19T10:44:13Z</time>
      </trkpt>
      <trkpt lat="48.18966" lon="7.2668">
        <ele>712.1</ele>
        <time>2026-03-19T10:44:18Z</time>
      </trkpt>
      <trkpt lat="48.18967" lon="7.26681">
        <ele>712</ele>
        <time>2026-03-19T10:44:23Z</time>
      </trkpt>
      <trkpt lat="48.18972" lon="7.26674">
        <ele>714</ele>
        <time>2026-03-19T10:44:28Z</time>
      </trkpt>
      <trkpt lat="48.18974" lon="7.2667">
        <ele>715</ele>
        <time>2026-03-19T10:44:33Z</time>
      </trkpt>
      <trkpt lat="48.18977" lon="7.26666">
        <ele>716.3</ele>
        <time>2026-03-19T10:44:38Z</time>
      </trkpt>
      <trkpt lat="48.18984" lon="7.26666">
        <ele>717.4</ele>
        <time>2026-03-19T10:44:43Z</time>
      </trkpt>
      <trkpt lat="48.1899" lon="7.26662">
        <ele>719.2</ele>
        <time>2026-03-19T10:44:48Z</time>
      </trkpt>
      <trkpt lat="48.18994" lon="7.26663">
        <ele>719.7</ele>
        <time>2026-03-19T10:44:53Z</time>
      </trkpt>
      <trkpt lat="48.18998" lon="7.26665">
        <ele>720</ele>
        <time>2026-03-19T10:44:58Z</time>
      </trkpt>
      <trkpt lat="48.19002" lon="7.26665">
        <ele>720.6</ele>
        <time>2026-03-19T10:45:03Z</time>
      </trkpt>
      <trkpt lat="48.19007" lon="7.26666">
        <ele>721.1</ele>
        <time>2026-03-19T10:45:08Z</time>
      </trkpt>
      <trkpt lat="48.19014" lon="7.26666">
        <ele>722.2</ele>
        <time>2026-03-19T10:45:13Z</time>
      </trkpt>
      <trkpt lat="48.19018" lon="7.26669">
        <ele>722</ele>
        <time>2026-03-19T10:45:18Z</time>
      </trkpt>
      <trkpt lat="48.19021" lon="7.26673">
        <ele>721.3</ele>
        <time>2026-03-19T10:45:23Z</time>
      </trkpt>
      <trkpt lat="48.19025" lon="7.26675">
        <ele>721.2</ele>
        <time>2026-03-19T10:45:28Z</time>
      </trkpt>
      <trkpt lat="48.19028" lon="7.26679">
        <ele>720.5</ele>
        <time>2026-03-19T10:45:33Z</time>
      </trkpt>
      <trkpt lat="48.19033" lon="7.26681">
        <ele>720.5</ele>
        <time>2026-03-19T10:45:38Z</time>
      </trkpt>
      <trkpt lat="48.19038" lon="7.26682">
        <ele>720.8</ele>
        <time>2026-03-19T10:45:43Z</time>
      </trkpt>
      <trkpt lat="48.19045" lon="7.26683">
        <ele>721.3</ele>
        <time>2026-03-19T10:45:48Z</time>
      </trkpt>
      <trkpt lat="48.1905" lon="7.26685">
        <ele>721.2</ele>
        <time>2026-03-19T10:45:53Z</time>
      </trkpt>
      <trkpt lat="48.19055" lon="7.26688">
        <ele>720.8</ele>
        <time>2026-03-19T10:45:58Z</time>
      </trkpt>
      <trkpt lat="48.19059" lon="7.26691">
        <ele>720.2</ele>
        <time>2026-03-19T10:46:03Z</time>
      </trkpt>
      <trkpt lat="48.19064" lon="7.26695">
        <ele>719.3</ele>
        <time>2026-03-19T10:46:08Z</time>
      </trkpt>
      <trkpt lat="48.19071" lon="7.26698">
        <ele>718.9</ele>
        <time>2026-03-19T10:46:13Z</time>
      </trkpt>
      <trkpt lat="48.19077" lon="7.26701">
        <ele>718.3</ele>
        <time>2026-03-19T10:46:18Z</time>
      </trkpt>
      <trkpt lat="48.19083" lon="7.26703">
        <ele>718</ele>
        <time>2026-03-19T10:46:23Z</time>
      </trkpt>
      <trkpt lat="48.1909" lon="7.26703">
        <ele>718.9</ele>
        <time>2026-03-19T10:46:28Z</time>
      </trkpt>
      <trkpt lat="48.19094" lon="7.26704">
        <ele>719</ele>
        <time>2026-03-19T10:46:33Z</time>
      </trkpt>
      <trkpt lat="48.191" lon="7.26705">
        <ele>719.4</ele>
        <time>2026-03-19T10:46:38Z</time>
      </trkpt>
      <trkpt lat="48.19106" lon="7.26707">
        <ele>719.5</ele>
        <time>2026-03-19T10:46:43Z</time>
      </trkpt>
      <trkpt lat="48.19111" lon="7.26708">
        <ele>719.8</ele>
        <time>2026-03-19T10:46:48Z</time>
      </trkpt>
      <trkpt lat="48.19118" lon="7.2671">
        <ele>720</ele>
        <time>2026-03-19T10:46:53Z</time>
      </trkpt>
      <trkpt lat="48.19125" lon="7.26711">
        <ele>720.6</ele>
        <time>2026-03-19T10:46:58Z</time>
      </trkpt>
      <trkpt lat="48.1913" lon="7.26711">
        <ele>721.2</ele>
        <time>2026-03-19T10:47:03Z</time>
      </trkpt>
      <trkpt lat="48.19137" lon="7.2671">
        <ele>722.5</ele>
        <time>2026-03-19T10:47:08Z</time>
      </trkpt>
      <trkpt lat="48.19142" lon="7.26709">
        <ele>723.5</ele>
        <time>2026-03-19T10:47:13Z</time>
      </trkpt>
      <trkpt lat="48.19149" lon="7.26707">
        <ele>725.1</ele>
        <time>2026-03-19T10:47:18Z</time>
      </trkpt>
      <trkpt lat="48.19154" lon="7.26705">
        <ele>726.4</ele>
        <time>2026-03-19T10:47:23Z</time>
      </trkpt>
      <trkpt lat="48.1916" lon="7.26703">
        <ele>727.8</ele>
        <time>2026-03-19T10:47:28Z</time>
      </trkpt>
      <trkpt lat="48.19167" lon="7.26701">
        <ele>729.3</ele>
        <time>2026-03-19T10:47:33Z</time>
      </trkpt>
      <trkpt lat="48.19167" lon="7.26698">
        <ele>730.2</ele>
        <time>2026-03-19T10:47:38Z</time>
      </trkpt>
      <trkpt lat="48.19167" lon="7.26696">
        <ele>730.8</ele>
        <time>2026-03-19T10:47:43Z</time>
      </trkpt>
      <trkpt lat="48.19175" lon="7.26694">
        <ele>731.3</ele>
        <time>2026-03-19T10:47:48Z</time>
      </trkpt>
      <trkpt lat="48.1918" lon="7.26692">
        <ele>731.8</ele>
        <time>2026-03-19T10:47:53Z</time>
      </trkpt>
      <trkpt lat="48.19186" lon="7.26688">
        <ele>732.7</ele>
        <time>2026-03-19T10:47:58Z</time>
      </trkpt>
      <trkpt lat="48.19192" lon="7.26682">
        <ele>734.1</ele>
        <time>2026-03-19T10:48:03Z</time>
      </trkpt>
      <trkpt lat="48.19198" lon="7.26679">
        <ele>734.6</ele>
        <time>2026-03-19T10:48:08Z</time>
      </trkpt>
      <trkpt lat="48.19203" lon="7.26674">
        <ele>735.6</ele>
        <time>2026-03-19T10:48:13Z</time>
      </trkpt>
      <trkpt lat="48.19209" lon="7.26672">
        <ele>735.7</ele>
        <time>2026-03-19T10:48:18Z</time>
      </trkpt>
      <trkpt lat="48.19214" lon="7.26669">
        <ele>736.1</ele>
        <time>2026-03-19T10:48:23Z</time>
      </trkpt>
      <trkpt lat="48.19218" lon="7.26663">
        <ele>736.7</ele>
        <time>2026-03-19T10:48:28Z</time>
      </trkpt>
      <trkpt lat="48.19221" lon="7.26656">
        <ele>737.3</ele>
        <time>2026-03-19T10:48:33Z</time>
      </trkpt>
      <trkpt lat="48.19224" lon="7.2665">
        <ele>737.7</ele>
        <time>2026-03-19T10:48:38Z</time>
      </trkpt>
      <trkpt lat="48.19225" lon="7.26645">
        <ele>738.2</ele>
        <time>2026-03-19T10:48:43Z</time>
      </trkpt>
      <trkpt lat="48.19227" lon="7.26638">
        <ele>738.7</ele>
        <time>2026-03-19T10:48:48Z</time>
      </trkpt>
      <trkpt lat="48.19231" lon="7.26633">
        <ele>738.8</ele>
        <time>2026-03-19T10:48:53Z</time>
      </trkpt>
      <trkpt lat="48.19235" lon="7.26627">
        <ele>739</ele>
        <time>2026-03-19T10:48:58Z</time>
      </trkpt>
      <trkpt lat="48.19236" lon="7.26621">
        <ele>739.5</ele>
        <time>2026-03-19T10:49:03Z</time>
      </trkpt>
      <trkpt lat="48.19231" lon="7.26612">
        <ele>741</ele>
        <time>2026-03-19T10:49:08Z</time>
      </trkpt>
      <trkpt lat="48.19228" lon="7.26603">
        <ele>742.3</ele>
        <time>2026-03-19T10:49:13Z</time>
      </trkpt>
      <trkpt lat="48.19225" lon="7.26595">
        <ele>743.6</ele>
        <time>2026-03-19T10:49:18Z</time>
      </trkpt>
      <trkpt lat="48.19224" lon="7.26588">
        <ele>744.5</ele>
        <time>2026-03-19T10:49:23Z</time>
      </trkpt>
      <trkpt lat="48.19221" lon="7.26582">
        <ele>745.6</ele>
        <time>2026-03-19T10:49:28Z</time>
      </trkpt>
      <trkpt lat="48.19217" lon="7.26576">
        <ele>746.3</ele>
        <time>2026-03-19T10:49:33Z</time>
      </trkpt>
      <trkpt lat="48.19213" lon="7.2657">
        <ele>747.1</ele>
        <time>2026-03-19T10:49:38Z</time>
      </trkpt>
      <trkpt lat="48.19208" lon="7.26564">
        <ele>748.1</ele>
        <time>2026-03-19T10:49:43Z</time>
      </trkpt>
      <trkpt lat="48.19203" lon="7.26556">
        <ele>749.2</ele>
        <time>2026-03-19T10:49:48Z</time>
      </trkpt>
      <trkpt lat="48.19199" lon="7.26551">
        <ele>750.1</ele>
        <time>2026-03-19T10:49:53Z</time>
      </trkpt>
      <trkpt lat="48.19194" lon="7.26546">
        <ele>751.1</ele>
        <time>2026-03-19T10:49:58Z</time>
      </trkpt>
      <trkpt lat="48.19189" lon="7.26543">
        <ele>752.1</ele>
        <time>2026-03-19T10:50:03Z</time>
      </trkpt>
      <trkpt lat="48.19186" lon="7.26538">
        <ele>752.8</ele>
        <time>2026-03-19T10:50:08Z</time>
      </trkpt>
      <trkpt lat="48.19182" lon="7.26532">
        <ele>753.7</ele>
        <time>2026-03-19T10:50:13Z</time>
      </trkpt>
      <trkpt lat="48.19178" lon="7.26526">
        <ele>754.7</ele>
        <time>2026-03-19T10:50:18Z</time>
      </trkpt>
      <trkpt lat="48.19173" lon="7.26522">
        <ele>755.8</ele>
        <time>2026-03-19T10:50:23Z</time>
      </trkpt>
      <trkpt lat="48.1917" lon="7.26517">
        <ele>756.6</ele>
        <time>2026-03-19T10:50:28Z</time>
      </trkpt>
      <trkpt lat="48.19165" lon="7.26511">
        <ele>757.5</ele>
        <time>2026-03-19T10:50:33Z</time>
      </trkpt>
      <trkpt lat="48.19159" lon="7.26504">
        <ele>758.2</ele>
        <time>2026-03-19T10:50:38Z</time>
      </trkpt>
      <trkpt lat="48.19155" lon="7.26498">
        <ele>758.5</ele>
        <time>2026-03-19T10:50:43Z</time>
      </trkpt>
      <trkpt lat="48.19149" lon="7.26492">
        <ele>758.6</ele>
        <time>2026-03-19T10:50:48Z</time>
      </trkpt>
      <trkpt lat="48.19144" lon="7.26484">
        <ele>758.7</ele>
        <time>2026-03-19T10:50:53Z</time>
      </trkpt>
      <trkpt lat="48.19141" lon="7.26475">
        <ele>758.7</ele>
        <time>2026-03-19T10:50:58Z</time>
      </trkpt>
      <trkpt lat="48.19134" lon="7.26463">
        <ele>758.9</ele>
        <time>2026-03-19T10:51:03Z</time>
      </trkpt>
      <trkpt lat="48.1913" lon="7.26453">
        <ele>759.1</ele>
        <time>2026-03-19T10:51:08Z</time>
      </trkpt>
      <trkpt lat="48.19127" lon="7.26445">
        <ele>759.2</ele>
        <time>2026-03-19T10:51:13Z</time>
      </trkpt>
      <trkpt lat="48.19124" lon="7.26434">
        <ele>759.3</ele>
        <time>2026-03-19T10:51:18Z</time>
      </trkpt>
      <trkpt lat="48.19122" lon="7.26428">
        <ele>759.4</ele>
        <time>2026-03-19T10:51:23Z</time>
      </trkpt>
      <trkpt lat="48.19121" lon="7.26422">
        <ele>759.4</ele>
        <time>2026-03-19T10:51:28Z</time>
      </trkpt>
      <trkpt lat="48.19118" lon="7.26414">
        <ele>759.8</ele>
        <time>2026-03-19T10:51:33Z</time>
      </trkpt>
      <trkpt lat="48.19116" lon="7.26408">
        <ele>760.2</ele>
        <time>2026-03-19T10:51:38Z</time>
      </trkpt>
      <trkpt lat="48.19116" lon="7.26398">
        <ele>760.6</ele>
        <time>2026-03-19T10:51:43Z</time>
      </trkpt>
      <trkpt lat="48.19114" lon="7.2639">
        <ele>761.1</ele>
        <time>2026-03-19T10:51:48Z</time>
      </trkpt>
      <trkpt lat="48.19112" lon="7.2638">
        <ele>761.7</ele>
        <time>2026-03-19T10:51:53Z</time>
      </trkpt>
      <trkpt lat="48.19111" lon="7.26371">
        <ele>762.2</ele>
        <time>2026-03-19T10:51:58Z</time>
      </trkpt>
      <trkpt lat="48.19111" lon="7.26362">
        <ele>762.5</ele>
        <time>2026-03-19T10:52:03Z</time>
      </trkpt>
      <trkpt lat="48.19112" lon="7.26355">
        <ele>762.7</ele>
        <time>2026-03-19T10:52:08Z</time>
      </trkpt>
      <trkpt lat="48.19113" lon="7.26348">
        <ele>762.9</ele>
        <time>2026-03-19T10:52:13Z</time>
      </trkpt>
      <trkpt lat="48.19115" lon="7.26337">
        <ele>763.2</ele>
        <time>2026-03-19T10:52:18Z</time>
      </trkpt>
      <trkpt lat="48.19114" lon="7.26326">
        <ele>763.8</ele>
        <time>2026-03-19T10:52:23Z</time>
      </trkpt>
      <trkpt lat="48.19113" lon="7.26319">
        <ele>764.2</ele>
        <time>2026-03-19T10:52:28Z</time>
      </trkpt>
      <trkpt lat="48.19112" lon="7.26309">
        <ele>764.8</ele>
        <time>2026-03-19T10:52:33Z</time>
      </trkpt>
      <trkpt lat="48.19111" lon="7.263">
        <ele>765.3</ele>
        <time>2026-03-19T10:52:38Z</time>
      </trkpt>
      <trkpt lat="48.1911" lon="7.26291">
        <ele>765.8</ele>
        <time>2026-03-19T10:52:43Z</time>
      </trkpt>
      <trkpt lat="48.19109" lon="7.2628">
        <ele>766.4</ele>
        <time>2026-03-19T10:52:48Z</time>
      </trkpt>
      <trkpt lat="48.19106" lon="7.26266">
        <ele>767.3</ele>
        <time>2026-03-19T10:52:53Z</time>
      </trkpt>
      <trkpt lat="48.19106" lon="7.26258">
        <ele>767.7</ele>
        <time>2026-03-19T10:52:58Z</time>
      </trkpt>
      <trkpt lat="48.19104" lon="7.26248">
        <ele>768.4</ele>
        <time>2026-03-19T10:53:03Z</time>
      </trkpt>
      <trkpt lat="48.19105" lon="7.26239">
        <ele>768.7</ele>
        <time>2026-03-19T10:53:08Z</time>
      </trkpt>
      <trkpt lat="48.19106" lon="7.26233">
        <ele>768.9</ele>
        <time>2026-03-19T10:53:13Z</time>
      </trkpt>
      <trkpt lat="48.19107" lon="7.2622">
        <ele>769.5</ele>
        <time>2026-03-19T10:53:18Z</time>
      </trkpt>
      <trkpt lat="48.19107" lon="7.2621">
        <ele>769.9</ele>
        <time>2026-03-19T10:53:23Z</time>
      </trkpt>
      <trkpt lat="48.19106" lon="7.26198">
        <ele>770.6</ele>
        <time>2026-03-19T10:53:28Z</time>
      </trkpt>
      <trkpt lat="48.19104" lon="7.26192">
        <ele>771</ele>
        <time>2026-03-19T10:53:33Z</time>
      </trkpt>
      <trkpt lat="48.19104" lon="7.26184">
        <ele>771.4</ele>
        <time>2026-03-19T10:53:38Z</time>
      </trkpt>
      <trkpt lat="48.19104" lon="7.26175">
        <ele>771.9</ele>
        <time>2026-03-19T10:53:43Z</time>
      </trkpt>
      <trkpt lat="48.19106" lon="7.26168">
        <ele>772</ele>
        <time>2026-03-19T10:53:48Z</time>
      </trkpt>
      <trkpt lat="48.19106" lon="7.26161">
        <ele>772.2</ele>
        <time>2026-03-19T10:53:53Z</time>
      </trkpt>
      <trkpt lat="48.19106" lon="7.26154">
        <ele>772.2</ele>
        <time>2026-03-19T10:53:58Z</time>
      </trkpt>
      <trkpt lat="48.19104" lon="7.26141">
        <ele>772.5</ele>
        <time>2026-03-19T10:54:03Z</time>
      </trkpt>
      <trkpt lat="48.19102" lon="7.2613">
        <ele>772.7</ele>
        <time>2026-03-19T10:54:08Z</time>
      </trkpt>
      <trkpt lat="48.19102" lon="7.26122">
        <ele>772.8</ele>
        <time>2026-03-19T10:54:13Z</time>
      </trkpt>
      <trkpt lat="48.19101" lon="7.26114">
        <ele>772.9</ele>
        <time>2026-03-19T10:54:18Z</time>
      </trkpt>
      <trkpt lat="48.19103" lon="7.26105">
        <ele>772.9</ele>
        <time>2026-03-19T10:54:23Z</time>
      </trkpt>
      <trkpt lat="48.19101" lon="7.26097">
        <ele>773</ele>
        <time>2026-03-19T10:54:28Z</time>
      </trkpt>
      <trkpt lat="48.19101" lon="7.26091">
        <ele>773.1</ele>
        <time>2026-03-19T10:54:33Z</time>
      </trkpt>
      <trkpt lat="48.19103" lon="7.26084">
        <ele>773.1</ele>
        <time>2026-03-19T10:54:38Z</time>
      </trkpt>
      <trkpt lat="48.19104" lon="7.26077">
        <ele>773.1</ele>
        <time>2026-03-19T10:54:43Z</time>
      </trkpt>
      <trkpt lat="48.19103" lon="7.26066">
        <ele>773.4</ele>
        <time>2026-03-19T10:54:48Z</time>
      </trkpt>
      <trkpt lat="48.19106" lon="7.26057">
        <ele>773.5</ele>
        <time>2026-03-19T10:54:53Z</time>
      </trkpt>
      <trkpt lat="48.19108" lon="7.26045">
        <ele>773.8</ele>
        <time>2026-03-19T10:54:58Z</time>
      </trkpt>
      <trkpt lat="48.19111" lon="7.26034">
        <ele>774</ele>
        <time>2026-03-19T10:55:03Z</time>
      </trkpt>
      <trkpt lat="48.19112" lon="7.26026">
        <ele>774.3</ele>
        <time>2026-03-19T10:55:08Z</time>
      </trkpt>
      <trkpt lat="48.19115" lon="7.26015">
        <ele>774.7</ele>
        <time>2026-03-19T10:55:13Z</time>
      </trkpt>
      <trkpt lat="48.19117" lon="7.26006">
        <ele>775</ele>
        <time>2026-03-19T10:55:18Z</time>
      </trkpt>
      <trkpt lat="48.19118" lon="7.25998">
        <ele>775.3</ele>
        <time>2026-03-19T10:55:23Z</time>
      </trkpt>
      <trkpt lat="48.19118" lon="7.2599">
        <ele>775.7</ele>
        <time>2026-03-19T10:55:28Z</time>
      </trkpt>
      <trkpt lat="48.19119" lon="7.25985">
        <ele>775.9</ele>
        <time>2026-03-19T10:55:33Z</time>
      </trkpt>
      <trkpt lat="48.1912" lon="7.25979">
        <ele>776.2</ele>
        <time>2026-03-19T10:55:38Z</time>
      </trkpt>
      <trkpt lat="48.1912" lon="7.2597">
        <ele>776.6</ele>
        <time>2026-03-19T10:55:43Z</time>
      </trkpt>
      <trkpt lat="48.19119" lon="7.25963">
        <ele>776.9</ele>
        <time>2026-03-19T10:55:48Z</time>
      </trkpt>
      <trkpt lat="48.19118" lon="7.25954">
        <ele>777.2</ele>
        <time>2026-03-19T10:55:53Z</time>
      </trkpt>
      <trkpt lat="48.19119" lon="7.25946">
        <ele>777.6</ele>
        <time>2026-03-19T10:55:58Z</time>
      </trkpt>
      <trkpt lat="48.19119" lon="7.25936">
        <ele>778</ele>
        <time>2026-03-19T10:56:03Z</time>
      </trkpt>
      <trkpt lat="48.19121" lon="7.25926">
        <ele>778.5</ele>
        <time>2026-03-19T10:56:08Z</time>
      </trkpt>
      <trkpt lat="48.1912" lon="7.25919">
        <ele>778.8</ele>
        <time>2026-03-19T10:56:13Z</time>
      </trkpt>
      <trkpt lat="48.1912" lon="7.25912">
        <ele>779.1</ele>
        <time>2026-03-19T10:56:18Z</time>
      </trkpt>
      <trkpt lat="48.1912" lon="7.25905">
        <ele>779.4</ele>
        <time>2026-03-19T10:56:23Z</time>
      </trkpt>
      <trkpt lat="48.19121" lon="7.25895">
        <ele>779.9</ele>
        <time>2026-03-19T10:56:28Z</time>
      </trkpt>
      <trkpt lat="48.19123" lon="7.25885">
        <ele>780.5</ele>
        <time>2026-03-19T10:56:33Z</time>
      </trkpt>
      <trkpt lat="48.19125" lon="7.25876">
        <ele>781</ele>
        <time>2026-03-19T10:56:38Z</time>
      </trkpt>
      <trkpt lat="48.19126" lon="7.25869">
        <ele>781.3</ele>
        <time>2026-03-19T10:56:43Z</time>
      </trkpt>
      <trkpt lat="48.19126" lon="7.25861">
        <ele>781.7</ele>
        <time>2026-03-19T10:56:48Z</time>
      </trkpt>
      <trkpt lat="48.19128" lon="7.25855">
        <ele>782</ele>
        <time>2026-03-19T10:56:53Z</time>
      </trkpt>
      <trkpt lat="48.19131" lon="7.25847">
        <ele>782.5</ele>
        <time>2026-03-19T10:56:58Z</time>
      </trkpt>
      <trkpt lat="48.19132" lon="7.25841">
        <ele>782.8</ele>
        <time>2026-03-19T10:57:03Z</time>
      </trkpt>
      <trkpt lat="48.19133" lon="7.25832">
        <ele>783.3</ele>
        <time>2026-03-19T10:57:08Z</time>
      </trkpt>
      <trkpt lat="48.19134" lon="7.25822">
        <ele>783.8</ele>
        <time>2026-03-19T10:57:13Z</time>
      </trkpt>
      <trkpt lat="48.19134" lon="7.25814">
        <ele>784.1</ele>
        <time>2026-03-19T10:57:18Z</time>
      </trkpt>
      <trkpt lat="48.19134" lon="7.25801">
        <ele>784.8</ele>
        <time>2026-03-19T10:57:23Z</time>
      </trkpt>
      <trkpt lat="48.1913" lon="7.25787">
        <ele>785.3</ele>
        <time>2026-03-19T10:57:28Z</time>
      </trkpt>
      <trkpt lat="48.19125" lon="7.25782">
        <ele>785.5</ele>
        <time>2026-03-19T10:57:33Z</time>
      </trkpt>
      <trkpt lat="48.1912" lon="7.25781">
        <ele>785.4</ele>
        <time>2026-03-19T10:57:38Z</time>
      </trkpt>
      <trkpt lat="48.19114" lon="7.25785">
        <ele>785.1</ele>
        <time>2026-03-19T10:57:43Z</time>
      </trkpt>
      <trkpt lat="48.19108" lon="7.25791">
        <ele>784.6</ele>
        <time>2026-03-19T10:57:48Z</time>
      </trkpt>
      <trkpt lat="48.19108" lon="7.25795">
        <ele>784.4</ele>
        <time>2026-03-19T10:57:53Z</time>
      </trkpt>
      <trkpt lat="48.19108" lon="7.25795">
        <ele>784.4</ele>
        <time>2026-03-19T10:57:58Z</time>
      </trkpt>
      <trkpt lat="48.19108" lon="7.25795">
        <ele>784.4</ele>
        <time>2026-03-19T10:58:03Z</time>
      </trkpt>
      <trkpt lat="48.19108" lon="7.25795">
        <ele>784.4</ele>
        <time>2026-03-19T10:58:08Z</time>
      </trkpt>
      <trkpt lat="48.19108" lon="7.25795">
        <ele>784.4</ele>
        <time>2026-03-19T10:58:13Z</time>
      </trkpt>
      <trkpt lat="48.19108" lon="7.25795">
        <ele>784.4</ele>
        <time>2026-03-19T10:58:18Z</time>
      </trkpt>
      <trkpt lat="48.19108" lon="7.25795">
        <ele>784.4</ele>
        <time>2026-03-19T10:58:23Z</time>
      </trkpt>
      <trkpt lat="48.19108" lon="7.25795">
        <ele>784.4</ele>
        <time>2026-03-19T10:58:28Z</time>
      </trkpt>
      <trkpt lat="48.19108" lon="7.25795">
        <ele>784.4</ele>
        <time>2026-03-19T10:58:33Z</time>
      </trkpt>
      <trkpt lat="48.19108" lon="7.25795">
        <ele>784.4</ele>
        <time>2026-03-19T10:58:38Z</time>
      </trkpt>
      <trkpt lat="48.19108" lon="7.25795">
        <ele>784.4</ele>
        <time>2026-03-19T10:58:43Z</time>
      </trkpt>
      <trkpt lat="48.19108" lon="7.25795">
        <ele>784.4</ele>
        <time>2026-03-19T10:58:48Z</time>
      </trkpt>
      <trkpt lat="48.19108" lon="7.25795">
        <ele>784.4</ele>
        <time>2026-03-19T10:58:53Z</time>
      </trkpt>
      <trkpt lat="48.19108" lon="7.25795">
        <ele>784.4</ele>
        <time>2026-03-19T10:58:58Z</time>
      </trkpt>
      <trkpt lat="48.19108" lon="7.25795">
        <ele>784.4</ele>
        <time>2026-03-19T10:59:03Z</time>
      </trkpt>
      <trkpt lat="48.19108" lon="7.25795">
        <ele>784.4</ele>
        <time>2026-03-19T10:59:08Z</time>
      </trkpt>
      <trkpt lat="48.19108" lon="7.25795">
        <ele>784.4</ele>
        <time>2026-03-19T10:59:13Z</time>
      </trkpt>
      <trkpt lat="48.19108" lon="7.25795">
        <ele>784.4</ele>
        <time>2026-03-19T10:59:18Z</time>
      </trkpt>
      <trkpt lat="48.19108" lon="7.25795">
        <ele>784.4</ele>
        <time>2026-03-19T10:59:23Z</time>
      </trkpt>
      <trkpt lat="48.19108" lon="7.25795">
        <ele>784.4</ele>
        <time>2026-03-19T10:59:28Z</time>
      </trkpt>
      <trkpt lat="48.19108" lon="7.25795">
        <ele>784.4</ele>
        <time>2026-03-19T10:59:33Z</time>
      </trkpt>
      <trkpt lat="48.19108" lon="7.25795">
        <ele>784.4</ele>
        <time>2026-03-19T10:59:38Z</time>
      </trkpt>
      <trkpt lat="48.19108" lon="7.25795">
        <ele>784.4</ele>
        <time>2026-03-19T10:59:43Z</time>
      </trkpt>
      <trkpt lat="48.19108" lon="7.25795">
        <ele>784.4</ele>
        <time>2026-03-19T10:59:48Z</time>
      </trkpt>
      <trkpt lat="48.19108" lon="7.25795">
        <ele>784.4</ele>
        <time>2026-03-19T10:59:53Z</time>
      </trkpt>
      <trkpt lat="48.19108" lon="7.25795">
        <ele>784.4</ele>
        <time>2026-03-19T10:59:58Z</time>
      </trkpt>
      <trkpt lat="48.19108" lon="7.25795">
        <ele>784.4</ele>
        <time>2026-03-19T11:00:03Z</time>
      </trkpt>
      <trkpt lat="48.19108" lon="7.25795">
        <ele>784.4</ele>
        <time>2026-03-19T11:00:08Z</time>
      </trkpt>
      <trkpt lat="48.19108" lon="7.25795">
        <ele>784.4</ele>
        <time>2026-03-19T11:00:13Z</time>
      </trkpt>
      <trkpt lat="48.19108" lon="7.25795">
        <ele>784.4</ele>
        <time>2026-03-19T11:00:18Z</time>
      </trkpt>
      <trkpt lat="48.19108" lon="7.25795">
        <ele>784.4</ele>
        <time>2026-03-19T11:00:23Z</time>
      </trkpt>
      <trkpt lat="48.19108" lon="7.25795">
        <ele>784.4</ele>
        <time>2026-03-19T11:00:28Z</time>
      </trkpt>
      <trkpt lat="48.19108" lon="7.25795">
        <ele>784.4</ele>
        <time>2026-03-19T11:00:33Z</time>
      </trkpt>
      <trkpt lat="48.19108" lon="7.25795">
        <ele>784.4</ele>
        <time>2026-03-19T11:00:38Z</time>
      </trkpt>
      <trkpt lat="48.19108" lon="7.25795">
        <ele>784.4</ele>
        <time>2026-03-19T11:00:43Z</time>
      </trkpt>
      <trkpt lat="48.19108" lon="7.25795">
        <ele>784.4</ele>
        <time>2026-03-19T11:00:48Z</time>
      </trkpt>
      <trkpt lat="48.19108" lon="7.25795">
        <ele>784.4</ele>
        <time>2026-03-19T11:00:53Z</time>
      </trkpt>
      <trkpt lat="48.19108" lon="7.25795">
        <ele>784.4</ele>
        <time>2026-03-19T11:00:58Z</time>
      </trkpt>
      <trkpt lat="48.19108" lon="7.25795">
        <ele>784.4</ele>
        <time>2026-03-19T11:01:03Z</time>
      </trkpt>
      <trkpt lat="48.19108" lon="7.25795">
        <ele>784.4</ele>
        <time>2026-03-19T11:01:08Z</time>
      </trkpt>
      <trkpt lat="48.19108" lon="7.25795">
        <ele>784.4</ele>
        <time>2026-03-19T11:01:13Z</time>
      </trkpt>
      <trkpt lat="48.19108" lon="7.25795">
        <ele>784.4</ele>
        <time>2026-03-19T11:01:18Z</time>
      </trkpt>
      <trkpt lat="48.19108" lon="7.25795">
        <ele>784.4</ele>
        <time>2026-03-19T11:01:23Z</time>
      </trkpt>
      <trkpt lat="48.19098" lon="7.25792">
        <ele>784.3</ele>
        <time>2026-03-19T11:01:28Z</time>
      </trkpt>
      <trkpt lat="48.19093" lon="7.25798">
        <ele>783.9</ele>
        <time>2026-03-19T11:01:33Z</time>
      </trkpt>
      <trkpt lat="48.1909" lon="7.25802">
        <ele>783.7</ele>
        <time>2026-03-19T11:01:38Z</time>
      </trkpt>
      <trkpt lat="48.19086" lon="7.25803">
        <ele>783.5</ele>
        <time>2026-03-19T11:01:43Z</time>
      </trkpt>
      <trkpt lat="48.19081" lon="7.25807">
        <ele>782.8</ele>
        <time>2026-03-19T11:01:48Z</time>
      </trkpt>
      <trkpt lat="48.19077" lon="7.25811">
        <ele>781.9</ele>
        <time>2026-03-19T11:01:53Z</time>
      </trkpt>
      <trkpt lat="48.19072" lon="7.25813">
        <ele>780.9</ele>
        <time>2026-03-19T11:01:58Z</time>
      </trkpt>
      <trkpt lat="48.19065" lon="7.25816">
        <ele>779.5</ele>
        <time>2026-03-19T11:02:03Z</time>
      </trkpt>
      <trkpt lat="48.19058" lon="7.25818">
        <ele>778.1</ele>
        <time>2026-03-19T11:02:08Z</time>
      </trkpt>
      <trkpt lat="48.19052" lon="7.25817">
        <ele>777.1</ele>
        <time>2026-03-19T11:02:13Z</time>
      </trkpt>
      <trkpt lat="48.19047" lon="7.25815">
        <ele>776.2</ele>
        <time>2026-03-19T11:02:18Z</time>
      </trkpt>
      <trkpt lat="48.19041" lon="7.25814">
        <ele>775.2</ele>
        <time>2026-03-19T11:02:23Z</time>
      </trkpt>
      <trkpt lat="48.19035" lon="7.2581">
        <ele>774.3</ele>
        <time>2026-03-19T11:02:28Z</time>
      </trkpt>
      <trkpt lat="48.19028" lon="7.25809">
        <ele>773</ele>
        <time>2026-03-19T11:02:33Z</time>
      </trkpt>
      <trkpt lat="48.19023" lon="7.258">
        <ele>772.5</ele>
        <time>2026-03-19T11:02:38Z</time>
      </trkpt>
      <trkpt lat="48.19022" lon="7.25798">
        <ele>772.3</ele>
        <time>2026-03-19T11:02:43Z</time>
      </trkpt>
      <trkpt lat="48.19023" lon="7.25798">
        <ele>772.5</ele>
        <time>2026-03-19T11:02:48Z</time>
      </trkpt>
      <trkpt lat="48.19024" lon="7.25798">
        <ele>772.7</ele>
        <time>2026-03-19T11:02:53Z</time>
      </trkpt>
      <trkpt lat="48.19028" lon="7.25809">
        <ele>773</ele>
        <time>2026-03-19T11:02:58Z</time>
      </trkpt>
      <trkpt lat="48.19028" lon="7.25809">
        <ele>773</ele>
        <time>2026-03-19T11:03:03Z</time>
      </trkpt>
      <trkpt lat="48.19032" lon="7.25808">
        <ele>773.8</ele>
        <time>2026-03-19T11:03:08Z</time>
      </trkpt>
      <trkpt lat="48.19033" lon="7.25802">
        <ele>774.2</ele>
        <time>2026-03-19T11:03:13Z</time>
      </trkpt>
      <trkpt lat="48.19033" lon="7.25797">
        <ele>774.4</ele>
        <time>2026-03-19T11:03:18Z</time>
      </trkpt>
      <trkpt lat="48.19034" lon="7.2579">
        <ele>774.9</ele>
        <time>2026-03-19T11:03:23Z</time>
      </trkpt>
      <trkpt lat="48.19035" lon="7.25783">
        <ele>775.4</ele>
        <time>2026-03-19T11:03:28Z</time>
      </trkpt>
      <trkpt lat="48.19038" lon="7.25774">
        <ele>776.3</ele>
        <time>2026-03-19T11:03:33Z</time>
      </trkpt>
      <trkpt lat="48.19038" lon="7.25767">
        <ele>776.6</ele>
        <time>2026-03-19T11:03:38Z</time>
      </trkpt>
      <trkpt lat="48.19037" lon="7.25756">
        <ele>776.9</ele>
        <time>2026-03-19T11:03:43Z</time>
      </trkpt>
      <trkpt lat="48.19037" lon="7.25742">
        <ele>777.2</ele>
        <time>2026-03-19T11:03:48Z</time>
      </trkpt>
      <trkpt lat="48.19037" lon="7.25734">
        <ele>777.4</ele>
        <time>2026-03-19T11:03:53Z</time>
      </trkpt>
      <trkpt lat="48.19036" lon="7.25723">
        <ele>777.4</ele>
        <time>2026-03-19T11:03:58Z</time>
      </trkpt>
      <trkpt lat="48.19036" lon="7.25716">
        <ele>777.5</ele>
        <time>2026-03-19T11:04:03Z</time>
      </trkpt>
      <trkpt lat="48.19036" lon="7.25709">
        <ele>777.6</ele>
        <time>2026-03-19T11:04:08Z</time>
      </trkpt>
      <trkpt lat="48.19037" lon="7.257">
        <ele>778</ele>
        <time>2026-03-19T11:04:13Z</time>
      </trkpt>
      <trkpt lat="48.19041" lon="7.25695">
        <ele>778.9</ele>
        <time>2026-03-19T11:04:18Z</time>
      </trkpt>
      <trkpt lat="48.19041" lon="7.25695">
        <ele>778.9</ele>
        <time>2026-03-19T11:04:23Z</time>
      </trkpt>
      <trkpt lat="48.19041" lon="7.25695">
        <ele>778.9</ele>
        <time>2026-03-19T11:04:28Z</time>
      </trkpt>
      <trkpt lat="48.19041" lon="7.25695">
        <ele>778.9</ele>
        <time>2026-03-19T11:04:33Z</time>
      </trkpt>
      <trkpt lat="48.19041" lon="7.25695">
        <ele>778.9</ele>
        <time>2026-03-19T11:04:38Z</time>
      </trkpt>
      <trkpt lat="48.19041" lon="7.25695">
        <ele>778.9</ele>
        <time>2026-03-19T11:04:43Z</time>
      </trkpt>
      <trkpt lat="48.19041" lon="7.25695">
        <ele>778.9</ele>
        <time>2026-03-19T11:04:48Z</time>
      </trkpt>
      <trkpt lat="48.19041" lon="7.25695">
        <ele>778.9</ele>
        <time>2026-03-19T11:04:53Z</time>
      </trkpt>
      <trkpt lat="48.19041" lon="7.25695">
        <ele>778.9</ele>
        <time>2026-03-19T11:04:58Z</time>
      </trkpt>
      <trkpt lat="48.19034" lon="7.25687">
        <ele>777.6</ele>
        <time>2026-03-19T11:05:03Z</time>
      </trkpt>
      <trkpt lat="48.19033" lon="7.25679">
        <ele>777.5</ele>
        <time>2026-03-19T11:05:08Z</time>
      </trkpt>
      <trkpt lat="48.19032" lon="7.25669">
        <ele>777.5</ele>
        <time>2026-03-19T11:05:13Z</time>
      </trkpt>
      <trkpt lat="48.1903" lon="7.25659">
        <ele>777.7</ele>
        <time>2026-03-19T11:05:18Z</time>
      </trkpt>
      <trkpt lat="48.19028" lon="7.2565">
        <ele>778</ele>
        <time>2026-03-19T11:05:23Z</time>
      </trkpt>
      <trkpt lat="48.19025" lon="7.25645">
        <ele>777.7</ele>
        <time>2026-03-19T11:05:28Z</time>
      </trkpt>
      <trkpt lat="48.19021" lon="7.25638">
        <ele>777.4</ele>
        <time>2026-03-19T11:05:33Z</time>
      </trkpt>
      <trkpt lat="48.19017" lon="7.2563">
        <ele>777</ele>
        <time>2026-03-19T11:05:38Z</time>
      </trkpt>
      <trkpt lat="48.19016" lon="7.25623">
        <ele>777.3</ele>
        <time>2026-03-19T11:05:43Z</time>
      </trkpt>
      <trkpt lat="48.19014" lon="7.25617">
        <ele>777.2</ele>
        <time>2026-03-19T11:05:48Z</time>
      </trkpt>
      <trkpt lat="48.19011" lon="7.2561">
        <ele>777</ele>
        <time>2026-03-19T11:05:53Z</time>
      </trkpt>
      <trkpt lat="48.19008" lon="7.25604">
        <ele>776.7</ele>
        <time>2026-03-19T11:05:58Z</time>
      </trkpt>
      <trkpt lat="48.19006" lon="7.25598">
        <ele>776.6</ele>
        <time>2026-03-19T11:06:03Z</time>
      </trkpt>
      <trkpt lat="48.19001" lon="7.25589">
        <ele>775.9</ele>
        <time>2026-03-19T11:06:08Z</time>
      </trkpt>
      <trkpt lat="48.18998" lon="7.25582">
        <ele>775.7</ele>
        <time>2026-03-19T11:06:13Z</time>
      </trkpt>
      <trkpt lat="48.18996" lon="7.25573">
        <ele>776.8</ele>
        <time>2026-03-19T11:06:18Z</time>
      </trkpt>
      <trkpt lat="48.18994" lon="7.25564">
        <ele>777.8</ele>
        <time>2026-03-19T11:06:23Z</time>
      </trkpt>
      <trkpt lat="48.18992" lon="7.25555">
        <ele>778.9</ele>
        <time>2026-03-19T11:06:28Z</time>
      </trkpt>
      <trkpt lat="48.18992" lon="7.25548">
        <ele>780.1</ele>
        <time>2026-03-19T11:06:33Z</time>
      </trkpt>
      <trkpt lat="48.18989" lon="7.2554">
        <ele>780.7</ele>
        <time>2026-03-19T11:06:38Z</time>
      </trkpt>
      <trkpt lat="48.18985" lon="7.25534">
        <ele>780.6</ele>
        <time>2026-03-19T11:06:43Z</time>
      </trkpt>
      <trkpt lat="48.18982" lon="7.25527">
        <ele>780.9</ele>
        <time>2026-03-19T11:06:48Z</time>
      </trkpt>
      <trkpt lat="48.18979" lon="7.2552">
        <ele>781.3</ele>
        <time>2026-03-19T11:06:53Z</time>
      </trkpt>
      <trkpt lat="48.18975" lon="7.25515">
        <ele>781</ele>
        <time>2026-03-19T11:06:58Z</time>
      </trkpt>
      <trkpt lat="48.18973" lon="7.25509">
        <ele>781.4</ele>
        <time>2026-03-19T11:07:03Z</time>
      </trkpt>
      <trkpt lat="48.1897" lon="7.25502">
        <ele>781.7</ele>
        <time>2026-03-19T11:07:08Z</time>
      </trkpt>
      <trkpt lat="48.18967" lon="7.25493">
        <ele>782.5</ele>
        <time>2026-03-19T11:07:13Z</time>
      </trkpt>
      <trkpt lat="48.18963" lon="7.25487">
        <ele>782.5</ele>
        <time>2026-03-19T11:07:18Z</time>
      </trkpt>
      <trkpt lat="48.18959" lon="7.25481">
        <ele>782.5</ele>
        <time>2026-03-19T11:07:23Z</time>
      </trkpt>
      <trkpt lat="48.18956" lon="7.25473">
        <ele>783.2</ele>
        <time>2026-03-19T11:07:28Z</time>
      </trkpt>
      <trkpt lat="48.18955" lon="7.25464">
        <ele>784.6</ele>
        <time>2026-03-19T11:07:33Z</time>
      </trkpt>
      <trkpt lat="48.18952" lon="7.25456">
        <ele>785.4</ele>
        <time>2026-03-19T11:07:38Z</time>
      </trkpt>
      <trkpt lat="48.1895" lon="7.25449">
        <ele>786.2</ele>
        <time>2026-03-19T11:07:43Z</time>
      </trkpt>
      <trkpt lat="48.18948" lon="7.25443">
        <ele>786.8</ele>
        <time>2026-03-19T11:07:48Z</time>
      </trkpt>
      <trkpt lat="48.18945" lon="7.25438">
        <ele>786.9</ele>
        <time>2026-03-19T11:07:53Z</time>
      </trkpt>
      <trkpt lat="48.18943" lon="7.25432">
        <ele>787.5</ele>
        <time>2026-03-19T11:07:58Z</time>
      </trkpt>
      <trkpt lat="48.18938" lon="7.25425">
        <ele>787.5</ele>
        <time>2026-03-19T11:08:03Z</time>
      </trkpt>
      <trkpt lat="48.18937" lon="7.25417">
        <ele>788.8</ele>
        <time>2026-03-19T11:08:08Z</time>
      </trkpt>
      <trkpt lat="48.18936" lon="7.25409">
        <ele>790.2</ele>
        <time>2026-03-19T11:08:13Z</time>
      </trkpt>
      <trkpt lat="48.18934" lon="7.25405">
        <ele>790.5</ele>
        <time>2026-03-19T11:08:18Z</time>
      </trkpt>
      <trkpt lat="48.18935" lon="7.25403">
        <ele>791.2</ele>
        <time>2026-03-19T11:08:23Z</time>
      </trkpt>
      <trkpt lat="48.1894" lon="7.25406">
        <ele>792</ele>
        <time>2026-03-19T11:08:28Z</time>
      </trkpt>
      <trkpt lat="48.18946" lon="7.25408">
        <ele>793.2</ele>
        <time>2026-03-19T11:08:33Z</time>
      </trkpt>
      <trkpt lat="48.1894" lon="7.25409">
        <ele>791.3</ele>
        <time>2026-03-19T11:08:38Z</time>
      </trkpt>
      <trkpt lat="48.18937" lon="7.25411">
        <ele>790</ele>
        <time>2026-03-19T11:08:43Z</time>
      </trkpt>
      <trkpt lat="48.18937" lon="7.25411">
        <ele>790</ele>
        <time>2026-03-19T11:08:48Z</time>
      </trkpt>
      <trkpt lat="48.18926" lon="7.25413">
        <ele>786.5</ele>
        <time>2026-03-19T11:08:53Z</time>
      </trkpt>
      <trkpt lat="48.18924" lon="7.25415">
        <ele>785.5</ele>
        <time>2026-03-19T11:08:58Z</time>
      </trkpt>
      <trkpt lat="48.18924" lon="7.25415">
        <ele>785.5</ele>
        <time>2026-03-19T11:09:03Z</time>
      </trkpt>
      <trkpt lat="48.18924" lon="7.25415">
        <ele>785.5</ele>
        <time>2026-03-19T11:09:08Z</time>
      </trkpt>
      <trkpt lat="48.18924" lon="7.25415">
        <ele>785.5</ele>
        <time>2026-03-19T11:09:13Z</time>
      </trkpt>
      <trkpt lat="48.18924" lon="7.25415">
        <ele>785.5</ele>
        <time>2026-03-19T11:09:18Z</time>
      </trkpt>
      <trkpt lat="48.18924" lon="7.25415">
        <ele>785.5</ele>
        <time>2026-03-19T11:09:23Z</time>
      </trkpt>
      <trkpt lat="48.18924" lon="7.25415">
        <ele>785.5</ele>
        <time>2026-03-19T11:09:28Z</time>
      </trkpt>
      <trkpt lat="48.18924" lon="7.25415">
        <ele>785.5</ele>
        <time>2026-03-19T11:09:33Z</time>
      </trkpt>
      <trkpt lat="48.18924" lon="7.25415">
        <ele>785.5</ele>
        <time>2026-03-19T11:09:38Z</time>
      </trkpt>
      <trkpt lat="48.18924" lon="7.25415">
        <ele>785.5</ele>
        <time>2026-03-19T11:09:43Z</time>
      </trkpt>
      <trkpt lat="48.18924" lon="7.25415">
        <ele>785.5</ele>
        <time>2026-03-19T11:09:48Z</time>
      </trkpt>
      <trkpt lat="48.18924" lon="7.25415">
        <ele>785.5</ele>
        <time>2026-03-19T11:09:53Z</time>
      </trkpt>
      <trkpt lat="48.18924" lon="7.25415">
        <ele>785.5</ele>
        <time>2026-03-19T11:09:58Z</time>
      </trkpt>
      <trkpt lat="48.18924" lon="7.25415">
        <ele>785.5</ele>
        <time>2026-03-19T11:10:03Z</time>
      </trkpt>
      <trkpt lat="48.18924" lon="7.25415">
        <ele>785.5</ele>
        <time>2026-03-19T11:10:08Z</time>
      </trkpt>
      <trkpt lat="48.18924" lon="7.25415">
        <ele>785.5</ele>
        <time>2026-03-19T11:10:13Z</time>
      </trkpt>
      <trkpt lat="48.18924" lon="7.25415">
        <ele>785.5</ele>
        <time>2026-03-19T11:10:18Z</time>
      </trkpt>
      <trkpt lat="48.18924" lon="7.25415">
        <ele>785.5</ele>
        <time>2026-03-19T11:10:23Z</time>
      </trkpt>
      <trkpt lat="48.18924" lon="7.25415">
        <ele>785.5</ele>
        <time>2026-03-19T11:10:28Z</time>
      </trkpt>
      <trkpt lat="48.18924" lon="7.25415">
        <ele>785.5</ele>
        <time>2026-03-19T11:10:33Z</time>
      </trkpt>
      <trkpt lat="48.18924" lon="7.25415">
        <ele>785.5</ele>
        <time>2026-03-19T11:10:38Z</time>
      </trkpt>
      <trkpt lat="48.18924" lon="7.25415">
        <ele>785.5</ele>
        <time>2026-03-19T11:10:43Z</time>
      </trkpt>
      <trkpt lat="48.18924" lon="7.25415">
        <ele>785.5</ele>
        <time>2026-03-19T11:10:48Z</time>
      </trkpt>
      <trkpt lat="48.18924" lon="7.25415">
        <ele>785.5</ele>
        <time>2026-03-19T11:10:53Z</time>
      </trkpt>
      <trkpt lat="48.18924" lon="7.25415">
        <ele>785.5</ele>
        <time>2026-03-19T11:10:58Z</time>
      </trkpt>
      <trkpt lat="48.18924" lon="7.25415">
        <ele>785.5</ele>
        <time>2026-03-19T11:11:03Z</time>
      </trkpt>
      <trkpt lat="48.18924" lon="7.25415">
        <ele>785.5</ele>
        <time>2026-03-19T11:11:08Z</time>
      </trkpt>
      <trkpt lat="48.18924" lon="7.25415">
        <ele>785.5</ele>
        <time>2026-03-19T11:11:13Z</time>
      </trkpt>
      <trkpt lat="48.18924" lon="7.25415">
        <ele>785.5</ele>
        <time>2026-03-19T11:11:18Z</time>
      </trkpt>
      <trkpt lat="48.18924" lon="7.25415">
        <ele>785.5</ele>
        <time>2026-03-19T11:11:23Z</time>
      </trkpt>
      <trkpt lat="48.18924" lon="7.25415">
        <ele>785.5</ele>
        <time>2026-03-19T11:11:28Z</time>
      </trkpt>
      <trkpt lat="48.18924" lon="7.25415">
        <ele>785.5</ele>
        <time>2026-03-19T11:11:33Z</time>
      </trkpt>
      <trkpt lat="48.18924" lon="7.25415">
        <ele>785.5</ele>
        <time>2026-03-19T11:11:38Z</time>
      </trkpt>
      <trkpt lat="48.18924" lon="7.25415">
        <ele>785.5</ele>
        <time>2026-03-19T11:11:43Z</time>
      </trkpt>
      <trkpt lat="48.18924" lon="7.25415">
        <ele>785.5</ele>
        <time>2026-03-19T11:11:48Z</time>
      </trkpt>
      <trkpt lat="48.18924" lon="7.25415">
        <ele>785.5</ele>
        <time>2026-03-19T11:11:53Z</time>
      </trkpt>
      <trkpt lat="48.18924" lon="7.25415">
        <ele>785.5</ele>
        <time>2026-03-19T11:11:58Z</time>
      </trkpt>
      <trkpt lat="48.18924" lon="7.25415">
        <ele>785.5</ele>
        <time>2026-03-19T11:12:03Z</time>
      </trkpt>
      <trkpt lat="48.18924" lon="7.25415">
        <ele>785.5</ele>
        <time>2026-03-19T11:12:08Z</time>
      </trkpt>
      <trkpt lat="48.18924" lon="7.25415">
        <ele>785.5</ele>
        <time>2026-03-19T11:12:13Z</time>
      </trkpt>
      <trkpt lat="48.18924" lon="7.25415">
        <ele>785.5</ele>
        <time>2026-03-19T11:12:18Z</time>
      </trkpt>
      <trkpt lat="48.18924" lon="7.25415">
        <ele>785.5</ele>
        <time>2026-03-19T11:12:23Z</time>
      </trkpt>
      <trkpt lat="48.18924" lon="7.25415">
        <ele>785.5</ele>
        <time>2026-03-19T11:12:28Z</time>
      </trkpt>
      <trkpt lat="48.18924" lon="7.25415">
        <ele>785.5</ele>
        <time>2026-03-19T11:12:33Z</time>
      </trkpt>
      <trkpt lat="48.18924" lon="7.25415">
        <ele>785.5</ele>
        <time>2026-03-19T11:12:38Z</time>
      </trkpt>
      <trkpt lat="48.18924" lon="7.25415">
        <ele>785.5</ele>
        <time>2026-03-19T11:12:43Z</time>
      </trkpt>
      <trkpt lat="48.18924" lon="7.25415">
        <ele>785.5</ele>
        <time>2026-03-19T11:12:48Z</time>
      </trkpt>
      <trkpt lat="48.18924" lon="7.25415">
        <ele>785.5</ele>
        <time>2026-03-19T11:12:53Z</time>
      </trkpt>
      <trkpt lat="48.18924" lon="7.25415">
        <ele>785.5</ele>
        <time>2026-03-19T11:12:58Z</time>
      </trkpt>
      <trkpt lat="48.18924" lon="7.25415">
        <ele>785.5</ele>
        <time>2026-03-19T11:13:03Z</time>
      </trkpt>
      <trkpt lat="48.18924" lon="7.25415">
        <ele>785.5</ele>
        <time>2026-03-19T11:13:08Z</time>
      </trkpt>
      <trkpt lat="48.18924" lon="7.25415">
        <ele>785.5</ele>
        <time>2026-03-19T11:13:13Z</time>
      </trkpt>
      <trkpt lat="48.18924" lon="7.25415">
        <ele>785.5</ele>
        <time>2026-03-19T11:13:18Z</time>
      </trkpt>
      <trkpt lat="48.18924" lon="7.25415">
        <ele>785.5</ele>
        <time>2026-03-19T11:13:23Z</time>
      </trkpt>
      <trkpt lat="48.18924" lon="7.25415">
        <ele>785.5</ele>
        <time>2026-03-19T11:13:28Z</time>
      </trkpt>
      <trkpt lat="48.18924" lon="7.25415">
        <ele>785.5</ele>
        <time>2026-03-19T11:13:33Z</time>
      </trkpt>
      <trkpt lat="48.18924" lon="7.25415">
        <ele>785.5</ele>
        <time>2026-03-19T11:13:38Z</time>
      </trkpt>
      <trkpt lat="48.18924" lon="7.25415">
        <ele>785.5</ele>
        <time>2026-03-19T11:13:43Z</time>
      </trkpt>
      <trkpt lat="48.18924" lon="7.25415">
        <ele>785.5</ele>
        <time>2026-03-19T11:13:48Z</time>
      </trkpt>
      <trkpt lat="48.18924" lon="7.25415">
        <ele>785.5</ele>
        <time>2026-03-19T11:13:53Z</time>
      </trkpt>
      <trkpt lat="48.18924" lon="7.25415">
        <ele>785.5</ele>
        <time>2026-03-19T11:13:58Z</time>
      </trkpt>
      <trkpt lat="48.18924" lon="7.25415">
        <ele>785.5</ele>
        <time>2026-03-19T11:14:03Z</time>
      </trkpt>
      <trkpt lat="48.18924" lon="7.25415">
        <ele>785.5</ele>
        <time>2026-03-19T11:14:08Z</time>
      </trkpt>
      <trkpt lat="48.18924" lon="7.25415">
        <ele>785.5</ele>
        <time>2026-03-19T11:14:13Z</time>
      </trkpt>
      <trkpt lat="48.18924" lon="7.25415">
        <ele>785.5</ele>
        <time>2026-03-19T11:14:18Z</time>
      </trkpt>
      <trkpt lat="48.18924" lon="7.25415">
        <ele>785.5</ele>
        <time>2026-03-19T11:14:23Z</time>
      </trkpt>
      <trkpt lat="48.18924" lon="7.25415">
        <ele>785.5</ele>
        <time>2026-03-19T11:14:28Z</time>
      </trkpt>
      <trkpt lat="48.18924" lon="7.25415">
        <ele>785.5</ele>
        <time>2026-03-19T11:14:33Z</time>
      </trkpt>
      <trkpt lat="48.18924" lon="7.25415">
        <ele>785.5</ele>
        <time>2026-03-19T11:14:38Z</time>
      </trkpt>
      <trkpt lat="48.18924" lon="7.25415">
        <ele>785.5</ele>
        <time>2026-03-19T11:14:43Z</time>
      </trkpt>
      <trkpt lat="48.18924" lon="7.25415">
        <ele>785.5</ele>
        <time>2026-03-19T11:14:48Z</time>
      </trkpt>
      <trkpt lat="48.18924" lon="7.25415">
        <ele>785.5</ele>
        <time>2026-03-19T11:14:53Z</time>
      </trkpt>
      <trkpt lat="48.18924" lon="7.25415">
        <ele>785.5</ele>
        <time>2026-03-19T11:14:58Z</time>
      </trkpt>
      <trkpt lat="48.18924" lon="7.25415">
        <ele>785.5</ele>
        <time>2026-03-19T11:15:03Z</time>
      </trkpt>
      <trkpt lat="48.18924" lon="7.25415">
        <ele>785.5</ele>
        <time>2026-03-19T11:15:08Z</time>
      </trkpt>
      <trkpt lat="48.18924" lon="7.25415">
        <ele>785.5</ele>
        <time>2026-03-19T11:15:13Z</time>
      </trkpt>
      <trkpt lat="48.18924" lon="7.25415">
        <ele>785.5</ele>
        <time>2026-03-19T11:15:18Z</time>
      </trkpt>
      <trkpt lat="48.18924" lon="7.25415">
        <ele>785.5</ele>
        <time>2026-03-19T11:15:23Z</time>
      </trkpt>
      <trkpt lat="48.18924" lon="7.25415">
        <ele>785.5</ele>
        <time>2026-03-19T11:15:28Z</time>
      </trkpt>
      <trkpt lat="48.18924" lon="7.25397">
        <ele>789.3</ele>
        <time>2026-03-19T11:15:33Z</time>
      </trkpt>
      <trkpt lat="48.18924" lon="7.25388">
        <ele>791.2</ele>
        <time>2026-03-19T11:15:38Z</time>
      </trkpt>
      <trkpt lat="48.18923" lon="7.25378">
        <ele>793.1</ele>
        <time>2026-03-19T11:15:43Z</time>
      </trkpt>
      <trkpt lat="48.18923" lon="7.2537">
        <ele>794.8</ele>
        <time>2026-03-19T11:15:48Z</time>
      </trkpt>
      <trkpt lat="48.18922" lon="7.25363">
        <ele>796</ele>
        <time>2026-03-19T11:15:53Z</time>
      </trkpt>
      <trkpt lat="48.1892" lon="7.25357">
        <ele>796.8</ele>
        <time>2026-03-19T11:15:58Z</time>
      </trkpt>
      <trkpt lat="48.18917" lon="7.25352">
        <ele>797.1</ele>
        <time>2026-03-19T11:16:03Z</time>
      </trkpt>
      <trkpt lat="48.18915" lon="7.25345">
        <ele>798</ele>
        <time>2026-03-19T11:16:08Z</time>
      </trkpt>
      <trkpt lat="48.18914" lon="7.25336">
        <ele>799.7</ele>
        <time>2026-03-19T11:16:13Z</time>
      </trkpt>
      <trkpt lat="48.18912" lon="7.25331">
        <ele>800.4</ele>
        <time>2026-03-19T11:16:18Z</time>
      </trkpt>
      <trkpt lat="48.18908" lon="7.25325">
        <ele>801.1</ele>
        <time>2026-03-19T11:16:23Z</time>
      </trkpt>
      <trkpt lat="48.18905" lon="7.25319">
        <ele>802.1</ele>
        <time>2026-03-19T11:16:28Z</time>
      </trkpt>
      <trkpt lat="48.18903" lon="7.25316">
        <ele>802.5</ele>
        <time>2026-03-19T11:16:33Z</time>
      </trkpt>
      <trkpt lat="48.18899" lon="7.25314">
        <ele>802.1</ele>
        <time>2026-03-19T11:16:38Z</time>
      </trkpt>
      <trkpt lat="48.18895" lon="7.25311">
        <ele>801.9</ele>
        <time>2026-03-19T11:16:43Z</time>
      </trkpt>
      <trkpt lat="48.18892" lon="7.25307">
        <ele>802.4</ele>
        <time>2026-03-19T11:16:48Z</time>
      </trkpt>
      <trkpt lat="48.18888" lon="7.25305">
        <ele>801.9</ele>
        <time>2026-03-19T11:16:53Z</time>
      </trkpt>
      <trkpt lat="48.18885" lon="7.25301">
        <ele>802.4</ele>
        <time>2026-03-19T11:16:58Z</time>
      </trkpt>
      <trkpt lat="48.18881" lon="7.25295">
        <ele>803.2</ele>
        <time>2026-03-19T11:17:03Z</time>
      </trkpt>
      <trkpt lat="48.18878" lon="7.25295">
        <ele>802.5</ele>
        <time>2026-03-19T11:17:08Z</time>
      </trkpt>
      <trkpt lat="48.18876" lon="7.2529">
        <ele>803.5</ele>
        <time>2026-03-19T11:17:13Z</time>
      </trkpt>
      <trkpt lat="48.18873" lon="7.25283">
        <ele>804.9</ele>
        <time>2026-03-19T11:17:18Z</time>
      </trkpt>
      <trkpt lat="48.18869" lon="7.25278">
        <ele>805.5</ele>
        <time>2026-03-19T11:17:23Z</time>
      </trkpt>
      <trkpt lat="48.18867" lon="7.25271">
        <ele>807.2</ele>
        <time>2026-03-19T11:17:28Z</time>
      </trkpt>
      <trkpt lat="48.18865" lon="7.25265">
        <ele>808.6</ele>
        <time>2026-03-19T11:17:33Z</time>
      </trkpt>
      <trkpt lat="48.18863" lon="7.2526">
        <ele>809.7</ele>
        <time>2026-03-19T11:17:38Z</time>
      </trkpt>
      <trkpt lat="48.18861" lon="7.25257">
        <ele>810.1</ele>
        <time>2026-03-19T11:17:43Z</time>
      </trkpt>
      <trkpt lat="48.18861" lon="7.25257">
        <ele>810.1</ele>
        <time>2026-03-19T11:17:48Z</time>
      </trkpt>
      <trkpt lat="48.1886" lon="7.25253">
        <ele>811.1</ele>
        <time>2026-03-19T11:17:53Z</time>
      </trkpt>
      <trkpt lat="48.18857" lon="7.25247">
        <ele>812.2</ele>
        <time>2026-03-19T11:17:58Z</time>
      </trkpt>
      <trkpt lat="48.18856" lon="7.25241">
        <ele>813.6</ele>
        <time>2026-03-19T11:18:03Z</time>
      </trkpt>
      <trkpt lat="48.18853" lon="7.25236">
        <ele>814.3</ele>
        <time>2026-03-19T11:18:08Z</time>
      </trkpt>
      <trkpt lat="48.18849" lon="7.25233">
        <ele>814.3</ele>
        <time>2026-03-19T11:18:13Z</time>
      </trkpt>
      <trkpt lat="48.18849" lon="7.25228">
        <ele>815.7</ele>
        <time>2026-03-19T11:18:18Z</time>
      </trkpt>
      <trkpt lat="48.18847" lon="7.25223">
        <ele>816.6</ele>
        <time>2026-03-19T11:18:23Z</time>
      </trkpt>
      <trkpt lat="48.18843" lon="7.25218">
        <ele>817.2</ele>
        <time>2026-03-19T11:18:28Z</time>
      </trkpt>
      <trkpt lat="48.18841" lon="7.25211">
        <ele>818.8</ele>
        <time>2026-03-19T11:18:33Z</time>
      </trkpt>
      <trkpt lat="48.18839" lon="7.25205">
        <ele>820.1</ele>
        <time>2026-03-19T11:18:38Z</time>
      </trkpt>
      <trkpt lat="48.18836" lon="7.25202">
        <ele>820.3</ele>
        <time>2026-03-19T11:18:43Z</time>
      </trkpt>
      <trkpt lat="48.18833" lon="7.25198">
        <ele>821</ele>
        <time>2026-03-19T11:18:48Z</time>
      </trkpt>
      <trkpt lat="48.18829" lon="7.25196">
        <ele>821.3</ele>
        <time>2026-03-19T11:18:53Z</time>
      </trkpt>
      <trkpt lat="48.18826" lon="7.2519">
        <ele>822.8</ele>
        <time>2026-03-19T11:18:58Z</time>
      </trkpt>
      <trkpt lat="48.18822" lon="7.25187">
        <ele>823.5</ele>
        <time>2026-03-19T11:19:03Z</time>
      </trkpt>
      <trkpt lat="48.1882" lon="7.25182">
        <ele>824.8</ele>
        <time>2026-03-19T11:19:08Z</time>
      </trkpt>
      <trkpt lat="48.18817" lon="7.25175">
        <ele>826.6</ele>
        <time>2026-03-19T11:19:13Z</time>
      </trkpt>
      <trkpt lat="48.18818" lon="7.25172">
        <ele>827.5</ele>
        <time>2026-03-19T11:19:18Z</time>
      </trkpt>
      <trkpt lat="48.18818" lon="7.25172">
        <ele>827.5</ele>
        <time>2026-03-19T11:19:23Z</time>
      </trkpt>
      <trkpt lat="48.18818" lon="7.25172">
        <ele>827.5</ele>
        <time>2026-03-19T11:19:28Z</time>
      </trkpt>
      <trkpt lat="48.18818" lon="7.25172">
        <ele>827.5</ele>
        <time>2026-03-19T11:19:33Z</time>
      </trkpt>
      <trkpt lat="48.18818" lon="7.25172">
        <ele>827.5</ele>
        <time>2026-03-19T11:19:38Z</time>
      </trkpt>
      <trkpt lat="48.18818" lon="7.25172">
        <ele>827.5</ele>
        <time>2026-03-19T11:19:43Z</time>
      </trkpt>
      <trkpt lat="48.18818" lon="7.25172">
        <ele>827.5</ele>
        <time>2026-03-19T11:19:48Z</time>
      </trkpt>
      <trkpt lat="48.18818" lon="7.25172">
        <ele>827.5</ele>
        <time>2026-03-19T11:19:53Z</time>
      </trkpt>
      <trkpt lat="48.18818" lon="7.25172">
        <ele>827.5</ele>
        <time>2026-03-19T11:19:58Z</time>
      </trkpt>
      <trkpt lat="48.18818" lon="7.25172">
        <ele>827.5</ele>
        <time>2026-03-19T11:20:03Z</time>
      </trkpt>
      <trkpt lat="48.18818" lon="7.25172">
        <ele>827.5</ele>
        <time>2026-03-19T11:20:08Z</time>
      </trkpt>
      <trkpt lat="48.18818" lon="7.25172">
        <ele>827.5</ele>
        <time>2026-03-19T11:20:13Z</time>
      </trkpt>
      <trkpt lat="48.18818" lon="7.25172">
        <ele>827.5</ele>
        <time>2026-03-19T11:20:18Z</time>
      </trkpt>
      <trkpt lat="48.18818" lon="7.25172">
        <ele>827.5</ele>
        <time>2026-03-19T11:20:23Z</time>
      </trkpt>
      <trkpt lat="48.18818" lon="7.25172">
        <ele>827.5</ele>
        <time>2026-03-19T11:20:28Z</time>
      </trkpt>
      <trkpt lat="48.18818" lon="7.25172">
        <ele>827.5</ele>
        <time>2026-03-19T11:20:33Z</time>
      </trkpt>
      <trkpt lat="48.18818" lon="7.25172">
        <ele>827.5</ele>
        <time>2026-03-19T11:20:38Z</time>
      </trkpt>
      <trkpt lat="48.18818" lon="7.25172">
        <ele>827.5</ele>
        <time>2026-03-19T11:20:43Z</time>
      </trkpt>
      <trkpt lat="48.18818" lon="7.25172">
        <ele>827.5</ele>
        <time>2026-03-19T11:20:48Z</time>
      </trkpt>
      <trkpt lat="48.18818" lon="7.25172">
        <ele>827.5</ele>
        <time>2026-03-19T11:20:53Z</time>
      </trkpt>
      <trkpt lat="48.18818" lon="7.25172">
        <ele>827.5</ele>
        <time>2026-03-19T11:20:58Z</time>
      </trkpt>
      <trkpt lat="48.18818" lon="7.25172">
        <ele>827.5</ele>
        <time>2026-03-19T11:21:03Z</time>
      </trkpt>
      <trkpt lat="48.18818" lon="7.25172">
        <ele>827.5</ele>
        <time>2026-03-19T11:21:08Z</time>
      </trkpt>
      <trkpt lat="48.18818" lon="7.25172">
        <ele>827.5</ele>
        <time>2026-03-19T11:21:13Z</time>
      </trkpt>
      <trkpt lat="48.18818" lon="7.25172">
        <ele>827.5</ele>
        <time>2026-03-19T11:21:18Z</time>
      </trkpt>
      <trkpt lat="48.18818" lon="7.25172">
        <ele>827.5</ele>
        <time>2026-03-19T11:21:23Z</time>
      </trkpt>
      <trkpt lat="48.18818" lon="7.25172">
        <ele>827.5</ele>
        <time>2026-03-19T11:21:28Z</time>
      </trkpt>
      <trkpt lat="48.18818" lon="7.25172">
        <ele>827.5</ele>
        <time>2026-03-19T11:21:33Z</time>
      </trkpt>
      <trkpt lat="48.18818" lon="7.25172">
        <ele>827.5</ele>
        <time>2026-03-19T11:21:38Z</time>
      </trkpt>
      <trkpt lat="48.18818" lon="7.25172">
        <ele>827.5</ele>
        <time>2026-03-19T11:21:43Z</time>
      </trkpt>
      <trkpt lat="48.18818" lon="7.25172">
        <ele>827.5</ele>
        <time>2026-03-19T11:21:48Z</time>
      </trkpt>
      <trkpt lat="48.18818" lon="7.25172">
        <ele>827.5</ele>
        <time>2026-03-19T11:21:53Z</time>
      </trkpt>
      <trkpt lat="48.18818" lon="7.25172">
        <ele>827.5</ele>
        <time>2026-03-19T11:21:58Z</time>
      </trkpt>
      <trkpt lat="48.18818" lon="7.25172">
        <ele>827.5</ele>
        <time>2026-03-19T11:22:03Z</time>
      </trkpt>
      <trkpt lat="48.18818" lon="7.25172">
        <ele>827.5</ele>
        <time>2026-03-19T11:22:08Z</time>
      </trkpt>
      <trkpt lat="48.18818" lon="7.25172">
        <ele>827.5</ele>
        <time>2026-03-19T11:22:13Z</time>
      </trkpt>
      <trkpt lat="48.18818" lon="7.25172">
        <ele>827.5</ele>
        <time>2026-03-19T11:22:18Z</time>
      </trkpt>
      <trkpt lat="48.18818" lon="7.25172">
        <ele>827.5</ele>
        <time>2026-03-19T11:22:23Z</time>
      </trkpt>
      <trkpt lat="48.18818" lon="7.25172">
        <ele>827.5</ele>
        <time>2026-03-19T11:22:28Z</time>
      </trkpt>
      <trkpt lat="48.18818" lon="7.25172">
        <ele>827.5</ele>
        <time>2026-03-19T11:22:33Z</time>
      </trkpt>
      <trkpt lat="48.18813" lon="7.2517">
        <ele>827.8</ele>
        <time>2026-03-19T11:22:38Z</time>
      </trkpt>
      <trkpt lat="48.18811" lon="7.25167">
        <ele>828.6</ele>
        <time>2026-03-19T11:22:43Z</time>
      </trkpt>
      <trkpt lat="48.18807" lon="7.25165">
        <ele>829.1</ele>
        <time>2026-03-19T11:22:48Z</time>
      </trkpt>
      <trkpt lat="48.18804" lon="7.25161">
        <ele>830.5</ele>
        <time>2026-03-19T11:22:53Z</time>
      </trkpt>
      <trkpt lat="48.188" lon="7.25159">
        <ele>831.1</ele>
        <time>2026-03-19T11:22:58Z</time>
      </trkpt>
      <trkpt lat="48.18795" lon="7.25155">
        <ele>832.5</ele>
        <time>2026-03-19T11:23:03Z</time>
      </trkpt>
      <trkpt lat="48.18791" lon="7.25152">
        <ele>833.5</ele>
        <time>2026-03-19T11:23:08Z</time>
      </trkpt>
      <trkpt lat="48.18788" lon="7.25148">
        <ele>835.1</ele>
        <time>2026-03-19T11:23:13Z</time>
      </trkpt>
      <trkpt lat="48.18784" lon="7.25142">
        <ele>837.4</ele>
        <time>2026-03-19T11:23:18Z</time>
      </trkpt>
      <trkpt lat="48.1878" lon="7.25138">
        <ele>838.9</ele>
        <time>2026-03-19T11:23:23Z</time>
      </trkpt>
      <trkpt lat="48.18775" lon="7.25133">
        <ele>840.8</ele>
        <time>2026-03-19T11:23:28Z</time>
      </trkpt>
      <trkpt lat="48.18772" lon="7.25129">
        <ele>842.4</ele>
        <time>2026-03-19T11:23:33Z</time>
      </trkpt>
      <trkpt lat="48.18768" lon="7.25127">
        <ele>843.2</ele>
        <time>2026-03-19T11:23:38Z</time>
      </trkpt>
      <trkpt lat="48.18765" lon="7.25126">
        <ele>843.5</ele>
        <time>2026-03-19T11:23:43Z</time>
      </trkpt>
      <trkpt lat="48.18761" lon="7.25123">
        <ele>844.7</ele>
        <time>2026-03-19T11:23:48Z</time>
      </trkpt>
      <trkpt lat="48.18758" lon="7.25115">
        <ele>848.1</ele>
        <time>2026-03-19T11:23:53Z</time>
      </trkpt>
      <trkpt lat="48.18754" lon="7.2511">
        <ele>850.2</ele>
        <time>2026-03-19T11:23:58Z</time>
      </trkpt>
      <trkpt lat="48.18749" lon="7.25105">
        <ele>852.5</ele>
        <time>2026-03-19T11:24:03Z</time>
      </trkpt>
      <trkpt lat="48.18743" lon="7.25102">
        <ele>854.4</ele>
        <time>2026-03-19T11:24:08Z</time>
      </trkpt>
      <trkpt lat="48.18738" lon="7.25096">
        <ele>857.6</ele>
        <time>2026-03-19T11:24:13Z</time>
      </trkpt>
      <trkpt lat="48.18732" lon="7.25093">
        <ele>859.5</ele>
        <time>2026-03-19T11:24:18Z</time>
      </trkpt>
      <trkpt lat="48.18728" lon="7.2509">
        <ele>861.2</ele>
        <time>2026-03-19T11:24:23Z</time>
      </trkpt>
      <trkpt lat="48.18726" lon="7.25088">
        <ele>862.3</ele>
        <time>2026-03-19T11:24:28Z</time>
      </trkpt>
      <trkpt lat="48.18724" lon="7.25085">
        <ele>863.8</ele>
        <time>2026-03-19T11:24:33Z</time>
      </trkpt>
      <trkpt lat="48.18723" lon="7.2508">
        <ele>865.8</ele>
        <time>2026-03-19T11:24:38Z</time>
      </trkpt>
      <trkpt lat="48.18721" lon="7.25075">
        <ele>867.7</ele>
        <time>2026-03-19T11:24:43Z</time>
      </trkpt>
      <trkpt lat="48.18722" lon="7.25073">
        <ele>868.3</ele>
        <time>2026-03-19T11:24:48Z</time>
      </trkpt>
      <trkpt lat="48.18719" lon="7.25072">
        <ele>868.9</ele>
        <time>2026-03-19T11:24:53Z</time>
      </trkpt>
      <trkpt lat="48.18715" lon="7.25072">
        <ele>869.3</ele>
        <time>2026-03-19T11:24:58Z</time>
      </trkpt>
      <trkpt lat="48.18712" lon="7.25071">
        <ele>869.9</ele>
        <time>2026-03-19T11:25:03Z</time>
      </trkpt>
      <trkpt lat="48.18708" lon="7.25068">
        <ele>871.4</ele>
        <time>2026-03-19T11:25:08Z</time>
      </trkpt>
      <trkpt lat="48.18704" lon="7.25066">
        <ele>872.4</ele>
        <time>2026-03-19T11:25:13Z</time>
      </trkpt>
      <trkpt lat="48.18701" lon="7.25065">
        <ele>873.1</ele>
        <time>2026-03-19T11:25:18Z</time>
      </trkpt>
      <trkpt lat="48.18699" lon="7.25066">
        <ele>872.9</ele>
        <time>2026-03-19T11:25:23Z</time>
      </trkpt>
      <trkpt lat="48.18696" lon="7.25065">
        <ele>873.6</ele>
        <time>2026-03-19T11:25:28Z</time>
      </trkpt>
      <trkpt lat="48.18692" lon="7.25064">
        <ele>874.3</ele>
        <time>2026-03-19T11:25:33Z</time>
      </trkpt>
      <trkpt lat="48.18689" lon="7.25063">
        <ele>874.9</ele>
        <time>2026-03-19T11:25:38Z</time>
      </trkpt>
      <trkpt lat="48.18686" lon="7.25061">
        <ele>875.9</ele>
        <time>2026-03-19T11:25:43Z</time>
      </trkpt>
      <trkpt lat="48.18681" lon="7.25062">
        <ele>876</ele>
        <time>2026-03-19T11:25:48Z</time>
      </trkpt>
      <trkpt lat="48.18679" lon="7.2506">
        <ele>876.9</ele>
        <time>2026-03-19T11:25:53Z</time>
      </trkpt>
      <trkpt lat="48.18677" lon="7.25059">
        <ele>877.5</ele>
        <time>2026-03-19T11:25:58Z</time>
      </trkpt>
      <trkpt lat="48.18674" lon="7.25058">
        <ele>878.1</ele>
        <time>2026-03-19T11:26:03Z</time>
      </trkpt>
      <trkpt lat="48.18674" lon="7.25058">
        <ele>878.1</ele>
        <time>2026-03-19T11:26:08Z</time>
      </trkpt>
      <trkpt lat="48.18674" lon="7.25058">
        <ele>878.1</ele>
        <time>2026-03-19T11:26:13Z</time>
      </trkpt>
      <trkpt lat="48.18665" lon="7.25058">
        <ele>879.2</ele>
        <time>2026-03-19T11:26:18Z</time>
      </trkpt>
      <trkpt lat="48.1866" lon="7.25058">
        <ele>880.2</ele>
        <time>2026-03-19T11:26:23Z</time>
      </trkpt>
      <trkpt lat="48.18656" lon="7.25057">
        <ele>881.4</ele>
        <time>2026-03-19T11:26:28Z</time>
      </trkpt>
      <trkpt lat="48.18654" lon="7.25056">
        <ele>882.1</ele>
        <time>2026-03-19T11:26:33Z</time>
      </trkpt>
      <trkpt lat="48.1865" lon="7.25054">
        <ele>883.6</ele>
        <time>2026-03-19T11:26:38Z</time>
      </trkpt>
      <trkpt lat="48.18645" lon="7.25053">
        <ele>884.9</ele>
        <time>2026-03-19T11:26:43Z</time>
      </trkpt>
      <trkpt lat="48.1864" lon="7.25053">
        <ele>885.9</ele>
        <time>2026-03-19T11:26:48Z</time>
      </trkpt>
      <trkpt lat="48.18635" lon="7.25053">
        <ele>886.9</ele>
        <time>2026-03-19T11:26:53Z</time>
      </trkpt>
      <trkpt lat="48.18631" lon="7.25053">
        <ele>887.7</ele>
        <time>2026-03-19T11:26:58Z</time>
      </trkpt>
      <trkpt lat="48.18625" lon="7.25053">
        <ele>888.9</ele>
        <time>2026-03-19T11:27:03Z</time>
      </trkpt>
      <trkpt lat="48.18621" lon="7.25053">
        <ele>889.7</ele>
        <time>2026-03-19T11:27:08Z</time>
      </trkpt>
      <trkpt lat="48.1862" lon="7.25051">
        <ele>890.5</ele>
        <time>2026-03-19T11:27:13Z</time>
      </trkpt>
      <trkpt lat="48.18618" lon="7.2505">
        <ele>891.2</ele>
        <time>2026-03-19T11:27:18Z</time>
      </trkpt>
      <trkpt lat="48.18615" lon="7.25049">
        <ele>892</ele>
        <time>2026-03-19T11:27:23Z</time>
      </trkpt>
      <trkpt lat="48.18611" lon="7.2505">
        <ele>892.6</ele>
        <time>2026-03-19T11:27:28Z</time>
      </trkpt>
      <trkpt lat="48.18607" lon="7.25051">
        <ele>893.1</ele>
        <time>2026-03-19T11:27:33Z</time>
      </trkpt>
      <trkpt lat="48.18603" lon="7.25052">
        <ele>893.6</ele>
        <time>2026-03-19T11:27:38Z</time>
      </trkpt>
      <trkpt lat="48.18598" lon="7.25054">
        <ele>894.1</ele>
        <time>2026-03-19T11:27:43Z</time>
      </trkpt>
      <trkpt lat="48.18594" lon="7.25054">
        <ele>894.9</ele>
        <time>2026-03-19T11:27:48Z</time>
      </trkpt>
      <trkpt lat="48.1859" lon="7.25054">
        <ele>895.7</ele>
        <time>2026-03-19T11:27:53Z</time>
      </trkpt>
      <trkpt lat="48.18585" lon="7.25054">
        <ele>896.7</ele>
        <time>2026-03-19T11:27:58Z</time>
      </trkpt>
      <trkpt lat="48.18583" lon="7.25053">
        <ele>897.3</ele>
        <time>2026-03-19T11:28:03Z</time>
      </trkpt>
      <trkpt lat="48.18579" lon="7.25055">
        <ele>897.6</ele>
        <time>2026-03-19T11:28:08Z</time>
      </trkpt>
      <trkpt lat="48.18576" lon="7.25058">
        <ele>897.5</ele>
        <time>2026-03-19T11:28:13Z</time>
      </trkpt>
      <trkpt lat="48.18573" lon="7.2506">
        <ele>897.7</ele>
        <time>2026-03-19T11:28:18Z</time>
      </trkpt>
      <trkpt lat="48.18572" lon="7.25062">
        <ele>897.4</ele>
        <time>2026-03-19T11:28:23Z</time>
      </trkpt>
      <trkpt lat="48.18567" lon="7.25064">
        <ele>898</ele>
        <time>2026-03-19T11:28:28Z</time>
      </trkpt>
      <trkpt lat="48.18561" lon="7.25066">
        <ele>898.9</ele>
        <time>2026-03-19T11:28:33Z</time>
      </trkpt>
      <trkpt lat="48.18557" lon="7.25068">
        <ele>899.3</ele>
        <time>2026-03-19T11:28:38Z</time>
      </trkpt>
      <trkpt lat="48.18554" lon="7.25069">
        <ele>899.8</ele>
        <time>2026-03-19T11:28:43Z</time>
      </trkpt>
      <trkpt lat="48.18551" lon="7.25069">
        <ele>900.4</ele>
        <time>2026-03-19T11:28:48Z</time>
      </trkpt>
      <trkpt lat="48.18548" lon="7.2507">
        <ele>900.9</ele>
        <time>2026-03-19T11:28:53Z</time>
      </trkpt>
      <trkpt lat="48.18542" lon="7.25073">
        <ele>901.7</ele>
        <time>2026-03-19T11:28:58Z</time>
      </trkpt>
      <trkpt lat="48.18538" lon="7.25075">
        <ele>902.2</ele>
        <time>2026-03-19T11:29:03Z</time>
      </trkpt>
      <trkpt lat="48.18534" lon="7.25076">
        <ele>903</ele>
        <time>2026-03-19T11:29:08Z</time>
      </trkpt>
      <trkpt lat="48.1853" lon="7.25078">
        <ele>903.6</ele>
        <time>2026-03-19T11:29:13Z</time>
      </trkpt>
      <trkpt lat="48.18528" lon="7.25078">
        <ele>904.1</ele>
        <time>2026-03-19T11:29:18Z</time>
      </trkpt>
      <trkpt lat="48.18524" lon="7.2508">
        <ele>904.7</ele>
        <time>2026-03-19T11:29:23Z</time>
      </trkpt>
      <trkpt lat="48.18521" lon="7.25079">
        <ele>905.5</ele>
        <time>2026-03-19T11:29:28Z</time>
      </trkpt>
      <trkpt lat="48.18519" lon="7.25081">
        <ele>905.7</ele>
        <time>2026-03-19T11:29:33Z</time>
      </trkpt>
      <trkpt lat="48.18513" lon="7.25084">
        <ele>906.7</ele>
        <time>2026-03-19T11:29:38Z</time>
      </trkpt>
      <trkpt lat="48.18509" lon="7.25085">
        <ele>907.4</ele>
        <time>2026-03-19T11:29:43Z</time>
      </trkpt>
      <trkpt lat="48.18505" lon="7.25088">
        <ele>907.5</ele>
        <time>2026-03-19T11:29:48Z</time>
      </trkpt>
      <trkpt lat="48.18503" lon="7.2509">
        <ele>907.4</ele>
        <time>2026-03-19T11:29:53Z</time>
      </trkpt>
      <trkpt lat="48.18499" lon="7.25093">
        <ele>907.5</ele>
        <time>2026-03-19T11:29:58Z</time>
      </trkpt>
      <trkpt lat="48.18497" lon="7.25093">
        <ele>907.7</ele>
        <time>2026-03-19T11:30:03Z</time>
      </trkpt>
      <trkpt lat="48.18493" lon="7.25093">
        <ele>908.2</ele>
        <time>2026-03-19T11:30:08Z</time>
      </trkpt>
      <trkpt lat="48.18489" lon="7.25094">
        <ele>908.4</ele>
        <time>2026-03-19T11:30:13Z</time>
      </trkpt>
      <trkpt lat="48.18485" lon="7.25096">
        <ele>908.4</ele>
        <time>2026-03-19T11:30:18Z</time>
      </trkpt>
      <trkpt lat="48.1848" lon="7.25097">
        <ele>908.9</ele>
        <time>2026-03-19T11:30:23Z</time>
      </trkpt>
      <trkpt lat="48.18477" lon="7.25099">
        <ele>908.8</ele>
        <time>2026-03-19T11:30:28Z</time>
      </trkpt>
      <trkpt lat="48.18472" lon="7.25101">
        <ele>909.1</ele>
        <time>2026-03-19T11:30:33Z</time>
      </trkpt>
      <trkpt lat="48.18478" lon="7.25096">
        <ele>909.3</ele>
        <time>2026-03-19T11:30:38Z</time>
      </trkpt>
      <trkpt lat="48.18486" lon="7.2509">
        <ele>909.7</ele>
        <time>2026-03-19T11:30:43Z</time>
      </trkpt>
      <trkpt lat="48.18492" lon="7.25085">
        <ele>910.3</ele>
        <time>2026-03-19T11:30:48Z</time>
      </trkpt>
      <trkpt lat="48.18497" lon="7.25079">
        <ele>910.7</ele>
        <time>2026-03-19T11:30:53Z</time>
      </trkpt>
      <trkpt lat="48.185" lon="7.25075">
        <ele>910.8</ele>
        <time>2026-03-19T11:30:58Z</time>
      </trkpt>
      <trkpt lat="48.18503" lon="7.25072">
        <ele>910.4</ele>
        <time>2026-03-19T11:31:03Z</time>
      </trkpt>
      <trkpt lat="48.18507" lon="7.25071">
        <ele>909.7</ele>
        <time>2026-03-19T11:31:08Z</time>
      </trkpt>
      <trkpt lat="48.18509" lon="7.25068">
        <ele>909.6</ele>
        <time>2026-03-19T11:31:13Z</time>
      </trkpt>
      <trkpt lat="48.18512" lon="7.25065">
        <ele>909.3</ele>
        <time>2026-03-19T11:31:18Z</time>
      </trkpt>
      <trkpt lat="48.18514" lon="7.25061">
        <ele>909.3</ele>
        <time>2026-03-19T11:31:23Z</time>
      </trkpt>
      <trkpt lat="48.18514" lon="7.25061">
        <ele>909.3</ele>
        <time>2026-03-19T11:31:28Z</time>
      </trkpt>
      <trkpt lat="48.18514" lon="7.25061">
        <ele>909.3</ele>
        <time>2026-03-19T11:31:33Z</time>
      </trkpt>
      <trkpt lat="48.18514" lon="7.25061">
        <ele>909.3</ele>
        <time>2026-03-19T11:31:38Z</time>
      </trkpt>
      <trkpt lat="48.18514" lon="7.25061">
        <ele>909.3</ele>
        <time>2026-03-19T11:31:43Z</time>
      </trkpt>
      <trkpt lat="48.18514" lon="7.25061">
        <ele>909.3</ele>
        <time>2026-03-19T11:31:48Z</time>
      </trkpt>
      <trkpt lat="48.18514" lon="7.25061">
        <ele>909.3</ele>
        <time>2026-03-19T11:31:53Z</time>
      </trkpt>
      <trkpt lat="48.18514" lon="7.25061">
        <ele>909.3</ele>
        <time>2026-03-19T11:31:58Z</time>
      </trkpt>
      <trkpt lat="48.18514" lon="7.25061">
        <ele>909.3</ele>
        <time>2026-03-19T11:32:03Z</time>
      </trkpt>
      <trkpt lat="48.18514" lon="7.25061">
        <ele>909.3</ele>
        <time>2026-03-19T11:32:08Z</time>
      </trkpt>
      <trkpt lat="48.18514" lon="7.25061">
        <ele>909.3</ele>
        <time>2026-03-19T11:32:13Z</time>
      </trkpt>
      <trkpt lat="48.18514" lon="7.25061">
        <ele>909.3</ele>
        <time>2026-03-19T11:32:18Z</time>
      </trkpt>
      <trkpt lat="48.18514" lon="7.25061">
        <ele>909.3</ele>
        <time>2026-03-19T11:32:23Z</time>
      </trkpt>
      <trkpt lat="48.18514" lon="7.25061">
        <ele>909.3</ele>
        <time>2026-03-19T11:32:28Z</time>
      </trkpt>
      <trkpt lat="48.18514" lon="7.25061">
        <ele>909.3</ele>
        <time>2026-03-19T11:32:33Z</time>
      </trkpt>
      <trkpt lat="48.18514" lon="7.25061">
        <ele>909.3</ele>
        <time>2026-03-19T11:32:38Z</time>
      </trkpt>
      <trkpt lat="48.18514" lon="7.25061">
        <ele>909.3</ele>
        <time>2026-03-19T11:32:43Z</time>
      </trkpt>
      <trkpt lat="48.18516" lon="7.25054">
        <ele>909.8</ele>
        <time>2026-03-19T11:32:48Z</time>
      </trkpt>
      <trkpt lat="48.18523" lon="7.25048">
        <ele>909.3</ele>
        <time>2026-03-19T11:32:53Z</time>
      </trkpt>
      <trkpt lat="48.18524" lon="7.25044">
        <ele>909.6</ele>
        <time>2026-03-19T11:32:58Z</time>
      </trkpt>
      <trkpt lat="48.18527" lon="7.25042">
        <ele>909.4</ele>
        <time>2026-03-19T11:33:03Z</time>
      </trkpt>
      <trkpt lat="48.18531" lon="7.25036">
        <ele>909.6</ele>
        <time>2026-03-19T11:33:08Z</time>
      </trkpt>
      <trkpt lat="48.18534" lon="7.25029">
        <ele>910.2</ele>
        <time>2026-03-19T11:33:13Z</time>
      </trkpt>
      <trkpt lat="48.18536" lon="7.25024">
        <ele>910.7</ele>
        <time>2026-03-19T11:33:18Z</time>
      </trkpt>
      <trkpt lat="48.1854" lon="7.2502">
        <ele>910.9</ele>
        <time>2026-03-19T11:33:23Z</time>
      </trkpt>
      <trkpt lat="48.18543" lon="7.25014">
        <ele>911.5</ele>
        <time>2026-03-19T11:33:28Z</time>
      </trkpt>
      <trkpt lat="48.18545" lon="7.2501">
        <ele>911.9</ele>
        <time>2026-03-19T11:33:33Z</time>
      </trkpt>
      <trkpt lat="48.18548" lon="7.25005">
        <ele>912.5</ele>
        <time>2026-03-19T11:33:38Z</time>
      </trkpt>
      <trkpt lat="48.18552" lon="7.25">
        <ele>913</ele>
        <time>2026-03-19T11:33:43Z</time>
      </trkpt>
      <trkpt lat="48.18554" lon="7.24994">
        <ele>913</ele>
        <time>2026-03-19T11:33:48Z</time>
      </trkpt>
      <trkpt lat="48.18558" lon="7.24991">
        <ele>912.8</ele>
        <time>2026-03-19T11:33:53Z</time>
      </trkpt>
      <trkpt lat="48.1856" lon="7.2499">
        <ele>912.7</ele>
        <time>2026-03-19T11:33:58Z</time>
      </trkpt>
      <trkpt lat="48.1856" lon="7.24986">
        <ele>912.9</ele>
        <time>2026-03-19T11:34:03Z</time>
      </trkpt>
      <trkpt lat="48.18563" lon="7.24982">
        <ele>913</ele>
        <time>2026-03-19T11:34:08Z</time>
      </trkpt>
      <trkpt lat="48.18566" lon="7.24981">
        <ele>912.9</ele>
        <time>2026-03-19T11:34:13Z</time>
      </trkpt>
      <trkpt lat="48.1857" lon="7.24976">
        <ele>913.2</ele>
        <time>2026-03-19T11:34:18Z</time>
      </trkpt>
      <trkpt lat="48.18574" lon="7.2497">
        <ele>913.6</ele>
        <time>2026-03-19T11:34:23Z</time>
      </trkpt>
      <trkpt lat="48.18578" lon="7.24964">
        <ele>914.3</ele>
        <time>2026-03-19T11:34:28Z</time>
      </trkpt>
      <trkpt lat="48.18582" lon="7.24961">
        <ele>914.7</ele>
        <time>2026-03-19T11:34:33Z</time>
      </trkpt>
      <trkpt lat="48.18585" lon="7.24961">
        <ele>914.6</ele>
        <time>2026-03-19T11:34:38Z</time>
      </trkpt>
      <trkpt lat="48.18585" lon="7.2496">
        <ele>914.7</ele>
        <time>2026-03-19T11:34:43Z</time>
      </trkpt>
      <trkpt lat="48.18585" lon="7.2496">
        <ele>914.7</ele>
        <time>2026-03-19T11:34:48Z</time>
      </trkpt>
      <trkpt lat="48.18585" lon="7.2496">
        <ele>914.7</ele>
        <time>2026-03-19T11:34:53Z</time>
      </trkpt>
      <trkpt lat="48.18585" lon="7.2496">
        <ele>914.7</ele>
        <time>2026-03-19T11:34:58Z</time>
      </trkpt>
      <trkpt lat="48.18594" lon="7.24957">
        <ele>914.4</ele>
        <time>2026-03-19T11:35:03Z</time>
      </trkpt>
      <trkpt lat="48.18596" lon="7.24955">
        <ele>914.5</ele>
        <time>2026-03-19T11:35:08Z</time>
      </trkpt>
      <trkpt lat="48.186" lon="7.24953">
        <ele>914.6</ele>
        <time>2026-03-19T11:35:13Z</time>
      </trkpt>
      <trkpt lat="48.18602" lon="7.24948">
        <ele>915.2</ele>
        <time>2026-03-19T11:35:18Z</time>
      </trkpt>
      <trkpt lat="48.18603" lon="7.24944">
        <ele>915.7</ele>
        <time>2026-03-19T11:35:23Z</time>
      </trkpt>
      <trkpt lat="48.18607" lon="7.24942">
        <ele>915.8</ele>
        <time>2026-03-19T11:35:28Z</time>
      </trkpt>
      <trkpt lat="48.18611" lon="7.24937">
        <ele>916.4</ele>
        <time>2026-03-19T11:35:33Z</time>
      </trkpt>
      <trkpt lat="48.18614" lon="7.24933">
        <ele>917</ele>
        <time>2026-03-19T11:35:38Z</time>
      </trkpt>
      <trkpt lat="48.18616" lon="7.2493">
        <ele>917.4</ele>
        <time>2026-03-19T11:35:43Z</time>
      </trkpt>
      <trkpt lat="48.18622" lon="7.24927">
        <ele>917.7</ele>
        <time>2026-03-19T11:35:48Z</time>
      </trkpt>
      <trkpt lat="48.18624" lon="7.24923">
        <ele>918.4</ele>
        <time>2026-03-19T11:35:53Z</time>
      </trkpt>
      <trkpt lat="48.18629" lon="7.24922">
        <ele>918.5</ele>
        <time>2026-03-19T11:35:58Z</time>
      </trkpt>
      <trkpt lat="48.18632" lon="7.24919">
        <ele>919</ele>
        <time>2026-03-19T11:36:03Z</time>
      </trkpt>
      <trkpt lat="48.18635" lon="7.24918">
        <ele>919.1</ele>
        <time>2026-03-19T11:36:08Z</time>
      </trkpt>
      <trkpt lat="48.18639" lon="7.24918">
        <ele>919.1</ele>
        <time>2026-03-19T11:36:13Z</time>
      </trkpt>
      <trkpt lat="48.18644" lon="7.24914">
        <ele>919.6</ele>
        <time>2026-03-19T11:36:18Z</time>
      </trkpt>
      <trkpt lat="48.18646" lon="7.2491">
        <ele>920.1</ele>
        <time>2026-03-19T11:36:23Z</time>
      </trkpt>
      <trkpt lat="48.18646" lon="7.2491">
        <ele>920.1</ele>
        <time>2026-03-19T11:36:28Z</time>
      </trkpt>
      <trkpt lat="48.18646" lon="7.2491">
        <ele>920.1</ele>
        <time>2026-03-19T11:36:33Z</time>
      </trkpt>
      <trkpt lat="48.18646" lon="7.2491">
        <ele>920.1</ele>
        <time>2026-03-19T11:36:38Z</time>
      </trkpt>
      <trkpt lat="48.18646" lon="7.2491">
        <ele>920.1</ele>
        <time>2026-03-19T11:36:43Z</time>
      </trkpt>
      <trkpt lat="48.18646" lon="7.2491">
        <ele>920.1</ele>
        <time>2026-03-19T11:36:48Z</time>
      </trkpt>
      <trkpt lat="48.18646" lon="7.2491">
        <ele>920.1</ele>
        <time>2026-03-19T11:36:53Z</time>
      </trkpt>
      <trkpt lat="48.18646" lon="7.2491">
        <ele>920.1</ele>
        <time>2026-03-19T11:36:58Z</time>
      </trkpt>
      <trkpt lat="48.18646" lon="7.2491">
        <ele>920.1</ele>
        <time>2026-03-19T11:37:03Z</time>
      </trkpt>
      <trkpt lat="48.18646" lon="7.2491">
        <ele>920.1</ele>
        <time>2026-03-19T11:37:08Z</time>
      </trkpt>
      <trkpt lat="48.18646" lon="7.2491">
        <ele>920.1</ele>
        <time>2026-03-19T11:37:13Z</time>
      </trkpt>
      <trkpt lat="48.18646" lon="7.2491">
        <ele>920.1</ele>
        <time>2026-03-19T11:37:18Z</time>
      </trkpt>
      <trkpt lat="48.18646" lon="7.2491">
        <ele>920.1</ele>
        <time>2026-03-19T11:37:23Z</time>
      </trkpt>
      <trkpt lat="48.1865" lon="7.24909">
        <ele>920.3</ele>
        <time>2026-03-19T11:37:28Z</time>
      </trkpt>
      <trkpt lat="48.18657" lon="7.24909">
        <ele>920.3</ele>
        <time>2026-03-19T11:37:33Z</time>
      </trkpt>
      <trkpt lat="48.18661" lon="7.24908">
        <ele>920.4</ele>
        <time>2026-03-19T11:37:38Z</time>
      </trkpt>
      <trkpt lat="48.18664" lon="7.24906">
        <ele>920.8</ele>
        <time>2026-03-19T11:37:43Z</time>
      </trkpt>
      <trkpt lat="48.18669" lon="7.24905">
        <ele>921</ele>
        <time>2026-03-19T11:37:48Z</time>
      </trkpt>
      <trkpt lat="48.18673" lon="7.24903">
        <ele>921.5</ele>
        <time>2026-03-19T11:37:53Z</time>
      </trkpt>
      <trkpt lat="48.18679" lon="7.249">
        <ele>922.2</ele>
        <time>2026-03-19T11:37:58Z</time>
      </trkpt>
      <trkpt lat="48.18682" lon="7.24902">
        <ele>921.9</ele>
        <time>2026-03-19T11:38:03Z</time>
      </trkpt>
      <trkpt lat="48.18685" lon="7.24902">
        <ele>922</ele>
        <time>2026-03-19T11:38:08Z</time>
      </trkpt>
      <trkpt lat="48.18689" lon="7.24898">
        <ele>922.9</ele>
        <time>2026-03-19T11:38:13Z</time>
      </trkpt>
      <trkpt lat="48.18694" lon="7.24892">
        <ele>924.1</ele>
        <time>2026-03-19T11:38:18Z</time>
      </trkpt>
      <trkpt lat="48.18697" lon="7.24889">
        <ele>924.7</ele>
        <time>2026-03-19T11:38:23Z</time>
      </trkpt>
      <trkpt lat="48.18697" lon="7.24889">
        <ele>924.7</ele>
        <time>2026-03-19T11:38:28Z</time>
      </trkpt>
      <trkpt lat="48.187" lon="7.24887">
        <ele>925.2</ele>
        <time>2026-03-19T11:38:33Z</time>
      </trkpt>
      <trkpt lat="48.18705" lon="7.24882">
        <ele>926.3</ele>
        <time>2026-03-19T11:38:38Z</time>
      </trkpt>
      <trkpt lat="48.18708" lon="7.24878">
        <ele>927.2</ele>
        <time>2026-03-19T11:38:43Z</time>
      </trkpt>
      <trkpt lat="48.18712" lon="7.24876">
        <ele>927.7</ele>
        <time>2026-03-19T11:38:48Z</time>
      </trkpt>
      <trkpt lat="48.18715" lon="7.24877">
        <ele>927.7</ele>
        <time>2026-03-19T11:38:53Z</time>
      </trkpt>
      <trkpt lat="48.18719" lon="7.24875">
        <ele>928.2</ele>
        <time>2026-03-19T11:38:58Z</time>
      </trkpt>
      <trkpt lat="48.18721" lon="7.24875">
        <ele>928.3</ele>
        <time>2026-03-19T11:39:03Z</time>
      </trkpt>
      <trkpt lat="48.18724" lon="7.24875">
        <ele>928.4</ele>
        <time>2026-03-19T11:39:08Z</time>
      </trkpt>
      <trkpt lat="48.18725" lon="7.24875">
        <ele>928.4</ele>
        <time>2026-03-19T11:39:13Z</time>
      </trkpt>
      <trkpt lat="48.18731" lon="7.24875">
        <ele>928.7</ele>
        <time>2026-03-19T11:39:18Z</time>
      </trkpt>
      <trkpt lat="48.18735" lon="7.24874">
        <ele>929.1</ele>
        <time>2026-03-19T11:39:23Z</time>
      </trkpt>
      <trkpt lat="48.18739" lon="7.24872">
        <ele>929.6</ele>
        <time>2026-03-19T11:39:28Z</time>
      </trkpt>
      <trkpt lat="48.18745" lon="7.24871">
        <ele>930.1</ele>
        <time>2026-03-19T11:39:33Z</time>
      </trkpt>
      <trkpt lat="48.18747" lon="7.2487">
        <ele>930.4</ele>
        <time>2026-03-19T11:39:38Z</time>
      </trkpt>
      <trkpt lat="48.1875" lon="7.24869">
        <ele>930.7</ele>
        <time>2026-03-19T11:39:43Z</time>
      </trkpt>
      <trkpt lat="48.18755" lon="7.24868">
        <ele>931.2</ele>
        <time>2026-03-19T11:39:48Z</time>
      </trkpt>
      <trkpt lat="48.18759" lon="7.24867">
        <ele>931.6</ele>
        <time>2026-03-19T11:39:53Z</time>
      </trkpt>
      <trkpt lat="48.18764" lon="7.24867">
        <ele>931.9</ele>
        <time>2026-03-19T11:39:58Z</time>
      </trkpt>
      <trkpt lat="48.18769" lon="7.24866">
        <ele>932.3</ele>
        <time>2026-03-19T11:40:03Z</time>
      </trkpt>
      <trkpt lat="48.18771" lon="7.24866">
        <ele>932.4</ele>
        <time>2026-03-19T11:40:08Z</time>
      </trkpt>
      <trkpt lat="48.18776" lon="7.24867">
        <ele>932.5</ele>
        <time>2026-03-19T11:40:13Z</time>
      </trkpt>
      <trkpt lat="48.1878" lon="7.24868">
        <ele>932.5</ele>
        <time>2026-03-19T11:40:18Z</time>
      </trkpt>
      <trkpt lat="48.18783" lon="7.24868">
        <ele>932.7</ele>
        <time>2026-03-19T11:40:23Z</time>
      </trkpt>
      <trkpt lat="48.18786" lon="7.24867">
        <ele>933</ele>
        <time>2026-03-19T11:40:28Z</time>
      </trkpt>
      <trkpt lat="48.1879" lon="7.24865">
        <ele>933.6</ele>
        <time>2026-03-19T11:40:33Z</time>
      </trkpt>
      <trkpt lat="48.18792" lon="7.24864">
        <ele>933.9</ele>
        <time>2026-03-19T11:40:38Z</time>
      </trkpt>
      <trkpt lat="48.18797" lon="7.24862">
        <ele>934.4</ele>
        <time>2026-03-19T11:40:43Z</time>
      </trkpt>
      <trkpt lat="48.18803" lon="7.2486">
        <ele>935.1</ele>
        <time>2026-03-19T11:40:48Z</time>
      </trkpt>
      <trkpt lat="48.18806" lon="7.2486">
        <ele>935.2</ele>
        <time>2026-03-19T11:40:53Z</time>
      </trkpt>
      <trkpt lat="48.18809" lon="7.24861">
        <ele>935.2</ele>
        <time>2026-03-19T11:40:58Z</time>
      </trkpt>
      <trkpt lat="48.18813" lon="7.24861">
        <ele>935.4</ele>
        <time>2026-03-19T11:41:03Z</time>
      </trkpt>
      <trkpt lat="48.18817" lon="7.24862">
        <ele>935.4</ele>
        <time>2026-03-19T11:41:08Z</time>
      </trkpt>
      <trkpt lat="48.1882" lon="7.24861">
        <ele>935.7</ele>
        <time>2026-03-19T11:41:13Z</time>
      </trkpt>
      <trkpt lat="48.18824" lon="7.2486">
        <ele>936</ele>
        <time>2026-03-19T11:41:18Z</time>
      </trkpt>
      <trkpt lat="48.18827" lon="7.24861">
        <ele>936</ele>
        <time>2026-03-19T11:41:23Z</time>
      </trkpt>
      <trkpt lat="48.18831" lon="7.24862">
        <ele>936.1</ele>
        <time>2026-03-19T11:41:28Z</time>
      </trkpt>
      <trkpt lat="48.18837" lon="7.24862">
        <ele>936.2</ele>
        <time>2026-03-19T11:41:33Z</time>
      </trkpt>
      <trkpt lat="48.18842" lon="7.24861">
        <ele>936.4</ele>
        <time>2026-03-19T11:41:38Z</time>
      </trkpt>
      <trkpt lat="48.18847" lon="7.24862">
        <ele>936.3</ele>
        <time>2026-03-19T11:41:43Z</time>
      </trkpt>
      <trkpt lat="48.1885" lon="7.24863">
        <ele>936.2</ele>
        <time>2026-03-19T11:41:48Z</time>
      </trkpt>
      <trkpt lat="48.18853" lon="7.24865">
        <ele>936</ele>
        <time>2026-03-19T11:41:53Z</time>
      </trkpt>
      <trkpt lat="48.18855" lon="7.24867">
        <ele>935.8</ele>
        <time>2026-03-19T11:41:58Z</time>
      </trkpt>
      <trkpt lat="48.18855" lon="7.24867">
        <ele>935.8</ele>
        <time>2026-03-19T11:42:03Z</time>
      </trkpt>
      <trkpt lat="48.18855" lon="7.24867">
        <ele>935.8</ele>
        <time>2026-03-19T11:42:08Z</time>
      </trkpt>
      <trkpt lat="48.18859" lon="7.24868">
        <ele>935.7</ele>
        <time>2026-03-19T11:42:13Z</time>
      </trkpt>
      <trkpt lat="48.18862" lon="7.2487">
        <ele>935.5</ele>
        <time>2026-03-19T11:42:18Z</time>
      </trkpt>
      <trkpt lat="48.18863" lon="7.24873">
        <ele>935.1</ele>
        <time>2026-03-19T11:42:23Z</time>
      </trkpt>
      <trkpt lat="48.18866" lon="7.24872">
        <ele>935.3</ele>
        <time>2026-03-19T11:42:28Z</time>
      </trkpt>
      <trkpt lat="48.18866" lon="7.24872">
        <ele>935.3</ele>
        <time>2026-03-19T11:42:33Z</time>
      </trkpt>
      <trkpt lat="48.18866" lon="7.24872">
        <ele>935.3</ele>
        <time>2026-03-19T11:42:38Z</time>
      </trkpt>
      <trkpt lat="48.18866" lon="7.24872">
        <ele>935.3</ele>
        <time>2026-03-19T11:42:43Z</time>
      </trkpt>
      <trkpt lat="48.18866" lon="7.24872">
        <ele>935.3</ele>
        <time>2026-03-19T11:42:48Z</time>
      </trkpt>
      <trkpt lat="48.18866" lon="7.24872">
        <ele>935.3</ele>
        <time>2026-03-19T11:42:53Z</time>
      </trkpt>
      <trkpt lat="48.18871" lon="7.24885">
        <ele>933.7</ele>
        <time>2026-03-19T11:42:58Z</time>
      </trkpt>
      <trkpt lat="48.18871" lon="7.24885">
        <ele>933.7</ele>
        <time>2026-03-19T11:43:03Z</time>
      </trkpt>
      <trkpt lat="48.1888" lon="7.24876">
        <ele>934.9</ele>
        <time>2026-03-19T11:43:08Z</time>
      </trkpt>
      <trkpt lat="48.18883" lon="7.24868">
        <ele>935.9</ele>
        <time>2026-03-19T11:43:13Z</time>
      </trkpt>
      <trkpt lat="48.18885" lon="7.24869">
        <ele>935.8</ele>
        <time>2026-03-19T11:43:18Z</time>
      </trkpt>
      <trkpt lat="48.18887" lon="7.2486">
        <ele>936.9</ele>
        <time>2026-03-19T11:43:23Z</time>
      </trkpt>
      <trkpt lat="48.18887" lon="7.24849">
        <ele>938.2</ele>
        <time>2026-03-19T11:43:28Z</time>
      </trkpt>
      <trkpt lat="48.18886" lon="7.2484">
        <ele>939.2</ele>
        <time>2026-03-19T11:43:33Z</time>
      </trkpt>
      <trkpt lat="48.18887" lon="7.24831">
        <ele>940</ele>
        <time>2026-03-19T11:43:38Z</time>
      </trkpt>
      <trkpt lat="48.18889" lon="7.24825">
        <ele>939.9</ele>
        <time>2026-03-19T11:43:43Z</time>
      </trkpt>
      <trkpt lat="48.1889" lon="7.2482">
        <ele>939.8</ele>
        <time>2026-03-19T11:43:48Z</time>
      </trkpt>
      <trkpt lat="48.18891" lon="7.24814">
        <ele>939.8</ele>
        <time>2026-03-19T11:43:53Z</time>
      </trkpt>
      <trkpt lat="48.1889" lon="7.24813">
        <ele>939.7</ele>
        <time>2026-03-19T11:43:58Z</time>
      </trkpt>
      <trkpt lat="48.1889" lon="7.24813">
        <ele>939.7</ele>
        <time>2026-03-19T11:44:03Z</time>
      </trkpt>
      <trkpt lat="48.1889" lon="7.24813">
        <ele>939.7</ele>
        <time>2026-03-19T11:44:08Z</time>
      </trkpt>
      <trkpt lat="48.1889" lon="7.24813">
        <ele>939.7</ele>
        <time>2026-03-19T11:44:13Z</time>
      </trkpt>
      <trkpt lat="48.1889" lon="7.24813">
        <ele>939.7</ele>
        <time>2026-03-19T11:44:18Z</time>
      </trkpt>
      <trkpt lat="48.1889" lon="7.24813">
        <ele>939.7</ele>
        <time>2026-03-19T11:44:23Z</time>
      </trkpt>
      <trkpt lat="48.1889" lon="7.24813">
        <ele>939.7</ele>
        <time>2026-03-19T11:44:28Z</time>
      </trkpt>
      <trkpt lat="48.18897" lon="7.24811">
        <ele>939.7</ele>
        <time>2026-03-19T11:44:33Z</time>
      </trkpt>
      <trkpt lat="48.18901" lon="7.24804">
        <ele>939.5</ele>
        <time>2026-03-19T11:44:38Z</time>
      </trkpt>
      <trkpt lat="48.18903" lon="7.24796">
        <ele>939.3</ele>
        <time>2026-03-19T11:44:43Z</time>
      </trkpt>
      <trkpt lat="48.18907" lon="7.24789">
        <ele>939.1</ele>
        <time>2026-03-19T11:44:48Z</time>
      </trkpt>
      <trkpt lat="48.18912" lon="7.24783">
        <ele>938.9</ele>
        <time>2026-03-19T11:44:53Z</time>
      </trkpt>
      <trkpt lat="48.18917" lon="7.24775">
        <ele>938.6</ele>
        <time>2026-03-19T11:44:58Z</time>
      </trkpt>
      <trkpt lat="48.18919" lon="7.24765">
        <ele>938.3</ele>
        <time>2026-03-19T11:45:03Z</time>
      </trkpt>
      <trkpt lat="48.1892" lon="7.24759">
        <ele>938.2</ele>
        <time>2026-03-19T11:45:08Z</time>
      </trkpt>
      <trkpt lat="48.1892" lon="7.24751">
        <ele>938</ele>
        <time>2026-03-19T11:45:13Z</time>
      </trkpt>
      <trkpt lat="48.18919" lon="7.24742">
        <ele>937.5</ele>
        <time>2026-03-19T11:45:18Z</time>
      </trkpt>
      <trkpt lat="48.18917" lon="7.24734">
        <ele>937</ele>
        <time>2026-03-19T11:45:23Z</time>
      </trkpt>
      <trkpt lat="48.18917" lon="7.24725">
        <ele>936.5</ele>
        <time>2026-03-19T11:45:28Z</time>
      </trkpt>
      <trkpt lat="48.18917" lon="7.24713">
        <ele>935.8</ele>
        <time>2026-03-19T11:45:33Z</time>
      </trkpt>
      <trkpt lat="48.18916" lon="7.24703">
        <ele>935.2</ele>
        <time>2026-03-19T11:45:38Z</time>
      </trkpt>
      <trkpt lat="48.18918" lon="7.24692">
        <ele>934.6</ele>
        <time>2026-03-19T11:45:43Z</time>
      </trkpt>
      <trkpt lat="48.18916" lon="7.24678">
        <ele>933.7</ele>
        <time>2026-03-19T11:45:48Z</time>
      </trkpt>
      <trkpt lat="48.18915" lon="7.24668">
        <ele>933.1</ele>
        <time>2026-03-19T11:45:53Z</time>
      </trkpt>
      <trkpt lat="48.18914" lon="7.24659">
        <ele>932.9</ele>
        <time>2026-03-19T11:45:58Z</time>
      </trkpt>
      <trkpt lat="48.18915" lon="7.24649">
        <ele>932.8</ele>
        <time>2026-03-19T11:46:03Z</time>
      </trkpt>
      <trkpt lat="48.18915" lon="7.24638">
        <ele>932.6</ele>
        <time>2026-03-19T11:46:08Z</time>
      </trkpt>
      <trkpt lat="48.18914" lon="7.24627">
        <ele>932.5</ele>
        <time>2026-03-19T11:46:13Z</time>
      </trkpt>
      <trkpt lat="48.18914" lon="7.24617">
        <ele>932.3</ele>
        <time>2026-03-19T11:46:18Z</time>
      </trkpt>
      <trkpt lat="48.18912" lon="7.24611">
        <ele>932.2</ele>
        <time>2026-03-19T11:46:23Z</time>
      </trkpt>
      <trkpt lat="48.1891" lon="7.24605">
        <ele>932</ele>
        <time>2026-03-19T11:46:28Z</time>
      </trkpt>
      <trkpt lat="48.18911" lon="7.24596">
        <ele>931.9</ele>
        <time>2026-03-19T11:46:33Z</time>
      </trkpt>
      <trkpt lat="48.18911" lon="7.24585">
        <ele>931.7</ele>
        <time>2026-03-19T11:46:38Z</time>
      </trkpt>
      <trkpt lat="48.1891" lon="7.24574">
        <ele>931</ele>
        <time>2026-03-19T11:46:43Z</time>
      </trkpt>
      <trkpt lat="48.1891" lon="7.24561">
        <ele>930.3</ele>
        <time>2026-03-19T11:46:48Z</time>
      </trkpt>
      <trkpt lat="48.18909" lon="7.24558">
        <ele>930</ele>
        <time>2026-03-19T11:46:53Z</time>
      </trkpt>
      <trkpt lat="48.18909" lon="7.24551">
        <ele>929.6</ele>
        <time>2026-03-19T11:46:58Z</time>
      </trkpt>
      <trkpt lat="48.18909" lon="7.24538">
        <ele>928.8</ele>
        <time>2026-03-19T11:47:03Z</time>
      </trkpt>
      <trkpt lat="48.18908" lon="7.24524">
        <ele>927.9</ele>
        <time>2026-03-19T11:47:08Z</time>
      </trkpt>
      <trkpt lat="48.18906" lon="7.24509">
        <ele>926.9</ele>
        <time>2026-03-19T11:47:13Z</time>
      </trkpt>
      <trkpt lat="48.18904" lon="7.24499">
        <ele>926.2</ele>
        <time>2026-03-19T11:47:18Z</time>
      </trkpt>
      <trkpt lat="48.18904" lon="7.24488">
        <ele>925.8</ele>
        <time>2026-03-19T11:47:23Z</time>
      </trkpt>
      <trkpt lat="48.18904" lon="7.24476">
        <ele>925.3</ele>
        <time>2026-03-19T11:47:28Z</time>
      </trkpt>
      <trkpt lat="48.18904" lon="7.24466">
        <ele>924.9</ele>
        <time>2026-03-19T11:47:33Z</time>
      </trkpt>
      <trkpt lat="48.18904" lon="7.24459">
        <ele>924.6</ele>
        <time>2026-03-19T11:47:38Z</time>
      </trkpt>
      <trkpt lat="48.18904" lon="7.2445">
        <ele>924.2</ele>
        <time>2026-03-19T11:47:43Z</time>
      </trkpt>
      <trkpt lat="48.18903" lon="7.24445">
        <ele>924</ele>
        <time>2026-03-19T11:47:48Z</time>
      </trkpt>
      <trkpt lat="48.18903" lon="7.24437">
        <ele>923.7</ele>
        <time>2026-03-19T11:47:53Z</time>
      </trkpt>
      <trkpt lat="48.18904" lon="7.24426">
        <ele>923.2</ele>
        <time>2026-03-19T11:47:58Z</time>
      </trkpt>
      <trkpt lat="48.18904" lon="7.24416">
        <ele>922.8</ele>
        <time>2026-03-19T11:48:03Z</time>
      </trkpt>
      <trkpt lat="48.18904" lon="7.24406">
        <ele>922</ele>
        <time>2026-03-19T11:48:08Z</time>
      </trkpt>
      <trkpt lat="48.18903" lon="7.24396">
        <ele>921.1</ele>
        <time>2026-03-19T11:48:13Z</time>
      </trkpt>
      <trkpt lat="48.18903" lon="7.24387">
        <ele>920.4</ele>
        <time>2026-03-19T11:48:18Z</time>
      </trkpt>
      <trkpt lat="48.18903" lon="7.24379">
        <ele>919.7</ele>
        <time>2026-03-19T11:48:23Z</time>
      </trkpt>
      <trkpt lat="48.18902" lon="7.24371">
        <ele>919.1</ele>
        <time>2026-03-19T11:48:28Z</time>
      </trkpt>
      <trkpt lat="48.18903" lon="7.24362">
        <ele>918.4</ele>
        <time>2026-03-19T11:48:33Z</time>
      </trkpt>
      <trkpt lat="48.18903" lon="7.24353">
        <ele>917.6</ele>
        <time>2026-03-19T11:48:38Z</time>
      </trkpt>
      <trkpt lat="48.18903" lon="7.24344">
        <ele>916.9</ele>
        <time>2026-03-19T11:48:43Z</time>
      </trkpt>
      <trkpt lat="48.189" lon="7.24336">
        <ele>916.2</ele>
        <time>2026-03-19T11:48:48Z</time>
      </trkpt>
      <trkpt lat="48.18901" lon="7.24327">
        <ele>915</ele>
        <time>2026-03-19T11:48:53Z</time>
      </trkpt>
      <trkpt lat="48.18901" lon="7.24318">
        <ele>913.7</ele>
        <time>2026-03-19T11:48:58Z</time>
      </trkpt>
      <trkpt lat="48.189" lon="7.24308">
        <ele>912.2</ele>
        <time>2026-03-19T11:49:03Z</time>
      </trkpt>
      <trkpt lat="48.189" lon="7.24297">
        <ele>910.5</ele>
        <time>2026-03-19T11:49:08Z</time>
      </trkpt>
      <trkpt lat="48.18899" lon="7.24287">
        <ele>908.9</ele>
        <time>2026-03-19T11:49:13Z</time>
      </trkpt>
      <trkpt lat="48.189" lon="7.24277">
        <ele>907.5</ele>
        <time>2026-03-19T11:49:18Z</time>
      </trkpt>
      <trkpt lat="48.189" lon="7.24266">
        <ele>905.8</ele>
        <time>2026-03-19T11:49:23Z</time>
      </trkpt>
      <trkpt lat="48.18899" lon="7.24256">
        <ele>904.2</ele>
        <time>2026-03-19T11:49:28Z</time>
      </trkpt>
      <trkpt lat="48.18899" lon="7.24247">
        <ele>902.9</ele>
        <time>2026-03-19T11:49:33Z</time>
      </trkpt>
      <trkpt lat="48.18899" lon="7.24236">
        <ele>901.2</ele>
        <time>2026-03-19T11:49:38Z</time>
      </trkpt>
      <trkpt lat="48.18899" lon="7.24226">
        <ele>899.8</ele>
        <time>2026-03-19T11:49:43Z</time>
      </trkpt>
      <trkpt lat="48.18898" lon="7.24217">
        <ele>898.3</ele>
        <time>2026-03-19T11:49:48Z</time>
      </trkpt>
      <trkpt lat="48.18898" lon="7.24205">
        <ele>896.5</ele>
        <time>2026-03-19T11:49:53Z</time>
      </trkpt>
      <trkpt lat="48.18899" lon="7.24193">
        <ele>894.9</ele>
        <time>2026-03-19T11:49:58Z</time>
      </trkpt>
      <trkpt lat="48.18899" lon="7.24183">
        <ele>893.4</ele>
        <time>2026-03-19T11:50:03Z</time>
      </trkpt>
      <trkpt lat="48.18898" lon="7.24174">
        <ele>891.8</ele>
        <time>2026-03-19T11:50:08Z</time>
      </trkpt>
      <trkpt lat="48.18898" lon="7.24164">
        <ele>890.5</ele>
        <time>2026-03-19T11:50:13Z</time>
      </trkpt>
      <trkpt lat="48.18896" lon="7.24152">
        <ele>889.1</ele>
        <time>2026-03-19T11:50:18Z</time>
      </trkpt>
      <trkpt lat="48.18896" lon="7.24143">
        <ele>888.4</ele>
        <time>2026-03-19T11:50:23Z</time>
      </trkpt>
      <trkpt lat="48.18895" lon="7.24132">
        <ele>887.3</ele>
        <time>2026-03-19T11:50:28Z</time>
      </trkpt>
      <trkpt lat="48.18894" lon="7.24122">
        <ele>886.2</ele>
        <time>2026-03-19T11:50:33Z</time>
      </trkpt>
      <trkpt lat="48.18893" lon="7.24112">
        <ele>885</ele>
        <time>2026-03-19T11:50:38Z</time>
      </trkpt>
      <trkpt lat="48.18893" lon="7.241">
        <ele>884</ele>
        <time>2026-03-19T11:50:43Z</time>
      </trkpt>
      <trkpt lat="48.18891" lon="7.24089">
        <ele>882.3</ele>
        <time>2026-03-19T11:50:48Z</time>
      </trkpt>
      <trkpt lat="48.18892" lon="7.24078">
        <ele>882</ele>
        <time>2026-03-19T11:50:53Z</time>
      </trkpt>
      <trkpt lat="48.18892" lon="7.24069">
        <ele>881.6</ele>
        <time>2026-03-19T11:50:58Z</time>
      </trkpt>
      <trkpt lat="48.1889" lon="7.24059">
        <ele>880.4</ele>
        <time>2026-03-19T11:51:03Z</time>
      </trkpt>
      <trkpt lat="48.18888" lon="7.24047">
        <ele>879</ele>
        <time>2026-03-19T11:51:08Z</time>
      </trkpt>
      <trkpt lat="48.18886" lon="7.24037">
        <ele>877.7</ele>
        <time>2026-03-19T11:51:13Z</time>
      </trkpt>
      <trkpt lat="48.18886" lon="7.24026">
        <ele>877.2</ele>
        <time>2026-03-19T11:51:18Z</time>
      </trkpt>
      <trkpt lat="48.18884" lon="7.24017">
        <ele>875.9</ele>
        <time>2026-03-19T11:51:23Z</time>
      </trkpt>
      <trkpt lat="48.18881" lon="7.2401">
        <ele>874.2</ele>
        <time>2026-03-19T11:51:28Z</time>
      </trkpt>
      <trkpt lat="48.18879" lon="7.23998">
        <ele>872.8</ele>
        <time>2026-03-19T11:51:33Z</time>
      </trkpt>
      <trkpt lat="48.18877" lon="7.23985">
        <ele>871.5</ele>
        <time>2026-03-19T11:51:38Z</time>
      </trkpt>
      <trkpt lat="48.18875" lon="7.23973">
        <ele>870.2</ele>
        <time>2026-03-19T11:51:43Z</time>
      </trkpt>
      <trkpt lat="48.18875" lon="7.23962">
        <ele>869.9</ele>
        <time>2026-03-19T11:51:48Z</time>
      </trkpt>
      <trkpt lat="48.18873" lon="7.23952">
        <ele>868.6</ele>
        <time>2026-03-19T11:51:53Z</time>
      </trkpt>
      <trkpt lat="48.18873" lon="7.23945">
        <ele>868.4</ele>
        <time>2026-03-19T11:51:58Z</time>
      </trkpt>
      <trkpt lat="48.18871" lon="7.23937">
        <ele>867.2</ele>
        <time>2026-03-19T11:52:03Z</time>
      </trkpt>
      <trkpt lat="48.18872" lon="7.23926">
        <ele>867.3</ele>
        <time>2026-03-19T11:52:08Z</time>
      </trkpt>
      <trkpt lat="48.1887" lon="7.23913">
        <ele>865.9</ele>
        <time>2026-03-19T11:52:13Z</time>
      </trkpt>
      <trkpt lat="48.18868" lon="7.23903">
        <ele>864.5</ele>
        <time>2026-03-19T11:52:18Z</time>
      </trkpt>
      <trkpt lat="48.18866" lon="7.23894">
        <ele>863.1</ele>
        <time>2026-03-19T11:52:23Z</time>
      </trkpt>
      <trkpt lat="48.18863" lon="7.23891">
        <ele>861.5</ele>
        <time>2026-03-19T11:52:28Z</time>
      </trkpt>
      <trkpt lat="48.18862" lon="7.23889">
        <ele>860.9</ele>
        <time>2026-03-19T11:52:33Z</time>
      </trkpt>
      <trkpt lat="48.18862" lon="7.23889">
        <ele>860.9</ele>
        <time>2026-03-19T11:52:38Z</time>
      </trkpt>
      <trkpt lat="48.18862" lon="7.23889">
        <ele>860.9</ele>
        <time>2026-03-19T11:52:43Z</time>
      </trkpt>
      <trkpt lat="48.18862" lon="7.23889">
        <ele>860.9</ele>
        <time>2026-03-19T11:52:48Z</time>
      </trkpt>
      <trkpt lat="48.18862" lon="7.23889">
        <ele>860.9</ele>
        <time>2026-03-19T11:52:53Z</time>
      </trkpt>
      <trkpt lat="48.18862" lon="7.23889">
        <ele>860.9</ele>
        <time>2026-03-19T11:52:58Z</time>
      </trkpt>
      <trkpt lat="48.18862" lon="7.2388">
        <ele>860.5</ele>
        <time>2026-03-19T11:53:03Z</time>
      </trkpt>
      <trkpt lat="48.18861" lon="7.23874">
        <ele>859.7</ele>
        <time>2026-03-19T11:53:08Z</time>
      </trkpt>
      <trkpt lat="48.1886" lon="7.23871">
        <ele>859.1</ele>
        <time>2026-03-19T11:53:13Z</time>
      </trkpt>
      <trkpt lat="48.1886" lon="7.23871">
        <ele>859.1</ele>
        <time>2026-03-19T11:53:18Z</time>
      </trkpt>
      <trkpt lat="48.1886" lon="7.23871">
        <ele>859.1</ele>
        <time>2026-03-19T11:53:23Z</time>
      </trkpt>
      <trkpt lat="48.1886" lon="7.23871">
        <ele>859.1</ele>
        <time>2026-03-19T11:53:28Z</time>
      </trkpt>
      <trkpt lat="48.1886" lon="7.23871">
        <ele>859.1</ele>
        <time>2026-03-19T11:53:33Z</time>
      </trkpt>
      <trkpt lat="48.1886" lon="7.23871">
        <ele>859.1</ele>
        <time>2026-03-19T11:53:38Z</time>
      </trkpt>
      <trkpt lat="48.1886" lon="7.23871">
        <ele>859.1</ele>
        <time>2026-03-19T11:53:43Z</time>
      </trkpt>
      <trkpt lat="48.1886" lon="7.23871">
        <ele>859.1</ele>
        <time>2026-03-19T11:53:48Z</time>
      </trkpt>
      <trkpt lat="48.1886" lon="7.23871">
        <ele>859.1</ele>
        <time>2026-03-19T11:53:53Z</time>
      </trkpt>
      <trkpt lat="48.1886" lon="7.23871">
        <ele>859.1</ele>
        <time>2026-03-19T11:53:58Z</time>
      </trkpt>
      <trkpt lat="48.18863" lon="7.23855">
        <ele>859.9</ele>
        <time>2026-03-19T11:54:03Z</time>
      </trkpt>
      <trkpt lat="48.18865" lon="7.23855">
        <ele>861</ele>
        <time>2026-03-19T11:54:08Z</time>
      </trkpt>
      <trkpt lat="48.18864" lon="7.23846">
        <ele>860.1</ele>
        <time>2026-03-19T11:54:13Z</time>
      </trkpt>
      <trkpt lat="48.18863" lon="7.23833">
        <ele>859</ele>
        <time>2026-03-19T11:54:18Z</time>
      </trkpt>
      <trkpt lat="48.18862" lon="7.23829">
        <ele>858.5</ele>
        <time>2026-03-19T11:54:23Z</time>
      </trkpt>
      <trkpt lat="48.18863" lon="7.23825">
        <ele>859.1</ele>
        <time>2026-03-19T11:54:28Z</time>
      </trkpt>
      <trkpt lat="48.18861" lon="7.23824">
        <ele>858</ele>
        <time>2026-03-19T11:54:33Z</time>
      </trkpt>
      <trkpt lat="48.1886" lon="7.23822">
        <ele>857.5</ele>
        <time>2026-03-19T11:54:38Z</time>
      </trkpt>
      <trkpt lat="48.1886" lon="7.23822">
        <ele>857.5</ele>
        <time>2026-03-19T11:54:43Z</time>
      </trkpt>
      <trkpt lat="48.1886" lon="7.23822">
        <ele>857.5</ele>
        <time>2026-03-19T11:54:48Z</time>
      </trkpt>
      <trkpt lat="48.1886" lon="7.23822">
        <ele>857.5</ele>
        <time>2026-03-19T11:54:53Z</time>
      </trkpt>
      <trkpt lat="48.1886" lon="7.23822">
        <ele>857.5</ele>
        <time>2026-03-19T11:54:58Z</time>
      </trkpt>
      <trkpt lat="48.1886" lon="7.23822">
        <ele>857.5</ele>
        <time>2026-03-19T11:55:03Z</time>
      </trkpt>
      <trkpt lat="48.1886" lon="7.23814">
        <ele>857.6</ele>
        <time>2026-03-19T11:55:08Z</time>
      </trkpt>
      <trkpt lat="48.18858" lon="7.23808">
        <ele>856.5</ele>
        <time>2026-03-19T11:55:13Z</time>
      </trkpt>
      <trkpt lat="48.18858" lon="7.23803">
        <ele>856.6</ele>
        <time>2026-03-19T11:55:18Z</time>
      </trkpt>
      <trkpt lat="48.18859" lon="7.23802">
        <ele>857.1</ele>
        <time>2026-03-19T11:55:23Z</time>
      </trkpt>
      <trkpt lat="48.18859" lon="7.23802">
        <ele>857.1</ele>
        <time>2026-03-19T11:55:28Z</time>
      </trkpt>
      <trkpt lat="48.18859" lon="7.23802">
        <ele>857.1</ele>
        <time>2026-03-19T11:55:33Z</time>
      </trkpt>
      <trkpt lat="48.18859" lon="7.23802">
        <ele>857.1</ele>
        <time>2026-03-19T11:55:38Z</time>
      </trkpt>
      <trkpt lat="48.18859" lon="7.23802">
        <ele>857.1</ele>
        <time>2026-03-19T11:55:43Z</time>
      </trkpt>
      <trkpt lat="48.18858" lon="7.23795">
        <ele>856.6</ele>
        <time>2026-03-19T11:55:48Z</time>
      </trkpt>
      <trkpt lat="48.18855" lon="7.23786">
        <ele>855.1</ele>
        <time>2026-03-19T11:55:53Z</time>
      </trkpt>
      <trkpt lat="48.18853" lon="7.23778">
        <ele>854.1</ele>
        <time>2026-03-19T11:55:58Z</time>
      </trkpt>
      <trkpt lat="48.18851" lon="7.23773">
        <ele>853.1</ele>
        <time>2026-03-19T11:56:03Z</time>
      </trkpt>
      <trkpt lat="48.18849" lon="7.23767">
        <ele>852.1</ele>
        <time>2026-03-19T11:56:08Z</time>
      </trkpt>
      <trkpt lat="48.18847" lon="7.23763">
        <ele>851.1</ele>
        <time>2026-03-19T11:56:13Z</time>
      </trkpt>
      <trkpt lat="48.18845" lon="7.2376">
        <ele>850.1</ele>
        <time>2026-03-19T11:56:18Z</time>
      </trkpt>
      <trkpt lat="48.18845" lon="7.23754">
        <ele>850.1</ele>
        <time>2026-03-19T11:56:23Z</time>
      </trkpt>
      <trkpt lat="48.18845" lon="7.23752">
        <ele>850.1</ele>
        <time>2026-03-19T11:56:28Z</time>
      </trkpt>
      <trkpt lat="48.18842" lon="7.23742">
        <ele>848.9</ele>
        <time>2026-03-19T11:56:33Z</time>
      </trkpt>
      <trkpt lat="48.18841" lon="7.23733">
        <ele>848.8</ele>
        <time>2026-03-19T11:56:38Z</time>
      </trkpt>
      <trkpt lat="48.18841" lon="7.23728">
        <ele>849</ele>
        <time>2026-03-19T11:56:43Z</time>
      </trkpt>
      <trkpt lat="48.18842" lon="7.23723">
        <ele>849.7</ele>
        <time>2026-03-19T11:56:48Z</time>
      </trkpt>
      <trkpt lat="48.18842" lon="7.23723">
        <ele>849.7</ele>
        <time>2026-03-19T11:56:53Z</time>
      </trkpt>
      <trkpt lat="48.1884" lon="7.23712">
        <ele>849.2</ele>
        <time>2026-03-19T11:56:58Z</time>
      </trkpt>
      <trkpt lat="48.18839" lon="7.23707">
        <ele>848.9</ele>
        <time>2026-03-19T11:57:03Z</time>
      </trkpt>
      <trkpt lat="48.18837" lon="7.23703">
        <ele>848.1</ele>
        <time>2026-03-19T11:57:08Z</time>
      </trkpt>
      <trkpt lat="48.18837" lon="7.237">
        <ele>848.2</ele>
        <time>2026-03-19T11:57:13Z</time>
      </trkpt>
      <trkpt lat="48.18838" lon="7.23694">
        <ele>849</ele>
        <time>2026-03-19T11:57:18Z</time>
      </trkpt>
      <trkpt lat="48.1884" lon="7.23687">
        <ele>850.2</ele>
        <time>2026-03-19T11:57:23Z</time>
      </trkpt>
      <trkpt lat="48.18842" lon="7.2368">
        <ele>851.5</ele>
        <time>2026-03-19T11:57:28Z</time>
      </trkpt>
      <trkpt lat="48.18842" lon="7.23672">
        <ele>851.8</ele>
        <time>2026-03-19T11:57:33Z</time>
      </trkpt>
      <trkpt lat="48.18842" lon="7.23664">
        <ele>852.2</ele>
        <time>2026-03-19T11:57:38Z</time>
      </trkpt>
      <trkpt lat="48.18842" lon="7.23653">
        <ele>852.6</ele>
        <time>2026-03-19T11:57:43Z</time>
      </trkpt>
      <trkpt lat="48.1884" lon="7.23644">
        <ele>852.1</ele>
        <time>2026-03-19T11:57:48Z</time>
      </trkpt>
      <trkpt lat="48.1884" lon="7.23633">
        <ele>852.6</ele>
        <time>2026-03-19T11:57:53Z</time>
      </trkpt>
      <trkpt lat="48.18837" lon="7.23624">
        <ele>851.7</ele>
        <time>2026-03-19T11:57:58Z</time>
      </trkpt>
      <trkpt lat="48.18836" lon="7.23614">
        <ele>851.7</ele>
        <time>2026-03-19T11:58:03Z</time>
      </trkpt>
      <trkpt lat="48.18837" lon="7.23604">
        <ele>852.6</ele>
        <time>2026-03-19T11:58:08Z</time>
      </trkpt>
      <trkpt lat="48.18838" lon="7.23596">
        <ele>853.3</ele>
        <time>2026-03-19T11:58:13Z</time>
      </trkpt>
      <trkpt lat="48.18841" lon="7.23589">
        <ele>854.9</ele>
        <time>2026-03-19T11:58:18Z</time>
      </trkpt>
      <trkpt lat="48.18845" lon="7.23582">
        <ele>856.8</ele>
        <time>2026-03-19T11:58:23Z</time>
      </trkpt>
      <trkpt lat="48.18847" lon="7.23573">
        <ele>857.7</ele>
        <time>2026-03-19T11:58:28Z</time>
      </trkpt>
      <trkpt lat="48.18848" lon="7.23564">
        <ele>858.2</ele>
        <time>2026-03-19T11:58:33Z</time>
      </trkpt>
      <trkpt lat="48.18848" lon="7.23553">
        <ele>858.3</ele>
        <time>2026-03-19T11:58:38Z</time>
      </trkpt>
      <trkpt lat="48.18851" lon="7.23544">
        <ele>859.7</ele>
        <time>2026-03-19T11:58:43Z</time>
      </trkpt>
      <trkpt lat="48.18855" lon="7.23535">
        <ele>861.4</ele>
        <time>2026-03-19T11:58:48Z</time>
      </trkpt>
      <trkpt lat="48.18856" lon="7.23525">
        <ele>861.9</ele>
        <time>2026-03-19T11:58:53Z</time>
      </trkpt>
      <trkpt lat="48.18858" lon="7.23516">
        <ele>862.9</ele>
        <time>2026-03-19T11:58:58Z</time>
      </trkpt>
      <trkpt lat="48.18859" lon="7.23507">
        <ele>863.4</ele>
        <time>2026-03-19T11:59:03Z</time>
      </trkpt>
      <trkpt lat="48.18862" lon="7.23496">
        <ele>864.7</ele>
        <time>2026-03-19T11:59:08Z</time>
      </trkpt>
      <trkpt lat="48.18866" lon="7.23486">
        <ele>866.5</ele>
        <time>2026-03-19T11:59:13Z</time>
      </trkpt>
      <trkpt lat="48.18869" lon="7.23475">
        <ele>867.9</ele>
        <time>2026-03-19T11:59:18Z</time>
      </trkpt>
      <trkpt lat="48.18872" lon="7.23467">
        <ele>869.3</ele>
        <time>2026-03-19T11:59:23Z</time>
      </trkpt>
      <trkpt lat="48.18876" lon="7.23458">
        <ele>871.2</ele>
        <time>2026-03-19T11:59:28Z</time>
      </trkpt>
      <trkpt lat="48.18882" lon="7.23447">
        <ele>874</ele>
        <time>2026-03-19T11:59:33Z</time>
      </trkpt>
      <trkpt lat="48.18888" lon="7.23437">
        <ele>876.8</ele>
        <time>2026-03-19T11:59:38Z</time>
      </trkpt>
      <trkpt lat="48.1889" lon="7.23427">
        <ele>877.9</ele>
        <time>2026-03-19T11:59:43Z</time>
      </trkpt>
      <trkpt lat="48.18894" lon="7.23422">
        <ele>879.8</ele>
        <time>2026-03-19T11:59:48Z</time>
      </trkpt>
      <trkpt lat="48.18899" lon="7.23416">
        <ele>882.2</ele>
        <time>2026-03-19T11:59:53Z</time>
      </trkpt>
      <trkpt lat="48.18903" lon="7.23411">
        <ele>884.3</ele>
        <time>2026-03-19T11:59:58Z</time>
      </trkpt>
      <trkpt lat="48.18909" lon="7.23404">
        <ele>887.3</ele>
        <time>2026-03-19T12:00:03Z</time>
      </trkpt>
      <trkpt lat="48.18914" lon="7.23399">
        <ele>889.9</ele>
        <time>2026-03-19T12:00:08Z</time>
      </trkpt>
      <trkpt lat="48.1892" lon="7.2339">
        <ele>891.7</ele>
        <time>2026-03-19T12:00:13Z</time>
      </trkpt>
      <trkpt lat="48.18924" lon="7.2338">
        <ele>892.6</ele>
        <time>2026-03-19T12:00:18Z</time>
      </trkpt>
      <trkpt lat="48.18928" lon="7.23371">
        <ele>893.6</ele>
        <time>2026-03-19T12:00:23Z</time>
      </trkpt>
      <trkpt lat="48.18935" lon="7.23364">
        <ele>894.8</ele>
        <time>2026-03-19T12:00:28Z</time>
      </trkpt>
      <trkpt lat="48.18939" lon="7.23357">
        <ele>895.9</ele>
        <time>2026-03-19T12:00:33Z</time>
      </trkpt>
      <trkpt lat="48.18945" lon="7.23348">
        <ele>897.6</ele>
        <time>2026-03-19T12:00:38Z</time>
      </trkpt>
      <trkpt lat="48.18949" lon="7.2334">
        <ele>899.2</ele>
        <time>2026-03-19T12:00:43Z</time>
      </trkpt>
      <trkpt lat="48.18952" lon="7.23332">
        <ele>900.7</ele>
        <time>2026-03-19T12:00:48Z</time>
      </trkpt>
      <trkpt lat="48.18959" lon="7.23324">
        <ele>902.6</ele>
        <time>2026-03-19T12:00:53Z</time>
      </trkpt>
      <trkpt lat="48.18966" lon="7.23315">
        <ele>904.7</ele>
        <time>2026-03-19T12:00:58Z</time>
      </trkpt>
      <trkpt lat="48.1897" lon="7.23306">
        <ele>906.3</ele>
        <time>2026-03-19T12:01:03Z</time>
      </trkpt>
      <trkpt lat="48.18974" lon="7.23296">
        <ele>908</ele>
        <time>2026-03-19T12:01:08Z</time>
      </trkpt>
      <trkpt lat="48.18978" lon="7.23289">
        <ele>909.4</ele>
        <time>2026-03-19T12:01:13Z</time>
      </trkpt>
      <trkpt lat="48.18981" lon="7.23282">
        <ele>910.6</ele>
        <time>2026-03-19T12:01:18Z</time>
      </trkpt>
      <trkpt lat="48.18984" lon="7.23275">
        <ele>911.8</ele>
        <time>2026-03-19T12:01:23Z</time>
      </trkpt>
      <trkpt lat="48.18986" lon="7.23266">
        <ele>913.1</ele>
        <time>2026-03-19T12:01:28Z</time>
      </trkpt>
      <trkpt lat="48.18987" lon="7.23255">
        <ele>914.4</ele>
        <time>2026-03-19T12:01:33Z</time>
      </trkpt>
      <trkpt lat="48.1899" lon="7.23246">
        <ele>915.5</ele>
        <time>2026-03-19T12:01:38Z</time>
      </trkpt>
      <trkpt lat="48.18992" lon="7.23237">
        <ele>916</ele>
        <time>2026-03-19T12:01:43Z</time>
      </trkpt>
      <trkpt lat="48.18995" lon="7.23229">
        <ele>916.5</ele>
        <time>2026-03-19T12:01:48Z</time>
      </trkpt>
      <trkpt lat="48.18998" lon="7.2322">
        <ele>917.1</ele>
        <time>2026-03-19T12:01:53Z</time>
      </trkpt>
      <trkpt lat="48.18998" lon="7.23212">
        <ele>917.2</ele>
        <time>2026-03-19T12:01:58Z</time>
      </trkpt>
      <trkpt lat="48.19" lon="7.23203">
        <ele>917.6</ele>
        <time>2026-03-19T12:02:03Z</time>
      </trkpt>
      <trkpt lat="48.19003" lon="7.23192">
        <ele>916.5</ele>
        <time>2026-03-19T12:02:08Z</time>
      </trkpt>
      <trkpt lat="48.19004" lon="7.23188">
        <ele>916.2</ele>
        <time>2026-03-19T12:02:13Z</time>
      </trkpt>
      <trkpt lat="48.19001" lon="7.23184">
        <ele>917.4</ele>
        <time>2026-03-19T12:02:18Z</time>
      </trkpt>
      <trkpt lat="48.19003" lon="7.23177">
        <ele>916.7</ele>
        <time>2026-03-19T12:02:23Z</time>
      </trkpt>
      <trkpt lat="48.19003" lon="7.23171">
        <ele>916.8</ele>
        <time>2026-03-19T12:02:28Z</time>
      </trkpt>
      <trkpt lat="48.19006" lon="7.23157">
        <ele>915</ele>
        <time>2026-03-19T12:02:33Z</time>
      </trkpt>
      <trkpt lat="48.19007" lon="7.23149">
        <ele>914.1</ele>
        <time>2026-03-19T12:02:38Z</time>
      </trkpt>
      <trkpt lat="48.19008" lon="7.2314">
        <ele>913.1</ele>
        <time>2026-03-19T12:02:43Z</time>
      </trkpt>
      <trkpt lat="48.1901" lon="7.23129">
        <ele>911.6</ele>
        <time>2026-03-19T12:02:48Z</time>
      </trkpt>
      <trkpt lat="48.19009" lon="7.23123">
        <ele>911.5</ele>
        <time>2026-03-19T12:02:53Z</time>
      </trkpt>
      <trkpt lat="48.19007" lon="7.23123">
        <ele>912.3</ele>
        <time>2026-03-19T12:02:58Z</time>
      </trkpt>
      <trkpt lat="48.19004" lon="7.23125">
        <ele>913.5</ele>
        <time>2026-03-19T12:03:03Z</time>
      </trkpt>
      <trkpt lat="48.19004" lon="7.23125">
        <ele>913.5</ele>
        <time>2026-03-19T12:03:08Z</time>
      </trkpt>
      <trkpt lat="48.19004" lon="7.23125">
        <ele>913.5</ele>
        <time>2026-03-19T12:03:13Z</time>
      </trkpt>
      <trkpt lat="48.19004" lon="7.23125">
        <ele>913.5</ele>
        <time>2026-03-19T12:03:18Z</time>
      </trkpt>
      <trkpt lat="48.19004" lon="7.23125">
        <ele>913.5</ele>
        <time>2026-03-19T12:03:23Z</time>
      </trkpt>
      <trkpt lat="48.19004" lon="7.23125">
        <ele>913.5</ele>
        <time>2026-03-19T12:03:28Z</time>
      </trkpt>
      <trkpt lat="48.19004" lon="7.23125">
        <ele>913.5</ele>
        <time>2026-03-19T12:03:33Z</time>
      </trkpt>
      <trkpt lat="48.1901" lon="7.23119">
        <ele>910.9</ele>
        <time>2026-03-19T12:03:38Z</time>
      </trkpt>
      <trkpt lat="48.19015" lon="7.23107">
        <ele>908.2</ele>
        <time>2026-03-19T12:03:43Z</time>
      </trkpt>
      <trkpt lat="48.19015" lon="7.23094">
        <ele>907.3</ele>
        <time>2026-03-19T12:03:48Z</time>
      </trkpt>
      <trkpt lat="48.19015" lon="7.23085">
        <ele>906.7</ele>
        <time>2026-03-19T12:03:53Z</time>
      </trkpt>
      <trkpt lat="48.19012" lon="7.23074">
        <ele>906.8</ele>
        <time>2026-03-19T12:03:58Z</time>
      </trkpt>
      <trkpt lat="48.1901" lon="7.23063">
        <ele>906.4</ele>
        <time>2026-03-19T12:04:03Z</time>
      </trkpt>
      <trkpt lat="48.19009" lon="7.23053">
        <ele>905.8</ele>
        <time>2026-03-19T12:04:08Z</time>
      </trkpt>
      <trkpt lat="48.19007" lon="7.23041">
        <ele>905.4</ele>
        <time>2026-03-19T12:04:13Z</time>
      </trkpt>
      <trkpt lat="48.19004" lon="7.2303">
        <ele>905.4</ele>
        <time>2026-03-19T12:04:18Z</time>
      </trkpt>
      <trkpt lat="48.19003" lon="7.23021">
        <ele>904.9</ele>
        <time>2026-03-19T12:04:23Z</time>
      </trkpt>
      <trkpt lat="48.18999" lon="7.23012">
        <ele>905.2</ele>
        <time>2026-03-19T12:04:28Z</time>
      </trkpt>
      <trkpt lat="48.18995" lon="7.23005">
        <ele>904.9</ele>
        <time>2026-03-19T12:04:33Z</time>
      </trkpt>
      <trkpt lat="48.18992" lon="7.22994">
        <ele>903.9</ele>
        <time>2026-03-19T12:04:38Z</time>
      </trkpt>
      <trkpt lat="48.18988" lon="7.22984">
        <ele>903.1</ele>
        <time>2026-03-19T12:04:43Z</time>
      </trkpt>
      <trkpt lat="48.18988" lon="7.22973">
        <ele>901.7</ele>
        <time>2026-03-19T12:04:48Z</time>
      </trkpt>
      <trkpt lat="48.18983" lon="7.22963">
        <ele>901.3</ele>
        <time>2026-03-19T12:04:53Z</time>
      </trkpt>
      <trkpt lat="48.18979" lon="7.22956">
        <ele>901.2</ele>
        <time>2026-03-19T12:04:58Z</time>
      </trkpt>
      <trkpt lat="48.18975" lon="7.22949">
        <ele>901.1</ele>
        <time>2026-03-19T12:05:03Z</time>
      </trkpt>
      <trkpt lat="48.18972" lon="7.22939">
        <ele>900.8</ele>
        <time>2026-03-19T12:05:08Z</time>
      </trkpt>
      <trkpt lat="48.1897" lon="7.22931">
        <ele>900.5</ele>
        <time>2026-03-19T12:05:13Z</time>
      </trkpt>
      <trkpt lat="48.18967" lon="7.22924">
        <ele>900.5</ele>
        <time>2026-03-19T12:05:18Z</time>
      </trkpt>
      <trkpt lat="48.18961" lon="7.22915">
        <ele>901.2</ele>
        <time>2026-03-19T12:05:23Z</time>
      </trkpt>
      <trkpt lat="48.18956" lon="7.22907">
        <ele>901.5</ele>
        <time>2026-03-19T12:05:28Z</time>
      </trkpt>
      <trkpt lat="48.18951" lon="7.229">
        <ele>901.9</ele>
        <time>2026-03-19T12:05:33Z</time>
      </trkpt>
      <trkpt lat="48.18946" lon="7.22886">
        <ele>901.7</ele>
        <time>2026-03-19T12:05:38Z</time>
      </trkpt>
      <trkpt lat="48.18944" lon="7.22871">
        <ele>900.7</ele>
        <time>2026-03-19T12:05:43Z</time>
      </trkpt>
      <trkpt lat="48.18941" lon="7.22863">
        <ele>900.7</ele>
        <time>2026-03-19T12:05:48Z</time>
      </trkpt>
      <trkpt lat="48.18936" lon="7.22858">
        <ele>901.6</ele>
        <time>2026-03-19T12:05:53Z</time>
      </trkpt>
      <trkpt lat="48.18934" lon="7.22848">
        <ele>901.2</ele>
        <time>2026-03-19T12:05:58Z</time>
      </trkpt>
      <trkpt lat="48.18931" lon="7.22837">
        <ele>901</ele>
        <time>2026-03-19T12:06:03Z</time>
      </trkpt>
      <trkpt lat="48.18929" lon="7.22822">
        <ele>899.5</ele>
        <time>2026-03-19T12:06:08Z</time>
      </trkpt>
      <trkpt lat="48.18926" lon="7.22808">
        <ele>898.2</ele>
        <time>2026-03-19T12:06:13Z</time>
      </trkpt>
      <trkpt lat="48.18925" lon="7.22797">
        <ele>896.7</ele>
        <time>2026-03-19T12:06:18Z</time>
      </trkpt>
      <trkpt lat="48.18924" lon="7.2279">
        <ele>895.9</ele>
        <time>2026-03-19T12:06:23Z</time>
      </trkpt>
      <trkpt lat="48.18923" lon="7.22783">
        <ele>895.2</ele>
        <time>2026-03-19T12:06:28Z</time>
      </trkpt>
      <trkpt lat="48.18922" lon="7.22773">
        <ele>893.9</ele>
        <time>2026-03-19T12:06:33Z</time>
      </trkpt>
      <trkpt lat="48.18919" lon="7.2276">
        <ele>892.8</ele>
        <time>2026-03-19T12:06:38Z</time>
      </trkpt>
      <trkpt lat="48.18916" lon="7.22752">
        <ele>892.4</ele>
        <time>2026-03-19T12:06:43Z</time>
      </trkpt>
      <trkpt lat="48.18915" lon="7.22745">
        <ele>891.3</ele>
        <time>2026-03-19T12:06:48Z</time>
      </trkpt>
      <trkpt lat="48.18913" lon="7.22738">
        <ele>890.2</ele>
        <time>2026-03-19T12:06:53Z</time>
      </trkpt>
      <trkpt lat="48.18911" lon="7.22729">
        <ele>888.9</ele>
        <time>2026-03-19T12:06:58Z</time>
      </trkpt>
      <trkpt lat="48.18909" lon="7.22718">
        <ele>887.1</ele>
        <time>2026-03-19T12:07:03Z</time>
      </trkpt>
      <trkpt lat="48.18904" lon="7.2271">
        <ele>886.4</ele>
        <time>2026-03-19T12:07:08Z</time>
      </trkpt>
      <trkpt lat="48.189" lon="7.22703">
        <ele>885.8</ele>
        <time>2026-03-19T12:07:13Z</time>
      </trkpt>
      <trkpt lat="48.18898" lon="7.22695">
        <ele>884.7</ele>
        <time>2026-03-19T12:07:18Z</time>
      </trkpt>
      <trkpt lat="48.18894" lon="7.22685">
        <ele>883.6</ele>
        <time>2026-03-19T12:07:23Z</time>
      </trkpt>
      <trkpt lat="48.18891" lon="7.22678">
        <ele>882.9</ele>
        <time>2026-03-19T12:07:28Z</time>
      </trkpt>
      <trkpt lat="48.18887" lon="7.22669">
        <ele>882.1</ele>
        <time>2026-03-19T12:07:33Z</time>
      </trkpt>
      <trkpt lat="48.18881" lon="7.22659">
        <ele>881.2</ele>
        <time>2026-03-19T12:07:38Z</time>
      </trkpt>
      <trkpt lat="48.18878" lon="7.22651">
        <ele>880.1</ele>
        <time>2026-03-19T12:07:43Z</time>
      </trkpt>
      <trkpt lat="48.18872" lon="7.22643">
        <ele>879.7</ele>
        <time>2026-03-19T12:07:48Z</time>
      </trkpt>
      <trkpt lat="48.18865" lon="7.22636">
        <ele>879.8</ele>
        <time>2026-03-19T12:07:53Z</time>
      </trkpt>
      <trkpt lat="48.18861" lon="7.22631">
        <ele>879.7</ele>
        <time>2026-03-19T12:07:58Z</time>
      </trkpt>
      <trkpt lat="48.18856" lon="7.22626">
        <ele>879.9</ele>
        <time>2026-03-19T12:08:03Z</time>
      </trkpt>
      <trkpt lat="48.1885" lon="7.22621">
        <ele>880.4</ele>
        <time>2026-03-19T12:08:08Z</time>
      </trkpt>
      <trkpt lat="48.18843" lon="7.22613">
        <ele>880.6</ele>
        <time>2026-03-19T12:08:13Z</time>
      </trkpt>
      <trkpt lat="48.18837" lon="7.22604">
        <ele>880.5</ele>
        <time>2026-03-19T12:08:18Z</time>
      </trkpt>
      <trkpt lat="48.18832" lon="7.22594">
        <ele>880</ele>
        <time>2026-03-19T12:08:23Z</time>
      </trkpt>
      <trkpt lat="48.18828" lon="7.22584">
        <ele>879.2</ele>
        <time>2026-03-19T12:08:28Z</time>
      </trkpt>
      <trkpt lat="48.18823" lon="7.22579">
        <ele>879.4</ele>
        <time>2026-03-19T12:08:33Z</time>
      </trkpt>
      <trkpt lat="48.1882" lon="7.22574">
        <ele>879.3</ele>
        <time>2026-03-19T12:08:38Z</time>
      </trkpt>
      <trkpt lat="48.18813" lon="7.22566">
        <ele>879.5</ele>
        <time>2026-03-19T12:08:43Z</time>
      </trkpt>
      <trkpt lat="48.18806" lon="7.22558">
        <ele>879.7</ele>
        <time>2026-03-19T12:08:48Z</time>
      </trkpt>
      <trkpt lat="48.18797" lon="7.2255">
        <ele>880.4</ele>
        <time>2026-03-19T12:08:53Z</time>
      </trkpt>
      <trkpt lat="48.18793" lon="7.22542">
        <ele>880</ele>
        <time>2026-03-19T12:08:58Z</time>
      </trkpt>
      <trkpt lat="48.18788" lon="7.22534">
        <ele>879.9</ele>
        <time>2026-03-19T12:09:03Z</time>
      </trkpt>
      <trkpt lat="48.18786" lon="7.22529">
        <ele>879.6</ele>
        <time>2026-03-19T12:09:08Z</time>
      </trkpt>
      <trkpt lat="48.18784" lon="7.22523">
        <ele>879.1</ele>
        <time>2026-03-19T12:09:13Z</time>
      </trkpt>
      <trkpt lat="48.18781" lon="7.22516">
        <ele>878.7</ele>
        <time>2026-03-19T12:09:18Z</time>
      </trkpt>
      <trkpt lat="48.18778" lon="7.22504">
        <ele>877.5</ele>
        <time>2026-03-19T12:09:23Z</time>
      </trkpt>
      <trkpt lat="48.18776" lon="7.22493">
        <ele>876</ele>
        <time>2026-03-19T12:09:28Z</time>
      </trkpt>
      <trkpt lat="48.18773" lon="7.22482">
        <ele>874.6</ele>
        <time>2026-03-19T12:09:33Z</time>
      </trkpt>
      <trkpt lat="48.18767" lon="7.22472">
        <ele>874</ele>
        <time>2026-03-19T12:09:38Z</time>
      </trkpt>
      <trkpt lat="48.18764" lon="7.22465">
        <ele>873.4</ele>
        <time>2026-03-19T12:09:43Z</time>
      </trkpt>
      <trkpt lat="48.18758" lon="7.2246">
        <ele>873.9</ele>
        <time>2026-03-19T12:09:48Z</time>
      </trkpt>
      <trkpt lat="48.18754" lon="7.2245">
        <ele>873</ele>
        <time>2026-03-19T12:09:53Z</time>
      </trkpt>
      <trkpt lat="48.18749" lon="7.22441">
        <ele>872.5</ele>
        <time>2026-03-19T12:09:58Z</time>
      </trkpt>
      <trkpt lat="48.18744" lon="7.22427">
        <ele>870.8</ele>
        <time>2026-03-19T12:10:03Z</time>
      </trkpt>
      <trkpt lat="48.1874" lon="7.22419">
        <ele>870.1</ele>
        <time>2026-03-19T12:10:08Z</time>
      </trkpt>
      <trkpt lat="48.18737" lon="7.22412">
        <ele>869.5</ele>
        <time>2026-03-19T12:10:13Z</time>
      </trkpt>
      <trkpt lat="48.18732" lon="7.22405">
        <ele>869.4</ele>
        <time>2026-03-19T12:10:18Z</time>
      </trkpt>
      <trkpt lat="48.18729" lon="7.22396">
        <ele>868.7</ele>
        <time>2026-03-19T12:10:23Z</time>
      </trkpt>
      <trkpt lat="48.18725" lon="7.22387">
        <ele>868.2</ele>
        <time>2026-03-19T12:10:28Z</time>
      </trkpt>
      <trkpt lat="48.18722" lon="7.22378">
        <ele>867.6</ele>
        <time>2026-03-19T12:10:33Z</time>
      </trkpt>
      <trkpt lat="48.18718" lon="7.22369">
        <ele>867.2</ele>
        <time>2026-03-19T12:10:38Z</time>
      </trkpt>
      <trkpt lat="48.18713" lon="7.2236">
        <ele>867</ele>
        <time>2026-03-19T12:10:43Z</time>
      </trkpt>
      <trkpt lat="48.18707" lon="7.22351">
        <ele>867</ele>
        <time>2026-03-19T12:10:48Z</time>
      </trkpt>
      <trkpt lat="48.18702" lon="7.22341">
        <ele>866.7</ele>
        <time>2026-03-19T12:10:53Z</time>
      </trkpt>
      <trkpt lat="48.18697" lon="7.22333">
        <ele>866.8</ele>
        <time>2026-03-19T12:10:58Z</time>
      </trkpt>
      <trkpt lat="48.18694" lon="7.22325">
        <ele>866.5</ele>
        <time>2026-03-19T12:11:03Z</time>
      </trkpt>
      <trkpt lat="48.1869" lon="7.22317">
        <ele>866.5</ele>
        <time>2026-03-19T12:11:08Z</time>
      </trkpt>
      <trkpt lat="48.18684" lon="7.22307">
        <ele>866.7</ele>
        <time>2026-03-19T12:11:13Z</time>
      </trkpt>
      <trkpt lat="48.18681" lon="7.22298">
        <ele>866.4</ele>
        <time>2026-03-19T12:11:18Z</time>
      </trkpt>
      <trkpt lat="48.18679" lon="7.22293">
        <ele>866.3</ele>
        <time>2026-03-19T12:11:23Z</time>
      </trkpt>
      <trkpt lat="48.18679" lon="7.22291">
        <ele>866.1</ele>
        <time>2026-03-19T12:11:28Z</time>
      </trkpt>
      <trkpt lat="48.18679" lon="7.22291">
        <ele>866.1</ele>
        <time>2026-03-19T12:11:33Z</time>
      </trkpt>
      <trkpt lat="48.18679" lon="7.22291">
        <ele>866.1</ele>
        <time>2026-03-19T12:11:38Z</time>
      </trkpt>
      <trkpt lat="48.18679" lon="7.22291">
        <ele>866.1</ele>
        <time>2026-03-19T12:11:43Z</time>
      </trkpt>
      <trkpt lat="48.18679" lon="7.22291">
        <ele>866.1</ele>
        <time>2026-03-19T12:11:48Z</time>
      </trkpt>
      <trkpt lat="48.18679" lon="7.22291">
        <ele>866.1</ele>
        <time>2026-03-19T12:11:53Z</time>
      </trkpt>
      <trkpt lat="48.18679" lon="7.22291">
        <ele>866.1</ele>
        <time>2026-03-19T12:11:58Z</time>
      </trkpt>
      <trkpt lat="48.18679" lon="7.22291">
        <ele>866.1</ele>
        <time>2026-03-19T12:12:03Z</time>
      </trkpt>
      <trkpt lat="48.18679" lon="7.22291">
        <ele>866.1</ele>
        <time>2026-03-19T12:12:08Z</time>
      </trkpt>
      <trkpt lat="48.18679" lon="7.22291">
        <ele>866.1</ele>
        <time>2026-03-19T12:12:13Z</time>
      </trkpt>
      <trkpt lat="48.18679" lon="7.22291">
        <ele>866.1</ele>
        <time>2026-03-19T12:12:18Z</time>
      </trkpt>
      <trkpt lat="48.1867" lon="7.22292">
        <ele>868.3</ele>
        <time>2026-03-19T12:12:23Z</time>
      </trkpt>
      <trkpt lat="48.18664" lon="7.22278">
        <ele>867.8</ele>
        <time>2026-03-19T12:12:28Z</time>
      </trkpt>
      <trkpt lat="48.18662" lon="7.22268">
        <ele>867</ele>
        <time>2026-03-19T12:12:33Z</time>
      </trkpt>
      <trkpt lat="48.18658" lon="7.22261">
        <ele>866.6</ele>
        <time>2026-03-19T12:12:38Z</time>
      </trkpt>
      <trkpt lat="48.18655" lon="7.22258">
        <ele>866.6</ele>
        <time>2026-03-19T12:12:43Z</time>
      </trkpt>
      <trkpt lat="48.18652" lon="7.22252">
        <ele>866.4</ele>
        <time>2026-03-19T12:12:48Z</time>
      </trkpt>
      <trkpt lat="48.18647" lon="7.22242">
        <ele>866.2</ele>
        <time>2026-03-19T12:12:53Z</time>
      </trkpt>
      <trkpt lat="48.18643" lon="7.22225">
        <ele>865.6</ele>
        <time>2026-03-19T12:12:58Z</time>
      </trkpt>
      <trkpt lat="48.18642" lon="7.22218">
        <ele>865.3</ele>
        <time>2026-03-19T12:13:03Z</time>
      </trkpt>
      <trkpt lat="48.18641" lon="7.22211">
        <ele>865.1</ele>
        <time>2026-03-19T12:13:08Z</time>
      </trkpt>
      <trkpt lat="48.18639" lon="7.22199">
        <ele>864.7</ele>
        <time>2026-03-19T12:13:13Z</time>
      </trkpt>
      <trkpt lat="48.18638" lon="7.22189">
        <ele>864.3</ele>
        <time>2026-03-19T12:13:18Z</time>
      </trkpt>
      <trkpt lat="48.18638" lon="7.22179">
        <ele>863.8</ele>
        <time>2026-03-19T12:13:23Z</time>
      </trkpt>
      <trkpt lat="48.18637" lon="7.22167">
        <ele>863.3</ele>
        <time>2026-03-19T12:13:28Z</time>
      </trkpt>
      <trkpt lat="48.18635" lon="7.22158">
        <ele>862.7</ele>
        <time>2026-03-19T12:13:33Z</time>
      </trkpt>
      <trkpt lat="48.18632" lon="7.22146">
        <ele>862</ele>
        <time>2026-03-19T12:13:38Z</time>
      </trkpt>
      <trkpt lat="48.1863" lon="7.22138">
        <ele>861.6</ele>
        <time>2026-03-19T12:13:43Z</time>
      </trkpt>
      <trkpt lat="48.18629" lon="7.2213">
        <ele>861</ele>
        <time>2026-03-19T12:13:48Z</time>
      </trkpt>
      <trkpt lat="48.18626" lon="7.22119">
        <ele>860.5</ele>
        <time>2026-03-19T12:13:53Z</time>
      </trkpt>
      <trkpt lat="48.18623" lon="7.22108">
        <ele>860.1</ele>
        <time>2026-03-19T12:13:58Z</time>
      </trkpt>
      <trkpt lat="48.1862" lon="7.22097">
        <ele>859.7</ele>
        <time>2026-03-19T12:14:03Z</time>
      </trkpt>
      <trkpt lat="48.18618" lon="7.22086">
        <ele>859.2</ele>
        <time>2026-03-19T12:14:08Z</time>
      </trkpt>
      <trkpt lat="48.18614" lon="7.22076">
        <ele>859.2</ele>
        <time>2026-03-19T12:14:13Z</time>
      </trkpt>
      <trkpt lat="48.1861" lon="7.22068">
        <ele>859.5</ele>
        <time>2026-03-19T12:14:18Z</time>
      </trkpt>
      <trkpt lat="48.18607" lon="7.22057">
        <ele>859.3</ele>
        <time>2026-03-19T12:14:23Z</time>
      </trkpt>
      <trkpt lat="48.18605" lon="7.22044">
        <ele>858.9</ele>
        <time>2026-03-19T12:14:28Z</time>
      </trkpt>
      <trkpt lat="48.18602" lon="7.22032">
        <ele>858.7</ele>
        <time>2026-03-19T12:14:33Z</time>
      </trkpt>
      <trkpt lat="48.18599" lon="7.22029">
        <ele>859.2</ele>
        <time>2026-03-19T12:14:38Z</time>
      </trkpt>
      <trkpt lat="48.18595" lon="7.22025">
        <ele>859.8</ele>
        <time>2026-03-19T12:14:43Z</time>
      </trkpt>
      <trkpt lat="48.18592" lon="7.22011">
        <ele>859.6</ele>
        <time>2026-03-19T12:14:48Z</time>
      </trkpt>
      <trkpt lat="48.18589" lon="7.22002">
        <ele>859.8</ele>
        <time>2026-03-19T12:14:53Z</time>
      </trkpt>
      <trkpt lat="48.18584" lon="7.21995">
        <ele>860.1</ele>
        <time>2026-03-19T12:14:58Z</time>
      </trkpt>
      <trkpt lat="48.1858" lon="7.21987">
        <ele>859.7</ele>
        <time>2026-03-19T12:15:03Z</time>
      </trkpt>
      <trkpt lat="48.18574" lon="7.2198">
        <ele>859.8</ele>
        <time>2026-03-19T12:15:08Z</time>
      </trkpt>
      <trkpt lat="48.18571" lon="7.21969">
        <ele>858.9</ele>
        <time>2026-03-19T12:15:13Z</time>
      </trkpt>
      <trkpt lat="48.18566" lon="7.21962">
        <ele>859</ele>
        <time>2026-03-19T12:15:18Z</time>
      </trkpt>
      <trkpt lat="48.18563" lon="7.21957">
        <ele>859</ele>
        <time>2026-03-19T12:15:23Z</time>
      </trkpt>
      <trkpt lat="48.18558" lon="7.21949">
        <ele>859.1</ele>
        <time>2026-03-19T12:15:28Z</time>
      </trkpt>
      <trkpt lat="48.18551" lon="7.21941">
        <ele>859.7</ele>
        <time>2026-03-19T12:15:33Z</time>
      </trkpt>
      <trkpt lat="48.18547" lon="7.21928">
        <ele>859.3</ele>
        <time>2026-03-19T12:15:38Z</time>
      </trkpt>
      <trkpt lat="48.18543" lon="7.2192">
        <ele>859.5</ele>
        <time>2026-03-19T12:15:43Z</time>
      </trkpt>
      <trkpt lat="48.18542" lon="7.21914">
        <ele>859.3</ele>
        <time>2026-03-19T12:15:48Z</time>
      </trkpt>
      <trkpt lat="48.18542" lon="7.21912">
        <ele>859.2</ele>
        <time>2026-03-19T12:15:53Z</time>
      </trkpt>
      <trkpt lat="48.18542" lon="7.21905">
        <ele>858.9</ele>
        <time>2026-03-19T12:15:58Z</time>
      </trkpt>
      <trkpt lat="48.18542" lon="7.21895">
        <ele>858.4</ele>
        <time>2026-03-19T12:16:03Z</time>
      </trkpt>
      <trkpt lat="48.18546" lon="7.21887">
        <ele>857</ele>
        <time>2026-03-19T12:16:08Z</time>
      </trkpt>
      <trkpt lat="48.18557" lon="7.21882">
        <ele>854</ele>
        <time>2026-03-19T12:16:13Z</time>
      </trkpt>
      <trkpt lat="48.18567" lon="7.21884">
        <ele>851.5</ele>
        <time>2026-03-19T12:16:18Z</time>
      </trkpt>
      <trkpt lat="48.18574" lon="7.21885">
        <ele>849.8</ele>
        <time>2026-03-19T12:16:23Z</time>
      </trkpt>
      <trkpt lat="48.1858" lon="7.21886">
        <ele>848.4</ele>
        <time>2026-03-19T12:16:28Z</time>
      </trkpt>
      <trkpt lat="48.18583" lon="7.21893">
        <ele>847.9</ele>
        <time>2026-03-19T12:16:33Z</time>
      </trkpt>
      <trkpt lat="48.1859" lon="7.21896">
        <ele>847.4</ele>
        <time>2026-03-19T12:16:38Z</time>
      </trkpt>
      <trkpt lat="48.18595" lon="7.21902">
        <ele>847.2</ele>
        <time>2026-03-19T12:16:43Z</time>
      </trkpt>
      <trkpt lat="48.186" lon="7.21906">
        <ele>846.8</ele>
        <time>2026-03-19T12:16:48Z</time>
      </trkpt>
      <trkpt lat="48.18606" lon="7.21909">
        <ele>846.3</ele>
        <time>2026-03-19T12:16:53Z</time>
      </trkpt>
      <trkpt lat="48.18613" lon="7.21914">
        <ele>845.7</ele>
        <time>2026-03-19T12:16:58Z</time>
      </trkpt>
      <trkpt lat="48.18618" lon="7.21917">
        <ele>845.3</ele>
        <time>2026-03-19T12:17:03Z</time>
      </trkpt>
      <trkpt lat="48.1862" lon="7.21926">
        <ele>845.8</ele>
        <time>2026-03-19T12:17:08Z</time>
      </trkpt>
      <trkpt lat="48.1862" lon="7.21931">
        <ele>846.3</ele>
        <time>2026-03-19T12:17:13Z</time>
      </trkpt>
      <trkpt lat="48.18622" lon="7.21936">
        <ele>846.4</ele>
        <time>2026-03-19T12:17:18Z</time>
      </trkpt>
      <trkpt lat="48.18622" lon="7.21936">
        <ele>846.4</ele>
        <time>2026-03-19T12:17:23Z</time>
      </trkpt>
      <trkpt lat="48.18622" lon="7.21936">
        <ele>846.4</ele>
        <time>2026-03-19T12:17:28Z</time>
      </trkpt>
      <trkpt lat="48.18622" lon="7.21936">
        <ele>846.4</ele>
        <time>2026-03-19T12:17:33Z</time>
      </trkpt>
      <trkpt lat="48.18622" lon="7.21936">
        <ele>846.4</ele>
        <time>2026-03-19T12:17:38Z</time>
      </trkpt>
      <trkpt lat="48.18622" lon="7.21936">
        <ele>846.4</ele>
        <time>2026-03-19T12:17:43Z</time>
      </trkpt>
      <trkpt lat="48.18622" lon="7.21936">
        <ele>846.4</ele>
        <time>2026-03-19T12:17:48Z</time>
      </trkpt>
      <trkpt lat="48.18622" lon="7.21936">
        <ele>846.4</ele>
        <time>2026-03-19T12:17:53Z</time>
      </trkpt>
      <trkpt lat="48.18622" lon="7.21936">
        <ele>846.4</ele>
        <time>2026-03-19T12:17:58Z</time>
      </trkpt>
      <trkpt lat="48.18622" lon="7.21936">
        <ele>846.4</ele>
        <time>2026-03-19T12:18:03Z</time>
      </trkpt>
      <trkpt lat="48.18614" lon="7.21921">
        <ele>846.1</ele>
        <time>2026-03-19T12:18:08Z</time>
      </trkpt>
      <trkpt lat="48.18611" lon="7.21923">
        <ele>846.6</ele>
        <time>2026-03-19T12:18:13Z</time>
      </trkpt>
      <trkpt lat="48.18611" lon="7.21923">
        <ele>846.6</ele>
        <time>2026-03-19T12:18:18Z</time>
      </trkpt>
      <trkpt lat="48.18611" lon="7.21923">
        <ele>846.6</ele>
        <time>2026-03-19T12:18:23Z</time>
      </trkpt>
      <trkpt lat="48.18611" lon="7.21923">
        <ele>846.6</ele>
        <time>2026-03-19T12:18:28Z</time>
      </trkpt>
      <trkpt lat="48.18611" lon="7.21923">
        <ele>846.6</ele>
        <time>2026-03-19T12:18:33Z</time>
      </trkpt>
      <trkpt lat="48.18611" lon="7.21923">
        <ele>846.6</ele>
        <time>2026-03-19T12:18:38Z</time>
      </trkpt>
      <trkpt lat="48.18611" lon="7.21923">
        <ele>846.6</ele>
        <time>2026-03-19T12:18:43Z</time>
      </trkpt>
      <trkpt lat="48.18615" lon="7.21917">
        <ele>845.6</ele>
        <time>2026-03-19T12:18:48Z</time>
      </trkpt>
      <trkpt lat="48.18615" lon="7.21917">
        <ele>845.6</ele>
        <time>2026-03-19T12:18:53Z</time>
      </trkpt>
      <trkpt lat="48.18615" lon="7.21917">
        <ele>845.6</ele>
        <time>2026-03-19T12:18:58Z</time>
      </trkpt>
      <trkpt lat="48.18615" lon="7.21917">
        <ele>845.6</ele>
        <time>2026-03-19T12:19:03Z</time>
      </trkpt>
      <trkpt lat="48.18615" lon="7.21917">
        <ele>845.6</ele>
        <time>2026-03-19T12:19:08Z</time>
      </trkpt>
      <trkpt lat="48.18615" lon="7.21917">
        <ele>845.6</ele>
        <time>2026-03-19T12:19:13Z</time>
      </trkpt>
      <trkpt lat="48.18615" lon="7.21917">
        <ele>845.6</ele>
        <time>2026-03-19T12:19:18Z</time>
      </trkpt>
      <trkpt lat="48.18615" lon="7.21917">
        <ele>845.6</ele>
        <time>2026-03-19T12:19:23Z</time>
      </trkpt>
      <trkpt lat="48.18615" lon="7.21917">
        <ele>845.6</ele>
        <time>2026-03-19T12:19:28Z</time>
      </trkpt>
      <trkpt lat="48.18615" lon="7.21917">
        <ele>845.6</ele>
        <time>2026-03-19T12:19:33Z</time>
      </trkpt>
      <trkpt lat="48.18615" lon="7.21917">
        <ele>845.6</ele>
        <time>2026-03-19T12:19:38Z</time>
      </trkpt>
      <trkpt lat="48.18615" lon="7.21917">
        <ele>845.6</ele>
        <time>2026-03-19T12:19:43Z</time>
      </trkpt>
      <trkpt lat="48.18615" lon="7.21917">
        <ele>845.6</ele>
        <time>2026-03-19T12:19:48Z</time>
      </trkpt>
      <trkpt lat="48.18615" lon="7.21917">
        <ele>845.6</ele>
        <time>2026-03-19T12:19:53Z</time>
      </trkpt>
      <trkpt lat="48.18615" lon="7.21917">
        <ele>845.6</ele>
        <time>2026-03-19T12:19:58Z</time>
      </trkpt>
      <trkpt lat="48.18615" lon="7.21917">
        <ele>845.6</ele>
        <time>2026-03-19T12:20:03Z</time>
      </trkpt>
      <trkpt lat="48.18615" lon="7.21917">
        <ele>845.6</ele>
        <time>2026-03-19T12:20:08Z</time>
      </trkpt>
      <trkpt lat="48.18615" lon="7.21917">
        <ele>845.6</ele>
        <time>2026-03-19T12:20:13Z</time>
      </trkpt>
      <trkpt lat="48.18615" lon="7.21917">
        <ele>845.6</ele>
        <time>2026-03-19T12:20:18Z</time>
      </trkpt>
      <trkpt lat="48.18615" lon="7.21917">
        <ele>845.6</ele>
        <time>2026-03-19T12:20:23Z</time>
      </trkpt>
      <trkpt lat="48.18615" lon="7.21917">
        <ele>845.6</ele>
        <time>2026-03-19T12:20:28Z</time>
      </trkpt>
      <trkpt lat="48.18615" lon="7.21917">
        <ele>845.6</ele>
        <time>2026-03-19T12:20:33Z</time>
      </trkpt>
      <trkpt lat="48.18615" lon="7.21917">
        <ele>845.6</ele>
        <time>2026-03-19T12:20:38Z</time>
      </trkpt>
      <trkpt lat="48.18624" lon="7.21925">
        <ele>845.3</ele>
        <time>2026-03-19T12:20:43Z</time>
      </trkpt>
      <trkpt lat="48.18628" lon="7.21923">
        <ele>844.6</ele>
        <time>2026-03-19T12:20:48Z</time>
      </trkpt>
      <trkpt lat="48.18629" lon="7.21921">
        <ele>844.4</ele>
        <time>2026-03-19T12:20:53Z</time>
      </trkpt>
      <trkpt lat="48.1863" lon="7.2192">
        <ele>844.2</ele>
        <time>2026-03-19T12:20:58Z</time>
      </trkpt>
      <trkpt lat="48.1863" lon="7.2192">
        <ele>844.2</ele>
        <time>2026-03-19T12:21:03Z</time>
      </trkpt>
      <trkpt lat="48.1863" lon="7.2192">
        <ele>844.2</ele>
        <time>2026-03-19T12:21:08Z</time>
      </trkpt>
      <trkpt lat="48.18618" lon="7.2191">
        <ele>845.1</ele>
        <time>2026-03-19T12:21:13Z</time>
      </trkpt>
      <trkpt lat="48.18615" lon="7.21907">
        <ele>845.4</ele>
        <time>2026-03-19T12:21:18Z</time>
      </trkpt>
      <trkpt lat="48.18617" lon="7.21901">
        <ele>845.1</ele>
        <time>2026-03-19T12:21:23Z</time>
      </trkpt>
      <trkpt lat="48.18625" lon="7.219">
        <ele>844.3</ele>
        <time>2026-03-19T12:21:28Z</time>
      </trkpt>
      <trkpt lat="48.1863" lon="7.21902">
        <ele>843.8</ele>
        <time>2026-03-19T12:21:33Z</time>
      </trkpt>
      <trkpt lat="48.18635" lon="7.21902">
        <ele>843.4</ele>
        <time>2026-03-19T12:21:38Z</time>
      </trkpt>
      <trkpt lat="48.1864" lon="7.21903">
        <ele>842.9</ele>
        <time>2026-03-19T12:21:43Z</time>
      </trkpt>
      <trkpt lat="48.18642" lon="7.21908">
        <ele>842.7</ele>
        <time>2026-03-19T12:21:48Z</time>
      </trkpt>
      <trkpt lat="48.18642" lon="7.21913">
        <ele>842.7</ele>
        <time>2026-03-19T12:21:53Z</time>
      </trkpt>
      <trkpt lat="48.18642" lon="7.21913">
        <ele>842.7</ele>
        <time>2026-03-19T12:21:58Z</time>
      </trkpt>
      <trkpt lat="48.18648" lon="7.21916">
        <ele>842</ele>
        <time>2026-03-19T12:22:03Z</time>
      </trkpt>
      <trkpt lat="48.18654" lon="7.21915">
        <ele>841.4</ele>
        <time>2026-03-19T12:22:08Z</time>
      </trkpt>
      <trkpt lat="48.18661" lon="7.21914">
        <ele>840.7</ele>
        <time>2026-03-19T12:22:13Z</time>
      </trkpt>
      <trkpt lat="48.18668" lon="7.21915">
        <ele>840</ele>
        <time>2026-03-19T12:22:18Z</time>
      </trkpt>
      <trkpt lat="48.18674" lon="7.21916">
        <ele>839.6</ele>
        <time>2026-03-19T12:22:23Z</time>
      </trkpt>
      <trkpt lat="48.1868" lon="7.21915">
        <ele>839.3</ele>
        <time>2026-03-19T12:22:28Z</time>
      </trkpt>
      <trkpt lat="48.18685" lon="7.21916">
        <ele>838.9</ele>
        <time>2026-03-19T12:22:33Z</time>
      </trkpt>
      <trkpt lat="48.18692" lon="7.21919">
        <ele>838.4</ele>
        <time>2026-03-19T12:22:38Z</time>
      </trkpt>
      <trkpt lat="48.18697" lon="7.21924">
        <ele>837.9</ele>
        <time>2026-03-19T12:22:43Z</time>
      </trkpt>
      <trkpt lat="48.18703" lon="7.2193">
        <ele>837.3</ele>
        <time>2026-03-19T12:22:48Z</time>
      </trkpt>
      <trkpt lat="48.18709" lon="7.21932">
        <ele>836.7</ele>
        <time>2026-03-19T12:22:53Z</time>
      </trkpt>
      <trkpt lat="48.18715" lon="7.21936">
        <ele>836</ele>
        <time>2026-03-19T12:22:58Z</time>
      </trkpt>
      <trkpt lat="48.1872" lon="7.21937">
        <ele>835.5</ele>
        <time>2026-03-19T12:23:03Z</time>
      </trkpt>
      <trkpt lat="48.18727" lon="7.21942">
        <ele>834.5</ele>
        <time>2026-03-19T12:23:08Z</time>
      </trkpt>
      <trkpt lat="48.18732" lon="7.21945">
        <ele>833.8</ele>
        <time>2026-03-19T12:23:13Z</time>
      </trkpt>
      <trkpt lat="48.18739" lon="7.21947">
        <ele>832.9</ele>
        <time>2026-03-19T12:23:18Z</time>
      </trkpt>
      <trkpt lat="48.18746" lon="7.2195">
        <ele>831.8</ele>
        <time>2026-03-19T12:23:23Z</time>
      </trkpt>
      <trkpt lat="48.18752" lon="7.21951">
        <ele>831.4</ele>
        <time>2026-03-19T12:23:28Z</time>
      </trkpt>
      <trkpt lat="48.18759" lon="7.21956">
        <ele>831.3</ele>
        <time>2026-03-19T12:23:33Z</time>
      </trkpt>
      <trkpt lat="48.18764" lon="7.21962">
        <ele>830.9</ele>
        <time>2026-03-19T12:23:38Z</time>
      </trkpt>
      <trkpt lat="48.18773" lon="7.21968">
        <ele>830.6</ele>
        <time>2026-03-19T12:23:43Z</time>
      </trkpt>
      <trkpt lat="48.18779" lon="7.21971">
        <ele>830.6</ele>
        <time>2026-03-19T12:23:48Z</time>
      </trkpt>
      <trkpt lat="48.18785" lon="7.21975">
        <ele>830.3</ele>
        <time>2026-03-19T12:23:53Z</time>
      </trkpt>
      <trkpt lat="48.18792" lon="7.21977">
        <ele>830.3</ele>
        <time>2026-03-19T12:23:58Z</time>
      </trkpt>
      <trkpt lat="48.18799" lon="7.2198">
        <ele>830.2</ele>
        <time>2026-03-19T12:24:03Z</time>
      </trkpt>
      <trkpt lat="48.18804" lon="7.21985">
        <ele>829.6</ele>
        <time>2026-03-19T12:24:08Z</time>
      </trkpt>
      <trkpt lat="48.18809" lon="7.21992">
        <ele>828.7</ele>
        <time>2026-03-19T12:24:13Z</time>
      </trkpt>
      <trkpt lat="48.18811" lon="7.22">
        <ele>827.5</ele>
        <time>2026-03-19T12:24:18Z</time>
      </trkpt>
      <trkpt lat="48.18816" lon="7.22008">
        <ele>826.8</ele>
        <time>2026-03-19T12:24:23Z</time>
      </trkpt>
      <trkpt lat="48.18822" lon="7.22011">
        <ele>826.5</ele>
        <time>2026-03-19T12:24:28Z</time>
      </trkpt>
      <trkpt lat="48.18826" lon="7.22017">
        <ele>825.8</ele>
        <time>2026-03-19T12:24:33Z</time>
      </trkpt>
      <trkpt lat="48.18831" lon="7.22024">
        <ele>824.9</ele>
        <time>2026-03-19T12:24:38Z</time>
      </trkpt>
      <trkpt lat="48.18837" lon="7.22028">
        <ele>824.6</ele>
        <time>2026-03-19T12:24:43Z</time>
      </trkpt>
      <trkpt lat="48.18844" lon="7.22036">
        <ele>824</ele>
        <time>2026-03-19T12:24:48Z</time>
      </trkpt>
      <trkpt lat="48.1885" lon="7.22043">
        <ele>823.3</ele>
        <time>2026-03-19T12:24:53Z</time>
      </trkpt>
      <trkpt lat="48.18855" lon="7.22047">
        <ele>822.9</ele>
        <time>2026-03-19T12:24:58Z</time>
      </trkpt>
      <trkpt lat="48.18862" lon="7.22052">
        <ele>822.4</ele>
        <time>2026-03-19T12:25:03Z</time>
      </trkpt>
      <trkpt lat="48.18868" lon="7.22055">
        <ele>822.2</ele>
        <time>2026-03-19T12:25:08Z</time>
      </trkpt>
      <trkpt lat="48.18874" lon="7.22058">
        <ele>821.8</ele>
        <time>2026-03-19T12:25:13Z</time>
      </trkpt>
      <trkpt lat="48.18879" lon="7.22061">
        <ele>821.4</ele>
        <time>2026-03-19T12:25:18Z</time>
      </trkpt>
      <trkpt lat="48.18886" lon="7.22064">
        <ele>821</ele>
        <time>2026-03-19T12:25:23Z</time>
      </trkpt>
      <trkpt lat="48.18894" lon="7.22067">
        <ele>820.6</ele>
        <time>2026-03-19T12:25:28Z</time>
      </trkpt>
      <trkpt lat="48.189" lon="7.2207">
        <ele>820</ele>
        <time>2026-03-19T12:25:33Z</time>
      </trkpt>
      <trkpt lat="48.18907" lon="7.22071">
        <ele>819.9</ele>
        <time>2026-03-19T12:25:38Z</time>
      </trkpt>
      <trkpt lat="48.18914" lon="7.22072">
        <ele>819.8</ele>
        <time>2026-03-19T12:25:43Z</time>
      </trkpt>
      <trkpt lat="48.1892" lon="7.22075">
        <ele>819.4</ele>
        <time>2026-03-19T12:25:48Z</time>
      </trkpt>
      <trkpt lat="48.18927" lon="7.22074">
        <ele>820.4</ele>
        <time>2026-03-19T12:25:53Z</time>
      </trkpt>
      <trkpt lat="48.18933" lon="7.22077">
        <ele>820.2</ele>
        <time>2026-03-19T12:25:58Z</time>
      </trkpt>
      <trkpt lat="48.1894" lon="7.2208">
        <ele>820.1</ele>
        <time>2026-03-19T12:26:03Z</time>
      </trkpt>
      <trkpt lat="48.18949" lon="7.22074">
        <ele>822.5</ele>
        <time>2026-03-19T12:26:08Z</time>
      </trkpt>
      <trkpt lat="48.18953" lon="7.22074">
        <ele>822.9</ele>
        <time>2026-03-19T12:26:13Z</time>
      </trkpt>
      <trkpt lat="48.18955" lon="7.22078">
        <ele>822.1</ele>
        <time>2026-03-19T12:26:18Z</time>
      </trkpt>
      <trkpt lat="48.18958" lon="7.22084">
        <ele>820.8</ele>
        <time>2026-03-19T12:26:23Z</time>
      </trkpt>
      <trkpt lat="48.18964" lon="7.22089">
        <ele>819.9</ele>
        <time>2026-03-19T12:26:28Z</time>
      </trkpt>
      <trkpt lat="48.18973" lon="7.22091">
        <ele>820</ele>
        <time>2026-03-19T12:26:33Z</time>
      </trkpt>
      <trkpt lat="48.18982" lon="7.22095">
        <ele>819.3</ele>
        <time>2026-03-19T12:26:38Z</time>
      </trkpt>
      <trkpt lat="48.18987" lon="7.22095">
        <ele>819.6</ele>
        <time>2026-03-19T12:26:43Z</time>
      </trkpt>
      <trkpt lat="48.18995" lon="7.22095">
        <ele>820.1</ele>
        <time>2026-03-19T12:26:48Z</time>
      </trkpt>
      <trkpt lat="48.19004" lon="7.22099">
        <ele>818.9</ele>
        <time>2026-03-19T12:26:53Z</time>
      </trkpt>
      <trkpt lat="48.1901" lon="7.22104">
        <ele>817.1</ele>
        <time>2026-03-19T12:26:58Z</time>
      </trkpt>
      <trkpt lat="48.19017" lon="7.22108">
        <ele>815.8</ele>
        <time>2026-03-19T12:27:03Z</time>
      </trkpt>
      <trkpt lat="48.19025" lon="7.22116">
        <ele>812.9</ele>
        <time>2026-03-19T12:27:08Z</time>
      </trkpt>
      <trkpt lat="48.19031" lon="7.22121">
        <ele>811.2</ele>
        <time>2026-03-19T12:27:13Z</time>
      </trkpt>
      <trkpt lat="48.19036" lon="7.2212">
        <ele>811.7</ele>
        <time>2026-03-19T12:27:18Z</time>
      </trkpt>
      <trkpt lat="48.19044" lon="7.22121">
        <ele>811.6</ele>
        <time>2026-03-19T12:27:23Z</time>
      </trkpt>
      <trkpt lat="48.1905" lon="7.22123">
        <ele>811.1</ele>
        <time>2026-03-19T12:27:28Z</time>
      </trkpt>
      <trkpt lat="48.19056" lon="7.22124">
        <ele>810.9</ele>
        <time>2026-03-19T12:27:33Z</time>
      </trkpt>
      <trkpt lat="48.19063" lon="7.22128">
        <ele>809.6</ele>
        <time>2026-03-19T12:27:38Z</time>
      </trkpt>
      <trkpt lat="48.1907" lon="7.22127">
        <ele>810.3</ele>
        <time>2026-03-19T12:27:43Z</time>
      </trkpt>
      <trkpt lat="48.19077" lon="7.22126">
        <ele>810.9</ele>
        <time>2026-03-19T12:27:48Z</time>
      </trkpt>
      <trkpt lat="48.19084" lon="7.22128">
        <ele>810.4</ele>
        <time>2026-03-19T12:27:53Z</time>
      </trkpt>
      <trkpt lat="48.19089" lon="7.22129">
        <ele>810.2</ele>
        <time>2026-03-19T12:27:58Z</time>
      </trkpt>
      <trkpt lat="48.19095" lon="7.22131">
        <ele>809.6</ele>
        <time>2026-03-19T12:28:03Z</time>
      </trkpt>
      <trkpt lat="48.191" lon="7.22133">
        <ele>809</ele>
        <time>2026-03-19T12:28:08Z</time>
      </trkpt>
      <trkpt lat="48.19107" lon="7.22135">
        <ele>808.5</ele>
        <time>2026-03-19T12:28:13Z</time>
      </trkpt>
      <trkpt lat="48.19115" lon="7.22137">
        <ele>808</ele>
        <time>2026-03-19T12:28:18Z</time>
      </trkpt>
      <trkpt lat="48.19121" lon="7.22138">
        <ele>807.9</ele>
        <time>2026-03-19T12:28:23Z</time>
      </trkpt>
      <trkpt lat="48.19128" lon="7.22139">
        <ele>807.7</ele>
        <time>2026-03-19T12:28:28Z</time>
      </trkpt>
      <trkpt lat="48.19135" lon="7.2214">
        <ele>807.6</ele>
        <time>2026-03-19T12:28:33Z</time>
      </trkpt>
      <trkpt lat="48.1914" lon="7.22145">
        <ele>806.1</ele>
        <time>2026-03-19T12:28:38Z</time>
      </trkpt>
      <trkpt lat="48.19146" lon="7.2215">
        <ele>804.6</ele>
        <time>2026-03-19T12:28:43Z</time>
      </trkpt>
      <trkpt lat="48.19151" lon="7.22155">
        <ele>803.1</ele>
        <time>2026-03-19T12:28:48Z</time>
      </trkpt>
      <trkpt lat="48.19156" lon="7.22159">
        <ele>802</ele>
        <time>2026-03-19T12:28:53Z</time>
      </trkpt>
      <trkpt lat="48.19161" lon="7.22162">
        <ele>801.3</ele>
        <time>2026-03-19T12:28:58Z</time>
      </trkpt>
      <trkpt lat="48.19167" lon="7.22165">
        <ele>800.6</ele>
        <time>2026-03-19T12:29:03Z</time>
      </trkpt>
      <trkpt lat="48.19173" lon="7.22168">
        <ele>800</ele>
        <time>2026-03-19T12:29:08Z</time>
      </trkpt>
      <trkpt lat="48.19179" lon="7.22173">
        <ele>798.7</ele>
        <time>2026-03-19T12:29:13Z</time>
      </trkpt>
      <trkpt lat="48.19183" lon="7.22179">
        <ele>796.8</ele>
        <time>2026-03-19T12:29:18Z</time>
      </trkpt>
      <trkpt lat="48.19189" lon="7.22185">
        <ele>795.2</ele>
        <time>2026-03-19T12:29:23Z</time>
      </trkpt>
      <trkpt lat="48.19194" lon="7.22191">
        <ele>793.5</ele>
        <time>2026-03-19T12:29:28Z</time>
      </trkpt>
      <trkpt lat="48.192" lon="7.22195">
        <ele>792.7</ele>
        <time>2026-03-19T12:29:33Z</time>
      </trkpt>
      <trkpt lat="48.19206" lon="7.22195">
        <ele>793.4</ele>
        <time>2026-03-19T12:29:38Z</time>
      </trkpt>
      <trkpt lat="48.19212" lon="7.22191">
        <ele>795.4</ele>
        <time>2026-03-19T12:29:43Z</time>
      </trkpt>
      <trkpt lat="48.19219" lon="7.2219">
        <ele>796.5</ele>
        <time>2026-03-19T12:29:48Z</time>
      </trkpt>
      <trkpt lat="48.19226" lon="7.22187">
        <ele>798.2</ele>
        <time>2026-03-19T12:29:53Z</time>
      </trkpt>
      <trkpt lat="48.19233" lon="7.22182">
        <ele>800.6</ele>
        <time>2026-03-19T12:29:58Z</time>
      </trkpt>
      <trkpt lat="48.19239" lon="7.22176">
        <ele>803.1</ele>
        <time>2026-03-19T12:30:03Z</time>
      </trkpt>
      <trkpt lat="48.19245" lon="7.22169">
        <ele>805.8</ele>
        <time>2026-03-19T12:30:08Z</time>
      </trkpt>
      <trkpt lat="48.19251" lon="7.2216">
        <ele>808.3</ele>
        <time>2026-03-19T12:30:13Z</time>
      </trkpt>
      <trkpt lat="48.19256" lon="7.2215">
        <ele>810.2</ele>
        <time>2026-03-19T12:30:18Z</time>
      </trkpt>
      <trkpt lat="48.1926" lon="7.2214">
        <ele>812.1</ele>
        <time>2026-03-19T12:30:23Z</time>
      </trkpt>
      <trkpt lat="48.19264" lon="7.22129">
        <ele>814.1</ele>
        <time>2026-03-19T12:30:28Z</time>
      </trkpt>
      <trkpt lat="48.19267" lon="7.22122">
        <ele>815.3</ele>
        <time>2026-03-19T12:30:33Z</time>
      </trkpt>
      <trkpt lat="48.19271" lon="7.22114">
        <ele>816.5</ele>
        <time>2026-03-19T12:30:38Z</time>
      </trkpt>
      <trkpt lat="48.19274" lon="7.2211">
        <ele>817.1</ele>
        <time>2026-03-19T12:30:43Z</time>
      </trkpt>
      <trkpt lat="48.1928" lon="7.22107">
        <ele>817.3</ele>
        <time>2026-03-19T12:30:48Z</time>
      </trkpt>
      <trkpt lat="48.19286" lon="7.22104">
        <ele>817.4</ele>
        <time>2026-03-19T12:30:53Z</time>
      </trkpt>
      <trkpt lat="48.19293" lon="7.22102">
        <ele>817.3</ele>
        <time>2026-03-19T12:30:58Z</time>
      </trkpt>
      <trkpt lat="48.193" lon="7.221">
        <ele>817.1</ele>
        <time>2026-03-19T12:31:03Z</time>
      </trkpt>
      <trkpt lat="48.19306" lon="7.22094">
        <ele>817.6</ele>
        <time>2026-03-19T12:31:08Z</time>
      </trkpt>
      <trkpt lat="48.19314" lon="7.22091">
        <ele>817.5</ele>
        <time>2026-03-19T12:31:13Z</time>
      </trkpt>
      <trkpt lat="48.19321" lon="7.22085">
        <ele>817.8</ele>
        <time>2026-03-19T12:31:18Z</time>
      </trkpt>
      <trkpt lat="48.19325" lon="7.22076">
        <ele>818.5</ele>
        <time>2026-03-19T12:31:23Z</time>
      </trkpt>
      <trkpt lat="48.19326" lon="7.22069">
        <ele>819.1</ele>
        <time>2026-03-19T12:31:28Z</time>
      </trkpt>
      <trkpt lat="48.19329" lon="7.22061">
        <ele>819.6</ele>
        <time>2026-03-19T12:31:33Z</time>
      </trkpt>
      <trkpt lat="48.19333" lon="7.22054">
        <ele>819.9</ele>
        <time>2026-03-19T12:31:38Z</time>
      </trkpt>
      <trkpt lat="48.19336" lon="7.22045">
        <ele>820.3</ele>
        <time>2026-03-19T12:31:43Z</time>
      </trkpt>
      <trkpt lat="48.19339" lon="7.2204">
        <ele>820.4</ele>
        <time>2026-03-19T12:31:48Z</time>
      </trkpt>
      <trkpt lat="48.19342" lon="7.22032">
        <ele>820.7</ele>
        <time>2026-03-19T12:31:53Z</time>
      </trkpt>
      <trkpt lat="48.19347" lon="7.22027">
        <ele>820.4</ele>
        <time>2026-03-19T12:31:58Z</time>
      </trkpt>
      <trkpt lat="48.19352" lon="7.22022">
        <ele>820.2</ele>
        <time>2026-03-19T12:32:03Z</time>
      </trkpt>
      <trkpt lat="48.19356" lon="7.22018">
        <ele>819.9</ele>
        <time>2026-03-19T12:32:08Z</time>
      </trkpt>
      <trkpt lat="48.19359" lon="7.22013">
        <ele>819.9</ele>
        <time>2026-03-19T12:32:13Z</time>
      </trkpt>
      <trkpt lat="48.19361" lon="7.22008">
        <ele>820</ele>
        <time>2026-03-19T12:32:18Z</time>
      </trkpt>
      <trkpt lat="48.19362" lon="7.22002">
        <ele>820.4</ele>
        <time>2026-03-19T12:32:23Z</time>
      </trkpt>
      <trkpt lat="48.19367" lon="7.22003">
        <ele>819.5</ele>
        <time>2026-03-19T12:32:28Z</time>
      </trkpt>
      <trkpt lat="48.19374" lon="7.22003">
        <ele>818.4</ele>
        <time>2026-03-19T12:32:33Z</time>
      </trkpt>
      <trkpt lat="48.19383" lon="7.22003">
        <ele>817</ele>
        <time>2026-03-19T12:32:38Z</time>
      </trkpt>
      <trkpt lat="48.1939" lon="7.22004">
        <ele>815.9</ele>
        <time>2026-03-19T12:32:43Z</time>
      </trkpt>
      <trkpt lat="48.19396" lon="7.22004">
        <ele>814.9</ele>
        <time>2026-03-19T12:32:48Z</time>
      </trkpt>
      <trkpt lat="48.19401" lon="7.22005">
        <ele>814.1</ele>
        <time>2026-03-19T12:32:53Z</time>
      </trkpt>
      <trkpt lat="48.19407" lon="7.22006">
        <ele>813.1</ele>
        <time>2026-03-19T12:32:58Z</time>
      </trkpt>
      <trkpt lat="48.19414" lon="7.22005">
        <ele>812.1</ele>
        <time>2026-03-19T12:33:03Z</time>
      </trkpt>
      <trkpt lat="48.19421" lon="7.22005">
        <ele>811.1</ele>
        <time>2026-03-19T12:33:08Z</time>
      </trkpt>
      <trkpt lat="48.19426" lon="7.22009">
        <ele>810.2</ele>
        <time>2026-03-19T12:33:13Z</time>
      </trkpt>
      <trkpt lat="48.19427" lon="7.2201">
        <ele>810</ele>
        <time>2026-03-19T12:33:18Z</time>
      </trkpt>
      <trkpt lat="48.19429" lon="7.2201">
        <ele>809.7</ele>
        <time>2026-03-19T12:33:23Z</time>
      </trkpt>
      <trkpt lat="48.19429" lon="7.2201">
        <ele>809.7</ele>
        <time>2026-03-19T12:33:28Z</time>
      </trkpt>
      <trkpt lat="48.19429" lon="7.2201">
        <ele>809.7</ele>
        <time>2026-03-19T12:33:33Z</time>
      </trkpt>
      <trkpt lat="48.19429" lon="7.2201">
        <ele>809.7</ele>
        <time>2026-03-19T12:33:38Z</time>
      </trkpt>
      <trkpt lat="48.19429" lon="7.2201">
        <ele>809.7</ele>
        <time>2026-03-19T12:33:43Z</time>
      </trkpt>
      <trkpt lat="48.19429" lon="7.2201">
        <ele>809.7</ele>
        <time>2026-03-19T12:33:48Z</time>
      </trkpt>
      <trkpt lat="48.19429" lon="7.2201">
        <ele>809.7</ele>
        <time>2026-03-19T12:33:53Z</time>
      </trkpt>
      <trkpt lat="48.19429" lon="7.2201">
        <ele>809.7</ele>
        <time>2026-03-19T12:33:58Z</time>
      </trkpt>
      <trkpt lat="48.19429" lon="7.2201">
        <ele>809.7</ele>
        <time>2026-03-19T12:34:03Z</time>
      </trkpt>
      <trkpt lat="48.19429" lon="7.2201">
        <ele>809.7</ele>
        <time>2026-03-19T12:34:08Z</time>
      </trkpt>
      <trkpt lat="48.19429" lon="7.2201">
        <ele>809.7</ele>
        <time>2026-03-19T12:34:13Z</time>
      </trkpt>
      <trkpt lat="48.19429" lon="7.2201">
        <ele>809.7</ele>
        <time>2026-03-19T12:34:18Z</time>
      </trkpt>
      <trkpt lat="48.19429" lon="7.2201">
        <ele>809.7</ele>
        <time>2026-03-19T12:34:23Z</time>
      </trkpt>
      <trkpt lat="48.19429" lon="7.2201">
        <ele>809.7</ele>
        <time>2026-03-19T12:34:28Z</time>
      </trkpt>
      <trkpt lat="48.19429" lon="7.2201">
        <ele>809.7</ele>
        <time>2026-03-19T12:34:33Z</time>
      </trkpt>
      <trkpt lat="48.19429" lon="7.2201">
        <ele>809.7</ele>
        <time>2026-03-19T12:34:38Z</time>
      </trkpt>
      <trkpt lat="48.19429" lon="7.2201">
        <ele>809.7</ele>
        <time>2026-03-19T12:34:43Z</time>
      </trkpt>
      <trkpt lat="48.19429" lon="7.2201">
        <ele>809.7</ele>
        <time>2026-03-19T12:34:48Z</time>
      </trkpt>
      <trkpt lat="48.19429" lon="7.2201">
        <ele>809.7</ele>
        <time>2026-03-19T12:34:53Z</time>
      </trkpt>
      <trkpt lat="48.19429" lon="7.2201">
        <ele>809.7</ele>
        <time>2026-03-19T12:34:58Z</time>
      </trkpt>
      <trkpt lat="48.19429" lon="7.2201">
        <ele>809.7</ele>
        <time>2026-03-19T12:35:03Z</time>
      </trkpt>
      <trkpt lat="48.19429" lon="7.2201">
        <ele>809.7</ele>
        <time>2026-03-19T12:35:08Z</time>
      </trkpt>
      <trkpt lat="48.19429" lon="7.2201">
        <ele>809.7</ele>
        <time>2026-03-19T12:35:13Z</time>
      </trkpt>
      <trkpt lat="48.19429" lon="7.2201">
        <ele>809.7</ele>
        <time>2026-03-19T12:35:18Z</time>
      </trkpt>
      <trkpt lat="48.19429" lon="7.2201">
        <ele>809.7</ele>
        <time>2026-03-19T12:35:23Z</time>
      </trkpt>
      <trkpt lat="48.19429" lon="7.2201">
        <ele>809.7</ele>
        <time>2026-03-19T12:35:28Z</time>
      </trkpt>
      <trkpt lat="48.19429" lon="7.2201">
        <ele>809.7</ele>
        <time>2026-03-19T12:35:33Z</time>
      </trkpt>
      <trkpt lat="48.19429" lon="7.2201">
        <ele>809.7</ele>
        <time>2026-03-19T12:35:38Z</time>
      </trkpt>
      <trkpt lat="48.19429" lon="7.2201">
        <ele>809.7</ele>
        <time>2026-03-19T12:35:43Z</time>
      </trkpt>
      <trkpt lat="48.19429" lon="7.2201">
        <ele>809.7</ele>
        <time>2026-03-19T12:35:48Z</time>
      </trkpt>
      <trkpt lat="48.19429" lon="7.2201">
        <ele>809.7</ele>
        <time>2026-03-19T12:35:53Z</time>
      </trkpt>
      <trkpt lat="48.19429" lon="7.2201">
        <ele>809.7</ele>
        <time>2026-03-19T12:35:58Z</time>
      </trkpt>
      <trkpt lat="48.19429" lon="7.2201">
        <ele>809.7</ele>
        <time>2026-03-19T12:36:03Z</time>
      </trkpt>
      <trkpt lat="48.19429" lon="7.2201">
        <ele>809.7</ele>
        <time>2026-03-19T12:36:08Z</time>
      </trkpt>
      <trkpt lat="48.19429" lon="7.2201">
        <ele>809.7</ele>
        <time>2026-03-19T12:36:13Z</time>
      </trkpt>
      <trkpt lat="48.19429" lon="7.2201">
        <ele>809.7</ele>
        <time>2026-03-19T12:36:18Z</time>
      </trkpt>
      <trkpt lat="48.19429" lon="7.2201">
        <ele>809.7</ele>
        <time>2026-03-19T12:36:23Z</time>
      </trkpt>
      <trkpt lat="48.19429" lon="7.2201">
        <ele>809.7</ele>
        <time>2026-03-19T12:36:28Z</time>
      </trkpt>
      <trkpt lat="48.19429" lon="7.2201">
        <ele>809.7</ele>
        <time>2026-03-19T12:36:33Z</time>
      </trkpt>
      <trkpt lat="48.19429" lon="7.2201">
        <ele>809.7</ele>
        <time>2026-03-19T12:36:38Z</time>
      </trkpt>
      <trkpt lat="48.19429" lon="7.2201">
        <ele>809.7</ele>
        <time>2026-03-19T12:36:43Z</time>
      </trkpt>
      <trkpt lat="48.19429" lon="7.2201">
        <ele>809.7</ele>
        <time>2026-03-19T12:36:48Z</time>
      </trkpt>
      <trkpt lat="48.19429" lon="7.2201">
        <ele>809.7</ele>
        <time>2026-03-19T12:36:53Z</time>
      </trkpt>
      <trkpt lat="48.19429" lon="7.2201">
        <ele>809.7</ele>
        <time>2026-03-19T12:36:58Z</time>
      </trkpt>
      <trkpt lat="48.19429" lon="7.2201">
        <ele>809.7</ele>
        <time>2026-03-19T12:37:03Z</time>
      </trkpt>
      <trkpt lat="48.19429" lon="7.2201">
        <ele>809.7</ele>
        <time>2026-03-19T12:37:08Z</time>
      </trkpt>
      <trkpt lat="48.19429" lon="7.2201">
        <ele>809.7</ele>
        <time>2026-03-19T12:37:13Z</time>
      </trkpt>
      <trkpt lat="48.19429" lon="7.2201">
        <ele>809.7</ele>
        <time>2026-03-19T12:37:18Z</time>
      </trkpt>
      <trkpt lat="48.19429" lon="7.2201">
        <ele>809.7</ele>
        <time>2026-03-19T12:37:23Z</time>
      </trkpt>
      <trkpt lat="48.19429" lon="7.2201">
        <ele>809.7</ele>
        <time>2026-03-19T12:37:28Z</time>
      </trkpt>
      <trkpt lat="48.19429" lon="7.2201">
        <ele>809.7</ele>
        <time>2026-03-19T12:37:33Z</time>
      </trkpt>
      <trkpt lat="48.19429" lon="7.2201">
        <ele>809.7</ele>
        <time>2026-03-19T12:37:38Z</time>
      </trkpt>
      <trkpt lat="48.19429" lon="7.2201">
        <ele>809.7</ele>
        <time>2026-03-19T12:37:43Z</time>
      </trkpt>
      <trkpt lat="48.19429" lon="7.2201">
        <ele>809.7</ele>
        <time>2026-03-19T12:37:48Z</time>
      </trkpt>
      <trkpt lat="48.19429" lon="7.2201">
        <ele>809.7</ele>
        <time>2026-03-19T12:37:53Z</time>
      </trkpt>
      <trkpt lat="48.19429" lon="7.2201">
        <ele>809.7</ele>
        <time>2026-03-19T12:37:58Z</time>
      </trkpt>
      <trkpt lat="48.19429" lon="7.2201">
        <ele>809.7</ele>
        <time>2026-03-19T12:38:03Z</time>
      </trkpt>
      <trkpt lat="48.19429" lon="7.2201">
        <ele>809.7</ele>
        <time>2026-03-19T12:38:08Z</time>
      </trkpt>
      <trkpt lat="48.19429" lon="7.2201">
        <ele>809.7</ele>
        <time>2026-03-19T12:38:13Z</time>
      </trkpt>
      <trkpt lat="48.19429" lon="7.2201">
        <ele>809.7</ele>
        <time>2026-03-19T12:38:18Z</time>
      </trkpt>
      <trkpt lat="48.19429" lon="7.2201">
        <ele>809.7</ele>
        <time>2026-03-19T12:38:23Z</time>
      </trkpt>
      <trkpt lat="48.19429" lon="7.2201">
        <ele>809.7</ele>
        <time>2026-03-19T12:38:28Z</time>
      </trkpt>
      <trkpt lat="48.19429" lon="7.2201">
        <ele>809.7</ele>
        <time>2026-03-19T12:38:33Z</time>
      </trkpt>
      <trkpt lat="48.19429" lon="7.2201">
        <ele>809.7</ele>
        <time>2026-03-19T12:38:38Z</time>
      </trkpt>
      <trkpt lat="48.19429" lon="7.2201">
        <ele>809.7</ele>
        <time>2026-03-19T12:38:43Z</time>
      </trkpt>
      <trkpt lat="48.19429" lon="7.2201">
        <ele>809.7</ele>
        <time>2026-03-19T12:38:48Z</time>
      </trkpt>
      <trkpt lat="48.19429" lon="7.2201">
        <ele>809.7</ele>
        <time>2026-03-19T12:38:53Z</time>
      </trkpt>
      <trkpt lat="48.19429" lon="7.2201">
        <ele>809.7</ele>
        <time>2026-03-19T12:38:58Z</time>
      </trkpt>
      <trkpt lat="48.19429" lon="7.2201">
        <ele>809.7</ele>
        <time>2026-03-19T12:39:03Z</time>
      </trkpt>
      <trkpt lat="48.19429" lon="7.2201">
        <ele>809.7</ele>
        <time>2026-03-19T12:39:08Z</time>
      </trkpt>
      <trkpt lat="48.19429" lon="7.2201">
        <ele>809.7</ele>
        <time>2026-03-19T12:39:13Z</time>
      </trkpt>
      <trkpt lat="48.19429" lon="7.2201">
        <ele>809.7</ele>
        <time>2026-03-19T12:39:18Z</time>
      </trkpt>
      <trkpt lat="48.19429" lon="7.2201">
        <ele>809.7</ele>
        <time>2026-03-19T12:39:23Z</time>
      </trkpt>
      <trkpt lat="48.19429" lon="7.2201">
        <ele>809.7</ele>
        <time>2026-03-19T12:39:28Z</time>
      </trkpt>
      <trkpt lat="48.19429" lon="7.2201">
        <ele>809.7</ele>
        <time>2026-03-19T12:39:33Z</time>
      </trkpt>
      <trkpt lat="48.19429" lon="7.2201">
        <ele>809.7</ele>
        <time>2026-03-19T12:39:38Z</time>
      </trkpt>
      <trkpt lat="48.19429" lon="7.2201">
        <ele>809.7</ele>
        <time>2026-03-19T12:39:43Z</time>
      </trkpt>
      <trkpt lat="48.19429" lon="7.2201">
        <ele>809.7</ele>
        <time>2026-03-19T12:39:48Z</time>
      </trkpt>
      <trkpt lat="48.19429" lon="7.2201">
        <ele>809.7</ele>
        <time>2026-03-19T12:39:53Z</time>
      </trkpt>
      <trkpt lat="48.19429" lon="7.2201">
        <ele>809.7</ele>
        <time>2026-03-19T12:39:58Z</time>
      </trkpt>
      <trkpt lat="48.19429" lon="7.2201">
        <ele>809.7</ele>
        <time>2026-03-19T12:40:03Z</time>
      </trkpt>
      <trkpt lat="48.19429" lon="7.2201">
        <ele>809.7</ele>
        <time>2026-03-19T12:40:08Z</time>
      </trkpt>
      <trkpt lat="48.19429" lon="7.2201">
        <ele>809.7</ele>
        <time>2026-03-19T12:40:13Z</time>
      </trkpt>
      <trkpt lat="48.19429" lon="7.2201">
        <ele>809.7</ele>
        <time>2026-03-19T12:40:18Z</time>
      </trkpt>
      <trkpt lat="48.19429" lon="7.2201">
        <ele>809.7</ele>
        <time>2026-03-19T12:40:23Z</time>
      </trkpt>
      <trkpt lat="48.19429" lon="7.2201">
        <ele>809.7</ele>
        <time>2026-03-19T12:40:28Z</time>
      </trkpt>
      <trkpt lat="48.19429" lon="7.2201">
        <ele>809.7</ele>
        <time>2026-03-19T12:40:33Z</time>
      </trkpt>
      <trkpt lat="48.19429" lon="7.2201">
        <ele>809.7</ele>
        <time>2026-03-19T12:40:38Z</time>
      </trkpt>
      <trkpt lat="48.19429" lon="7.2201">
        <ele>809.7</ele>
        <time>2026-03-19T12:40:43Z</time>
      </trkpt>
      <trkpt lat="48.19429" lon="7.2201">
        <ele>809.7</ele>
        <time>2026-03-19T12:40:48Z</time>
      </trkpt>
      <trkpt lat="48.19429" lon="7.2201">
        <ele>809.7</ele>
        <time>2026-03-19T12:40:53Z</time>
      </trkpt>
      <trkpt lat="48.19429" lon="7.2201">
        <ele>809.7</ele>
        <time>2026-03-19T12:40:58Z</time>
      </trkpt>
      <trkpt lat="48.19429" lon="7.2201">
        <ele>809.7</ele>
        <time>2026-03-19T12:41:03Z</time>
      </trkpt>
      <trkpt lat="48.19429" lon="7.2201">
        <ele>809.7</ele>
        <time>2026-03-19T12:41:08Z</time>
      </trkpt>
      <trkpt lat="48.19429" lon="7.2201">
        <ele>809.7</ele>
        <time>2026-03-19T12:41:13Z</time>
      </trkpt>
      <trkpt lat="48.19429" lon="7.2201">
        <ele>809.7</ele>
        <time>2026-03-19T12:41:18Z</time>
      </trkpt>
      <trkpt lat="48.19429" lon="7.2201">
        <ele>809.7</ele>
        <time>2026-03-19T12:41:23Z</time>
      </trkpt>
      <trkpt lat="48.19429" lon="7.2201">
        <ele>809.7</ele>
        <time>2026-03-19T12:41:28Z</time>
      </trkpt>
      <trkpt lat="48.19429" lon="7.2201">
        <ele>809.7</ele>
        <time>2026-03-19T12:41:33Z</time>
      </trkpt>
      <trkpt lat="48.19429" lon="7.2201">
        <ele>809.7</ele>
        <time>2026-03-19T12:41:38Z</time>
      </trkpt>
      <trkpt lat="48.19429" lon="7.2201">
        <ele>809.7</ele>
        <time>2026-03-19T12:41:43Z</time>
      </trkpt>
      <trkpt lat="48.19429" lon="7.2201">
        <ele>809.7</ele>
        <time>2026-03-19T12:41:48Z</time>
      </trkpt>
      <trkpt lat="48.19429" lon="7.2201">
        <ele>809.7</ele>
        <time>2026-03-19T12:41:53Z</time>
      </trkpt>
      <trkpt lat="48.19429" lon="7.2201">
        <ele>809.7</ele>
        <time>2026-03-19T12:41:58Z</time>
      </trkpt>
      <trkpt lat="48.19429" lon="7.2201">
        <ele>809.7</ele>
        <time>2026-03-19T12:42:03Z</time>
      </trkpt>
      <trkpt lat="48.19429" lon="7.2201">
        <ele>809.7</ele>
        <time>2026-03-19T12:42:08Z</time>
      </trkpt>
      <trkpt lat="48.19429" lon="7.2201">
        <ele>809.7</ele>
        <time>2026-03-19T12:42:13Z</time>
      </trkpt>
      <trkpt lat="48.19429" lon="7.2201">
        <ele>809.7</ele>
        <time>2026-03-19T12:42:18Z</time>
      </trkpt>
      <trkpt lat="48.19429" lon="7.2201">
        <ele>809.7</ele>
        <time>2026-03-19T12:42:23Z</time>
      </trkpt>
      <trkpt lat="48.19429" lon="7.2201">
        <ele>809.7</ele>
        <time>2026-03-19T12:42:28Z</time>
      </trkpt>
      <trkpt lat="48.19429" lon="7.2201">
        <ele>809.7</ele>
        <time>2026-03-19T12:42:33Z</time>
      </trkpt>
      <trkpt lat="48.19429" lon="7.2201">
        <ele>809.7</ele>
        <time>2026-03-19T12:42:38Z</time>
      </trkpt>
      <trkpt lat="48.19429" lon="7.2201">
        <ele>809.7</ele>
        <time>2026-03-19T12:42:43Z</time>
      </trkpt>
      <trkpt lat="48.19429" lon="7.2201">
        <ele>809.7</ele>
        <time>2026-03-19T12:42:48Z</time>
      </trkpt>
      <trkpt lat="48.19429" lon="7.2201">
        <ele>809.7</ele>
        <time>2026-03-19T12:42:53Z</time>
      </trkpt>
      <trkpt lat="48.19429" lon="7.2201">
        <ele>809.7</ele>
        <time>2026-03-19T12:42:58Z</time>
      </trkpt>
      <trkpt lat="48.19429" lon="7.2201">
        <ele>809.7</ele>
        <time>2026-03-19T12:43:03Z</time>
      </trkpt>
      <trkpt lat="48.19429" lon="7.2201">
        <ele>809.7</ele>
        <time>2026-03-19T12:43:08Z</time>
      </trkpt>
      <trkpt lat="48.19429" lon="7.2201">
        <ele>809.7</ele>
        <time>2026-03-19T12:43:13Z</time>
      </trkpt>
      <trkpt lat="48.19429" lon="7.2201">
        <ele>809.7</ele>
        <time>2026-03-19T12:43:18Z</time>
      </trkpt>
      <trkpt lat="48.19429" lon="7.2201">
        <ele>809.7</ele>
        <time>2026-03-19T12:43:23Z</time>
      </trkpt>
      <trkpt lat="48.19429" lon="7.2201">
        <ele>809.7</ele>
        <time>2026-03-19T12:43:28Z</time>
      </trkpt>
      <trkpt lat="48.19429" lon="7.2201">
        <ele>809.7</ele>
        <time>2026-03-19T12:43:33Z</time>
      </trkpt>
      <trkpt lat="48.19429" lon="7.2201">
        <ele>809.7</ele>
        <time>2026-03-19T12:43:38Z</time>
      </trkpt>
      <trkpt lat="48.19429" lon="7.2201">
        <ele>809.7</ele>
        <time>2026-03-19T12:43:43Z</time>
      </trkpt>
      <trkpt lat="48.19429" lon="7.2201">
        <ele>809.7</ele>
        <time>2026-03-19T12:43:48Z</time>
      </trkpt>
      <trkpt lat="48.19429" lon="7.2201">
        <ele>809.7</ele>
        <time>2026-03-19T12:43:53Z</time>
      </trkpt>
      <trkpt lat="48.19429" lon="7.2201">
        <ele>809.7</ele>
        <time>2026-03-19T12:43:58Z</time>
      </trkpt>
      <trkpt lat="48.19429" lon="7.2201">
        <ele>809.7</ele>
        <time>2026-03-19T12:44:03Z</time>
      </trkpt>
      <trkpt lat="48.19429" lon="7.2201">
        <ele>809.7</ele>
        <time>2026-03-19T12:44:08Z</time>
      </trkpt>
      <trkpt lat="48.19429" lon="7.2201">
        <ele>809.7</ele>
        <time>2026-03-19T12:44:13Z</time>
      </trkpt>
      <trkpt lat="48.19429" lon="7.2201">
        <ele>809.7</ele>
        <time>2026-03-19T12:44:18Z</time>
      </trkpt>
      <trkpt lat="48.19429" lon="7.2201">
        <ele>809.7</ele>
        <time>2026-03-19T12:44:23Z</time>
      </trkpt>
      <trkpt lat="48.19429" lon="7.2201">
        <ele>809.7</ele>
        <time>2026-03-19T12:44:28Z</time>
      </trkpt>
      <trkpt lat="48.19429" lon="7.2201">
        <ele>809.7</ele>
        <time>2026-03-19T12:44:33Z</time>
      </trkpt>
      <trkpt lat="48.19429" lon="7.2201">
        <ele>809.7</ele>
        <time>2026-03-19T12:44:38Z</time>
      </trkpt>
      <trkpt lat="48.19429" lon="7.2201">
        <ele>809.7</ele>
        <time>2026-03-19T12:44:43Z</time>
      </trkpt>
      <trkpt lat="48.19429" lon="7.2201">
        <ele>809.7</ele>
        <time>2026-03-19T12:44:48Z</time>
      </trkpt>
      <trkpt lat="48.19429" lon="7.2201">
        <ele>809.7</ele>
        <time>2026-03-19T12:44:53Z</time>
      </trkpt>
      <trkpt lat="48.19429" lon="7.2201">
        <ele>809.7</ele>
        <time>2026-03-19T12:44:58Z</time>
      </trkpt>
      <trkpt lat="48.19429" lon="7.2201">
        <ele>809.7</ele>
        <time>2026-03-19T12:45:03Z</time>
      </trkpt>
      <trkpt lat="48.19429" lon="7.2201">
        <ele>809.7</ele>
        <time>2026-03-19T12:45:08Z</time>
      </trkpt>
      <trkpt lat="48.19429" lon="7.2201">
        <ele>809.7</ele>
        <time>2026-03-19T12:45:13Z</time>
      </trkpt>
      <trkpt lat="48.19429" lon="7.2201">
        <ele>809.7</ele>
        <time>2026-03-19T12:45:18Z</time>
      </trkpt>
      <trkpt lat="48.19429" lon="7.2201">
        <ele>809.7</ele>
        <time>2026-03-19T12:45:23Z</time>
      </trkpt>
      <trkpt lat="48.19429" lon="7.2201">
        <ele>809.7</ele>
        <time>2026-03-19T12:45:28Z</time>
      </trkpt>
      <trkpt lat="48.19429" lon="7.2201">
        <ele>809.7</ele>
        <time>2026-03-19T12:45:33Z</time>
      </trkpt>
      <trkpt lat="48.19429" lon="7.2201">
        <ele>809.7</ele>
        <time>2026-03-19T12:45:38Z</time>
      </trkpt>
      <trkpt lat="48.19429" lon="7.2201">
        <ele>809.7</ele>
        <time>2026-03-19T12:45:43Z</time>
      </trkpt>
      <trkpt lat="48.19429" lon="7.2201">
        <ele>809.7</ele>
        <time>2026-03-19T12:45:48Z</time>
      </trkpt>
      <trkpt lat="48.19429" lon="7.2201">
        <ele>809.7</ele>
        <time>2026-03-19T12:45:53Z</time>
      </trkpt>
      <trkpt lat="48.19429" lon="7.2201">
        <ele>809.7</ele>
        <time>2026-03-19T12:45:58Z</time>
      </trkpt>
      <trkpt lat="48.19429" lon="7.2201">
        <ele>809.7</ele>
        <time>2026-03-19T12:46:03Z</time>
      </trkpt>
      <trkpt lat="48.19429" lon="7.2201">
        <ele>809.7</ele>
        <time>2026-03-19T12:46:08Z</time>
      </trkpt>
      <trkpt lat="48.19429" lon="7.2201">
        <ele>809.7</ele>
        <time>2026-03-19T12:46:13Z</time>
      </trkpt>
      <trkpt lat="48.19429" lon="7.2201">
        <ele>809.7</ele>
        <time>2026-03-19T12:46:18Z</time>
      </trkpt>
      <trkpt lat="48.19429" lon="7.2201">
        <ele>809.7</ele>
        <time>2026-03-19T12:46:23Z</time>
      </trkpt>
      <trkpt lat="48.19429" lon="7.2201">
        <ele>809.7</ele>
        <time>2026-03-19T12:46:28Z</time>
      </trkpt>
      <trkpt lat="48.19429" lon="7.2201">
        <ele>809.7</ele>
        <time>2026-03-19T12:46:33Z</time>
      </trkpt>
      <trkpt lat="48.19429" lon="7.2201">
        <ele>809.7</ele>
        <time>2026-03-19T12:46:38Z</time>
      </trkpt>
      <trkpt lat="48.19429" lon="7.2201">
        <ele>809.7</ele>
        <time>2026-03-19T12:46:43Z</time>
      </trkpt>
      <trkpt lat="48.19429" lon="7.2201">
        <ele>809.7</ele>
        <time>2026-03-19T12:46:48Z</time>
      </trkpt>
      <trkpt lat="48.19429" lon="7.2201">
        <ele>809.7</ele>
        <time>2026-03-19T12:46:53Z</time>
      </trkpt>
      <trkpt lat="48.19429" lon="7.2201">
        <ele>809.7</ele>
        <time>2026-03-19T12:46:58Z</time>
      </trkpt>
      <trkpt lat="48.19429" lon="7.2201">
        <ele>809.7</ele>
        <time>2026-03-19T12:47:03Z</time>
      </trkpt>
      <trkpt lat="48.19429" lon="7.2201">
        <ele>809.7</ele>
        <time>2026-03-19T12:47:08Z</time>
      </trkpt>
      <trkpt lat="48.19429" lon="7.2201">
        <ele>809.7</ele>
        <time>2026-03-19T12:47:13Z</time>
      </trkpt>
      <trkpt lat="48.19429" lon="7.2201">
        <ele>809.7</ele>
        <time>2026-03-19T12:47:18Z</time>
      </trkpt>
      <trkpt lat="48.19429" lon="7.2201">
        <ele>809.7</ele>
        <time>2026-03-19T12:47:23Z</time>
      </trkpt>
      <trkpt lat="48.19429" lon="7.2201">
        <ele>809.7</ele>
        <time>2026-03-19T12:47:28Z</time>
      </trkpt>
      <trkpt lat="48.19429" lon="7.2201">
        <ele>809.7</ele>
        <time>2026-03-19T12:47:33Z</time>
      </trkpt>
      <trkpt lat="48.19429" lon="7.2201">
        <ele>809.7</ele>
        <time>2026-03-19T12:47:38Z</time>
      </trkpt>
      <trkpt lat="48.19429" lon="7.2201">
        <ele>809.7</ele>
        <time>2026-03-19T12:47:43Z</time>
      </trkpt>
      <trkpt lat="48.19429" lon="7.2201">
        <ele>809.7</ele>
        <time>2026-03-19T12:47:48Z</time>
      </trkpt>
      <trkpt lat="48.19429" lon="7.2201">
        <ele>809.7</ele>
        <time>2026-03-19T12:47:53Z</time>
      </trkpt>
      <trkpt lat="48.19429" lon="7.2201">
        <ele>809.7</ele>
        <time>2026-03-19T12:47:58Z</time>
      </trkpt>
      <trkpt lat="48.19429" lon="7.2201">
        <ele>809.7</ele>
        <time>2026-03-19T12:48:03Z</time>
      </trkpt>
      <trkpt lat="48.19429" lon="7.2201">
        <ele>809.7</ele>
        <time>2026-03-19T12:48:08Z</time>
      </trkpt>
      <trkpt lat="48.19429" lon="7.2201">
        <ele>809.7</ele>
        <time>2026-03-19T12:48:13Z</time>
      </trkpt>
      <trkpt lat="48.19429" lon="7.2201">
        <ele>809.7</ele>
        <time>2026-03-19T12:48:18Z</time>
      </trkpt>
      <trkpt lat="48.19429" lon="7.2201">
        <ele>809.7</ele>
        <time>2026-03-19T12:48:23Z</time>
      </trkpt>
      <trkpt lat="48.19429" lon="7.2201">
        <ele>809.7</ele>
        <time>2026-03-19T12:48:28Z</time>
      </trkpt>
      <trkpt lat="48.19429" lon="7.2201">
        <ele>809.7</ele>
        <time>2026-03-19T12:48:33Z</time>
      </trkpt>
      <trkpt lat="48.19429" lon="7.2201">
        <ele>809.7</ele>
        <time>2026-03-19T12:48:38Z</time>
      </trkpt>
      <trkpt lat="48.19429" lon="7.2201">
        <ele>809.7</ele>
        <time>2026-03-19T12:48:43Z</time>
      </trkpt>
      <trkpt lat="48.19429" lon="7.2201">
        <ele>809.7</ele>
        <time>2026-03-19T12:48:48Z</time>
      </trkpt>
      <trkpt lat="48.19429" lon="7.2201">
        <ele>809.7</ele>
        <time>2026-03-19T12:48:53Z</time>
      </trkpt>
      <trkpt lat="48.19429" lon="7.2201">
        <ele>809.7</ele>
        <time>2026-03-19T12:48:58Z</time>
      </trkpt>
      <trkpt lat="48.19429" lon="7.2201">
        <ele>809.7</ele>
        <time>2026-03-19T12:49:03Z</time>
      </trkpt>
      <trkpt lat="48.19429" lon="7.2201">
        <ele>809.7</ele>
        <time>2026-03-19T12:49:08Z</time>
      </trkpt>
      <trkpt lat="48.19429" lon="7.2201">
        <ele>809.7</ele>
        <time>2026-03-19T12:49:13Z</time>
      </trkpt>
      <trkpt lat="48.19429" lon="7.2201">
        <ele>809.7</ele>
        <time>2026-03-19T12:49:18Z</time>
      </trkpt>
      <trkpt lat="48.19429" lon="7.2201">
        <ele>809.7</ele>
        <time>2026-03-19T12:49:23Z</time>
      </trkpt>
      <trkpt lat="48.19437" lon="7.22009">
        <ele>808.7</ele>
        <time>2026-03-19T12:49:28Z</time>
      </trkpt>
      <trkpt lat="48.19444" lon="7.2201">
        <ele>807.7</ele>
        <time>2026-03-19T12:49:33Z</time>
      </trkpt>
      <trkpt lat="48.19448" lon="7.22015">
        <ele>806.8</ele>
        <time>2026-03-19T12:49:38Z</time>
      </trkpt>
      <trkpt lat="48.19455" lon="7.22018">
        <ele>805.7</ele>
        <time>2026-03-19T12:49:43Z</time>
      </trkpt>
      <trkpt lat="48.1946" lon="7.22025">
        <ele>804.5</ele>
        <time>2026-03-19T12:49:48Z</time>
      </trkpt>
      <trkpt lat="48.19466" lon="7.22032">
        <ele>803.1</ele>
        <time>2026-03-19T12:49:53Z</time>
      </trkpt>
      <trkpt lat="48.19472" lon="7.22038">
        <ele>801.8</ele>
        <time>2026-03-19T12:49:58Z</time>
      </trkpt>
      <trkpt lat="48.19477" lon="7.22041">
        <ele>800.9</ele>
        <time>2026-03-19T12:50:03Z</time>
      </trkpt>
      <trkpt lat="48.19482" lon="7.22045">
        <ele>799.8</ele>
        <time>2026-03-19T12:50:08Z</time>
      </trkpt>
      <trkpt lat="48.19488" lon="7.2205">
        <ele>798.6</ele>
        <time>2026-03-19T12:50:13Z</time>
      </trkpt>
      <trkpt lat="48.19493" lon="7.22057">
        <ele>797.3</ele>
        <time>2026-03-19T12:50:18Z</time>
      </trkpt>
      <trkpt lat="48.19498" lon="7.22063">
        <ele>796</ele>
        <time>2026-03-19T12:50:23Z</time>
      </trkpt>
      <trkpt lat="48.19503" lon="7.22069">
        <ele>795.5</ele>
        <time>2026-03-19T12:50:28Z</time>
      </trkpt>
      <trkpt lat="48.19508" lon="7.22076">
        <ele>795.4</ele>
        <time>2026-03-19T12:50:33Z</time>
      </trkpt>
      <trkpt lat="48.19514" lon="7.22083">
        <ele>795.5</ele>
        <time>2026-03-19T12:50:38Z</time>
      </trkpt>
      <trkpt lat="48.19519" lon="7.22089">
        <ele>795.5</ele>
        <time>2026-03-19T12:50:43Z</time>
      </trkpt>
      <trkpt lat="48.19525" lon="7.22097">
        <ele>795.4</ele>
        <time>2026-03-19T12:50:48Z</time>
      </trkpt>
      <trkpt lat="48.19531" lon="7.22102">
        <ele>795.7</ele>
        <time>2026-03-19T12:50:53Z</time>
      </trkpt>
      <trkpt lat="48.19537" lon="7.22109">
        <ele>795.9</ele>
        <time>2026-03-19T12:50:58Z</time>
      </trkpt>
      <trkpt lat="48.19542" lon="7.22116">
        <ele>796</ele>
        <time>2026-03-19T12:51:03Z</time>
      </trkpt>
      <trkpt lat="48.19546" lon="7.22121">
        <ele>796.2</ele>
        <time>2026-03-19T12:51:08Z</time>
      </trkpt>
      <trkpt lat="48.19552" lon="7.22127">
        <ele>796.7</ele>
        <time>2026-03-19T12:51:13Z</time>
      </trkpt>
      <trkpt lat="48.19557" lon="7.22133">
        <ele>797</ele>
        <time>2026-03-19T12:51:18Z</time>
      </trkpt>
      <trkpt lat="48.19561" lon="7.22138">
        <ele>797.4</ele>
        <time>2026-03-19T12:51:23Z</time>
      </trkpt>
      <trkpt lat="48.19566" lon="7.22144">
        <ele>797.9</ele>
        <time>2026-03-19T12:51:28Z</time>
      </trkpt>
      <trkpt lat="48.19571" lon="7.2215">
        <ele>798.4</ele>
        <time>2026-03-19T12:51:33Z</time>
      </trkpt>
      <trkpt lat="48.19576" lon="7.22156">
        <ele>799.1</ele>
        <time>2026-03-19T12:51:38Z</time>
      </trkpt>
      <trkpt lat="48.19582" lon="7.22161">
        <ele>800</ele>
        <time>2026-03-19T12:51:43Z</time>
      </trkpt>
      <trkpt lat="48.19586" lon="7.2217">
        <ele>799.6</ele>
        <time>2026-03-19T12:51:48Z</time>
      </trkpt>
      <trkpt lat="48.19589" lon="7.22177">
        <ele>798.6</ele>
        <time>2026-03-19T12:51:53Z</time>
      </trkpt>
      <trkpt lat="48.19595" lon="7.22183">
        <ele>798</ele>
        <time>2026-03-19T12:51:58Z</time>
      </trkpt>
      <trkpt lat="48.19599" lon="7.22189">
        <ele>797.3</ele>
        <time>2026-03-19T12:52:03Z</time>
      </trkpt>
      <trkpt lat="48.19603" lon="7.22194">
        <ele>796.8</ele>
        <time>2026-03-19T12:52:08Z</time>
      </trkpt>
      <trkpt lat="48.19609" lon="7.22201">
        <ele>796.1</ele>
        <time>2026-03-19T12:52:13Z</time>
      </trkpt>
      <trkpt lat="48.19612" lon="7.22205">
        <ele>795.8</ele>
        <time>2026-03-19T12:52:18Z</time>
      </trkpt>
      <trkpt lat="48.19618" lon="7.22209">
        <ele>795.6</ele>
        <time>2026-03-19T12:52:23Z</time>
      </trkpt>
      <trkpt lat="48.19623" lon="7.22213">
        <ele>795.4</ele>
        <time>2026-03-19T12:52:28Z</time>
      </trkpt>
      <trkpt lat="48.19628" lon="7.22218">
        <ele>795.1</ele>
        <time>2026-03-19T12:52:33Z</time>
      </trkpt>
      <trkpt lat="48.19634" lon="7.22219">
        <ele>795.4</ele>
        <time>2026-03-19T12:52:38Z</time>
      </trkpt>
      <trkpt lat="48.19641" lon="7.22219">
        <ele>795.8</ele>
        <time>2026-03-19T12:52:43Z</time>
      </trkpt>
      <trkpt lat="48.19646" lon="7.22213">
        <ele>796.6</ele>
        <time>2026-03-19T12:52:48Z</time>
      </trkpt>
      <trkpt lat="48.19652" lon="7.22209">
        <ele>797.2</ele>
        <time>2026-03-19T12:52:53Z</time>
      </trkpt>
      <trkpt lat="48.19659" lon="7.22206">
        <ele>797.8</ele>
        <time>2026-03-19T12:52:58Z</time>
      </trkpt>
      <trkpt lat="48.19665" lon="7.22203">
        <ele>798.3</ele>
        <time>2026-03-19T12:53:03Z</time>
      </trkpt>
      <trkpt lat="48.19671" lon="7.22199">
        <ele>798.7</ele>
        <time>2026-03-19T12:53:08Z</time>
      </trkpt>
      <trkpt lat="48.19679" lon="7.22195">
        <ele>799</ele>
        <time>2026-03-19T12:53:13Z</time>
      </trkpt>
      <trkpt lat="48.19685" lon="7.2219">
        <ele>799.3</ele>
        <time>2026-03-19T12:53:18Z</time>
      </trkpt>
      <trkpt lat="48.19691" lon="7.22187">
        <ele>799.5</ele>
        <time>2026-03-19T12:53:23Z</time>
      </trkpt>
      <trkpt lat="48.19695" lon="7.22184">
        <ele>799.6</ele>
        <time>2026-03-19T12:53:28Z</time>
      </trkpt>
      <trkpt lat="48.19699" lon="7.2218">
        <ele>799.8</ele>
        <time>2026-03-19T12:53:33Z</time>
      </trkpt>
      <trkpt lat="48.19705" lon="7.2218">
        <ele>799.8</ele>
        <time>2026-03-19T12:53:38Z</time>
      </trkpt>
      <trkpt lat="48.19712" lon="7.22179">
        <ele>799.8</ele>
        <time>2026-03-19T12:53:43Z</time>
      </trkpt>
      <trkpt lat="48.1972" lon="7.2218">
        <ele>799.7</ele>
        <time>2026-03-19T12:53:48Z</time>
      </trkpt>
      <trkpt lat="48.1973" lon="7.22173">
        <ele>800</ele>
        <time>2026-03-19T12:53:53Z</time>
      </trkpt>
      <trkpt lat="48.19737" lon="7.22167">
        <ele>800.1</ele>
        <time>2026-03-19T12:53:58Z</time>
      </trkpt>
      <trkpt lat="48.19742" lon="7.22161">
        <ele>800.4</ele>
        <time>2026-03-19T12:54:03Z</time>
      </trkpt>
      <trkpt lat="48.19748" lon="7.22153">
        <ele>800.8</ele>
        <time>2026-03-19T12:54:08Z</time>
      </trkpt>
      <trkpt lat="48.19747" lon="7.22148">
        <ele>801.1</ele>
        <time>2026-03-19T12:54:13Z</time>
      </trkpt>
      <trkpt lat="48.19749" lon="7.22145">
        <ele>801.3</ele>
        <time>2026-03-19T12:54:18Z</time>
      </trkpt>
      <trkpt lat="48.19748" lon="7.22143">
        <ele>801.4</ele>
        <time>2026-03-19T12:54:23Z</time>
      </trkpt>
      <trkpt lat="48.19748" lon="7.22143">
        <ele>801.4</ele>
        <time>2026-03-19T12:54:28Z</time>
      </trkpt>
      <trkpt lat="48.19748" lon="7.22143">
        <ele>801.4</ele>
        <time>2026-03-19T12:54:33Z</time>
      </trkpt>
      <trkpt lat="48.19748" lon="7.22134">
        <ele>802</ele>
        <time>2026-03-19T12:54:38Z</time>
      </trkpt>
      <trkpt lat="48.19742" lon="7.22131">
        <ele>802.2</ele>
        <time>2026-03-19T12:54:43Z</time>
      </trkpt>
      <trkpt lat="48.19737" lon="7.22133">
        <ele>802</ele>
        <time>2026-03-19T12:54:48Z</time>
      </trkpt>
      <trkpt lat="48.19733" lon="7.22139">
        <ele>801.7</ele>
        <time>2026-03-19T12:54:53Z</time>
      </trkpt>
      <trkpt lat="48.19729" lon="7.22135">
        <ele>802</ele>
        <time>2026-03-19T12:54:58Z</time>
      </trkpt>
      <trkpt lat="48.19728" lon="7.22131">
        <ele>802.2</ele>
        <time>2026-03-19T12:55:03Z</time>
      </trkpt>
      <trkpt lat="48.19728" lon="7.22131">
        <ele>802.2</ele>
        <time>2026-03-19T12:55:08Z</time>
      </trkpt>
      <trkpt lat="48.19728" lon="7.22131">
        <ele>802.2</ele>
        <time>2026-03-19T12:55:13Z</time>
      </trkpt>
      <trkpt lat="48.19728" lon="7.22131">
        <ele>802.2</ele>
        <time>2026-03-19T12:55:18Z</time>
      </trkpt>
      <trkpt lat="48.19728" lon="7.22118">
        <ele>802.9</ele>
        <time>2026-03-19T12:55:23Z</time>
      </trkpt>
      <trkpt lat="48.19723" lon="7.22116">
        <ele>803</ele>
        <time>2026-03-19T12:55:28Z</time>
      </trkpt>
      <trkpt lat="48.19718" lon="7.22111">
        <ele>803.2</ele>
        <time>2026-03-19T12:55:33Z</time>
      </trkpt>
      <trkpt lat="48.19715" lon="7.22103">
        <ele>803.6</ele>
        <time>2026-03-19T12:55:38Z</time>
      </trkpt>
      <trkpt lat="48.19715" lon="7.22095">
        <ele>804</ele>
        <time>2026-03-19T12:55:43Z</time>
      </trkpt>
      <trkpt lat="48.19716" lon="7.22086">
        <ele>804.5</ele>
        <time>2026-03-19T12:55:48Z</time>
      </trkpt>
      <trkpt lat="48.19716" lon="7.22079">
        <ele>804.8</ele>
        <time>2026-03-19T12:55:53Z</time>
      </trkpt>
      <trkpt lat="48.19715" lon="7.22071">
        <ele>805.1</ele>
        <time>2026-03-19T12:55:58Z</time>
      </trkpt>
      <trkpt lat="48.19716" lon="7.22062">
        <ele>805.6</ele>
        <time>2026-03-19T12:56:03Z</time>
      </trkpt>
      <trkpt lat="48.19716" lon="7.22052">
        <ele>806</ele>
        <time>2026-03-19T12:56:08Z</time>
      </trkpt>
      <trkpt lat="48.19718" lon="7.22043">
        <ele>806.4</ele>
        <time>2026-03-19T12:56:13Z</time>
      </trkpt>
      <trkpt lat="48.19718" lon="7.22033">
        <ele>806.9</ele>
        <time>2026-03-19T12:56:18Z</time>
      </trkpt>
      <trkpt lat="48.19721" lon="7.22023">
        <ele>807.3</ele>
        <time>2026-03-19T12:56:23Z</time>
      </trkpt>
      <trkpt lat="48.19723" lon="7.22013">
        <ele>807.8</ele>
        <time>2026-03-19T12:56:28Z</time>
      </trkpt>
      <trkpt lat="48.19723" lon="7.22001">
        <ele>808.3</ele>
        <time>2026-03-19T12:56:33Z</time>
      </trkpt>
      <trkpt lat="48.19723" lon="7.21994">
        <ele>808.4</ele>
        <time>2026-03-19T12:56:38Z</time>
      </trkpt>
      <trkpt lat="48.19726" lon="7.21984">
        <ele>808.5</ele>
        <time>2026-03-19T12:56:43Z</time>
      </trkpt>
      <trkpt lat="48.19726" lon="7.21972">
        <ele>808.6</ele>
        <time>2026-03-19T12:56:48Z</time>
      </trkpt>
      <trkpt lat="48.19728" lon="7.21962">
        <ele>808.7</ele>
        <time>2026-03-19T12:56:53Z</time>
      </trkpt>
      <trkpt lat="48.19729" lon="7.21954">
        <ele>808.8</ele>
        <time>2026-03-19T12:56:58Z</time>
      </trkpt>
      <trkpt lat="48.19729" lon="7.21944">
        <ele>808.9</ele>
        <time>2026-03-19T12:57:03Z</time>
      </trkpt>
      <trkpt lat="48.19731" lon="7.21936">
        <ele>809</ele>
        <time>2026-03-19T12:57:08Z</time>
      </trkpt>
      <trkpt lat="48.19731" lon="7.21927">
        <ele>809.1</ele>
        <time>2026-03-19T12:57:13Z</time>
      </trkpt>
      <trkpt lat="48.19726" lon="7.21919">
        <ele>809.3</ele>
        <time>2026-03-19T12:57:18Z</time>
      </trkpt>
      <trkpt lat="48.19726" lon="7.21911">
        <ele>809.4</ele>
        <time>2026-03-19T12:57:23Z</time>
      </trkpt>
      <trkpt lat="48.19724" lon="7.21905">
        <ele>809.6</ele>
        <time>2026-03-19T12:57:28Z</time>
      </trkpt>
      <trkpt lat="48.19718" lon="7.21902">
        <ele>809.8</ele>
        <time>2026-03-19T12:57:33Z</time>
      </trkpt>
      <trkpt lat="48.19712" lon="7.21898">
        <ele>810</ele>
        <time>2026-03-19T12:57:38Z</time>
      </trkpt>
      <trkpt lat="48.19706" lon="7.21895">
        <ele>810.2</ele>
        <time>2026-03-19T12:57:43Z</time>
      </trkpt>
      <trkpt lat="48.19701" lon="7.21891">
        <ele>810.4</ele>
        <time>2026-03-19T12:57:48Z</time>
      </trkpt>
      <trkpt lat="48.19695" lon="7.21888">
        <ele>810.7</ele>
        <time>2026-03-19T12:57:53Z</time>
      </trkpt>
      <trkpt lat="48.19689" lon="7.21884">
        <ele>811</ele>
        <time>2026-03-19T12:57:58Z</time>
      </trkpt>
      <trkpt lat="48.19683" lon="7.21881">
        <ele>811.3</ele>
        <time>2026-03-19T12:58:03Z</time>
      </trkpt>
      <trkpt lat="48.19679" lon="7.21879">
        <ele>811.5</ele>
        <time>2026-03-19T12:58:08Z</time>
      </trkpt>
      <trkpt lat="48.19672" lon="7.2188">
        <ele>811.6</ele>
        <time>2026-03-19T12:58:13Z</time>
      </trkpt>
      <trkpt lat="48.19666" lon="7.21881">
        <ele>811.7</ele>
        <time>2026-03-19T12:58:18Z</time>
      </trkpt>
      <trkpt lat="48.19661" lon="7.21879">
        <ele>811.6</ele>
        <time>2026-03-19T12:58:23Z</time>
      </trkpt>
      <trkpt lat="48.19657" lon="7.21878">
        <ele>811.6</ele>
        <time>2026-03-19T12:58:28Z</time>
      </trkpt>
      <trkpt lat="48.19652" lon="7.21877">
        <ele>811.5</ele>
        <time>2026-03-19T12:58:33Z</time>
      </trkpt>
      <trkpt lat="48.19648" lon="7.21871">
        <ele>811.6</ele>
        <time>2026-03-19T12:58:38Z</time>
      </trkpt>
      <trkpt lat="48.19643" lon="7.21867">
        <ele>811.6</ele>
        <time>2026-03-19T12:58:43Z</time>
      </trkpt>
      <trkpt lat="48.1964" lon="7.21859">
        <ele>811.9</ele>
        <time>2026-03-19T12:58:48Z</time>
      </trkpt>
      <trkpt lat="48.19638" lon="7.21851">
        <ele>812.2</ele>
        <time>2026-03-19T12:58:53Z</time>
      </trkpt>
      <trkpt lat="48.1964" lon="7.21843">
        <ele>812.6</ele>
        <time>2026-03-19T12:58:58Z</time>
      </trkpt>
      <trkpt lat="48.19641" lon="7.21833">
        <ele>813.1</ele>
        <time>2026-03-19T12:59:03Z</time>
      </trkpt>
      <trkpt lat="48.19643" lon="7.21822">
        <ele>813.9</ele>
        <time>2026-03-19T12:59:08Z</time>
      </trkpt>
      <trkpt lat="48.19644" lon="7.21814">
        <ele>814.4</ele>
        <time>2026-03-19T12:59:13Z</time>
      </trkpt>
      <trkpt lat="48.19642" lon="7.21811">
        <ele>814.6</ele>
        <time>2026-03-19T12:59:18Z</time>
      </trkpt>
      <trkpt lat="48.19644" lon="7.21806">
        <ele>815</ele>
        <time>2026-03-19T12:59:23Z</time>
      </trkpt>
      <trkpt lat="48.19646" lon="7.21797">
        <ele>815.7</ele>
        <time>2026-03-19T12:59:28Z</time>
      </trkpt>
      <trkpt lat="48.19647" lon="7.2179">
        <ele>816.2</ele>
        <time>2026-03-19T12:59:33Z</time>
      </trkpt>
      <trkpt lat="48.19647" lon="7.21782">
        <ele>816.7</ele>
        <time>2026-03-19T12:59:38Z</time>
      </trkpt>
      <trkpt lat="48.19648" lon="7.21775">
        <ele>817.2</ele>
        <time>2026-03-19T12:59:43Z</time>
      </trkpt>
      <trkpt lat="48.1965" lon="7.21762">
        <ele>818.2</ele>
        <time>2026-03-19T12:59:48Z</time>
      </trkpt>
      <trkpt lat="48.19646" lon="7.21754">
        <ele>818.5</ele>
        <time>2026-03-19T12:59:53Z</time>
      </trkpt>
      <trkpt lat="48.19638" lon="7.21756">
        <ele>817.9</ele>
        <time>2026-03-19T12:59:58Z</time>
      </trkpt>
      <trkpt lat="48.19631" lon="7.21759">
        <ele>817.3</ele>
        <time>2026-03-19T13:00:03Z</time>
      </trkpt>
      <trkpt lat="48.19625" lon="7.21761">
        <ele>816.8</ele>
        <time>2026-03-19T13:00:08Z</time>
      </trkpt>
      <trkpt lat="48.19619" lon="7.21761">
        <ele>816.5</ele>
        <time>2026-03-19T13:00:13Z</time>
      </trkpt>
      <trkpt lat="48.19614" lon="7.21759">
        <ele>816.3</ele>
        <time>2026-03-19T13:00:18Z</time>
      </trkpt>
      <trkpt lat="48.19608" lon="7.21758">
        <ele>816</ele>
        <time>2026-03-19T13:00:23Z</time>
      </trkpt>
      <trkpt lat="48.19602" lon="7.21756">
        <ele>815.8</ele>
        <time>2026-03-19T13:00:28Z</time>
      </trkpt>
      <trkpt lat="48.19599" lon="7.21751">
        <ele>815.9</ele>
        <time>2026-03-19T13:00:33Z</time>
      </trkpt>
      <trkpt lat="48.196" lon="7.21741">
        <ele>816.8</ele>
        <time>2026-03-19T13:00:38Z</time>
      </trkpt>
      <trkpt lat="48.19602" lon="7.21737">
        <ele>817.3</ele>
        <time>2026-03-19T13:00:43Z</time>
      </trkpt>
      <trkpt lat="48.19602" lon="7.21737">
        <ele>817.3</ele>
        <time>2026-03-19T13:00:48Z</time>
      </trkpt>
      <trkpt lat="48.19602" lon="7.21737">
        <ele>817.3</ele>
        <time>2026-03-19T13:00:53Z</time>
      </trkpt>
      <trkpt lat="48.19602" lon="7.21737">
        <ele>817.3</ele>
        <time>2026-03-19T13:00:58Z</time>
      </trkpt>
      <trkpt lat="48.19602" lon="7.21737">
        <ele>817.3</ele>
        <time>2026-03-19T13:01:03Z</time>
      </trkpt>
      <trkpt lat="48.19602" lon="7.21737">
        <ele>817.3</ele>
        <time>2026-03-19T13:01:08Z</time>
      </trkpt>
      <trkpt lat="48.19602" lon="7.21737">
        <ele>817.3</ele>
        <time>2026-03-19T13:01:13Z</time>
      </trkpt>
      <trkpt lat="48.19602" lon="7.21737">
        <ele>817.3</ele>
        <time>2026-03-19T13:01:18Z</time>
      </trkpt>
      <trkpt lat="48.19602" lon="7.21737">
        <ele>817.3</ele>
        <time>2026-03-19T13:01:23Z</time>
      </trkpt>
      <trkpt lat="48.19602" lon="7.21737">
        <ele>817.3</ele>
        <time>2026-03-19T13:01:28Z</time>
      </trkpt>
      <trkpt lat="48.19602" lon="7.21737">
        <ele>817.3</ele>
        <time>2026-03-19T13:01:33Z</time>
      </trkpt>
      <trkpt lat="48.19602" lon="7.21737">
        <ele>817.3</ele>
        <time>2026-03-19T13:01:38Z</time>
      </trkpt>
      <trkpt lat="48.19602" lon="7.21737">
        <ele>817.3</ele>
        <time>2026-03-19T13:01:43Z</time>
      </trkpt>
      <trkpt lat="48.19602" lon="7.21737">
        <ele>817.3</ele>
        <time>2026-03-19T13:01:48Z</time>
      </trkpt>
      <trkpt lat="48.19602" lon="7.21737">
        <ele>817.3</ele>
        <time>2026-03-19T13:01:53Z</time>
      </trkpt>
      <trkpt lat="48.19602" lon="7.21737">
        <ele>817.3</ele>
        <time>2026-03-19T13:01:58Z</time>
      </trkpt>
      <trkpt lat="48.19602" lon="7.21737">
        <ele>817.3</ele>
        <time>2026-03-19T13:02:03Z</time>
      </trkpt>
      <trkpt lat="48.19602" lon="7.21737">
        <ele>817.3</ele>
        <time>2026-03-19T13:02:08Z</time>
      </trkpt>
      <trkpt lat="48.19602" lon="7.21737">
        <ele>817.3</ele>
        <time>2026-03-19T13:02:13Z</time>
      </trkpt>
      <trkpt lat="48.19602" lon="7.21737">
        <ele>817.3</ele>
        <time>2026-03-19T13:02:18Z</time>
      </trkpt>
      <trkpt lat="48.19602" lon="7.21737">
        <ele>817.3</ele>
        <time>2026-03-19T13:02:23Z</time>
      </trkpt>
      <trkpt lat="48.19602" lon="7.21737">
        <ele>817.3</ele>
        <time>2026-03-19T13:02:28Z</time>
      </trkpt>
      <trkpt lat="48.19602" lon="7.21737">
        <ele>817.3</ele>
        <time>2026-03-19T13:02:33Z</time>
      </trkpt>
      <trkpt lat="48.19602" lon="7.21737">
        <ele>817.3</ele>
        <time>2026-03-19T13:02:38Z</time>
      </trkpt>
      <trkpt lat="48.19602" lon="7.21737">
        <ele>817.3</ele>
        <time>2026-03-19T13:02:43Z</time>
      </trkpt>
      <trkpt lat="48.19602" lon="7.21737">
        <ele>817.3</ele>
        <time>2026-03-19T13:02:48Z</time>
      </trkpt>
      <trkpt lat="48.19602" lon="7.21737">
        <ele>817.3</ele>
        <time>2026-03-19T13:02:53Z</time>
      </trkpt>
      <trkpt lat="48.19602" lon="7.21737">
        <ele>817.3</ele>
        <time>2026-03-19T13:02:58Z</time>
      </trkpt>
      <trkpt lat="48.19602" lon="7.21737">
        <ele>817.3</ele>
        <time>2026-03-19T13:03:03Z</time>
      </trkpt>
      <trkpt lat="48.19602" lon="7.21737">
        <ele>817.3</ele>
        <time>2026-03-19T13:03:08Z</time>
      </trkpt>
      <trkpt lat="48.19602" lon="7.21737">
        <ele>817.3</ele>
        <time>2026-03-19T13:03:13Z</time>
      </trkpt>
      <trkpt lat="48.19602" lon="7.21737">
        <ele>817.3</ele>
        <time>2026-03-19T13:03:18Z</time>
      </trkpt>
      <trkpt lat="48.19602" lon="7.21737">
        <ele>817.3</ele>
        <time>2026-03-19T13:03:23Z</time>
      </trkpt>
      <trkpt lat="48.19602" lon="7.21737">
        <ele>817.3</ele>
        <time>2026-03-19T13:03:28Z</time>
      </trkpt>
      <trkpt lat="48.19602" lon="7.21737">
        <ele>817.3</ele>
        <time>2026-03-19T13:03:33Z</time>
      </trkpt>
      <trkpt lat="48.19602" lon="7.21737">
        <ele>817.3</ele>
        <time>2026-03-19T13:03:38Z</time>
      </trkpt>
      <trkpt lat="48.19602" lon="7.21737">
        <ele>817.3</ele>
        <time>2026-03-19T13:03:43Z</time>
      </trkpt>
      <trkpt lat="48.19602" lon="7.21737">
        <ele>817.3</ele>
        <time>2026-03-19T13:03:48Z</time>
      </trkpt>
      <trkpt lat="48.19602" lon="7.21737">
        <ele>817.3</ele>
        <time>2026-03-19T13:03:53Z</time>
      </trkpt>
      <trkpt lat="48.19602" lon="7.21737">
        <ele>817.3</ele>
        <time>2026-03-19T13:03:58Z</time>
      </trkpt>
      <trkpt lat="48.19602" lon="7.21737">
        <ele>817.3</ele>
        <time>2026-03-19T13:04:03Z</time>
      </trkpt>
      <trkpt lat="48.19602" lon="7.21737">
        <ele>817.3</ele>
        <time>2026-03-19T13:04:08Z</time>
      </trkpt>
      <trkpt lat="48.19602" lon="7.21737">
        <ele>817.3</ele>
        <time>2026-03-19T13:04:13Z</time>
      </trkpt>
      <trkpt lat="48.19602" lon="7.21737">
        <ele>817.3</ele>
        <time>2026-03-19T13:04:18Z</time>
      </trkpt>
      <trkpt lat="48.19602" lon="7.21737">
        <ele>817.3</ele>
        <time>2026-03-19T13:04:23Z</time>
      </trkpt>
      <trkpt lat="48.19602" lon="7.21737">
        <ele>817.3</ele>
        <time>2026-03-19T13:04:28Z</time>
      </trkpt>
      <trkpt lat="48.19602" lon="7.21737">
        <ele>817.3</ele>
        <time>2026-03-19T13:04:33Z</time>
      </trkpt>
      <trkpt lat="48.19602" lon="7.21737">
        <ele>817.3</ele>
        <time>2026-03-19T13:04:38Z</time>
      </trkpt>
      <trkpt lat="48.19602" lon="7.21737">
        <ele>817.3</ele>
        <time>2026-03-19T13:04:43Z</time>
      </trkpt>
      <trkpt lat="48.19602" lon="7.21737">
        <ele>817.3</ele>
        <time>2026-03-19T13:04:48Z</time>
      </trkpt>
      <trkpt lat="48.19602" lon="7.21737">
        <ele>817.3</ele>
        <time>2026-03-19T13:04:53Z</time>
      </trkpt>
      <trkpt lat="48.19602" lon="7.21737">
        <ele>817.3</ele>
        <time>2026-03-19T13:04:58Z</time>
      </trkpt>
      <trkpt lat="48.19602" lon="7.21737">
        <ele>817.3</ele>
        <time>2026-03-19T13:05:03Z</time>
      </trkpt>
      <trkpt lat="48.19602" lon="7.21737">
        <ele>817.3</ele>
        <time>2026-03-19T13:05:08Z</time>
      </trkpt>
      <trkpt lat="48.19602" lon="7.21737">
        <ele>817.3</ele>
        <time>2026-03-19T13:05:13Z</time>
      </trkpt>
      <trkpt lat="48.19602" lon="7.21737">
        <ele>817.3</ele>
        <time>2026-03-19T13:05:18Z</time>
      </trkpt>
      <trkpt lat="48.19602" lon="7.21737">
        <ele>817.3</ele>
        <time>2026-03-19T13:05:23Z</time>
      </trkpt>
      <trkpt lat="48.19602" lon="7.21737">
        <ele>817.3</ele>
        <time>2026-03-19T13:05:28Z</time>
      </trkpt>
      <trkpt lat="48.19602" lon="7.21737">
        <ele>817.3</ele>
        <time>2026-03-19T13:05:33Z</time>
      </trkpt>
      <trkpt lat="48.19602" lon="7.21737">
        <ele>817.3</ele>
        <time>2026-03-19T13:05:38Z</time>
      </trkpt>
      <trkpt lat="48.19602" lon="7.21737">
        <ele>817.3</ele>
        <time>2026-03-19T13:05:43Z</time>
      </trkpt>
      <trkpt lat="48.19589" lon="7.21733">
        <ele>816.8</ele>
        <time>2026-03-19T13:05:48Z</time>
      </trkpt>
      <trkpt lat="48.19585" lon="7.21724">
        <ele>817.3</ele>
        <time>2026-03-19T13:05:53Z</time>
      </trkpt>
      <trkpt lat="48.1958" lon="7.21717">
        <ele>817.8</ele>
        <time>2026-03-19T13:05:58Z</time>
      </trkpt>
      <trkpt lat="48.19576" lon="7.21711">
        <ele>818.4</ele>
        <time>2026-03-19T13:06:03Z</time>
      </trkpt>
      <trkpt lat="48.19572" lon="7.21705">
        <ele>819</ele>
        <time>2026-03-19T13:06:08Z</time>
      </trkpt>
      <trkpt lat="48.19567" lon="7.21699">
        <ele>819.6</ele>
        <time>2026-03-19T13:06:13Z</time>
      </trkpt>
      <trkpt lat="48.19565" lon="7.21694">
        <ele>820</ele>
        <time>2026-03-19T13:06:18Z</time>
      </trkpt>
      <trkpt lat="48.19561" lon="7.21691">
        <ele>820.3</ele>
        <time>2026-03-19T13:06:23Z</time>
      </trkpt>
      <trkpt lat="48.19562" lon="7.21684">
        <ele>820.9</ele>
        <time>2026-03-19T13:06:28Z</time>
      </trkpt>
      <trkpt lat="48.19559" lon="7.21682">
        <ele>821.1</ele>
        <time>2026-03-19T13:06:33Z</time>
      </trkpt>
      <trkpt lat="48.19554" lon="7.21677">
        <ele>821.5</ele>
        <time>2026-03-19T13:06:38Z</time>
      </trkpt>
      <trkpt lat="48.1955" lon="7.21671">
        <ele>822.1</ele>
        <time>2026-03-19T13:06:43Z</time>
      </trkpt>
      <trkpt lat="48.19543" lon="7.21668">
        <ele>822.4</ele>
        <time>2026-03-19T13:06:48Z</time>
      </trkpt>
      <trkpt lat="48.1954" lon="7.21664">
        <ele>822.8</ele>
        <time>2026-03-19T13:06:53Z</time>
      </trkpt>
      <trkpt lat="48.19534" lon="7.21662">
        <ele>823.1</ele>
        <time>2026-03-19T13:06:58Z</time>
      </trkpt>
      <trkpt lat="48.19529" lon="7.21661">
        <ele>823.2</ele>
        <time>2026-03-19T13:07:03Z</time>
      </trkpt>
      <trkpt lat="48.19522" lon="7.2166">
        <ele>823.3</ele>
        <time>2026-03-19T13:07:08Z</time>
      </trkpt>
      <trkpt lat="48.19516" lon="7.21656">
        <ele>823.7</ele>
        <time>2026-03-19T13:07:13Z</time>
      </trkpt>
      <trkpt lat="48.1951" lon="7.21655">
        <ele>823.8</ele>
        <time>2026-03-19T13:07:18Z</time>
      </trkpt>
      <trkpt lat="48.19504" lon="7.21655">
        <ele>823.8</ele>
        <time>2026-03-19T13:07:23Z</time>
      </trkpt>
      <trkpt lat="48.19497" lon="7.21655">
        <ele>824.2</ele>
        <time>2026-03-19T13:07:28Z</time>
      </trkpt>
      <trkpt lat="48.19491" lon="7.21653">
        <ele>825</ele>
        <time>2026-03-19T13:07:33Z</time>
      </trkpt>
      <trkpt lat="48.19488" lon="7.21654">
        <ele>825.2</ele>
        <time>2026-03-19T13:07:38Z</time>
      </trkpt>
      <trkpt lat="48.19482" lon="7.21651">
        <ele>826</ele>
        <time>2026-03-19T13:07:43Z</time>
      </trkpt>
      <trkpt lat="48.19476" lon="7.21648">
        <ele>826.8</ele>
        <time>2026-03-19T13:07:48Z</time>
      </trkpt>
      <trkpt lat="48.1947" lon="7.21645">
        <ele>827.6</ele>
        <time>2026-03-19T13:07:53Z</time>
      </trkpt>
      <trkpt lat="48.19463" lon="7.21643">
        <ele>828.4</ele>
        <time>2026-03-19T13:07:58Z</time>
      </trkpt>
      <trkpt lat="48.19457" lon="7.2164">
        <ele>829.1</ele>
        <time>2026-03-19T13:08:03Z</time>
      </trkpt>
      <trkpt lat="48.19449" lon="7.21636">
        <ele>830</ele>
        <time>2026-03-19T13:08:08Z</time>
      </trkpt>
      <trkpt lat="48.19444" lon="7.21634">
        <ele>830.5</ele>
        <time>2026-03-19T13:08:13Z</time>
      </trkpt>
      <trkpt lat="48.19438" lon="7.21633">
        <ele>831.1</ele>
        <time>2026-03-19T13:08:18Z</time>
      </trkpt>
      <trkpt lat="48.19434" lon="7.21633">
        <ele>831.4</ele>
        <time>2026-03-19T13:08:23Z</time>
      </trkpt>
      <trkpt lat="48.19431" lon="7.21634">
        <ele>831.7</ele>
        <time>2026-03-19T13:08:28Z</time>
      </trkpt>
      <trkpt lat="48.19426" lon="7.21632">
        <ele>832.2</ele>
        <time>2026-03-19T13:08:33Z</time>
      </trkpt>
      <trkpt lat="48.1942" lon="7.2163">
        <ele>832.7</ele>
        <time>2026-03-19T13:08:38Z</time>
      </trkpt>
      <trkpt lat="48.19418" lon="7.21628">
        <ele>832.9</ele>
        <time>2026-03-19T13:08:43Z</time>
      </trkpt>
      <trkpt lat="48.19417" lon="7.21626">
        <ele>833</ele>
        <time>2026-03-19T13:08:48Z</time>
      </trkpt>
      <trkpt lat="48.19415" lon="7.21626">
        <ele>833.4</ele>
        <time>2026-03-19T13:08:53Z</time>
      </trkpt>
      <trkpt lat="48.1941" lon="7.21625">
        <ele>834.5</ele>
        <time>2026-03-19T13:08:58Z</time>
      </trkpt>
      <trkpt lat="48.19403" lon="7.21622">
        <ele>836.1</ele>
        <time>2026-03-19T13:09:03Z</time>
      </trkpt>
      <trkpt lat="48.19397" lon="7.2162">
        <ele>837.4</ele>
        <time>2026-03-19T13:09:08Z</time>
      </trkpt>
      <trkpt lat="48.19392" lon="7.21618">
        <ele>838.5</ele>
        <time>2026-03-19T13:09:13Z</time>
      </trkpt>
      <trkpt lat="48.19391" lon="7.21615">
        <ele>838.6</ele>
        <time>2026-03-19T13:09:18Z</time>
      </trkpt>
      <trkpt lat="48.19387" lon="7.21619">
        <ele>839.6</ele>
        <time>2026-03-19T13:09:23Z</time>
      </trkpt>
      <trkpt lat="48.19383" lon="7.2162">
        <ele>840.5</ele>
        <time>2026-03-19T13:09:28Z</time>
      </trkpt>
      <trkpt lat="48.19377" lon="7.21617">
        <ele>841.8</ele>
        <time>2026-03-19T13:09:33Z</time>
      </trkpt>
      <trkpt lat="48.19372" lon="7.21614">
        <ele>842.8</ele>
        <time>2026-03-19T13:09:38Z</time>
      </trkpt>
      <trkpt lat="48.19374" lon="7.21605">
        <ele>842</ele>
        <time>2026-03-19T13:09:43Z</time>
      </trkpt>
      <trkpt lat="48.19378" lon="7.21596">
        <ele>840.8</ele>
        <time>2026-03-19T13:09:48Z</time>
      </trkpt>
      <trkpt lat="48.19381" lon="7.2159">
        <ele>840.1</ele>
        <time>2026-03-19T13:09:53Z</time>
      </trkpt>
      <trkpt lat="48.1938" lon="7.21581">
        <ele>839.9</ele>
        <time>2026-03-19T13:09:58Z</time>
      </trkpt>
      <trkpt lat="48.19376" lon="7.21572">
        <ele>839.9</ele>
        <time>2026-03-19T13:10:03Z</time>
      </trkpt>
      <trkpt lat="48.19372" lon="7.2156">
        <ele>839.6</ele>
        <time>2026-03-19T13:10:08Z</time>
      </trkpt>
      <trkpt lat="48.19369" lon="7.21551">
        <ele>839.3</ele>
        <time>2026-03-19T13:10:13Z</time>
      </trkpt>
      <trkpt lat="48.19366" lon="7.21542">
        <ele>838.9</ele>
        <time>2026-03-19T13:10:18Z</time>
      </trkpt>
      <trkpt lat="48.19363" lon="7.21533">
        <ele>838.4</ele>
        <time>2026-03-19T13:10:23Z</time>
      </trkpt>
      <trkpt lat="48.1936" lon="7.21525">
        <ele>837.9</ele>
        <time>2026-03-19T13:10:28Z</time>
      </trkpt>
      <trkpt lat="48.19357" lon="7.21518">
        <ele>837.5</ele>
        <time>2026-03-19T13:10:33Z</time>
      </trkpt>
      <trkpt lat="48.19356" lon="7.21511">
        <ele>836.8</ele>
        <time>2026-03-19T13:10:38Z</time>
      </trkpt>
      <trkpt lat="48.19353" lon="7.21506">
        <ele>836.5</ele>
        <time>2026-03-19T13:10:43Z</time>
      </trkpt>
      <trkpt lat="48.19351" lon="7.21498">
        <ele>835.6</ele>
        <time>2026-03-19T13:10:48Z</time>
      </trkpt>
      <trkpt lat="48.19349" lon="7.21496">
        <ele>835.4</ele>
        <time>2026-03-19T13:10:53Z</time>
      </trkpt>
      <trkpt lat="48.19349" lon="7.2149">
        <ele>834.5</ele>
        <time>2026-03-19T13:10:58Z</time>
      </trkpt>
      <trkpt lat="48.19345" lon="7.21481">
        <ele>833.3</ele>
        <time>2026-03-19T13:11:03Z</time>
      </trkpt>
      <trkpt lat="48.19343" lon="7.21473">
        <ele>832</ele>
        <time>2026-03-19T13:11:08Z</time>
      </trkpt>
      <trkpt lat="48.19341" lon="7.21466">
        <ele>830.9</ele>
        <time>2026-03-19T13:11:13Z</time>
      </trkpt>
      <trkpt lat="48.19341" lon="7.21466">
        <ele>830.9</ele>
        <time>2026-03-19T13:11:18Z</time>
      </trkpt>
      <trkpt lat="48.19341" lon="7.21466">
        <ele>830.9</ele>
        <time>2026-03-19T13:11:23Z</time>
      </trkpt>
      <trkpt lat="48.19341" lon="7.21466">
        <ele>830.9</ele>
        <time>2026-03-19T13:11:28Z</time>
      </trkpt>
      <trkpt lat="48.19348" lon="7.2146">
        <ele>829.9</ele>
        <time>2026-03-19T13:11:33Z</time>
      </trkpt>
      <trkpt lat="48.19348" lon="7.2145">
        <ele>828.4</ele>
        <time>2026-03-19T13:11:38Z</time>
      </trkpt>
      <trkpt lat="48.19349" lon="7.21439">
        <ele>826.7</ele>
        <time>2026-03-19T13:11:43Z</time>
      </trkpt>
      <trkpt lat="48.1935" lon="7.21426">
        <ele>824.8</ele>
        <time>2026-03-19T13:11:48Z</time>
      </trkpt>
      <trkpt lat="48.1935" lon="7.21413">
        <ele>823</ele>
        <time>2026-03-19T13:11:53Z</time>
      </trkpt>
      <trkpt lat="48.19351" lon="7.21404">
        <ele>822.3</ele>
        <time>2026-03-19T13:11:58Z</time>
      </trkpt>
      <trkpt lat="48.19351" lon="7.21394">
        <ele>821.3</ele>
        <time>2026-03-19T13:12:03Z</time>
      </trkpt>
      <trkpt lat="48.19351" lon="7.21381">
        <ele>820</ele>
        <time>2026-03-19T13:12:08Z</time>
      </trkpt>
      <trkpt lat="48.19353" lon="7.2137">
        <ele>819.2</ele>
        <time>2026-03-19T13:12:13Z</time>
      </trkpt>
      <trkpt lat="48.19353" lon="7.2136">
        <ele>818.3</ele>
        <time>2026-03-19T13:12:18Z</time>
      </trkpt>
      <trkpt lat="48.19352" lon="7.2135">
        <ele>817.2</ele>
        <time>2026-03-19T13:12:23Z</time>
      </trkpt>
      <trkpt lat="48.19347" lon="7.21341">
        <ele>815.4</ele>
        <time>2026-03-19T13:12:28Z</time>
      </trkpt>
      <trkpt lat="48.19343" lon="7.21335">
        <ele>814</ele>
        <time>2026-03-19T13:12:33Z</time>
      </trkpt>
      <trkpt lat="48.19341" lon="7.21331">
        <ele>813.4</ele>
        <time>2026-03-19T13:12:38Z</time>
      </trkpt>
      <trkpt lat="48.1934" lon="7.21331">
        <ele>813.2</ele>
        <time>2026-03-19T13:12:43Z</time>
      </trkpt>
      <trkpt lat="48.1934" lon="7.21331">
        <ele>813.2</ele>
        <time>2026-03-19T13:12:48Z</time>
      </trkpt>
      <trkpt lat="48.1934" lon="7.21331">
        <ele>813.2</ele>
        <time>2026-03-19T13:12:53Z</time>
      </trkpt>
      <trkpt lat="48.1934" lon="7.21331">
        <ele>813.2</ele>
        <time>2026-03-19T13:12:58Z</time>
      </trkpt>
      <trkpt lat="48.1934" lon="7.21331">
        <ele>813.2</ele>
        <time>2026-03-19T13:13:03Z</time>
      </trkpt>
      <trkpt lat="48.1934" lon="7.21331">
        <ele>813.2</ele>
        <time>2026-03-19T13:13:08Z</time>
      </trkpt>
      <trkpt lat="48.1934" lon="7.21331">
        <ele>813.2</ele>
        <time>2026-03-19T13:13:13Z</time>
      </trkpt>
      <trkpt lat="48.1934" lon="7.21331">
        <ele>813.2</ele>
        <time>2026-03-19T13:13:18Z</time>
      </trkpt>
      <trkpt lat="48.1934" lon="7.21331">
        <ele>813.2</ele>
        <time>2026-03-19T13:13:23Z</time>
      </trkpt>
      <trkpt lat="48.1934" lon="7.21331">
        <ele>813.2</ele>
        <time>2026-03-19T13:13:28Z</time>
      </trkpt>
      <trkpt lat="48.1934" lon="7.21331">
        <ele>813.2</ele>
        <time>2026-03-19T13:13:33Z</time>
      </trkpt>
      <trkpt lat="48.1934" lon="7.21331">
        <ele>813.2</ele>
        <time>2026-03-19T13:13:38Z</time>
      </trkpt>
      <trkpt lat="48.1934" lon="7.21331">
        <ele>813.2</ele>
        <time>2026-03-19T13:13:43Z</time>
      </trkpt>
      <trkpt lat="48.1934" lon="7.21331">
        <ele>813.2</ele>
        <time>2026-03-19T13:13:48Z</time>
      </trkpt>
      <trkpt lat="48.1934" lon="7.21331">
        <ele>813.2</ele>
        <time>2026-03-19T13:13:53Z</time>
      </trkpt>
      <trkpt lat="48.1934" lon="7.21331">
        <ele>813.2</ele>
        <time>2026-03-19T13:13:58Z</time>
      </trkpt>
      <trkpt lat="48.1934" lon="7.21331">
        <ele>813.2</ele>
        <time>2026-03-19T13:14:03Z</time>
      </trkpt>
      <trkpt lat="48.1934" lon="7.21331">
        <ele>813.2</ele>
        <time>2026-03-19T13:14:08Z</time>
      </trkpt>
      <trkpt lat="48.1934" lon="7.21331">
        <ele>813.2</ele>
        <time>2026-03-19T13:14:13Z</time>
      </trkpt>
      <trkpt lat="48.1934" lon="7.21331">
        <ele>813.2</ele>
        <time>2026-03-19T13:14:18Z</time>
      </trkpt>
      <trkpt lat="48.1934" lon="7.21331">
        <ele>813.2</ele>
        <time>2026-03-19T13:14:23Z</time>
      </trkpt>
      <trkpt lat="48.1934" lon="7.21331">
        <ele>813.2</ele>
        <time>2026-03-19T13:14:28Z</time>
      </trkpt>
      <trkpt lat="48.19342" lon="7.21333">
        <ele>813.6</ele>
        <time>2026-03-19T13:14:33Z</time>
      </trkpt>
      <trkpt lat="48.1935" lon="7.21332">
        <ele>815.1</ele>
        <time>2026-03-19T13:14:38Z</time>
      </trkpt>
      <trkpt lat="48.19353" lon="7.2132">
        <ele>815.2</ele>
        <time>2026-03-19T13:14:43Z</time>
      </trkpt>
      <trkpt lat="48.19354" lon="7.21306">
        <ele>814.9</ele>
        <time>2026-03-19T13:14:48Z</time>
      </trkpt>
      <trkpt lat="48.19353" lon="7.21296">
        <ele>814.3</ele>
        <time>2026-03-19T13:14:53Z</time>
      </trkpt>
      <trkpt lat="48.19353" lon="7.21288">
        <ele>814</ele>
        <time>2026-03-19T13:14:58Z</time>
      </trkpt>
      <trkpt lat="48.19354" lon="7.21279">
        <ele>813.8</ele>
        <time>2026-03-19T13:15:03Z</time>
      </trkpt>
      <trkpt lat="48.19356" lon="7.2127">
        <ele>814</ele>
        <time>2026-03-19T13:15:08Z</time>
      </trkpt>
      <trkpt lat="48.19357" lon="7.21262">
        <ele>814</ele>
        <time>2026-03-19T13:15:13Z</time>
      </trkpt>
      <trkpt lat="48.19357" lon="7.21254">
        <ele>813.7</ele>
        <time>2026-03-19T13:15:18Z</time>
      </trkpt>
      <trkpt lat="48.19357" lon="7.21245">
        <ele>813.3</ele>
        <time>2026-03-19T13:15:23Z</time>
      </trkpt>
      <trkpt lat="48.19357" lon="7.21237">
        <ele>813</ele>
        <time>2026-03-19T13:15:28Z</time>
      </trkpt>
      <trkpt lat="48.19356" lon="7.21229">
        <ele>812.4</ele>
        <time>2026-03-19T13:15:33Z</time>
      </trkpt>
      <trkpt lat="48.19356" lon="7.21221">
        <ele>812</ele>
        <time>2026-03-19T13:15:38Z</time>
      </trkpt>
      <trkpt lat="48.19355" lon="7.21219">
        <ele>811.6</ele>
        <time>2026-03-19T13:15:43Z</time>
      </trkpt>
      <trkpt lat="48.19356" lon="7.21211">
        <ele>811.6</ele>
        <time>2026-03-19T13:15:48Z</time>
      </trkpt>
      <trkpt lat="48.19358" lon="7.21204">
        <ele>812</ele>
        <time>2026-03-19T13:15:53Z</time>
      </trkpt>
      <trkpt lat="48.19358" lon="7.21195">
        <ele>811.6</ele>
        <time>2026-03-19T13:15:58Z</time>
      </trkpt>
      <trkpt lat="48.19357" lon="7.21184">
        <ele>810.8</ele>
        <time>2026-03-19T13:16:03Z</time>
      </trkpt>
      <trkpt lat="48.19357" lon="7.21174">
        <ele>810.4</ele>
        <time>2026-03-19T13:16:08Z</time>
      </trkpt>
      <trkpt lat="48.19358" lon="7.21164">
        <ele>810.4</ele>
        <time>2026-03-19T13:16:13Z</time>
      </trkpt>
      <trkpt lat="48.19359" lon="7.21158">
        <ele>810.5</ele>
        <time>2026-03-19T13:16:18Z</time>
      </trkpt>
      <trkpt lat="48.19361" lon="7.21149">
        <ele>810.9</ele>
        <time>2026-03-19T13:16:23Z</time>
      </trkpt>
      <trkpt lat="48.1936" lon="7.21138">
        <ele>810.1</ele>
        <time>2026-03-19T13:16:28Z</time>
      </trkpt>
      <trkpt lat="48.19361" lon="7.21127">
        <ele>810</ele>
        <time>2026-03-19T13:16:33Z</time>
      </trkpt>
      <trkpt lat="48.19361" lon="7.21117">
        <ele>809.6</ele>
        <time>2026-03-19T13:16:38Z</time>
      </trkpt>
      <trkpt lat="48.19361" lon="7.21109">
        <ele>809.3</ele>
        <time>2026-03-19T13:16:43Z</time>
      </trkpt>
      <trkpt lat="48.19361" lon="7.21101">
        <ele>809</ele>
        <time>2026-03-19T13:16:48Z</time>
      </trkpt>
      <trkpt lat="48.19363" lon="7.21095">
        <ele>809.6</ele>
        <time>2026-03-19T13:16:53Z</time>
      </trkpt>
      <trkpt lat="48.19363" lon="7.21085">
        <ele>809.2</ele>
        <time>2026-03-19T13:16:58Z</time>
      </trkpt>
      <trkpt lat="48.19365" lon="7.21077">
        <ele>809.8</ele>
        <time>2026-03-19T13:17:03Z</time>
      </trkpt>
      <trkpt lat="48.19364" lon="7.21064">
        <ele>808.7</ele>
        <time>2026-03-19T13:17:08Z</time>
      </trkpt>
      <trkpt lat="48.19364" lon="7.21051">
        <ele>808.1</ele>
        <time>2026-03-19T13:17:13Z</time>
      </trkpt>
      <trkpt lat="48.19366" lon="7.21041">
        <ele>808.7</ele>
        <time>2026-03-19T13:17:18Z</time>
      </trkpt>
      <trkpt lat="48.19368" lon="7.21034">
        <ele>809.3</ele>
        <time>2026-03-19T13:17:23Z</time>
      </trkpt>
      <trkpt lat="48.19369" lon="7.21025">
        <ele>809.4</ele>
        <time>2026-03-19T13:17:28Z</time>
      </trkpt>
      <trkpt lat="48.1937" lon="7.21014">
        <ele>809.5</ele>
        <time>2026-03-19T13:17:33Z</time>
      </trkpt>
      <trkpt lat="48.19372" lon="7.21006">
        <ele>810.2</ele>
        <time>2026-03-19T13:17:38Z</time>
      </trkpt>
      <trkpt lat="48.19374" lon="7.20998">
        <ele>810.9</ele>
        <time>2026-03-19T13:17:43Z</time>
      </trkpt>
      <trkpt lat="48.19374" lon="7.20985">
        <ele>810.3</ele>
        <time>2026-03-19T13:17:48Z</time>
      </trkpt>
      <trkpt lat="48.19375" lon="7.20975">
        <ele>810.3</ele>
        <time>2026-03-19T13:17:53Z</time>
      </trkpt>
      <trkpt lat="48.19374" lon="7.20964">
        <ele>809.2</ele>
        <time>2026-03-19T13:17:58Z</time>
      </trkpt>
      <trkpt lat="48.19375" lon="7.20954">
        <ele>809.3</ele>
        <time>2026-03-19T13:18:03Z</time>
      </trkpt>
      <trkpt lat="48.19375" lon="7.20944">
        <ele>808.8</ele>
        <time>2026-03-19T13:18:08Z</time>
      </trkpt>
      <trkpt lat="48.19375" lon="7.20937">
        <ele>808.5</ele>
        <time>2026-03-19T13:18:13Z</time>
      </trkpt>
      <trkpt lat="48.19376" lon="7.20933">
        <ele>808.8</ele>
        <time>2026-03-19T13:18:18Z</time>
      </trkpt>
      <trkpt lat="48.19378" lon="7.20921">
        <ele>809.3</ele>
        <time>2026-03-19T13:18:23Z</time>
      </trkpt>
      <trkpt lat="48.19379" lon="7.20915">
        <ele>809.5</ele>
        <time>2026-03-19T13:18:28Z</time>
      </trkpt>
      <trkpt lat="48.19382" lon="7.20902">
        <ele>809.5</ele>
        <time>2026-03-19T13:18:33Z</time>
      </trkpt>
      <trkpt lat="48.19385" lon="7.2089">
        <ele>809.7</ele>
        <time>2026-03-19T13:18:38Z</time>
      </trkpt>
      <trkpt lat="48.19387" lon="7.20882">
        <ele>809.8</ele>
        <time>2026-03-19T13:18:43Z</time>
      </trkpt>
      <trkpt lat="48.19388" lon="7.20873">
        <ele>809.3</ele>
        <time>2026-03-19T13:18:48Z</time>
      </trkpt>
      <trkpt lat="48.1939" lon="7.20865">
        <ele>809.4</ele>
        <time>2026-03-19T13:18:53Z</time>
      </trkpt>
      <trkpt lat="48.19392" lon="7.20857">
        <ele>809.5</ele>
        <time>2026-03-19T13:18:58Z</time>
      </trkpt>
      <trkpt lat="48.19393" lon="7.20849">
        <ele>809.1</ele>
        <time>2026-03-19T13:19:03Z</time>
      </trkpt>
      <trkpt lat="48.19395" lon="7.20842">
        <ele>809.3</ele>
        <time>2026-03-19T13:19:08Z</time>
      </trkpt>
      <trkpt lat="48.19399" lon="7.20833">
        <ele>810.5</ele>
        <time>2026-03-19T13:19:13Z</time>
      </trkpt>
      <trkpt lat="48.194" lon="7.20821">
        <ele>811</ele>
        <time>2026-03-19T13:19:18Z</time>
      </trkpt>
      <trkpt lat="48.19402" lon="7.20807">
        <ele>812</ele>
        <time>2026-03-19T13:19:23Z</time>
      </trkpt>
      <trkpt lat="48.19404" lon="7.20794">
        <ele>813</ele>
        <time>2026-03-19T13:19:28Z</time>
      </trkpt>
      <trkpt lat="48.19405" lon="7.20784">
        <ele>813.5</ele>
        <time>2026-03-19T13:19:33Z</time>
      </trkpt>
      <trkpt lat="48.19405" lon="7.20777">
        <ele>813.5</ele>
        <time>2026-03-19T13:19:38Z</time>
      </trkpt>
      <trkpt lat="48.19405" lon="7.20769">
        <ele>813.5</ele>
        <time>2026-03-19T13:19:43Z</time>
      </trkpt>
      <trkpt lat="48.19404" lon="7.20758">
        <ele>812.9</ele>
        <time>2026-03-19T13:19:48Z</time>
      </trkpt>
      <trkpt lat="48.19401" lon="7.20746">
        <ele>811.8</ele>
        <time>2026-03-19T13:19:53Z</time>
      </trkpt>
      <trkpt lat="48.19401" lon="7.20734">
        <ele>812.7</ele>
        <time>2026-03-19T13:19:58Z</time>
      </trkpt>
      <trkpt lat="48.19401" lon="7.20726">
        <ele>813.3</ele>
        <time>2026-03-19T13:20:03Z</time>
      </trkpt>
      <trkpt lat="48.19401" lon="7.20718">
        <ele>813.9</ele>
        <time>2026-03-19T13:20:08Z</time>
      </trkpt>
      <trkpt lat="48.19401" lon="7.20708">
        <ele>814.7</ele>
        <time>2026-03-19T13:20:13Z</time>
      </trkpt>
      <trkpt lat="48.19401" lon="7.20699">
        <ele>815.4</ele>
        <time>2026-03-19T13:20:18Z</time>
      </trkpt>
      <trkpt lat="48.19399" lon="7.20691">
        <ele>815.1</ele>
        <time>2026-03-19T13:20:23Z</time>
      </trkpt>
      <trkpt lat="48.19397" lon="7.20682">
        <ele>814.8</ele>
        <time>2026-03-19T13:20:28Z</time>
      </trkpt>
      <trkpt lat="48.19396" lon="7.20673">
        <ele>815.1</ele>
        <time>2026-03-19T13:20:33Z</time>
      </trkpt>
      <trkpt lat="48.19397" lon="7.20664">
        <ele>816.3</ele>
        <time>2026-03-19T13:20:38Z</time>
      </trkpt>
      <trkpt lat="48.19395" lon="7.20655">
        <ele>816.1</ele>
        <time>2026-03-19T13:20:43Z</time>
      </trkpt>
      <trkpt lat="48.19392" lon="7.20647">
        <ele>815.4</ele>
        <time>2026-03-19T13:20:48Z</time>
      </trkpt>
      <trkpt lat="48.19389" lon="7.20636">
        <ele>815</ele>
        <time>2026-03-19T13:20:53Z</time>
      </trkpt>
      <trkpt lat="48.19388" lon="7.20625">
        <ele>815.4</ele>
        <time>2026-03-19T13:20:58Z</time>
      </trkpt>
      <trkpt lat="48.19387" lon="7.20618">
        <ele>815.6</ele>
        <time>2026-03-19T13:21:03Z</time>
      </trkpt>
      <trkpt lat="48.19385" lon="7.20614">
        <ele>815</ele>
        <time>2026-03-19T13:21:08Z</time>
      </trkpt>
      <trkpt lat="48.19385" lon="7.20613">
        <ele>815.1</ele>
        <time>2026-03-19T13:21:13Z</time>
      </trkpt>
      <trkpt lat="48.19383" lon="7.20609">
        <ele>814.5</ele>
        <time>2026-03-19T13:21:18Z</time>
      </trkpt>
      <trkpt lat="48.19384" lon="7.206">
        <ele>815.7</ele>
        <time>2026-03-19T13:21:23Z</time>
      </trkpt>
      <trkpt lat="48.1938" lon="7.20588">
        <ele>814.9</ele>
        <time>2026-03-19T13:21:28Z</time>
      </trkpt>
      <trkpt lat="48.19379" lon="7.20578">
        <ele>815.1</ele>
        <time>2026-03-19T13:21:33Z</time>
      </trkpt>
      <trkpt lat="48.19376" lon="7.2057">
        <ele>814</ele>
        <time>2026-03-19T13:21:38Z</time>
      </trkpt>
      <trkpt lat="48.19375" lon="7.20562">
        <ele>813.9</ele>
        <time>2026-03-19T13:21:43Z</time>
      </trkpt>
      <trkpt lat="48.19375" lon="7.20555">
        <ele>814.2</ele>
        <time>2026-03-19T13:21:48Z</time>
      </trkpt>
      <trkpt lat="48.19371" lon="7.20542">
        <ele>812.8</ele>
        <time>2026-03-19T13:21:53Z</time>
      </trkpt>
      <trkpt lat="48.19369" lon="7.20532">
        <ele>812.2</ele>
        <time>2026-03-19T13:21:58Z</time>
      </trkpt>
      <trkpt lat="48.1937" lon="7.20522">
        <ele>813.1</ele>
        <time>2026-03-19T13:22:03Z</time>
      </trkpt>
      <trkpt lat="48.19369" lon="7.20511">
        <ele>813</ele>
        <time>2026-03-19T13:22:08Z</time>
      </trkpt>
      <trkpt lat="48.19366" lon="7.205">
        <ele>811.9</ele>
        <time>2026-03-19T13:22:13Z</time>
      </trkpt>
      <trkpt lat="48.19364" lon="7.20491">
        <ele>811.9</ele>
        <time>2026-03-19T13:22:18Z</time>
      </trkpt>
      <trkpt lat="48.19364" lon="7.20482">
        <ele>813</ele>
        <time>2026-03-19T13:22:23Z</time>
      </trkpt>
      <trkpt lat="48.19364" lon="7.20474">
        <ele>814</ele>
        <time>2026-03-19T13:22:28Z</time>
      </trkpt>
      <trkpt lat="48.19362" lon="7.20466">
        <ele>813.9</ele>
        <time>2026-03-19T13:22:33Z</time>
      </trkpt>
      <trkpt lat="48.1936" lon="7.20458">
        <ele>813.8</ele>
        <time>2026-03-19T13:22:38Z</time>
      </trkpt>
      <trkpt lat="48.19358" lon="7.20451">
        <ele>813.5</ele>
        <time>2026-03-19T13:22:43Z</time>
      </trkpt>
      <trkpt lat="48.19358" lon="7.20442">
        <ele>814.6</ele>
        <time>2026-03-19T13:22:48Z</time>
      </trkpt>
      <trkpt lat="48.19358" lon="7.20436">
        <ele>815.3</ele>
        <time>2026-03-19T13:22:53Z</time>
      </trkpt>
      <trkpt lat="48.19356" lon="7.2043">
        <ele>814.9</ele>
        <time>2026-03-19T13:22:58Z</time>
      </trkpt>
      <trkpt lat="48.19356" lon="7.20423">
        <ele>815.8</ele>
        <time>2026-03-19T13:23:03Z</time>
      </trkpt>
      <trkpt lat="48.19353" lon="7.20416">
        <ele>814.9</ele>
        <time>2026-03-19T13:23:08Z</time>
      </trkpt>
      <trkpt lat="48.19351" lon="7.20411">
        <ele>814.3</ele>
        <time>2026-03-19T13:23:13Z</time>
      </trkpt>
      <trkpt lat="48.1935" lon="7.20406">
        <ele>814.2</ele>
        <time>2026-03-19T13:23:18Z</time>
      </trkpt>
      <trkpt lat="48.19347" lon="7.20401">
        <ele>813</ele>
        <time>2026-03-19T13:23:23Z</time>
      </trkpt>
      <trkpt lat="48.19345" lon="7.20395">
        <ele>812.5</ele>
        <time>2026-03-19T13:23:28Z</time>
      </trkpt>
      <trkpt lat="48.19343" lon="7.2039">
        <ele>812</ele>
        <time>2026-03-19T13:23:33Z</time>
      </trkpt>
      <trkpt lat="48.19341" lon="7.20382">
        <ele>811.7</ele>
        <time>2026-03-19T13:23:38Z</time>
      </trkpt>
      <trkpt lat="48.1934" lon="7.20376">
        <ele>811.8</ele>
        <time>2026-03-19T13:23:43Z</time>
      </trkpt>
      <trkpt lat="48.1934" lon="7.2037">
        <ele>812.4</ele>
        <time>2026-03-19T13:23:48Z</time>
      </trkpt>
      <trkpt lat="48.1934" lon="7.20362">
        <ele>813.2</ele>
        <time>2026-03-19T13:23:53Z</time>
      </trkpt>
      <trkpt lat="48.19342" lon="7.20356">
        <ele>814.8</ele>
        <time>2026-03-19T13:23:58Z</time>
      </trkpt>
      <trkpt lat="48.19342" lon="7.20351">
        <ele>815.3</ele>
        <time>2026-03-19T13:24:03Z</time>
      </trkpt>
      <trkpt lat="48.19343" lon="7.20346">
        <ele>816.3</ele>
        <time>2026-03-19T13:24:08Z</time>
      </trkpt>
      <trkpt lat="48.19343" lon="7.20341">
        <ele>816.8</ele>
        <time>2026-03-19T13:24:13Z</time>
      </trkpt>
      <trkpt lat="48.19342" lon="7.20341">
        <ele>816.3</ele>
        <time>2026-03-19T13:24:18Z</time>
      </trkpt>
      <trkpt lat="48.19342" lon="7.20341">
        <ele>816.3</ele>
        <time>2026-03-19T13:24:23Z</time>
      </trkpt>
      <trkpt lat="48.19342" lon="7.20341">
        <ele>816.3</ele>
        <time>2026-03-19T13:24:28Z</time>
      </trkpt>
      <trkpt lat="48.19342" lon="7.20341">
        <ele>816.3</ele>
        <time>2026-03-19T13:24:33Z</time>
      </trkpt>
      <trkpt lat="48.19344" lon="7.20337">
        <ele>817.6</ele>
        <time>2026-03-19T13:24:38Z</time>
      </trkpt>
      <trkpt lat="48.19348" lon="7.20331">
        <ele>819.5</ele>
        <time>2026-03-19T13:24:43Z</time>
      </trkpt>
      <trkpt lat="48.19353" lon="7.20328">
        <ele>821.3</ele>
        <time>2026-03-19T13:24:48Z</time>
      </trkpt>
      <trkpt lat="48.19358" lon="7.20327">
        <ele>823.4</ele>
        <time>2026-03-19T13:24:53Z</time>
      </trkpt>
      <trkpt lat="48.19361" lon="7.20328">
        <ele>825</ele>
        <time>2026-03-19T13:24:58Z</time>
      </trkpt>
      <trkpt lat="48.19365" lon="7.2033">
        <ele>827.2</ele>
        <time>2026-03-19T13:25:03Z</time>
      </trkpt>
      <trkpt lat="48.19371" lon="7.20332">
        <ele>830.4</ele>
        <time>2026-03-19T13:25:08Z</time>
      </trkpt>
      <trkpt lat="48.19377" lon="7.20334">
        <ele>833.4</ele>
        <time>2026-03-19T13:25:13Z</time>
      </trkpt>
      <trkpt lat="48.19382" lon="7.20336">
        <ele>835.6</ele>
        <time>2026-03-19T13:25:18Z</time>
      </trkpt>
      <trkpt lat="48.19386" lon="7.20339">
        <ele>837.3</ele>
        <time>2026-03-19T13:25:23Z</time>
      </trkpt>
      <trkpt lat="48.19393" lon="7.2034">
        <ele>840.6</ele>
        <time>2026-03-19T13:25:28Z</time>
      </trkpt>
      <trkpt lat="48.19398" lon="7.20342">
        <ele>842.9</ele>
        <time>2026-03-19T13:25:33Z</time>
      </trkpt>
      <trkpt lat="48.19401" lon="7.20343">
        <ele>844.3</ele>
        <time>2026-03-19T13:25:38Z</time>
      </trkpt>
      <trkpt lat="48.19405" lon="7.20345">
        <ele>846.1</ele>
        <time>2026-03-19T13:25:43Z</time>
      </trkpt>
      <trkpt lat="48.19408" lon="7.20347">
        <ele>847.5</ele>
        <time>2026-03-19T13:25:48Z</time>
      </trkpt>
      <trkpt lat="48.19412" lon="7.20349">
        <ele>849.4</ele>
        <time>2026-03-19T13:25:53Z</time>
      </trkpt>
      <trkpt lat="48.19416" lon="7.20349">
        <ele>851.3</ele>
        <time>2026-03-19T13:25:58Z</time>
      </trkpt>
      <trkpt lat="48.1942" lon="7.2035">
        <ele>852.5</ele>
        <time>2026-03-19T13:26:03Z</time>
      </trkpt>
      <trkpt lat="48.19425" lon="7.20349">
        <ele>853.8</ele>
        <time>2026-03-19T13:26:08Z</time>
      </trkpt>
      <trkpt lat="48.1943" lon="7.20347">
        <ele>855.1</ele>
        <time>2026-03-19T13:26:13Z</time>
      </trkpt>
      <trkpt lat="48.19434" lon="7.20344">
        <ele>856.1</ele>
        <time>2026-03-19T13:26:18Z</time>
      </trkpt>
      <trkpt lat="48.19438" lon="7.20343">
        <ele>857.1</ele>
        <time>2026-03-19T13:26:23Z</time>
      </trkpt>
      <trkpt lat="48.1944" lon="7.20341">
        <ele>857.5</ele>
        <time>2026-03-19T13:26:28Z</time>
      </trkpt>
      <trkpt lat="48.19443" lon="7.2034">
        <ele>858.2</ele>
        <time>2026-03-19T13:26:33Z</time>
      </trkpt>
      <trkpt lat="48.19445" lon="7.20338">
        <ele>858.7</ele>
        <time>2026-03-19T13:26:38Z</time>
      </trkpt>
      <trkpt lat="48.19447" lon="7.20335">
        <ele>859</ele>
        <time>2026-03-19T13:26:43Z</time>
      </trkpt>
      <trkpt lat="48.19452" lon="7.20332">
        <ele>859.8</ele>
        <time>2026-03-19T13:26:48Z</time>
      </trkpt>
      <trkpt lat="48.19456" lon="7.2033">
        <ele>860.2</ele>
        <time>2026-03-19T13:26:53Z</time>
      </trkpt>
      <trkpt lat="48.19461" lon="7.2033">
        <ele>861.3</ele>
        <time>2026-03-19T13:26:58Z</time>
      </trkpt>
      <trkpt lat="48.19465" lon="7.20329">
        <ele>862</ele>
        <time>2026-03-19T13:27:03Z</time>
      </trkpt>
      <trkpt lat="48.19468" lon="7.20329">
        <ele>862.7</ele>
        <time>2026-03-19T13:27:08Z</time>
      </trkpt>
      <trkpt lat="48.19472" lon="7.20328">
        <ele>863.3</ele>
        <time>2026-03-19T13:27:13Z</time>
      </trkpt>
      <trkpt lat="48.19476" lon="7.20328">
        <ele>864.2</ele>
        <time>2026-03-19T13:27:18Z</time>
      </trkpt>
      <trkpt lat="48.1948" lon="7.20327">
        <ele>864.9</ele>
        <time>2026-03-19T13:27:23Z</time>
      </trkpt>
      <trkpt lat="48.19485" lon="7.20328">
        <ele>866.2</ele>
        <time>2026-03-19T13:27:28Z</time>
      </trkpt>
      <trkpt lat="48.19489" lon="7.20327">
        <ele>866.9</ele>
        <time>2026-03-19T13:27:33Z</time>
      </trkpt>
      <trkpt lat="48.19493" lon="7.20327">
        <ele>867.8</ele>
        <time>2026-03-19T13:27:38Z</time>
      </trkpt>
      <trkpt lat="48.19497" lon="7.20326">
        <ele>868.4</ele>
        <time>2026-03-19T13:27:43Z</time>
      </trkpt>
      <trkpt lat="48.195" lon="7.20324">
        <ele>868.5</ele>
        <time>2026-03-19T13:27:48Z</time>
      </trkpt>
      <trkpt lat="48.19504" lon="7.20325">
        <ele>869.4</ele>
        <time>2026-03-19T13:27:53Z</time>
      </trkpt>
      <trkpt lat="48.19508" lon="7.20327">
        <ele>870.6</ele>
        <time>2026-03-19T13:27:58Z</time>
      </trkpt>
      <trkpt lat="48.19513" lon="7.2033">
        <ele>872.3</ele>
        <time>2026-03-19T13:28:03Z</time>
      </trkpt>
      <trkpt lat="48.19515" lon="7.20331">
        <ele>872.9</ele>
        <time>2026-03-19T13:28:08Z</time>
      </trkpt>
      <trkpt lat="48.19518" lon="7.20332">
        <ele>873.7</ele>
        <time>2026-03-19T13:28:13Z</time>
      </trkpt>
      <trkpt lat="48.19523" lon="7.20335">
        <ele>875.2</ele>
        <time>2026-03-19T13:28:18Z</time>
      </trkpt>
      <trkpt lat="48.19525" lon="7.20341">
        <ele>876.7</ele>
        <time>2026-03-19T13:28:23Z</time>
      </trkpt>
      <trkpt lat="48.19529" lon="7.20342">
        <ele>877.5</ele>
        <time>2026-03-19T13:28:28Z</time>
      </trkpt>
      <trkpt lat="48.19534" lon="7.20345">
        <ele>879</ele>
        <time>2026-03-19T13:28:33Z</time>
      </trkpt>
      <trkpt lat="48.19538" lon="7.2035">
        <ele>880.7</ele>
        <time>2026-03-19T13:28:38Z</time>
      </trkpt>
      <trkpt lat="48.1954" lon="7.20357">
        <ele>882.5</ele>
        <time>2026-03-19T13:28:43Z</time>
      </trkpt>
      <trkpt lat="48.19542" lon="7.20361">
        <ele>883.7</ele>
        <time>2026-03-19T13:28:48Z</time>
      </trkpt>
      <trkpt lat="48.19545" lon="7.20367">
        <ele>885.5</ele>
        <time>2026-03-19T13:28:53Z</time>
      </trkpt>
      <trkpt lat="48.19547" lon="7.20373">
        <ele>887.2</ele>
        <time>2026-03-19T13:28:58Z</time>
      </trkpt>
      <trkpt lat="48.19551" lon="7.20376">
        <ele>888.6</ele>
        <time>2026-03-19T13:29:03Z</time>
      </trkpt>
      <trkpt lat="48.19554" lon="7.2038">
        <ele>890.1</ele>
        <time>2026-03-19T13:29:08Z</time>
      </trkpt>
      <trkpt lat="48.19557" lon="7.20377">
        <ele>890.1</ele>
        <time>2026-03-19T13:29:13Z</time>
      </trkpt>
      <trkpt lat="48.19557" lon="7.20378">
        <ele>890.3</ele>
        <time>2026-03-19T13:29:18Z</time>
      </trkpt>
      <trkpt lat="48.19557" lon="7.20378">
        <ele>890.3</ele>
        <time>2026-03-19T13:29:23Z</time>
      </trkpt>
      <trkpt lat="48.19557" lon="7.20378">
        <ele>890.3</ele>
        <time>2026-03-19T13:29:28Z</time>
      </trkpt>
      <trkpt lat="48.19557" lon="7.20378">
        <ele>890.3</ele>
        <time>2026-03-19T13:29:33Z</time>
      </trkpt>
      <trkpt lat="48.19557" lon="7.20378">
        <ele>890.3</ele>
        <time>2026-03-19T13:29:38Z</time>
      </trkpt>
      <trkpt lat="48.19557" lon="7.20378">
        <ele>890.3</ele>
        <time>2026-03-19T13:29:43Z</time>
      </trkpt>
      <trkpt lat="48.19557" lon="7.20378">
        <ele>890.3</ele>
        <time>2026-03-19T13:29:48Z</time>
      </trkpt>
      <trkpt lat="48.19557" lon="7.20378">
        <ele>890.3</ele>
        <time>2026-03-19T13:29:53Z</time>
      </trkpt>
      <trkpt lat="48.19557" lon="7.20378">
        <ele>890.3</ele>
        <time>2026-03-19T13:29:58Z</time>
      </trkpt>
      <trkpt lat="48.19557" lon="7.20378">
        <ele>890.3</ele>
        <time>2026-03-19T13:30:03Z</time>
      </trkpt>
      <trkpt lat="48.19557" lon="7.20378">
        <ele>890.3</ele>
        <time>2026-03-19T13:30:08Z</time>
      </trkpt>
      <trkpt lat="48.19557" lon="7.20378">
        <ele>890.3</ele>
        <time>2026-03-19T13:30:13Z</time>
      </trkpt>
      <trkpt lat="48.19557" lon="7.20378">
        <ele>890.3</ele>
        <time>2026-03-19T13:30:18Z</time>
      </trkpt>
      <trkpt lat="48.19569" lon="7.20378">
        <ele>892.8</ele>
        <time>2026-03-19T13:30:23Z</time>
      </trkpt>
      <trkpt lat="48.19575" lon="7.20373">
        <ele>892.8</ele>
        <time>2026-03-19T13:30:28Z</time>
      </trkpt>
      <trkpt lat="48.1956" lon="7.20371">
        <ele>889.4</ele>
        <time>2026-03-19T13:30:33Z</time>
      </trkpt>
      <trkpt lat="48.19556" lon="7.20371">
        <ele>888.6</ele>
        <time>2026-03-19T13:30:38Z</time>
      </trkpt>
      <trkpt lat="48.19556" lon="7.20371">
        <ele>888.6</ele>
        <time>2026-03-19T13:30:43Z</time>
      </trkpt>
      <trkpt lat="48.19556" lon="7.20371">
        <ele>888.6</ele>
        <time>2026-03-19T13:30:48Z</time>
      </trkpt>
      <trkpt lat="48.19556" lon="7.20371">
        <ele>888.6</ele>
        <time>2026-03-19T13:30:53Z</time>
      </trkpt>
      <trkpt lat="48.19556" lon="7.20371">
        <ele>888.6</ele>
        <time>2026-03-19T13:30:58Z</time>
      </trkpt>
      <trkpt lat="48.19556" lon="7.20371">
        <ele>888.6</ele>
        <time>2026-03-19T13:31:03Z</time>
      </trkpt>
      <trkpt lat="48.19556" lon="7.20371">
        <ele>888.6</ele>
        <time>2026-03-19T13:31:08Z</time>
      </trkpt>
      <trkpt lat="48.19556" lon="7.20371">
        <ele>888.6</ele>
        <time>2026-03-19T13:31:13Z</time>
      </trkpt>
      <trkpt lat="48.19556" lon="7.20371">
        <ele>888.6</ele>
        <time>2026-03-19T13:31:18Z</time>
      </trkpt>
      <trkpt lat="48.19564" lon="7.20379">
        <ele>891.9</ele>
        <time>2026-03-19T13:31:23Z</time>
      </trkpt>
      <trkpt lat="48.19565" lon="7.20386">
        <ele>893.7</ele>
        <time>2026-03-19T13:31:28Z</time>
      </trkpt>
      <trkpt lat="48.19568" lon="7.20392">
        <ele>895.7</ele>
        <time>2026-03-19T13:31:33Z</time>
      </trkpt>
      <trkpt lat="48.19571" lon="7.20395">
        <ele>897.1</ele>
        <time>2026-03-19T13:31:38Z</time>
      </trkpt>
      <trkpt lat="48.19573" lon="7.20398">
        <ele>898.2</ele>
        <time>2026-03-19T13:31:43Z</time>
      </trkpt>
      <trkpt lat="48.19574" lon="7.20403">
        <ele>899.6</ele>
        <time>2026-03-19T13:31:48Z</time>
      </trkpt>
      <trkpt lat="48.19576" lon="7.20408">
        <ele>901.2</ele>
        <time>2026-03-19T13:31:53Z</time>
      </trkpt>
      <trkpt lat="48.1958" lon="7.20411">
        <ele>902.9</ele>
        <time>2026-03-19T13:31:58Z</time>
      </trkpt>
      <trkpt lat="48.19586" lon="7.20412">
        <ele>904.2</ele>
        <time>2026-03-19T13:32:03Z</time>
      </trkpt>
      <trkpt lat="48.1959" lon="7.20417">
        <ele>905.8</ele>
        <time>2026-03-19T13:32:08Z</time>
      </trkpt>
      <trkpt lat="48.19593" lon="7.2042">
        <ele>906.5</ele>
        <time>2026-03-19T13:32:13Z</time>
      </trkpt>
      <trkpt lat="48.19595" lon="7.20423">
        <ele>907.2</ele>
        <time>2026-03-19T13:32:18Z</time>
      </trkpt>
      <trkpt lat="48.19599" lon="7.20426">
        <ele>908.2</ele>
        <time>2026-03-19T13:32:23Z</time>
      </trkpt>
      <trkpt lat="48.19604" lon="7.20428">
        <ele>909.1</ele>
        <time>2026-03-19T13:32:28Z</time>
      </trkpt>
      <trkpt lat="48.1961" lon="7.20431">
        <ele>910.4</ele>
        <time>2026-03-19T13:32:33Z</time>
      </trkpt>
      <trkpt lat="48.19614" lon="7.20431">
        <ele>910.9</ele>
        <time>2026-03-19T13:32:38Z</time>
      </trkpt>
      <trkpt lat="48.19619" lon="7.20433">
        <ele>911.9</ele>
        <time>2026-03-19T13:32:43Z</time>
      </trkpt>
      <trkpt lat="48.19625" lon="7.20433">
        <ele>912.7</ele>
        <time>2026-03-19T13:32:48Z</time>
      </trkpt>
      <trkpt lat="48.19629" lon="7.20433">
        <ele>913.3</ele>
        <time>2026-03-19T13:32:53Z</time>
      </trkpt>
      <trkpt lat="48.19633" lon="7.20434">
        <ele>914</ele>
        <time>2026-03-19T13:32:58Z</time>
      </trkpt>
      <trkpt lat="48.19636" lon="7.20436">
        <ele>914.9</ele>
        <time>2026-03-19T13:33:03Z</time>
      </trkpt>
      <trkpt lat="48.19639" lon="7.20438">
        <ele>915.7</ele>
        <time>2026-03-19T13:33:08Z</time>
      </trkpt>
      <trkpt lat="48.19642" lon="7.2044">
        <ele>916.6</ele>
        <time>2026-03-19T13:33:13Z</time>
      </trkpt>
      <trkpt lat="48.19647" lon="7.2044">
        <ele>917.3</ele>
        <time>2026-03-19T13:33:18Z</time>
      </trkpt>
      <trkpt lat="48.19652" lon="7.2044">
        <ele>918</ele>
        <time>2026-03-19T13:33:23Z</time>
      </trkpt>
      <trkpt lat="48.19657" lon="7.2044">
        <ele>918.8</ele>
        <time>2026-03-19T13:33:28Z</time>
      </trkpt>
      <trkpt lat="48.19661" lon="7.20441">
        <ele>919.6</ele>
        <time>2026-03-19T13:33:33Z</time>
      </trkpt>
      <trkpt lat="48.19665" lon="7.20442">
        <ele>920.4</ele>
        <time>2026-03-19T13:33:38Z</time>
      </trkpt>
      <trkpt lat="48.19668" lon="7.20444">
        <ele>921.3</ele>
        <time>2026-03-19T13:33:43Z</time>
      </trkpt>
      <trkpt lat="48.19672" lon="7.20448">
        <ele>922.6</ele>
        <time>2026-03-19T13:33:48Z</time>
      </trkpt>
      <trkpt lat="48.19676" lon="7.20451">
        <ele>923.7</ele>
        <time>2026-03-19T13:33:53Z</time>
      </trkpt>
      <trkpt lat="48.19681" lon="7.20451">
        <ele>924</ele>
        <time>2026-03-19T13:33:58Z</time>
      </trkpt>
      <trkpt lat="48.19687" lon="7.20448">
        <ele>923.6</ele>
        <time>2026-03-19T13:34:03Z</time>
      </trkpt>
      <trkpt lat="48.1969" lon="7.20449">
        <ele>924.1</ele>
        <time>2026-03-19T13:34:08Z</time>
      </trkpt>
      <trkpt lat="48.19695" lon="7.2045">
        <ele>924.7</ele>
        <time>2026-03-19T13:34:13Z</time>
      </trkpt>
      <trkpt lat="48.19698" lon="7.2045">
        <ele>924.9</ele>
        <time>2026-03-19T13:34:18Z</time>
      </trkpt>
      <trkpt lat="48.19702" lon="7.20451">
        <ele>925.5</ele>
        <time>2026-03-19T13:34:23Z</time>
      </trkpt>
      <trkpt lat="48.19706" lon="7.20452">
        <ele>926</ele>
        <time>2026-03-19T13:34:28Z</time>
      </trkpt>
      <trkpt lat="48.19711" lon="7.20453">
        <ele>926.6</ele>
        <time>2026-03-19T13:34:33Z</time>
      </trkpt>
      <trkpt lat="48.19714" lon="7.20457">
        <ele>928</ele>
        <time>2026-03-19T13:34:38Z</time>
      </trkpt>
      <trkpt lat="48.19718" lon="7.2046">
        <ele>929.2</ele>
        <time>2026-03-19T13:34:43Z</time>
      </trkpt>
      <trkpt lat="48.1972" lon="7.20461">
        <ele>929.6</ele>
        <time>2026-03-19T13:34:48Z</time>
      </trkpt>
      <trkpt lat="48.19723" lon="7.20464">
        <ele>930.7</ele>
        <time>2026-03-19T13:34:53Z</time>
      </trkpt>
      <trkpt lat="48.19726" lon="7.20466">
        <ele>931.6</ele>
        <time>2026-03-19T13:34:58Z</time>
      </trkpt>
      <trkpt lat="48.19731" lon="7.20467">
        <ele>932.2</ele>
        <time>2026-03-19T13:35:03Z</time>
      </trkpt>
      <trkpt lat="48.19733" lon="7.20468">
        <ele>932.7</ele>
        <time>2026-03-19T13:35:08Z</time>
      </trkpt>
      <trkpt lat="48.19738" lon="7.20469">
        <ele>933.4</ele>
        <time>2026-03-19T13:35:13Z</time>
      </trkpt>
      <trkpt lat="48.19742" lon="7.20471">
        <ele>934.3</ele>
        <time>2026-03-19T13:35:18Z</time>
      </trkpt>
      <trkpt lat="48.19745" lon="7.20474">
        <ele>935.5</ele>
        <time>2026-03-19T13:35:23Z</time>
      </trkpt>
      <trkpt lat="48.19751" lon="7.20476">
        <ele>936.6</ele>
        <time>2026-03-19T13:35:28Z</time>
      </trkpt>
      <trkpt lat="48.19755" lon="7.20478">
        <ele>937.4</ele>
        <time>2026-03-19T13:35:33Z</time>
      </trkpt>
      <trkpt lat="48.1976" lon="7.2048">
        <ele>938.2</ele>
        <time>2026-03-19T13:35:38Z</time>
      </trkpt>
      <trkpt lat="48.19763" lon="7.2048">
        <ele>938.3</ele>
        <time>2026-03-19T13:35:43Z</time>
      </trkpt>
      <trkpt lat="48.19767" lon="7.2048">
        <ele>938.5</ele>
        <time>2026-03-19T13:35:48Z</time>
      </trkpt>
      <trkpt lat="48.1977" lon="7.20483">
        <ele>939.6</ele>
        <time>2026-03-19T13:35:53Z</time>
      </trkpt>
      <trkpt lat="48.19775" lon="7.20483">
        <ele>939.8</ele>
        <time>2026-03-19T13:35:58Z</time>
      </trkpt>
      <trkpt lat="48.19781" lon="7.20482">
        <ele>939.8</ele>
        <time>2026-03-19T13:36:03Z</time>
      </trkpt>
      <trkpt lat="48.19786" lon="7.20482">
        <ele>940</ele>
        <time>2026-03-19T13:36:08Z</time>
      </trkpt>
      <trkpt lat="48.19789" lon="7.20483">
        <ele>940.5</ele>
        <time>2026-03-19T13:36:13Z</time>
      </trkpt>
      <trkpt lat="48.19789" lon="7.20483">
        <ele>940.5</ele>
        <time>2026-03-19T13:36:18Z</time>
      </trkpt>
      <trkpt lat="48.19789" lon="7.20483">
        <ele>940.5</ele>
        <time>2026-03-19T13:36:23Z</time>
      </trkpt>
      <trkpt lat="48.19789" lon="7.20483">
        <ele>940.5</ele>
        <time>2026-03-19T13:36:28Z</time>
      </trkpt>
      <trkpt lat="48.19789" lon="7.20483">
        <ele>940.5</ele>
        <time>2026-03-19T13:36:33Z</time>
      </trkpt>
      <trkpt lat="48.19792" lon="7.20487">
        <ele>941.9</ele>
        <time>2026-03-19T13:36:38Z</time>
      </trkpt>
      <trkpt lat="48.19799" lon="7.20488">
        <ele>942.5</ele>
        <time>2026-03-19T13:36:43Z</time>
      </trkpt>
      <trkpt lat="48.19805" lon="7.2049">
        <ele>943.4</ele>
        <time>2026-03-19T13:36:48Z</time>
      </trkpt>
      <trkpt lat="48.19807" lon="7.20493">
        <ele>944.5</ele>
        <time>2026-03-19T13:36:53Z</time>
      </trkpt>
      <trkpt lat="48.19813" lon="7.20495">
        <ele>945.4</ele>
        <time>2026-03-19T13:36:58Z</time>
      </trkpt>
      <trkpt lat="48.19817" lon="7.20497">
        <ele>946.3</ele>
        <time>2026-03-19T13:37:03Z</time>
      </trkpt>
      <trkpt lat="48.19821" lon="7.20498">
        <ele>946.8</ele>
        <time>2026-03-19T13:37:08Z</time>
      </trkpt>
      <trkpt lat="48.19825" lon="7.205">
        <ele>947.6</ele>
        <time>2026-03-19T13:37:13Z</time>
      </trkpt>
      <trkpt lat="48.19829" lon="7.205">
        <ele>947.8</ele>
        <time>2026-03-19T13:37:18Z</time>
      </trkpt>
      <trkpt lat="48.19832" lon="7.20502">
        <ele>948.7</ele>
        <time>2026-03-19T13:37:23Z</time>
      </trkpt>
      <trkpt lat="48.19835" lon="7.20504">
        <ele>949.5</ele>
        <time>2026-03-19T13:37:28Z</time>
      </trkpt>
      <trkpt lat="48.19838" lon="7.20506">
        <ele>950.4</ele>
        <time>2026-03-19T13:37:33Z</time>
      </trkpt>
      <trkpt lat="48.1984" lon="7.20505">
        <ele>950.1</ele>
        <time>2026-03-19T13:37:38Z</time>
      </trkpt>
      <trkpt lat="48.19845" lon="7.20505">
        <ele>950.3</ele>
        <time>2026-03-19T13:37:43Z</time>
      </trkpt>
      <trkpt lat="48.19851" lon="7.20505">
        <ele>950.6</ele>
        <time>2026-03-19T13:37:48Z</time>
      </trkpt>
      <trkpt lat="48.19854" lon="7.20505">
        <ele>950.7</ele>
        <time>2026-03-19T13:37:53Z</time>
      </trkpt>
      <trkpt lat="48.19858" lon="7.20505">
        <ele>950.9</ele>
        <time>2026-03-19T13:37:58Z</time>
      </trkpt>
      <trkpt lat="48.19864" lon="7.20507">
        <ele>951.9</ele>
        <time>2026-03-19T13:38:03Z</time>
      </trkpt>
      <trkpt lat="48.19865" lon="7.20504">
        <ele>950.9</ele>
        <time>2026-03-19T13:38:08Z</time>
      </trkpt>
      <trkpt lat="48.19864" lon="7.20503">
        <ele>950.5</ele>
        <time>2026-03-19T13:38:13Z</time>
      </trkpt>
      <trkpt lat="48.19864" lon="7.20503">
        <ele>950.5</ele>
        <time>2026-03-19T13:38:18Z</time>
      </trkpt>
      <trkpt lat="48.19864" lon="7.20503">
        <ele>950.5</ele>
        <time>2026-03-19T13:38:23Z</time>
      </trkpt>
      <trkpt lat="48.19864" lon="7.20503">
        <ele>950.5</ele>
        <time>2026-03-19T13:38:28Z</time>
      </trkpt>
      <trkpt lat="48.19864" lon="7.20503">
        <ele>950.5</ele>
        <time>2026-03-19T13:38:33Z</time>
      </trkpt>
      <trkpt lat="48.19864" lon="7.20503">
        <ele>950.5</ele>
        <time>2026-03-19T13:38:38Z</time>
      </trkpt>
      <trkpt lat="48.19864" lon="7.20503">
        <ele>950.5</ele>
        <time>2026-03-19T13:38:43Z</time>
      </trkpt>
      <trkpt lat="48.19864" lon="7.20503">
        <ele>950.5</ele>
        <time>2026-03-19T13:38:48Z</time>
      </trkpt>
      <trkpt lat="48.19864" lon="7.20503">
        <ele>950.5</ele>
        <time>2026-03-19T13:38:53Z</time>
      </trkpt>
      <trkpt lat="48.19873" lon="7.20501">
        <ele>950.2</ele>
        <time>2026-03-19T13:38:58Z</time>
      </trkpt>
      <trkpt lat="48.19881" lon="7.20502">
        <ele>951</ele>
        <time>2026-03-19T13:39:03Z</time>
      </trkpt>
      <trkpt lat="48.19891" lon="7.20502">
        <ele>951.4</ele>
        <time>2026-03-19T13:39:08Z</time>
      </trkpt>
      <trkpt lat="48.19901" lon="7.20499">
        <ele>951</ele>
        <time>2026-03-19T13:39:13Z</time>
      </trkpt>
      <trkpt lat="48.19907" lon="7.20497">
        <ele>950.7</ele>
        <time>2026-03-19T13:39:18Z</time>
      </trkpt>
      <trkpt lat="48.1991" lon="7.20497">
        <ele>950.8</ele>
        <time>2026-03-19T13:39:23Z</time>
      </trkpt>
      <trkpt lat="48.19911" lon="7.20496">
        <ele>950.6</ele>
        <time>2026-03-19T13:39:28Z</time>
      </trkpt>
      <trkpt lat="48.19913" lon="7.20496">
        <ele>950.7</ele>
        <time>2026-03-19T13:39:33Z</time>
      </trkpt>
      <trkpt lat="48.19916" lon="7.20494">
        <ele>950.3</ele>
        <time>2026-03-19T13:39:38Z</time>
      </trkpt>
      <trkpt lat="48.19919" lon="7.20493">
        <ele>950.5</ele>
        <time>2026-03-19T13:39:43Z</time>
      </trkpt>
      <trkpt lat="48.19922" lon="7.20489">
        <ele>950</ele>
        <time>2026-03-19T13:39:48Z</time>
      </trkpt>
      <trkpt lat="48.19927" lon="7.20486">
        <ele>950.2</ele>
        <time>2026-03-19T13:39:53Z</time>
      </trkpt>
      <trkpt lat="48.19933" lon="7.20482">
        <ele>950.3</ele>
        <time>2026-03-19T13:39:58Z</time>
      </trkpt>
      <trkpt lat="48.19939" lon="7.2048">
        <ele>951</ele>
        <time>2026-03-19T13:40:03Z</time>
      </trkpt>
      <trkpt lat="48.19943" lon="7.20478">
        <ele>951.3</ele>
        <time>2026-03-19T13:40:08Z</time>
      </trkpt>
      <trkpt lat="48.19946" lon="7.20477">
        <ele>951.7</ele>
        <time>2026-03-19T13:40:13Z</time>
      </trkpt>
      <trkpt lat="48.1995" lon="7.20475">
        <ele>952</ele>
        <time>2026-03-19T13:40:18Z</time>
      </trkpt>
      <trkpt lat="48.19953" lon="7.20473">
        <ele>952.1</ele>
        <time>2026-03-19T13:40:23Z</time>
      </trkpt>
      <trkpt lat="48.19956" lon="7.20471">
        <ele>952.2</ele>
        <time>2026-03-19T13:40:28Z</time>
      </trkpt>
      <trkpt lat="48.1996" lon="7.20469">
        <ele>952.5</ele>
        <time>2026-03-19T13:40:33Z</time>
      </trkpt>
      <trkpt lat="48.19964" lon="7.20467">
        <ele>952.9</ele>
        <time>2026-03-19T13:40:38Z</time>
      </trkpt>
      <trkpt lat="48.19969" lon="7.20463">
        <ele>953</ele>
        <time>2026-03-19T13:40:43Z</time>
      </trkpt>
      <trkpt lat="48.19975" lon="7.20458">
        <ele>953</ele>
        <time>2026-03-19T13:40:48Z</time>
      </trkpt>
      <trkpt lat="48.1998" lon="7.20456">
        <ele>953.6</ele>
        <time>2026-03-19T13:40:53Z</time>
      </trkpt>
      <trkpt lat="48.19985" lon="7.20453">
        <ele>954</ele>
        <time>2026-03-19T13:40:58Z</time>
      </trkpt>
      <trkpt lat="48.1999" lon="7.20446">
        <ele>953.5</ele>
        <time>2026-03-19T13:41:03Z</time>
      </trkpt>
      <trkpt lat="48.19995" lon="7.20444">
        <ele>954.1</ele>
        <time>2026-03-19T13:41:08Z</time>
      </trkpt>
      <trkpt lat="48.19996" lon="7.2044">
        <ele>953.4</ele>
        <time>2026-03-19T13:41:13Z</time>
      </trkpt>
      <trkpt lat="48.19998" lon="7.20436">
        <ele>953</ele>
        <time>2026-03-19T13:41:18Z</time>
      </trkpt>
      <trkpt lat="48.2" lon="7.20431">
        <ele>952.3</ele>
        <time>2026-03-19T13:41:23Z</time>
      </trkpt>
      <trkpt lat="48.20002" lon="7.20425">
        <ele>951.6</ele>
        <time>2026-03-19T13:41:28Z</time>
      </trkpt>
      <trkpt lat="48.20004" lon="7.20421">
        <ele>951.3</ele>
        <time>2026-03-19T13:41:33Z</time>
      </trkpt>
      <trkpt lat="48.20006" lon="7.20413">
        <ele>950.4</ele>
        <time>2026-03-19T13:41:38Z</time>
      </trkpt>
      <trkpt lat="48.20009" lon="7.20402">
        <ele>949.5</ele>
        <time>2026-03-19T13:41:43Z</time>
      </trkpt>
      <trkpt lat="48.20009" lon="7.20393">
        <ele>947.9</ele>
        <time>2026-03-19T13:41:48Z</time>
      </trkpt>
      <trkpt lat="48.20011" lon="7.20387">
        <ele>947.6</ele>
        <time>2026-03-19T13:41:53Z</time>
      </trkpt>
      <trkpt lat="48.20013" lon="7.20378">
        <ele>946.8</ele>
        <time>2026-03-19T13:41:58Z</time>
      </trkpt>
      <trkpt lat="48.20016" lon="7.20373">
        <ele>947.1</ele>
        <time>2026-03-19T13:42:03Z</time>
      </trkpt>
      <trkpt lat="48.20019" lon="7.20367">
        <ele>947.3</ele>
        <time>2026-03-19T13:42:08Z</time>
      </trkpt>
      <trkpt lat="48.20019" lon="7.2036">
        <ele>946.1</ele>
        <time>2026-03-19T13:42:13Z</time>
      </trkpt>
      <trkpt lat="48.20022" lon="7.20355">
        <ele>946.5</ele>
        <time>2026-03-19T13:42:18Z</time>
      </trkpt>
      <trkpt lat="48.20024" lon="7.20348">
        <ele>946.1</ele>
        <time>2026-03-19T13:42:23Z</time>
      </trkpt>
      <trkpt lat="48.20027" lon="7.20341">
        <ele>946.2</ele>
        <time>2026-03-19T13:42:28Z</time>
      </trkpt>
      <trkpt lat="48.2003" lon="7.20335">
        <ele>946.5</ele>
        <time>2026-03-19T13:42:33Z</time>
      </trkpt>
      <trkpt lat="48.20033" lon="7.20326">
        <ele>947.1</ele>
        <time>2026-03-19T13:42:38Z</time>
      </trkpt>
      <trkpt lat="48.20036" lon="7.20318">
        <ele>947.9</ele>
        <time>2026-03-19T13:42:43Z</time>
      </trkpt>
      <trkpt lat="48.20041" lon="7.20311">
        <ele>949.8</ele>
        <time>2026-03-19T13:42:48Z</time>
      </trkpt>
      <trkpt lat="48.20041" lon="7.20306">
        <ele>949.6</ele>
        <time>2026-03-19T13:42:53Z</time>
      </trkpt>
      <trkpt lat="48.20043" lon="7.20301">
        <ele>950.2</ele>
        <time>2026-03-19T13:42:58Z</time>
      </trkpt>
      <trkpt lat="48.20045" lon="7.20294">
        <ele>950.9</ele>
        <time>2026-03-19T13:43:03Z</time>
      </trkpt>
      <trkpt lat="48.20046" lon="7.20285">
        <ele>951</ele>
        <time>2026-03-19T13:43:08Z</time>
      </trkpt>
      <trkpt lat="48.20046" lon="7.20283">
        <ele>950.9</ele>
        <time>2026-03-19T13:43:13Z</time>
      </trkpt>
      <trkpt lat="48.20045" lon="7.20284">
        <ele>950.5</ele>
        <time>2026-03-19T13:43:18Z</time>
      </trkpt>
      <trkpt lat="48.20045" lon="7.20284">
        <ele>950.5</ele>
        <time>2026-03-19T13:43:23Z</time>
      </trkpt>
      <trkpt lat="48.20045" lon="7.20284">
        <ele>950.5</ele>
        <time>2026-03-19T13:43:28Z</time>
      </trkpt>
      <trkpt lat="48.20042" lon="7.20274">
        <ele>948.7</ele>
        <time>2026-03-19T13:43:33Z</time>
      </trkpt>
      <trkpt lat="48.20042" lon="7.2027">
        <ele>948.5</ele>
        <time>2026-03-19T13:43:38Z</time>
      </trkpt>
      <trkpt lat="48.20042" lon="7.20268">
        <ele>948.4</ele>
        <time>2026-03-19T13:43:43Z</time>
      </trkpt>
      <trkpt lat="48.20042" lon="7.20264">
        <ele>948.3</ele>
        <time>2026-03-19T13:43:48Z</time>
      </trkpt>
      <trkpt lat="48.2004" lon="7.20258">
        <ele>947</ele>
        <time>2026-03-19T13:43:53Z</time>
      </trkpt>
      <trkpt lat="48.2004" lon="7.20247">
        <ele>947</ele>
        <time>2026-03-19T13:43:58Z</time>
      </trkpt>
      <trkpt lat="48.20041" lon="7.20239">
        <ele>948.6</ele>
        <time>2026-03-19T13:44:03Z</time>
      </trkpt>
      <trkpt lat="48.20042" lon="7.20232">
        <ele>950</ele>
        <time>2026-03-19T13:44:08Z</time>
      </trkpt>
      <trkpt lat="48.2004" lon="7.20225">
        <ele>949.9</ele>
        <time>2026-03-19T13:44:13Z</time>
      </trkpt>
      <trkpt lat="48.2004" lon="7.20217">
        <ele>951</ele>
        <time>2026-03-19T13:44:18Z</time>
      </trkpt>
      <trkpt lat="48.2004" lon="7.20209">
        <ele>952</ele>
        <time>2026-03-19T13:44:23Z</time>
      </trkpt>
      <trkpt lat="48.20039" lon="7.20199">
        <ele>952.8</ele>
        <time>2026-03-19T13:44:28Z</time>
      </trkpt>
      <trkpt lat="48.20035" lon="7.20191">
        <ele>951.7</ele>
        <time>2026-03-19T13:44:33Z</time>
      </trkpt>
      <trkpt lat="48.20036" lon="7.20183">
        <ele>953.3</ele>
        <time>2026-03-19T13:44:38Z</time>
      </trkpt>
      <trkpt lat="48.20036" lon="7.20175">
        <ele>954.4</ele>
        <time>2026-03-19T13:44:43Z</time>
      </trkpt>
      <trkpt lat="48.20034" lon="7.20168">
        <ele>954.2</ele>
        <time>2026-03-19T13:44:48Z</time>
      </trkpt>
      <trkpt lat="48.20032" lon="7.2016">
        <ele>954.4</ele>
        <time>2026-03-19T13:44:53Z</time>
      </trkpt>
      <trkpt lat="48.20031" lon="7.20153">
        <ele>955</ele>
        <time>2026-03-19T13:44:58Z</time>
      </trkpt>
      <trkpt lat="48.2003" lon="7.20148">
        <ele>955.3</ele>
        <time>2026-03-19T13:45:03Z</time>
      </trkpt>
      <trkpt lat="48.20029" lon="7.20143">
        <ele>955.6</ele>
        <time>2026-03-19T13:45:08Z</time>
      </trkpt>
      <trkpt lat="48.20026" lon="7.20132">
        <ele>956</ele>
        <time>2026-03-19T13:45:13Z</time>
      </trkpt>
      <trkpt lat="48.20025" lon="7.20126">
        <ele>956.5</ele>
        <time>2026-03-19T13:45:18Z</time>
      </trkpt>
      <trkpt lat="48.20025" lon="7.20117">
        <ele>958.1</ele>
        <time>2026-03-19T13:45:23Z</time>
      </trkpt>
      <trkpt lat="48.20023" lon="7.2011">
        <ele>958.4</ele>
        <time>2026-03-19T13:45:28Z</time>
      </trkpt>
      <trkpt lat="48.2002" lon="7.20105">
        <ele>958</ele>
        <time>2026-03-19T13:45:33Z</time>
      </trkpt>
      <trkpt lat="48.20018" lon="7.20099">
        <ele>958.2</ele>
        <time>2026-03-19T13:45:38Z</time>
      </trkpt>
      <trkpt lat="48.20016" lon="7.20092">
        <ele>958.7</ele>
        <time>2026-03-19T13:45:43Z</time>
      </trkpt>
      <trkpt lat="48.20017" lon="7.20084">
        <ele>960.6</ele>
        <time>2026-03-19T13:45:48Z</time>
      </trkpt>
      <trkpt lat="48.20017" lon="7.20079">
        <ele>960.7</ele>
        <time>2026-03-19T13:45:53Z</time>
      </trkpt>
      <trkpt lat="48.20015" lon="7.20072">
        <ele>959.8</ele>
        <time>2026-03-19T13:45:58Z</time>
      </trkpt>
      <trkpt lat="48.20016" lon="7.20063">
        <ele>960.1</ele>
        <time>2026-03-19T13:46:03Z</time>
      </trkpt>
      <trkpt lat="48.20016" lon="7.20054">
        <ele>960</ele>
        <time>2026-03-19T13:46:08Z</time>
      </trkpt>
      <trkpt lat="48.20018" lon="7.20047">
        <ele>960.7</ele>
        <time>2026-03-19T13:46:13Z</time>
      </trkpt>
      <trkpt lat="48.20018" lon="7.20038">
        <ele>960.6</ele>
        <time>2026-03-19T13:46:18Z</time>
      </trkpt>
      <trkpt lat="48.2002" lon="7.20031">
        <ele>961.3</ele>
        <time>2026-03-19T13:46:23Z</time>
      </trkpt>
      <trkpt lat="48.20023" lon="7.20025">
        <ele>962.4</ele>
        <time>2026-03-19T13:46:28Z</time>
      </trkpt>
      <trkpt lat="48.20025" lon="7.20019">
        <ele>963.1</ele>
        <time>2026-03-19T13:46:33Z</time>
      </trkpt>
      <trkpt lat="48.20028" lon="7.20013">
        <ele>964.2</ele>
        <time>2026-03-19T13:46:38Z</time>
      </trkpt>
      <trkpt lat="48.20032" lon="7.20006">
        <ele>965.7</ele>
        <time>2026-03-19T13:46:43Z</time>
      </trkpt>
      <trkpt lat="48.20035" lon="7.20001">
        <ele>966.9</ele>
        <time>2026-03-19T13:46:48Z</time>
      </trkpt>
      <trkpt lat="48.20039" lon="7.19993">
        <ele>967.3</ele>
        <time>2026-03-19T13:46:53Z</time>
      </trkpt>
      <trkpt lat="48.20041" lon="7.19986">
        <ele>966.9</ele>
        <time>2026-03-19T13:46:58Z</time>
      </trkpt>
      <trkpt lat="48.20045" lon="7.19979">
        <ele>967.3</ele>
        <time>2026-03-19T13:47:03Z</time>
      </trkpt>
      <trkpt lat="48.20048" lon="7.19972">
        <ele>967.4</ele>
        <time>2026-03-19T13:47:08Z</time>
      </trkpt>
      <trkpt lat="48.2005" lon="7.19965">
        <ele>967.1</ele>
        <time>2026-03-19T13:47:13Z</time>
      </trkpt>
      <trkpt lat="48.20053" lon="7.19958">
        <ele>967.2</ele>
        <time>2026-03-19T13:47:18Z</time>
      </trkpt>
      <trkpt lat="48.20059" lon="7.19953">
        <ele>968.9</ele>
        <time>2026-03-19T13:47:23Z</time>
      </trkpt>
      <trkpt lat="48.20063" lon="7.19947">
        <ele>969.7</ele>
        <time>2026-03-19T13:47:28Z</time>
      </trkpt>
      <trkpt lat="48.20065" lon="7.19937">
        <ele>969</ele>
        <time>2026-03-19T13:47:33Z</time>
      </trkpt>
      <trkpt lat="48.20067" lon="7.19932">
        <ele>969.1</ele>
        <time>2026-03-19T13:47:38Z</time>
      </trkpt>
      <trkpt lat="48.20073" lon="7.19924">
        <ele>970.5</ele>
        <time>2026-03-19T13:47:43Z</time>
      </trkpt>
      <trkpt lat="48.20075" lon="7.19916">
        <ele>970.2</ele>
        <time>2026-03-19T13:47:48Z</time>
      </trkpt>
      <trkpt lat="48.20074" lon="7.19908">
        <ele>967.9</ele>
        <time>2026-03-19T13:47:53Z</time>
      </trkpt>
      <trkpt lat="48.20077" lon="7.19903">
        <ele>968.2</ele>
        <time>2026-03-19T13:47:58Z</time>
      </trkpt>
      <trkpt lat="48.20077" lon="7.19903">
        <ele>968.2</ele>
        <time>2026-03-19T13:48:03Z</time>
      </trkpt>
      <trkpt lat="48.20078" lon="7.19898">
        <ele>967.5</ele>
        <time>2026-03-19T13:48:08Z</time>
      </trkpt>
      <trkpt lat="48.20081" lon="7.19892">
        <ele>967.6</ele>
        <time>2026-03-19T13:48:13Z</time>
      </trkpt>
      <trkpt lat="48.20084" lon="7.19883">
        <ele>967</ele>
        <time>2026-03-19T13:48:18Z</time>
      </trkpt>
      <trkpt lat="48.20089" lon="7.19877">
        <ele>968.1</ele>
        <time>2026-03-19T13:48:23Z</time>
      </trkpt>
      <trkpt lat="48.20093" lon="7.19869">
        <ele>968.3</ele>
        <time>2026-03-19T13:48:28Z</time>
      </trkpt>
      <trkpt lat="48.20098" lon="7.19861">
        <ele>969</ele>
        <time>2026-03-19T13:48:33Z</time>
      </trkpt>
      <trkpt lat="48.20103" lon="7.19853">
        <ele>969.8</ele>
        <time>2026-03-19T13:48:38Z</time>
      </trkpt>
      <trkpt lat="48.20108" lon="7.19846">
        <ele>970.9</ele>
        <time>2026-03-19T13:48:43Z</time>
      </trkpt>
      <trkpt lat="48.2011" lon="7.1984">
        <ele>970.7</ele>
        <time>2026-03-19T13:48:48Z</time>
      </trkpt>
      <trkpt lat="48.20112" lon="7.19834">
        <ele>970.6</ele>
        <time>2026-03-19T13:48:53Z</time>
      </trkpt>
      <trkpt lat="48.20115" lon="7.19826">
        <ele>970.5</ele>
        <time>2026-03-19T13:48:58Z</time>
      </trkpt>
      <trkpt lat="48.20121" lon="7.19819">
        <ele>972.2</ele>
        <time>2026-03-19T13:49:03Z</time>
      </trkpt>
      <trkpt lat="48.20125" lon="7.19813">
        <ele>973</ele>
        <time>2026-03-19T13:49:08Z</time>
      </trkpt>
      <trkpt lat="48.20129" lon="7.19807">
        <ele>973.8</ele>
        <time>2026-03-19T13:49:13Z</time>
      </trkpt>
      <trkpt lat="48.20133" lon="7.19799">
        <ele>974.2</ele>
        <time>2026-03-19T13:49:18Z</time>
      </trkpt>
      <trkpt lat="48.20139" lon="7.19789">
        <ele>975.2</ele>
        <time>2026-03-19T13:49:23Z</time>
      </trkpt>
      <trkpt lat="48.2014" lon="7.19784">
        <ele>974.7</ele>
        <time>2026-03-19T13:49:28Z</time>
      </trkpt>
      <trkpt lat="48.20143" lon="7.19775">
        <ele>974.4</ele>
        <time>2026-03-19T13:49:33Z</time>
      </trkpt>
      <trkpt lat="48.20146" lon="7.19765">
        <ele>973.8</ele>
        <time>2026-03-19T13:49:38Z</time>
      </trkpt>
      <trkpt lat="48.2015" lon="7.1976">
        <ele>974.8</ele>
        <time>2026-03-19T13:49:43Z</time>
      </trkpt>
      <trkpt lat="48.20153" lon="7.19752">
        <ele>974.7</ele>
        <time>2026-03-19T13:49:48Z</time>
      </trkpt>
      <trkpt lat="48.20155" lon="7.19748">
        <ele>975</ele>
        <time>2026-03-19T13:49:53Z</time>
      </trkpt>
      <trkpt lat="48.20159" lon="7.19743">
        <ele>976.4</ele>
        <time>2026-03-19T13:49:58Z</time>
      </trkpt>
      <trkpt lat="48.20165" lon="7.19738">
        <ele>978.8</ele>
        <time>2026-03-19T13:50:03Z</time>
      </trkpt>
      <trkpt lat="48.20168" lon="7.19732">
        <ele>979.4</ele>
        <time>2026-03-19T13:50:08Z</time>
      </trkpt>
      <trkpt lat="48.20173" lon="7.19727">
        <ele>981</ele>
        <time>2026-03-19T13:50:13Z</time>
      </trkpt>
      <trkpt lat="48.20176" lon="7.19718">
        <ele>981.3</ele>
        <time>2026-03-19T13:50:18Z</time>
      </trkpt>
      <trkpt lat="48.2018" lon="7.1971">
        <ele>982.1</ele>
        <time>2026-03-19T13:50:23Z</time>
      </trkpt>
      <trkpt lat="48.20183" lon="7.19702">
        <ele>982.5</ele>
        <time>2026-03-19T13:50:28Z</time>
      </trkpt>
      <trkpt lat="48.20178" lon="7.19695">
        <ele>979.5</ele>
        <time>2026-03-19T13:50:33Z</time>
      </trkpt>
      <trkpt lat="48.20174" lon="7.19687">
        <ele>976.7</ele>
        <time>2026-03-19T13:50:38Z</time>
      </trkpt>
      <trkpt lat="48.2017" lon="7.19679">
        <ele>974</ele>
        <time>2026-03-19T13:50:43Z</time>
      </trkpt>
      <trkpt lat="48.20165" lon="7.19672">
        <ele>970.9</ele>
        <time>2026-03-19T13:50:48Z</time>
      </trkpt>
      <trkpt lat="48.20162" lon="7.19664">
        <ele>969.5</ele>
        <time>2026-03-19T13:50:53Z</time>
      </trkpt>
      <trkpt lat="48.20157" lon="7.19656">
        <ele>969.1</ele>
        <time>2026-03-19T13:50:58Z</time>
      </trkpt>
      <trkpt lat="48.20156" lon="7.19649">
        <ele>970.2</ele>
        <time>2026-03-19T13:51:03Z</time>
      </trkpt>
      <trkpt lat="48.20155" lon="7.19642">
        <ele>971.4</ele>
        <time>2026-03-19T13:51:08Z</time>
      </trkpt>
      <trkpt lat="48.20152" lon="7.19634">
        <ele>972.1</ele>
        <time>2026-03-19T13:51:13Z</time>
      </trkpt>
      <trkpt lat="48.20151" lon="7.19626">
        <ele>973.6</ele>
        <time>2026-03-19T13:51:18Z</time>
      </trkpt>
      <trkpt lat="48.20149" lon="7.19617">
        <ele>975.1</ele>
        <time>2026-03-19T13:51:23Z</time>
      </trkpt>
      <trkpt lat="48.20148" lon="7.19609">
        <ele>976.6</ele>
        <time>2026-03-19T13:51:28Z</time>
      </trkpt>
      <trkpt lat="48.20147" lon="7.19601">
        <ele>978.3</ele>
        <time>2026-03-19T13:51:33Z</time>
      </trkpt>
      <trkpt lat="48.20143" lon="7.19594">
        <ele>978.8</ele>
        <time>2026-03-19T13:51:38Z</time>
      </trkpt>
      <trkpt lat="48.20138" lon="7.19587">
        <ele>979.1</ele>
        <time>2026-03-19T13:51:43Z</time>
      </trkpt>
      <trkpt lat="48.20135" lon="7.19578">
        <ele>980.8</ele>
        <time>2026-03-19T13:51:48Z</time>
      </trkpt>
      <trkpt lat="48.20132" lon="7.19569">
        <ele>982.5</ele>
        <time>2026-03-19T13:51:53Z</time>
      </trkpt>
      <trkpt lat="48.20128" lon="7.19563">
        <ele>983.1</ele>
        <time>2026-03-19T13:51:58Z</time>
      </trkpt>
      <trkpt lat="48.20129" lon="7.19553">
        <ele>986.1</ele>
        <time>2026-03-19T13:52:03Z</time>
      </trkpt>
      <trkpt lat="48.20126" lon="7.19544">
        <ele>987.9</ele>
        <time>2026-03-19T13:52:08Z</time>
      </trkpt>
      <trkpt lat="48.20121" lon="7.19536">
        <ele>988.8</ele>
        <time>2026-03-19T13:52:13Z</time>
      </trkpt>
      <trkpt lat="48.20117" lon="7.19527">
        <ele>990.2</ele>
        <time>2026-03-19T13:52:18Z</time>
      </trkpt>
      <trkpt lat="48.20112" lon="7.19519">
        <ele>991.2</ele>
        <time>2026-03-19T13:52:23Z</time>
      </trkpt>
      <trkpt lat="48.20108" lon="7.19514">
        <ele>991.5</ele>
        <time>2026-03-19T13:52:28Z</time>
      </trkpt>
      <trkpt lat="48.20105" lon="7.19508">
        <ele>992.4</ele>
        <time>2026-03-19T13:52:33Z</time>
      </trkpt>
      <trkpt lat="48.20101" lon="7.19502">
        <ele>993.1</ele>
        <time>2026-03-19T13:52:38Z</time>
      </trkpt>
      <trkpt lat="48.20095" lon="7.19498">
        <ele>992.6</ele>
        <time>2026-03-19T13:52:43Z</time>
      </trkpt>
      <trkpt lat="48.2009" lon="7.19496">
        <ele>991.7</ele>
        <time>2026-03-19T13:52:48Z</time>
      </trkpt>
      <trkpt lat="48.20086" lon="7.19493">
        <ele>991.4</ele>
        <time>2026-03-19T13:52:53Z</time>
      </trkpt>
      <trkpt lat="48.20081" lon="7.1949">
        <ele>990.7</ele>
        <time>2026-03-19T13:52:58Z</time>
      </trkpt>
      <trkpt lat="48.20076" lon="7.19487">
        <ele>990</ele>
        <time>2026-03-19T13:53:03Z</time>
      </trkpt>
      <trkpt lat="48.2007" lon="7.19485">
        <ele>988.6</ele>
        <time>2026-03-19T13:53:08Z</time>
      </trkpt>
      <trkpt lat="48.20063" lon="7.19484">
        <ele>986.8</ele>
        <time>2026-03-19T13:53:13Z</time>
      </trkpt>
      <trkpt lat="48.20057" lon="7.1948">
        <ele>985.9</ele>
        <time>2026-03-19T13:53:18Z</time>
      </trkpt>
      <trkpt lat="48.20051" lon="7.19477">
        <ele>984.8</ele>
        <time>2026-03-19T13:53:23Z</time>
      </trkpt>
      <trkpt lat="48.20045" lon="7.19473">
        <ele>983.8</ele>
        <time>2026-03-19T13:53:28Z</time>
      </trkpt>
      <trkpt lat="48.2004" lon="7.1947">
        <ele>983</ele>
        <time>2026-03-19T13:53:33Z</time>
      </trkpt>
      <trkpt lat="48.20034" lon="7.19469">
        <ele>981.4</ele>
        <time>2026-03-19T13:53:38Z</time>
      </trkpt>
      <trkpt lat="48.20028" lon="7.19465">
        <ele>980.3</ele>
        <time>2026-03-19T13:53:43Z</time>
      </trkpt>
      <trkpt lat="48.20023" lon="7.1946">
        <ele>979.8</ele>
        <time>2026-03-19T13:53:48Z</time>
      </trkpt>
      <trkpt lat="48.20021" lon="7.19454">
        <ele>980.4</ele>
        <time>2026-03-19T13:53:53Z</time>
      </trkpt>
      <trkpt lat="48.20017" lon="7.19446">
        <ele>980.8</ele>
        <time>2026-03-19T13:53:58Z</time>
      </trkpt>
      <trkpt lat="48.20012" lon="7.19438">
        <ele>980.8</ele>
        <time>2026-03-19T13:54:03Z</time>
      </trkpt>
      <trkpt lat="48.20007" lon="7.19431">
        <ele>980.5</ele>
        <time>2026-03-19T13:54:08Z</time>
      </trkpt>
      <trkpt lat="48.20004" lon="7.19426">
        <ele>980.5</ele>
        <time>2026-03-19T13:54:13Z</time>
      </trkpt>
      <trkpt lat="48.20001" lon="7.19414">
        <ele>981.9</ele>
        <time>2026-03-19T13:54:18Z</time>
      </trkpt>
      <trkpt lat="48.19999" lon="7.19404">
        <ele>983.3</ele>
        <time>2026-03-19T13:54:23Z</time>
      </trkpt>
      <trkpt lat="48.19998" lon="7.19396">
        <ele>984.6</ele>
        <time>2026-03-19T13:54:28Z</time>
      </trkpt>
      <trkpt lat="48.19996" lon="7.19389">
        <ele>985.4</ele>
        <time>2026-03-19T13:54:33Z</time>
      </trkpt>
      <trkpt lat="48.19995" lon="7.19382">
        <ele>986.6</ele>
        <time>2026-03-19T13:54:38Z</time>
      </trkpt>
      <trkpt lat="48.19995" lon="7.19374">
        <ele>988.2</ele>
        <time>2026-03-19T13:54:43Z</time>
      </trkpt>
      <trkpt lat="48.19993" lon="7.19368">
        <ele>988.9</ele>
        <time>2026-03-19T13:54:48Z</time>
      </trkpt>
      <trkpt lat="48.19991" lon="7.1936">
        <ele>990.1</ele>
        <time>2026-03-19T13:54:53Z</time>
      </trkpt>
      <trkpt lat="48.19988" lon="7.19353">
        <ele>990.7</ele>
        <time>2026-03-19T13:54:58Z</time>
      </trkpt>
      <trkpt lat="48.19985" lon="7.19344">
        <ele>991.9</ele>
        <time>2026-03-19T13:55:03Z</time>
      </trkpt>
      <trkpt lat="48.19982" lon="7.19334">
        <ele>993.3</ele>
        <time>2026-03-19T13:55:08Z</time>
      </trkpt>
      <trkpt lat="48.1998" lon="7.19323">
        <ele>994.8</ele>
        <time>2026-03-19T13:55:13Z</time>
      </trkpt>
      <trkpt lat="48.1998" lon="7.19313">
        <ele>996.6</ele>
        <time>2026-03-19T13:55:18Z</time>
      </trkpt>
      <trkpt lat="48.19983" lon="7.19303">
        <ele>999</ele>
        <time>2026-03-19T13:55:23Z</time>
      </trkpt>
      <trkpt lat="48.19985" lon="7.19295">
        <ele>1000.9</ele>
        <time>2026-03-19T13:55:28Z</time>
      </trkpt>
      <trkpt lat="48.19985" lon="7.19289">
        <ele>1002</ele>
        <time>2026-03-19T13:55:33Z</time>
      </trkpt>
      <trkpt lat="48.19983" lon="7.19283">
        <ele>1002.5</ele>
        <time>2026-03-19T13:55:38Z</time>
      </trkpt>
      <trkpt lat="48.19982" lon="7.19276">
        <ele>1003.5</ele>
        <time>2026-03-19T13:55:43Z</time>
      </trkpt>
      <trkpt lat="48.19983" lon="7.1927">
        <ele>1004.8</ele>
        <time>2026-03-19T13:55:48Z</time>
      </trkpt>
      <trkpt lat="48.19987" lon="7.19262">
        <ele>1007.1</ele>
        <time>2026-03-19T13:55:53Z</time>
      </trkpt>
      <trkpt lat="48.19989" lon="7.19255">
        <ele>1008.8</ele>
        <time>2026-03-19T13:55:58Z</time>
      </trkpt>
      <trkpt lat="48.19989" lon="7.19249">
        <ele>1009.7</ele>
        <time>2026-03-19T13:56:03Z</time>
      </trkpt>
      <trkpt lat="48.19988" lon="7.19242">
        <ele>1010.4</ele>
        <time>2026-03-19T13:56:08Z</time>
      </trkpt>
      <trkpt lat="48.1999" lon="7.19235">
        <ele>1011.7</ele>
        <time>2026-03-19T13:56:13Z</time>
      </trkpt>
      <trkpt lat="48.19993" lon="7.19227">
        <ele>1013.2</ele>
        <time>2026-03-19T13:56:18Z</time>
      </trkpt>
      <trkpt lat="48.19993" lon="7.19222">
        <ele>1013.8</ele>
        <time>2026-03-19T13:56:23Z</time>
      </trkpt>
      <trkpt lat="48.19996" lon="7.19214">
        <ele>1015.3</ele>
        <time>2026-03-19T13:56:28Z</time>
      </trkpt>
      <trkpt lat="48.2" lon="7.19209">
        <ele>1016.4</ele>
        <time>2026-03-19T13:56:33Z</time>
      </trkpt>
      <trkpt lat="48.20003" lon="7.19204">
        <ele>1017.2</ele>
        <time>2026-03-19T13:56:38Z</time>
      </trkpt>
      <trkpt lat="48.20005" lon="7.192">
        <ele>1017.8</ele>
        <time>2026-03-19T13:56:43Z</time>
      </trkpt>
      <trkpt lat="48.20007" lon="7.19199">
        <ele>1018.1</ele>
        <time>2026-03-19T13:56:48Z</time>
      </trkpt>
      <trkpt lat="48.2001" lon="7.19198">
        <ele>1018.4</ele>
        <time>2026-03-19T13:56:53Z</time>
      </trkpt>
      <trkpt lat="48.20011" lon="7.19198">
        <ele>1018.5</ele>
        <time>2026-03-19T13:56:58Z</time>
      </trkpt>
      <trkpt lat="48.20011" lon="7.19198">
        <ele>1018.5</ele>
        <time>2026-03-19T13:57:03Z</time>
      </trkpt>
      <trkpt lat="48.20011" lon="7.19198">
        <ele>1018.5</ele>
        <time>2026-03-19T13:57:08Z</time>
      </trkpt>
      <trkpt lat="48.20011" lon="7.19198">
        <ele>1018.5</ele>
        <time>2026-03-19T13:57:13Z</time>
      </trkpt>
      <trkpt lat="48.20011" lon="7.19198">
        <ele>1018.5</ele>
        <time>2026-03-19T13:57:18Z</time>
      </trkpt>
      <trkpt lat="48.20011" lon="7.19198">
        <ele>1018.5</ele>
        <time>2026-03-19T13:57:23Z</time>
      </trkpt>
      <trkpt lat="48.20011" lon="7.19198">
        <ele>1018.5</ele>
        <time>2026-03-19T13:57:28Z</time>
      </trkpt>
      <trkpt lat="48.20011" lon="7.19198">
        <ele>1018.5</ele>
        <time>2026-03-19T13:57:33Z</time>
      </trkpt>
      <trkpt lat="48.20011" lon="7.19198">
        <ele>1018.5</ele>
        <time>2026-03-19T13:57:38Z</time>
      </trkpt>
      <trkpt lat="48.20011" lon="7.19198">
        <ele>1018.5</ele>
        <time>2026-03-19T13:57:43Z</time>
      </trkpt>
      <trkpt lat="48.20011" lon="7.19198">
        <ele>1018.5</ele>
        <time>2026-03-19T13:57:48Z</time>
      </trkpt>
      <trkpt lat="48.20011" lon="7.19198">
        <ele>1018.5</ele>
        <time>2026-03-19T13:57:53Z</time>
      </trkpt>
      <trkpt lat="48.20011" lon="7.19198">
        <ele>1018.5</ele>
        <time>2026-03-19T13:57:58Z</time>
      </trkpt>
      <trkpt lat="48.20011" lon="7.19198">
        <ele>1018.5</ele>
        <time>2026-03-19T13:58:03Z</time>
      </trkpt>
      <trkpt lat="48.20011" lon="7.19198">
        <ele>1018.5</ele>
        <time>2026-03-19T13:58:08Z</time>
      </trkpt>
      <trkpt lat="48.20011" lon="7.19196">
        <ele>1018.7</ele>
        <time>2026-03-19T13:58:13Z</time>
      </trkpt>
      <trkpt lat="48.20018" lon="7.19192">
        <ele>1019.6</ele>
        <time>2026-03-19T13:58:18Z</time>
      </trkpt>
      <trkpt lat="48.20022" lon="7.19194">
        <ele>1019.7</ele>
        <time>2026-03-19T13:58:23Z</time>
      </trkpt>
      <trkpt lat="48.20025" lon="7.19195">
        <ele>1019.9</ele>
        <time>2026-03-19T13:58:28Z</time>
      </trkpt>
      <trkpt lat="48.20025" lon="7.19195">
        <ele>1019.9</ele>
        <time>2026-03-19T13:58:33Z</time>
      </trkpt>
      <trkpt lat="48.20025" lon="7.19195">
        <ele>1019.9</ele>
        <time>2026-03-19T13:58:38Z</time>
      </trkpt>
      <trkpt lat="48.20025" lon="7.19195">
        <ele>1019.9</ele>
        <time>2026-03-19T13:58:43Z</time>
      </trkpt>
      <trkpt lat="48.20025" lon="7.19195">
        <ele>1019.9</ele>
        <time>2026-03-19T13:58:48Z</time>
      </trkpt>
      <trkpt lat="48.20025" lon="7.19195">
        <ele>1019.9</ele>
        <time>2026-03-19T13:58:53Z</time>
      </trkpt>
      <trkpt lat="48.20025" lon="7.19195">
        <ele>1019.9</ele>
        <time>2026-03-19T13:58:58Z</time>
      </trkpt>
      <trkpt lat="48.20025" lon="7.19195">
        <ele>1019.9</ele>
        <time>2026-03-19T13:59:03Z</time>
      </trkpt>
      <trkpt lat="48.20025" lon="7.19195">
        <ele>1019.9</ele>
        <time>2026-03-19T13:59:08Z</time>
      </trkpt>
      <trkpt lat="48.20025" lon="7.19195">
        <ele>1019.9</ele>
        <time>2026-03-19T13:59:13Z</time>
      </trkpt>
      <trkpt lat="48.20025" lon="7.19195">
        <ele>1019.9</ele>
        <time>2026-03-19T13:59:18Z</time>
      </trkpt>
      <trkpt lat="48.20025" lon="7.19195">
        <ele>1019.9</ele>
        <time>2026-03-19T13:59:23Z</time>
      </trkpt>
      <trkpt lat="48.20027" lon="7.19193">
        <ele>1020.2</ele>
        <time>2026-03-19T13:59:28Z</time>
      </trkpt>
      <trkpt lat="48.20031" lon="7.19194">
        <ele>1020.4</ele>
        <time>2026-03-19T13:59:33Z</time>
      </trkpt>
      <trkpt lat="48.20037" lon="7.19196">
        <ele>1020.7</ele>
        <time>2026-03-19T13:59:38Z</time>
      </trkpt>
      <trkpt lat="48.20039" lon="7.19199">
        <ele>1020.7</ele>
        <time>2026-03-19T13:59:43Z</time>
      </trkpt>
      <trkpt lat="48.20043" lon="7.19202">
        <ele>1020.9</ele>
        <time>2026-03-19T13:59:48Z</time>
      </trkpt>
      <trkpt lat="48.20045" lon="7.19201">
        <ele>1021.1</ele>
        <time>2026-03-19T13:59:53Z</time>
      </trkpt>
      <trkpt lat="48.20046" lon="7.192">
        <ele>1021.3</ele>
        <time>2026-03-19T13:59:58Z</time>
      </trkpt>
      <trkpt lat="48.20049" lon="7.19201">
        <ele>1021.5</ele>
        <time>2026-03-19T14:00:03Z</time>
      </trkpt>
      <trkpt lat="48.20053" lon="7.192">
        <ele>1021.9</ele>
        <time>2026-03-19T14:00:08Z</time>
      </trkpt>
      <trkpt lat="48.20056" lon="7.19201">
        <ele>1022.1</ele>
        <time>2026-03-19T14:00:13Z</time>
      </trkpt>
      <trkpt lat="48.20058" lon="7.19198">
        <ele>1022.3</ele>
        <time>2026-03-19T14:00:18Z</time>
      </trkpt>
      <trkpt lat="48.20059" lon="7.19197">
        <ele>1022.4</ele>
        <time>2026-03-19T14:00:23Z</time>
      </trkpt>
      <trkpt lat="48.20059" lon="7.19197">
        <ele>1022.4</ele>
        <time>2026-03-19T14:00:28Z</time>
      </trkpt>
      <trkpt lat="48.20059" lon="7.19197">
        <ele>1022.4</ele>
        <time>2026-03-19T14:00:33Z</time>
      </trkpt>
      <trkpt lat="48.20071" lon="7.19196">
        <ele>1023.4</ele>
        <time>2026-03-19T14:00:38Z</time>
      </trkpt>
      <trkpt lat="48.20075" lon="7.19194">
        <ele>1023.7</ele>
        <time>2026-03-19T14:00:43Z</time>
      </trkpt>
      <trkpt lat="48.20077" lon="7.19194">
        <ele>1023.9</ele>
        <time>2026-03-19T14:00:48Z</time>
      </trkpt>
      <trkpt lat="48.20077" lon="7.19193">
        <ele>1023.8</ele>
        <time>2026-03-19T14:00:53Z</time>
      </trkpt>
      <trkpt lat="48.20081" lon="7.19189">
        <ele>1024.1</ele>
        <time>2026-03-19T14:00:58Z</time>
      </trkpt>
      <trkpt lat="48.20085" lon="7.19183">
        <ele>1024.6</ele>
        <time>2026-03-19T14:01:03Z</time>
      </trkpt>
      <trkpt lat="48.20087" lon="7.19181">
        <ele>1025</ele>
        <time>2026-03-19T14:01:08Z</time>
      </trkpt>
      <trkpt lat="48.2009" lon="7.1918">
        <ele>1025.7</ele>
        <time>2026-03-19T14:01:13Z</time>
      </trkpt>
      <trkpt lat="48.20092" lon="7.19176">
        <ele>1026.1</ele>
        <time>2026-03-19T14:01:18Z</time>
      </trkpt>
      <trkpt lat="48.20094" lon="7.19174">
        <ele>1026.5</ele>
        <time>2026-03-19T14:01:23Z</time>
      </trkpt>
      <trkpt lat="48.20095" lon="7.19171">
        <ele>1026.7</ele>
        <time>2026-03-19T14:01:28Z</time>
      </trkpt>
      <trkpt lat="48.20095" lon="7.19171">
        <ele>1026.7</ele>
        <time>2026-03-19T14:01:33Z</time>
      </trkpt>
      <trkpt lat="48.201" lon="7.19168">
        <ele>1027.8</ele>
        <time>2026-03-19T14:01:38Z</time>
      </trkpt>
      <trkpt lat="48.20102" lon="7.19167">
        <ele>1028.3</ele>
        <time>2026-03-19T14:01:43Z</time>
      </trkpt>
      <trkpt lat="48.20102" lon="7.19166">
        <ele>1028.2</ele>
        <time>2026-03-19T14:01:48Z</time>
      </trkpt>
      <trkpt lat="48.20106" lon="7.1916">
        <ele>1028.6</ele>
        <time>2026-03-19T14:01:53Z</time>
      </trkpt>
      <trkpt lat="48.20107" lon="7.19159">
        <ele>1028.8</ele>
        <time>2026-03-19T14:01:58Z</time>
      </trkpt>
      <trkpt lat="48.20111" lon="7.19158">
        <ele>1029.6</ele>
        <time>2026-03-19T14:02:03Z</time>
      </trkpt>
      <trkpt lat="48.20114" lon="7.19153">
        <ele>1029.9</ele>
        <time>2026-03-19T14:02:08Z</time>
      </trkpt>
      <trkpt lat="48.20116" lon="7.19149">
        <ele>1030</ele>
        <time>2026-03-19T14:02:13Z</time>
      </trkpt>
      <trkpt lat="48.20116" lon="7.19145">
        <ele>1029.7</ele>
        <time>2026-03-19T14:02:18Z</time>
      </trkpt>
      <trkpt lat="48.20118" lon="7.19139">
        <ele>1029.7</ele>
        <time>2026-03-19T14:02:23Z</time>
      </trkpt>
      <trkpt lat="48.20118" lon="7.19136">
        <ele>1029.5</ele>
        <time>2026-03-19T14:02:28Z</time>
      </trkpt>
      <trkpt lat="48.20118" lon="7.19136">
        <ele>1029.5</ele>
        <time>2026-03-19T14:02:33Z</time>
      </trkpt>
      <trkpt lat="48.20118" lon="7.19136">
        <ele>1029.5</ele>
        <time>2026-03-19T14:02:38Z</time>
      </trkpt>
      <trkpt lat="48.20118" lon="7.19136">
        <ele>1029.5</ele>
        <time>2026-03-19T14:02:43Z</time>
      </trkpt>
      <trkpt lat="48.20118" lon="7.19136">
        <ele>1029.5</ele>
        <time>2026-03-19T14:02:48Z</time>
      </trkpt>
      <trkpt lat="48.20118" lon="7.19136">
        <ele>1029.5</ele>
        <time>2026-03-19T14:02:53Z</time>
      </trkpt>
      <trkpt lat="48.20118" lon="7.19136">
        <ele>1029.5</ele>
        <time>2026-03-19T14:02:58Z</time>
      </trkpt>
      <trkpt lat="48.20127" lon="7.19141">
        <ele>1032</ele>
        <time>2026-03-19T14:03:03Z</time>
      </trkpt>
      <trkpt lat="48.20133" lon="7.19135">
        <ele>1032.9</ele>
        <time>2026-03-19T14:03:08Z</time>
      </trkpt>
      <trkpt lat="48.20137" lon="7.19132">
        <ele>1033.6</ele>
        <time>2026-03-19T14:03:13Z</time>
      </trkpt>
      <trkpt lat="48.20139" lon="7.19127">
        <ele>1033.7</ele>
        <time>2026-03-19T14:03:18Z</time>
      </trkpt>
      <trkpt lat="48.20144" lon="7.19123">
        <ele>1034.5</ele>
        <time>2026-03-19T14:03:23Z</time>
      </trkpt>
      <trkpt lat="48.20144" lon="7.19122">
        <ele>1034.5</ele>
        <time>2026-03-19T14:03:28Z</time>
      </trkpt>
      <trkpt lat="48.20146" lon="7.19119">
        <ele>1034.7</ele>
        <time>2026-03-19T14:03:33Z</time>
      </trkpt>
      <trkpt lat="48.20148" lon="7.19116">
        <ele>1035</ele>
        <time>2026-03-19T14:03:38Z</time>
      </trkpt>
      <trkpt lat="48.2015" lon="7.19112">
        <ele>1035.1</ele>
        <time>2026-03-19T14:03:43Z</time>
      </trkpt>
      <trkpt lat="48.20154" lon="7.19108">
        <ele>1035.8</ele>
        <time>2026-03-19T14:03:48Z</time>
      </trkpt>
      <trkpt lat="48.20157" lon="7.19105">
        <ele>1036.3</ele>
        <time>2026-03-19T14:03:53Z</time>
      </trkpt>
      <trkpt lat="48.20159" lon="7.19101">
        <ele>1036.5</ele>
        <time>2026-03-19T14:03:58Z</time>
      </trkpt>
      <trkpt lat="48.20162" lon="7.19099">
        <ele>1037</ele>
        <time>2026-03-19T14:04:03Z</time>
      </trkpt>
      <trkpt lat="48.20163" lon="7.19097">
        <ele>1037.1</ele>
        <time>2026-03-19T14:04:08Z</time>
      </trkpt>
      <trkpt lat="48.20167" lon="7.19095">
        <ele>1037.9</ele>
        <time>2026-03-19T14:04:13Z</time>
      </trkpt>
      <trkpt lat="48.20171" lon="7.19092">
        <ele>1038.9</ele>
        <time>2026-03-19T14:04:18Z</time>
      </trkpt>
      <trkpt lat="48.20174" lon="7.19089">
        <ele>1039.6</ele>
        <time>2026-03-19T14:04:23Z</time>
      </trkpt>
      <trkpt lat="48.20177" lon="7.19086">
        <ele>1040.3</ele>
        <time>2026-03-19T14:04:28Z</time>
      </trkpt>
      <trkpt lat="48.2018" lon="7.19083">
        <ele>1040.9</ele>
        <time>2026-03-19T14:04:33Z</time>
      </trkpt>
      <trkpt lat="48.20184" lon="7.1908">
        <ele>1041.6</ele>
        <time>2026-03-19T14:04:38Z</time>
      </trkpt>
      <trkpt lat="48.20187" lon="7.19078">
        <ele>1042.2</ele>
        <time>2026-03-19T14:04:43Z</time>
      </trkpt>
      <trkpt lat="48.20189" lon="7.19074">
        <ele>1042.1</ele>
        <time>2026-03-19T14:04:48Z</time>
      </trkpt>
      <trkpt lat="48.20191" lon="7.19071">
        <ele>1042.2</ele>
        <time>2026-03-19T14:04:53Z</time>
      </trkpt>
      <trkpt lat="48.20195" lon="7.1907">
        <ele>1043.2</ele>
        <time>2026-03-19T14:04:58Z</time>
      </trkpt>
      <trkpt lat="48.202" lon="7.19067">
        <ele>1044.2</ele>
        <time>2026-03-19T14:05:03Z</time>
      </trkpt>
      <trkpt lat="48.20204" lon="7.19062">
        <ele>1044.5</ele>
        <time>2026-03-19T14:05:08Z</time>
      </trkpt>
      <trkpt lat="48.20207" lon="7.19061">
        <ele>1045.2</ele>
        <time>2026-03-19T14:05:13Z</time>
      </trkpt>
      <trkpt lat="48.2021" lon="7.19061">
        <ele>1046.1</ele>
        <time>2026-03-19T14:05:18Z</time>
      </trkpt>
      <trkpt lat="48.20212" lon="7.19058">
        <ele>1046.2</ele>
        <time>2026-03-19T14:05:23Z</time>
      </trkpt>
      <trkpt lat="48.20213" lon="7.19059">
        <ele>1046.6</ele>
        <time>2026-03-19T14:05:28Z</time>
      </trkpt>
      <trkpt lat="48.20216" lon="7.1906">
        <ele>1047.7</ele>
        <time>2026-03-19T14:05:33Z</time>
      </trkpt>
      <trkpt lat="48.2022" lon="7.19057">
        <ele>1048.4</ele>
        <time>2026-03-19T14:05:38Z</time>
      </trkpt>
      <trkpt lat="48.20224" lon="7.19056">
        <ele>1049.4</ele>
        <time>2026-03-19T14:05:43Z</time>
      </trkpt>
      <trkpt lat="48.20224" lon="7.19056">
        <ele>1049.4</ele>
        <time>2026-03-19T14:05:48Z</time>
      </trkpt>
      <trkpt lat="48.20224" lon="7.19056">
        <ele>1049.4</ele>
        <time>2026-03-19T14:05:53Z</time>
      </trkpt>
      <trkpt lat="48.20224" lon="7.19056">
        <ele>1049.4</ele>
        <time>2026-03-19T14:05:58Z</time>
      </trkpt>
      <trkpt lat="48.20224" lon="7.19056">
        <ele>1049.4</ele>
        <time>2026-03-19T14:06:03Z</time>
      </trkpt>
      <trkpt lat="48.20224" lon="7.19056">
        <ele>1049.4</ele>
        <time>2026-03-19T14:06:08Z</time>
      </trkpt>
      <trkpt lat="48.2023" lon="7.19054">
        <ele>1050.8</ele>
        <time>2026-03-19T14:06:13Z</time>
      </trkpt>
      <trkpt lat="48.20234" lon="7.19055">
        <ele>1052.2</ele>
        <time>2026-03-19T14:06:18Z</time>
      </trkpt>
      <trkpt lat="48.20237" lon="7.19053">
        <ele>1052.7</ele>
        <time>2026-03-19T14:06:23Z</time>
      </trkpt>
      <trkpt lat="48.2024" lon="7.19054">
        <ele>1053.8</ele>
        <time>2026-03-19T14:06:28Z</time>
      </trkpt>
      <trkpt lat="48.20242" lon="7.19054">
        <ele>1054.4</ele>
        <time>2026-03-19T14:06:33Z</time>
      </trkpt>
      <trkpt lat="48.20245" lon="7.19058">
        <ele>1056</ele>
        <time>2026-03-19T14:06:38Z</time>
      </trkpt>
      <trkpt lat="48.20247" lon="7.19059">
        <ele>1056.7</ele>
        <time>2026-03-19T14:06:43Z</time>
      </trkpt>
      <trkpt lat="48.20252" lon="7.1906">
        <ele>1058.2</ele>
        <time>2026-03-19T14:06:48Z</time>
      </trkpt>
      <trkpt lat="48.20255" lon="7.19061">
        <ele>1059</ele>
        <time>2026-03-19T14:06:53Z</time>
      </trkpt>
      <trkpt lat="48.20259" lon="7.19062">
        <ele>1059.9</ele>
        <time>2026-03-19T14:06:58Z</time>
      </trkpt>
      <trkpt lat="48.20264" lon="7.19061">
        <ele>1060.7</ele>
        <time>2026-03-19T14:07:03Z</time>
      </trkpt>
      <trkpt lat="48.20269" lon="7.1906">
        <ele>1061.5</ele>
        <time>2026-03-19T14:07:08Z</time>
      </trkpt>
      <trkpt lat="48.20272" lon="7.19064">
        <ele>1062.8</ele>
        <time>2026-03-19T14:07:13Z</time>
      </trkpt>
      <trkpt lat="48.20274" lon="7.19064">
        <ele>1063.2</ele>
        <time>2026-03-19T14:07:18Z</time>
      </trkpt>
      <trkpt lat="48.20277" lon="7.19062">
        <ele>1063.4</ele>
        <time>2026-03-19T14:07:23Z</time>
      </trkpt>
      <trkpt lat="48.20281" lon="7.19065">
        <ele>1064.7</ele>
        <time>2026-03-19T14:07:28Z</time>
      </trkpt>
      <trkpt lat="48.20284" lon="7.19067">
        <ele>1065.7</ele>
        <time>2026-03-19T14:07:33Z</time>
      </trkpt>
      <trkpt lat="48.20287" lon="7.19068">
        <ele>1066.4</ele>
        <time>2026-03-19T14:07:38Z</time>
      </trkpt>
      <trkpt lat="48.20291" lon="7.19067">
        <ele>1067</ele>
        <time>2026-03-19T14:07:43Z</time>
      </trkpt>
      <trkpt lat="48.20298" lon="7.19068">
        <ele>1068.6</ele>
        <time>2026-03-19T14:07:48Z</time>
      </trkpt>
      <trkpt lat="48.20302" lon="7.19069">
        <ele>1069.5</ele>
        <time>2026-03-19T14:07:53Z</time>
      </trkpt>
      <trkpt lat="48.20307" lon="7.1907">
        <ele>1070.7</ele>
        <time>2026-03-19T14:07:58Z</time>
      </trkpt>
      <trkpt lat="48.20311" lon="7.1907">
        <ele>1071.4</ele>
        <time>2026-03-19T14:08:03Z</time>
      </trkpt>
      <trkpt lat="48.20312" lon="7.19071">
        <ele>1071.8</ele>
        <time>2026-03-19T14:08:08Z</time>
      </trkpt>
      <trkpt lat="48.20316" lon="7.19072">
        <ele>1072.7</ele>
        <time>2026-03-19T14:08:13Z</time>
      </trkpt>
      <trkpt lat="48.20319" lon="7.19072">
        <ele>1073.3</ele>
        <time>2026-03-19T14:08:18Z</time>
      </trkpt>
      <trkpt lat="48.20322" lon="7.19073">
        <ele>1074.1</ele>
        <time>2026-03-19T14:08:23Z</time>
      </trkpt>
      <trkpt lat="48.20325" lon="7.19076">
        <ele>1075.2</ele>
        <time>2026-03-19T14:08:28Z</time>
      </trkpt>
      <trkpt lat="48.20329" lon="7.19078">
        <ele>1076.3</ele>
        <time>2026-03-19T14:08:33Z</time>
      </trkpt>
      <trkpt lat="48.20335" lon="7.1908">
        <ele>1077.6</ele>
        <time>2026-03-19T14:08:38Z</time>
      </trkpt>
      <trkpt lat="48.2034" lon="7.19081">
        <ele>1078.1</ele>
        <time>2026-03-19T14:08:43Z</time>
      </trkpt>
      <trkpt lat="48.20343" lon="7.19083">
        <ele>1078.6</ele>
        <time>2026-03-19T14:08:48Z</time>
      </trkpt>
      <trkpt lat="48.20347" lon="7.19085">
        <ele>1079.2</ele>
        <time>2026-03-19T14:08:53Z</time>
      </trkpt>
      <trkpt lat="48.20353" lon="7.19085">
        <ele>1079.6</ele>
        <time>2026-03-19T14:08:58Z</time>
      </trkpt>
      <trkpt lat="48.20357" lon="7.19087">
        <ele>1080.1</ele>
        <time>2026-03-19T14:09:03Z</time>
      </trkpt>
      <trkpt lat="48.20362" lon="7.19089">
        <ele>1080.7</ele>
        <time>2026-03-19T14:09:08Z</time>
      </trkpt>
      <trkpt lat="48.20368" lon="7.19093">
        <ele>1081.7</ele>
        <time>2026-03-19T14:09:13Z</time>
      </trkpt>
      <trkpt lat="48.20374" lon="7.19096">
        <ele>1082.4</ele>
        <time>2026-03-19T14:09:18Z</time>
      </trkpt>
      <trkpt lat="48.20379" lon="7.19096">
        <ele>1082.8</ele>
        <time>2026-03-19T14:09:23Z</time>
      </trkpt>
      <trkpt lat="48.20384" lon="7.19094">
        <ele>1082.9</ele>
        <time>2026-03-19T14:09:28Z</time>
      </trkpt>
      <trkpt lat="48.20389" lon="7.19096">
        <ele>1083.5</ele>
        <time>2026-03-19T14:09:33Z</time>
      </trkpt>
      <trkpt lat="48.20393" lon="7.19099">
        <ele>1084.2</ele>
        <time>2026-03-19T14:09:38Z</time>
      </trkpt>
      <trkpt lat="48.20396" lon="7.19099">
        <ele>1084.4</ele>
        <time>2026-03-19T14:09:43Z</time>
      </trkpt>
      <trkpt lat="48.204" lon="7.19103">
        <ele>1085.2</ele>
        <time>2026-03-19T14:09:48Z</time>
      </trkpt>
      <trkpt lat="48.20406" lon="7.19103">
        <ele>1085.6</ele>
        <time>2026-03-19T14:09:53Z</time>
      </trkpt>
      <trkpt lat="48.20411" lon="7.19105">
        <ele>1086.2</ele>
        <time>2026-03-19T14:09:58Z</time>
      </trkpt>
      <trkpt lat="48.20418" lon="7.19107">
        <ele>1087</ele>
        <time>2026-03-19T14:10:03Z</time>
      </trkpt>
      <trkpt lat="48.20423" lon="7.19105">
        <ele>1087.3</ele>
        <time>2026-03-19T14:10:08Z</time>
      </trkpt>
      <trkpt lat="48.2043" lon="7.19104">
        <ele>1087.9</ele>
        <time>2026-03-19T14:10:13Z</time>
      </trkpt>
      <trkpt lat="48.20433" lon="7.19103">
        <ele>1088.1</ele>
        <time>2026-03-19T14:10:18Z</time>
      </trkpt>
      <trkpt lat="48.20437" lon="7.19104">
        <ele>1088.7</ele>
        <time>2026-03-19T14:10:23Z</time>
      </trkpt>
      <trkpt lat="48.20443" lon="7.19105">
        <ele>1089.4</ele>
        <time>2026-03-19T14:10:28Z</time>
      </trkpt>
      <trkpt lat="48.20447" lon="7.19102">
        <ele>1089.5</ele>
        <time>2026-03-19T14:10:33Z</time>
      </trkpt>
      <trkpt lat="48.20452" lon="7.191">
        <ele>1089.8</ele>
        <time>2026-03-19T14:10:38Z</time>
      </trkpt>
      <trkpt lat="48.20457" lon="7.19099">
        <ele>1090.2</ele>
        <time>2026-03-19T14:10:43Z</time>
      </trkpt>
      <trkpt lat="48.20463" lon="7.19097">
        <ele>1090.6</ele>
        <time>2026-03-19T14:10:48Z</time>
      </trkpt>
      <trkpt lat="48.20464" lon="7.19096">
        <ele>1090.6</ele>
        <time>2026-03-19T14:10:53Z</time>
      </trkpt>
      <trkpt lat="48.20466" lon="7.19098">
        <ele>1091.1</ele>
        <time>2026-03-19T14:10:58Z</time>
      </trkpt>
      <trkpt lat="48.2047" lon="7.19096">
        <ele>1091.3</ele>
        <time>2026-03-19T14:11:03Z</time>
      </trkpt>
      <trkpt lat="48.20475" lon="7.19094">
        <ele>1091.6</ele>
        <time>2026-03-19T14:11:08Z</time>
      </trkpt>
      <trkpt lat="48.2048" lon="7.19095">
        <ele>1092.2</ele>
        <time>2026-03-19T14:11:13Z</time>
      </trkpt>
      <trkpt lat="48.20484" lon="7.19094">
        <ele>1092.6</ele>
        <time>2026-03-19T14:11:18Z</time>
      </trkpt>
      <trkpt lat="48.2049" lon="7.19093">
        <ele>1093.1</ele>
        <time>2026-03-19T14:11:23Z</time>
      </trkpt>
      <trkpt lat="48.20496" lon="7.19093">
        <ele>1093.7</ele>
        <time>2026-03-19T14:11:28Z</time>
      </trkpt>
      <trkpt lat="48.20496" lon="7.19094">
        <ele>1093.8</ele>
        <time>2026-03-19T14:11:33Z</time>
      </trkpt>
      <trkpt lat="48.205" lon="7.19095">
        <ele>1094.4</ele>
        <time>2026-03-19T14:11:38Z</time>
      </trkpt>
      <trkpt lat="48.20503" lon="7.19095">
        <ele>1094.8</ele>
        <time>2026-03-19T14:11:43Z</time>
      </trkpt>
      <trkpt lat="48.20509" lon="7.19094">
        <ele>1095.4</ele>
        <time>2026-03-19T14:11:48Z</time>
      </trkpt>
      <trkpt lat="48.20514" lon="7.1909">
        <ele>1095.5</ele>
        <time>2026-03-19T14:11:53Z</time>
      </trkpt>
      <trkpt lat="48.20519" lon="7.19088">
        <ele>1095.9</ele>
        <time>2026-03-19T14:11:58Z</time>
      </trkpt>
      <trkpt lat="48.20522" lon="7.19086">
        <ele>1096</ele>
        <time>2026-03-19T14:12:03Z</time>
      </trkpt>
      <trkpt lat="48.20528" lon="7.19082">
        <ele>1096</ele>
        <time>2026-03-19T14:12:08Z</time>
      </trkpt>
      <trkpt lat="48.20534" lon="7.19081">
        <ele>1096.5</ele>
        <time>2026-03-19T14:12:13Z</time>
      </trkpt>
      <trkpt lat="48.20537" lon="7.19082">
        <ele>1097.1</ele>
        <time>2026-03-19T14:12:18Z</time>
      </trkpt>
      <trkpt lat="48.2054" lon="7.19081">
        <ele>1097.3</ele>
        <time>2026-03-19T14:12:23Z</time>
      </trkpt>
      <trkpt lat="48.20543" lon="7.19081">
        <ele>1097.6</ele>
        <time>2026-03-19T14:12:28Z</time>
      </trkpt>
      <trkpt lat="48.20548" lon="7.1908">
        <ele>1098</ele>
        <time>2026-03-19T14:12:33Z</time>
      </trkpt>
      <trkpt lat="48.20552" lon="7.19079">
        <ele>1098.2</ele>
        <time>2026-03-19T14:12:38Z</time>
      </trkpt>
      <trkpt lat="48.20555" lon="7.19078">
        <ele>1098.4</ele>
        <time>2026-03-19T14:12:43Z</time>
      </trkpt>
      <trkpt lat="48.2056" lon="7.19073">
        <ele>1097.8</ele>
        <time>2026-03-19T14:12:48Z</time>
      </trkpt>
      <trkpt lat="48.20564" lon="7.19069">
        <ele>1097.4</ele>
        <time>2026-03-19T14:12:53Z</time>
      </trkpt>
      <trkpt lat="48.20568" lon="7.19068">
        <ele>1097.6</ele>
        <time>2026-03-19T14:12:58Z</time>
      </trkpt>
      <trkpt lat="48.20572" lon="7.19066">
        <ele>1097.7</ele>
        <time>2026-03-19T14:13:03Z</time>
      </trkpt>
      <trkpt lat="48.20575" lon="7.19064">
        <ele>1097.6</ele>
        <time>2026-03-19T14:13:08Z</time>
      </trkpt>
      <trkpt lat="48.20579" lon="7.19064">
        <ele>1098.1</ele>
        <time>2026-03-19T14:13:13Z</time>
      </trkpt>
      <trkpt lat="48.20582" lon="7.19061">
        <ele>1097.7</ele>
        <time>2026-03-19T14:13:18Z</time>
      </trkpt>
      <trkpt lat="48.20587" lon="7.19057">
        <ele>1097.7</ele>
        <time>2026-03-19T14:13:23Z</time>
      </trkpt>
      <trkpt lat="48.20592" lon="7.19054">
        <ele>1098.1</ele>
        <time>2026-03-19T14:13:28Z</time>
      </trkpt>
      <trkpt lat="48.20597" lon="7.19051">
        <ele>1098.4</ele>
        <time>2026-03-19T14:13:33Z</time>
      </trkpt>
      <trkpt lat="48.20597" lon="7.1905">
        <ele>1098.2</ele>
        <time>2026-03-19T14:13:38Z</time>
      </trkpt>
      <trkpt lat="48.20597" lon="7.1905">
        <ele>1098.2</ele>
        <time>2026-03-19T14:13:43Z</time>
      </trkpt>
      <trkpt lat="48.20597" lon="7.1905">
        <ele>1098.2</ele>
        <time>2026-03-19T14:13:48Z</time>
      </trkpt>
      <trkpt lat="48.20597" lon="7.1905">
        <ele>1098.2</ele>
        <time>2026-03-19T14:13:53Z</time>
      </trkpt>
      <trkpt lat="48.20597" lon="7.1905">
        <ele>1098.2</ele>
        <time>2026-03-19T14:13:58Z</time>
      </trkpt>
      <trkpt lat="48.20597" lon="7.1905">
        <ele>1098.2</ele>
        <time>2026-03-19T14:14:03Z</time>
      </trkpt>
      <trkpt lat="48.20597" lon="7.1905">
        <ele>1098.2</ele>
        <time>2026-03-19T14:14:08Z</time>
      </trkpt>
      <trkpt lat="48.20597" lon="7.1905">
        <ele>1098.2</ele>
        <time>2026-03-19T14:14:13Z</time>
      </trkpt>
      <trkpt lat="48.20602" lon="7.19047">
        <ele>1098.6</ele>
        <time>2026-03-19T14:14:18Z</time>
      </trkpt>
      <trkpt lat="48.20604" lon="7.19043">
        <ele>1098.1</ele>
        <time>2026-03-19T14:14:23Z</time>
      </trkpt>
      <trkpt lat="48.2061" lon="7.19036">
        <ele>1097.9</ele>
        <time>2026-03-19T14:14:28Z</time>
      </trkpt>
      <trkpt lat="48.20617" lon="7.19031">
        <ele>1098.3</ele>
        <time>2026-03-19T14:14:33Z</time>
      </trkpt>
      <trkpt lat="48.20617" lon="7.19031">
        <ele>1098.3</ele>
        <time>2026-03-19T14:14:38Z</time>
      </trkpt>
      <trkpt lat="48.20617" lon="7.19031">
        <ele>1098.3</ele>
        <time>2026-03-19T14:14:43Z</time>
      </trkpt>
      <trkpt lat="48.20617" lon="7.19031">
        <ele>1098.3</ele>
        <time>2026-03-19T14:14:48Z</time>
      </trkpt>
      <trkpt lat="48.2062" lon="7.19024">
        <ele>1097.5</ele>
        <time>2026-03-19T14:14:53Z</time>
      </trkpt>
      <trkpt lat="48.20626" lon="7.19023">
        <ele>1098.5</ele>
        <time>2026-03-19T14:14:58Z</time>
      </trkpt>
      <trkpt lat="48.20633" lon="7.19019">
        <ele>1099.2</ele>
        <time>2026-03-19T14:15:03Z</time>
      </trkpt>
      <trkpt lat="48.20638" lon="7.19015">
        <ele>1099.5</ele>
        <time>2026-03-19T14:15:08Z</time>
      </trkpt>
      <trkpt lat="48.20642" lon="7.19009">
        <ele>1099.2</ele>
        <time>2026-03-19T14:15:13Z</time>
      </trkpt>
      <trkpt lat="48.20646" lon="7.19004">
        <ele>1099.1</ele>
        <time>2026-03-19T14:15:18Z</time>
      </trkpt>
      <trkpt lat="48.2065" lon="7.19003">
        <ele>1099.8</ele>
        <time>2026-03-19T14:15:23Z</time>
      </trkpt>
      <trkpt lat="48.20653" lon="7.19001">
        <ele>1100.1</ele>
        <time>2026-03-19T14:15:28Z</time>
      </trkpt>
      <trkpt lat="48.20658" lon="7.18999">
        <ele>1100.8</ele>
        <time>2026-03-19T14:15:33Z</time>
      </trkpt>
      <trkpt lat="48.20662" lon="7.18997">
        <ele>1101.2</ele>
        <time>2026-03-19T14:15:38Z</time>
      </trkpt>
      <trkpt lat="48.20666" lon="7.18993">
        <ele>1101.2</ele>
        <time>2026-03-19T14:15:43Z</time>
      </trkpt>
      <trkpt lat="48.20671" lon="7.18987">
        <ele>1101.2</ele>
        <time>2026-03-19T14:15:48Z</time>
      </trkpt>
      <trkpt lat="48.20675" lon="7.18984">
        <ele>1101.6</ele>
        <time>2026-03-19T14:15:53Z</time>
      </trkpt>
      <trkpt lat="48.20679" lon="7.18982">
        <ele>1102.2</ele>
        <time>2026-03-19T14:15:58Z</time>
      </trkpt>
      <trkpt lat="48.20681" lon="7.18981">
        <ele>1102.5</ele>
        <time>2026-03-19T14:16:03Z</time>
      </trkpt>
      <trkpt lat="48.20686" lon="7.18976">
        <ele>1102.8</ele>
        <time>2026-03-19T14:16:08Z</time>
      </trkpt>
      <trkpt lat="48.20692" lon="7.18972">
        <ele>1103.5</ele>
        <time>2026-03-19T14:16:13Z</time>
      </trkpt>
      <trkpt lat="48.20699" lon="7.18968">
        <ele>1104.5</ele>
        <time>2026-03-19T14:16:18Z</time>
      </trkpt>
      <trkpt lat="48.20705" lon="7.18964">
        <ele>1105.3</ele>
        <time>2026-03-19T14:16:23Z</time>
      </trkpt>
      <trkpt lat="48.20709" lon="7.18962">
        <ele>1106</ele>
        <time>2026-03-19T14:16:28Z</time>
      </trkpt>
      <trkpt lat="48.20713" lon="7.18958">
        <ele>1106.2</ele>
        <time>2026-03-19T14:16:33Z</time>
      </trkpt>
      <trkpt lat="48.20717" lon="7.18956">
        <ele>1106.9</ele>
        <time>2026-03-19T14:16:38Z</time>
      </trkpt>
      <trkpt lat="48.20724" lon="7.18952">
        <ele>1108</ele>
        <time>2026-03-19T14:16:43Z</time>
      </trkpt>
      <trkpt lat="48.20728" lon="7.18949">
        <ele>1108.5</ele>
        <time>2026-03-19T14:16:48Z</time>
      </trkpt>
      <trkpt lat="48.20734" lon="7.18948">
        <ele>1109.9</ele>
        <time>2026-03-19T14:16:53Z</time>
      </trkpt>
      <trkpt lat="48.20739" lon="7.18945">
        <ele>1110.7</ele>
        <time>2026-03-19T14:16:58Z</time>
      </trkpt>
      <trkpt lat="48.20745" lon="7.18942">
        <ele>1111.8</ele>
        <time>2026-03-19T14:17:03Z</time>
      </trkpt>
      <trkpt lat="48.2075" lon="7.1894">
        <ele>1112.8</ele>
        <time>2026-03-19T14:17:08Z</time>
      </trkpt>
      <trkpt lat="48.20753" lon="7.18939">
        <ele>1113</ele>
        <time>2026-03-19T14:17:13Z</time>
      </trkpt>
      <trkpt lat="48.20757" lon="7.18937">
        <ele>1113.2</ele>
        <time>2026-03-19T14:17:18Z</time>
      </trkpt>
      <trkpt lat="48.20759" lon="7.18938">
        <ele>1113.8</ele>
        <time>2026-03-19T14:17:23Z</time>
      </trkpt>
      <trkpt lat="48.20763" lon="7.18937">
        <ele>1114.2</ele>
        <time>2026-03-19T14:17:28Z</time>
      </trkpt>
      <trkpt lat="48.20768" lon="7.18936">
        <ele>1114.8</ele>
        <time>2026-03-19T14:17:33Z</time>
      </trkpt>
      <trkpt lat="48.20774" lon="7.18933">
        <ele>1115.1</ele>
        <time>2026-03-19T14:17:38Z</time>
      </trkpt>
      <trkpt lat="48.20778" lon="7.18934">
        <ele>1115.9</ele>
        <time>2026-03-19T14:17:43Z</time>
      </trkpt>
      <trkpt lat="48.20785" lon="7.18932">
        <ele>1116.6</ele>
        <time>2026-03-19T14:17:48Z</time>
      </trkpt>
      <trkpt lat="48.20791" lon="7.18931">
        <ele>1117.3</ele>
        <time>2026-03-19T14:17:53Z</time>
      </trkpt>
      <trkpt lat="48.20796" lon="7.18932">
        <ele>1118.3</ele>
        <time>2026-03-19T14:17:58Z</time>
      </trkpt>
      <trkpt lat="48.20801" lon="7.18932">
        <ele>1119.1</ele>
        <time>2026-03-19T14:18:03Z</time>
      </trkpt>
      <trkpt lat="48.20806" lon="7.18933">
        <ele>1120.1</ele>
        <time>2026-03-19T14:18:08Z</time>
      </trkpt>
      <trkpt lat="48.20811" lon="7.18933">
        <ele>1120.8</ele>
        <time>2026-03-19T14:18:13Z</time>
      </trkpt>
      <trkpt lat="48.20819" lon="7.18934">
        <ele>1122.3</ele>
        <time>2026-03-19T14:18:18Z</time>
      </trkpt>
      <trkpt lat="48.20824" lon="7.18933">
        <ele>1122.9</ele>
        <time>2026-03-19T14:18:23Z</time>
      </trkpt>
      <trkpt lat="48.2083" lon="7.18933">
        <ele>1123.8</ele>
        <time>2026-03-19T14:18:28Z</time>
      </trkpt>
      <trkpt lat="48.20836" lon="7.18933">
        <ele>1124.6</ele>
        <time>2026-03-19T14:18:33Z</time>
      </trkpt>
      <trkpt lat="48.20843" lon="7.1893">
        <ele>1124.6</ele>
        <time>2026-03-19T14:18:38Z</time>
      </trkpt>
      <trkpt lat="48.20848" lon="7.18928">
        <ele>1124.7</ele>
        <time>2026-03-19T14:18:43Z</time>
      </trkpt>
      <trkpt lat="48.20854" lon="7.18926">
        <ele>1124.9</ele>
        <time>2026-03-19T14:18:48Z</time>
      </trkpt>
      <trkpt lat="48.20861" lon="7.18925">
        <ele>1125.4</ele>
        <time>2026-03-19T14:18:53Z</time>
      </trkpt>
      <trkpt lat="48.20867" lon="7.18928">
        <ele>1126.5</ele>
        <time>2026-03-19T14:18:58Z</time>
      </trkpt>
      <trkpt lat="48.20874" lon="7.18932">
        <ele>1127.8</ele>
        <time>2026-03-19T14:19:03Z</time>
      </trkpt>
      <trkpt lat="48.2088" lon="7.18938">
        <ele>1129.2</ele>
        <time>2026-03-19T14:19:08Z</time>
      </trkpt>
      <trkpt lat="48.20887" lon="7.18941">
        <ele>1130.3</ele>
        <time>2026-03-19T14:19:13Z</time>
      </trkpt>
      <trkpt lat="48.20892" lon="7.18943">
        <ele>1130.9</ele>
        <time>2026-03-19T14:19:18Z</time>
      </trkpt>
      <trkpt lat="48.20899" lon="7.18943">
        <ele>1131.5</ele>
        <time>2026-03-19T14:19:23Z</time>
      </trkpt>
      <trkpt lat="48.20906" lon="7.18944">
        <ele>1132.1</ele>
        <time>2026-03-19T14:19:28Z</time>
      </trkpt>
      <trkpt lat="48.20913" lon="7.18945">
        <ele>1132.8</ele>
        <time>2026-03-19T14:19:33Z</time>
      </trkpt>
      <trkpt lat="48.20919" lon="7.18947">
        <ele>1133.3</ele>
        <time>2026-03-19T14:19:38Z</time>
      </trkpt>
      <trkpt lat="48.20926" lon="7.18947">
        <ele>1133.4</ele>
        <time>2026-03-19T14:19:43Z</time>
      </trkpt>
      <trkpt lat="48.20934" lon="7.18948">
        <ele>1133.7</ele>
        <time>2026-03-19T14:19:48Z</time>
      </trkpt>
      <trkpt lat="48.20942" lon="7.18951">
        <ele>1134</ele>
        <time>2026-03-19T14:19:53Z</time>
      </trkpt>
      <trkpt lat="48.20948" lon="7.18957">
        <ele>1134.6</ele>
        <time>2026-03-19T14:19:58Z</time>
      </trkpt>
      <trkpt lat="48.20954" lon="7.18954">
        <ele>1134.4</ele>
        <time>2026-03-19T14:20:03Z</time>
      </trkpt>
      <trkpt lat="48.20961" lon="7.18951">
        <ele>1134.3</ele>
        <time>2026-03-19T14:20:08Z</time>
      </trkpt>
      <trkpt lat="48.20966" lon="7.18942">
        <ele>1133.8</ele>
        <time>2026-03-19T14:20:13Z</time>
      </trkpt>
      <trkpt lat="48.20971" lon="7.18936">
        <ele>1133.6</ele>
        <time>2026-03-19T14:20:18Z</time>
      </trkpt>
      <trkpt lat="48.20975" lon="7.18926">
        <ele>1133.3</ele>
        <time>2026-03-19T14:20:23Z</time>
      </trkpt>
      <trkpt lat="48.20978" lon="7.18918">
        <ele>1133</ele>
        <time>2026-03-19T14:20:28Z</time>
      </trkpt>
      <trkpt lat="48.20982" lon="7.18911">
        <ele>1132.8</ele>
        <time>2026-03-19T14:20:33Z</time>
      </trkpt>
      <trkpt lat="48.20986" lon="7.18907">
        <ele>1132.7</ele>
        <time>2026-03-19T14:20:38Z</time>
      </trkpt>
      <trkpt lat="48.20987" lon="7.18905">
        <ele>1132.7</ele>
        <time>2026-03-19T14:20:43Z</time>
      </trkpt>
      <trkpt lat="48.20987" lon="7.18905">
        <ele>1132.7</ele>
        <time>2026-03-19T14:20:48Z</time>
      </trkpt>
      <trkpt lat="48.20987" lon="7.18905">
        <ele>1132.7</ele>
        <time>2026-03-19T14:20:53Z</time>
      </trkpt>
      <trkpt lat="48.20987" lon="7.18905">
        <ele>1132.7</ele>
        <time>2026-03-19T14:20:58Z</time>
      </trkpt>
      <trkpt lat="48.20987" lon="7.18905">
        <ele>1132.7</ele>
        <time>2026-03-19T14:21:03Z</time>
      </trkpt>
      <trkpt lat="48.20987" lon="7.18905">
        <ele>1132.7</ele>
        <time>2026-03-19T14:21:08Z</time>
      </trkpt>
      <trkpt lat="48.20987" lon="7.18905">
        <ele>1132.7</ele>
        <time>2026-03-19T14:21:13Z</time>
      </trkpt>
      <trkpt lat="48.20987" lon="7.18905">
        <ele>1132.7</ele>
        <time>2026-03-19T14:21:18Z</time>
      </trkpt>
      <trkpt lat="48.20987" lon="7.18905">
        <ele>1132.7</ele>
        <time>2026-03-19T14:21:23Z</time>
      </trkpt>
      <trkpt lat="48.20977" lon="7.18898">
        <ele>1131.5</ele>
        <time>2026-03-19T14:21:28Z</time>
      </trkpt>
      <trkpt lat="48.20973" lon="7.18884">
        <ele>1130</ele>
        <time>2026-03-19T14:21:33Z</time>
      </trkpt>
      <trkpt lat="48.20969" lon="7.18875">
        <ele>1128.8</ele>
        <time>2026-03-19T14:21:38Z</time>
      </trkpt>
      <trkpt lat="48.20967" lon="7.18867">
        <ele>1127.8</ele>
        <time>2026-03-19T14:21:43Z</time>
      </trkpt>
      <trkpt lat="48.20963" lon="7.18861">
        <ele>1126.7</ele>
        <time>2026-03-19T14:21:48Z</time>
      </trkpt>
      <trkpt lat="48.20961" lon="7.18851">
        <ele>1125.3</ele>
        <time>2026-03-19T14:21:53Z</time>
      </trkpt>
      <trkpt lat="48.20959" lon="7.18841">
        <ele>1123.9</ele>
        <time>2026-03-19T14:21:58Z</time>
      </trkpt>
      <trkpt lat="48.20956" lon="7.18832">
        <ele>1122.5</ele>
        <time>2026-03-19T14:22:03Z</time>
      </trkpt>
      <trkpt lat="48.20954" lon="7.18822">
        <ele>1121.5</ele>
        <time>2026-03-19T14:22:08Z</time>
      </trkpt>
      <trkpt lat="48.20952" lon="7.18812">
        <ele>1120.4</ele>
        <time>2026-03-19T14:22:13Z</time>
      </trkpt>
      <trkpt lat="48.20948" lon="7.18802">
        <ele>1118.8</ele>
        <time>2026-03-19T14:22:18Z</time>
      </trkpt>
      <trkpt lat="48.20945" lon="7.18794">
        <ele>1117.5</ele>
        <time>2026-03-19T14:22:23Z</time>
      </trkpt>
      <trkpt lat="48.20943" lon="7.18786">
        <ele>1116.4</ele>
        <time>2026-03-19T14:22:28Z</time>
      </trkpt>
      <trkpt lat="48.20941" lon="7.18775">
        <ele>1114.9</ele>
        <time>2026-03-19T14:22:33Z</time>
      </trkpt>
      <trkpt lat="48.2094" lon="7.18767">
        <ele>1114</ele>
        <time>2026-03-19T14:22:38Z</time>
      </trkpt>
      <trkpt lat="48.20939" lon="7.18759">
        <ele>1113</ele>
        <time>2026-03-19T14:22:43Z</time>
      </trkpt>
      <trkpt lat="48.20934" lon="7.18749">
        <ele>1110.6</ele>
        <time>2026-03-19T14:22:48Z</time>
      </trkpt>
      <trkpt lat="48.20933" lon="7.18742">
        <ele>1110</ele>
        <time>2026-03-19T14:22:53Z</time>
      </trkpt>
      <trkpt lat="48.20929" lon="7.18735">
        <ele>1108.4</ele>
        <time>2026-03-19T14:22:58Z</time>
      </trkpt>
      <trkpt lat="48.20926" lon="7.18728">
        <ele>1107.1</ele>
        <time>2026-03-19T14:23:03Z</time>
      </trkpt>
      <trkpt lat="48.20924" lon="7.18719">
        <ele>1106.1</ele>
        <time>2026-03-19T14:23:08Z</time>
      </trkpt>
      <trkpt lat="48.20922" lon="7.1871">
        <ele>1105</ele>
        <time>2026-03-19T14:23:13Z</time>
      </trkpt>
      <trkpt lat="48.20918" lon="7.187">
        <ele>1103.1</ele>
        <time>2026-03-19T14:23:18Z</time>
      </trkpt>
      <trkpt lat="48.20917" lon="7.1869">
        <ele>1102.2</ele>
        <time>2026-03-19T14:23:23Z</time>
      </trkpt>
      <trkpt lat="48.20915" lon="7.18684">
        <ele>1101.3</ele>
        <time>2026-03-19T14:23:28Z</time>
      </trkpt>
      <trkpt lat="48.20911" lon="7.18672">
        <ele>1099.3</ele>
        <time>2026-03-19T14:23:33Z</time>
      </trkpt>
      <trkpt lat="48.20908" lon="7.18662">
        <ele>1098.3</ele>
        <time>2026-03-19T14:23:38Z</time>
      </trkpt>
      <trkpt lat="48.20905" lon="7.18649">
        <ele>1098.2</ele>
        <time>2026-03-19T14:23:43Z</time>
      </trkpt>
      <trkpt lat="48.20901" lon="7.18639">
        <ele>1097.5</ele>
        <time>2026-03-19T14:23:48Z</time>
      </trkpt>
      <trkpt lat="48.20898" lon="7.18629">
        <ele>1097</ele>
        <time>2026-03-19T14:23:53Z</time>
      </trkpt>
      <trkpt lat="48.20894" lon="7.18618">
        <ele>1096.1</ele>
        <time>2026-03-19T14:23:58Z</time>
      </trkpt>
      <trkpt lat="48.20891" lon="7.18607">
        <ele>1095.5</ele>
        <time>2026-03-19T14:24:03Z</time>
      </trkpt>
      <trkpt lat="48.20891" lon="7.18598">
        <ele>1096.1</ele>
        <time>2026-03-19T14:24:08Z</time>
      </trkpt>
      <trkpt lat="48.2089" lon="7.18588">
        <ele>1096.2</ele>
        <time>2026-03-19T14:24:13Z</time>
      </trkpt>
      <trkpt lat="48.20888" lon="7.18582">
        <ele>1095.7</ele>
        <time>2026-03-19T14:24:18Z</time>
      </trkpt>
      <trkpt lat="48.20886" lon="7.18573">
        <ele>1095.6</ele>
        <time>2026-03-19T14:24:23Z</time>
      </trkpt>
      <trkpt lat="48.20884" lon="7.18566">
        <ele>1095.3</ele>
        <time>2026-03-19T14:24:28Z</time>
      </trkpt>
      <trkpt lat="48.20883" lon="7.18561">
        <ele>1095.3</ele>
        <time>2026-03-19T14:24:33Z</time>
      </trkpt>
      <trkpt lat="48.20882" lon="7.18552">
        <ele>1095.7</ele>
        <time>2026-03-19T14:24:38Z</time>
      </trkpt>
      <trkpt lat="48.20882" lon="7.18545">
        <ele>1096.4</ele>
        <time>2026-03-19T14:24:43Z</time>
      </trkpt>
      <trkpt lat="48.20879" lon="7.18537">
        <ele>1095.8</ele>
        <time>2026-03-19T14:24:48Z</time>
      </trkpt>
      <trkpt lat="48.20877" lon="7.18527">
        <ele>1095.8</ele>
        <time>2026-03-19T14:24:53Z</time>
      </trkpt>
      <trkpt lat="48.20877" lon="7.18519">
        <ele>1096.6</ele>
        <time>2026-03-19T14:24:58Z</time>
      </trkpt>
      <trkpt lat="48.20877" lon="7.18509">
        <ele>1097.5</ele>
        <time>2026-03-19T14:25:03Z</time>
      </trkpt>
      <trkpt lat="48.20876" lon="7.18502">
        <ele>1097.8</ele>
        <time>2026-03-19T14:25:08Z</time>
      </trkpt>
      <trkpt lat="48.20875" lon="7.18492">
        <ele>1097.5</ele>
        <time>2026-03-19T14:25:13Z</time>
      </trkpt>
      <trkpt lat="48.20875" lon="7.18483">
        <ele>1097.6</ele>
        <time>2026-03-19T14:25:18Z</time>
      </trkpt>
      <trkpt lat="48.20876" lon="7.18474">
        <ele>1098.1</ele>
        <time>2026-03-19T14:25:23Z</time>
      </trkpt>
      <trkpt lat="48.20876" lon="7.18463">
        <ele>1098.2</ele>
        <time>2026-03-19T14:25:28Z</time>
      </trkpt>
      <trkpt lat="48.20878" lon="7.18454">
        <ele>1099</ele>
        <time>2026-03-19T14:25:33Z</time>
      </trkpt>
      <trkpt lat="48.2088" lon="7.18446">
        <ele>1099.9</ele>
        <time>2026-03-19T14:25:38Z</time>
      </trkpt>
      <trkpt lat="48.20883" lon="7.18439">
        <ele>1101.2</ele>
        <time>2026-03-19T14:25:43Z</time>
      </trkpt>
      <trkpt lat="48.20888" lon="7.1843">
        <ele>1103.3</ele>
        <time>2026-03-19T14:25:48Z</time>
      </trkpt>
      <trkpt lat="48.2089" lon="7.1842">
        <ele>1104.1</ele>
        <time>2026-03-19T14:25:53Z</time>
      </trkpt>
      <trkpt lat="48.20894" lon="7.18412">
        <ele>1105.4</ele>
        <time>2026-03-19T14:25:58Z</time>
      </trkpt>
      <trkpt lat="48.20895" lon="7.18403">
        <ele>1105.2</ele>
        <time>2026-03-19T14:26:03Z</time>
      </trkpt>
      <trkpt lat="48.20898" lon="7.18394">
        <ele>1105.8</ele>
        <time>2026-03-19T14:26:08Z</time>
      </trkpt>
      <trkpt lat="48.20898" lon="7.18384">
        <ele>1105</ele>
        <time>2026-03-19T14:26:13Z</time>
      </trkpt>
      <trkpt lat="48.20899" lon="7.18375">
        <ele>1104.8</ele>
        <time>2026-03-19T14:26:18Z</time>
      </trkpt>
      <trkpt lat="48.20899" lon="7.18366">
        <ele>1104.1</ele>
        <time>2026-03-19T14:26:23Z</time>
      </trkpt>
      <trkpt lat="48.20897" lon="7.18353">
        <ele>1102.4</ele>
        <time>2026-03-19T14:26:28Z</time>
      </trkpt>
      <trkpt lat="48.20897" lon="7.18342">
        <ele>1101.6</ele>
        <time>2026-03-19T14:26:33Z</time>
      </trkpt>
      <trkpt lat="48.20896" lon="7.18334">
        <ele>1100.6</ele>
        <time>2026-03-19T14:26:38Z</time>
      </trkpt>
      <trkpt lat="48.20893" lon="7.18327">
        <ele>1098.8</ele>
        <time>2026-03-19T14:26:43Z</time>
      </trkpt>
      <trkpt lat="48.2089" lon="7.18317">
        <ele>1096.8</ele>
        <time>2026-03-19T14:26:48Z</time>
      </trkpt>
      <trkpt lat="48.20889" lon="7.18307">
        <ele>1095.5</ele>
        <time>2026-03-19T14:26:53Z</time>
      </trkpt>
      <trkpt lat="48.20886" lon="7.18297">
        <ele>1093.4</ele>
        <time>2026-03-19T14:26:58Z</time>
      </trkpt>
      <trkpt lat="48.20885" lon="7.18286">
        <ele>1092</ele>
        <time>2026-03-19T14:27:03Z</time>
      </trkpt>
      <trkpt lat="48.20885" lon="7.18275">
        <ele>1091.1</ele>
        <time>2026-03-19T14:27:08Z</time>
      </trkpt>
      <trkpt lat="48.20885" lon="7.18264">
        <ele>1090.1</ele>
        <time>2026-03-19T14:27:13Z</time>
      </trkpt>
      <trkpt lat="48.20883" lon="7.18253">
        <ele>1088.3</ele>
        <time>2026-03-19T14:27:18Z</time>
      </trkpt>
      <trkpt lat="48.20881" lon="7.18241">
        <ele>1086.6</ele>
        <time>2026-03-19T14:27:23Z</time>
      </trkpt>
      <trkpt lat="48.2088" lon="7.18232">
        <ele>1085.6</ele>
        <time>2026-03-19T14:27:28Z</time>
      </trkpt>
      <trkpt lat="48.20879" lon="7.18223">
        <ele>1084.7</ele>
        <time>2026-03-19T14:27:33Z</time>
      </trkpt>
      <trkpt lat="48.20877" lon="7.18212">
        <ele>1083.1</ele>
        <time>2026-03-19T14:27:38Z</time>
      </trkpt>
      <trkpt lat="48.20878" lon="7.18203">
        <ele>1083</ele>
        <time>2026-03-19T14:27:43Z</time>
      </trkpt>
      <trkpt lat="48.20878" lon="7.18191">
        <ele>1082.3</ele>
        <time>2026-03-19T14:27:48Z</time>
      </trkpt>
      <trkpt lat="48.20879" lon="7.18181">
        <ele>1082.1</ele>
        <time>2026-03-19T14:27:53Z</time>
      </trkpt>
      <trkpt lat="48.2088" lon="7.1817">
        <ele>1081.9</ele>
        <time>2026-03-19T14:27:58Z</time>
      </trkpt>
      <trkpt lat="48.20881" lon="7.18161">
        <ele>1082.1</ele>
        <time>2026-03-19T14:28:03Z</time>
      </trkpt>
      <trkpt lat="48.2088" lon="7.1815">
        <ele>1081.6</ele>
        <time>2026-03-19T14:28:08Z</time>
      </trkpt>
      <trkpt lat="48.20879" lon="7.1814">
        <ele>1081.2</ele>
        <time>2026-03-19T14:28:13Z</time>
      </trkpt>
      <trkpt lat="48.2088" lon="7.18132">
        <ele>1081.5</ele>
        <time>2026-03-19T14:28:18Z</time>
      </trkpt>
      <trkpt lat="48.20878" lon="7.18123">
        <ele>1080.7</ele>
        <time>2026-03-19T14:28:23Z</time>
      </trkpt>
      <trkpt lat="48.20877" lon="7.18112">
        <ele>1080.3</ele>
        <time>2026-03-19T14:28:28Z</time>
      </trkpt>
      <trkpt lat="48.20877" lon="7.181">
        <ele>1080.2</ele>
        <time>2026-03-19T14:28:33Z</time>
      </trkpt>
      <trkpt lat="48.20874" lon="7.18092">
        <ele>1079.1</ele>
        <time>2026-03-19T14:28:38Z</time>
      </trkpt>
      <trkpt lat="48.20874" lon="7.18083">
        <ele>1079.2</ele>
        <time>2026-03-19T14:28:43Z</time>
      </trkpt>
      <trkpt lat="48.20871" lon="7.18073">
        <ele>1078.7</ele>
        <time>2026-03-19T14:28:48Z</time>
      </trkpt>
      <trkpt lat="48.2087" lon="7.18065">
        <ele>1078.8</ele>
        <time>2026-03-19T14:28:53Z</time>
      </trkpt>
      <trkpt lat="48.20867" lon="7.18054">
        <ele>1078.5</ele>
        <time>2026-03-19T14:28:58Z</time>
      </trkpt>
      <trkpt lat="48.20865" lon="7.18048">
        <ele>1078.3</ele>
        <time>2026-03-19T14:29:03Z</time>
      </trkpt>
      <trkpt lat="48.20862" lon="7.18043">
        <ele>1077.7</ele>
        <time>2026-03-19T14:29:08Z</time>
      </trkpt>
      <trkpt lat="48.20862" lon="7.18039">
        <ele>1078</ele>
        <time>2026-03-19T14:29:13Z</time>
      </trkpt>
      <trkpt lat="48.2086" lon="7.18037">
        <ele>1077.5</ele>
        <time>2026-03-19T14:29:18Z</time>
      </trkpt>
      <trkpt lat="48.20858" lon="7.18032">
        <ele>1077.2</ele>
        <time>2026-03-19T14:29:23Z</time>
      </trkpt>
      <trkpt lat="48.20855" lon="7.18025">
        <ele>1076.9</ele>
        <time>2026-03-19T14:29:28Z</time>
      </trkpt>
      <trkpt lat="48.20851" lon="7.18009">
        <ele>1077</ele>
        <time>2026-03-19T14:29:33Z</time>
      </trkpt>
      <trkpt lat="48.20847" lon="7.17995">
        <ele>1077.2</ele>
        <time>2026-03-19T14:29:38Z</time>
      </trkpt>
      <trkpt lat="48.20844" lon="7.17985">
        <ele>1077.7</ele>
        <time>2026-03-19T14:29:43Z</time>
      </trkpt>
      <trkpt lat="48.20843" lon="7.17976">
        <ele>1078.5</ele>
        <time>2026-03-19T14:29:48Z</time>
      </trkpt>
      <trkpt lat="48.20841" lon="7.17969">
        <ele>1078.9</ele>
        <time>2026-03-19T14:29:53Z</time>
      </trkpt>
      <trkpt lat="48.20837" lon="7.1796">
        <ele>1079.1</ele>
        <time>2026-03-19T14:29:58Z</time>
      </trkpt>
      <trkpt lat="48.20834" lon="7.17954">
        <ele>1079.2</ele>
        <time>2026-03-19T14:30:03Z</time>
      </trkpt>
      <trkpt lat="48.20828" lon="7.17946">
        <ele>1078.1</ele>
        <time>2026-03-19T14:30:08Z</time>
      </trkpt>
      <trkpt lat="48.20822" lon="7.1794">
        <ele>1076.6</ele>
        <time>2026-03-19T14:30:13Z</time>
      </trkpt>
      <trkpt lat="48.20816" lon="7.17936">
        <ele>1075</ele>
        <time>2026-03-19T14:30:18Z</time>
      </trkpt>
      <trkpt lat="48.20809" lon="7.1793">
        <ele>1073.2</ele>
        <time>2026-03-19T14:30:23Z</time>
      </trkpt>
      <trkpt lat="48.20803" lon="7.17925">
        <ele>1071.8</ele>
        <time>2026-03-19T14:30:28Z</time>
      </trkpt>
      <trkpt lat="48.20798" lon="7.17921">
        <ele>1070.6</ele>
        <time>2026-03-19T14:30:33Z</time>
      </trkpt>
      <trkpt lat="48.20792" lon="7.17913">
        <ele>1069.7</ele>
        <time>2026-03-19T14:30:38Z</time>
      </trkpt>
      <trkpt lat="48.20785" lon="7.17902">
        <ele>1069.1</ele>
        <time>2026-03-19T14:30:43Z</time>
      </trkpt>
      <trkpt lat="48.2078" lon="7.17893">
        <ele>1068.9</ele>
        <time>2026-03-19T14:30:48Z</time>
      </trkpt>
      <trkpt lat="48.20777" lon="7.1789">
        <ele>1068.4</ele>
        <time>2026-03-19T14:30:53Z</time>
      </trkpt>
      <trkpt lat="48.20772" lon="7.17883">
        <ele>1068</ele>
        <time>2026-03-19T14:30:58Z</time>
      </trkpt>
      <trkpt lat="48.20767" lon="7.17875">
        <ele>1067.7</ele>
        <time>2026-03-19T14:31:03Z</time>
      </trkpt>
      <trkpt lat="48.2076" lon="7.17865">
        <ele>1067.2</ele>
        <time>2026-03-19T14:31:08Z</time>
      </trkpt>
      <trkpt lat="48.20753" lon="7.17858">
        <ele>1066.2</ele>
        <time>2026-03-19T14:31:13Z</time>
      </trkpt>
      <trkpt lat="48.2075" lon="7.1785">
        <ele>1066.8</ele>
        <time>2026-03-19T14:31:18Z</time>
      </trkpt>
      <trkpt lat="48.20747" lon="7.17844">
        <ele>1066.7</ele>
        <time>2026-03-19T14:31:23Z</time>
      </trkpt>
      <trkpt lat="48.20742" lon="7.17837">
        <ele>1066</ele>
        <time>2026-03-19T14:31:28Z</time>
      </trkpt>
      <trkpt lat="48.20736" lon="7.17829">
        <ele>1065.2</ele>
        <time>2026-03-19T14:31:33Z</time>
      </trkpt>
      <trkpt lat="48.20732" lon="7.17821">
        <ele>1065.3</ele>
        <time>2026-03-19T14:31:38Z</time>
      </trkpt>
      <trkpt lat="48.20728" lon="7.17811">
        <ele>1065.8</ele>
        <time>2026-03-19T14:31:43Z</time>
      </trkpt>
      <trkpt lat="48.20724" lon="7.17801">
        <ele>1066.4</ele>
        <time>2026-03-19T14:31:48Z</time>
      </trkpt>
      <trkpt lat="48.20719" lon="7.17793">
        <ele>1066.1</ele>
        <time>2026-03-19T14:31:53Z</time>
      </trkpt>
      <trkpt lat="48.20714" lon="7.17786">
        <ele>1065.7</ele>
        <time>2026-03-19T14:31:58Z</time>
      </trkpt>
      <trkpt lat="48.20708" lon="7.17779">
        <ele>1064.9</ele>
        <time>2026-03-19T14:32:03Z</time>
      </trkpt>
      <trkpt lat="48.20705" lon="7.17774">
        <ele>1064.9</ele>
        <time>2026-03-19T14:32:08Z</time>
      </trkpt>
      <trkpt lat="48.20702" lon="7.1777">
        <ele>1064.6</ele>
        <time>2026-03-19T14:32:13Z</time>
      </trkpt>
      <trkpt lat="48.20698" lon="7.17763">
        <ele>1064.7</ele>
        <time>2026-03-19T14:32:18Z</time>
      </trkpt>
      <trkpt lat="48.20695" lon="7.17754">
        <ele>1065.6</ele>
        <time>2026-03-19T14:32:23Z</time>
      </trkpt>
      <trkpt lat="48.20689" lon="7.17745">
        <ele>1065.5</ele>
        <time>2026-03-19T14:32:28Z</time>
      </trkpt>
      <trkpt lat="48.20685" lon="7.17736">
        <ele>1066.3</ele>
        <time>2026-03-19T14:32:33Z</time>
      </trkpt>
      <trkpt lat="48.2068" lon="7.17729">
        <ele>1066.3</ele>
        <time>2026-03-19T14:32:38Z</time>
      </trkpt>
      <trkpt lat="48.20676" lon="7.17724">
        <ele>1066.3</ele>
        <time>2026-03-19T14:32:43Z</time>
      </trkpt>
      <trkpt lat="48.20673" lon="7.17718">
        <ele>1066.9</ele>
        <time>2026-03-19T14:32:48Z</time>
      </trkpt>
      <trkpt lat="48.20669" lon="7.17714">
        <ele>1066.7</ele>
        <time>2026-03-19T14:32:53Z</time>
      </trkpt>
      <trkpt lat="48.20664" lon="7.17707">
        <ele>1066.6</ele>
        <time>2026-03-19T14:32:58Z</time>
      </trkpt>
      <trkpt lat="48.20661" lon="7.17701">
        <ele>1066.9</ele>
        <time>2026-03-19T14:33:03Z</time>
      </trkpt>
      <trkpt lat="48.20659" lon="7.17695">
        <ele>1067.6</ele>
        <time>2026-03-19T14:33:08Z</time>
      </trkpt>
      <trkpt lat="48.20657" lon="7.17688">
        <ele>1068.5</ele>
        <time>2026-03-19T14:33:13Z</time>
      </trkpt>
      <trkpt lat="48.20656" lon="7.17682">
        <ele>1069.7</ele>
        <time>2026-03-19T14:33:18Z</time>
      </trkpt>
      <trkpt lat="48.20653" lon="7.17674">
        <ele>1070.4</ele>
        <time>2026-03-19T14:33:23Z</time>
      </trkpt>
      <trkpt lat="48.20649" lon="7.17667">
        <ele>1070.4</ele>
        <time>2026-03-19T14:33:28Z</time>
      </trkpt>
      <trkpt lat="48.20647" lon="7.1766">
        <ele>1070.9</ele>
        <time>2026-03-19T14:33:33Z</time>
      </trkpt>
      <trkpt lat="48.20645" lon="7.17653">
        <ele>1071.3</ele>
        <time>2026-03-19T14:33:38Z</time>
      </trkpt>
      <trkpt lat="48.20644" lon="7.17645">
        <ele>1072.5</ele>
        <time>2026-03-19T14:33:43Z</time>
      </trkpt>
      <trkpt lat="48.20642" lon="7.17639">
        <ele>1072.8</ele>
        <time>2026-03-19T14:33:48Z</time>
      </trkpt>
      <trkpt lat="48.20639" lon="7.17631">
        <ele>1073.1</ele>
        <time>2026-03-19T14:33:53Z</time>
      </trkpt>
      <trkpt lat="48.20636" lon="7.17626">
        <ele>1072.9</ele>
        <time>2026-03-19T14:33:58Z</time>
      </trkpt>
      <trkpt lat="48.20634" lon="7.17619">
        <ele>1073.6</ele>
        <time>2026-03-19T14:34:03Z</time>
      </trkpt>
      <trkpt lat="48.20632" lon="7.17612">
        <ele>1074.3</ele>
        <time>2026-03-19T14:34:08Z</time>
      </trkpt>
      <trkpt lat="48.20632" lon="7.17605">
        <ele>1075.8</ele>
        <time>2026-03-19T14:34:13Z</time>
      </trkpt>
      <trkpt lat="48.20631" lon="7.17599">
        <ele>1076.7</ele>
        <time>2026-03-19T14:34:18Z</time>
      </trkpt>
      <trkpt lat="48.20629" lon="7.17593">
        <ele>1077.3</ele>
        <time>2026-03-19T14:34:23Z</time>
      </trkpt>
      <trkpt lat="48.20625" lon="7.17589">
        <ele>1076.7</ele>
        <time>2026-03-19T14:34:28Z</time>
      </trkpt>
      <trkpt lat="48.20621" lon="7.17583">
        <ele>1076.6</ele>
        <time>2026-03-19T14:34:33Z</time>
      </trkpt>
      <trkpt lat="48.20617" lon="7.17577">
        <ele>1076.4</ele>
        <time>2026-03-19T14:34:38Z</time>
      </trkpt>
      <trkpt lat="48.20611" lon="7.1757">
        <ele>1076</ele>
        <time>2026-03-19T14:34:43Z</time>
      </trkpt>
      <trkpt lat="48.20607" lon="7.17564">
        <ele>1076.2</ele>
        <time>2026-03-19T14:34:48Z</time>
      </trkpt>
      <trkpt lat="48.20604" lon="7.17557">
        <ele>1077.1</ele>
        <time>2026-03-19T14:34:53Z</time>
      </trkpt>
      <trkpt lat="48.206" lon="7.17551">
        <ele>1077.7</ele>
        <time>2026-03-19T14:34:58Z</time>
      </trkpt>
      <trkpt lat="48.20596" lon="7.17546">
        <ele>1078.2</ele>
        <time>2026-03-19T14:35:03Z</time>
      </trkpt>
      <trkpt lat="48.20593" lon="7.17539">
        <ele>1079.6</ele>
        <time>2026-03-19T14:35:08Z</time>
      </trkpt>
      <trkpt lat="48.20591" lon="7.17536">
        <ele>1080.2</ele>
        <time>2026-03-19T14:35:13Z</time>
      </trkpt>
      <trkpt lat="48.20591" lon="7.17536">
        <ele>1080.2</ele>
        <time>2026-03-19T14:35:18Z</time>
      </trkpt>
      <trkpt lat="48.20587" lon="7.17533">
        <ele>1080.5</ele>
        <time>2026-03-19T14:35:23Z</time>
      </trkpt>
      <trkpt lat="48.20583" lon="7.1753">
        <ele>1080.8</ele>
        <time>2026-03-19T14:35:28Z</time>
      </trkpt>
      <trkpt lat="48.2058" lon="7.17526">
        <ele>1081.4</ele>
        <time>2026-03-19T14:35:33Z</time>
      </trkpt>
      <trkpt lat="48.2058" lon="7.17526">
        <ele>1081.4</ele>
        <time>2026-03-19T14:35:38Z</time>
      </trkpt>
      <trkpt lat="48.20578" lon="7.17528">
        <ele>1080.2</ele>
        <time>2026-03-19T14:35:43Z</time>
      </trkpt>
      <trkpt lat="48.20575" lon="7.17528">
        <ele>1079.5</ele>
        <time>2026-03-19T14:35:48Z</time>
      </trkpt>
      <trkpt lat="48.20571" lon="7.17523">
        <ele>1080.2</ele>
        <time>2026-03-19T14:35:53Z</time>
      </trkpt>
      <trkpt lat="48.20567" lon="7.17517">
        <ele>1081.4</ele>
        <time>2026-03-19T14:35:58Z</time>
      </trkpt>
      <trkpt lat="48.20561" lon="7.17505">
        <ele>1084.6</ele>
        <time>2026-03-19T14:36:03Z</time>
      </trkpt>
      <trkpt lat="48.20555" lon="7.17501">
        <ele>1084.8</ele>
        <time>2026-03-19T14:36:08Z</time>
      </trkpt>
      <trkpt lat="48.20548" lon="7.17495">
        <ele>1084.8</ele>
        <time>2026-03-19T14:36:13Z</time>
      </trkpt>
      <trkpt lat="48.20542" lon="7.17489">
        <ele>1085.1</ele>
        <time>2026-03-19T14:36:18Z</time>
      </trkpt>
      <trkpt lat="48.20538" lon="7.17484">
        <ele>1085.7</ele>
        <time>2026-03-19T14:36:23Z</time>
      </trkpt>
      <trkpt lat="48.20533" lon="7.17479">
        <ele>1086.3</ele>
        <time>2026-03-19T14:36:28Z</time>
      </trkpt>
      <trkpt lat="48.20529" lon="7.17475">
        <ele>1086.9</ele>
        <time>2026-03-19T14:36:33Z</time>
      </trkpt>
      <trkpt lat="48.20524" lon="7.1747">
        <ele>1087.8</ele>
        <time>2026-03-19T14:36:38Z</time>
      </trkpt>
      <trkpt lat="48.2052" lon="7.17466">
        <ele>1088.7</ele>
        <time>2026-03-19T14:36:43Z</time>
      </trkpt>
      <trkpt lat="48.20517" lon="7.1746">
        <ele>1090.4</ele>
        <time>2026-03-19T14:36:48Z</time>
      </trkpt>
      <trkpt lat="48.20512" lon="7.17455">
        <ele>1091.8</ele>
        <time>2026-03-19T14:36:53Z</time>
      </trkpt>
      <trkpt lat="48.20507" lon="7.1745">
        <ele>1093.4</ele>
        <time>2026-03-19T14:36:58Z</time>
      </trkpt>
      <trkpt lat="48.20502" lon="7.17446">
        <ele>1094.8</ele>
        <time>2026-03-19T14:37:03Z</time>
      </trkpt>
      <trkpt lat="48.20498" lon="7.17443">
        <ele>1095.7</ele>
        <time>2026-03-19T14:37:08Z</time>
      </trkpt>
      <trkpt lat="48.20494" lon="7.17439">
        <ele>1096.8</ele>
        <time>2026-03-19T14:37:13Z</time>
      </trkpt>
      <trkpt lat="48.20488" lon="7.17436">
        <ele>1097.2</ele>
        <time>2026-03-19T14:37:18Z</time>
      </trkpt>
      <trkpt lat="48.20482" lon="7.17433">
        <ele>1097.7</ele>
        <time>2026-03-19T14:37:23Z</time>
      </trkpt>
      <trkpt lat="48.20477" lon="7.17429">
        <ele>1098.6</ele>
        <time>2026-03-19T14:37:28Z</time>
      </trkpt>
      <trkpt lat="48.20473" lon="7.17427">
        <ele>1098.9</ele>
        <time>2026-03-19T14:37:33Z</time>
      </trkpt>
      <trkpt lat="48.20469" lon="7.17426">
        <ele>1098.8</ele>
        <time>2026-03-19T14:37:38Z</time>
      </trkpt>
      <trkpt lat="48.20466" lon="7.17422">
        <ele>1100</ele>
        <time>2026-03-19T14:37:43Z</time>
      </trkpt>
      <trkpt lat="48.20461" lon="7.17418">
        <ele>1100.8</ele>
        <time>2026-03-19T14:37:48Z</time>
      </trkpt>
      <trkpt lat="48.20458" lon="7.17413">
        <ele>1101.3</ele>
        <time>2026-03-19T14:37:53Z</time>
      </trkpt>
      <trkpt lat="48.20455" lon="7.1741">
        <ele>1101.3</ele>
        <time>2026-03-19T14:37:58Z</time>
      </trkpt>
      <trkpt lat="48.20453" lon="7.17407">
        <ele>1101.5</ele>
        <time>2026-03-19T14:38:03Z</time>
      </trkpt>
      <trkpt lat="48.20451" lon="7.17403">
        <ele>1101.7</ele>
        <time>2026-03-19T14:38:08Z</time>
      </trkpt>
      <trkpt lat="48.20447" lon="7.17399">
        <ele>1101.9</ele>
        <time>2026-03-19T14:38:13Z</time>
      </trkpt>
      <trkpt lat="48.20444" lon="7.17398">
        <ele>1101.8</ele>
        <time>2026-03-19T14:38:18Z</time>
      </trkpt>
      <trkpt lat="48.2044" lon="7.17397">
        <ele>1101.6</ele>
        <time>2026-03-19T14:38:23Z</time>
      </trkpt>
      <trkpt lat="48.20437" lon="7.17395">
        <ele>1101.6</ele>
        <time>2026-03-19T14:38:28Z</time>
      </trkpt>
      <trkpt lat="48.20433" lon="7.17391">
        <ele>1102</ele>
        <time>2026-03-19T14:38:33Z</time>
      </trkpt>
      <trkpt lat="48.20428" lon="7.17385">
        <ele>1102.7</ele>
        <time>2026-03-19T14:38:38Z</time>
      </trkpt>
      <trkpt lat="48.20425" lon="7.17379">
        <ele>1103.6</ele>
        <time>2026-03-19T14:38:43Z</time>
      </trkpt>
      <trkpt lat="48.20421" lon="7.17373">
        <ele>1104.5</ele>
        <time>2026-03-19T14:38:48Z</time>
      </trkpt>
      <trkpt lat="48.20417" lon="7.17368">
        <ele>1105.3</ele>
        <time>2026-03-19T14:38:53Z</time>
      </trkpt>
      <trkpt lat="48.20412" lon="7.17362">
        <ele>1105.3</ele>
        <time>2026-03-19T14:38:58Z</time>
      </trkpt>
      <trkpt lat="48.20407" lon="7.17355">
        <ele>1105.3</ele>
        <time>2026-03-19T14:39:03Z</time>
      </trkpt>
      <trkpt lat="48.20402" lon="7.1735">
        <ele>1105</ele>
        <time>2026-03-19T14:39:08Z</time>
      </trkpt>
      <trkpt lat="48.20399" lon="7.17345">
        <ele>1105.1</ele>
        <time>2026-03-19T14:39:13Z</time>
      </trkpt>
      <trkpt lat="48.20395" lon="7.1734">
        <ele>1105</ele>
        <time>2026-03-19T14:39:18Z</time>
      </trkpt>
      <trkpt lat="48.2039" lon="7.17336">
        <ele>1104.5</ele>
        <time>2026-03-19T14:39:23Z</time>
      </trkpt>
      <trkpt lat="48.20385" lon="7.1733">
        <ele>1104.2</ele>
        <time>2026-03-19T14:39:28Z</time>
      </trkpt>
      <trkpt lat="48.20378" lon="7.17325">
        <ele>1103.2</ele>
        <time>2026-03-19T14:39:33Z</time>
      </trkpt>
      <trkpt lat="48.20372" lon="7.17319">
        <ele>1102.7</ele>
        <time>2026-03-19T14:39:38Z</time>
      </trkpt>
      <trkpt lat="48.20369" lon="7.17314">
        <ele>1102.9</ele>
        <time>2026-03-19T14:39:43Z</time>
      </trkpt>
      <trkpt lat="48.20364" lon="7.17311">
        <ele>1102.2</ele>
        <time>2026-03-19T14:39:48Z</time>
      </trkpt>
      <trkpt lat="48.20359" lon="7.17307">
        <ele>1101.7</ele>
        <time>2026-03-19T14:39:53Z</time>
      </trkpt>
      <trkpt lat="48.20355" lon="7.17303">
        <ele>1101.4</ele>
        <time>2026-03-19T14:39:58Z</time>
      </trkpt>
      <trkpt lat="48.2035" lon="7.17298">
        <ele>1101.2</ele>
        <time>2026-03-19T14:40:03Z</time>
      </trkpt>
      <trkpt lat="48.20344" lon="7.17295">
        <ele>1100.3</ele>
        <time>2026-03-19T14:40:08Z</time>
      </trkpt>
      <trkpt lat="48.20339" lon="7.17291">
        <ele>1100</ele>
        <time>2026-03-19T14:40:13Z</time>
      </trkpt>
      <trkpt lat="48.20332" lon="7.17285">
        <ele>1099.6</ele>
        <time>2026-03-19T14:40:18Z</time>
      </trkpt>
      <trkpt lat="48.20327" lon="7.17278">
        <ele>1099.9</ele>
        <time>2026-03-19T14:40:23Z</time>
      </trkpt>
      <trkpt lat="48.20322" lon="7.17272">
        <ele>1100.1</ele>
        <time>2026-03-19T14:40:28Z</time>
      </trkpt>
      <trkpt lat="48.20316" lon="7.17265">
        <ele>1100.3</ele>
        <time>2026-03-19T14:40:33Z</time>
      </trkpt>
      <trkpt lat="48.20311" lon="7.17259">
        <ele>1100.5</ele>
        <time>2026-03-19T14:40:38Z</time>
      </trkpt>
      <trkpt lat="48.20305" lon="7.17255">
        <ele>1100.1</ele>
        <time>2026-03-19T14:40:43Z</time>
      </trkpt>
      <trkpt lat="48.20299" lon="7.17252">
        <ele>1099.6</ele>
        <time>2026-03-19T14:40:48Z</time>
      </trkpt>
      <trkpt lat="48.20294" lon="7.17247">
        <ele>1099.6</ele>
        <time>2026-03-19T14:40:53Z</time>
      </trkpt>
      <trkpt lat="48.20289" lon="7.17242">
        <ele>1099.7</ele>
        <time>2026-03-19T14:40:58Z</time>
      </trkpt>
      <trkpt lat="48.20283" lon="7.17237">
        <ele>1099.4</ele>
        <time>2026-03-19T14:41:03Z</time>
      </trkpt>
      <trkpt lat="48.20277" lon="7.17231">
        <ele>1099.4</ele>
        <time>2026-03-19T14:41:08Z</time>
      </trkpt>
      <trkpt lat="48.20273" lon="7.17226">
        <ele>1099.5</ele>
        <time>2026-03-19T14:41:13Z</time>
      </trkpt>
      <trkpt lat="48.20267" lon="7.1722">
        <ele>1099.3</ele>
        <time>2026-03-19T14:41:18Z</time>
      </trkpt>
      <trkpt lat="48.20261" lon="7.17214">
        <ele>1099.1</ele>
        <time>2026-03-19T14:41:23Z</time>
      </trkpt>
      <trkpt lat="48.20256" lon="7.17209">
        <ele>1098.8</ele>
        <time>2026-03-19T14:41:28Z</time>
      </trkpt>
      <trkpt lat="48.2025" lon="7.17204">
        <ele>1098.3</ele>
        <time>2026-03-19T14:41:33Z</time>
      </trkpt>
      <trkpt lat="48.20243" lon="7.17198">
        <ele>1097.8</ele>
        <time>2026-03-19T14:41:38Z</time>
      </trkpt>
      <trkpt lat="48.20237" lon="7.17192">
        <ele>1097.5</ele>
        <time>2026-03-19T14:41:43Z</time>
      </trkpt>
      <trkpt lat="48.20233" lon="7.17186">
        <ele>1097.6</ele>
        <time>2026-03-19T14:41:48Z</time>
      </trkpt>
      <trkpt lat="48.20228" lon="7.17181">
        <ele>1097.4</ele>
        <time>2026-03-19T14:41:53Z</time>
      </trkpt>
      <trkpt lat="48.20224" lon="7.17174">
        <ele>1097.8</ele>
        <time>2026-03-19T14:41:58Z</time>
      </trkpt>
      <trkpt lat="48.20219" lon="7.17169">
        <ele>1097.5</ele>
        <time>2026-03-19T14:42:03Z</time>
      </trkpt>
      <trkpt lat="48.20214" lon="7.17162">
        <ele>1097.3</ele>
        <time>2026-03-19T14:42:08Z</time>
      </trkpt>
      <trkpt lat="48.20209" lon="7.17154">
        <ele>1096.9</ele>
        <time>2026-03-19T14:42:13Z</time>
      </trkpt>
      <trkpt lat="48.20204" lon="7.17147">
        <ele>1096.3</ele>
        <time>2026-03-19T14:42:18Z</time>
      </trkpt>
      <trkpt lat="48.202" lon="7.1714">
        <ele>1095.9</ele>
        <time>2026-03-19T14:42:23Z</time>
      </trkpt>
      <trkpt lat="48.20196" lon="7.17134">
        <ele>1095.4</ele>
        <time>2026-03-19T14:42:28Z</time>
      </trkpt>
      <trkpt lat="48.20191" lon="7.17125">
        <ele>1094.7</ele>
        <time>2026-03-19T14:42:33Z</time>
      </trkpt>
      <trkpt lat="48.20187" lon="7.17118">
        <ele>1094.1</ele>
        <time>2026-03-19T14:42:38Z</time>
      </trkpt>
      <trkpt lat="48.20183" lon="7.1711">
        <ele>1093.5</ele>
        <time>2026-03-19T14:42:43Z</time>
      </trkpt>
      <trkpt lat="48.20179" lon="7.17099">
        <ele>1093</ele>
        <time>2026-03-19T14:42:48Z</time>
      </trkpt>
      <trkpt lat="48.20175" lon="7.17089">
        <ele>1092.4</ele>
        <time>2026-03-19T14:42:53Z</time>
      </trkpt>
      <trkpt lat="48.20175" lon="7.17079">
        <ele>1092.6</ele>
        <time>2026-03-19T14:42:58Z</time>
      </trkpt>
      <trkpt lat="48.20173" lon="7.1707">
        <ele>1091.7</ele>
        <time>2026-03-19T14:43:03Z</time>
      </trkpt>
      <trkpt lat="48.20172" lon="7.1706">
        <ele>1091</ele>
        <time>2026-03-19T14:43:08Z</time>
      </trkpt>
      <trkpt lat="48.20169" lon="7.17052">
        <ele>1089.7</ele>
        <time>2026-03-19T14:43:13Z</time>
      </trkpt>
      <trkpt lat="48.20168" lon="7.17041">
        <ele>1089</ele>
        <time>2026-03-19T14:43:18Z</time>
      </trkpt>
      <trkpt lat="48.20168" lon="7.1703">
        <ele>1088.6</ele>
        <time>2026-03-19T14:43:23Z</time>
      </trkpt>
      <trkpt lat="48.20166" lon="7.17021">
        <ele>1087.4</ele>
        <time>2026-03-19T14:43:28Z</time>
      </trkpt>
      <trkpt lat="48.20166" lon="7.1701">
        <ele>1087</ele>
        <time>2026-03-19T14:43:33Z</time>
      </trkpt>
      <trkpt lat="48.20163" lon="7.17004">
        <ele>1085.2</ele>
        <time>2026-03-19T14:43:38Z</time>
      </trkpt>
      <trkpt lat="48.20158" lon="7.17004">
        <ele>1082.5</ele>
        <time>2026-03-19T14:43:43Z</time>
      </trkpt>
      <trkpt lat="48.20155" lon="7.17011">
        <ele>1081.2</ele>
        <time>2026-03-19T14:43:48Z</time>
      </trkpt>
      <trkpt lat="48.20154" lon="7.17012">
        <ele>1080.8</ele>
        <time>2026-03-19T14:43:53Z</time>
      </trkpt>
      <trkpt lat="48.20154" lon="7.17012">
        <ele>1080.8</ele>
        <time>2026-03-19T14:43:58Z</time>
      </trkpt>
      <trkpt lat="48.20155" lon="7.17007">
        <ele>1081</ele>
        <time>2026-03-19T14:44:03Z</time>
      </trkpt>
      <trkpt lat="48.20158" lon="7.16993">
        <ele>1082.5</ele>
        <time>2026-03-19T14:44:08Z</time>
      </trkpt>
      <trkpt lat="48.20157" lon="7.16982">
        <ele>1082.2</ele>
        <time>2026-03-19T14:44:13Z</time>
      </trkpt>
      <trkpt lat="48.20156" lon="7.16971">
        <ele>1081.9</ele>
        <time>2026-03-19T14:44:18Z</time>
      </trkpt>
      <trkpt lat="48.20155" lon="7.1696">
        <ele>1081.7</ele>
        <time>2026-03-19T14:44:23Z</time>
      </trkpt>
      <trkpt lat="48.20154" lon="7.16951">
        <ele>1081.3</ele>
        <time>2026-03-19T14:44:28Z</time>
      </trkpt>
      <trkpt lat="48.20153" lon="7.1694">
        <ele>1081.1</ele>
        <time>2026-03-19T14:44:33Z</time>
      </trkpt>
      <trkpt lat="48.20151" lon="7.1693">
        <ele>1080.2</ele>
        <time>2026-03-19T14:44:38Z</time>
      </trkpt>
      <trkpt lat="48.2015" lon="7.1692">
        <ele>1079.9</ele>
        <time>2026-03-19T14:44:43Z</time>
      </trkpt>
      <trkpt lat="48.20149" lon="7.16911">
        <ele>1080</ele>
        <time>2026-03-19T14:44:48Z</time>
      </trkpt>
      <trkpt lat="48.20149" lon="7.16902">
        <ele>1081</ele>
        <time>2026-03-19T14:44:53Z</time>
      </trkpt>
      <trkpt lat="48.20147" lon="7.16892">
        <ele>1081</ele>
        <time>2026-03-19T14:44:58Z</time>
      </trkpt>
      <trkpt lat="48.20144" lon="7.1688">
        <ele>1080.6</ele>
        <time>2026-03-19T14:45:03Z</time>
      </trkpt>
      <trkpt lat="48.20142" lon="7.16869">
        <ele>1080.8</ele>
        <time>2026-03-19T14:45:08Z</time>
      </trkpt>
      <trkpt lat="48.20139" lon="7.16858">
        <ele>1080.4</ele>
        <time>2026-03-19T14:45:13Z</time>
      </trkpt>
      <trkpt lat="48.20136" lon="7.16849">
        <ele>1079.8</ele>
        <time>2026-03-19T14:45:18Z</time>
      </trkpt>
      <trkpt lat="48.20133" lon="7.16839">
        <ele>1079.4</ele>
        <time>2026-03-19T14:45:23Z</time>
      </trkpt>
      <trkpt lat="48.2013" lon="7.16831">
        <ele>1078.7</ele>
        <time>2026-03-19T14:45:28Z</time>
      </trkpt>
      <trkpt lat="48.20127" lon="7.16821">
        <ele>1078.2</ele>
        <time>2026-03-19T14:45:33Z</time>
      </trkpt>
      <trkpt lat="48.20124" lon="7.16809">
        <ele>1077.8</ele>
        <time>2026-03-19T14:45:38Z</time>
      </trkpt>
      <trkpt lat="48.20119" lon="7.16801">
        <ele>1076.1</ele>
        <time>2026-03-19T14:45:43Z</time>
      </trkpt>
      <trkpt lat="48.20116" lon="7.1679">
        <ele>1075.7</ele>
        <time>2026-03-19T14:45:48Z</time>
      </trkpt>
      <trkpt lat="48.20114" lon="7.1678">
        <ele>1075.7</ele>
        <time>2026-03-19T14:45:53Z</time>
      </trkpt>
      <trkpt lat="48.20111" lon="7.16771">
        <ele>1075.2</ele>
        <time>2026-03-19T14:45:58Z</time>
      </trkpt>
      <trkpt lat="48.20107" lon="7.16762">
        <ele>1074.1</ele>
        <time>2026-03-19T14:46:03Z</time>
      </trkpt>
      <trkpt lat="48.20104" lon="7.16751">
        <ele>1073.8</ele>
        <time>2026-03-19T14:46:08Z</time>
      </trkpt>
      <trkpt lat="48.20103" lon="7.16742">
        <ele>1074.1</ele>
        <time>2026-03-19T14:46:13Z</time>
      </trkpt>
      <trkpt lat="48.20102" lon="7.16733">
        <ele>1074.4</ele>
        <time>2026-03-19T14:46:18Z</time>
      </trkpt>
      <trkpt lat="48.20101" lon="7.16721">
        <ele>1075</ele>
        <time>2026-03-19T14:46:23Z</time>
      </trkpt>
      <trkpt lat="48.20099" lon="7.16711">
        <ele>1074.9</ele>
        <time>2026-03-19T14:46:28Z</time>
      </trkpt>
      <trkpt lat="48.20097" lon="7.16701">
        <ele>1074.9</ele>
        <time>2026-03-19T14:46:33Z</time>
      </trkpt>
      <trkpt lat="48.20094" lon="7.16693">
        <ele>1074.2</ele>
        <time>2026-03-19T14:46:38Z</time>
      </trkpt>
      <trkpt lat="48.20092" lon="7.16683">
        <ele>1074.3</ele>
        <time>2026-03-19T14:46:43Z</time>
      </trkpt>
      <trkpt lat="48.2009" lon="7.16673">
        <ele>1074.3</ele>
        <time>2026-03-19T14:46:48Z</time>
      </trkpt>
      <trkpt lat="48.20087" lon="7.16669">
        <ele>1073.4</ele>
        <time>2026-03-19T14:46:53Z</time>
      </trkpt>
      <trkpt lat="48.20087" lon="7.16669">
        <ele>1073.4</ele>
        <time>2026-03-19T14:46:58Z</time>
      </trkpt>
      <trkpt lat="48.20087" lon="7.16669">
        <ele>1073.4</ele>
        <time>2026-03-19T14:47:03Z</time>
      </trkpt>
      <trkpt lat="48.20086" lon="7.16662">
        <ele>1073.4</ele>
        <time>2026-03-19T14:47:08Z</time>
      </trkpt>
      <trkpt lat="48.20086" lon="7.16655">
        <ele>1073.7</ele>
        <time>2026-03-19T14:47:13Z</time>
      </trkpt>
      <trkpt lat="48.20083" lon="7.16646">
        <ele>1072.9</ele>
        <time>2026-03-19T14:47:18Z</time>
      </trkpt>
      <trkpt lat="48.20082" lon="7.16638">
        <ele>1072.9</ele>
        <time>2026-03-19T14:47:23Z</time>
      </trkpt>
      <trkpt lat="48.20082" lon="7.16633">
        <ele>1073.1</ele>
        <time>2026-03-19T14:47:28Z</time>
      </trkpt>
      <trkpt lat="48.20082" lon="7.1663">
        <ele>1073.3</ele>
        <time>2026-03-19T14:47:33Z</time>
      </trkpt>
      <trkpt lat="48.20081" lon="7.16629">
        <ele>1073</ele>
        <time>2026-03-19T14:47:38Z</time>
      </trkpt>
      <trkpt lat="48.20081" lon="7.16629">
        <ele>1073</ele>
        <time>2026-03-19T14:47:43Z</time>
      </trkpt>
      <trkpt lat="48.20081" lon="7.16629">
        <ele>1073</ele>
        <time>2026-03-19T14:47:48Z</time>
      </trkpt>
      <trkpt lat="48.20086" lon="7.16623">
        <ele>1075.2</ele>
        <time>2026-03-19T14:47:53Z</time>
      </trkpt>
      <trkpt lat="48.20085" lon="7.16616">
        <ele>1075.1</ele>
        <time>2026-03-19T14:47:58Z</time>
      </trkpt>
      <trkpt lat="48.20084" lon="7.16609">
        <ele>1075</ele>
        <time>2026-03-19T14:48:03Z</time>
      </trkpt>
      <trkpt lat="48.20086" lon="7.16596">
        <ele>1076.4</ele>
        <time>2026-03-19T14:48:08Z</time>
      </trkpt>
      <trkpt lat="48.20083" lon="7.16582">
        <ele>1075.9</ele>
        <time>2026-03-19T14:48:13Z</time>
      </trkpt>
      <trkpt lat="48.20083" lon="7.16571">
        <ele>1076.5</ele>
        <time>2026-03-19T14:48:18Z</time>
      </trkpt>
      <trkpt lat="48.20082" lon="7.16558">
        <ele>1076.8</ele>
        <time>2026-03-19T14:48:23Z</time>
      </trkpt>
      <trkpt lat="48.20081" lon="7.16546">
        <ele>1077</ele>
        <time>2026-03-19T14:48:28Z</time>
      </trkpt>
      <trkpt lat="48.20079" lon="7.16538">
        <ele>1076.8</ele>
        <time>2026-03-19T14:48:33Z</time>
      </trkpt>
      <trkpt lat="48.20078" lon="7.16528">
        <ele>1077</ele>
        <time>2026-03-19T14:48:38Z</time>
      </trkpt>
      <trkpt lat="48.20077" lon="7.16519">
        <ele>1077.1</ele>
        <time>2026-03-19T14:48:43Z</time>
      </trkpt>
      <trkpt lat="48.20076" lon="7.1651">
        <ele>1077.3</ele>
        <time>2026-03-19T14:48:48Z</time>
      </trkpt>
      <trkpt lat="48.20075" lon="7.16499">
        <ele>1077.6</ele>
        <time>2026-03-19T14:48:53Z</time>
      </trkpt>
      <trkpt lat="48.20073" lon="7.16491">
        <ele>1077.9</ele>
        <time>2026-03-19T14:48:58Z</time>
      </trkpt>
      <trkpt lat="48.20072" lon="7.1648">
        <ele>1078.9</ele>
        <time>2026-03-19T14:49:03Z</time>
      </trkpt>
      <trkpt lat="48.20071" lon="7.16469">
        <ele>1079.9</ele>
        <time>2026-03-19T14:49:08Z</time>
      </trkpt>
      <trkpt lat="48.20069" lon="7.16459">
        <ele>1080.6</ele>
        <time>2026-03-19T14:49:13Z</time>
      </trkpt>
      <trkpt lat="48.20068" lon="7.16449">
        <ele>1081.5</ele>
        <time>2026-03-19T14:49:18Z</time>
      </trkpt>
      <trkpt lat="48.20067" lon="7.16438">
        <ele>1082.5</ele>
        <time>2026-03-19T14:49:23Z</time>
      </trkpt>
      <trkpt lat="48.20066" lon="7.16424">
        <ele>1084</ele>
        <time>2026-03-19T14:49:28Z</time>
      </trkpt>
      <trkpt lat="48.20064" lon="7.16413">
        <ele>1084.8</ele>
        <time>2026-03-19T14:49:33Z</time>
      </trkpt>
      <trkpt lat="48.20063" lon="7.1641">
        <ele>1084.9</ele>
        <time>2026-03-19T14:49:38Z</time>
      </trkpt>
      <trkpt lat="48.20063" lon="7.16407">
        <ele>1085.3</ele>
        <time>2026-03-19T14:49:43Z</time>
      </trkpt>
      <trkpt lat="48.20059" lon="7.16401">
        <ele>1085.2</ele>
        <time>2026-03-19T14:49:48Z</time>
      </trkpt>
      <trkpt lat="48.20056" lon="7.16393">
        <ele>1085.6</ele>
        <time>2026-03-19T14:49:53Z</time>
      </trkpt>
      <trkpt lat="48.20052" lon="7.16384">
        <ele>1085.9</ele>
        <time>2026-03-19T14:49:58Z</time>
      </trkpt>
      <trkpt lat="48.20051" lon="7.16382">
        <ele>1086</ele>
        <time>2026-03-19T14:50:03Z</time>
      </trkpt>
      <trkpt lat="48.20051" lon="7.16379">
        <ele>1086.4</ele>
        <time>2026-03-19T14:50:08Z</time>
      </trkpt>
      <trkpt lat="48.20049" lon="7.1638">
        <ele>1085.9</ele>
        <time>2026-03-19T14:50:13Z</time>
      </trkpt>
      <trkpt lat="48.20046" lon="7.16375">
        <ele>1086.1</ele>
        <time>2026-03-19T14:50:18Z</time>
      </trkpt>
      <trkpt lat="48.20044" lon="7.16367">
        <ele>1086.9</ele>
        <time>2026-03-19T14:50:23Z</time>
      </trkpt>
      <trkpt lat="48.20044" lon="7.16364">
        <ele>1087.3</ele>
        <time>2026-03-19T14:50:28Z</time>
      </trkpt>
      <trkpt lat="48.20038" lon="7.16359">
        <ele>1087</ele>
        <time>2026-03-19T14:50:33Z</time>
      </trkpt>
      <trkpt lat="48.20037" lon="7.16352">
        <ele>1088</ele>
        <time>2026-03-19T14:50:38Z</time>
      </trkpt>
      <trkpt lat="48.20034" lon="7.16346">
        <ele>1088.5</ele>
        <time>2026-03-19T14:50:43Z</time>
      </trkpt>
      <trkpt lat="48.2003" lon="7.16341">
        <ele>1088.7</ele>
        <time>2026-03-19T14:50:48Z</time>
      </trkpt>
      <trkpt lat="48.20027" lon="7.16334">
        <ele>1089.5</ele>
        <time>2026-03-19T14:50:53Z</time>
      </trkpt>
      <trkpt lat="48.20023" lon="7.16329">
        <ele>1089.4</ele>
        <time>2026-03-19T14:50:58Z</time>
      </trkpt>
      <trkpt lat="48.20017" lon="7.16321">
        <ele>1089.4</ele>
        <time>2026-03-19T14:51:03Z</time>
      </trkpt>
      <trkpt lat="48.20012" lon="7.16314">
        <ele>1089.6</ele>
        <time>2026-03-19T14:51:08Z</time>
      </trkpt>
      <trkpt lat="48.20009" lon="7.16308">
        <ele>1090</ele>
        <time>2026-03-19T14:51:13Z</time>
      </trkpt>
      <trkpt lat="48.20004" lon="7.16299">
        <ele>1090.7</ele>
        <time>2026-03-19T14:51:18Z</time>
      </trkpt>
      <trkpt lat="48.2" lon="7.16293">
        <ele>1091.3</ele>
        <time>2026-03-19T14:51:23Z</time>
      </trkpt>
      <trkpt lat="48.19995" lon="7.16286">
        <ele>1091.2</ele>
        <time>2026-03-19T14:51:28Z</time>
      </trkpt>
      <trkpt lat="48.19991" lon="7.16282">
        <ele>1091</ele>
        <time>2026-03-19T14:51:33Z</time>
      </trkpt>
      <trkpt lat="48.19987" lon="7.16277">
        <ele>1091</ele>
        <time>2026-03-19T14:51:38Z</time>
      </trkpt>
      <trkpt lat="48.19983" lon="7.1627">
        <ele>1091.4</ele>
        <time>2026-03-19T14:51:43Z</time>
      </trkpt>
      <trkpt lat="48.19979" lon="7.16265">
        <ele>1091.6</ele>
        <time>2026-03-19T14:51:48Z</time>
      </trkpt>
      <trkpt lat="48.19974" lon="7.16259">
        <ele>1091.9</ele>
        <time>2026-03-19T14:51:53Z</time>
      </trkpt>
      <trkpt lat="48.1997" lon="7.16253">
        <ele>1092.5</ele>
        <time>2026-03-19T14:51:58Z</time>
      </trkpt>
      <trkpt lat="48.19965" lon="7.16246">
        <ele>1092.9</ele>
        <time>2026-03-19T14:52:03Z</time>
      </trkpt>
      <trkpt lat="48.19959" lon="7.1624">
        <ele>1093</ele>
        <time>2026-03-19T14:52:08Z</time>
      </trkpt>
      <trkpt lat="48.19954" lon="7.16233">
        <ele>1093.5</ele>
        <time>2026-03-19T14:52:13Z</time>
      </trkpt>
      <trkpt lat="48.1995" lon="7.16225">
        <ele>1094.4</ele>
        <time>2026-03-19T14:52:18Z</time>
      </trkpt>
      <trkpt lat="48.19945" lon="7.16219">
        <ele>1095</ele>
        <time>2026-03-19T14:52:23Z</time>
      </trkpt>
      <trkpt lat="48.19941" lon="7.16212">
        <ele>1096</ele>
        <time>2026-03-19T14:52:28Z</time>
      </trkpt>
      <trkpt lat="48.19937" lon="7.16206">
        <ele>1096.9</ele>
        <time>2026-03-19T14:52:33Z</time>
      </trkpt>
      <trkpt lat="48.19932" lon="7.16201">
        <ele>1097.7</ele>
        <time>2026-03-19T14:52:38Z</time>
      </trkpt>
      <trkpt lat="48.19926" lon="7.16197">
        <ele>1098.3</ele>
        <time>2026-03-19T14:52:43Z</time>
      </trkpt>
      <trkpt lat="48.19921" lon="7.16192">
        <ele>1099.3</ele>
        <time>2026-03-19T14:52:48Z</time>
      </trkpt>
      <trkpt lat="48.19916" lon="7.16187">
        <ele>1100.2</ele>
        <time>2026-03-19T14:52:53Z</time>
      </trkpt>
      <trkpt lat="48.19911" lon="7.16183">
        <ele>1099.8</ele>
        <time>2026-03-19T14:52:58Z</time>
      </trkpt>
      <trkpt lat="48.19906" lon="7.16181">
        <ele>1099</ele>
        <time>2026-03-19T14:53:03Z</time>
      </trkpt>
      <trkpt lat="48.19903" lon="7.16178">
        <ele>1099</ele>
        <time>2026-03-19T14:53:08Z</time>
      </trkpt>
      <trkpt lat="48.19898" lon="7.16175">
        <ele>1098.5</ele>
        <time>2026-03-19T14:53:13Z</time>
      </trkpt>
      <trkpt lat="48.19894" lon="7.16169">
        <ele>1099</ele>
        <time>2026-03-19T14:53:18Z</time>
      </trkpt>
      <trkpt lat="48.1989" lon="7.16164">
        <ele>1099</ele>
        <time>2026-03-19T14:53:23Z</time>
      </trkpt>
      <trkpt lat="48.19885" lon="7.16157">
        <ele>1099</ele>
        <time>2026-03-19T14:53:28Z</time>
      </trkpt>
      <trkpt lat="48.1988" lon="7.1615">
        <ele>1099.2</ele>
        <time>2026-03-19T14:53:33Z</time>
      </trkpt>
      <trkpt lat="48.19877" lon="7.16142">
        <ele>1100.1</ele>
        <time>2026-03-19T14:53:38Z</time>
      </trkpt>
      <trkpt lat="48.19877" lon="7.16142">
        <ele>1100.1</ele>
        <time>2026-03-19T14:53:43Z</time>
      </trkpt>
      <trkpt lat="48.19877" lon="7.16141">
        <ele>1100.3</ele>
        <time>2026-03-19T14:53:48Z</time>
      </trkpt>
      <trkpt lat="48.19873" lon="7.16136">
        <ele>1100.5</ele>
        <time>2026-03-19T14:53:53Z</time>
      </trkpt>
      <trkpt lat="48.19868" lon="7.16131">
        <ele>1100.7</ele>
        <time>2026-03-19T14:53:58Z</time>
      </trkpt>
      <trkpt lat="48.19865" lon="7.16129">
        <ele>1100.7</ele>
        <time>2026-03-19T14:54:03Z</time>
      </trkpt>
      <trkpt lat="48.19863" lon="7.16122">
        <ele>1101.9</ele>
        <time>2026-03-19T14:54:08Z</time>
      </trkpt>
      <trkpt lat="48.1986" lon="7.16114">
        <ele>1103.3</ele>
        <time>2026-03-19T14:54:13Z</time>
      </trkpt>
      <trkpt lat="48.19859" lon="7.16108">
        <ele>1104.6</ele>
        <time>2026-03-19T14:54:18Z</time>
      </trkpt>
      <trkpt lat="48.19858" lon="7.16101">
        <ele>1106.1</ele>
        <time>2026-03-19T14:54:23Z</time>
      </trkpt>
      <trkpt lat="48.19857" lon="7.16097">
        <ele>1106.9</ele>
        <time>2026-03-19T14:54:28Z</time>
      </trkpt>
      <trkpt lat="48.19855" lon="7.16091">
        <ele>1108.2</ele>
        <time>2026-03-19T14:54:33Z</time>
      </trkpt>
      <trkpt lat="48.19854" lon="7.16087">
        <ele>1109.1</ele>
        <time>2026-03-19T14:54:38Z</time>
      </trkpt>
      <trkpt lat="48.19851" lon="7.16082">
        <ele>1110</ele>
        <time>2026-03-19T14:54:43Z</time>
      </trkpt>
      <trkpt lat="48.19849" lon="7.16078">
        <ele>1110.5</ele>
        <time>2026-03-19T14:54:48Z</time>
      </trkpt>
      <trkpt lat="48.19848" lon="7.16072">
        <ele>1111.3</ele>
        <time>2026-03-19T14:54:53Z</time>
      </trkpt>
      <trkpt lat="48.19845" lon="7.16066">
        <ele>1112.1</ele>
        <time>2026-03-19T14:54:58Z</time>
      </trkpt>
      <trkpt lat="48.19845" lon="7.16062">
        <ele>1112.6</ele>
        <time>2026-03-19T14:55:03Z</time>
      </trkpt>
      <trkpt lat="48.19846" lon="7.16063">
        <ele>1112.5</ele>
        <time>2026-03-19T14:55:08Z</time>
      </trkpt>
      <trkpt lat="48.19846" lon="7.16063">
        <ele>1112.5</ele>
        <time>2026-03-19T14:55:13Z</time>
      </trkpt>
      <trkpt lat="48.19846" lon="7.16063">
        <ele>1112.5</ele>
        <time>2026-03-19T14:55:18Z</time>
      </trkpt>
      <trkpt lat="48.19846" lon="7.16063">
        <ele>1112.5</ele>
        <time>2026-03-19T14:55:23Z</time>
      </trkpt>
      <trkpt lat="48.19846" lon="7.16063">
        <ele>1112.5</ele>
        <time>2026-03-19T14:55:28Z</time>
      </trkpt>
      <trkpt lat="48.19847" lon="7.16062">
        <ele>1112.7</ele>
        <time>2026-03-19T14:55:33Z</time>
      </trkpt>
      <trkpt lat="48.19846" lon="7.16054">
        <ele>1113.8</ele>
        <time>2026-03-19T14:55:38Z</time>
      </trkpt>
      <trkpt lat="48.19844" lon="7.16048">
        <ele>1114.7</ele>
        <time>2026-03-19T14:55:43Z</time>
      </trkpt>
      <trkpt lat="48.19842" lon="7.16042">
        <ele>1115.6</ele>
        <time>2026-03-19T14:55:48Z</time>
      </trkpt>
      <trkpt lat="48.1984" lon="7.16039">
        <ele>1116.2</ele>
        <time>2026-03-19T14:55:53Z</time>
      </trkpt>
      <trkpt lat="48.19837" lon="7.16036">
        <ele>1116.8</ele>
        <time>2026-03-19T14:55:58Z</time>
      </trkpt>
      <trkpt lat="48.19834" lon="7.16032">
        <ele>1117.6</ele>
        <time>2026-03-19T14:56:03Z</time>
      </trkpt>
      <trkpt lat="48.19831" lon="7.16028">
        <ele>1117.9</ele>
        <time>2026-03-19T14:56:08Z</time>
      </trkpt>
      <trkpt lat="48.1983" lon="7.16025">
        <ele>1118.3</ele>
        <time>2026-03-19T14:56:13Z</time>
      </trkpt>
      <trkpt lat="48.19828" lon="7.16023">
        <ele>1118.3</ele>
        <time>2026-03-19T14:56:18Z</time>
      </trkpt>
      <trkpt lat="48.19828" lon="7.16023">
        <ele>1118.3</ele>
        <time>2026-03-19T14:56:23Z</time>
      </trkpt>
      <trkpt lat="48.19823" lon="7.16016">
        <ele>1118.8</ele>
        <time>2026-03-19T14:56:28Z</time>
      </trkpt>
      <trkpt lat="48.19824" lon="7.16011">
        <ele>1119.9</ele>
        <time>2026-03-19T14:56:33Z</time>
      </trkpt>
      <trkpt lat="48.19821" lon="7.16006">
        <ele>1120.4</ele>
        <time>2026-03-19T14:56:38Z</time>
      </trkpt>
      <trkpt lat="48.19819" lon="7.16002">
        <ele>1120.9</ele>
        <time>2026-03-19T14:56:43Z</time>
      </trkpt>
      <trkpt lat="48.19819" lon="7.16002">
        <ele>1120.9</ele>
        <time>2026-03-19T14:56:48Z</time>
      </trkpt>
      <trkpt lat="48.19812" lon="7.15993">
        <ele>1121.5</ele>
        <time>2026-03-19T14:56:53Z</time>
      </trkpt>
      <trkpt lat="48.1981" lon="7.1599">
        <ele>1121.7</ele>
        <time>2026-03-19T14:56:58Z</time>
      </trkpt>
      <trkpt lat="48.19808" lon="7.15987">
        <ele>1122</ele>
        <time>2026-03-19T14:57:03Z</time>
      </trkpt>
      <trkpt lat="48.19808" lon="7.15987">
        <ele>1122</ele>
        <time>2026-03-19T14:57:08Z</time>
      </trkpt>
      <trkpt lat="48.19802" lon="7.15981">
        <ele>1122.5</ele>
        <time>2026-03-19T14:57:13Z</time>
      </trkpt>
      <trkpt lat="48.19801" lon="7.15978">
        <ele>1123</ele>
        <time>2026-03-19T14:57:18Z</time>
      </trkpt>
      <trkpt lat="48.19801" lon="7.15978">
        <ele>1123</ele>
        <time>2026-03-19T14:57:23Z</time>
      </trkpt>
      <trkpt lat="48.19794" lon="7.15974">
        <ele>1123.3</ele>
        <time>2026-03-19T14:57:28Z</time>
      </trkpt>
      <trkpt lat="48.19793" lon="7.15971">
        <ele>1123.8</ele>
        <time>2026-03-19T14:57:33Z</time>
      </trkpt>
      <trkpt lat="48.1979" lon="7.15967">
        <ele>1124.5</ele>
        <time>2026-03-19T14:57:38Z</time>
      </trkpt>
      <trkpt lat="48.19788" lon="7.15962">
        <ele>1125.4</ele>
        <time>2026-03-19T14:57:43Z</time>
      </trkpt>
      <trkpt lat="48.19787" lon="7.15959">
        <ele>1126</ele>
        <time>2026-03-19T14:57:48Z</time>
      </trkpt>
      <trkpt lat="48.19784" lon="7.15956">
        <ele>1126.6</ele>
        <time>2026-03-19T14:57:53Z</time>
      </trkpt>
      <trkpt lat="48.19782" lon="7.15953">
        <ele>1127.3</ele>
        <time>2026-03-19T14:57:58Z</time>
      </trkpt>
      <trkpt lat="48.19779" lon="7.1595">
        <ele>1127.9</ele>
        <time>2026-03-19T14:58:03Z</time>
      </trkpt>
      <trkpt lat="48.19778" lon="7.15948">
        <ele>1128.4</ele>
        <time>2026-03-19T14:58:08Z</time>
      </trkpt>
      <trkpt lat="48.19778" lon="7.15948">
        <ele>1128.4</ele>
        <time>2026-03-19T14:58:13Z</time>
      </trkpt>
      <trkpt lat="48.19771" lon="7.1594">
        <ele>1130.4</ele>
        <time>2026-03-19T14:58:18Z</time>
      </trkpt>
      <trkpt lat="48.19769" lon="7.15935">
        <ele>1131.8</ele>
        <time>2026-03-19T14:58:23Z</time>
      </trkpt>
      <trkpt lat="48.19766" lon="7.1593">
        <ele>1133.2</ele>
        <time>2026-03-19T14:58:28Z</time>
      </trkpt>
      <trkpt lat="48.19763" lon="7.15925">
        <ele>1134.7</ele>
        <time>2026-03-19T14:58:33Z</time>
      </trkpt>
      <trkpt lat="48.19762" lon="7.15921">
        <ele>1135.8</ele>
        <time>2026-03-19T14:58:38Z</time>
      </trkpt>
      <trkpt lat="48.1976" lon="7.15918">
        <ele>1136.8</ele>
        <time>2026-03-19T14:58:43Z</time>
      </trkpt>
      <trkpt lat="48.19757" lon="7.15913">
        <ele>1138</ele>
        <time>2026-03-19T14:58:48Z</time>
      </trkpt>
      <trkpt lat="48.19755" lon="7.1591">
        <ele>1138.7</ele>
        <time>2026-03-19T14:58:53Z</time>
      </trkpt>
      <trkpt lat="48.19752" lon="7.15906">
        <ele>1139.7</ele>
        <time>2026-03-19T14:58:58Z</time>
      </trkpt>
      <trkpt lat="48.19751" lon="7.15905">
        <ele>1140</ele>
        <time>2026-03-19T14:59:03Z</time>
      </trkpt>
      <trkpt lat="48.19751" lon="7.15905">
        <ele>1140</ele>
        <time>2026-03-19T14:59:08Z</time>
      </trkpt>
      <trkpt lat="48.19751" lon="7.15905">
        <ele>1140</ele>
        <time>2026-03-19T14:59:13Z</time>
      </trkpt>
      <trkpt lat="48.19751" lon="7.15905">
        <ele>1140</ele>
        <time>2026-03-19T14:59:18Z</time>
      </trkpt>
      <trkpt lat="48.1975" lon="7.15903">
        <ele>1140.5</ele>
        <time>2026-03-19T14:59:23Z</time>
      </trkpt>
      <trkpt lat="48.19746" lon="7.15897">
        <ele>1141.3</ele>
        <time>2026-03-19T14:59:28Z</time>
      </trkpt>
      <trkpt lat="48.19744" lon="7.15892">
        <ele>1142.2</ele>
        <time>2026-03-19T14:59:33Z</time>
      </trkpt>
      <trkpt lat="48.19744" lon="7.15888">
        <ele>1142.9</ele>
        <time>2026-03-19T14:59:38Z</time>
      </trkpt>
      <trkpt lat="48.19741" lon="7.15885">
        <ele>1143.4</ele>
        <time>2026-03-19T14:59:43Z</time>
      </trkpt>
      <trkpt lat="48.19739" lon="7.1588">
        <ele>1144.3</ele>
        <time>2026-03-19T14:59:48Z</time>
      </trkpt>
      <trkpt lat="48.19738" lon="7.15876">
        <ele>1145.1</ele>
        <time>2026-03-19T14:59:53Z</time>
      </trkpt>
      <trkpt lat="48.19737" lon="7.15873">
        <ele>1145.7</ele>
        <time>2026-03-19T14:59:58Z</time>
      </trkpt>
      <trkpt lat="48.19735" lon="7.1587">
        <ele>1146.2</ele>
        <time>2026-03-19T15:00:03Z</time>
      </trkpt>
      <trkpt lat="48.19733" lon="7.15867">
        <ele>1146.8</ele>
        <time>2026-03-19T15:00:08Z</time>
      </trkpt>
      <trkpt lat="48.19731" lon="7.15863">
        <ele>1147.7</ele>
        <time>2026-03-19T15:00:13Z</time>
      </trkpt>
      <trkpt lat="48.19729" lon="7.15861">
        <ele>1148.1</ele>
        <time>2026-03-19T15:00:18Z</time>
      </trkpt>
      <trkpt lat="48.19725" lon="7.15855">
        <ele>1149.4</ele>
        <time>2026-03-19T15:00:23Z</time>
      </trkpt>
      <trkpt lat="48.19723" lon="7.15848">
        <ele>1151</ele>
        <time>2026-03-19T15:00:28Z</time>
      </trkpt>
      <trkpt lat="48.19721" lon="7.15846">
        <ele>1151.5</ele>
        <time>2026-03-19T15:00:33Z</time>
      </trkpt>
      <trkpt lat="48.19718" lon="7.15845">
        <ele>1151.8</ele>
        <time>2026-03-19T15:00:38Z</time>
      </trkpt>
      <trkpt lat="48.19716" lon="7.15844">
        <ele>1152.1</ele>
        <time>2026-03-19T15:00:43Z</time>
      </trkpt>
      <trkpt lat="48.19713" lon="7.15841">
        <ele>1152.9</ele>
        <time>2026-03-19T15:00:48Z</time>
      </trkpt>
      <trkpt lat="48.19711" lon="7.15838">
        <ele>1153.7</ele>
        <time>2026-03-19T15:00:53Z</time>
      </trkpt>
      <trkpt lat="48.19707" lon="7.15835">
        <ele>1154.7</ele>
        <time>2026-03-19T15:00:58Z</time>
      </trkpt>
      <trkpt lat="48.19704" lon="7.15833">
        <ele>1155.2</ele>
        <time>2026-03-19T15:01:03Z</time>
      </trkpt>
      <trkpt lat="48.19701" lon="7.1583">
        <ele>1155.6</ele>
        <time>2026-03-19T15:01:08Z</time>
      </trkpt>
      <trkpt lat="48.197" lon="7.15826">
        <ele>1155.9</ele>
        <time>2026-03-19T15:01:13Z</time>
      </trkpt>
      <trkpt lat="48.19698" lon="7.15822">
        <ele>1156.4</ele>
        <time>2026-03-19T15:01:18Z</time>
      </trkpt>
      <trkpt lat="48.19692" lon="7.1582">
        <ele>1157</ele>
        <time>2026-03-19T15:01:23Z</time>
      </trkpt>
      <trkpt lat="48.19691" lon="7.15817">
        <ele>1157.3</ele>
        <time>2026-03-19T15:01:28Z</time>
      </trkpt>
      <trkpt lat="48.19687" lon="7.15813">
        <ele>1158.1</ele>
        <time>2026-03-19T15:01:33Z</time>
      </trkpt>
      <trkpt lat="48.19683" lon="7.15812">
        <ele>1158.5</ele>
        <time>2026-03-19T15:01:38Z</time>
      </trkpt>
      <trkpt lat="48.19679" lon="7.15811">
        <ele>1159</ele>
        <time>2026-03-19T15:01:43Z</time>
      </trkpt>
      <trkpt lat="48.19676" lon="7.15809">
        <ele>1159.6</ele>
        <time>2026-03-19T15:01:48Z</time>
      </trkpt>
      <trkpt lat="48.19673" lon="7.15808">
        <ele>1160</ele>
        <time>2026-03-19T15:01:53Z</time>
      </trkpt>
      <trkpt lat="48.19669" lon="7.15804">
        <ele>1161</ele>
        <time>2026-03-19T15:01:58Z</time>
      </trkpt>
      <trkpt lat="48.19666" lon="7.158">
        <ele>1161.9</ele>
        <time>2026-03-19T15:02:03Z</time>
      </trkpt>
      <trkpt lat="48.19664" lon="7.15797">
        <ele>1162.4</ele>
        <time>2026-03-19T15:02:08Z</time>
      </trkpt>
      <trkpt lat="48.19663" lon="7.15794">
        <ele>1163</ele>
        <time>2026-03-19T15:02:13Z</time>
      </trkpt>
      <trkpt lat="48.19659" lon="7.15791">
        <ele>1163.8</ele>
        <time>2026-03-19T15:02:18Z</time>
      </trkpt>
      <trkpt lat="48.19657" lon="7.15788">
        <ele>1164.5</ele>
        <time>2026-03-19T15:02:23Z</time>
      </trkpt>
      <trkpt lat="48.19652" lon="7.15785">
        <ele>1165.4</ele>
        <time>2026-03-19T15:02:28Z</time>
      </trkpt>
      <trkpt lat="48.19648" lon="7.15783">
        <ele>1166.2</ele>
        <time>2026-03-19T15:02:33Z</time>
      </trkpt>
      <trkpt lat="48.19646" lon="7.15779">
        <ele>1167.1</ele>
        <time>2026-03-19T15:02:38Z</time>
      </trkpt>
      <trkpt lat="48.19645" lon="7.15775">
        <ele>1167.9</ele>
        <time>2026-03-19T15:02:43Z</time>
      </trkpt>
      <trkpt lat="48.19644" lon="7.15774">
        <ele>1168.2</ele>
        <time>2026-03-19T15:02:48Z</time>
      </trkpt>
      <trkpt lat="48.19641" lon="7.15772">
        <ele>1168.9</ele>
        <time>2026-03-19T15:02:53Z</time>
      </trkpt>
      <trkpt lat="48.19641" lon="7.15772">
        <ele>1168.9</ele>
        <time>2026-03-19T15:02:58Z</time>
      </trkpt>
      <trkpt lat="48.19641" lon="7.15772">
        <ele>1168.9</ele>
        <time>2026-03-19T15:03:03Z</time>
      </trkpt>
      <trkpt lat="48.19638" lon="7.15772">
        <ele>1169.3</ele>
        <time>2026-03-19T15:03:08Z</time>
      </trkpt>
      <trkpt lat="48.19638" lon="7.15772">
        <ele>1169.3</ele>
        <time>2026-03-19T15:03:13Z</time>
      </trkpt>
      <trkpt lat="48.19638" lon="7.15772">
        <ele>1169.3</ele>
        <time>2026-03-19T15:03:18Z</time>
      </trkpt>
      <trkpt lat="48.19638" lon="7.15772">
        <ele>1169.3</ele>
        <time>2026-03-19T15:03:23Z</time>
      </trkpt>
      <trkpt lat="48.19638" lon="7.15772">
        <ele>1169.3</ele>
        <time>2026-03-19T15:03:28Z</time>
      </trkpt>
      <trkpt lat="48.19638" lon="7.15772">
        <ele>1169.3</ele>
        <time>2026-03-19T15:03:33Z</time>
      </trkpt>
      <trkpt lat="48.19633" lon="7.15765">
        <ele>1171.3</ele>
        <time>2026-03-19T15:03:38Z</time>
      </trkpt>
      <trkpt lat="48.19629" lon="7.15764">
        <ele>1172</ele>
        <time>2026-03-19T15:03:43Z</time>
      </trkpt>
      <trkpt lat="48.19626" lon="7.15763">
        <ele>1172.6</ele>
        <time>2026-03-19T15:03:48Z</time>
      </trkpt>
      <trkpt lat="48.19626" lon="7.15764">
        <ele>1172.4</ele>
        <time>2026-03-19T15:03:53Z</time>
      </trkpt>
      <trkpt lat="48.19626" lon="7.15764">
        <ele>1172.4</ele>
        <time>2026-03-19T15:03:58Z</time>
      </trkpt>
      <trkpt lat="48.19626" lon="7.15764">
        <ele>1172.4</ele>
        <time>2026-03-19T15:04:03Z</time>
      </trkpt>
      <trkpt lat="48.19626" lon="7.15764">
        <ele>1172.4</ele>
        <time>2026-03-19T15:04:08Z</time>
      </trkpt>
      <trkpt lat="48.19626" lon="7.15764">
        <ele>1172.4</ele>
        <time>2026-03-19T15:04:13Z</time>
      </trkpt>
      <trkpt lat="48.1962" lon="7.15755">
        <ele>1175.2</ele>
        <time>2026-03-19T15:04:18Z</time>
      </trkpt>
      <trkpt lat="48.19615" lon="7.1575">
        <ele>1177.1</ele>
        <time>2026-03-19T15:04:23Z</time>
      </trkpt>
      <trkpt lat="48.19612" lon="7.15747">
        <ele>1177.7</ele>
        <time>2026-03-19T15:04:28Z</time>
      </trkpt>
      <trkpt lat="48.1961" lon="7.15744">
        <ele>1178.1</ele>
        <time>2026-03-19T15:04:33Z</time>
      </trkpt>
      <trkpt lat="48.19607" lon="7.15743">
        <ele>1178.6</ele>
        <time>2026-03-19T15:04:38Z</time>
      </trkpt>
      <trkpt lat="48.19605" lon="7.15743">
        <ele>1179</ele>
        <time>2026-03-19T15:04:43Z</time>
      </trkpt>
      <trkpt lat="48.19602" lon="7.15739">
        <ele>1179.7</ele>
        <time>2026-03-19T15:04:48Z</time>
      </trkpt>
      <trkpt lat="48.196" lon="7.15736">
        <ele>1180.2</ele>
        <time>2026-03-19T15:04:53Z</time>
      </trkpt>
      <trkpt lat="48.19597" lon="7.15735">
        <ele>1180.7</ele>
        <time>2026-03-19T15:04:58Z</time>
      </trkpt>
      <trkpt lat="48.19592" lon="7.15732">
        <ele>1181.8</ele>
        <time>2026-03-19T15:05:03Z</time>
      </trkpt>
      <trkpt lat="48.19589" lon="7.1573">
        <ele>1182.4</ele>
        <time>2026-03-19T15:05:08Z</time>
      </trkpt>
      <trkpt lat="48.19588" lon="7.15726">
        <ele>1182.9</ele>
        <time>2026-03-19T15:05:13Z</time>
      </trkpt>
      <trkpt lat="48.19586" lon="7.15724">
        <ele>1183.4</ele>
        <time>2026-03-19T15:05:18Z</time>
      </trkpt>
      <trkpt lat="48.19586" lon="7.15724">
        <ele>1183.4</ele>
        <time>2026-03-19T15:05:23Z</time>
      </trkpt>
      <trkpt lat="48.19582" lon="7.15719">
        <ele>1184.1</ele>
        <time>2026-03-19T15:05:28Z</time>
      </trkpt>
      <trkpt lat="48.19578" lon="7.15715">
        <ele>1184.2</ele>
        <time>2026-03-19T15:05:33Z</time>
      </trkpt>
      <trkpt lat="48.19575" lon="7.15713">
        <ele>1184.2</ele>
        <time>2026-03-19T15:05:38Z</time>
      </trkpt>
      <trkpt lat="48.1957" lon="7.1571">
        <ele>1184.1</ele>
        <time>2026-03-19T15:05:43Z</time>
      </trkpt>
      <trkpt lat="48.19565" lon="7.15706">
        <ele>1184.2</ele>
        <time>2026-03-19T15:05:48Z</time>
      </trkpt>
      <trkpt lat="48.19564" lon="7.15702">
        <ele>1184.5</ele>
        <time>2026-03-19T15:05:53Z</time>
      </trkpt>
      <trkpt lat="48.19562" lon="7.157">
        <ele>1184.6</ele>
        <time>2026-03-19T15:05:58Z</time>
      </trkpt>
      <trkpt lat="48.1956" lon="7.15698">
        <ele>1184.7</ele>
        <time>2026-03-19T15:06:03Z</time>
      </trkpt>
      <trkpt lat="48.19555" lon="7.15692">
        <ele>1185.1</ele>
        <time>2026-03-19T15:06:08Z</time>
      </trkpt>
      <trkpt lat="48.1955" lon="7.15688">
        <ele>1185.3</ele>
        <time>2026-03-19T15:06:13Z</time>
      </trkpt>
      <trkpt lat="48.19546" lon="7.15684">
        <ele>1185.7</ele>
        <time>2026-03-19T15:06:18Z</time>
      </trkpt>
      <trkpt lat="48.19543" lon="7.15683">
        <ele>1185.7</ele>
        <time>2026-03-19T15:06:23Z</time>
      </trkpt>
      <trkpt lat="48.19541" lon="7.15681">
        <ele>1185.8</ele>
        <time>2026-03-19T15:06:28Z</time>
      </trkpt>
      <trkpt lat="48.19539" lon="7.15681">
        <ele>1185.8</ele>
        <time>2026-03-19T15:06:33Z</time>
      </trkpt>
      <trkpt lat="48.19539" lon="7.15682">
        <ele>1185.7</ele>
        <time>2026-03-19T15:06:38Z</time>
      </trkpt>
      <trkpt lat="48.19532" lon="7.15678">
        <ele>1186</ele>
        <time>2026-03-19T15:06:43Z</time>
      </trkpt>
      <trkpt lat="48.19528" lon="7.15676">
        <ele>1186.1</ele>
        <time>2026-03-19T15:06:48Z</time>
      </trkpt>
      <trkpt lat="48.19525" lon="7.15673">
        <ele>1186.5</ele>
        <time>2026-03-19T15:06:53Z</time>
      </trkpt>
      <trkpt lat="48.19523" lon="7.1567">
        <ele>1186.8</ele>
        <time>2026-03-19T15:06:58Z</time>
      </trkpt>
      <trkpt lat="48.19522" lon="7.15666">
        <ele>1187.3</ele>
        <time>2026-03-19T15:07:03Z</time>
      </trkpt>
      <trkpt lat="48.1952" lon="7.15663">
        <ele>1187.4</ele>
        <time>2026-03-19T15:07:08Z</time>
      </trkpt>
      <trkpt lat="48.19518" lon="7.15659">
        <ele>1187.6</ele>
        <time>2026-03-19T15:07:13Z</time>
      </trkpt>
      <trkpt lat="48.19514" lon="7.15655">
        <ele>1187.8</ele>
        <time>2026-03-19T15:07:18Z</time>
      </trkpt>
      <trkpt lat="48.19511" lon="7.15652">
        <ele>1188.1</ele>
        <time>2026-03-19T15:07:23Z</time>
      </trkpt>
      <trkpt lat="48.19506" lon="7.1565">
        <ele>1188.3</ele>
        <time>2026-03-19T15:07:28Z</time>
      </trkpt>
      <trkpt lat="48.19504" lon="7.15648">
        <ele>1188.5</ele>
        <time>2026-03-19T15:07:33Z</time>
      </trkpt>
      <trkpt lat="48.19499" lon="7.15646">
        <ele>1188.4</ele>
        <time>2026-03-19T15:07:38Z</time>
      </trkpt>
      <trkpt lat="48.19495" lon="7.15643">
        <ele>1187.3</ele>
        <time>2026-03-19T15:07:43Z</time>
      </trkpt>
      <trkpt lat="48.19492" lon="7.15639">
        <ele>1186.7</ele>
        <time>2026-03-19T15:07:48Z</time>
      </trkpt>
      <trkpt lat="48.1949" lon="7.15638">
        <ele>1186.1</ele>
        <time>2026-03-19T15:07:53Z</time>
      </trkpt>
      <trkpt lat="48.19486" lon="7.15636">
        <ele>1184.9</ele>
        <time>2026-03-19T15:07:58Z</time>
      </trkpt>
      <trkpt lat="48.19484" lon="7.15636">
        <ele>1184.3</ele>
        <time>2026-03-19T15:08:03Z</time>
      </trkpt>
      <trkpt lat="48.19483" lon="7.15633">
        <ele>1184.2</ele>
        <time>2026-03-19T15:08:08Z</time>
      </trkpt>
      <trkpt lat="48.19482" lon="7.15632">
        <ele>1184</ele>
        <time>2026-03-19T15:08:13Z</time>
      </trkpt>
      <trkpt lat="48.19482" lon="7.15632">
        <ele>1184</ele>
        <time>2026-03-19T15:08:18Z</time>
      </trkpt>
      <trkpt lat="48.19482" lon="7.15632">
        <ele>1184</ele>
        <time>2026-03-19T15:08:23Z</time>
      </trkpt>
      <trkpt lat="48.19482" lon="7.15632">
        <ele>1184</ele>
        <time>2026-03-19T15:08:28Z</time>
      </trkpt>
      <trkpt lat="48.19482" lon="7.15632">
        <ele>1184</ele>
        <time>2026-03-19T15:08:33Z</time>
      </trkpt>
      <trkpt lat="48.19474" lon="7.15622">
        <ele>1182.2</ele>
        <time>2026-03-19T15:08:38Z</time>
      </trkpt>
      <trkpt lat="48.19474" lon="7.15622">
        <ele>1182.2</ele>
        <time>2026-03-19T15:08:43Z</time>
      </trkpt>
      <trkpt lat="48.19474" lon="7.15622">
        <ele>1182.2</ele>
        <time>2026-03-19T15:08:48Z</time>
      </trkpt>
      <trkpt lat="48.19469" lon="7.15619">
        <ele>1180.8</ele>
        <time>2026-03-19T15:08:53Z</time>
      </trkpt>
      <trkpt lat="48.19467" lon="7.1562">
        <ele>1180.1</ele>
        <time>2026-03-19T15:08:58Z</time>
      </trkpt>
      <trkpt lat="48.19466" lon="7.1562">
        <ele>1179.7</ele>
        <time>2026-03-19T15:09:03Z</time>
      </trkpt>
      <trkpt lat="48.19466" lon="7.1562">
        <ele>1179.7</ele>
        <time>2026-03-19T15:09:08Z</time>
      </trkpt>
      <trkpt lat="48.19461" lon="7.15616">
        <ele>1178.4</ele>
        <time>2026-03-19T15:09:13Z</time>
      </trkpt>
      <trkpt lat="48.19461" lon="7.15615">
        <ele>1178.5</ele>
        <time>2026-03-19T15:09:18Z</time>
      </trkpt>
      <trkpt lat="48.19461" lon="7.15615">
        <ele>1178.5</ele>
        <time>2026-03-19T15:09:23Z</time>
      </trkpt>
      <trkpt lat="48.19461" lon="7.15615">
        <ele>1178.5</ele>
        <time>2026-03-19T15:09:28Z</time>
      </trkpt>
      <trkpt lat="48.19457" lon="7.15611">
        <ele>1177.6</ele>
        <time>2026-03-19T15:09:33Z</time>
      </trkpt>
      <trkpt lat="48.19456" lon="7.15611">
        <ele>1177.2</ele>
        <time>2026-03-19T15:09:38Z</time>
      </trkpt>
      <trkpt lat="48.19456" lon="7.15611">
        <ele>1177.2</ele>
        <time>2026-03-19T15:09:43Z</time>
      </trkpt>
      <trkpt lat="48.19454" lon="7.15606">
        <ele>1177</ele>
        <time>2026-03-19T15:09:48Z</time>
      </trkpt>
      <trkpt lat="48.19454" lon="7.15606">
        <ele>1177</ele>
        <time>2026-03-19T15:09:53Z</time>
      </trkpt>
      <trkpt lat="48.1945" lon="7.15603">
        <ele>1176</ele>
        <time>2026-03-19T15:09:58Z</time>
      </trkpt>
      <trkpt lat="48.19447" lon="7.156">
        <ele>1175.3</ele>
        <time>2026-03-19T15:10:03Z</time>
      </trkpt>
      <trkpt lat="48.19445" lon="7.15596">
        <ele>1175</ele>
        <time>2026-03-19T15:10:08Z</time>
      </trkpt>
      <trkpt lat="48.19441" lon="7.15592">
        <ele>1174.1</ele>
        <time>2026-03-19T15:10:13Z</time>
      </trkpt>
      <trkpt lat="48.19439" lon="7.15589">
        <ele>1173.7</ele>
        <time>2026-03-19T15:10:18Z</time>
      </trkpt>
      <trkpt lat="48.19439" lon="7.15589">
        <ele>1173.7</ele>
        <time>2026-03-19T15:10:23Z</time>
      </trkpt>
      <trkpt lat="48.19439" lon="7.15589">
        <ele>1173.7</ele>
        <time>2026-03-19T15:10:28Z</time>
      </trkpt>
      <trkpt lat="48.19439" lon="7.15589">
        <ele>1173.7</ele>
        <time>2026-03-19T15:10:33Z</time>
      </trkpt>
      <trkpt lat="48.19439" lon="7.15589">
        <ele>1173.7</ele>
        <time>2026-03-19T15:10:38Z</time>
      </trkpt>
      <trkpt lat="48.19439" lon="7.15589">
        <ele>1173.7</ele>
        <time>2026-03-19T15:10:43Z</time>
      </trkpt>
      <trkpt lat="48.19439" lon="7.15589">
        <ele>1173.7</ele>
        <time>2026-03-19T15:10:48Z</time>
      </trkpt>
      <trkpt lat="48.19439" lon="7.15589">
        <ele>1173.7</ele>
        <time>2026-03-19T15:10:53Z</time>
      </trkpt>
      <trkpt lat="48.19439" lon="7.15589">
        <ele>1173.7</ele>
        <time>2026-03-19T15:10:58Z</time>
      </trkpt>
      <trkpt lat="48.19439" lon="7.15589">
        <ele>1173.7</ele>
        <time>2026-03-19T15:11:03Z</time>
      </trkpt>
      <trkpt lat="48.19439" lon="7.15589">
        <ele>1173.7</ele>
        <time>2026-03-19T15:11:08Z</time>
      </trkpt>
      <trkpt lat="48.19439" lon="7.15589">
        <ele>1173.7</ele>
        <time>2026-03-19T15:11:13Z</time>
      </trkpt>
      <trkpt lat="48.19439" lon="7.15589">
        <ele>1173.7</ele>
        <time>2026-03-19T15:11:18Z</time>
      </trkpt>
      <trkpt lat="48.19439" lon="7.15589">
        <ele>1173.7</ele>
        <time>2026-03-19T15:11:23Z</time>
      </trkpt>
      <trkpt lat="48.19439" lon="7.15589">
        <ele>1173.7</ele>
        <time>2026-03-19T15:11:28Z</time>
      </trkpt>
      <trkpt lat="48.19439" lon="7.15589">
        <ele>1173.7</ele>
        <time>2026-03-19T15:11:33Z</time>
      </trkpt>
      <trkpt lat="48.19439" lon="7.15589">
        <ele>1173.7</ele>
        <time>2026-03-19T15:11:38Z</time>
      </trkpt>
      <trkpt lat="48.19439" lon="7.15589">
        <ele>1173.7</ele>
        <time>2026-03-19T15:11:43Z</time>
      </trkpt>
      <trkpt lat="48.19439" lon="7.15589">
        <ele>1173.7</ele>
        <time>2026-03-19T15:11:48Z</time>
      </trkpt>
      <trkpt lat="48.19439" lon="7.15589">
        <ele>1173.7</ele>
        <time>2026-03-19T15:11:53Z</time>
      </trkpt>
      <trkpt lat="48.19439" lon="7.15589">
        <ele>1173.7</ele>
        <time>2026-03-19T15:11:58Z</time>
      </trkpt>
      <trkpt lat="48.19439" lon="7.15589">
        <ele>1173.7</ele>
        <time>2026-03-19T15:12:03Z</time>
      </trkpt>
      <trkpt lat="48.19439" lon="7.15589">
        <ele>1173.7</ele>
        <time>2026-03-19T15:12:08Z</time>
      </trkpt>
      <trkpt lat="48.19439" lon="7.15589">
        <ele>1173.7</ele>
        <time>2026-03-19T15:12:13Z</time>
      </trkpt>
      <trkpt lat="48.19439" lon="7.15582">
        <ele>1174.3</ele>
        <time>2026-03-19T15:12:18Z</time>
      </trkpt>
      <trkpt lat="48.19436" lon="7.15573">
        <ele>1173.8</ele>
        <time>2026-03-19T15:12:23Z</time>
      </trkpt>
      <trkpt lat="48.19434" lon="7.15565">
        <ele>1173.7</ele>
        <time>2026-03-19T15:12:28Z</time>
      </trkpt>
      <trkpt lat="48.1943" lon="7.15557">
        <ele>1173</ele>
        <time>2026-03-19T15:12:33Z</time>
      </trkpt>
      <trkpt lat="48.19427" lon="7.1555">
        <ele>1172.6</ele>
        <time>2026-03-19T15:12:38Z</time>
      </trkpt>
      <trkpt lat="48.19427" lon="7.15542">
        <ele>1173.1</ele>
        <time>2026-03-19T15:12:43Z</time>
      </trkpt>
      <trkpt lat="48.19425" lon="7.15535">
        <ele>1173.1</ele>
        <time>2026-03-19T15:12:48Z</time>
      </trkpt>
      <trkpt lat="48.19422" lon="7.1553">
        <ele>1172.8</ele>
        <time>2026-03-19T15:12:53Z</time>
      </trkpt>
      <trkpt lat="48.19422" lon="7.15526">
        <ele>1173.1</ele>
        <time>2026-03-19T15:12:58Z</time>
      </trkpt>
      <trkpt lat="48.19419" lon="7.15518">
        <ele>1173</ele>
        <time>2026-03-19T15:13:03Z</time>
      </trkpt>
      <trkpt lat="48.19417" lon="7.15509">
        <ele>1173.3</ele>
        <time>2026-03-19T15:13:08Z</time>
      </trkpt>
      <trkpt lat="48.19414" lon="7.15501">
        <ele>1173.1</ele>
        <time>2026-03-19T15:13:13Z</time>
      </trkpt>
      <trkpt lat="48.19412" lon="7.15496">
        <ele>1172.6</ele>
        <time>2026-03-19T15:13:18Z</time>
      </trkpt>
      <trkpt lat="48.19409" lon="7.15489">
        <ele>1171.9</ele>
        <time>2026-03-19T15:13:23Z</time>
      </trkpt>
      <trkpt lat="48.19407" lon="7.15483">
        <ele>1171.5</ele>
        <time>2026-03-19T15:13:28Z</time>
      </trkpt>
      <trkpt lat="48.19405" lon="7.15477">
        <ele>1171.1</ele>
        <time>2026-03-19T15:13:33Z</time>
      </trkpt>
      <trkpt lat="48.19405" lon="7.15473">
        <ele>1171.3</ele>
        <time>2026-03-19T15:13:38Z</time>
      </trkpt>
      <trkpt lat="48.19403" lon="7.15468">
        <ele>1170.9</ele>
        <time>2026-03-19T15:13:43Z</time>
      </trkpt>
      <trkpt lat="48.19402" lon="7.15462">
        <ele>1170.9</ele>
        <time>2026-03-19T15:13:48Z</time>
      </trkpt>
      <trkpt lat="48.194" lon="7.15456">
        <ele>1170.6</ele>
        <time>2026-03-19T15:13:53Z</time>
      </trkpt>
      <trkpt lat="48.19398" lon="7.15452">
        <ele>1170.3</ele>
        <time>2026-03-19T15:13:58Z</time>
      </trkpt>
      <trkpt lat="48.19396" lon="7.15445">
        <ele>1170.1</ele>
        <time>2026-03-19T15:14:03Z</time>
      </trkpt>
      <trkpt lat="48.19394" lon="7.15437">
        <ele>1170</ele>
        <time>2026-03-19T15:14:08Z</time>
      </trkpt>
      <trkpt lat="48.19391" lon="7.15428">
        <ele>1169.8</ele>
        <time>2026-03-19T15:14:13Z</time>
      </trkpt>
      <trkpt lat="48.19389" lon="7.15419">
        <ele>1169.9</ele>
        <time>2026-03-19T15:14:18Z</time>
      </trkpt>
      <trkpt lat="48.19387" lon="7.15413">
        <ele>1170.1</ele>
        <time>2026-03-19T15:14:23Z</time>
      </trkpt>
      <trkpt lat="48.19386" lon="7.15406">
        <ele>1171</ele>
        <time>2026-03-19T15:14:28Z</time>
      </trkpt>
      <trkpt lat="48.19383" lon="7.15398">
        <ele>1171.6</ele>
        <time>2026-03-19T15:14:33Z</time>
      </trkpt>
      <trkpt lat="48.1938" lon="7.15388">
        <ele>1172.5</ele>
        <time>2026-03-19T15:14:38Z</time>
      </trkpt>
      <trkpt lat="48.19377" lon="7.15379">
        <ele>1173.4</ele>
        <time>2026-03-19T15:14:43Z</time>
      </trkpt>
      <trkpt lat="48.19375" lon="7.15371">
        <ele>1174.4</ele>
        <time>2026-03-19T15:14:48Z</time>
      </trkpt>
      <trkpt lat="48.19374" lon="7.15364">
        <ele>1175.4</ele>
        <time>2026-03-19T15:14:53Z</time>
      </trkpt>
      <trkpt lat="48.19373" lon="7.15361">
        <ele>1175.7</ele>
        <time>2026-03-19T15:14:58Z</time>
      </trkpt>
      <trkpt lat="48.19373" lon="7.15361">
        <ele>1175.7</ele>
        <time>2026-03-19T15:15:03Z</time>
      </trkpt>
    </trkseg>
  </trk>
</gpx>